<?xml version="1.0" encoding="UTF-8" standalone="no" ?>
<gpx xmlns="http://www.topografix.com/GPX/1/1" xmlns:xsi="http://www.w3.org/2001/XMLSchema-instance" xsi:schemaLocation="http://www.topografix.com/GPX/1/1 http://www.topografix.com/GPX/1/1/gpx.xsd" version="1.1" creator="VisuGPX - https://www.visugpx.com">
  <metadata>
    <name>Saint Dolay_Nivillac_Saint Dolay_29Km</name>
  </metadata>
  <trk>
    <name><![CDATA[Saint Dolay Nivillac saint Dolay]]></name>
    <extensions>
      <line xmlns="http://www.topografix.com/GPX/gpx_style/0/2">
        <color>0000FF</color>
        <width>4</width>
      </line>
    </extensions>
    <trkseg>
      <trkpt lat="47.54625" lon="-2.15371">
        <ele>42</ele>
        <time>2021-08-14T06:55:18Z</time>
      </trkpt>
      <trkpt lat="47.54625" lon="-2.15371">
        <ele>42</ele>
        <time>2021-08-14T06:55:18Z</time>
      </trkpt>
      <trkpt lat="47.54624" lon="-2.15371">
        <ele>42</ele>
        <time>2021-08-14T06:55:19Z</time>
      </trkpt>
      <trkpt lat="47.54624" lon="-2.15371">
        <ele>42</ele>
        <time>2021-08-14T06:55:20Z</time>
      </trkpt>
      <trkpt lat="47.54624" lon="-2.15371">
        <ele>42</ele>
        <time>2021-08-14T06:55:22Z</time>
      </trkpt>
      <trkpt lat="47.54624" lon="-2.15371">
        <ele>42</ele>
        <time>2021-08-14T06:55:23Z</time>
      </trkpt>
      <trkpt lat="47.54624" lon="-2.1537">
        <ele>42</ele>
        <time>2021-08-14T06:55:25Z</time>
      </trkpt>
      <trkpt lat="47.54624" lon="-2.1537">
        <ele>42</ele>
        <time>2021-08-14T06:55:26Z</time>
      </trkpt>
      <trkpt lat="47.54624" lon="-2.15369">
        <ele>42</ele>
        <time>2021-08-14T06:55:27Z</time>
      </trkpt>
      <trkpt lat="47.54624" lon="-2.15369">
        <ele>41.9</ele>
        <time>2021-08-14T06:55:29Z</time>
      </trkpt>
      <trkpt lat="47.54623" lon="-2.15369">
        <ele>41.9</ele>
        <time>2021-08-14T06:55:30Z</time>
      </trkpt>
      <trkpt lat="47.54623" lon="-2.15368">
        <ele>41.9</ele>
        <time>2021-08-14T06:55:31Z</time>
      </trkpt>
      <trkpt lat="47.54623" lon="-2.15368">
        <ele>41.9</ele>
        <time>2021-08-14T06:55:32Z</time>
      </trkpt>
      <trkpt lat="47.54622" lon="-2.15368">
        <ele>41.9</ele>
        <time>2021-08-14T06:55:33Z</time>
      </trkpt>
      <trkpt lat="47.54622" lon="-2.15368">
        <ele>41.9</ele>
        <time>2021-08-14T06:55:35Z</time>
      </trkpt>
      <trkpt lat="47.54622" lon="-2.15368">
        <ele>41.9</ele>
        <time>2021-08-14T06:55:36Z</time>
      </trkpt>
      <trkpt lat="47.5462" lon="-2.15362">
        <ele>41.8</ele>
        <time>2021-08-14T06:57:45Z</time>
      </trkpt>
      <trkpt lat="47.5462" lon="-2.15361">
        <ele>41.8</ele>
        <time>2021-08-14T06:57:46Z</time>
      </trkpt>
      <trkpt lat="47.54619" lon="-2.15361">
        <ele>41.8</ele>
        <time>2021-08-14T06:57:48Z</time>
      </trkpt>
      <trkpt lat="47.54619" lon="-2.15362">
        <ele>41.8</ele>
        <time>2021-08-14T06:57:50Z</time>
      </trkpt>
      <trkpt lat="47.54619" lon="-2.15362">
        <ele>41.8</ele>
        <time>2021-08-14T06:57:51Z</time>
      </trkpt>
      <trkpt lat="47.54619" lon="-2.15362">
        <ele>41.8</ele>
        <time>2021-08-14T06:57:52Z</time>
      </trkpt>
      <trkpt lat="47.54619" lon="-2.15362">
        <ele>41.8</ele>
        <time>2021-08-14T06:57:54Z</time>
      </trkpt>
      <trkpt lat="47.54619" lon="-2.15362">
        <ele>41.8</ele>
        <time>2021-08-14T06:57:55Z</time>
      </trkpt>
      <trkpt lat="47.54619" lon="-2.15363">
        <ele>41.8</ele>
        <time>2021-08-14T06:57:57Z</time>
      </trkpt>
      <trkpt lat="47.54624" lon="-2.15372">
        <ele>41.7</ele>
        <time>2021-08-14T07:02:31Z</time>
      </trkpt>
      <trkpt lat="47.54625" lon="-2.15374">
        <ele>41.6</ele>
        <time>2021-08-14T07:02:32Z</time>
      </trkpt>
      <trkpt lat="47.54625" lon="-2.1538">
        <ele>41.6</ele>
        <time>2021-08-14T07:02:34Z</time>
      </trkpt>
      <trkpt lat="47.54625" lon="-2.15383">
        <ele>41.5</ele>
        <time>2021-08-14T07:02:35Z</time>
      </trkpt>
      <trkpt lat="47.54625" lon="-2.15389">
        <ele>41.5</ele>
        <time>2021-08-14T07:02:37Z</time>
      </trkpt>
      <trkpt lat="47.54625" lon="-2.15394">
        <ele>41.4</ele>
        <time>2021-08-14T07:02:38Z</time>
      </trkpt>
      <trkpt lat="47.54625" lon="-2.15396">
        <ele>41.4</ele>
        <time>2021-08-14T07:02:39Z</time>
      </trkpt>
      <trkpt lat="47.54625" lon="-2.15402">
        <ele>41.3</ele>
        <time>2021-08-14T07:02:41Z</time>
      </trkpt>
      <trkpt lat="47.54624" lon="-2.15409">
        <ele>41.2</ele>
        <time>2021-08-14T07:02:43Z</time>
      </trkpt>
      <trkpt lat="47.54623" lon="-2.15413">
        <ele>41.2</ele>
        <time>2021-08-14T07:02:44Z</time>
      </trkpt>
      <trkpt lat="47.54623" lon="-2.15419">
        <ele>41.1</ele>
        <time>2021-08-14T07:02:46Z</time>
      </trkpt>
      <trkpt lat="47.54622" lon="-2.15424">
        <ele>41</ele>
        <time>2021-08-14T07:02:47Z</time>
      </trkpt>
      <trkpt lat="47.54622" lon="-2.15425">
        <ele>41</ele>
        <time>2021-08-14T07:02:48Z</time>
      </trkpt>
      <trkpt lat="47.54623" lon="-2.1543">
        <ele>41</ele>
        <time>2021-08-14T07:02:50Z</time>
      </trkpt>
      <trkpt lat="47.54626" lon="-2.1543">
        <ele>40.9</ele>
        <time>2021-08-14T07:02:51Z</time>
      </trkpt>
      <trkpt lat="47.54633" lon="-2.1543">
        <ele>40.8</ele>
        <time>2021-08-14T07:02:53Z</time>
      </trkpt>
      <trkpt lat="47.54638" lon="-2.1543">
        <ele>40.7</ele>
        <time>2021-08-14T07:02:54Z</time>
      </trkpt>
      <trkpt lat="47.54647" lon="-2.15429">
        <ele>39.9</ele>
        <time>2021-08-14T07:02:56Z</time>
      </trkpt>
      <trkpt lat="47.54657" lon="-2.15425">
        <ele>39.4</ele>
        <time>2021-08-14T07:02:58Z</time>
      </trkpt>
      <trkpt lat="47.54661" lon="-2.15422">
        <ele>39.1</ele>
        <time>2021-08-14T07:02:59Z</time>
      </trkpt>
      <trkpt lat="47.54673" lon="-2.15416">
        <ele>38.5</ele>
        <time>2021-08-14T07:03:01Z</time>
      </trkpt>
      <trkpt lat="47.54679" lon="-2.15412">
        <ele>38.1</ele>
        <time>2021-08-14T07:03:02Z</time>
      </trkpt>
      <trkpt lat="47.5469" lon="-2.15405">
        <ele>37.5</ele>
        <time>2021-08-14T07:03:04Z</time>
      </trkpt>
      <trkpt lat="47.54702" lon="-2.15399">
        <ele>36.7</ele>
        <time>2021-08-14T07:03:06Z</time>
      </trkpt>
      <trkpt lat="47.54714" lon="-2.15392">
        <ele>36</ele>
        <time>2021-08-14T07:03:08Z</time>
      </trkpt>
      <trkpt lat="47.54728" lon="-2.15386">
        <ele>35.2</ele>
        <time>2021-08-14T07:03:10Z</time>
      </trkpt>
      <trkpt lat="47.54742" lon="-2.15381">
        <ele>34.3</ele>
        <time>2021-08-14T07:03:12Z</time>
      </trkpt>
      <trkpt lat="47.54749" lon="-2.15378">
        <ele>33.9</ele>
        <time>2021-08-14T07:03:13Z</time>
      </trkpt>
      <trkpt lat="47.54763" lon="-2.15373">
        <ele>33.1</ele>
        <time>2021-08-14T07:03:15Z</time>
      </trkpt>
      <trkpt lat="47.54777" lon="-2.15368">
        <ele>32.4</ele>
        <time>2021-08-14T07:03:17Z</time>
      </trkpt>
      <trkpt lat="47.54791" lon="-2.15368">
        <ele>31.8</ele>
        <time>2021-08-14T07:03:19Z</time>
      </trkpt>
      <trkpt lat="47.54798" lon="-2.15371">
        <ele>31.5</ele>
        <time>2021-08-14T07:03:20Z</time>
      </trkpt>
      <trkpt lat="47.54812" lon="-2.15376">
        <ele>31</ele>
        <time>2021-08-14T07:03:22Z</time>
      </trkpt>
      <trkpt lat="47.54818" lon="-2.15379">
        <ele>30.9</ele>
        <time>2021-08-14T07:03:23Z</time>
      </trkpt>
      <trkpt lat="47.54825" lon="-2.15381">
        <ele>30.7</ele>
        <time>2021-08-14T07:03:24Z</time>
      </trkpt>
      <trkpt lat="47.54838" lon="-2.15386">
        <ele>30.4</ele>
        <time>2021-08-14T07:03:26Z</time>
      </trkpt>
      <trkpt lat="47.54844" lon="-2.15389">
        <ele>30.3</ele>
        <time>2021-08-14T07:03:27Z</time>
      </trkpt>
      <trkpt lat="47.54856" lon="-2.15393">
        <ele>30.2</ele>
        <time>2021-08-14T07:03:29Z</time>
      </trkpt>
      <trkpt lat="47.54862" lon="-2.15395">
        <ele>30.1</ele>
        <time>2021-08-14T07:03:30Z</time>
      </trkpt>
      <trkpt lat="47.54872" lon="-2.15399">
        <ele>30.2</ele>
        <time>2021-08-14T07:03:32Z</time>
      </trkpt>
      <trkpt lat="47.54878" lon="-2.15399">
        <ele>30.3</ele>
        <time>2021-08-14T07:03:33Z</time>
      </trkpt>
      <trkpt lat="47.54887" lon="-2.15397">
        <ele>30.7</ele>
        <time>2021-08-14T07:03:35Z</time>
      </trkpt>
      <trkpt lat="47.54895" lon="-2.15391">
        <ele>31.1</ele>
        <time>2021-08-14T07:03:37Z</time>
      </trkpt>
      <trkpt lat="47.549" lon="-2.15387">
        <ele>31.4</ele>
        <time>2021-08-14T07:03:39Z</time>
      </trkpt>
      <trkpt lat="47.54903" lon="-2.15385">
        <ele>31.5</ele>
        <time>2021-08-14T07:03:40Z</time>
      </trkpt>
      <trkpt lat="47.54905" lon="-2.15383">
        <ele>31.7</ele>
        <time>2021-08-14T07:03:41Z</time>
      </trkpt>
      <trkpt lat="47.54913" lon="-2.15378">
        <ele>32.1</ele>
        <time>2021-08-14T07:03:43Z</time>
      </trkpt>
      <trkpt lat="47.54918" lon="-2.15373">
        <ele>32.4</ele>
        <time>2021-08-14T07:03:45Z</time>
      </trkpt>
      <trkpt lat="47.54926" lon="-2.15369">
        <ele>32.7</ele>
        <time>2021-08-14T07:03:47Z</time>
      </trkpt>
      <trkpt lat="47.54935" lon="-2.15365">
        <ele>33</ele>
        <time>2021-08-14T07:03:49Z</time>
      </trkpt>
      <trkpt lat="47.54944" lon="-2.15362">
        <ele>33.2</ele>
        <time>2021-08-14T07:03:51Z</time>
      </trkpt>
      <trkpt lat="47.54949" lon="-2.15361">
        <ele>33.2</ele>
        <time>2021-08-14T07:03:52Z</time>
      </trkpt>
      <trkpt lat="47.54958" lon="-2.15359">
        <ele>33.2</ele>
        <time>2021-08-14T07:03:54Z</time>
      </trkpt>
      <trkpt lat="47.54962" lon="-2.15359">
        <ele>33.2</ele>
        <time>2021-08-14T07:03:55Z</time>
      </trkpt>
      <trkpt lat="47.54967" lon="-2.15358">
        <ele>33.2</ele>
        <time>2021-08-14T07:03:56Z</time>
      </trkpt>
      <trkpt lat="47.54978" lon="-2.15357">
        <ele>33.3</ele>
        <time>2021-08-14T07:03:58Z</time>
      </trkpt>
      <trkpt lat="47.54988" lon="-2.15355">
        <ele>33.3</ele>
        <time>2021-08-14T07:04:00Z</time>
      </trkpt>
      <trkpt lat="47.54993" lon="-2.15355">
        <ele>33.2</ele>
        <time>2021-08-14T07:04:01Z</time>
      </trkpt>
      <trkpt lat="47.55003" lon="-2.15354">
        <ele>33.2</ele>
        <time>2021-08-14T07:04:03Z</time>
      </trkpt>
      <trkpt lat="47.55007" lon="-2.15354">
        <ele>33.2</ele>
        <time>2021-08-14T07:04:04Z</time>
      </trkpt>
      <trkpt lat="47.55012" lon="-2.15354">
        <ele>33.1</ele>
        <time>2021-08-14T07:04:05Z</time>
      </trkpt>
      <trkpt lat="47.55021" lon="-2.15354">
        <ele>33.1</ele>
        <time>2021-08-14T07:04:07Z</time>
      </trkpt>
      <trkpt lat="47.55024" lon="-2.15354">
        <ele>33</ele>
        <time>2021-08-14T07:04:08Z</time>
      </trkpt>
      <trkpt lat="47.55029" lon="-2.15354">
        <ele>33</ele>
        <time>2021-08-14T07:04:09Z</time>
      </trkpt>
      <trkpt lat="47.55033" lon="-2.15354">
        <ele>32.9</ele>
        <time>2021-08-14T07:04:10Z</time>
      </trkpt>
      <trkpt lat="47.55039" lon="-2.15354">
        <ele>32.9</ele>
        <time>2021-08-14T07:04:12Z</time>
      </trkpt>
      <trkpt lat="47.55044" lon="-2.15354">
        <ele>32.8</ele>
        <time>2021-08-14T07:04:13Z</time>
      </trkpt>
      <trkpt lat="47.55048" lon="-2.15354">
        <ele>32.7</ele>
        <time>2021-08-14T07:04:14Z</time>
      </trkpt>
      <trkpt lat="47.55052" lon="-2.15354">
        <ele>32.6</ele>
        <time>2021-08-14T07:04:15Z</time>
      </trkpt>
      <trkpt lat="47.5506" lon="-2.15355">
        <ele>32.4</ele>
        <time>2021-08-14T07:04:17Z</time>
      </trkpt>
      <trkpt lat="47.55065" lon="-2.15357">
        <ele>32.4</ele>
        <time>2021-08-14T07:04:18Z</time>
      </trkpt>
      <trkpt lat="47.5507" lon="-2.15357">
        <ele>32.3</ele>
        <time>2021-08-14T07:04:19Z</time>
      </trkpt>
      <trkpt lat="47.55075" lon="-2.15359">
        <ele>32.2</ele>
        <time>2021-08-14T07:04:20Z</time>
      </trkpt>
      <trkpt lat="47.55085" lon="-2.1536">
        <ele>32.1</ele>
        <time>2021-08-14T07:04:22Z</time>
      </trkpt>
      <trkpt lat="47.55095" lon="-2.15362">
        <ele>31.9</ele>
        <time>2021-08-14T07:04:24Z</time>
      </trkpt>
      <trkpt lat="47.551" lon="-2.15363">
        <ele>31.7</ele>
        <time>2021-08-14T07:04:25Z</time>
      </trkpt>
      <trkpt lat="47.5511" lon="-2.15366">
        <ele>31.5</ele>
        <time>2021-08-14T07:04:27Z</time>
      </trkpt>
      <trkpt lat="47.5512" lon="-2.15368">
        <ele>31.3</ele>
        <time>2021-08-14T07:04:29Z</time>
      </trkpt>
      <trkpt lat="47.5513" lon="-2.15371">
        <ele>31.1</ele>
        <time>2021-08-14T07:04:31Z</time>
      </trkpt>
      <trkpt lat="47.55135" lon="-2.15372">
        <ele>31</ele>
        <time>2021-08-14T07:04:32Z</time>
      </trkpt>
      <trkpt lat="47.55146" lon="-2.15375">
        <ele>30.8</ele>
        <time>2021-08-14T07:04:34Z</time>
      </trkpt>
      <trkpt lat="47.55151" lon="-2.15377">
        <ele>30.7</ele>
        <time>2021-08-14T07:04:35Z</time>
      </trkpt>
      <trkpt lat="47.55161" lon="-2.15379">
        <ele>30.4</ele>
        <time>2021-08-14T07:04:37Z</time>
      </trkpt>
      <trkpt lat="47.55171" lon="-2.15381">
        <ele>30.1</ele>
        <time>2021-08-14T07:04:39Z</time>
      </trkpt>
      <trkpt lat="47.55176" lon="-2.15382">
        <ele>30</ele>
        <time>2021-08-14T07:04:40Z</time>
      </trkpt>
      <trkpt lat="47.55186" lon="-2.15383">
        <ele>29.8</ele>
        <time>2021-08-14T07:04:42Z</time>
      </trkpt>
      <trkpt lat="47.55191" lon="-2.15384">
        <ele>29.6</ele>
        <time>2021-08-14T07:04:43Z</time>
      </trkpt>
      <trkpt lat="47.552" lon="-2.15384">
        <ele>29.4</ele>
        <time>2021-08-14T07:04:45Z</time>
      </trkpt>
      <trkpt lat="47.55204" lon="-2.15385">
        <ele>29.3</ele>
        <time>2021-08-14T07:04:46Z</time>
      </trkpt>
      <trkpt lat="47.55211" lon="-2.15385">
        <ele>29.2</ele>
        <time>2021-08-14T07:04:48Z</time>
      </trkpt>
      <trkpt lat="47.55216" lon="-2.15385">
        <ele>29.1</ele>
        <time>2021-08-14T07:04:49Z</time>
      </trkpt>
      <trkpt lat="47.5522" lon="-2.15384">
        <ele>29</ele>
        <time>2021-08-14T07:04:50Z</time>
      </trkpt>
      <trkpt lat="47.55229" lon="-2.15383">
        <ele>28.8</ele>
        <time>2021-08-14T07:04:52Z</time>
      </trkpt>
      <trkpt lat="47.55235" lon="-2.1538">
        <ele>28.6</ele>
        <time>2021-08-14T07:04:54Z</time>
      </trkpt>
      <trkpt lat="47.55243" lon="-2.15378">
        <ele>28.4</ele>
        <time>2021-08-14T07:04:55Z</time>
      </trkpt>
      <trkpt lat="47.55248" lon="-2.15376">
        <ele>28.1</ele>
        <time>2021-08-14T07:04:56Z</time>
      </trkpt>
      <trkpt lat="47.55252" lon="-2.15376">
        <ele>28</ele>
        <time>2021-08-14T07:04:57Z</time>
      </trkpt>
      <trkpt lat="47.5526" lon="-2.15368">
        <ele>27.4</ele>
        <time>2021-08-14T07:04:59Z</time>
      </trkpt>
      <trkpt lat="47.5527" lon="-2.15359">
        <ele>26.4</ele>
        <time>2021-08-14T07:05:01Z</time>
      </trkpt>
      <trkpt lat="47.55275" lon="-2.15355">
        <ele>25.9</ele>
        <time>2021-08-14T07:05:02Z</time>
      </trkpt>
      <trkpt lat="47.55287" lon="-2.15349">
        <ele>24.5</ele>
        <time>2021-08-14T07:05:04Z</time>
      </trkpt>
      <trkpt lat="47.55295" lon="-2.15345">
        <ele>23.6</ele>
        <time>2021-08-14T07:05:05Z</time>
      </trkpt>
      <trkpt lat="47.55303" lon="-2.15343">
        <ele>22.7</ele>
        <time>2021-08-14T07:05:06Z</time>
      </trkpt>
      <trkpt lat="47.55319" lon="-2.15339">
        <ele>20.8</ele>
        <time>2021-08-14T07:05:08Z</time>
      </trkpt>
      <trkpt lat="47.55333" lon="-2.15335">
        <ele>19.2</ele>
        <time>2021-08-14T07:05:10Z</time>
      </trkpt>
      <trkpt lat="47.55344" lon="-2.15329">
        <ele>17.8</ele>
        <time>2021-08-14T07:05:12Z</time>
      </trkpt>
      <trkpt lat="47.55349" lon="-2.15326">
        <ele>17.1</ele>
        <time>2021-08-14T07:05:13Z</time>
      </trkpt>
      <trkpt lat="47.55355" lon="-2.15323">
        <ele>16.4</ele>
        <time>2021-08-14T07:05:14Z</time>
      </trkpt>
      <trkpt lat="47.55367" lon="-2.15315">
        <ele>14.9</ele>
        <time>2021-08-14T07:05:16Z</time>
      </trkpt>
      <trkpt lat="47.55372" lon="-2.15311">
        <ele>14.3</ele>
        <time>2021-08-14T07:05:17Z</time>
      </trkpt>
      <trkpt lat="47.55382" lon="-2.15306">
        <ele>13.5</ele>
        <time>2021-08-14T07:05:19Z</time>
      </trkpt>
      <trkpt lat="47.55386" lon="-2.15304">
        <ele>13.2</ele>
        <time>2021-08-14T07:05:20Z</time>
      </trkpt>
      <trkpt lat="47.55392" lon="-2.15301">
        <ele>12.9</ele>
        <time>2021-08-14T07:05:22Z</time>
      </trkpt>
      <trkpt lat="47.55393" lon="-2.153">
        <ele>12.8</ele>
        <time>2021-08-14T07:05:23Z</time>
      </trkpt>
      <trkpt lat="47.55394" lon="-2.153">
        <ele>12.8</ele>
        <time>2021-08-14T07:05:24Z</time>
      </trkpt>
      <trkpt lat="47.55394" lon="-2.15299">
        <ele>12.7</ele>
        <time>2021-08-14T07:05:26Z</time>
      </trkpt>
      <trkpt lat="47.55395" lon="-2.15298">
        <ele>12.7</ele>
        <time>2021-08-14T07:05:27Z</time>
      </trkpt>
      <trkpt lat="47.55396" lon="-2.15298">
        <ele>12.7</ele>
        <time>2021-08-14T07:05:28Z</time>
      </trkpt>
      <trkpt lat="47.55397" lon="-2.15297">
        <ele>12.6</ele>
        <time>2021-08-14T07:05:30Z</time>
      </trkpt>
      <trkpt lat="47.55397" lon="-2.15297">
        <ele>12.6</ele>
        <time>2021-08-14T07:05:31Z</time>
      </trkpt>
      <trkpt lat="47.55397" lon="-2.15297">
        <ele>12.6</ele>
        <time>2021-08-14T07:05:33Z</time>
      </trkpt>
      <trkpt lat="47.55397" lon="-2.15297">
        <ele>12.6</ele>
        <time>2021-08-14T07:05:34Z</time>
      </trkpt>
      <trkpt lat="47.55397" lon="-2.15297">
        <ele>12.6</ele>
        <time>2021-08-14T07:05:36Z</time>
      </trkpt>
      <trkpt lat="47.55406" lon="-2.15291">
        <ele>12.5</ele>
        <time>2021-08-14T07:05:51Z</time>
      </trkpt>
      <trkpt lat="47.55408" lon="-2.15289">
        <ele>12.6</ele>
        <time>2021-08-14T07:05:53Z</time>
      </trkpt>
      <trkpt lat="47.5541" lon="-2.15288">
        <ele>12.6</ele>
        <time>2021-08-14T07:05:54Z</time>
      </trkpt>
      <trkpt lat="47.5541" lon="-2.15288">
        <ele>12.6</ele>
        <time>2021-08-14T07:05:55Z</time>
      </trkpt>
      <trkpt lat="47.55411" lon="-2.15287">
        <ele>12.7</ele>
        <time>2021-08-14T07:05:56Z</time>
      </trkpt>
      <trkpt lat="47.55412" lon="-2.15283">
        <ele>12.7</ele>
        <time>2021-08-14T07:05:58Z</time>
      </trkpt>
      <trkpt lat="47.55413" lon="-2.15282">
        <ele>12.9</ele>
        <time>2021-08-14T07:06:00Z</time>
      </trkpt>
      <trkpt lat="47.55414" lon="-2.1528">
        <ele>13</ele>
        <time>2021-08-14T07:06:01Z</time>
      </trkpt>
      <trkpt lat="47.55415" lon="-2.15278">
        <ele>13.2</ele>
        <time>2021-08-14T07:06:03Z</time>
      </trkpt>
      <trkpt lat="47.55416" lon="-2.15276">
        <ele>13.3</ele>
        <time>2021-08-14T07:06:04Z</time>
      </trkpt>
      <trkpt lat="47.55417" lon="-2.15274">
        <ele>13.4</ele>
        <time>2021-08-14T07:06:05Z</time>
      </trkpt>
      <trkpt lat="47.55418" lon="-2.1527">
        <ele>13.6</ele>
        <time>2021-08-14T07:06:07Z</time>
      </trkpt>
      <trkpt lat="47.55418" lon="-2.15269">
        <ele>13.7</ele>
        <time>2021-08-14T07:06:08Z</time>
      </trkpt>
      <trkpt lat="47.5542" lon="-2.15264">
        <ele>14</ele>
        <time>2021-08-14T07:06:10Z</time>
      </trkpt>
      <trkpt lat="47.55421" lon="-2.15262">
        <ele>14.1</ele>
        <time>2021-08-14T07:06:11Z</time>
      </trkpt>
      <trkpt lat="47.55422" lon="-2.15258">
        <ele>14.5</ele>
        <time>2021-08-14T07:06:13Z</time>
      </trkpt>
      <trkpt lat="47.55423" lon="-2.15256">
        <ele>14.7</ele>
        <time>2021-08-14T07:06:14Z</time>
      </trkpt>
      <trkpt lat="47.55424" lon="-2.15251">
        <ele>15.1</ele>
        <time>2021-08-14T07:06:16Z</time>
      </trkpt>
      <trkpt lat="47.55425" lon="-2.15249">
        <ele>15.4</ele>
        <time>2021-08-14T07:06:17Z</time>
      </trkpt>
      <trkpt lat="47.55426" lon="-2.15245">
        <ele>15.8</ele>
        <time>2021-08-14T07:06:19Z</time>
      </trkpt>
      <trkpt lat="47.55427" lon="-2.15241">
        <ele>16.2</ele>
        <time>2021-08-14T07:06:20Z</time>
      </trkpt>
      <trkpt lat="47.55428" lon="-2.1524">
        <ele>16.4</ele>
        <time>2021-08-14T07:06:21Z</time>
      </trkpt>
      <trkpt lat="47.55428" lon="-2.15238">
        <ele>16.6</ele>
        <time>2021-08-14T07:06:22Z</time>
      </trkpt>
      <trkpt lat="47.55429" lon="-2.15234">
        <ele>17</ele>
        <time>2021-08-14T07:06:24Z</time>
      </trkpt>
      <trkpt lat="47.55431" lon="-2.15229">
        <ele>17.6</ele>
        <time>2021-08-14T07:06:26Z</time>
      </trkpt>
      <trkpt lat="47.55431" lon="-2.15227">
        <ele>17.8</ele>
        <time>2021-08-14T07:06:27Z</time>
      </trkpt>
      <trkpt lat="47.55432" lon="-2.15224">
        <ele>18.1</ele>
        <time>2021-08-14T07:06:28Z</time>
      </trkpt>
      <trkpt lat="47.55432" lon="-2.15221">
        <ele>18.5</ele>
        <time>2021-08-14T07:06:30Z</time>
      </trkpt>
      <trkpt lat="47.55434" lon="-2.15216">
        <ele>19</ele>
        <time>2021-08-14T07:06:31Z</time>
      </trkpt>
      <trkpt lat="47.55436" lon="-2.15211">
        <ele>19.6</ele>
        <time>2021-08-14T07:06:33Z</time>
      </trkpt>
      <trkpt lat="47.55436" lon="-2.15209">
        <ele>19.8</ele>
        <time>2021-08-14T07:06:34Z</time>
      </trkpt>
      <trkpt lat="47.55437" lon="-2.15207">
        <ele>20</ele>
        <time>2021-08-14T07:06:35Z</time>
      </trkpt>
      <trkpt lat="47.55439" lon="-2.15204">
        <ele>20.4</ele>
        <time>2021-08-14T07:06:36Z</time>
      </trkpt>
      <trkpt lat="47.55439" lon="-2.15202">
        <ele>20.5</ele>
        <time>2021-08-14T07:06:37Z</time>
      </trkpt>
      <trkpt lat="47.5544" lon="-2.15201">
        <ele>20.7</ele>
        <time>2021-08-14T07:06:38Z</time>
      </trkpt>
      <trkpt lat="47.55442" lon="-2.15201">
        <ele>20.9</ele>
        <time>2021-08-14T07:06:40Z</time>
      </trkpt>
      <trkpt lat="47.55444" lon="-2.152">
        <ele>21.2</ele>
        <time>2021-08-14T07:06:42Z</time>
      </trkpt>
      <trkpt lat="47.55445" lon="-2.15199">
        <ele>21.4</ele>
        <time>2021-08-14T07:06:43Z</time>
      </trkpt>
      <trkpt lat="47.55447" lon="-2.15198">
        <ele>21.7</ele>
        <time>2021-08-14T07:06:44Z</time>
      </trkpt>
      <trkpt lat="47.55448" lon="-2.15196">
        <ele>22</ele>
        <time>2021-08-14T07:06:46Z</time>
      </trkpt>
      <trkpt lat="47.5545" lon="-2.15195">
        <ele>22.2</ele>
        <time>2021-08-14T07:06:47Z</time>
      </trkpt>
      <trkpt lat="47.55452" lon="-2.15193">
        <ele>22.6</ele>
        <time>2021-08-14T07:06:49Z</time>
      </trkpt>
      <trkpt lat="47.55456" lon="-2.15191">
        <ele>23.2</ele>
        <time>2021-08-14T07:06:50Z</time>
      </trkpt>
      <trkpt lat="47.55457" lon="-2.15191">
        <ele>23.3</ele>
        <time>2021-08-14T07:06:51Z</time>
      </trkpt>
      <trkpt lat="47.5546" lon="-2.15189">
        <ele>23.8</ele>
        <time>2021-08-14T07:06:53Z</time>
      </trkpt>
      <trkpt lat="47.55461" lon="-2.15188">
        <ele>23.9</ele>
        <time>2021-08-14T07:06:54Z</time>
      </trkpt>
      <trkpt lat="47.55463" lon="-2.15186">
        <ele>24.3</ele>
        <time>2021-08-14T07:06:56Z</time>
      </trkpt>
      <trkpt lat="47.55465" lon="-2.15185">
        <ele>24.6</ele>
        <time>2021-08-14T07:06:57Z</time>
      </trkpt>
      <trkpt lat="47.55468" lon="-2.15183">
        <ele>25</ele>
        <time>2021-08-14T07:06:59Z</time>
      </trkpt>
      <trkpt lat="47.55471" lon="-2.15182">
        <ele>25.3</ele>
        <time>2021-08-14T07:07:00Z</time>
      </trkpt>
      <trkpt lat="47.55473" lon="-2.1518">
        <ele>25.6</ele>
        <time>2021-08-14T07:07:02Z</time>
      </trkpt>
      <trkpt lat="47.55475" lon="-2.15179">
        <ele>25.9</ele>
        <time>2021-08-14T07:07:03Z</time>
      </trkpt>
      <trkpt lat="47.55477" lon="-2.15178">
        <ele>26.1</ele>
        <time>2021-08-14T07:07:05Z</time>
      </trkpt>
      <trkpt lat="47.5548" lon="-2.15176">
        <ele>26.4</ele>
        <time>2021-08-14T07:07:06Z</time>
      </trkpt>
      <trkpt lat="47.55481" lon="-2.15175">
        <ele>26.6</ele>
        <time>2021-08-14T07:07:07Z</time>
      </trkpt>
      <trkpt lat="47.55484" lon="-2.15173">
        <ele>27</ele>
        <time>2021-08-14T07:07:09Z</time>
      </trkpt>
      <trkpt lat="47.55485" lon="-2.15173">
        <ele>27.1</ele>
        <time>2021-08-14T07:07:10Z</time>
      </trkpt>
      <trkpt lat="47.55488" lon="-2.15172">
        <ele>27.4</ele>
        <time>2021-08-14T07:07:12Z</time>
      </trkpt>
      <trkpt lat="47.55489" lon="-2.15171">
        <ele>27.5</ele>
        <time>2021-08-14T07:07:13Z</time>
      </trkpt>
      <trkpt lat="47.5549" lon="-2.15171">
        <ele>27.6</ele>
        <time>2021-08-14T07:07:14Z</time>
      </trkpt>
      <trkpt lat="47.55492" lon="-2.15171">
        <ele>27.8</ele>
        <time>2021-08-14T07:07:15Z</time>
      </trkpt>
      <trkpt lat="47.55493" lon="-2.15171">
        <ele>27.8</ele>
        <time>2021-08-14T07:07:16Z</time>
      </trkpt>
      <trkpt lat="47.55493" lon="-2.15171">
        <ele>27.9</ele>
        <time>2021-08-14T07:07:18Z</time>
      </trkpt>
      <trkpt lat="47.55494" lon="-2.15171">
        <ele>27.9</ele>
        <time>2021-08-14T07:07:19Z</time>
      </trkpt>
      <trkpt lat="47.55494" lon="-2.15171">
        <ele>28</ele>
        <time>2021-08-14T07:07:20Z</time>
      </trkpt>
      <trkpt lat="47.55498" lon="-2.15169">
        <ele>28.4</ele>
        <time>2021-08-14T07:07:22Z</time>
      </trkpt>
      <trkpt lat="47.55501" lon="-2.15167">
        <ele>28.7</ele>
        <time>2021-08-14T07:07:23Z</time>
      </trkpt>
      <trkpt lat="47.55502" lon="-2.15167">
        <ele>28.8</ele>
        <time>2021-08-14T07:07:24Z</time>
      </trkpt>
      <trkpt lat="47.55505" lon="-2.15165">
        <ele>29.1</ele>
        <time>2021-08-14T07:07:25Z</time>
      </trkpt>
      <trkpt lat="47.55506" lon="-2.15164">
        <ele>29.2</ele>
        <time>2021-08-14T07:07:26Z</time>
      </trkpt>
      <trkpt lat="47.55508" lon="-2.15163">
        <ele>29.3</ele>
        <time>2021-08-14T07:07:28Z</time>
      </trkpt>
      <trkpt lat="47.5551" lon="-2.15162">
        <ele>29.5</ele>
        <time>2021-08-14T07:07:29Z</time>
      </trkpt>
      <trkpt lat="47.55512" lon="-2.1516">
        <ele>29.8</ele>
        <time>2021-08-14T07:07:31Z</time>
      </trkpt>
      <trkpt lat="47.55514" lon="-2.15159">
        <ele>29.9</ele>
        <time>2021-08-14T07:07:32Z</time>
      </trkpt>
      <trkpt lat="47.55516" lon="-2.15158">
        <ele>30.1</ele>
        <time>2021-08-14T07:07:33Z</time>
      </trkpt>
      <trkpt lat="47.55518" lon="-2.15156">
        <ele>30.3</ele>
        <time>2021-08-14T07:07:34Z</time>
      </trkpt>
      <trkpt lat="47.55519" lon="-2.15155">
        <ele>30.4</ele>
        <time>2021-08-14T07:07:35Z</time>
      </trkpt>
      <trkpt lat="47.55522" lon="-2.15153">
        <ele>30.7</ele>
        <time>2021-08-14T07:07:37Z</time>
      </trkpt>
      <trkpt lat="47.55524" lon="-2.15152">
        <ele>30.9</ele>
        <time>2021-08-14T07:07:38Z</time>
      </trkpt>
      <trkpt lat="47.55528" lon="-2.1515">
        <ele>31.2</ele>
        <time>2021-08-14T07:07:40Z</time>
      </trkpt>
      <trkpt lat="47.5553" lon="-2.15149">
        <ele>31.4</ele>
        <time>2021-08-14T07:07:41Z</time>
      </trkpt>
      <trkpt lat="47.55534" lon="-2.15148">
        <ele>31.7</ele>
        <time>2021-08-14T07:07:43Z</time>
      </trkpt>
      <trkpt lat="47.55536" lon="-2.15147">
        <ele>31.9</ele>
        <time>2021-08-14T07:07:44Z</time>
      </trkpt>
      <trkpt lat="47.55538" lon="-2.15145">
        <ele>32.1</ele>
        <time>2021-08-14T07:07:46Z</time>
      </trkpt>
      <trkpt lat="47.55541" lon="-2.15144">
        <ele>32.3</ele>
        <time>2021-08-14T07:07:47Z</time>
      </trkpt>
      <trkpt lat="47.55542" lon="-2.15143">
        <ele>32.4</ele>
        <time>2021-08-14T07:07:48Z</time>
      </trkpt>
      <trkpt lat="47.55545" lon="-2.15141">
        <ele>32.6</ele>
        <time>2021-08-14T07:07:50Z</time>
      </trkpt>
      <trkpt lat="47.55547" lon="-2.1514">
        <ele>32.8</ele>
        <time>2021-08-14T07:07:51Z</time>
      </trkpt>
      <trkpt lat="47.5555" lon="-2.15138">
        <ele>33</ele>
        <time>2021-08-14T07:07:52Z</time>
      </trkpt>
      <trkpt lat="47.55551" lon="-2.15138">
        <ele>33.1</ele>
        <time>2021-08-14T07:07:54Z</time>
      </trkpt>
      <trkpt lat="47.55552" lon="-2.15137">
        <ele>33.2</ele>
        <time>2021-08-14T07:07:55Z</time>
      </trkpt>
      <trkpt lat="47.55555" lon="-2.15135">
        <ele>33.4</ele>
        <time>2021-08-14T07:07:57Z</time>
      </trkpt>
      <trkpt lat="47.55557" lon="-2.15133">
        <ele>33.6</ele>
        <time>2021-08-14T07:07:58Z</time>
      </trkpt>
      <trkpt lat="47.55561" lon="-2.1513">
        <ele>33.8</ele>
        <time>2021-08-14T07:08:00Z</time>
      </trkpt>
      <trkpt lat="47.55562" lon="-2.15129">
        <ele>33.9</ele>
        <time>2021-08-14T07:08:01Z</time>
      </trkpt>
      <trkpt lat="47.55566" lon="-2.15127">
        <ele>34.2</ele>
        <time>2021-08-14T07:08:02Z</time>
      </trkpt>
      <trkpt lat="47.55567" lon="-2.15126">
        <ele>34.2</ele>
        <time>2021-08-14T07:08:03Z</time>
      </trkpt>
      <trkpt lat="47.55569" lon="-2.15127">
        <ele>34.4</ele>
        <time>2021-08-14T07:08:05Z</time>
      </trkpt>
      <trkpt lat="47.55571" lon="-2.15127">
        <ele>34.5</ele>
        <time>2021-08-14T07:08:06Z</time>
      </trkpt>
      <trkpt lat="47.55573" lon="-2.15126">
        <ele>34.6</ele>
        <time>2021-08-14T07:08:08Z</time>
      </trkpt>
      <trkpt lat="47.55575" lon="-2.15125">
        <ele>34.7</ele>
        <time>2021-08-14T07:08:09Z</time>
      </trkpt>
      <trkpt lat="47.55576" lon="-2.15125">
        <ele>34.8</ele>
        <time>2021-08-14T07:08:10Z</time>
      </trkpt>
      <trkpt lat="47.55579" lon="-2.15123">
        <ele>35</ele>
        <time>2021-08-14T07:08:12Z</time>
      </trkpt>
      <trkpt lat="47.55582" lon="-2.1512">
        <ele>35.2</ele>
        <time>2021-08-14T07:08:13Z</time>
      </trkpt>
      <trkpt lat="47.55585" lon="-2.15118">
        <ele>35.3</ele>
        <time>2021-08-14T07:08:14Z</time>
      </trkpt>
      <trkpt lat="47.55588" lon="-2.15116">
        <ele>35.5</ele>
        <time>2021-08-14T07:08:15Z</time>
      </trkpt>
      <trkpt lat="47.55593" lon="-2.15113">
        <ele>35.8</ele>
        <time>2021-08-14T07:08:17Z</time>
      </trkpt>
      <trkpt lat="47.55597" lon="-2.1511">
        <ele>36</ele>
        <time>2021-08-14T07:08:19Z</time>
      </trkpt>
      <trkpt lat="47.556" lon="-2.15109">
        <ele>36.2</ele>
        <time>2021-08-14T07:08:20Z</time>
      </trkpt>
      <trkpt lat="47.55605" lon="-2.15106">
        <ele>36.4</ele>
        <time>2021-08-14T07:08:22Z</time>
      </trkpt>
      <trkpt lat="47.55607" lon="-2.15105">
        <ele>36.5</ele>
        <time>2021-08-14T07:08:23Z</time>
      </trkpt>
      <trkpt lat="47.55608" lon="-2.15103">
        <ele>36.6</ele>
        <time>2021-08-14T07:08:24Z</time>
      </trkpt>
      <trkpt lat="47.55611" lon="-2.15102">
        <ele>36.7</ele>
        <time>2021-08-14T07:08:25Z</time>
      </trkpt>
      <trkpt lat="47.55614" lon="-2.151">
        <ele>36.8</ele>
        <time>2021-08-14T07:08:27Z</time>
      </trkpt>
      <trkpt lat="47.55617" lon="-2.15098">
        <ele>36.9</ele>
        <time>2021-08-14T07:08:28Z</time>
      </trkpt>
      <trkpt lat="47.5562" lon="-2.15096">
        <ele>37.1</ele>
        <time>2021-08-14T07:08:29Z</time>
      </trkpt>
      <trkpt lat="47.55621" lon="-2.15096">
        <ele>37.1</ele>
        <time>2021-08-14T07:08:30Z</time>
      </trkpt>
      <trkpt lat="47.55623" lon="-2.15094">
        <ele>37.2</ele>
        <time>2021-08-14T07:08:31Z</time>
      </trkpt>
      <trkpt lat="47.55627" lon="-2.15092">
        <ele>37.3</ele>
        <time>2021-08-14T07:08:33Z</time>
      </trkpt>
      <trkpt lat="47.55631" lon="-2.15091">
        <ele>37.5</ele>
        <time>2021-08-14T07:08:34Z</time>
      </trkpt>
      <trkpt lat="47.55633" lon="-2.1509">
        <ele>37.5</ele>
        <time>2021-08-14T07:08:35Z</time>
      </trkpt>
      <trkpt lat="47.55636" lon="-2.15089">
        <ele>37.6</ele>
        <time>2021-08-14T07:08:36Z</time>
      </trkpt>
      <trkpt lat="47.55637" lon="-2.15089">
        <ele>37.6</ele>
        <time>2021-08-14T07:08:37Z</time>
      </trkpt>
      <trkpt lat="47.5564" lon="-2.15089">
        <ele>37.7</ele>
        <time>2021-08-14T07:08:39Z</time>
      </trkpt>
      <trkpt lat="47.55643" lon="-2.1509">
        <ele>37.8</ele>
        <time>2021-08-14T07:08:40Z</time>
      </trkpt>
      <trkpt lat="47.55647" lon="-2.15091">
        <ele>37.9</ele>
        <time>2021-08-14T07:08:42Z</time>
      </trkpt>
      <trkpt lat="47.5565" lon="-2.15092">
        <ele>37.9</ele>
        <time>2021-08-14T07:08:43Z</time>
      </trkpt>
      <trkpt lat="47.55653" lon="-2.15093">
        <ele>37.9</ele>
        <time>2021-08-14T07:08:44Z</time>
      </trkpt>
      <trkpt lat="47.55656" lon="-2.15093">
        <ele>38</ele>
        <time>2021-08-14T07:08:45Z</time>
      </trkpt>
      <trkpt lat="47.5566" lon="-2.15094">
        <ele>38</ele>
        <time>2021-08-14T07:08:47Z</time>
      </trkpt>
      <trkpt lat="47.55663" lon="-2.15095">
        <ele>38.1</ele>
        <time>2021-08-14T07:08:48Z</time>
      </trkpt>
      <trkpt lat="47.55668" lon="-2.15096">
        <ele>38.2</ele>
        <time>2021-08-14T07:08:50Z</time>
      </trkpt>
      <trkpt lat="47.5567" lon="-2.15096">
        <ele>38.2</ele>
        <time>2021-08-14T07:08:51Z</time>
      </trkpt>
      <trkpt lat="47.55672" lon="-2.15096">
        <ele>38.2</ele>
        <time>2021-08-14T07:08:52Z</time>
      </trkpt>
      <trkpt lat="47.55676" lon="-2.15097">
        <ele>38.3</ele>
        <time>2021-08-14T07:08:54Z</time>
      </trkpt>
      <trkpt lat="47.55678" lon="-2.15097">
        <ele>38.3</ele>
        <time>2021-08-14T07:08:56Z</time>
      </trkpt>
      <trkpt lat="47.55679" lon="-2.15097">
        <ele>38.3</ele>
        <time>2021-08-14T07:08:57Z</time>
      </trkpt>
      <trkpt lat="47.55681" lon="-2.15097">
        <ele>38.4</ele>
        <time>2021-08-14T07:08:58Z</time>
      </trkpt>
      <trkpt lat="47.55682" lon="-2.15097">
        <ele>38.4</ele>
        <time>2021-08-14T07:08:59Z</time>
      </trkpt>
      <trkpt lat="47.55684" lon="-2.15098">
        <ele>38.4</ele>
        <time>2021-08-14T07:09:01Z</time>
      </trkpt>
      <trkpt lat="47.55686" lon="-2.15097">
        <ele>38.4</ele>
        <time>2021-08-14T07:09:02Z</time>
      </trkpt>
      <trkpt lat="47.55686" lon="-2.15097">
        <ele>38.5</ele>
        <time>2021-08-14T07:09:03Z</time>
      </trkpt>
      <trkpt lat="47.55688" lon="-2.15097">
        <ele>38.5</ele>
        <time>2021-08-14T07:09:05Z</time>
      </trkpt>
      <trkpt lat="47.55687" lon="-2.15097">
        <ele>38.5</ele>
        <time>2021-08-14T07:09:08Z</time>
      </trkpt>
      <trkpt lat="47.55687" lon="-2.15097">
        <ele>38.5</ele>
        <time>2021-08-14T07:09:09Z</time>
      </trkpt>
      <trkpt lat="47.55687" lon="-2.15097">
        <ele>38.5</ele>
        <time>2021-08-14T07:09:11Z</time>
      </trkpt>
      <trkpt lat="47.55687" lon="-2.15097">
        <ele>38.5</ele>
        <time>2021-08-14T07:09:12Z</time>
      </trkpt>
      <trkpt lat="47.55687" lon="-2.15097">
        <ele>38.5</ele>
        <time>2021-08-14T07:09:14Z</time>
      </trkpt>
      <trkpt lat="47.55687" lon="-2.15097">
        <ele>38.5</ele>
        <time>2021-08-14T07:09:15Z</time>
      </trkpt>
      <trkpt lat="47.55683" lon="-2.15096">
        <ele>38.6</ele>
        <time>2021-08-14T07:10:41Z</time>
      </trkpt>
      <trkpt lat="47.55683" lon="-2.15096">
        <ele>38.6</ele>
        <time>2021-08-14T07:10:42Z</time>
      </trkpt>
      <trkpt lat="47.55682" lon="-2.15096">
        <ele>38.6</ele>
        <time>2021-08-14T07:10:44Z</time>
      </trkpt>
      <trkpt lat="47.55682" lon="-2.15096">
        <ele>38.6</ele>
        <time>2021-08-14T07:10:45Z</time>
      </trkpt>
      <trkpt lat="47.55681" lon="-2.15096">
        <ele>38.6</ele>
        <time>2021-08-14T07:10:46Z</time>
      </trkpt>
      <trkpt lat="47.55681" lon="-2.15096">
        <ele>38.6</ele>
        <time>2021-08-14T07:10:47Z</time>
      </trkpt>
      <trkpt lat="47.55681" lon="-2.15096">
        <ele>38.6</ele>
        <time>2021-08-14T07:10:48Z</time>
      </trkpt>
      <trkpt lat="47.5568" lon="-2.15096">
        <ele>38.6</ele>
        <time>2021-08-14T07:10:50Z</time>
      </trkpt>
      <trkpt lat="47.55679" lon="-2.15096">
        <ele>38.6</ele>
        <time>2021-08-14T07:10:52Z</time>
      </trkpt>
      <trkpt lat="47.55678" lon="-2.15097">
        <ele>38.6</ele>
        <time>2021-08-14T07:13:49Z</time>
      </trkpt>
      <trkpt lat="47.55681" lon="-2.15097">
        <ele>38.7</ele>
        <time>2021-08-14T07:13:50Z</time>
      </trkpt>
      <trkpt lat="47.55685" lon="-2.15097">
        <ele>38.7</ele>
        <time>2021-08-14T07:13:52Z</time>
      </trkpt>
      <trkpt lat="47.55689" lon="-2.15097">
        <ele>38.7</ele>
        <time>2021-08-14T07:13:53Z</time>
      </trkpt>
      <trkpt lat="47.55692" lon="-2.15097">
        <ele>38.7</ele>
        <time>2021-08-14T07:13:54Z</time>
      </trkpt>
      <trkpt lat="47.55696" lon="-2.15097">
        <ele>38.7</ele>
        <time>2021-08-14T07:13:55Z</time>
      </trkpt>
      <trkpt lat="47.55699" lon="-2.15097">
        <ele>38.7</ele>
        <time>2021-08-14T07:13:56Z</time>
      </trkpt>
      <trkpt lat="47.55703" lon="-2.15097">
        <ele>38.6</ele>
        <time>2021-08-14T07:13:58Z</time>
      </trkpt>
      <trkpt lat="47.55707" lon="-2.15097">
        <ele>38.6</ele>
        <time>2021-08-14T07:13:59Z</time>
      </trkpt>
      <trkpt lat="47.55708" lon="-2.15098">
        <ele>38.6</ele>
        <time>2021-08-14T07:14:00Z</time>
      </trkpt>
      <trkpt lat="47.5571" lon="-2.15098">
        <ele>38.6</ele>
        <time>2021-08-14T07:14:01Z</time>
      </trkpt>
      <trkpt lat="47.55713" lon="-2.15098">
        <ele>38.6</ele>
        <time>2021-08-14T07:14:03Z</time>
      </trkpt>
      <trkpt lat="47.55716" lon="-2.15099">
        <ele>38.6</ele>
        <time>2021-08-14T07:14:04Z</time>
      </trkpt>
      <trkpt lat="47.55717" lon="-2.15099">
        <ele>38.5</ele>
        <time>2021-08-14T07:14:05Z</time>
      </trkpt>
      <trkpt lat="47.5572" lon="-2.15099">
        <ele>38.5</ele>
        <time>2021-08-14T07:14:07Z</time>
      </trkpt>
      <trkpt lat="47.55721" lon="-2.151">
        <ele>38.5</ele>
        <time>2021-08-14T07:14:08Z</time>
      </trkpt>
      <trkpt lat="47.55725" lon="-2.15101">
        <ele>38.5</ele>
        <time>2021-08-14T07:14:10Z</time>
      </trkpt>
      <trkpt lat="47.55726" lon="-2.15101">
        <ele>38.5</ele>
        <time>2021-08-14T07:14:11Z</time>
      </trkpt>
      <trkpt lat="47.5573" lon="-2.15101">
        <ele>38.5</ele>
        <time>2021-08-14T07:14:13Z</time>
      </trkpt>
      <trkpt lat="47.55731" lon="-2.15101">
        <ele>38.5</ele>
        <time>2021-08-14T07:14:14Z</time>
      </trkpt>
      <trkpt lat="47.55734" lon="-2.15102">
        <ele>38.5</ele>
        <time>2021-08-14T07:14:16Z</time>
      </trkpt>
      <trkpt lat="47.55736" lon="-2.15103">
        <ele>38.5</ele>
        <time>2021-08-14T07:14:17Z</time>
      </trkpt>
      <trkpt lat="47.55738" lon="-2.15103">
        <ele>38.5</ele>
        <time>2021-08-14T07:14:19Z</time>
      </trkpt>
      <trkpt lat="47.55741" lon="-2.15105">
        <ele>38.6</ele>
        <time>2021-08-14T07:14:20Z</time>
      </trkpt>
      <trkpt lat="47.55745" lon="-2.15106">
        <ele>38.6</ele>
        <time>2021-08-14T07:14:22Z</time>
      </trkpt>
      <trkpt lat="47.55746" lon="-2.15106">
        <ele>38.6</ele>
        <time>2021-08-14T07:14:23Z</time>
      </trkpt>
      <trkpt lat="47.55749" lon="-2.15108">
        <ele>38.6</ele>
        <time>2021-08-14T07:14:24Z</time>
      </trkpt>
      <trkpt lat="47.5575" lon="-2.15108">
        <ele>38.6</ele>
        <time>2021-08-14T07:14:25Z</time>
      </trkpt>
      <trkpt lat="47.55754" lon="-2.15109">
        <ele>38.6</ele>
        <time>2021-08-14T07:14:26Z</time>
      </trkpt>
      <trkpt lat="47.55755" lon="-2.15109">
        <ele>38.6</ele>
        <time>2021-08-14T07:14:27Z</time>
      </trkpt>
      <trkpt lat="47.55758" lon="-2.1511">
        <ele>38.7</ele>
        <time>2021-08-14T07:14:29Z</time>
      </trkpt>
      <trkpt lat="47.55761" lon="-2.15112">
        <ele>38.7</ele>
        <time>2021-08-14T07:14:30Z</time>
      </trkpt>
      <trkpt lat="47.55762" lon="-2.15112">
        <ele>38.7</ele>
        <time>2021-08-14T07:14:31Z</time>
      </trkpt>
      <trkpt lat="47.55766" lon="-2.15114">
        <ele>38.7</ele>
        <time>2021-08-14T07:14:33Z</time>
      </trkpt>
      <trkpt lat="47.55767" lon="-2.15114">
        <ele>38.8</ele>
        <time>2021-08-14T07:14:34Z</time>
      </trkpt>
      <trkpt lat="47.5577" lon="-2.15115">
        <ele>38.8</ele>
        <time>2021-08-14T07:14:36Z</time>
      </trkpt>
      <trkpt lat="47.55772" lon="-2.15115">
        <ele>38.8</ele>
        <time>2021-08-14T07:14:37Z</time>
      </trkpt>
      <trkpt lat="47.55773" lon="-2.15116">
        <ele>38.8</ele>
        <time>2021-08-14T07:14:38Z</time>
      </trkpt>
      <trkpt lat="47.55777" lon="-2.15116">
        <ele>38.9</ele>
        <time>2021-08-14T07:14:40Z</time>
      </trkpt>
      <trkpt lat="47.55779" lon="-2.15115">
        <ele>38.9</ele>
        <time>2021-08-14T07:14:41Z</time>
      </trkpt>
      <trkpt lat="47.55782" lon="-2.15114">
        <ele>38.9</ele>
        <time>2021-08-14T07:14:43Z</time>
      </trkpt>
      <trkpt lat="47.55783" lon="-2.15113">
        <ele>38.9</ele>
        <time>2021-08-14T07:14:44Z</time>
      </trkpt>
      <trkpt lat="47.55786" lon="-2.15113">
        <ele>39</ele>
        <time>2021-08-14T07:14:46Z</time>
      </trkpt>
      <trkpt lat="47.55789" lon="-2.15111">
        <ele>39</ele>
        <time>2021-08-14T07:14:47Z</time>
      </trkpt>
      <trkpt lat="47.5579" lon="-2.1511">
        <ele>39</ele>
        <time>2021-08-14T07:14:48Z</time>
      </trkpt>
      <trkpt lat="47.55793" lon="-2.15108">
        <ele>39.1</ele>
        <time>2021-08-14T07:14:50Z</time>
      </trkpt>
      <trkpt lat="47.55794" lon="-2.15107">
        <ele>39.1</ele>
        <time>2021-08-14T07:14:51Z</time>
      </trkpt>
      <trkpt lat="47.55796" lon="-2.15106">
        <ele>39.2</ele>
        <time>2021-08-14T07:14:52Z</time>
      </trkpt>
      <trkpt lat="47.55797" lon="-2.15105">
        <ele>39.2</ele>
        <time>2021-08-14T07:14:53Z</time>
      </trkpt>
      <trkpt lat="47.55802" lon="-2.15102">
        <ele>39.3</ele>
        <time>2021-08-14T07:14:55Z</time>
      </trkpt>
      <trkpt lat="47.55803" lon="-2.15101">
        <ele>39.3</ele>
        <time>2021-08-14T07:14:57Z</time>
      </trkpt>
      <trkpt lat="47.55805" lon="-2.151">
        <ele>39.3</ele>
        <time>2021-08-14T07:14:58Z</time>
      </trkpt>
      <trkpt lat="47.55807" lon="-2.15098">
        <ele>39.4</ele>
        <time>2021-08-14T07:14:59Z</time>
      </trkpt>
      <trkpt lat="47.55808" lon="-2.15098">
        <ele>39.4</ele>
        <time>2021-08-14T07:15:00Z</time>
      </trkpt>
      <trkpt lat="47.55809" lon="-2.15097">
        <ele>39.4</ele>
        <time>2021-08-14T07:15:02Z</time>
      </trkpt>
      <trkpt lat="47.55806" lon="-2.15098">
        <ele>39.4</ele>
        <time>2021-08-14T07:15:04Z</time>
      </trkpt>
      <trkpt lat="47.55806" lon="-2.15097">
        <ele>39.4</ele>
        <time>2021-08-14T07:15:06Z</time>
      </trkpt>
      <trkpt lat="47.55806" lon="-2.15097">
        <ele>39.4</ele>
        <time>2021-08-14T07:15:08Z</time>
      </trkpt>
      <trkpt lat="47.55806" lon="-2.15097">
        <ele>39.4</ele>
        <time>2021-08-14T07:15:09Z</time>
      </trkpt>
      <trkpt lat="47.55806" lon="-2.15097">
        <ele>39.4</ele>
        <time>2021-08-14T07:15:11Z</time>
      </trkpt>
      <trkpt lat="47.55808" lon="-2.15096">
        <ele>39.5</ele>
        <time>2021-08-14T07:15:52Z</time>
      </trkpt>
      <trkpt lat="47.5581" lon="-2.15094">
        <ele>39.5</ele>
        <time>2021-08-14T07:15:53Z</time>
      </trkpt>
      <trkpt lat="47.55813" lon="-2.15092">
        <ele>39.5</ele>
        <time>2021-08-14T07:15:55Z</time>
      </trkpt>
      <trkpt lat="47.55815" lon="-2.15091">
        <ele>39.6</ele>
        <time>2021-08-14T07:15:56Z</time>
      </trkpt>
      <trkpt lat="47.55819" lon="-2.15089">
        <ele>39.7</ele>
        <time>2021-08-14T07:15:57Z</time>
      </trkpt>
      <trkpt lat="47.55822" lon="-2.15088">
        <ele>39.8</ele>
        <time>2021-08-14T07:15:58Z</time>
      </trkpt>
      <trkpt lat="47.55826" lon="-2.15087">
        <ele>40</ele>
        <time>2021-08-14T07:15:59Z</time>
      </trkpt>
      <trkpt lat="47.55827" lon="-2.15087">
        <ele>40.1</ele>
        <time>2021-08-14T07:16:00Z</time>
      </trkpt>
      <trkpt lat="47.5583" lon="-2.15087">
        <ele>40.2</ele>
        <time>2021-08-14T07:16:01Z</time>
      </trkpt>
      <trkpt lat="47.55832" lon="-2.15089">
        <ele>40.3</ele>
        <time>2021-08-14T07:16:03Z</time>
      </trkpt>
      <trkpt lat="47.55835" lon="-2.15092">
        <ele>40.4</ele>
        <time>2021-08-14T07:16:04Z</time>
      </trkpt>
      <trkpt lat="47.55837" lon="-2.15095">
        <ele>40.5</ele>
        <time>2021-08-14T07:16:05Z</time>
      </trkpt>
      <trkpt lat="47.55841" lon="-2.15099">
        <ele>40.7</ele>
        <time>2021-08-14T07:16:07Z</time>
      </trkpt>
      <trkpt lat="47.55842" lon="-2.151">
        <ele>40.7</ele>
        <time>2021-08-14T07:16:08Z</time>
      </trkpt>
      <trkpt lat="47.55844" lon="-2.15101">
        <ele>40.8</ele>
        <time>2021-08-14T07:16:09Z</time>
      </trkpt>
      <trkpt lat="47.55846" lon="-2.15102">
        <ele>40.8</ele>
        <time>2021-08-14T07:16:10Z</time>
      </trkpt>
      <trkpt lat="47.55847" lon="-2.15104">
        <ele>40.9</ele>
        <time>2021-08-14T07:16:11Z</time>
      </trkpt>
      <trkpt lat="47.55848" lon="-2.15106">
        <ele>40.9</ele>
        <time>2021-08-14T07:16:13Z</time>
      </trkpt>
      <trkpt lat="47.55849" lon="-2.15108">
        <ele>40.9</ele>
        <time>2021-08-14T07:16:14Z</time>
      </trkpt>
      <trkpt lat="47.5585" lon="-2.15112">
        <ele>41</ele>
        <time>2021-08-14T07:16:15Z</time>
      </trkpt>
      <trkpt lat="47.5585" lon="-2.15113">
        <ele>41</ele>
        <time>2021-08-14T07:16:16Z</time>
      </trkpt>
      <trkpt lat="47.55851" lon="-2.15116">
        <ele>41</ele>
        <time>2021-08-14T07:16:17Z</time>
      </trkpt>
      <trkpt lat="47.55851" lon="-2.15119">
        <ele>41</ele>
        <time>2021-08-14T07:16:19Z</time>
      </trkpt>
      <trkpt lat="47.55851" lon="-2.15124">
        <ele>41.1</ele>
        <time>2021-08-14T07:16:20Z</time>
      </trkpt>
      <trkpt lat="47.5585" lon="-2.15125">
        <ele>41.1</ele>
        <time>2021-08-14T07:16:21Z</time>
      </trkpt>
      <trkpt lat="47.5585" lon="-2.15129">
        <ele>41.1</ele>
        <time>2021-08-14T07:16:23Z</time>
      </trkpt>
      <trkpt lat="47.5585" lon="-2.15131">
        <ele>41.1</ele>
        <time>2021-08-14T07:16:24Z</time>
      </trkpt>
      <trkpt lat="47.55849" lon="-2.15136">
        <ele>41.1</ele>
        <time>2021-08-14T07:16:25Z</time>
      </trkpt>
      <trkpt lat="47.55849" lon="-2.15137">
        <ele>41.1</ele>
        <time>2021-08-14T07:16:26Z</time>
      </trkpt>
      <trkpt lat="47.5585" lon="-2.15144">
        <ele>41.1</ele>
        <time>2021-08-14T07:16:28Z</time>
      </trkpt>
      <trkpt lat="47.55852" lon="-2.1515">
        <ele>41.1</ele>
        <time>2021-08-14T07:16:30Z</time>
      </trkpt>
      <trkpt lat="47.55853" lon="-2.15155">
        <ele>41.1</ele>
        <time>2021-08-14T07:16:31Z</time>
      </trkpt>
      <trkpt lat="47.55854" lon="-2.1516">
        <ele>41.1</ele>
        <time>2021-08-14T07:16:32Z</time>
      </trkpt>
      <trkpt lat="47.55855" lon="-2.15167">
        <ele>41.2</ele>
        <time>2021-08-14T07:16:34Z</time>
      </trkpt>
      <trkpt lat="47.55856" lon="-2.15171">
        <ele>41.2</ele>
        <time>2021-08-14T07:16:35Z</time>
      </trkpt>
      <trkpt lat="47.55858" lon="-2.15177">
        <ele>41.2</ele>
        <time>2021-08-14T07:16:37Z</time>
      </trkpt>
      <trkpt lat="47.5586" lon="-2.15181">
        <ele>41.2</ele>
        <time>2021-08-14T07:16:38Z</time>
      </trkpt>
      <trkpt lat="47.55861" lon="-2.15185">
        <ele>41.2</ele>
        <time>2021-08-14T07:16:39Z</time>
      </trkpt>
      <trkpt lat="47.55863" lon="-2.1519">
        <ele>41.2</ele>
        <time>2021-08-14T07:16:41Z</time>
      </trkpt>
      <trkpt lat="47.55863" lon="-2.15195">
        <ele>41.2</ele>
        <time>2021-08-14T07:16:42Z</time>
      </trkpt>
      <trkpt lat="47.55863" lon="-2.15199">
        <ele>41.2</ele>
        <time>2021-08-14T07:16:43Z</time>
      </trkpt>
      <trkpt lat="47.55863" lon="-2.15203">
        <ele>41.2</ele>
        <time>2021-08-14T07:16:44Z</time>
      </trkpt>
      <trkpt lat="47.5586" lon="-2.15209">
        <ele>41.3</ele>
        <time>2021-08-14T07:16:46Z</time>
      </trkpt>
      <trkpt lat="47.55858" lon="-2.1521">
        <ele>41.3</ele>
        <time>2021-08-14T07:16:47Z</time>
      </trkpt>
      <trkpt lat="47.55857" lon="-2.15212">
        <ele>41.4</ele>
        <time>2021-08-14T07:16:48Z</time>
      </trkpt>
      <trkpt lat="47.55856" lon="-2.15216">
        <ele>41.4</ele>
        <time>2021-08-14T07:16:49Z</time>
      </trkpt>
      <trkpt lat="47.55856" lon="-2.15219">
        <ele>41.4</ele>
        <time>2021-08-14T07:16:50Z</time>
      </trkpt>
      <trkpt lat="47.55856" lon="-2.15225">
        <ele>41.5</ele>
        <time>2021-08-14T07:16:52Z</time>
      </trkpt>
      <trkpt lat="47.55857" lon="-2.15229">
        <ele>41.5</ele>
        <time>2021-08-14T07:16:53Z</time>
      </trkpt>
      <trkpt lat="47.55858" lon="-2.15234">
        <ele>41.5</ele>
        <time>2021-08-14T07:16:55Z</time>
      </trkpt>
      <trkpt lat="47.55858" lon="-2.15238">
        <ele>41.6</ele>
        <time>2021-08-14T07:16:56Z</time>
      </trkpt>
      <trkpt lat="47.55857" lon="-2.15245">
        <ele>41.6</ele>
        <time>2021-08-14T07:16:58Z</time>
      </trkpt>
      <trkpt lat="47.55857" lon="-2.1525">
        <ele>41.6</ele>
        <time>2021-08-14T07:16:59Z</time>
      </trkpt>
      <trkpt lat="47.55858" lon="-2.15254">
        <ele>41.6</ele>
        <time>2021-08-14T07:17:01Z</time>
      </trkpt>
      <trkpt lat="47.5586" lon="-2.15259">
        <ele>41.7</ele>
        <time>2021-08-14T07:17:02Z</time>
      </trkpt>
      <trkpt lat="47.55861" lon="-2.15263">
        <ele>41.7</ele>
        <time>2021-08-14T07:17:03Z</time>
      </trkpt>
      <trkpt lat="47.55861" lon="-2.15268">
        <ele>41.7</ele>
        <time>2021-08-14T07:17:05Z</time>
      </trkpt>
      <trkpt lat="47.55862" lon="-2.15273">
        <ele>41.7</ele>
        <time>2021-08-14T07:17:06Z</time>
      </trkpt>
      <trkpt lat="47.55864" lon="-2.15278">
        <ele>41.8</ele>
        <time>2021-08-14T07:17:07Z</time>
      </trkpt>
      <trkpt lat="47.55866" lon="-2.15281">
        <ele>41.8</ele>
        <time>2021-08-14T07:17:09Z</time>
      </trkpt>
      <trkpt lat="47.55869" lon="-2.15284">
        <ele>41.8</ele>
        <time>2021-08-14T07:17:10Z</time>
      </trkpt>
      <trkpt lat="47.5587" lon="-2.15286">
        <ele>41.8</ele>
        <time>2021-08-14T07:17:11Z</time>
      </trkpt>
      <trkpt lat="47.55874" lon="-2.15287">
        <ele>41.9</ele>
        <time>2021-08-14T07:17:13Z</time>
      </trkpt>
      <trkpt lat="47.55877" lon="-2.15288">
        <ele>41.9</ele>
        <time>2021-08-14T07:17:14Z</time>
      </trkpt>
      <trkpt lat="47.5588" lon="-2.15289">
        <ele>42</ele>
        <time>2021-08-14T07:17:16Z</time>
      </trkpt>
      <trkpt lat="47.55883" lon="-2.1529">
        <ele>42</ele>
        <time>2021-08-14T07:17:17Z</time>
      </trkpt>
      <trkpt lat="47.55886" lon="-2.15291">
        <ele>42</ele>
        <time>2021-08-14T07:17:18Z</time>
      </trkpt>
      <trkpt lat="47.55891" lon="-2.15293">
        <ele>42.1</ele>
        <time>2021-08-14T07:17:20Z</time>
      </trkpt>
      <trkpt lat="47.55895" lon="-2.15294">
        <ele>42.2</ele>
        <time>2021-08-14T07:17:21Z</time>
      </trkpt>
      <trkpt lat="47.55899" lon="-2.15293">
        <ele>42.2</ele>
        <time>2021-08-14T07:17:22Z</time>
      </trkpt>
      <trkpt lat="47.55903" lon="-2.15291">
        <ele>42.3</ele>
        <time>2021-08-14T07:17:24Z</time>
      </trkpt>
      <trkpt lat="47.55906" lon="-2.15292">
        <ele>42.4</ele>
        <time>2021-08-14T07:17:25Z</time>
      </trkpt>
      <trkpt lat="47.55909" lon="-2.15294">
        <ele>42.4</ele>
        <time>2021-08-14T07:17:27Z</time>
      </trkpt>
      <trkpt lat="47.55912" lon="-2.15296">
        <ele>42.5</ele>
        <time>2021-08-14T07:17:28Z</time>
      </trkpt>
      <trkpt lat="47.55916" lon="-2.15298">
        <ele>42.6</ele>
        <time>2021-08-14T07:17:29Z</time>
      </trkpt>
      <trkpt lat="47.55922" lon="-2.15297">
        <ele>42.7</ele>
        <time>2021-08-14T07:17:31Z</time>
      </trkpt>
      <trkpt lat="47.55925" lon="-2.15296">
        <ele>42.8</ele>
        <time>2021-08-14T07:17:32Z</time>
      </trkpt>
      <trkpt lat="47.55929" lon="-2.15295">
        <ele>42.9</ele>
        <time>2021-08-14T07:17:34Z</time>
      </trkpt>
      <trkpt lat="47.55932" lon="-2.15294">
        <ele>42.9</ele>
        <time>2021-08-14T07:17:35Z</time>
      </trkpt>
      <trkpt lat="47.55935" lon="-2.15295">
        <ele>43</ele>
        <time>2021-08-14T07:17:36Z</time>
      </trkpt>
      <trkpt lat="47.55937" lon="-2.15294">
        <ele>43.1</ele>
        <time>2021-08-14T07:17:37Z</time>
      </trkpt>
      <trkpt lat="47.5594" lon="-2.15293">
        <ele>43.1</ele>
        <time>2021-08-14T07:17:39Z</time>
      </trkpt>
      <trkpt lat="47.55943" lon="-2.15293">
        <ele>43.2</ele>
        <time>2021-08-14T07:17:40Z</time>
      </trkpt>
      <trkpt lat="47.55946" lon="-2.15295">
        <ele>43.3</ele>
        <time>2021-08-14T07:17:42Z</time>
      </trkpt>
      <trkpt lat="47.55949" lon="-2.15296">
        <ele>43.3</ele>
        <time>2021-08-14T07:17:43Z</time>
      </trkpt>
      <trkpt lat="47.55951" lon="-2.15297">
        <ele>43.4</ele>
        <time>2021-08-14T07:17:44Z</time>
      </trkpt>
      <trkpt lat="47.55955" lon="-2.15297">
        <ele>43.5</ele>
        <time>2021-08-14T07:17:46Z</time>
      </trkpt>
      <trkpt lat="47.55959" lon="-2.15295">
        <ele>43.5</ele>
        <time>2021-08-14T07:17:47Z</time>
      </trkpt>
      <trkpt lat="47.55962" lon="-2.15291">
        <ele>43.6</ele>
        <time>2021-08-14T07:17:48Z</time>
      </trkpt>
      <trkpt lat="47.55966" lon="-2.15288">
        <ele>43.7</ele>
        <time>2021-08-14T07:17:50Z</time>
      </trkpt>
      <trkpt lat="47.55969" lon="-2.15289">
        <ele>43.7</ele>
        <time>2021-08-14T07:17:51Z</time>
      </trkpt>
      <trkpt lat="47.55972" lon="-2.1529">
        <ele>43.8</ele>
        <time>2021-08-14T07:17:52Z</time>
      </trkpt>
      <trkpt lat="47.55974" lon="-2.1529">
        <ele>43.8</ele>
        <time>2021-08-14T07:17:53Z</time>
      </trkpt>
      <trkpt lat="47.55976" lon="-2.15289">
        <ele>43.8</ele>
        <time>2021-08-14T07:17:54Z</time>
      </trkpt>
      <trkpt lat="47.55979" lon="-2.15287">
        <ele>43.9</ele>
        <time>2021-08-14T07:17:56Z</time>
      </trkpt>
      <trkpt lat="47.55982" lon="-2.15287">
        <ele>43.9</ele>
        <time>2021-08-14T07:17:57Z</time>
      </trkpt>
      <trkpt lat="47.55985" lon="-2.15288">
        <ele>44</ele>
        <time>2021-08-14T07:17:58Z</time>
      </trkpt>
      <trkpt lat="47.55988" lon="-2.15289">
        <ele>44</ele>
        <time>2021-08-14T07:18:00Z</time>
      </trkpt>
      <trkpt lat="47.55991" lon="-2.15289">
        <ele>44.1</ele>
        <time>2021-08-14T07:18:01Z</time>
      </trkpt>
      <trkpt lat="47.55993" lon="-2.15288">
        <ele>44.1</ele>
        <time>2021-08-14T07:18:02Z</time>
      </trkpt>
      <trkpt lat="47.55997" lon="-2.15288">
        <ele>44.2</ele>
        <time>2021-08-14T07:18:03Z</time>
      </trkpt>
      <trkpt lat="47.56001" lon="-2.15289">
        <ele>44.2</ele>
        <time>2021-08-14T07:18:04Z</time>
      </trkpt>
      <trkpt lat="47.56002" lon="-2.15289">
        <ele>44.2</ele>
        <time>2021-08-14T07:18:05Z</time>
      </trkpt>
      <trkpt lat="47.56007" lon="-2.15292">
        <ele>44.3</ele>
        <time>2021-08-14T07:18:07Z</time>
      </trkpt>
      <trkpt lat="47.56011" lon="-2.15293">
        <ele>44.3</ele>
        <time>2021-08-14T07:18:08Z</time>
      </trkpt>
      <trkpt lat="47.56017" lon="-2.15294">
        <ele>44.4</ele>
        <time>2021-08-14T07:18:10Z</time>
      </trkpt>
      <trkpt lat="47.56021" lon="-2.15292">
        <ele>44.4</ele>
        <time>2021-08-14T07:18:11Z</time>
      </trkpt>
      <trkpt lat="47.56027" lon="-2.15291">
        <ele>44.3</ele>
        <time>2021-08-14T07:18:13Z</time>
      </trkpt>
      <trkpt lat="47.56031" lon="-2.15293">
        <ele>44.3</ele>
        <time>2021-08-14T07:18:14Z</time>
      </trkpt>
      <trkpt lat="47.56035" lon="-2.15296">
        <ele>43.9</ele>
        <time>2021-08-14T07:18:16Z</time>
      </trkpt>
      <trkpt lat="47.56036" lon="-2.153">
        <ele>43.7</ele>
        <time>2021-08-14T07:18:17Z</time>
      </trkpt>
      <trkpt lat="47.56037" lon="-2.15303">
        <ele>43.4</ele>
        <time>2021-08-14T07:18:19Z</time>
      </trkpt>
      <trkpt lat="47.56037" lon="-2.15302">
        <ele>43.5</ele>
        <time>2021-08-14T07:18:21Z</time>
      </trkpt>
      <trkpt lat="47.56036" lon="-2.15302">
        <ele>43.7</ele>
        <time>2021-08-14T07:18:22Z</time>
      </trkpt>
      <trkpt lat="47.56035" lon="-2.15301">
        <ele>43.7</ele>
        <time>2021-08-14T07:18:24Z</time>
      </trkpt>
      <trkpt lat="47.56035" lon="-2.15301">
        <ele>43.7</ele>
        <time>2021-08-14T07:18:25Z</time>
      </trkpt>
      <trkpt lat="47.56034" lon="-2.153">
        <ele>43.8</ele>
        <time>2021-08-14T07:18:26Z</time>
      </trkpt>
      <trkpt lat="47.56034" lon="-2.153">
        <ele>43.8</ele>
        <time>2021-08-14T07:18:27Z</time>
      </trkpt>
      <trkpt lat="47.56033" lon="-2.15299">
        <ele>43.9</ele>
        <time>2021-08-14T07:18:29Z</time>
      </trkpt>
      <trkpt lat="47.56033" lon="-2.15299">
        <ele>43.9</ele>
        <time>2021-08-14T07:18:31Z</time>
      </trkpt>
      <trkpt lat="47.56032" lon="-2.15298">
        <ele>43.9</ele>
        <time>2021-08-14T07:18:34Z</time>
      </trkpt>
      <trkpt lat="47.56032" lon="-2.15298">
        <ele>44.1</ele>
        <time>2021-08-14T07:18:41Z</time>
      </trkpt>
      <trkpt lat="47.56031" lon="-2.15297">
        <ele>44.1</ele>
        <time>2021-08-14T07:18:43Z</time>
      </trkpt>
      <trkpt lat="47.56031" lon="-2.15297">
        <ele>44.2</ele>
        <time>2021-08-14T07:18:44Z</time>
      </trkpt>
      <trkpt lat="47.56027" lon="-2.15298">
        <ele>44</ele>
        <time>2021-08-14T07:18:45Z</time>
      </trkpt>
      <trkpt lat="47.56025" lon="-2.15299">
        <ele>44.1</ele>
        <time>2021-08-14T07:18:46Z</time>
      </trkpt>
      <trkpt lat="47.56021" lon="-2.15301">
        <ele>44.2</ele>
        <time>2021-08-14T07:18:48Z</time>
      </trkpt>
      <trkpt lat="47.56019" lon="-2.15302">
        <ele>44.1</ele>
        <time>2021-08-14T07:18:49Z</time>
      </trkpt>
      <trkpt lat="47.56015" lon="-2.15302">
        <ele>44.1</ele>
        <time>2021-08-14T07:18:51Z</time>
      </trkpt>
      <trkpt lat="47.56013" lon="-2.15303">
        <ele>44</ele>
        <time>2021-08-14T07:18:52Z</time>
      </trkpt>
      <trkpt lat="47.56009" lon="-2.15304">
        <ele>43.9</ele>
        <time>2021-08-14T07:18:53Z</time>
      </trkpt>
      <trkpt lat="47.56006" lon="-2.15305">
        <ele>43.9</ele>
        <time>2021-08-14T07:18:54Z</time>
      </trkpt>
      <trkpt lat="47.56003" lon="-2.15306">
        <ele>43.8</ele>
        <time>2021-08-14T07:18:55Z</time>
      </trkpt>
      <trkpt lat="47.55998" lon="-2.15307">
        <ele>43.7</ele>
        <time>2021-08-14T07:18:56Z</time>
      </trkpt>
      <trkpt lat="47.55992" lon="-2.15308">
        <ele>43.6</ele>
        <time>2021-08-14T07:18:58Z</time>
      </trkpt>
      <trkpt lat="47.55986" lon="-2.15309">
        <ele>43.5</ele>
        <time>2021-08-14T07:19:00Z</time>
      </trkpt>
      <trkpt lat="47.55981" lon="-2.1531">
        <ele>43.4</ele>
        <time>2021-08-14T07:19:01Z</time>
      </trkpt>
      <trkpt lat="47.55975" lon="-2.15311">
        <ele>43.3</ele>
        <time>2021-08-14T07:19:02Z</time>
      </trkpt>
      <trkpt lat="47.5597" lon="-2.15311">
        <ele>43.2</ele>
        <time>2021-08-14T07:19:03Z</time>
      </trkpt>
      <trkpt lat="47.55965" lon="-2.15312">
        <ele>43.1</ele>
        <time>2021-08-14T07:19:04Z</time>
      </trkpt>
      <trkpt lat="47.55958" lon="-2.15313">
        <ele>43</ele>
        <time>2021-08-14T07:19:06Z</time>
      </trkpt>
      <trkpt lat="47.55953" lon="-2.15313">
        <ele>42.9</ele>
        <time>2021-08-14T07:19:07Z</time>
      </trkpt>
      <trkpt lat="47.55948" lon="-2.15314">
        <ele>42.8</ele>
        <time>2021-08-14T07:19:08Z</time>
      </trkpt>
      <trkpt lat="47.55943" lon="-2.15314">
        <ele>42.7</ele>
        <time>2021-08-14T07:19:09Z</time>
      </trkpt>
      <trkpt lat="47.55938" lon="-2.15314">
        <ele>42.7</ele>
        <time>2021-08-14T07:19:10Z</time>
      </trkpt>
      <trkpt lat="47.55931" lon="-2.15316">
        <ele>42.5</ele>
        <time>2021-08-14T07:19:12Z</time>
      </trkpt>
      <trkpt lat="47.55926" lon="-2.15316">
        <ele>42.4</ele>
        <time>2021-08-14T07:19:13Z</time>
      </trkpt>
      <trkpt lat="47.55918" lon="-2.15317">
        <ele>42.3</ele>
        <time>2021-08-14T07:19:15Z</time>
      </trkpt>
      <trkpt lat="47.55913" lon="-2.15317">
        <ele>42.3</ele>
        <time>2021-08-14T07:19:16Z</time>
      </trkpt>
      <trkpt lat="47.55908" lon="-2.15317">
        <ele>42.2</ele>
        <time>2021-08-14T07:19:17Z</time>
      </trkpt>
      <trkpt lat="47.559" lon="-2.15318">
        <ele>42.1</ele>
        <time>2021-08-14T07:19:19Z</time>
      </trkpt>
      <trkpt lat="47.55894" lon="-2.15319">
        <ele>41.9</ele>
        <time>2021-08-14T07:19:20Z</time>
      </trkpt>
      <trkpt lat="47.55888" lon="-2.15322">
        <ele>41.8</ele>
        <time>2021-08-14T07:19:21Z</time>
      </trkpt>
      <trkpt lat="47.55883" lon="-2.15326">
        <ele>41.7</ele>
        <time>2021-08-14T07:19:22Z</time>
      </trkpt>
      <trkpt lat="47.55877" lon="-2.15335">
        <ele>41.4</ele>
        <time>2021-08-14T07:19:24Z</time>
      </trkpt>
      <trkpt lat="47.55875" lon="-2.15342">
        <ele>41.3</ele>
        <time>2021-08-14T07:19:25Z</time>
      </trkpt>
      <trkpt lat="47.55872" lon="-2.15352">
        <ele>41</ele>
        <time>2021-08-14T07:19:27Z</time>
      </trkpt>
      <trkpt lat="47.55869" lon="-2.1536">
        <ele>40.8</ele>
        <time>2021-08-14T07:19:29Z</time>
      </trkpt>
      <trkpt lat="47.55865" lon="-2.1537">
        <ele>40.6</ele>
        <time>2021-08-14T07:19:30Z</time>
      </trkpt>
      <trkpt lat="47.55862" lon="-2.15381">
        <ele>40.4</ele>
        <time>2021-08-14T07:19:32Z</time>
      </trkpt>
      <trkpt lat="47.5586" lon="-2.1539">
        <ele>40.2</ele>
        <time>2021-08-14T07:19:33Z</time>
      </trkpt>
      <trkpt lat="47.55858" lon="-2.15397">
        <ele>40.1</ele>
        <time>2021-08-14T07:19:34Z</time>
      </trkpt>
      <trkpt lat="47.55855" lon="-2.15406">
        <ele>39.9</ele>
        <time>2021-08-14T07:19:36Z</time>
      </trkpt>
      <trkpt lat="47.55853" lon="-2.15414">
        <ele>39.7</ele>
        <time>2021-08-14T07:19:37Z</time>
      </trkpt>
      <trkpt lat="47.55852" lon="-2.15422">
        <ele>39.6</ele>
        <time>2021-08-14T07:19:38Z</time>
      </trkpt>
      <trkpt lat="47.55851" lon="-2.15429">
        <ele>39.4</ele>
        <time>2021-08-14T07:19:39Z</time>
      </trkpt>
      <trkpt lat="47.5585" lon="-2.15436">
        <ele>39.3</ele>
        <time>2021-08-14T07:19:40Z</time>
      </trkpt>
      <trkpt lat="47.55848" lon="-2.15444">
        <ele>39.1</ele>
        <time>2021-08-14T07:19:41Z</time>
      </trkpt>
      <trkpt lat="47.55846" lon="-2.15452">
        <ele>39</ele>
        <time>2021-08-14T07:19:42Z</time>
      </trkpt>
      <trkpt lat="47.55844" lon="-2.1546">
        <ele>38.8</ele>
        <time>2021-08-14T07:19:44Z</time>
      </trkpt>
      <trkpt lat="47.55842" lon="-2.15469">
        <ele>38.6</ele>
        <time>2021-08-14T07:19:45Z</time>
      </trkpt>
      <trkpt lat="47.55841" lon="-2.15478">
        <ele>38.5</ele>
        <time>2021-08-14T07:19:46Z</time>
      </trkpt>
      <trkpt lat="47.5584" lon="-2.15487">
        <ele>38.3</ele>
        <time>2021-08-14T07:19:47Z</time>
      </trkpt>
      <trkpt lat="47.55838" lon="-2.15499">
        <ele>38</ele>
        <time>2021-08-14T07:19:49Z</time>
      </trkpt>
      <trkpt lat="47.55837" lon="-2.1551">
        <ele>37.8</ele>
        <time>2021-08-14T07:19:51Z</time>
      </trkpt>
      <trkpt lat="47.55836" lon="-2.15519">
        <ele>37.5</ele>
        <time>2021-08-14T07:19:52Z</time>
      </trkpt>
      <trkpt lat="47.55833" lon="-2.15536">
        <ele>37.1</ele>
        <time>2021-08-14T07:19:53Z</time>
      </trkpt>
      <trkpt lat="47.5583" lon="-2.15554">
        <ele>36.5</ele>
        <time>2021-08-14T07:19:55Z</time>
      </trkpt>
      <trkpt lat="47.55828" lon="-2.15563">
        <ele>36.2</ele>
        <time>2021-08-14T07:19:56Z</time>
      </trkpt>
      <trkpt lat="47.55827" lon="-2.15571">
        <ele>36</ele>
        <time>2021-08-14T07:19:57Z</time>
      </trkpt>
      <trkpt lat="47.55824" lon="-2.15587">
        <ele>35.5</ele>
        <time>2021-08-14T07:19:59Z</time>
      </trkpt>
      <trkpt lat="47.55821" lon="-2.15605">
        <ele>35</ele>
        <time>2021-08-14T07:20:01Z</time>
      </trkpt>
      <trkpt lat="47.5582" lon="-2.15622">
        <ele>34.6</ele>
        <time>2021-08-14T07:20:03Z</time>
      </trkpt>
      <trkpt lat="47.55819" lon="-2.1563">
        <ele>34.4</ele>
        <time>2021-08-14T07:20:04Z</time>
      </trkpt>
      <trkpt lat="47.55818" lon="-2.15642">
        <ele>34.2</ele>
        <time>2021-08-14T07:20:06Z</time>
      </trkpt>
      <trkpt lat="47.55818" lon="-2.15647">
        <ele>34.1</ele>
        <time>2021-08-14T07:20:07Z</time>
      </trkpt>
      <trkpt lat="47.55816" lon="-2.15652">
        <ele>34</ele>
        <time>2021-08-14T07:20:09Z</time>
      </trkpt>
      <trkpt lat="47.55813" lon="-2.15652">
        <ele>33.9</ele>
        <time>2021-08-14T07:20:10Z</time>
      </trkpt>
      <trkpt lat="47.55809" lon="-2.1565">
        <ele>33.7</ele>
        <time>2021-08-14T07:20:12Z</time>
      </trkpt>
      <trkpt lat="47.55805" lon="-2.15648">
        <ele>33.6</ele>
        <time>2021-08-14T07:20:14Z</time>
      </trkpt>
      <trkpt lat="47.55801" lon="-2.15645">
        <ele>33.6</ele>
        <time>2021-08-14T07:20:15Z</time>
      </trkpt>
      <trkpt lat="47.55798" lon="-2.15644">
        <ele>33.6</ele>
        <time>2021-08-14T07:20:16Z</time>
      </trkpt>
      <trkpt lat="47.55792" lon="-2.15643">
        <ele>33.7</ele>
        <time>2021-08-14T07:20:18Z</time>
      </trkpt>
      <trkpt lat="47.55787" lon="-2.15641">
        <ele>33.8</ele>
        <time>2021-08-14T07:20:19Z</time>
      </trkpt>
      <trkpt lat="47.55781" lon="-2.1564">
        <ele>34</ele>
        <time>2021-08-14T07:20:21Z</time>
      </trkpt>
      <trkpt lat="47.55776" lon="-2.15639">
        <ele>34.1</ele>
        <time>2021-08-14T07:20:22Z</time>
      </trkpt>
      <trkpt lat="47.55772" lon="-2.15639">
        <ele>34.3</ele>
        <time>2021-08-14T07:20:23Z</time>
      </trkpt>
      <trkpt lat="47.55767" lon="-2.15637">
        <ele>34.5</ele>
        <time>2021-08-14T07:20:25Z</time>
      </trkpt>
      <trkpt lat="47.55761" lon="-2.15635">
        <ele>34.7</ele>
        <time>2021-08-14T07:20:26Z</time>
      </trkpt>
      <trkpt lat="47.55756" lon="-2.15632">
        <ele>34.9</ele>
        <time>2021-08-14T07:20:27Z</time>
      </trkpt>
      <trkpt lat="47.55752" lon="-2.1563">
        <ele>35.1</ele>
        <time>2021-08-14T07:20:28Z</time>
      </trkpt>
      <trkpt lat="47.55742" lon="-2.15625">
        <ele>35.4</ele>
        <time>2021-08-14T07:20:30Z</time>
      </trkpt>
      <trkpt lat="47.55732" lon="-2.1562">
        <ele>35.5</ele>
        <time>2021-08-14T07:20:31Z</time>
      </trkpt>
      <trkpt lat="47.55727" lon="-2.15617">
        <ele>35.5</ele>
        <time>2021-08-14T07:20:32Z</time>
      </trkpt>
      <trkpt lat="47.55721" lon="-2.15614">
        <ele>35.4</ele>
        <time>2021-08-14T07:20:33Z</time>
      </trkpt>
      <trkpt lat="47.55712" lon="-2.15608">
        <ele>35.2</ele>
        <time>2021-08-14T07:20:35Z</time>
      </trkpt>
      <trkpt lat="47.55702" lon="-2.156">
        <ele>34.8</ele>
        <time>2021-08-14T07:20:37Z</time>
      </trkpt>
      <trkpt lat="47.55688" lon="-2.15592">
        <ele>34.1</ele>
        <time>2021-08-14T07:20:39Z</time>
      </trkpt>
      <trkpt lat="47.55675" lon="-2.15583">
        <ele>33.2</ele>
        <time>2021-08-14T07:20:41Z</time>
      </trkpt>
      <trkpt lat="47.55659" lon="-2.15571">
        <ele>31.8</ele>
        <time>2021-08-14T07:20:43Z</time>
      </trkpt>
      <trkpt lat="47.5564" lon="-2.15557">
        <ele>30.1</ele>
        <time>2021-08-14T07:20:45Z</time>
      </trkpt>
      <trkpt lat="47.55629" lon="-2.1555">
        <ele>29.2</ele>
        <time>2021-08-14T07:20:46Z</time>
      </trkpt>
      <trkpt lat="47.55618" lon="-2.15543">
        <ele>28.4</ele>
        <time>2021-08-14T07:20:47Z</time>
      </trkpt>
      <trkpt lat="47.55607" lon="-2.15536">
        <ele>27.7</ele>
        <time>2021-08-14T07:20:48Z</time>
      </trkpt>
      <trkpt lat="47.55587" lon="-2.15523">
        <ele>26.2</ele>
        <time>2021-08-14T07:20:50Z</time>
      </trkpt>
      <trkpt lat="47.55566" lon="-2.15508">
        <ele>24.9</ele>
        <time>2021-08-14T07:20:52Z</time>
      </trkpt>
      <trkpt lat="47.55557" lon="-2.15501">
        <ele>24.5</ele>
        <time>2021-08-14T07:20:53Z</time>
      </trkpt>
      <trkpt lat="47.55547" lon="-2.15494">
        <ele>24.1</ele>
        <time>2021-08-14T07:20:54Z</time>
      </trkpt>
      <trkpt lat="47.55527" lon="-2.15481">
        <ele>23.1</ele>
        <time>2021-08-14T07:20:56Z</time>
      </trkpt>
      <trkpt lat="47.55511" lon="-2.15469">
        <ele>22</ele>
        <time>2021-08-14T07:20:58Z</time>
      </trkpt>
      <trkpt lat="47.55506" lon="-2.15466">
        <ele>21.6</ele>
        <time>2021-08-14T07:20:59Z</time>
      </trkpt>
      <trkpt lat="47.55504" lon="-2.15466">
        <ele>21.5</ele>
        <time>2021-08-14T07:21:00Z</time>
      </trkpt>
      <trkpt lat="47.55504" lon="-2.15472">
        <ele>21.3</ele>
        <time>2021-08-14T07:21:02Z</time>
      </trkpt>
      <trkpt lat="47.55504" lon="-2.15475">
        <ele>21.2</ele>
        <time>2021-08-14T07:21:03Z</time>
      </trkpt>
      <trkpt lat="47.55507" lon="-2.15481">
        <ele>21</ele>
        <time>2021-08-14T07:21:05Z</time>
      </trkpt>
      <trkpt lat="47.5551" lon="-2.15486">
        <ele>20.8</ele>
        <time>2021-08-14T07:21:07Z</time>
      </trkpt>
      <trkpt lat="47.55511" lon="-2.15488">
        <ele>20.8</ele>
        <time>2021-08-14T07:21:08Z</time>
      </trkpt>
      <trkpt lat="47.55512" lon="-2.1549">
        <ele>20.8</ele>
        <time>2021-08-14T07:21:09Z</time>
      </trkpt>
      <trkpt lat="47.55514" lon="-2.15493">
        <ele>20.7</ele>
        <time>2021-08-14T07:21:10Z</time>
      </trkpt>
      <trkpt lat="47.55514" lon="-2.15495">
        <ele>20.7</ele>
        <time>2021-08-14T07:21:11Z</time>
      </trkpt>
      <trkpt lat="47.55518" lon="-2.155">
        <ele>20.7</ele>
        <time>2021-08-14T07:21:13Z</time>
      </trkpt>
      <trkpt lat="47.55519" lon="-2.15504">
        <ele>20.7</ele>
        <time>2021-08-14T07:21:15Z</time>
      </trkpt>
      <trkpt lat="47.55521" lon="-2.15508">
        <ele>20.8</ele>
        <time>2021-08-14T07:21:16Z</time>
      </trkpt>
      <trkpt lat="47.55524" lon="-2.15512">
        <ele>20.8</ele>
        <time>2021-08-14T07:21:18Z</time>
      </trkpt>
      <trkpt lat="47.55527" lon="-2.15516">
        <ele>20.8</ele>
        <time>2021-08-14T07:21:19Z</time>
      </trkpt>
      <trkpt lat="47.55531" lon="-2.15522">
        <ele>20.9</ele>
        <time>2021-08-14T07:21:20Z</time>
      </trkpt>
      <trkpt lat="47.55534" lon="-2.15526">
        <ele>21</ele>
        <time>2021-08-14T07:21:21Z</time>
      </trkpt>
      <trkpt lat="47.55539" lon="-2.15533">
        <ele>21.1</ele>
        <time>2021-08-14T07:21:23Z</time>
      </trkpt>
      <trkpt lat="47.55543" lon="-2.15539">
        <ele>21.2</ele>
        <time>2021-08-14T07:21:24Z</time>
      </trkpt>
      <trkpt lat="47.55548" lon="-2.15546">
        <ele>21.3</ele>
        <time>2021-08-14T07:21:26Z</time>
      </trkpt>
      <trkpt lat="47.55551" lon="-2.15551">
        <ele>21.4</ele>
        <time>2021-08-14T07:21:27Z</time>
      </trkpt>
      <trkpt lat="47.55554" lon="-2.15555">
        <ele>21.5</ele>
        <time>2021-08-14T07:21:28Z</time>
      </trkpt>
      <trkpt lat="47.55557" lon="-2.1556">
        <ele>21.6</ele>
        <time>2021-08-14T07:21:29Z</time>
      </trkpt>
      <trkpt lat="47.55561" lon="-2.15565">
        <ele>21.7</ele>
        <time>2021-08-14T07:21:31Z</time>
      </trkpt>
      <trkpt lat="47.55565" lon="-2.1557">
        <ele>21.9</ele>
        <time>2021-08-14T07:21:32Z</time>
      </trkpt>
      <trkpt lat="47.55571" lon="-2.15577">
        <ele>22</ele>
        <time>2021-08-14T07:21:33Z</time>
      </trkpt>
      <trkpt lat="47.55576" lon="-2.15585">
        <ele>22.1</ele>
        <time>2021-08-14T07:21:35Z</time>
      </trkpt>
      <trkpt lat="47.55581" lon="-2.1559">
        <ele>22.2</ele>
        <time>2021-08-14T07:21:36Z</time>
      </trkpt>
      <trkpt lat="47.55588" lon="-2.156">
        <ele>22.4</ele>
        <time>2021-08-14T07:21:38Z</time>
      </trkpt>
      <trkpt lat="47.55592" lon="-2.15607">
        <ele>22.4</ele>
        <time>2021-08-14T07:21:40Z</time>
      </trkpt>
      <trkpt lat="47.55596" lon="-2.15615">
        <ele>22.5</ele>
        <time>2021-08-14T07:21:41Z</time>
      </trkpt>
      <trkpt lat="47.55604" lon="-2.15628">
        <ele>22.6</ele>
        <time>2021-08-14T07:21:43Z</time>
      </trkpt>
      <trkpt lat="47.55611" lon="-2.15641">
        <ele>22.7</ele>
        <time>2021-08-14T07:21:45Z</time>
      </trkpt>
      <trkpt lat="47.55615" lon="-2.15644">
        <ele>22.7</ele>
        <time>2021-08-14T07:21:47Z</time>
      </trkpt>
      <trkpt lat="47.5562" lon="-2.15649">
        <ele>22.7</ele>
        <time>2021-08-14T07:21:48Z</time>
      </trkpt>
      <trkpt lat="47.55624" lon="-2.15654">
        <ele>22.8</ele>
        <time>2021-08-14T07:21:49Z</time>
      </trkpt>
      <trkpt lat="47.55629" lon="-2.15672">
        <ele>23</ele>
        <time>2021-08-14T07:21:51Z</time>
      </trkpt>
      <trkpt lat="47.55632" lon="-2.15679">
        <ele>23.1</ele>
        <time>2021-08-14T07:21:52Z</time>
      </trkpt>
      <trkpt lat="47.55637" lon="-2.15693">
        <ele>23.4</ele>
        <time>2021-08-14T07:21:54Z</time>
      </trkpt>
      <trkpt lat="47.55643" lon="-2.15706">
        <ele>23.7</ele>
        <time>2021-08-14T07:21:56Z</time>
      </trkpt>
      <trkpt lat="47.55646" lon="-2.15712">
        <ele>23.8</ele>
        <time>2021-08-14T07:21:57Z</time>
      </trkpt>
      <trkpt lat="47.55652" lon="-2.15724">
        <ele>23.9</ele>
        <time>2021-08-14T07:21:59Z</time>
      </trkpt>
      <trkpt lat="47.55653" lon="-2.15727">
        <ele>24</ele>
        <time>2021-08-14T07:22:00Z</time>
      </trkpt>
      <trkpt lat="47.55655" lon="-2.15736">
        <ele>24</ele>
        <time>2021-08-14T07:22:02Z</time>
      </trkpt>
      <trkpt lat="47.55656" lon="-2.15742">
        <ele>24.1</ele>
        <time>2021-08-14T07:22:03Z</time>
      </trkpt>
      <trkpt lat="47.55656" lon="-2.15751">
        <ele>24.2</ele>
        <time>2021-08-14T07:22:04Z</time>
      </trkpt>
      <trkpt lat="47.55656" lon="-2.15758">
        <ele>24.2</ele>
        <time>2021-08-14T07:22:05Z</time>
      </trkpt>
      <trkpt lat="47.55659" lon="-2.15773">
        <ele>24.3</ele>
        <time>2021-08-14T07:22:07Z</time>
      </trkpt>
      <trkpt lat="47.5566" lon="-2.15787">
        <ele>24.5</ele>
        <time>2021-08-14T07:22:09Z</time>
      </trkpt>
      <trkpt lat="47.55661" lon="-2.15795">
        <ele>24.6</ele>
        <time>2021-08-14T07:22:10Z</time>
      </trkpt>
      <trkpt lat="47.55664" lon="-2.15811">
        <ele>24.8</ele>
        <time>2021-08-14T07:22:12Z</time>
      </trkpt>
      <trkpt lat="47.55665" lon="-2.15819">
        <ele>25</ele>
        <time>2021-08-14T07:22:13Z</time>
      </trkpt>
      <trkpt lat="47.55667" lon="-2.15827">
        <ele>25.2</ele>
        <time>2021-08-14T07:22:14Z</time>
      </trkpt>
      <trkpt lat="47.55669" lon="-2.15842">
        <ele>25.5</ele>
        <time>2021-08-14T07:22:16Z</time>
      </trkpt>
      <trkpt lat="47.55671" lon="-2.15858">
        <ele>25.8</ele>
        <time>2021-08-14T07:22:18Z</time>
      </trkpt>
      <trkpt lat="47.55677" lon="-2.1587">
        <ele>26</ele>
        <time>2021-08-14T07:22:20Z</time>
      </trkpt>
      <trkpt lat="47.55682" lon="-2.15872">
        <ele>26.2</ele>
        <time>2021-08-14T07:22:21Z</time>
      </trkpt>
      <trkpt lat="47.55687" lon="-2.15868">
        <ele>26.9</ele>
        <time>2021-08-14T07:22:23Z</time>
      </trkpt>
      <trkpt lat="47.55689" lon="-2.15866">
        <ele>26.7</ele>
        <time>2021-08-14T07:22:24Z</time>
      </trkpt>
      <trkpt lat="47.5569" lon="-2.15864">
        <ele>27.2</ele>
        <time>2021-08-14T07:22:26Z</time>
      </trkpt>
      <trkpt lat="47.55691" lon="-2.15862">
        <ele>27</ele>
        <time>2021-08-14T07:22:27Z</time>
      </trkpt>
      <trkpt lat="47.55692" lon="-2.15863">
        <ele>26.9</ele>
        <time>2021-08-14T07:22:28Z</time>
      </trkpt>
      <trkpt lat="47.55694" lon="-2.15859">
        <ele>27.4</ele>
        <time>2021-08-14T07:22:30Z</time>
      </trkpt>
      <trkpt lat="47.55696" lon="-2.15857">
        <ele>27.6</ele>
        <time>2021-08-14T07:22:31Z</time>
      </trkpt>
      <trkpt lat="47.55697" lon="-2.15855">
        <ele>27.8</ele>
        <time>2021-08-14T07:22:32Z</time>
      </trkpt>
      <trkpt lat="47.55699" lon="-2.15853">
        <ele>28</ele>
        <time>2021-08-14T07:22:34Z</time>
      </trkpt>
      <trkpt lat="47.557" lon="-2.15852">
        <ele>27.8</ele>
        <time>2021-08-14T07:22:35Z</time>
      </trkpt>
      <trkpt lat="47.55703" lon="-2.15851">
        <ele>28.3</ele>
        <time>2021-08-14T07:22:37Z</time>
      </trkpt>
      <trkpt lat="47.55704" lon="-2.1585">
        <ele>28.4</ele>
        <time>2021-08-14T07:22:38Z</time>
      </trkpt>
      <trkpt lat="47.55706" lon="-2.1585">
        <ele>28.3</ele>
        <time>2021-08-14T07:22:39Z</time>
      </trkpt>
      <trkpt lat="47.55708" lon="-2.1585">
        <ele>28.4</ele>
        <time>2021-08-14T07:22:40Z</time>
      </trkpt>
      <trkpt lat="47.5571" lon="-2.1585">
        <ele>28.5</ele>
        <time>2021-08-14T07:22:41Z</time>
      </trkpt>
      <trkpt lat="47.55713" lon="-2.15851">
        <ele>28.7</ele>
        <time>2021-08-14T07:22:43Z</time>
      </trkpt>
      <trkpt lat="47.55715" lon="-2.15851">
        <ele>28.2</ele>
        <time>2021-08-14T07:22:44Z</time>
      </trkpt>
      <trkpt lat="47.55717" lon="-2.15852">
        <ele>28.4</ele>
        <time>2021-08-14T07:22:46Z</time>
      </trkpt>
      <trkpt lat="47.5572" lon="-2.15854">
        <ele>28.5</ele>
        <time>2021-08-14T07:22:47Z</time>
      </trkpt>
      <trkpt lat="47.55721" lon="-2.15854">
        <ele>28.4</ele>
        <time>2021-08-14T07:22:48Z</time>
      </trkpt>
      <trkpt lat="47.55722" lon="-2.15855">
        <ele>28.5</ele>
        <time>2021-08-14T07:22:49Z</time>
      </trkpt>
      <trkpt lat="47.55724" lon="-2.15856">
        <ele>28</ele>
        <time>2021-08-14T07:22:50Z</time>
      </trkpt>
      <trkpt lat="47.55726" lon="-2.15857">
        <ele>28.2</ele>
        <time>2021-08-14T07:22:52Z</time>
      </trkpt>
      <trkpt lat="47.55727" lon="-2.15858">
        <ele>28.3</ele>
        <time>2021-08-14T07:22:53Z</time>
      </trkpt>
      <trkpt lat="47.55729" lon="-2.15859">
        <ele>28.1</ele>
        <time>2021-08-14T07:22:54Z</time>
      </trkpt>
      <trkpt lat="47.5573" lon="-2.1586">
        <ele>28.3</ele>
        <time>2021-08-14T07:22:55Z</time>
      </trkpt>
      <trkpt lat="47.55732" lon="-2.15861">
        <ele>27.7</ele>
        <time>2021-08-14T07:22:57Z</time>
      </trkpt>
      <trkpt lat="47.55733" lon="-2.15863">
        <ele>27.8</ele>
        <time>2021-08-14T07:22:58Z</time>
      </trkpt>
      <trkpt lat="47.55734" lon="-2.15864">
        <ele>27.7</ele>
        <time>2021-08-14T07:22:59Z</time>
      </trkpt>
      <trkpt lat="47.55736" lon="-2.15866">
        <ele>27.4</ele>
        <time>2021-08-14T07:23:01Z</time>
      </trkpt>
      <trkpt lat="47.55739" lon="-2.15868">
        <ele>27.5</ele>
        <time>2021-08-14T07:23:02Z</time>
      </trkpt>
      <trkpt lat="47.55739" lon="-2.15869">
        <ele>26.9</ele>
        <time>2021-08-14T07:23:03Z</time>
      </trkpt>
      <trkpt lat="47.55741" lon="-2.15872">
        <ele>26.7</ele>
        <time>2021-08-14T07:23:05Z</time>
      </trkpt>
      <trkpt lat="47.55742" lon="-2.15873">
        <ele>26.7</ele>
        <time>2021-08-14T07:23:07Z</time>
      </trkpt>
      <trkpt lat="47.55743" lon="-2.15874">
        <ele>26.7</ele>
        <time>2021-08-14T07:23:08Z</time>
      </trkpt>
      <trkpt lat="47.55744" lon="-2.15875">
        <ele>26.6</ele>
        <time>2021-08-14T07:23:09Z</time>
      </trkpt>
      <trkpt lat="47.55744" lon="-2.15877">
        <ele>26.7</ele>
        <time>2021-08-14T07:23:11Z</time>
      </trkpt>
      <trkpt lat="47.55745" lon="-2.15878">
        <ele>26.7</ele>
        <time>2021-08-14T07:23:12Z</time>
      </trkpt>
      <trkpt lat="47.55746" lon="-2.15879">
        <ele>26.8</ele>
        <time>2021-08-14T07:23:13Z</time>
      </trkpt>
      <trkpt lat="47.55746" lon="-2.15881">
        <ele>26.8</ele>
        <time>2021-08-14T07:23:14Z</time>
      </trkpt>
      <trkpt lat="47.55748" lon="-2.15885">
        <ele>26.9</ele>
        <time>2021-08-14T07:23:16Z</time>
      </trkpt>
      <trkpt lat="47.55749" lon="-2.15887">
        <ele>27</ele>
        <time>2021-08-14T07:23:17Z</time>
      </trkpt>
      <trkpt lat="47.55751" lon="-2.15891">
        <ele>27.1</ele>
        <time>2021-08-14T07:23:19Z</time>
      </trkpt>
      <trkpt lat="47.55753" lon="-2.15895">
        <ele>27.2</ele>
        <time>2021-08-14T07:23:20Z</time>
      </trkpt>
      <trkpt lat="47.55754" lon="-2.15897">
        <ele>27.2</ele>
        <time>2021-08-14T07:23:21Z</time>
      </trkpt>
      <trkpt lat="47.55755" lon="-2.15899">
        <ele>27.3</ele>
        <time>2021-08-14T07:23:22Z</time>
      </trkpt>
      <trkpt lat="47.55757" lon="-2.15904">
        <ele>27.4</ele>
        <time>2021-08-14T07:23:24Z</time>
      </trkpt>
      <trkpt lat="47.55759" lon="-2.1591">
        <ele>27.5</ele>
        <time>2021-08-14T07:23:25Z</time>
      </trkpt>
      <trkpt lat="47.55761" lon="-2.15917">
        <ele>27.5</ele>
        <time>2021-08-14T07:23:27Z</time>
      </trkpt>
      <trkpt lat="47.55763" lon="-2.15924">
        <ele>27.5</ele>
        <time>2021-08-14T07:23:29Z</time>
      </trkpt>
      <trkpt lat="47.55765" lon="-2.15928">
        <ele>27.5</ele>
        <time>2021-08-14T07:23:30Z</time>
      </trkpt>
      <trkpt lat="47.55767" lon="-2.15931">
        <ele>27.5</ele>
        <time>2021-08-14T07:23:32Z</time>
      </trkpt>
      <trkpt lat="47.55769" lon="-2.15935">
        <ele>27.4</ele>
        <time>2021-08-14T07:23:33Z</time>
      </trkpt>
      <trkpt lat="47.5577" lon="-2.15942">
        <ele>27.4</ele>
        <time>2021-08-14T07:23:35Z</time>
      </trkpt>
      <trkpt lat="47.55771" lon="-2.15944">
        <ele>27.3</ele>
        <time>2021-08-14T07:23:36Z</time>
      </trkpt>
      <trkpt lat="47.55773" lon="-2.15949">
        <ele>27.3</ele>
        <time>2021-08-14T07:23:38Z</time>
      </trkpt>
      <trkpt lat="47.55776" lon="-2.15954">
        <ele>27.2</ele>
        <time>2021-08-14T07:23:39Z</time>
      </trkpt>
      <trkpt lat="47.55779" lon="-2.1596">
        <ele>27.1</ele>
        <time>2021-08-14T07:23:41Z</time>
      </trkpt>
      <trkpt lat="47.55781" lon="-2.15964">
        <ele>27</ele>
        <time>2021-08-14T07:23:42Z</time>
      </trkpt>
      <trkpt lat="47.55783" lon="-2.15969">
        <ele>26.8</ele>
        <time>2021-08-14T07:23:44Z</time>
      </trkpt>
      <trkpt lat="47.55786" lon="-2.15976">
        <ele>26.6</ele>
        <time>2021-08-14T07:23:46Z</time>
      </trkpt>
      <trkpt lat="47.55786" lon="-2.1598">
        <ele>26.5</ele>
        <time>2021-08-14T07:23:47Z</time>
      </trkpt>
      <trkpt lat="47.55788" lon="-2.15988">
        <ele>26.2</ele>
        <time>2021-08-14T07:23:49Z</time>
      </trkpt>
      <trkpt lat="47.5579" lon="-2.15994">
        <ele>26</ele>
        <time>2021-08-14T07:23:50Z</time>
      </trkpt>
      <trkpt lat="47.55794" lon="-2.16004">
        <ele>25.5</ele>
        <time>2021-08-14T07:23:52Z</time>
      </trkpt>
      <trkpt lat="47.55796" lon="-2.16008">
        <ele>25.3</ele>
        <time>2021-08-14T07:23:53Z</time>
      </trkpt>
      <trkpt lat="47.558" lon="-2.16015">
        <ele>25</ele>
        <time>2021-08-14T07:23:55Z</time>
      </trkpt>
      <trkpt lat="47.55802" lon="-2.16022">
        <ele>24.7</ele>
        <time>2021-08-14T07:23:56Z</time>
      </trkpt>
      <trkpt lat="47.55805" lon="-2.1603">
        <ele>24.4</ele>
        <time>2021-08-14T07:23:57Z</time>
      </trkpt>
      <trkpt lat="47.55808" lon="-2.16035">
        <ele>24.2</ele>
        <time>2021-08-14T07:23:59Z</time>
      </trkpt>
      <trkpt lat="47.55814" lon="-2.16037">
        <ele>24</ele>
        <time>2021-08-14T07:24:00Z</time>
      </trkpt>
      <trkpt lat="47.55818" lon="-2.16038">
        <ele>23.9</ele>
        <time>2021-08-14T07:24:01Z</time>
      </trkpt>
      <trkpt lat="47.55824" lon="-2.16041">
        <ele>23.9</ele>
        <time>2021-08-14T07:24:03Z</time>
      </trkpt>
      <trkpt lat="47.5583" lon="-2.16041">
        <ele>23.9</ele>
        <time>2021-08-14T07:24:04Z</time>
      </trkpt>
      <trkpt lat="47.55834" lon="-2.16041">
        <ele>24.1</ele>
        <time>2021-08-14T07:24:05Z</time>
      </trkpt>
      <trkpt lat="47.55838" lon="-2.16039">
        <ele>24.2</ele>
        <time>2021-08-14T07:24:07Z</time>
      </trkpt>
      <trkpt lat="47.55841" lon="-2.1604">
        <ele>24.3</ele>
        <time>2021-08-14T07:24:08Z</time>
      </trkpt>
      <trkpt lat="47.55844" lon="-2.1604">
        <ele>24.5</ele>
        <time>2021-08-14T07:24:09Z</time>
      </trkpt>
      <trkpt lat="47.55847" lon="-2.1604">
        <ele>24.6</ele>
        <time>2021-08-14T07:24:10Z</time>
      </trkpt>
      <trkpt lat="47.55849" lon="-2.16039">
        <ele>24.7</ele>
        <time>2021-08-14T07:24:11Z</time>
      </trkpt>
      <trkpt lat="47.55853" lon="-2.16037">
        <ele>24.8</ele>
        <time>2021-08-14T07:24:13Z</time>
      </trkpt>
      <trkpt lat="47.55855" lon="-2.16035">
        <ele>24.9</ele>
        <time>2021-08-14T07:24:14Z</time>
      </trkpt>
      <trkpt lat="47.55857" lon="-2.16034">
        <ele>25</ele>
        <time>2021-08-14T07:24:15Z</time>
      </trkpt>
      <trkpt lat="47.55859" lon="-2.16034">
        <ele>25.1</ele>
        <time>2021-08-14T07:24:17Z</time>
      </trkpt>
      <trkpt lat="47.55863" lon="-2.16034">
        <ele>25.2</ele>
        <time>2021-08-14T07:24:18Z</time>
      </trkpt>
      <trkpt lat="47.55865" lon="-2.16033">
        <ele>25.3</ele>
        <time>2021-08-14T07:24:19Z</time>
      </trkpt>
      <trkpt lat="47.55869" lon="-2.16032">
        <ele>25.5</ele>
        <time>2021-08-14T07:24:20Z</time>
      </trkpt>
      <trkpt lat="47.55871" lon="-2.16031">
        <ele>25.5</ele>
        <time>2021-08-14T07:24:21Z</time>
      </trkpt>
      <trkpt lat="47.55875" lon="-2.16029">
        <ele>25.7</ele>
        <time>2021-08-14T07:24:23Z</time>
      </trkpt>
      <trkpt lat="47.55878" lon="-2.1603">
        <ele>25.9</ele>
        <time>2021-08-14T07:24:25Z</time>
      </trkpt>
      <trkpt lat="47.55879" lon="-2.1603">
        <ele>25.9</ele>
        <time>2021-08-14T07:24:26Z</time>
      </trkpt>
      <trkpt lat="47.55882" lon="-2.1603">
        <ele>26.1</ele>
        <time>2021-08-14T07:24:27Z</time>
      </trkpt>
      <trkpt lat="47.55884" lon="-2.1603">
        <ele>26.2</ele>
        <time>2021-08-14T07:24:28Z</time>
      </trkpt>
      <trkpt lat="47.55886" lon="-2.16028">
        <ele>26.3</ele>
        <time>2021-08-14T07:24:30Z</time>
      </trkpt>
      <trkpt lat="47.55887" lon="-2.16025">
        <ele>26.6</ele>
        <time>2021-08-14T07:24:31Z</time>
      </trkpt>
      <trkpt lat="47.55888" lon="-2.16024">
        <ele>26.7</ele>
        <time>2021-08-14T07:24:32Z</time>
      </trkpt>
      <trkpt lat="47.55888" lon="-2.16022">
        <ele>26.8</ele>
        <time>2021-08-14T07:24:33Z</time>
      </trkpt>
      <trkpt lat="47.55888" lon="-2.1602">
        <ele>26.9</ele>
        <time>2021-08-14T07:24:34Z</time>
      </trkpt>
      <trkpt lat="47.55886" lon="-2.16019">
        <ele>27</ele>
        <time>2021-08-14T07:24:36Z</time>
      </trkpt>
      <trkpt lat="47.55885" lon="-2.16018">
        <ele>27.2</ele>
        <time>2021-08-14T07:24:37Z</time>
      </trkpt>
      <trkpt lat="47.55884" lon="-2.16017">
        <ele>27.3</ele>
        <time>2021-08-14T07:24:38Z</time>
      </trkpt>
      <trkpt lat="47.55883" lon="-2.16016">
        <ele>27.4</ele>
        <time>2021-08-14T07:24:40Z</time>
      </trkpt>
      <trkpt lat="47.55882" lon="-2.16015">
        <ele>27.5</ele>
        <time>2021-08-14T07:24:41Z</time>
      </trkpt>
      <trkpt lat="47.55881" lon="-2.16014">
        <ele>27.6</ele>
        <time>2021-08-14T07:24:43Z</time>
      </trkpt>
      <trkpt lat="47.5588" lon="-2.16013">
        <ele>27.7</ele>
        <time>2021-08-14T07:24:44Z</time>
      </trkpt>
      <trkpt lat="47.55879" lon="-2.16011">
        <ele>27.8</ele>
        <time>2021-08-14T07:24:45Z</time>
      </trkpt>
      <trkpt lat="47.55876" lon="-2.16007">
        <ele>28.1</ele>
        <time>2021-08-14T07:24:47Z</time>
      </trkpt>
      <trkpt lat="47.55875" lon="-2.16005">
        <ele>28.2</ele>
        <time>2021-08-14T07:24:48Z</time>
      </trkpt>
      <trkpt lat="47.55874" lon="-2.16003">
        <ele>28.3</ele>
        <time>2021-08-14T07:24:49Z</time>
      </trkpt>
      <trkpt lat="47.55872" lon="-2.15999">
        <ele>28.6</ele>
        <time>2021-08-14T07:24:51Z</time>
      </trkpt>
      <trkpt lat="47.55871" lon="-2.15997">
        <ele>28.6</ele>
        <time>2021-08-14T07:24:52Z</time>
      </trkpt>
      <trkpt lat="47.55869" lon="-2.15995">
        <ele>28.8</ele>
        <time>2021-08-14T07:24:53Z</time>
      </trkpt>
      <trkpt lat="47.55868" lon="-2.15993">
        <ele>28.8</ele>
        <time>2021-08-14T07:24:54Z</time>
      </trkpt>
      <trkpt lat="47.55868" lon="-2.15992">
        <ele>28.9</ele>
        <time>2021-08-14T07:24:55Z</time>
      </trkpt>
      <trkpt lat="47.55866" lon="-2.1599">
        <ele>29.1</ele>
        <time>2021-08-14T07:24:56Z</time>
      </trkpt>
      <trkpt lat="47.55863" lon="-2.15985">
        <ele>29.3</ele>
        <time>2021-08-14T07:24:58Z</time>
      </trkpt>
      <trkpt lat="47.55861" lon="-2.15982">
        <ele>29.4</ele>
        <time>2021-08-14T07:24:59Z</time>
      </trkpt>
      <trkpt lat="47.5586" lon="-2.1598">
        <ele>29.5</ele>
        <time>2021-08-14T07:25:00Z</time>
      </trkpt>
      <trkpt lat="47.55859" lon="-2.15975">
        <ele>29.7</ele>
        <time>2021-08-14T07:25:02Z</time>
      </trkpt>
      <trkpt lat="47.55859" lon="-2.1597">
        <ele>29.9</ele>
        <time>2021-08-14T07:25:03Z</time>
      </trkpt>
      <trkpt lat="47.55859" lon="-2.15969">
        <ele>29.9</ele>
        <time>2021-08-14T07:25:04Z</time>
      </trkpt>
      <trkpt lat="47.55858" lon="-2.15966">
        <ele>30</ele>
        <time>2021-08-14T07:25:05Z</time>
      </trkpt>
      <trkpt lat="47.55858" lon="-2.15964">
        <ele>30.1</ele>
        <time>2021-08-14T07:25:06Z</time>
      </trkpt>
      <trkpt lat="47.55858" lon="-2.15963">
        <ele>30.2</ele>
        <time>2021-08-14T07:25:07Z</time>
      </trkpt>
      <trkpt lat="47.55856" lon="-2.15958">
        <ele>30.3</ele>
        <time>2021-08-14T07:25:09Z</time>
      </trkpt>
      <trkpt lat="47.55854" lon="-2.15954">
        <ele>30.5</ele>
        <time>2021-08-14T07:25:11Z</time>
      </trkpt>
      <trkpt lat="47.55852" lon="-2.15951">
        <ele>30.6</ele>
        <time>2021-08-14T07:25:12Z</time>
      </trkpt>
      <trkpt lat="47.55851" lon="-2.15948">
        <ele>30.8</ele>
        <time>2021-08-14T07:25:14Z</time>
      </trkpt>
      <trkpt lat="47.5585" lon="-2.15943">
        <ele>30.9</ele>
        <time>2021-08-14T07:25:15Z</time>
      </trkpt>
      <trkpt lat="47.5585" lon="-2.15941">
        <ele>31</ele>
        <time>2021-08-14T07:25:16Z</time>
      </trkpt>
      <trkpt lat="47.5585" lon="-2.15938">
        <ele>31.1</ele>
        <time>2021-08-14T07:25:17Z</time>
      </trkpt>
      <trkpt lat="47.55851" lon="-2.15936">
        <ele>31.2</ele>
        <time>2021-08-14T07:25:18Z</time>
      </trkpt>
      <trkpt lat="47.55851" lon="-2.15931">
        <ele>31.3</ele>
        <time>2021-08-14T07:25:20Z</time>
      </trkpt>
      <trkpt lat="47.55851" lon="-2.1593">
        <ele>31.4</ele>
        <time>2021-08-14T07:25:21Z</time>
      </trkpt>
      <trkpt lat="47.55851" lon="-2.15927">
        <ele>31.5</ele>
        <time>2021-08-14T07:25:22Z</time>
      </trkpt>
      <trkpt lat="47.55849" lon="-2.15922">
        <ele>31.7</ele>
        <time>2021-08-14T07:25:24Z</time>
      </trkpt>
      <trkpt lat="47.55847" lon="-2.15917">
        <ele>32</ele>
        <time>2021-08-14T07:25:25Z</time>
      </trkpt>
      <trkpt lat="47.55847" lon="-2.15916">
        <ele>32</ele>
        <time>2021-08-14T07:25:26Z</time>
      </trkpt>
      <trkpt lat="47.55846" lon="-2.15913">
        <ele>32.2</ele>
        <time>2021-08-14T07:25:27Z</time>
      </trkpt>
      <trkpt lat="47.55844" lon="-2.15909">
        <ele>32.4</ele>
        <time>2021-08-14T07:25:29Z</time>
      </trkpt>
      <trkpt lat="47.55844" lon="-2.15906">
        <ele>32.5</ele>
        <time>2021-08-14T07:25:30Z</time>
      </trkpt>
      <trkpt lat="47.55843" lon="-2.15904">
        <ele>32.6</ele>
        <time>2021-08-14T07:25:32Z</time>
      </trkpt>
      <trkpt lat="47.55842" lon="-2.159">
        <ele>32.9</ele>
        <time>2021-08-14T07:25:33Z</time>
      </trkpt>
      <trkpt lat="47.55842" lon="-2.15898">
        <ele>32.9</ele>
        <time>2021-08-14T07:25:34Z</time>
      </trkpt>
      <trkpt lat="47.55842" lon="-2.15894">
        <ele>33.2</ele>
        <time>2021-08-14T07:25:36Z</time>
      </trkpt>
      <trkpt lat="47.55842" lon="-2.1589">
        <ele>33.4</ele>
        <time>2021-08-14T07:25:37Z</time>
      </trkpt>
      <trkpt lat="47.55843" lon="-2.15886">
        <ele>33.6</ele>
        <time>2021-08-14T07:25:38Z</time>
      </trkpt>
      <trkpt lat="47.55844" lon="-2.15884">
        <ele>33.8</ele>
        <time>2021-08-14T07:25:40Z</time>
      </trkpt>
      <trkpt lat="47.55845" lon="-2.15881">
        <ele>34</ele>
        <time>2021-08-14T07:25:41Z</time>
      </trkpt>
      <trkpt lat="47.55845" lon="-2.1588">
        <ele>34</ele>
        <time>2021-08-14T07:25:42Z</time>
      </trkpt>
      <trkpt lat="47.55846" lon="-2.15879">
        <ele>34.1</ele>
        <time>2021-08-14T07:25:43Z</time>
      </trkpt>
      <trkpt lat="47.55846" lon="-2.15878">
        <ele>34.2</ele>
        <time>2021-08-14T07:25:44Z</time>
      </trkpt>
      <trkpt lat="47.55847" lon="-2.15875">
        <ele>34.4</ele>
        <time>2021-08-14T07:25:46Z</time>
      </trkpt>
      <trkpt lat="47.55847" lon="-2.15872">
        <ele>34.6</ele>
        <time>2021-08-14T07:25:47Z</time>
      </trkpt>
      <trkpt lat="47.55846" lon="-2.15868">
        <ele>34.8</ele>
        <time>2021-08-14T07:25:49Z</time>
      </trkpt>
      <trkpt lat="47.55846" lon="-2.15864">
        <ele>35.1</ele>
        <time>2021-08-14T07:25:50Z</time>
      </trkpt>
      <trkpt lat="47.55846" lon="-2.15863">
        <ele>35.1</ele>
        <time>2021-08-14T07:25:51Z</time>
      </trkpt>
      <trkpt lat="47.55847" lon="-2.15855">
        <ele>35.5</ele>
        <time>2021-08-14T07:25:53Z</time>
      </trkpt>
      <trkpt lat="47.55847" lon="-2.15855">
        <ele>35.5</ele>
        <time>2021-08-14T07:25:55Z</time>
      </trkpt>
      <trkpt lat="47.55848" lon="-2.15852">
        <ele>35.6</ele>
        <time>2021-08-14T07:25:56Z</time>
      </trkpt>
      <trkpt lat="47.5585" lon="-2.15845">
        <ele>35.8</ele>
        <time>2021-08-14T07:25:58Z</time>
      </trkpt>
      <trkpt lat="47.5585" lon="-2.1584">
        <ele>35.9</ele>
        <time>2021-08-14T07:25:59Z</time>
      </trkpt>
      <trkpt lat="47.55847" lon="-2.15837">
        <ele>35.9</ele>
        <time>2021-08-14T07:26:01Z</time>
      </trkpt>
      <trkpt lat="47.55845" lon="-2.15835">
        <ele>35.9</ele>
        <time>2021-08-14T07:26:02Z</time>
      </trkpt>
      <trkpt lat="47.5584" lon="-2.15832">
        <ele>35.9</ele>
        <time>2021-08-14T07:26:04Z</time>
      </trkpt>
      <trkpt lat="47.55837" lon="-2.15828">
        <ele>35.9</ele>
        <time>2021-08-14T07:26:06Z</time>
      </trkpt>
      <trkpt lat="47.55837" lon="-2.15827">
        <ele>35.9</ele>
        <time>2021-08-14T07:26:07Z</time>
      </trkpt>
      <trkpt lat="47.55835" lon="-2.15823">
        <ele>36</ele>
        <time>2021-08-14T07:26:08Z</time>
      </trkpt>
      <trkpt lat="47.55834" lon="-2.15823">
        <ele>36</ele>
        <time>2021-08-14T07:26:09Z</time>
      </trkpt>
      <trkpt lat="47.55831" lon="-2.15819">
        <ele>36</ele>
        <time>2021-08-14T07:26:11Z</time>
      </trkpt>
      <trkpt lat="47.55831" lon="-2.15818">
        <ele>36</ele>
        <time>2021-08-14T07:26:12Z</time>
      </trkpt>
      <trkpt lat="47.55831" lon="-2.15813">
        <ele>36.1</ele>
        <time>2021-08-14T07:26:13Z</time>
      </trkpt>
      <trkpt lat="47.55831" lon="-2.15811">
        <ele>36.1</ele>
        <time>2021-08-14T07:26:14Z</time>
      </trkpt>
      <trkpt lat="47.55833" lon="-2.15808">
        <ele>36.2</ele>
        <time>2021-08-14T07:26:16Z</time>
      </trkpt>
      <trkpt lat="47.55835" lon="-2.15803">
        <ele>36.4</ele>
        <time>2021-08-14T07:26:17Z</time>
      </trkpt>
      <trkpt lat="47.55836" lon="-2.15801">
        <ele>36.4</ele>
        <time>2021-08-14T07:26:18Z</time>
      </trkpt>
      <trkpt lat="47.55837" lon="-2.15799">
        <ele>36.5</ele>
        <time>2021-08-14T07:26:20Z</time>
      </trkpt>
      <trkpt lat="47.55838" lon="-2.15798">
        <ele>36.6</ele>
        <time>2021-08-14T07:26:21Z</time>
      </trkpt>
      <trkpt lat="47.55839" lon="-2.15797">
        <ele>36.6</ele>
        <time>2021-08-14T07:26:22Z</time>
      </trkpt>
      <trkpt lat="47.55841" lon="-2.15795">
        <ele>36.7</ele>
        <time>2021-08-14T07:26:24Z</time>
      </trkpt>
      <trkpt lat="47.55843" lon="-2.15795">
        <ele>36.8</ele>
        <time>2021-08-14T07:26:25Z</time>
      </trkpt>
      <trkpt lat="47.55846" lon="-2.15793">
        <ele>36.9</ele>
        <time>2021-08-14T07:26:27Z</time>
      </trkpt>
      <trkpt lat="47.55846" lon="-2.15791">
        <ele>37</ele>
        <time>2021-08-14T07:26:28Z</time>
      </trkpt>
      <trkpt lat="47.55846" lon="-2.15787">
        <ele>37.1</ele>
        <time>2021-08-14T07:26:30Z</time>
      </trkpt>
      <trkpt lat="47.55846" lon="-2.15782">
        <ele>37.2</ele>
        <time>2021-08-14T07:26:31Z</time>
      </trkpt>
      <trkpt lat="47.55847" lon="-2.15778">
        <ele>37.3</ele>
        <time>2021-08-14T07:26:32Z</time>
      </trkpt>
      <trkpt lat="47.55849" lon="-2.15775">
        <ele>37.4</ele>
        <time>2021-08-14T07:26:33Z</time>
      </trkpt>
      <trkpt lat="47.55853" lon="-2.15774">
        <ele>37.5</ele>
        <time>2021-08-14T07:26:35Z</time>
      </trkpt>
      <trkpt lat="47.55856" lon="-2.15773">
        <ele>37.5</ele>
        <time>2021-08-14T07:26:36Z</time>
      </trkpt>
      <trkpt lat="47.55857" lon="-2.15772">
        <ele>37.5</ele>
        <time>2021-08-14T07:26:37Z</time>
      </trkpt>
      <trkpt lat="47.55859" lon="-2.15768">
        <ele>37.6</ele>
        <time>2021-08-14T07:26:38Z</time>
      </trkpt>
      <trkpt lat="47.55861" lon="-2.15767">
        <ele>37.6</ele>
        <time>2021-08-14T07:26:40Z</time>
      </trkpt>
      <trkpt lat="47.55863" lon="-2.15765">
        <ele>37.7</ele>
        <time>2021-08-14T07:26:42Z</time>
      </trkpt>
      <trkpt lat="47.55866" lon="-2.15762">
        <ele>37.7</ele>
        <time>2021-08-14T07:26:43Z</time>
      </trkpt>
      <trkpt lat="47.55867" lon="-2.15762">
        <ele>37.7</ele>
        <time>2021-08-14T07:26:44Z</time>
      </trkpt>
      <trkpt lat="47.55872" lon="-2.15761">
        <ele>37.8</ele>
        <time>2021-08-14T07:26:46Z</time>
      </trkpt>
      <trkpt lat="47.55874" lon="-2.15759">
        <ele>37.8</ele>
        <time>2021-08-14T07:26:47Z</time>
      </trkpt>
      <trkpt lat="47.55878" lon="-2.15758">
        <ele>37.9</ele>
        <time>2021-08-14T07:26:48Z</time>
      </trkpt>
      <trkpt lat="47.55879" lon="-2.15757">
        <ele>37.9</ele>
        <time>2021-08-14T07:26:49Z</time>
      </trkpt>
      <trkpt lat="47.55883" lon="-2.15757">
        <ele>38</ele>
        <time>2021-08-14T07:26:51Z</time>
      </trkpt>
      <trkpt lat="47.55884" lon="-2.15759">
        <ele>38</ele>
        <time>2021-08-14T07:26:52Z</time>
      </trkpt>
      <trkpt lat="47.55887" lon="-2.15761">
        <ele>38</ele>
        <time>2021-08-14T07:26:54Z</time>
      </trkpt>
      <trkpt lat="47.55888" lon="-2.15766">
        <ele>38.1</ele>
        <time>2021-08-14T07:26:56Z</time>
      </trkpt>
      <trkpt lat="47.5589" lon="-2.15768">
        <ele>38.1</ele>
        <time>2021-08-14T07:26:57Z</time>
      </trkpt>
      <trkpt lat="47.55892" lon="-2.15772">
        <ele>38.2</ele>
        <time>2021-08-14T07:26:59Z</time>
      </trkpt>
      <trkpt lat="47.55894" lon="-2.15774">
        <ele>38.2</ele>
        <time>2021-08-14T07:27:00Z</time>
      </trkpt>
      <trkpt lat="47.55896" lon="-2.15778">
        <ele>38.2</ele>
        <time>2021-08-14T07:27:01Z</time>
      </trkpt>
      <trkpt lat="47.55899" lon="-2.15782">
        <ele>38.2</ele>
        <time>2021-08-14T07:27:03Z</time>
      </trkpt>
      <trkpt lat="47.55902" lon="-2.15783">
        <ele>38.3</ele>
        <time>2021-08-14T07:27:04Z</time>
      </trkpt>
      <trkpt lat="47.55905" lon="-2.15783">
        <ele>38.3</ele>
        <time>2021-08-14T07:27:05Z</time>
      </trkpt>
      <trkpt lat="47.55909" lon="-2.15784">
        <ele>38.3</ele>
        <time>2021-08-14T07:27:07Z</time>
      </trkpt>
      <trkpt lat="47.55913" lon="-2.15784">
        <ele>38.2</ele>
        <time>2021-08-14T07:27:08Z</time>
      </trkpt>
      <trkpt lat="47.55917" lon="-2.15784">
        <ele>38.2</ele>
        <time>2021-08-14T07:27:09Z</time>
      </trkpt>
      <trkpt lat="47.5592" lon="-2.15785">
        <ele>38.2</ele>
        <time>2021-08-14T07:27:10Z</time>
      </trkpt>
      <trkpt lat="47.55923" lon="-2.15787">
        <ele>38.1</ele>
        <time>2021-08-14T07:27:12Z</time>
      </trkpt>
      <trkpt lat="47.55925" lon="-2.15788">
        <ele>38</ele>
        <time>2021-08-14T07:27:13Z</time>
      </trkpt>
      <trkpt lat="47.55928" lon="-2.15791">
        <ele>38</ele>
        <time>2021-08-14T07:27:14Z</time>
      </trkpt>
      <trkpt lat="47.5593" lon="-2.15793">
        <ele>37.9</ele>
        <time>2021-08-14T07:27:15Z</time>
      </trkpt>
      <trkpt lat="47.55933" lon="-2.15794">
        <ele>37.8</ele>
        <time>2021-08-14T07:27:17Z</time>
      </trkpt>
      <trkpt lat="47.55936" lon="-2.15796">
        <ele>37.8</ele>
        <time>2021-08-14T07:27:18Z</time>
      </trkpt>
      <trkpt lat="47.55939" lon="-2.15796">
        <ele>37.7</ele>
        <time>2021-08-14T07:27:19Z</time>
      </trkpt>
      <trkpt lat="47.55942" lon="-2.15798">
        <ele>37.6</ele>
        <time>2021-08-14T07:27:21Z</time>
      </trkpt>
      <trkpt lat="47.55944" lon="-2.15799">
        <ele>37.5</ele>
        <time>2021-08-14T07:27:22Z</time>
      </trkpt>
      <trkpt lat="47.55948" lon="-2.15803">
        <ele>37.4</ele>
        <time>2021-08-14T07:27:24Z</time>
      </trkpt>
      <trkpt lat="47.55951" lon="-2.15805">
        <ele>37.3</ele>
        <time>2021-08-14T07:27:25Z</time>
      </trkpt>
      <trkpt lat="47.55953" lon="-2.15806">
        <ele>37.2</ele>
        <time>2021-08-14T07:27:26Z</time>
      </trkpt>
      <trkpt lat="47.55956" lon="-2.15805">
        <ele>37</ele>
        <time>2021-08-14T07:27:27Z</time>
      </trkpt>
      <trkpt lat="47.55958" lon="-2.15802">
        <ele>36.9</ele>
        <time>2021-08-14T07:27:28Z</time>
      </trkpt>
      <trkpt lat="47.55962" lon="-2.15801">
        <ele>36.8</ele>
        <time>2021-08-14T07:27:30Z</time>
      </trkpt>
      <trkpt lat="47.55965" lon="-2.15803">
        <ele>36.6</ele>
        <time>2021-08-14T07:27:31Z</time>
      </trkpt>
      <trkpt lat="47.55969" lon="-2.15805">
        <ele>36.4</ele>
        <time>2021-08-14T07:27:33Z</time>
      </trkpt>
      <trkpt lat="47.55972" lon="-2.15807">
        <ele>36.2</ele>
        <time>2021-08-14T07:27:34Z</time>
      </trkpt>
      <trkpt lat="47.55975" lon="-2.15809">
        <ele>36</ele>
        <time>2021-08-14T07:27:35Z</time>
      </trkpt>
      <trkpt lat="47.55981" lon="-2.15812">
        <ele>35.7</ele>
        <time>2021-08-14T07:27:37Z</time>
      </trkpt>
      <trkpt lat="47.55987" lon="-2.15816">
        <ele>35.4</ele>
        <time>2021-08-14T07:27:39Z</time>
      </trkpt>
      <trkpt lat="47.55992" lon="-2.15819">
        <ele>35.1</ele>
        <time>2021-08-14T07:27:41Z</time>
      </trkpt>
      <trkpt lat="47.55997" lon="-2.15822">
        <ele>34.8</ele>
        <time>2021-08-14T07:27:42Z</time>
      </trkpt>
      <trkpt lat="47.56001" lon="-2.15823">
        <ele>34.6</ele>
        <time>2021-08-14T07:27:43Z</time>
      </trkpt>
      <trkpt lat="47.56005" lon="-2.15824">
        <ele>34.4</ele>
        <time>2021-08-14T07:27:44Z</time>
      </trkpt>
      <trkpt lat="47.56009" lon="-2.15825">
        <ele>34.2</ele>
        <time>2021-08-14T07:27:46Z</time>
      </trkpt>
      <trkpt lat="47.56014" lon="-2.15827">
        <ele>33.9</ele>
        <time>2021-08-14T07:27:47Z</time>
      </trkpt>
      <trkpt lat="47.56018" lon="-2.15828">
        <ele>33.6</ele>
        <time>2021-08-14T07:27:48Z</time>
      </trkpt>
      <trkpt lat="47.56023" lon="-2.15829">
        <ele>33.3</ele>
        <time>2021-08-14T07:27:49Z</time>
      </trkpt>
      <trkpt lat="47.56031" lon="-2.1583">
        <ele>32.8</ele>
        <time>2021-08-14T07:27:51Z</time>
      </trkpt>
      <trkpt lat="47.56035" lon="-2.15832">
        <ele>32.5</ele>
        <time>2021-08-14T07:27:52Z</time>
      </trkpt>
      <trkpt lat="47.56039" lon="-2.15834">
        <ele>32.1</ele>
        <time>2021-08-14T07:27:53Z</time>
      </trkpt>
      <trkpt lat="47.56048" lon="-2.15838">
        <ele>31.4</ele>
        <time>2021-08-14T07:27:55Z</time>
      </trkpt>
      <trkpt lat="47.56057" lon="-2.15843">
        <ele>30.6</ele>
        <time>2021-08-14T07:27:56Z</time>
      </trkpt>
      <trkpt lat="47.56069" lon="-2.15849">
        <ele>29.5</ele>
        <time>2021-08-14T07:27:58Z</time>
      </trkpt>
      <trkpt lat="47.56082" lon="-2.15852">
        <ele>28.5</ele>
        <time>2021-08-14T07:28:00Z</time>
      </trkpt>
      <trkpt lat="47.56094" lon="-2.15856">
        <ele>27.5</ele>
        <time>2021-08-14T07:28:02Z</time>
      </trkpt>
      <trkpt lat="47.56101" lon="-2.15857">
        <ele>27.1</ele>
        <time>2021-08-14T07:28:03Z</time>
      </trkpt>
      <trkpt lat="47.56111" lon="-2.15859">
        <ele>26.7</ele>
        <time>2021-08-14T07:28:05Z</time>
      </trkpt>
      <trkpt lat="47.56116" lon="-2.15859">
        <ele>26.5</ele>
        <time>2021-08-14T07:28:06Z</time>
      </trkpt>
      <trkpt lat="47.56121" lon="-2.1586">
        <ele>26.4</ele>
        <time>2021-08-14T07:28:07Z</time>
      </trkpt>
      <trkpt lat="47.56129" lon="-2.15863">
        <ele>26.4</ele>
        <time>2021-08-14T07:28:09Z</time>
      </trkpt>
      <trkpt lat="47.56132" lon="-2.15867">
        <ele>26.4</ele>
        <time>2021-08-14T07:28:10Z</time>
      </trkpt>
      <trkpt lat="47.56136" lon="-2.15868">
        <ele>26.4</ele>
        <time>2021-08-14T07:28:11Z</time>
      </trkpt>
      <trkpt lat="47.56142" lon="-2.15868">
        <ele>26.3</ele>
        <time>2021-08-14T07:28:13Z</time>
      </trkpt>
      <trkpt lat="47.56147" lon="-2.15867">
        <ele>26.3</ele>
        <time>2021-08-14T07:28:15Z</time>
      </trkpt>
      <trkpt lat="47.56152" lon="-2.15867">
        <ele>26.3</ele>
        <time>2021-08-14T07:28:16Z</time>
      </trkpt>
      <trkpt lat="47.56157" lon="-2.15868">
        <ele>26.3</ele>
        <time>2021-08-14T07:28:18Z</time>
      </trkpt>
      <trkpt lat="47.5616" lon="-2.15868">
        <ele>26.3</ele>
        <time>2021-08-14T07:28:19Z</time>
      </trkpt>
      <trkpt lat="47.56164" lon="-2.15868">
        <ele>26.2</ele>
        <time>2021-08-14T07:28:20Z</time>
      </trkpt>
      <trkpt lat="47.56165" lon="-2.15868">
        <ele>26.2</ele>
        <time>2021-08-14T07:28:21Z</time>
      </trkpt>
      <trkpt lat="47.56166" lon="-2.15868">
        <ele>26.1</ele>
        <time>2021-08-14T07:28:22Z</time>
      </trkpt>
      <trkpt lat="47.56169" lon="-2.15868">
        <ele>26</ele>
        <time>2021-08-14T07:28:24Z</time>
      </trkpt>
      <trkpt lat="47.5617" lon="-2.15866">
        <ele>25.9</ele>
        <time>2021-08-14T07:28:25Z</time>
      </trkpt>
      <trkpt lat="47.56171" lon="-2.15865">
        <ele>25.8</ele>
        <time>2021-08-14T07:28:27Z</time>
      </trkpt>
      <trkpt lat="47.56172" lon="-2.15864">
        <ele>25.8</ele>
        <time>2021-08-14T07:28:28Z</time>
      </trkpt>
      <trkpt lat="47.56176" lon="-2.15864">
        <ele>25.4</ele>
        <time>2021-08-14T07:28:30Z</time>
      </trkpt>
      <trkpt lat="47.5618" lon="-2.15865">
        <ele>25</ele>
        <time>2021-08-14T07:28:31Z</time>
      </trkpt>
      <trkpt lat="47.56183" lon="-2.15865">
        <ele>24.6</ele>
        <time>2021-08-14T07:28:33Z</time>
      </trkpt>
      <trkpt lat="47.56186" lon="-2.15863">
        <ele>21.1</ele>
        <time>2021-08-14T07:28:34Z</time>
      </trkpt>
      <trkpt lat="47.56188" lon="-2.15862">
        <ele>21.1</ele>
        <time>2021-08-14T07:28:35Z</time>
      </trkpt>
      <trkpt lat="47.5619" lon="-2.15856">
        <ele>21.1</ele>
        <time>2021-08-14T07:28:37Z</time>
      </trkpt>
      <trkpt lat="47.56195" lon="-2.15851">
        <ele>19.5</ele>
        <time>2021-08-14T07:28:39Z</time>
      </trkpt>
      <trkpt lat="47.56199" lon="-2.15849">
        <ele>19.5</ele>
        <time>2021-08-14T07:28:41Z</time>
      </trkpt>
      <trkpt lat="47.562" lon="-2.15844">
        <ele>19.5</ele>
        <time>2021-08-14T07:28:42Z</time>
      </trkpt>
      <trkpt lat="47.56199" lon="-2.15838">
        <ele>27.4</ele>
        <time>2021-08-14T07:28:44Z</time>
      </trkpt>
      <trkpt lat="47.56199" lon="-2.15837">
        <ele>27.4</ele>
        <time>2021-08-14T07:28:45Z</time>
      </trkpt>
      <trkpt lat="47.56199" lon="-2.15832">
        <ele>27.3</ele>
        <time>2021-08-14T07:28:46Z</time>
      </trkpt>
      <trkpt lat="47.56199" lon="-2.15831">
        <ele>27.3</ele>
        <time>2021-08-14T07:28:47Z</time>
      </trkpt>
      <trkpt lat="47.56197" lon="-2.15826">
        <ele>27.3</ele>
        <time>2021-08-14T07:28:49Z</time>
      </trkpt>
      <trkpt lat="47.56197" lon="-2.15825">
        <ele>27.3</ele>
        <time>2021-08-14T07:28:50Z</time>
      </trkpt>
      <trkpt lat="47.56196" lon="-2.15821">
        <ele>27.3</ele>
        <time>2021-08-14T07:28:51Z</time>
      </trkpt>
      <trkpt lat="47.56196" lon="-2.15819">
        <ele>27.3</ele>
        <time>2021-08-14T07:28:52Z</time>
      </trkpt>
      <trkpt lat="47.56197" lon="-2.15819">
        <ele>27.3</ele>
        <time>2021-08-14T07:28:54Z</time>
      </trkpt>
      <trkpt lat="47.56196" lon="-2.15817">
        <ele>27.3</ele>
        <time>2021-08-14T07:28:55Z</time>
      </trkpt>
      <trkpt lat="47.56196" lon="-2.15814">
        <ele>27.3</ele>
        <time>2021-08-14T07:28:56Z</time>
      </trkpt>
      <trkpt lat="47.56195" lon="-2.1581">
        <ele>27.4</ele>
        <time>2021-08-14T07:28:57Z</time>
      </trkpt>
      <trkpt lat="47.56195" lon="-2.15808">
        <ele>27.4</ele>
        <time>2021-08-14T07:28:58Z</time>
      </trkpt>
      <trkpt lat="47.56194" lon="-2.15805">
        <ele>27.5</ele>
        <time>2021-08-14T07:29:00Z</time>
      </trkpt>
      <trkpt lat="47.56194" lon="-2.15804">
        <ele>27.5</ele>
        <time>2021-08-14T07:29:01Z</time>
      </trkpt>
      <trkpt lat="47.56193" lon="-2.15801">
        <ele>27.6</ele>
        <time>2021-08-14T07:29:02Z</time>
      </trkpt>
      <trkpt lat="47.56192" lon="-2.15799">
        <ele>27.6</ele>
        <time>2021-08-14T07:29:04Z</time>
      </trkpt>
      <trkpt lat="47.56191" lon="-2.15797">
        <ele>27.7</ele>
        <time>2021-08-14T07:29:05Z</time>
      </trkpt>
      <trkpt lat="47.5619" lon="-2.15796">
        <ele>27.7</ele>
        <time>2021-08-14T07:29:06Z</time>
      </trkpt>
      <trkpt lat="47.5619" lon="-2.15794">
        <ele>27.8</ele>
        <time>2021-08-14T07:29:07Z</time>
      </trkpt>
      <trkpt lat="47.56189" lon="-2.15791">
        <ele>27.9</ele>
        <time>2021-08-14T07:29:08Z</time>
      </trkpt>
      <trkpt lat="47.56189" lon="-2.15789">
        <ele>27.9</ele>
        <time>2021-08-14T07:29:09Z</time>
      </trkpt>
      <trkpt lat="47.56187" lon="-2.15786">
        <ele>28.1</ele>
        <time>2021-08-14T07:29:11Z</time>
      </trkpt>
      <trkpt lat="47.56187" lon="-2.15784">
        <ele>28.1</ele>
        <time>2021-08-14T07:29:12Z</time>
      </trkpt>
      <trkpt lat="47.56187" lon="-2.15779">
        <ele>28.3</ele>
        <time>2021-08-14T07:29:14Z</time>
      </trkpt>
      <trkpt lat="47.56186" lon="-2.15777">
        <ele>28.4</ele>
        <time>2021-08-14T07:29:15Z</time>
      </trkpt>
      <trkpt lat="47.56186" lon="-2.15771">
        <ele>28.6</ele>
        <time>2021-08-14T07:29:17Z</time>
      </trkpt>
      <trkpt lat="47.56185" lon="-2.15768">
        <ele>28.8</ele>
        <time>2021-08-14T07:29:19Z</time>
      </trkpt>
      <trkpt lat="47.56185" lon="-2.15766">
        <ele>28.9</ele>
        <time>2021-08-14T07:29:20Z</time>
      </trkpt>
      <trkpt lat="47.56185" lon="-2.15764">
        <ele>29</ele>
        <time>2021-08-14T07:29:21Z</time>
      </trkpt>
      <trkpt lat="47.56184" lon="-2.15762">
        <ele>29.2</ele>
        <time>2021-08-14T07:29:22Z</time>
      </trkpt>
      <trkpt lat="47.56184" lon="-2.15759">
        <ele>29.4</ele>
        <time>2021-08-14T07:29:23Z</time>
      </trkpt>
      <trkpt lat="47.56184" lon="-2.15752">
        <ele>29.9</ele>
        <time>2021-08-14T07:29:25Z</time>
      </trkpt>
      <trkpt lat="47.56184" lon="-2.15749">
        <ele>30.2</ele>
        <time>2021-08-14T07:29:26Z</time>
      </trkpt>
      <trkpt lat="47.56184" lon="-2.15746">
        <ele>30.4</ele>
        <time>2021-08-14T07:29:28Z</time>
      </trkpt>
      <trkpt lat="47.56185" lon="-2.15743">
        <ele>30.7</ele>
        <time>2021-08-14T07:29:29Z</time>
      </trkpt>
      <trkpt lat="47.56186" lon="-2.15738">
        <ele>31.1</ele>
        <time>2021-08-14T07:29:31Z</time>
      </trkpt>
      <trkpt lat="47.56186" lon="-2.15736">
        <ele>31.2</ele>
        <time>2021-08-14T07:29:33Z</time>
      </trkpt>
      <trkpt lat="47.56187" lon="-2.15734">
        <ele>31.4</ele>
        <time>2021-08-14T07:29:34Z</time>
      </trkpt>
      <trkpt lat="47.56187" lon="-2.15732">
        <ele>31.6</ele>
        <time>2021-08-14T07:29:35Z</time>
      </trkpt>
      <trkpt lat="47.56188" lon="-2.15728">
        <ele>31.9</ele>
        <time>2021-08-14T07:29:37Z</time>
      </trkpt>
      <trkpt lat="47.56189" lon="-2.15724">
        <ele>32.2</ele>
        <time>2021-08-14T07:29:38Z</time>
      </trkpt>
      <trkpt lat="47.5619" lon="-2.1572">
        <ele>32.5</ele>
        <time>2021-08-14T07:29:40Z</time>
      </trkpt>
      <trkpt lat="47.5619" lon="-2.15719">
        <ele>32.6</ele>
        <time>2021-08-14T07:29:41Z</time>
      </trkpt>
      <trkpt lat="47.5619" lon="-2.15716">
        <ele>32.7</ele>
        <time>2021-08-14T07:29:42Z</time>
      </trkpt>
      <trkpt lat="47.5619" lon="-2.15711">
        <ele>33.1</ele>
        <time>2021-08-14T07:29:44Z</time>
      </trkpt>
      <trkpt lat="47.56189" lon="-2.15707">
        <ele>33.4</ele>
        <time>2021-08-14T07:29:45Z</time>
      </trkpt>
      <trkpt lat="47.56189" lon="-2.15706">
        <ele>33.5</ele>
        <time>2021-08-14T07:29:46Z</time>
      </trkpt>
      <trkpt lat="47.56188" lon="-2.15701">
        <ele>33.8</ele>
        <time>2021-08-14T07:29:48Z</time>
      </trkpt>
      <trkpt lat="47.56187" lon="-2.15697">
        <ele>34.1</ele>
        <time>2021-08-14T07:29:49Z</time>
      </trkpt>
      <trkpt lat="47.56187" lon="-2.15693">
        <ele>34.3</ele>
        <time>2021-08-14T07:29:50Z</time>
      </trkpt>
      <trkpt lat="47.56186" lon="-2.15688">
        <ele>34.6</ele>
        <time>2021-08-14T07:29:52Z</time>
      </trkpt>
      <trkpt lat="47.56186" lon="-2.15684">
        <ele>34.9</ele>
        <time>2021-08-14T07:29:54Z</time>
      </trkpt>
      <trkpt lat="47.56187" lon="-2.15679">
        <ele>35.2</ele>
        <time>2021-08-14T07:29:55Z</time>
      </trkpt>
      <trkpt lat="47.56187" lon="-2.15674">
        <ele>35.5</ele>
        <time>2021-08-14T07:29:57Z</time>
      </trkpt>
      <trkpt lat="47.56187" lon="-2.1567">
        <ele>35.7</ele>
        <time>2021-08-14T07:29:59Z</time>
      </trkpt>
      <trkpt lat="47.56186" lon="-2.15667">
        <ele>35.9</ele>
        <time>2021-08-14T07:30:00Z</time>
      </trkpt>
      <trkpt lat="47.56184" lon="-2.15662">
        <ele>36.1</ele>
        <time>2021-08-14T07:30:02Z</time>
      </trkpt>
      <trkpt lat="47.56182" lon="-2.15657">
        <ele>36.4</ele>
        <time>2021-08-14T07:30:03Z</time>
      </trkpt>
      <trkpt lat="47.5618" lon="-2.15655">
        <ele>36.6</ele>
        <time>2021-08-14T07:30:04Z</time>
      </trkpt>
      <trkpt lat="47.5618" lon="-2.15655">
        <ele>36.6</ele>
        <time>2021-08-14T07:30:06Z</time>
      </trkpt>
      <trkpt lat="47.5618" lon="-2.15653">
        <ele>36.7</ele>
        <time>2021-08-14T07:30:07Z</time>
      </trkpt>
      <trkpt lat="47.56179" lon="-2.15651">
        <ele>36.8</ele>
        <time>2021-08-14T07:30:08Z</time>
      </trkpt>
      <trkpt lat="47.56178" lon="-2.15649">
        <ele>36.9</ele>
        <time>2021-08-14T07:30:09Z</time>
      </trkpt>
      <trkpt lat="47.56177" lon="-2.15646">
        <ele>37.1</ele>
        <time>2021-08-14T07:30:11Z</time>
      </trkpt>
      <trkpt lat="47.56176" lon="-2.15644">
        <ele>37.2</ele>
        <time>2021-08-14T07:30:12Z</time>
      </trkpt>
      <trkpt lat="47.56174" lon="-2.15641">
        <ele>37.4</ele>
        <time>2021-08-14T07:30:14Z</time>
      </trkpt>
      <trkpt lat="47.56173" lon="-2.15636">
        <ele>37.7</ele>
        <time>2021-08-14T07:30:16Z</time>
      </trkpt>
      <trkpt lat="47.56171" lon="-2.15633">
        <ele>38</ele>
        <time>2021-08-14T07:30:17Z</time>
      </trkpt>
      <trkpt lat="47.56171" lon="-2.15631">
        <ele>38.1</ele>
        <time>2021-08-14T07:30:19Z</time>
      </trkpt>
      <trkpt lat="47.5617" lon="-2.15626">
        <ele>38.4</ele>
        <time>2021-08-14T07:30:20Z</time>
      </trkpt>
      <trkpt lat="47.56169" lon="-2.15625">
        <ele>38.5</ele>
        <time>2021-08-14T07:30:21Z</time>
      </trkpt>
      <trkpt lat="47.56168" lon="-2.15621">
        <ele>38.8</ele>
        <time>2021-08-14T07:30:23Z</time>
      </trkpt>
      <trkpt lat="47.56168" lon="-2.15619">
        <ele>38.9</ele>
        <time>2021-08-14T07:30:24Z</time>
      </trkpt>
      <trkpt lat="47.56167" lon="-2.15617">
        <ele>38.9</ele>
        <time>2021-08-14T07:30:25Z</time>
      </trkpt>
      <trkpt lat="47.56168" lon="-2.15613">
        <ele>38.9</ele>
        <time>2021-08-14T07:30:26Z</time>
      </trkpt>
      <trkpt lat="47.56168" lon="-2.1561">
        <ele>39</ele>
        <time>2021-08-14T07:30:28Z</time>
      </trkpt>
      <trkpt lat="47.56169" lon="-2.15609">
        <ele>39</ele>
        <time>2021-08-14T07:30:29Z</time>
      </trkpt>
      <trkpt lat="47.56169" lon="-2.15608">
        <ele>39</ele>
        <time>2021-08-14T07:30:31Z</time>
      </trkpt>
      <trkpt lat="47.56171" lon="-2.15606">
        <ele>39.3</ele>
        <time>2021-08-14T07:30:33Z</time>
      </trkpt>
      <trkpt lat="47.56173" lon="-2.15605">
        <ele>39.3</ele>
        <time>2021-08-14T07:30:34Z</time>
      </trkpt>
      <trkpt lat="47.56175" lon="-2.15603">
        <ele>39.5</ele>
        <time>2021-08-14T07:30:36Z</time>
      </trkpt>
      <trkpt lat="47.56178" lon="-2.15602">
        <ele>39.6</ele>
        <time>2021-08-14T07:30:37Z</time>
      </trkpt>
      <trkpt lat="47.56181" lon="-2.15601">
        <ele>39.7</ele>
        <time>2021-08-14T07:30:38Z</time>
      </trkpt>
      <trkpt lat="47.56182" lon="-2.156">
        <ele>39.8</ele>
        <time>2021-08-14T07:30:39Z</time>
      </trkpt>
      <trkpt lat="47.56185" lon="-2.15599">
        <ele>40</ele>
        <time>2021-08-14T07:30:41Z</time>
      </trkpt>
      <trkpt lat="47.56187" lon="-2.15598">
        <ele>40.1</ele>
        <time>2021-08-14T07:30:42Z</time>
      </trkpt>
      <trkpt lat="47.56187" lon="-2.15597">
        <ele>40.1</ele>
        <time>2021-08-14T07:30:43Z</time>
      </trkpt>
      <trkpt lat="47.5619" lon="-2.15595">
        <ele>40.2</ele>
        <time>2021-08-14T07:30:45Z</time>
      </trkpt>
      <trkpt lat="47.56192" lon="-2.15592">
        <ele>40.4</ele>
        <time>2021-08-14T07:30:46Z</time>
      </trkpt>
      <trkpt lat="47.56194" lon="-2.15588">
        <ele>40.5</ele>
        <time>2021-08-14T07:30:47Z</time>
      </trkpt>
      <trkpt lat="47.56196" lon="-2.15584">
        <ele>40.4</ele>
        <time>2021-08-14T07:30:49Z</time>
      </trkpt>
      <trkpt lat="47.56197" lon="-2.15583">
        <ele>40.6</ele>
        <time>2021-08-14T07:30:50Z</time>
      </trkpt>
      <trkpt lat="47.56199" lon="-2.15581">
        <ele>40.6</ele>
        <time>2021-08-14T07:30:52Z</time>
      </trkpt>
      <trkpt lat="47.562" lon="-2.15581">
        <ele>40.7</ele>
        <time>2021-08-14T07:30:53Z</time>
      </trkpt>
      <trkpt lat="47.56202" lon="-2.15581">
        <ele>40.8</ele>
        <time>2021-08-14T07:30:54Z</time>
      </trkpt>
      <trkpt lat="47.56205" lon="-2.15582">
        <ele>41</ele>
        <time>2021-08-14T07:30:56Z</time>
      </trkpt>
      <trkpt lat="47.56208" lon="-2.15583">
        <ele>41.1</ele>
        <time>2021-08-14T07:30:57Z</time>
      </trkpt>
      <trkpt lat="47.56211" lon="-2.15583">
        <ele>41.3</ele>
        <time>2021-08-14T07:30:58Z</time>
      </trkpt>
      <trkpt lat="47.56212" lon="-2.15582">
        <ele>41.4</ele>
        <time>2021-08-14T07:30:59Z</time>
      </trkpt>
      <trkpt lat="47.56215" lon="-2.1558">
        <ele>41.4</ele>
        <time>2021-08-14T07:31:00Z</time>
      </trkpt>
      <trkpt lat="47.56216" lon="-2.15579">
        <ele>41.5</ele>
        <time>2021-08-14T07:31:01Z</time>
      </trkpt>
      <trkpt lat="47.56218" lon="-2.15578">
        <ele>41.6</ele>
        <time>2021-08-14T07:31:03Z</time>
      </trkpt>
      <trkpt lat="47.56218" lon="-2.15578">
        <ele>41.6</ele>
        <time>2021-08-14T07:31:04Z</time>
      </trkpt>
      <trkpt lat="47.56221" lon="-2.15573">
        <ele>41.7</ele>
        <time>2021-08-14T07:31:06Z</time>
      </trkpt>
      <trkpt lat="47.56222" lon="-2.1557">
        <ele>41.6</ele>
        <time>2021-08-14T07:31:07Z</time>
      </trkpt>
      <trkpt lat="47.56222" lon="-2.15568">
        <ele>41.7</ele>
        <time>2021-08-14T07:31:08Z</time>
      </trkpt>
      <trkpt lat="47.56224" lon="-2.15565">
        <ele>41.7</ele>
        <time>2021-08-14T07:31:10Z</time>
      </trkpt>
      <trkpt lat="47.56226" lon="-2.15562">
        <ele>41.7</ele>
        <time>2021-08-14T07:31:12Z</time>
      </trkpt>
      <trkpt lat="47.56227" lon="-2.1556">
        <ele>41.7</ele>
        <time>2021-08-14T07:31:13Z</time>
      </trkpt>
      <trkpt lat="47.56228" lon="-2.15553">
        <ele>41.5</ele>
        <time>2021-08-14T07:31:15Z</time>
      </trkpt>
      <trkpt lat="47.56228" lon="-2.15547">
        <ele>41.5</ele>
        <time>2021-08-14T07:31:17Z</time>
      </trkpt>
      <trkpt lat="47.56228" lon="-2.15543">
        <ele>41.4</ele>
        <time>2021-08-14T07:31:18Z</time>
      </trkpt>
      <trkpt lat="47.56228" lon="-2.15539">
        <ele>41.3</ele>
        <time>2021-08-14T07:31:19Z</time>
      </trkpt>
      <trkpt lat="47.5623" lon="-2.15533">
        <ele>41.1</ele>
        <time>2021-08-14T07:31:21Z</time>
      </trkpt>
      <trkpt lat="47.56231" lon="-2.15532">
        <ele>41.2</ele>
        <time>2021-08-14T07:31:22Z</time>
      </trkpt>
      <trkpt lat="47.56232" lon="-2.15529">
        <ele>41.1</ele>
        <time>2021-08-14T07:31:24Z</time>
      </trkpt>
      <trkpt lat="47.56233" lon="-2.15526">
        <ele>41.1</ele>
        <time>2021-08-14T07:31:25Z</time>
      </trkpt>
      <trkpt lat="47.56234" lon="-2.15526">
        <ele>41.2</ele>
        <time>2021-08-14T07:31:26Z</time>
      </trkpt>
      <trkpt lat="47.56237" lon="-2.15526">
        <ele>41.3</ele>
        <time>2021-08-14T07:31:28Z</time>
      </trkpt>
      <trkpt lat="47.56239" lon="-2.15525">
        <ele>41.2</ele>
        <time>2021-08-14T07:31:29Z</time>
      </trkpt>
      <trkpt lat="47.56242" lon="-2.15526">
        <ele>41.4</ele>
        <time>2021-08-14T07:31:31Z</time>
      </trkpt>
      <trkpt lat="47.56243" lon="-2.15526">
        <ele>41.5</ele>
        <time>2021-08-14T07:31:32Z</time>
      </trkpt>
      <trkpt lat="47.56246" lon="-2.15527">
        <ele>41.6</ele>
        <time>2021-08-14T07:31:34Z</time>
      </trkpt>
      <trkpt lat="47.5625" lon="-2.15523">
        <ele>41.5</ele>
        <time>2021-08-14T07:31:36Z</time>
      </trkpt>
      <trkpt lat="47.56251" lon="-2.15518">
        <ele>41.4</ele>
        <time>2021-08-14T07:31:38Z</time>
      </trkpt>
      <trkpt lat="47.56251" lon="-2.15518">
        <ele>41.4</ele>
        <time>2021-08-14T07:31:39Z</time>
      </trkpt>
      <trkpt lat="47.56254" lon="-2.15515">
        <ele>41.4</ele>
        <time>2021-08-14T07:31:41Z</time>
      </trkpt>
      <trkpt lat="47.56254" lon="-2.15514">
        <ele>41.5</ele>
        <time>2021-08-14T07:31:42Z</time>
      </trkpt>
      <trkpt lat="47.56254" lon="-2.15515">
        <ele>41.5</ele>
        <time>2021-08-14T07:31:43Z</time>
      </trkpt>
      <trkpt lat="47.56254" lon="-2.15515">
        <ele>41.6</ele>
        <time>2021-08-14T07:31:45Z</time>
      </trkpt>
      <trkpt lat="47.56254" lon="-2.15515">
        <ele>41.6</ele>
        <time>2021-08-14T07:31:46Z</time>
      </trkpt>
      <trkpt lat="47.56254" lon="-2.15514">
        <ele>41.6</ele>
        <time>2021-08-14T07:31:48Z</time>
      </trkpt>
      <trkpt lat="47.56254" lon="-2.15514">
        <ele>41.6</ele>
        <time>2021-08-14T07:31:49Z</time>
      </trkpt>
      <trkpt lat="47.56254" lon="-2.15514">
        <ele>41.7</ele>
        <time>2021-08-14T07:31:51Z</time>
      </trkpt>
      <trkpt lat="47.56255" lon="-2.1551">
        <ele>41.6</ele>
        <time>2021-08-14T07:32:03Z</time>
      </trkpt>
      <trkpt lat="47.56255" lon="-2.15507">
        <ele>41.4</ele>
        <time>2021-08-14T07:32:04Z</time>
      </trkpt>
      <trkpt lat="47.56256" lon="-2.15505">
        <ele>41.5</ele>
        <time>2021-08-14T07:32:05Z</time>
      </trkpt>
      <trkpt lat="47.56259" lon="-2.15501">
        <ele>41.4</ele>
        <time>2021-08-14T07:32:07Z</time>
      </trkpt>
      <trkpt lat="47.56262" lon="-2.15502">
        <ele>41.6</ele>
        <time>2021-08-14T07:32:08Z</time>
      </trkpt>
      <trkpt lat="47.56263" lon="-2.15502">
        <ele>41.7</ele>
        <time>2021-08-14T07:32:09Z</time>
      </trkpt>
      <trkpt lat="47.56266" lon="-2.15503">
        <ele>41.8</ele>
        <time>2021-08-14T07:32:11Z</time>
      </trkpt>
      <trkpt lat="47.56268" lon="-2.155">
        <ele>41.9</ele>
        <time>2021-08-14T07:32:13Z</time>
      </trkpt>
      <trkpt lat="47.56271" lon="-2.15496">
        <ele>41.9</ele>
        <time>2021-08-14T07:32:14Z</time>
      </trkpt>
      <trkpt lat="47.56274" lon="-2.15495">
        <ele>41.9</ele>
        <time>2021-08-14T07:32:15Z</time>
      </trkpt>
      <trkpt lat="47.56277" lon="-2.15494">
        <ele>42.1</ele>
        <time>2021-08-14T07:32:16Z</time>
      </trkpt>
      <trkpt lat="47.56279" lon="-2.15494">
        <ele>42.3</ele>
        <time>2021-08-14T07:32:17Z</time>
      </trkpt>
      <trkpt lat="47.56281" lon="-2.15494">
        <ele>42.4</ele>
        <time>2021-08-14T07:32:19Z</time>
      </trkpt>
      <trkpt lat="47.56283" lon="-2.15495">
        <ele>42.4</ele>
        <time>2021-08-14T07:32:20Z</time>
      </trkpt>
      <trkpt lat="47.56286" lon="-2.15496">
        <ele>42.7</ele>
        <time>2021-08-14T07:32:22Z</time>
      </trkpt>
      <trkpt lat="47.56291" lon="-2.15497">
        <ele>42.9</ele>
        <time>2021-08-14T07:32:23Z</time>
      </trkpt>
      <trkpt lat="47.56299" lon="-2.15493">
        <ele>42.9</ele>
        <time>2021-08-14T07:32:25Z</time>
      </trkpt>
      <trkpt lat="47.56303" lon="-2.1549">
        <ele>42.9</ele>
        <time>2021-08-14T07:32:26Z</time>
      </trkpt>
      <trkpt lat="47.56306" lon="-2.15488">
        <ele>42.9</ele>
        <time>2021-08-14T07:32:27Z</time>
      </trkpt>
      <trkpt lat="47.56309" lon="-2.15485">
        <ele>42.7</ele>
        <time>2021-08-14T07:32:28Z</time>
      </trkpt>
      <trkpt lat="47.56312" lon="-2.1548">
        <ele>42.6</ele>
        <time>2021-08-14T07:32:30Z</time>
      </trkpt>
      <trkpt lat="47.56314" lon="-2.15477">
        <ele>42.6</ele>
        <time>2021-08-14T07:32:31Z</time>
      </trkpt>
      <trkpt lat="47.56315" lon="-2.15476">
        <ele>42.6</ele>
        <time>2021-08-14T07:32:33Z</time>
      </trkpt>
      <trkpt lat="47.56317" lon="-2.15474">
        <ele>42.6</ele>
        <time>2021-08-14T07:32:34Z</time>
      </trkpt>
      <trkpt lat="47.56319" lon="-2.15472">
        <ele>42.5</ele>
        <time>2021-08-14T07:32:36Z</time>
      </trkpt>
      <trkpt lat="47.56321" lon="-2.15469">
        <ele>42.4</ele>
        <time>2021-08-14T07:32:37Z</time>
      </trkpt>
      <trkpt lat="47.56325" lon="-2.15464">
        <ele>42.3</ele>
        <time>2021-08-14T07:32:39Z</time>
      </trkpt>
      <trkpt lat="47.56329" lon="-2.15461">
        <ele>42</ele>
        <time>2021-08-14T07:32:41Z</time>
      </trkpt>
      <trkpt lat="47.56332" lon="-2.15456">
        <ele>41.9</ele>
        <time>2021-08-14T07:32:42Z</time>
      </trkpt>
      <trkpt lat="47.56333" lon="-2.15454">
        <ele>41.9</ele>
        <time>2021-08-14T07:32:43Z</time>
      </trkpt>
      <trkpt lat="47.56334" lon="-2.15451">
        <ele>41.9</ele>
        <time>2021-08-14T07:32:45Z</time>
      </trkpt>
      <trkpt lat="47.56335" lon="-2.15445">
        <ele>41.8</ele>
        <time>2021-08-14T07:32:47Z</time>
      </trkpt>
      <trkpt lat="47.56336" lon="-2.1544">
        <ele>41.6</ele>
        <time>2021-08-14T07:32:48Z</time>
      </trkpt>
      <trkpt lat="47.56337" lon="-2.15434">
        <ele>41.5</ele>
        <time>2021-08-14T07:32:50Z</time>
      </trkpt>
      <trkpt lat="47.56337" lon="-2.15429">
        <ele>41.4</ele>
        <time>2021-08-14T07:32:51Z</time>
      </trkpt>
      <trkpt lat="47.56337" lon="-2.15425">
        <ele>41.4</ele>
        <time>2021-08-14T07:32:52Z</time>
      </trkpt>
      <trkpt lat="47.56333" lon="-2.1542">
        <ele>41.6</ele>
        <time>2021-08-14T07:32:54Z</time>
      </trkpt>
      <trkpt lat="47.56332" lon="-2.15417">
        <ele>41.7</ele>
        <time>2021-08-14T07:32:55Z</time>
      </trkpt>
      <trkpt lat="47.56332" lon="-2.15412">
        <ele>41.7</ele>
        <time>2021-08-14T07:32:57Z</time>
      </trkpt>
      <trkpt lat="47.56335" lon="-2.15409">
        <ele>41.5</ele>
        <time>2021-08-14T07:32:59Z</time>
      </trkpt>
      <trkpt lat="47.56336" lon="-2.15407">
        <ele>41.4</ele>
        <time>2021-08-14T07:33:00Z</time>
      </trkpt>
      <trkpt lat="47.5634" lon="-2.15404">
        <ele>41.3</ele>
        <time>2021-08-14T07:33:01Z</time>
      </trkpt>
      <trkpt lat="47.56343" lon="-2.15398">
        <ele>41.1</ele>
        <time>2021-08-14T07:33:03Z</time>
      </trkpt>
      <trkpt lat="47.56344" lon="-2.15393">
        <ele>41</ele>
        <time>2021-08-14T07:33:04Z</time>
      </trkpt>
      <trkpt lat="47.56346" lon="-2.15389">
        <ele>40.7</ele>
        <time>2021-08-14T07:33:05Z</time>
      </trkpt>
      <trkpt lat="47.56347" lon="-2.15383">
        <ele>40.2</ele>
        <time>2021-08-14T07:33:07Z</time>
      </trkpt>
      <trkpt lat="47.56345" lon="-2.1538">
        <ele>40.4</ele>
        <time>2021-08-14T07:33:08Z</time>
      </trkpt>
      <trkpt lat="47.56343" lon="-2.1538">
        <ele>40.6</ele>
        <time>2021-08-14T07:33:09Z</time>
      </trkpt>
      <trkpt lat="47.56342" lon="-2.1538">
        <ele>40.7</ele>
        <time>2021-08-14T07:33:10Z</time>
      </trkpt>
      <trkpt lat="47.56339" lon="-2.15381">
        <ele>40.9</ele>
        <time>2021-08-14T07:33:12Z</time>
      </trkpt>
      <trkpt lat="47.56337" lon="-2.15383">
        <ele>41.1</ele>
        <time>2021-08-14T07:33:13Z</time>
      </trkpt>
      <trkpt lat="47.56333" lon="-2.15383">
        <ele>41.3</ele>
        <time>2021-08-14T07:33:15Z</time>
      </trkpt>
      <trkpt lat="47.5633" lon="-2.15381">
        <ele>41.6</ele>
        <time>2021-08-14T07:33:16Z</time>
      </trkpt>
      <trkpt lat="47.56329" lon="-2.15374">
        <ele>41.6</ele>
        <time>2021-08-14T07:33:18Z</time>
      </trkpt>
      <trkpt lat="47.56329" lon="-2.15371">
        <ele>41.7</ele>
        <time>2021-08-14T07:33:20Z</time>
      </trkpt>
      <trkpt lat="47.56329" lon="-2.15368">
        <ele>41.6</ele>
        <time>2021-08-14T07:33:21Z</time>
      </trkpt>
      <trkpt lat="47.56329" lon="-2.15365">
        <ele>41.6</ele>
        <time>2021-08-14T07:33:22Z</time>
      </trkpt>
      <trkpt lat="47.56329" lon="-2.15357">
        <ele>41.5</ele>
        <time>2021-08-14T07:33:24Z</time>
      </trkpt>
      <trkpt lat="47.56328" lon="-2.15353">
        <ele>41.5</ele>
        <time>2021-08-14T07:33:25Z</time>
      </trkpt>
      <trkpt lat="47.56326" lon="-2.15347">
        <ele>41.8</ele>
        <time>2021-08-14T07:33:27Z</time>
      </trkpt>
      <trkpt lat="47.56325" lon="-2.15344">
        <ele>41.7</ele>
        <time>2021-08-14T07:33:28Z</time>
      </trkpt>
      <trkpt lat="47.56323" lon="-2.15342">
        <ele>42</ele>
        <time>2021-08-14T07:33:30Z</time>
      </trkpt>
      <trkpt lat="47.56321" lon="-2.15339">
        <ele>42.2</ele>
        <time>2021-08-14T07:33:31Z</time>
      </trkpt>
      <trkpt lat="47.5632" lon="-2.15333">
        <ele>42.1</ele>
        <time>2021-08-14T07:33:33Z</time>
      </trkpt>
      <trkpt lat="47.5632" lon="-2.15331">
        <ele>41.9</ele>
        <time>2021-08-14T07:33:34Z</time>
      </trkpt>
      <trkpt lat="47.5632" lon="-2.15326">
        <ele>41.8</ele>
        <time>2021-08-14T07:33:35Z</time>
      </trkpt>
      <trkpt lat="47.56319" lon="-2.15322">
        <ele>41.7</ele>
        <time>2021-08-14T07:33:37Z</time>
      </trkpt>
      <trkpt lat="47.56319" lon="-2.15317">
        <ele>41.6</ele>
        <time>2021-08-14T07:33:38Z</time>
      </trkpt>
      <trkpt lat="47.56318" lon="-2.15313">
        <ele>41.5</ele>
        <time>2021-08-14T07:33:39Z</time>
      </trkpt>
      <trkpt lat="47.56318" lon="-2.1531">
        <ele>41.4</ele>
        <time>2021-08-14T07:33:40Z</time>
      </trkpt>
      <trkpt lat="47.56317" lon="-2.15304">
        <ele>41.6</ele>
        <time>2021-08-14T07:33:42Z</time>
      </trkpt>
      <trkpt lat="47.56317" lon="-2.153">
        <ele>41.5</ele>
        <time>2021-08-14T07:33:43Z</time>
      </trkpt>
      <trkpt lat="47.56317" lon="-2.15293">
        <ele>41.1</ele>
        <time>2021-08-14T07:33:45Z</time>
      </trkpt>
      <trkpt lat="47.56315" lon="-2.15287">
        <ele>40.9</ele>
        <time>2021-08-14T07:33:47Z</time>
      </trkpt>
      <trkpt lat="47.56314" lon="-2.15283">
        <ele>41</ele>
        <time>2021-08-14T07:33:48Z</time>
      </trkpt>
      <trkpt lat="47.56313" lon="-2.15279">
        <ele>40.7</ele>
        <time>2021-08-14T07:33:49Z</time>
      </trkpt>
      <trkpt lat="47.5631" lon="-2.15275">
        <ele>40.9</ele>
        <time>2021-08-14T07:33:51Z</time>
      </trkpt>
      <trkpt lat="47.56306" lon="-2.15273">
        <ele>41.4</ele>
        <time>2021-08-14T07:33:53Z</time>
      </trkpt>
      <trkpt lat="47.56304" lon="-2.15272">
        <ele>41.7</ele>
        <time>2021-08-14T07:33:54Z</time>
      </trkpt>
      <trkpt lat="47.563" lon="-2.1527">
        <ele>42.7</ele>
        <time>2021-08-14T07:33:56Z</time>
      </trkpt>
      <trkpt lat="47.56298" lon="-2.1527">
        <ele>42.7</ele>
        <time>2021-08-14T07:33:57Z</time>
      </trkpt>
      <trkpt lat="47.56295" lon="-2.15269">
        <ele>43.2</ele>
        <time>2021-08-14T07:33:59Z</time>
      </trkpt>
      <trkpt lat="47.56294" lon="-2.15265">
        <ele>43.5</ele>
        <time>2021-08-14T07:34:00Z</time>
      </trkpt>
      <trkpt lat="47.56296" lon="-2.15261">
        <ele>43</ele>
        <time>2021-08-14T07:34:02Z</time>
      </trkpt>
      <trkpt lat="47.56298" lon="-2.15257">
        <ele>42.5</ele>
        <time>2021-08-14T07:34:03Z</time>
      </trkpt>
      <trkpt lat="47.563" lon="-2.15253">
        <ele>42.5</ele>
        <time>2021-08-14T07:34:05Z</time>
      </trkpt>
      <trkpt lat="47.56301" lon="-2.15252">
        <ele>42.5</ele>
        <time>2021-08-14T07:34:06Z</time>
      </trkpt>
      <trkpt lat="47.56304" lon="-2.15252">
        <ele>42.4</ele>
        <time>2021-08-14T07:34:07Z</time>
      </trkpt>
      <trkpt lat="47.56308" lon="-2.15252">
        <ele>42.3</ele>
        <time>2021-08-14T07:34:09Z</time>
      </trkpt>
      <trkpt lat="47.56313" lon="-2.15253">
        <ele>42.2</ele>
        <time>2021-08-14T07:34:11Z</time>
      </trkpt>
      <trkpt lat="47.56317" lon="-2.15253">
        <ele>42.1</ele>
        <time>2021-08-14T07:34:13Z</time>
      </trkpt>
      <trkpt lat="47.5632" lon="-2.15253">
        <ele>42</ele>
        <time>2021-08-14T07:34:14Z</time>
      </trkpt>
      <trkpt lat="47.56323" lon="-2.15254">
        <ele>41.9</ele>
        <time>2021-08-14T07:34:15Z</time>
      </trkpt>
      <trkpt lat="47.56328" lon="-2.15256">
        <ele>41.6</ele>
        <time>2021-08-14T07:34:17Z</time>
      </trkpt>
      <trkpt lat="47.56332" lon="-2.15258">
        <ele>41.4</ele>
        <time>2021-08-14T07:34:18Z</time>
      </trkpt>
      <trkpt lat="47.56334" lon="-2.15261">
        <ele>41.2</ele>
        <time>2021-08-14T07:34:19Z</time>
      </trkpt>
      <trkpt lat="47.56335" lon="-2.15265">
        <ele>41</ele>
        <time>2021-08-14T07:34:20Z</time>
      </trkpt>
      <trkpt lat="47.56335" lon="-2.15267">
        <ele>40.9</ele>
        <time>2021-08-14T07:34:21Z</time>
      </trkpt>
      <trkpt lat="47.56335" lon="-2.15272">
        <ele>40.7</ele>
        <time>2021-08-14T07:34:23Z</time>
      </trkpt>
      <trkpt lat="47.56334" lon="-2.15278">
        <ele>40.4</ele>
        <time>2021-08-14T07:34:24Z</time>
      </trkpt>
      <trkpt lat="47.56334" lon="-2.15282">
        <ele>40.3</ele>
        <time>2021-08-14T07:34:25Z</time>
      </trkpt>
      <trkpt lat="47.56336" lon="-2.15288">
        <ele>40</ele>
        <time>2021-08-14T07:34:27Z</time>
      </trkpt>
      <trkpt lat="47.56336" lon="-2.15294">
        <ele>39.8</ele>
        <time>2021-08-14T07:34:28Z</time>
      </trkpt>
      <trkpt lat="47.56336" lon="-2.15299">
        <ele>39.5</ele>
        <time>2021-08-14T07:34:30Z</time>
      </trkpt>
      <trkpt lat="47.56337" lon="-2.15304">
        <ele>39.3</ele>
        <time>2021-08-14T07:34:31Z</time>
      </trkpt>
      <trkpt lat="47.56338" lon="-2.15306">
        <ele>39.3</ele>
        <time>2021-08-14T07:34:32Z</time>
      </trkpt>
      <trkpt lat="47.56342" lon="-2.15309">
        <ele>39</ele>
        <time>2021-08-14T07:34:34Z</time>
      </trkpt>
      <trkpt lat="47.56343" lon="-2.15314">
        <ele>38.7</ele>
        <time>2021-08-14T07:34:35Z</time>
      </trkpt>
      <trkpt lat="47.56344" lon="-2.15317">
        <ele>38.6</ele>
        <time>2021-08-14T07:34:36Z</time>
      </trkpt>
      <trkpt lat="47.56347" lon="-2.15321">
        <ele>38.4</ele>
        <time>2021-08-14T07:34:38Z</time>
      </trkpt>
      <trkpt lat="47.5635" lon="-2.15321">
        <ele>38.2</ele>
        <time>2021-08-14T07:34:39Z</time>
      </trkpt>
      <trkpt lat="47.5635" lon="-2.15322">
        <ele>38.1</ele>
        <time>2021-08-14T07:34:40Z</time>
      </trkpt>
      <trkpt lat="47.56353" lon="-2.15324">
        <ele>38</ele>
        <time>2021-08-14T07:34:42Z</time>
      </trkpt>
      <trkpt lat="47.56353" lon="-2.15326">
        <ele>37.9</ele>
        <time>2021-08-14T07:34:43Z</time>
      </trkpt>
      <trkpt lat="47.56354" lon="-2.15328">
        <ele>37.8</ele>
        <time>2021-08-14T07:34:44Z</time>
      </trkpt>
      <trkpt lat="47.56355" lon="-2.15333">
        <ele>37.7</ele>
        <time>2021-08-14T07:34:46Z</time>
      </trkpt>
      <trkpt lat="47.56356" lon="-2.15337">
        <ele>37.6</ele>
        <time>2021-08-14T07:34:47Z</time>
      </trkpt>
      <trkpt lat="47.56355" lon="-2.15341">
        <ele>37.5</ele>
        <time>2021-08-14T07:34:48Z</time>
      </trkpt>
      <trkpt lat="47.56355" lon="-2.15344">
        <ele>37.4</ele>
        <time>2021-08-14T07:34:50Z</time>
      </trkpt>
      <trkpt lat="47.56357" lon="-2.15348">
        <ele>37.3</ele>
        <time>2021-08-14T07:34:51Z</time>
      </trkpt>
      <trkpt lat="47.56358" lon="-2.15349">
        <ele>37.2</ele>
        <time>2021-08-14T07:34:52Z</time>
      </trkpt>
      <trkpt lat="47.5636" lon="-2.15353">
        <ele>37.1</ele>
        <time>2021-08-14T07:34:54Z</time>
      </trkpt>
      <trkpt lat="47.5636" lon="-2.15354">
        <ele>37</ele>
        <time>2021-08-14T07:34:55Z</time>
      </trkpt>
      <trkpt lat="47.56364" lon="-2.15355">
        <ele>36.7</ele>
        <time>2021-08-14T07:34:56Z</time>
      </trkpt>
      <trkpt lat="47.56365" lon="-2.15355">
        <ele>36.6</ele>
        <time>2021-08-14T07:34:57Z</time>
      </trkpt>
      <trkpt lat="47.56368" lon="-2.15354">
        <ele>36.4</ele>
        <time>2021-08-14T07:34:59Z</time>
      </trkpt>
      <trkpt lat="47.56368" lon="-2.15354">
        <ele>36.3</ele>
        <time>2021-08-14T07:35:00Z</time>
      </trkpt>
      <trkpt lat="47.56368" lon="-2.15353">
        <ele>36.2</ele>
        <time>2021-08-14T07:35:02Z</time>
      </trkpt>
      <trkpt lat="47.56369" lon="-2.15352">
        <ele>36.1</ele>
        <time>2021-08-14T07:35:04Z</time>
      </trkpt>
      <trkpt lat="47.5637" lon="-2.15351">
        <ele>36</ele>
        <time>2021-08-14T07:35:06Z</time>
      </trkpt>
      <trkpt lat="47.56371" lon="-2.1535">
        <ele>35.8</ele>
        <time>2021-08-14T07:35:08Z</time>
      </trkpt>
      <trkpt lat="47.56372" lon="-2.15349">
        <ele>35.7</ele>
        <time>2021-08-14T07:35:10Z</time>
      </trkpt>
      <trkpt lat="47.56373" lon="-2.15349">
        <ele>35.5</ele>
        <time>2021-08-14T07:35:16Z</time>
      </trkpt>
      <trkpt lat="47.56374" lon="-2.15348">
        <ele>35.4</ele>
        <time>2021-08-14T07:35:17Z</time>
      </trkpt>
      <trkpt lat="47.56375" lon="-2.15347">
        <ele>35.2</ele>
        <time>2021-08-14T07:35:18Z</time>
      </trkpt>
      <trkpt lat="47.56378" lon="-2.15344">
        <ele>34.7</ele>
        <time>2021-08-14T07:35:19Z</time>
      </trkpt>
      <trkpt lat="47.56379" lon="-2.15342">
        <ele>34.6</ele>
        <time>2021-08-14T07:35:20Z</time>
      </trkpt>
      <trkpt lat="47.56381" lon="-2.15337">
        <ele>34</ele>
        <time>2021-08-14T07:35:21Z</time>
      </trkpt>
      <trkpt lat="47.56384" lon="-2.15334">
        <ele>33.4</ele>
        <time>2021-08-14T07:35:22Z</time>
      </trkpt>
      <trkpt lat="47.56388" lon="-2.15331">
        <ele>32.7</ele>
        <time>2021-08-14T07:35:24Z</time>
      </trkpt>
      <trkpt lat="47.56392" lon="-2.15327">
        <ele>31.9</ele>
        <time>2021-08-14T07:35:25Z</time>
      </trkpt>
      <trkpt lat="47.56395" lon="-2.15321">
        <ele>31.2</ele>
        <time>2021-08-14T07:35:26Z</time>
      </trkpt>
      <trkpt lat="47.56397" lon="-2.15314">
        <ele>30.4</ele>
        <time>2021-08-14T07:35:27Z</time>
      </trkpt>
      <trkpt lat="47.56402" lon="-2.15301">
        <ele>28.9</ele>
        <time>2021-08-14T07:35:29Z</time>
      </trkpt>
      <trkpt lat="47.56408" lon="-2.15292">
        <ele>27.3</ele>
        <time>2021-08-14T07:35:31Z</time>
      </trkpt>
      <trkpt lat="47.56413" lon="-2.1529">
        <ele>26.3</ele>
        <time>2021-08-14T07:35:32Z</time>
      </trkpt>
      <trkpt lat="47.56416" lon="-2.15288">
        <ele>25.5</ele>
        <time>2021-08-14T07:35:33Z</time>
      </trkpt>
      <trkpt lat="47.56419" lon="-2.15284">
        <ele>24.7</ele>
        <time>2021-08-14T07:35:35Z</time>
      </trkpt>
      <trkpt lat="47.56422" lon="-2.15283">
        <ele>24.1</ele>
        <time>2021-08-14T07:35:36Z</time>
      </trkpt>
      <trkpt lat="47.56426" lon="-2.15284">
        <ele>23.5</ele>
        <time>2021-08-14T07:35:37Z</time>
      </trkpt>
      <trkpt lat="47.5643" lon="-2.15285">
        <ele>22.8</ele>
        <time>2021-08-14T07:35:38Z</time>
      </trkpt>
      <trkpt lat="47.56435" lon="-2.15286">
        <ele>21.9</ele>
        <time>2021-08-14T07:35:39Z</time>
      </trkpt>
      <trkpt lat="47.56442" lon="-2.15288">
        <ele>21</ele>
        <time>2021-08-14T07:35:40Z</time>
      </trkpt>
      <trkpt lat="47.5645" lon="-2.15288">
        <ele>20</ele>
        <time>2021-08-14T07:35:42Z</time>
      </trkpt>
      <trkpt lat="47.56454" lon="-2.15289">
        <ele>17.6</ele>
        <time>2021-08-14T07:35:43Z</time>
      </trkpt>
      <trkpt lat="47.56457" lon="-2.15291">
        <ele>17.4</ele>
        <time>2021-08-14T07:35:44Z</time>
      </trkpt>
      <trkpt lat="47.5646" lon="-2.15295">
        <ele>17</ele>
        <time>2021-08-14T07:35:46Z</time>
      </trkpt>
      <trkpt lat="47.56462" lon="-2.153">
        <ele>16.6</ele>
        <time>2021-08-14T07:35:47Z</time>
      </trkpt>
      <trkpt lat="47.56465" lon="-2.15305">
        <ele>16.3</ele>
        <time>2021-08-14T07:35:49Z</time>
      </trkpt>
      <trkpt lat="47.56468" lon="-2.15311">
        <ele>15.9</ele>
        <time>2021-08-14T07:35:50Z</time>
      </trkpt>
      <trkpt lat="47.56471" lon="-2.1532">
        <ele>15.4</ele>
        <time>2021-08-14T07:35:52Z</time>
      </trkpt>
      <trkpt lat="47.56476" lon="-2.1533">
        <ele>14.9</ele>
        <time>2021-08-14T07:35:53Z</time>
      </trkpt>
      <trkpt lat="47.56479" lon="-2.15339">
        <ele>14.5</ele>
        <time>2021-08-14T07:35:55Z</time>
      </trkpt>
      <trkpt lat="47.5648" lon="-2.1534">
        <ele>14.4</ele>
        <time>2021-08-14T07:35:56Z</time>
      </trkpt>
      <trkpt lat="47.5648" lon="-2.15339">
        <ele>14.4</ele>
        <time>2021-08-14T07:35:57Z</time>
      </trkpt>
      <trkpt lat="47.56479" lon="-2.15337">
        <ele>14.3</ele>
        <time>2021-08-14T07:35:58Z</time>
      </trkpt>
      <trkpt lat="47.56479" lon="-2.15335">
        <ele>14.2</ele>
        <time>2021-08-14T07:36:00Z</time>
      </trkpt>
      <trkpt lat="47.56479" lon="-2.15334">
        <ele>14.2</ele>
        <time>2021-08-14T07:36:02Z</time>
      </trkpt>
      <trkpt lat="47.56479" lon="-2.15334">
        <ele>14.2</ele>
        <time>2021-08-14T07:36:03Z</time>
      </trkpt>
      <trkpt lat="47.56479" lon="-2.15334">
        <ele>14.2</ele>
        <time>2021-08-14T07:36:05Z</time>
      </trkpt>
      <trkpt lat="47.56482" lon="-2.15337">
        <ele>14</ele>
        <time>2021-08-14T07:36:25Z</time>
      </trkpt>
      <trkpt lat="47.56483" lon="-2.1534">
        <ele>13.8</ele>
        <time>2021-08-14T07:36:26Z</time>
      </trkpt>
      <trkpt lat="47.56485" lon="-2.15342">
        <ele>13.7</ele>
        <time>2021-08-14T07:36:28Z</time>
      </trkpt>
      <trkpt lat="47.56486" lon="-2.15346">
        <ele>13.6</ele>
        <time>2021-08-14T07:36:29Z</time>
      </trkpt>
      <trkpt lat="47.56487" lon="-2.15351">
        <ele>13.4</ele>
        <time>2021-08-14T07:36:31Z</time>
      </trkpt>
      <trkpt lat="47.56488" lon="-2.15352">
        <ele>13.3</ele>
        <time>2021-08-14T07:36:32Z</time>
      </trkpt>
      <trkpt lat="47.56488" lon="-2.15351">
        <ele>13.3</ele>
        <time>2021-08-14T07:36:34Z</time>
      </trkpt>
      <trkpt lat="47.56487" lon="-2.15351">
        <ele>13.3</ele>
        <time>2021-08-14T07:36:36Z</time>
      </trkpt>
      <trkpt lat="47.56488" lon="-2.15351">
        <ele>13.3</ele>
        <time>2021-08-14T07:36:38Z</time>
      </trkpt>
      <trkpt lat="47.56488" lon="-2.15351">
        <ele>13.3</ele>
        <time>2021-08-14T07:36:40Z</time>
      </trkpt>
      <trkpt lat="47.56488" lon="-2.15352">
        <ele>13.3</ele>
        <time>2021-08-14T07:36:42Z</time>
      </trkpt>
      <trkpt lat="47.56489" lon="-2.15355">
        <ele>13.1</ele>
        <time>2021-08-14T07:37:03Z</time>
      </trkpt>
      <trkpt lat="47.5649" lon="-2.15358">
        <ele>13</ele>
        <time>2021-08-14T07:37:05Z</time>
      </trkpt>
      <trkpt lat="47.56491" lon="-2.15364">
        <ele>12.8</ele>
        <time>2021-08-14T07:37:06Z</time>
      </trkpt>
      <trkpt lat="47.56494" lon="-2.15372">
        <ele>12.5</ele>
        <time>2021-08-14T07:37:08Z</time>
      </trkpt>
      <trkpt lat="47.56495" lon="-2.15376">
        <ele>12.4</ele>
        <time>2021-08-14T07:37:09Z</time>
      </trkpt>
      <trkpt lat="47.56498" lon="-2.15385">
        <ele>12.1</ele>
        <time>2021-08-14T07:37:11Z</time>
      </trkpt>
      <trkpt lat="47.565" lon="-2.15393">
        <ele>11.9</ele>
        <time>2021-08-14T07:37:13Z</time>
      </trkpt>
      <trkpt lat="47.56501" lon="-2.15397">
        <ele>11.8</ele>
        <time>2021-08-14T07:37:14Z</time>
      </trkpt>
      <trkpt lat="47.56502" lon="-2.15401">
        <ele>11.6</ele>
        <time>2021-08-14T07:37:15Z</time>
      </trkpt>
      <trkpt lat="47.56504" lon="-2.15406">
        <ele>11.5</ele>
        <time>2021-08-14T07:37:16Z</time>
      </trkpt>
      <trkpt lat="47.56506" lon="-2.15413">
        <ele>11.3</ele>
        <time>2021-08-14T07:37:18Z</time>
      </trkpt>
      <trkpt lat="47.56508" lon="-2.1542">
        <ele>11.1</ele>
        <time>2021-08-14T07:37:19Z</time>
      </trkpt>
      <trkpt lat="47.5651" lon="-2.1543">
        <ele>10.8</ele>
        <time>2021-08-14T07:37:20Z</time>
      </trkpt>
      <trkpt lat="47.56512" lon="-2.15435">
        <ele>10.3</ele>
        <time>2021-08-14T07:37:21Z</time>
      </trkpt>
      <trkpt lat="47.56514" lon="-2.15437">
        <ele>10.3</ele>
        <time>2021-08-14T07:37:22Z</time>
      </trkpt>
      <trkpt lat="47.56517" lon="-2.15444">
        <ele>10.1</ele>
        <time>2021-08-14T07:37:24Z</time>
      </trkpt>
      <trkpt lat="47.5652" lon="-2.1545">
        <ele>10</ele>
        <time>2021-08-14T07:37:26Z</time>
      </trkpt>
      <trkpt lat="47.56521" lon="-2.15457">
        <ele>9.9</ele>
        <time>2021-08-14T07:37:27Z</time>
      </trkpt>
      <trkpt lat="47.56523" lon="-2.15465">
        <ele>9.7</ele>
        <time>2021-08-14T07:37:28Z</time>
      </trkpt>
      <trkpt lat="47.56526" lon="-2.15481">
        <ele>9.5</ele>
        <time>2021-08-14T07:37:30Z</time>
      </trkpt>
      <trkpt lat="47.56529" lon="-2.15496">
        <ele>9.3</ele>
        <time>2021-08-14T07:37:32Z</time>
      </trkpt>
      <trkpt lat="47.5653" lon="-2.15504">
        <ele>9.2</ele>
        <time>2021-08-14T07:37:33Z</time>
      </trkpt>
      <trkpt lat="47.5653" lon="-2.15519">
        <ele>9</ele>
        <time>2021-08-14T07:37:35Z</time>
      </trkpt>
      <trkpt lat="47.56529" lon="-2.15534">
        <ele>8.8</ele>
        <time>2021-08-14T07:37:37Z</time>
      </trkpt>
      <trkpt lat="47.56528" lon="-2.15541">
        <ele>8.7</ele>
        <time>2021-08-14T07:37:38Z</time>
      </trkpt>
      <trkpt lat="47.56527" lon="-2.15549">
        <ele>8.6</ele>
        <time>2021-08-14T07:37:39Z</time>
      </trkpt>
      <trkpt lat="47.56524" lon="-2.15564">
        <ele>8.5</ele>
        <time>2021-08-14T07:37:41Z</time>
      </trkpt>
      <trkpt lat="47.56522" lon="-2.1558">
        <ele>8.3</ele>
        <time>2021-08-14T07:37:43Z</time>
      </trkpt>
      <trkpt lat="47.56519" lon="-2.15596">
        <ele>8.2</ele>
        <time>2021-08-14T07:37:45Z</time>
      </trkpt>
      <trkpt lat="47.56517" lon="-2.15613">
        <ele>8</ele>
        <time>2021-08-14T07:37:47Z</time>
      </trkpt>
      <trkpt lat="47.56516" lon="-2.15619">
        <ele>7.9</ele>
        <time>2021-08-14T07:37:48Z</time>
      </trkpt>
      <trkpt lat="47.56515" lon="-2.15628">
        <ele>7.8</ele>
        <time>2021-08-14T07:37:49Z</time>
      </trkpt>
      <trkpt lat="47.56512" lon="-2.15646">
        <ele>7.6</ele>
        <time>2021-08-14T07:37:51Z</time>
      </trkpt>
      <trkpt lat="47.5651" lon="-2.15663">
        <ele>7.4</ele>
        <time>2021-08-14T07:37:53Z</time>
      </trkpt>
      <trkpt lat="47.56509" lon="-2.15672">
        <ele>7.3</ele>
        <time>2021-08-14T07:37:54Z</time>
      </trkpt>
      <trkpt lat="47.56508" lon="-2.1568">
        <ele>7.2</ele>
        <time>2021-08-14T07:37:55Z</time>
      </trkpt>
      <trkpt lat="47.56506" lon="-2.15697">
        <ele>7</ele>
        <time>2021-08-14T07:37:57Z</time>
      </trkpt>
      <trkpt lat="47.56503" lon="-2.15714">
        <ele>6.9</ele>
        <time>2021-08-14T07:37:59Z</time>
      </trkpt>
      <trkpt lat="47.56501" lon="-2.15723">
        <ele>6.8</ele>
        <time>2021-08-14T07:38:00Z</time>
      </trkpt>
      <trkpt lat="47.565" lon="-2.15731">
        <ele>6.7</ele>
        <time>2021-08-14T07:38:01Z</time>
      </trkpt>
      <trkpt lat="47.56499" lon="-2.15748">
        <ele>6.6</ele>
        <time>2021-08-14T07:38:03Z</time>
      </trkpt>
      <trkpt lat="47.56501" lon="-2.15765">
        <ele>6.6</ele>
        <time>2021-08-14T07:38:05Z</time>
      </trkpt>
      <trkpt lat="47.56505" lon="-2.15781">
        <ele>6.6</ele>
        <time>2021-08-14T07:38:07Z</time>
      </trkpt>
      <trkpt lat="47.56512" lon="-2.15794">
        <ele>6.5</ele>
        <time>2021-08-14T07:38:09Z</time>
      </trkpt>
      <trkpt lat="47.5652" lon="-2.15806">
        <ele>6.4</ele>
        <time>2021-08-14T07:38:11Z</time>
      </trkpt>
      <trkpt lat="47.56524" lon="-2.15811">
        <ele>6.4</ele>
        <time>2021-08-14T07:38:12Z</time>
      </trkpt>
      <trkpt lat="47.56533" lon="-2.15818">
        <ele>6.5</ele>
        <time>2021-08-14T07:38:14Z</time>
      </trkpt>
      <trkpt lat="47.56538" lon="-2.15822">
        <ele>6.6</ele>
        <time>2021-08-14T07:38:15Z</time>
      </trkpt>
      <trkpt lat="47.56546" lon="-2.15828">
        <ele>6.7</ele>
        <time>2021-08-14T07:38:17Z</time>
      </trkpt>
      <trkpt lat="47.5655" lon="-2.15831">
        <ele>6.7</ele>
        <time>2021-08-14T07:38:18Z</time>
      </trkpt>
      <trkpt lat="47.56553" lon="-2.15834">
        <ele>6.7</ele>
        <time>2021-08-14T07:38:19Z</time>
      </trkpt>
      <trkpt lat="47.56561" lon="-2.15839">
        <ele>6.8</ele>
        <time>2021-08-14T07:38:21Z</time>
      </trkpt>
      <trkpt lat="47.56568" lon="-2.15844">
        <ele>6.9</ele>
        <time>2021-08-14T07:38:23Z</time>
      </trkpt>
      <trkpt lat="47.56571" lon="-2.15846">
        <ele>7</ele>
        <time>2021-08-14T07:38:24Z</time>
      </trkpt>
      <trkpt lat="47.56578" lon="-2.15852">
        <ele>7.3</ele>
        <time>2021-08-14T07:38:26Z</time>
      </trkpt>
      <trkpt lat="47.56581" lon="-2.15855">
        <ele>7.4</ele>
        <time>2021-08-14T07:38:28Z</time>
      </trkpt>
      <trkpt lat="47.56583" lon="-2.15856">
        <ele>7.4</ele>
        <time>2021-08-14T07:38:29Z</time>
      </trkpt>
      <trkpt lat="47.56586" lon="-2.15859">
        <ele>7.7</ele>
        <time>2021-08-14T07:38:30Z</time>
      </trkpt>
      <trkpt lat="47.56587" lon="-2.1586">
        <ele>7.8</ele>
        <time>2021-08-14T07:38:31Z</time>
      </trkpt>
      <trkpt lat="47.56587" lon="-2.15866">
        <ele>8.1</ele>
        <time>2021-08-14T07:38:33Z</time>
      </trkpt>
      <trkpt lat="47.56588" lon="-2.1587">
        <ele>8.5</ele>
        <time>2021-08-14T07:38:35Z</time>
      </trkpt>
      <trkpt lat="47.56588" lon="-2.15872">
        <ele>8.6</ele>
        <time>2021-08-14T07:38:36Z</time>
      </trkpt>
      <trkpt lat="47.5659" lon="-2.15875">
        <ele>8.9</ele>
        <time>2021-08-14T07:38:37Z</time>
      </trkpt>
      <trkpt lat="47.56591" lon="-2.15876">
        <ele>9</ele>
        <time>2021-08-14T07:38:38Z</time>
      </trkpt>
      <trkpt lat="47.56593" lon="-2.1588">
        <ele>9.3</ele>
        <time>2021-08-14T07:38:39Z</time>
      </trkpt>
      <trkpt lat="47.56594" lon="-2.15881">
        <ele>9.4</ele>
        <time>2021-08-14T07:38:40Z</time>
      </trkpt>
      <trkpt lat="47.56597" lon="-2.15885">
        <ele>9.9</ele>
        <time>2021-08-14T07:38:42Z</time>
      </trkpt>
      <trkpt lat="47.56598" lon="-2.15886">
        <ele>10.1</ele>
        <time>2021-08-14T07:38:43Z</time>
      </trkpt>
      <trkpt lat="47.56598" lon="-2.15887">
        <ele>10.2</ele>
        <time>2021-08-14T07:38:44Z</time>
      </trkpt>
      <trkpt lat="47.56599" lon="-2.1589">
        <ele>10.4</ele>
        <time>2021-08-14T07:38:45Z</time>
      </trkpt>
      <trkpt lat="47.56601" lon="-2.15893">
        <ele>10.8</ele>
        <time>2021-08-14T07:38:47Z</time>
      </trkpt>
      <trkpt lat="47.56603" lon="-2.15897">
        <ele>11.3</ele>
        <time>2021-08-14T07:38:48Z</time>
      </trkpt>
      <trkpt lat="47.56603" lon="-2.15899">
        <ele>11.4</ele>
        <time>2021-08-14T07:38:49Z</time>
      </trkpt>
      <trkpt lat="47.56605" lon="-2.15905">
        <ele>12.2</ele>
        <time>2021-08-14T07:38:51Z</time>
      </trkpt>
      <trkpt lat="47.56605" lon="-2.15907">
        <ele>12.4</ele>
        <time>2021-08-14T07:38:52Z</time>
      </trkpt>
      <trkpt lat="47.56606" lon="-2.15909">
        <ele>12.7</ele>
        <time>2021-08-14T07:38:53Z</time>
      </trkpt>
      <trkpt lat="47.56606" lon="-2.15912">
        <ele>13</ele>
        <time>2021-08-14T07:38:54Z</time>
      </trkpt>
      <trkpt lat="47.56607" lon="-2.15916">
        <ele>13.5</ele>
        <time>2021-08-14T07:38:56Z</time>
      </trkpt>
      <trkpt lat="47.56607" lon="-2.15918">
        <ele>13.8</ele>
        <time>2021-08-14T07:38:58Z</time>
      </trkpt>
      <trkpt lat="47.56607" lon="-2.1592">
        <ele>13.9</ele>
        <time>2021-08-14T07:38:59Z</time>
      </trkpt>
      <trkpt lat="47.56607" lon="-2.15919">
        <ele>14.1</ele>
        <time>2021-08-14T07:39:00Z</time>
      </trkpt>
      <trkpt lat="47.56607" lon="-2.15921">
        <ele>14.2</ele>
        <time>2021-08-14T07:39:02Z</time>
      </trkpt>
      <trkpt lat="47.56607" lon="-2.15922">
        <ele>14.4</ele>
        <time>2021-08-14T07:39:03Z</time>
      </trkpt>
      <trkpt lat="47.56607" lon="-2.15923">
        <ele>14.6</ele>
        <time>2021-08-14T07:39:04Z</time>
      </trkpt>
      <trkpt lat="47.56607" lon="-2.15927">
        <ele>15</ele>
        <time>2021-08-14T07:39:06Z</time>
      </trkpt>
      <trkpt lat="47.56607" lon="-2.1593">
        <ele>15.4</ele>
        <time>2021-08-14T07:39:08Z</time>
      </trkpt>
      <trkpt lat="47.56607" lon="-2.15932">
        <ele>15.6</ele>
        <time>2021-08-14T07:39:09Z</time>
      </trkpt>
      <trkpt lat="47.56607" lon="-2.15935">
        <ele>16.1</ele>
        <time>2021-08-14T07:39:10Z</time>
      </trkpt>
      <trkpt lat="47.56607" lon="-2.15937">
        <ele>16.2</ele>
        <time>2021-08-14T07:39:12Z</time>
      </trkpt>
      <trkpt lat="47.56607" lon="-2.15938">
        <ele>16.3</ele>
        <time>2021-08-14T07:39:13Z</time>
      </trkpt>
      <trkpt lat="47.56606" lon="-2.15938">
        <ele>16.4</ele>
        <time>2021-08-14T07:39:14Z</time>
      </trkpt>
      <trkpt lat="47.56606" lon="-2.1594">
        <ele>16.6</ele>
        <time>2021-08-14T07:39:15Z</time>
      </trkpt>
      <trkpt lat="47.56606" lon="-2.15946">
        <ele>17.4</ele>
        <time>2021-08-14T07:39:17Z</time>
      </trkpt>
      <trkpt lat="47.56607" lon="-2.15951">
        <ele>18</ele>
        <time>2021-08-14T07:39:18Z</time>
      </trkpt>
      <trkpt lat="47.56607" lon="-2.15954">
        <ele>18.3</ele>
        <time>2021-08-14T07:39:19Z</time>
      </trkpt>
      <trkpt lat="47.56607" lon="-2.15957">
        <ele>18.7</ele>
        <time>2021-08-14T07:39:20Z</time>
      </trkpt>
      <trkpt lat="47.56607" lon="-2.15959">
        <ele>18.9</ele>
        <time>2021-08-14T07:39:22Z</time>
      </trkpt>
      <trkpt lat="47.56607" lon="-2.1596">
        <ele>19</ele>
        <time>2021-08-14T07:39:23Z</time>
      </trkpt>
      <trkpt lat="47.56608" lon="-2.15965">
        <ele>19.5</ele>
        <time>2021-08-14T07:39:25Z</time>
      </trkpt>
      <trkpt lat="47.56608" lon="-2.15966">
        <ele>19.6</ele>
        <time>2021-08-14T07:39:26Z</time>
      </trkpt>
      <trkpt lat="47.56608" lon="-2.1597">
        <ele>20</ele>
        <time>2021-08-14T07:39:27Z</time>
      </trkpt>
      <trkpt lat="47.56608" lon="-2.15973">
        <ele>20.3</ele>
        <time>2021-08-14T07:39:29Z</time>
      </trkpt>
      <trkpt lat="47.56608" lon="-2.15978">
        <ele>20.7</ele>
        <time>2021-08-14T07:39:30Z</time>
      </trkpt>
      <trkpt lat="47.56608" lon="-2.15979">
        <ele>20.9</ele>
        <time>2021-08-14T07:39:31Z</time>
      </trkpt>
      <trkpt lat="47.56608" lon="-2.15983">
        <ele>21.2</ele>
        <time>2021-08-14T07:39:32Z</time>
      </trkpt>
      <trkpt lat="47.56608" lon="-2.15984">
        <ele>21.3</ele>
        <time>2021-08-14T07:39:34Z</time>
      </trkpt>
      <trkpt lat="47.56609" lon="-2.15986">
        <ele>21.5</ele>
        <time>2021-08-14T07:39:35Z</time>
      </trkpt>
      <trkpt lat="47.56609" lon="-2.15989">
        <ele>21.8</ele>
        <time>2021-08-14T07:39:37Z</time>
      </trkpt>
      <trkpt lat="47.56609" lon="-2.15991">
        <ele>22</ele>
        <time>2021-08-14T07:39:38Z</time>
      </trkpt>
      <trkpt lat="47.5661" lon="-2.15994">
        <ele>22.2</ele>
        <time>2021-08-14T07:39:39Z</time>
      </trkpt>
      <trkpt lat="47.5661" lon="-2.15995">
        <ele>22.3</ele>
        <time>2021-08-14T07:39:40Z</time>
      </trkpt>
      <trkpt lat="47.5661" lon="-2.15996">
        <ele>22.4</ele>
        <time>2021-08-14T07:39:41Z</time>
      </trkpt>
      <trkpt lat="47.5661" lon="-2.15997">
        <ele>22.4</ele>
        <time>2021-08-14T07:39:43Z</time>
      </trkpt>
      <trkpt lat="47.5661" lon="-2.15998">
        <ele>22.5</ele>
        <time>2021-08-14T07:39:44Z</time>
      </trkpt>
      <trkpt lat="47.5661" lon="-2.15999">
        <ele>22.6</ele>
        <time>2021-08-14T07:39:45Z</time>
      </trkpt>
      <trkpt lat="47.5661" lon="-2.16">
        <ele>22.7</ele>
        <time>2021-08-14T07:39:46Z</time>
      </trkpt>
      <trkpt lat="47.56611" lon="-2.16005">
        <ele>23</ele>
        <time>2021-08-14T07:39:48Z</time>
      </trkpt>
      <trkpt lat="47.56611" lon="-2.16008">
        <ele>23.3</ele>
        <time>2021-08-14T07:39:49Z</time>
      </trkpt>
      <trkpt lat="47.56612" lon="-2.16015">
        <ele>23.7</ele>
        <time>2021-08-14T07:39:51Z</time>
      </trkpt>
      <trkpt lat="47.56612" lon="-2.16019">
        <ele>24</ele>
        <time>2021-08-14T07:39:52Z</time>
      </trkpt>
      <trkpt lat="47.56612" lon="-2.16025">
        <ele>24.3</ele>
        <time>2021-08-14T07:39:54Z</time>
      </trkpt>
      <trkpt lat="47.56611" lon="-2.1603">
        <ele>24.6</ele>
        <time>2021-08-14T07:39:55Z</time>
      </trkpt>
      <trkpt lat="47.56611" lon="-2.16035">
        <ele>25</ele>
        <time>2021-08-14T07:39:56Z</time>
      </trkpt>
      <trkpt lat="47.56611" lon="-2.16037">
        <ele>25.1</ele>
        <time>2021-08-14T07:39:57Z</time>
      </trkpt>
      <trkpt lat="47.56611" lon="-2.16042">
        <ele>25.4</ele>
        <time>2021-08-14T07:39:59Z</time>
      </trkpt>
      <trkpt lat="47.56611" lon="-2.16043">
        <ele>25.5</ele>
        <time>2021-08-14T07:40:00Z</time>
      </trkpt>
      <trkpt lat="47.5661" lon="-2.16048">
        <ele>25.7</ele>
        <time>2021-08-14T07:40:01Z</time>
      </trkpt>
      <trkpt lat="47.5661" lon="-2.16049">
        <ele>25.8</ele>
        <time>2021-08-14T07:40:02Z</time>
      </trkpt>
      <trkpt lat="47.5661" lon="-2.16054">
        <ele>26.1</ele>
        <time>2021-08-14T07:40:04Z</time>
      </trkpt>
      <trkpt lat="47.56609" lon="-2.16056">
        <ele>26.2</ele>
        <time>2021-08-14T07:40:05Z</time>
      </trkpt>
      <trkpt lat="47.56608" lon="-2.16061">
        <ele>26.5</ele>
        <time>2021-08-14T07:40:07Z</time>
      </trkpt>
      <trkpt lat="47.56608" lon="-2.16063">
        <ele>26.6</ele>
        <time>2021-08-14T07:40:08Z</time>
      </trkpt>
      <trkpt lat="47.56607" lon="-2.16068">
        <ele>26.9</ele>
        <time>2021-08-14T07:40:10Z</time>
      </trkpt>
      <trkpt lat="47.56606" lon="-2.1607">
        <ele>27.3</ele>
        <time>2021-08-14T07:40:11Z</time>
      </trkpt>
      <trkpt lat="47.56606" lon="-2.16072">
        <ele>27.4</ele>
        <time>2021-08-14T07:40:12Z</time>
      </trkpt>
      <trkpt lat="47.56605" lon="-2.16074">
        <ele>27.5</ele>
        <time>2021-08-14T07:40:14Z</time>
      </trkpt>
      <trkpt lat="47.56603" lon="-2.16076">
        <ele>27.7</ele>
        <time>2021-08-14T07:40:15Z</time>
      </trkpt>
      <trkpt lat="47.566" lon="-2.16076">
        <ele>27.9</ele>
        <time>2021-08-14T07:40:17Z</time>
      </trkpt>
      <trkpt lat="47.56598" lon="-2.16076">
        <ele>28</ele>
        <time>2021-08-14T07:40:18Z</time>
      </trkpt>
      <trkpt lat="47.56595" lon="-2.16075">
        <ele>28.2</ele>
        <time>2021-08-14T07:40:20Z</time>
      </trkpt>
      <trkpt lat="47.56592" lon="-2.16075">
        <ele>28.4</ele>
        <time>2021-08-14T07:40:21Z</time>
      </trkpt>
      <trkpt lat="47.56591" lon="-2.16076">
        <ele>28.5</ele>
        <time>2021-08-14T07:40:22Z</time>
      </trkpt>
      <trkpt lat="47.56589" lon="-2.16076">
        <ele>28.6</ele>
        <time>2021-08-14T07:40:23Z</time>
      </trkpt>
      <trkpt lat="47.56586" lon="-2.16077">
        <ele>28.8</ele>
        <time>2021-08-14T07:40:25Z</time>
      </trkpt>
      <trkpt lat="47.56585" lon="-2.16077">
        <ele>28.9</ele>
        <time>2021-08-14T07:40:26Z</time>
      </trkpt>
      <trkpt lat="47.56584" lon="-2.16077">
        <ele>29</ele>
        <time>2021-08-14T07:40:27Z</time>
      </trkpt>
      <trkpt lat="47.56582" lon="-2.16077">
        <ele>29.1</ele>
        <time>2021-08-14T07:40:29Z</time>
      </trkpt>
      <trkpt lat="47.56581" lon="-2.16077">
        <ele>29.2</ele>
        <time>2021-08-14T07:40:30Z</time>
      </trkpt>
      <trkpt lat="47.56579" lon="-2.16077">
        <ele>29.3</ele>
        <time>2021-08-14T07:40:31Z</time>
      </trkpt>
      <trkpt lat="47.56578" lon="-2.16077">
        <ele>29.4</ele>
        <time>2021-08-14T07:40:32Z</time>
      </trkpt>
      <trkpt lat="47.56576" lon="-2.16077">
        <ele>29.6</ele>
        <time>2021-08-14T07:40:34Z</time>
      </trkpt>
      <trkpt lat="47.56574" lon="-2.16077">
        <ele>29.7</ele>
        <time>2021-08-14T07:40:35Z</time>
      </trkpt>
      <trkpt lat="47.56571" lon="-2.16077">
        <ele>29.9</ele>
        <time>2021-08-14T07:40:37Z</time>
      </trkpt>
      <trkpt lat="47.56568" lon="-2.16077">
        <ele>30.2</ele>
        <time>2021-08-14T07:40:38Z</time>
      </trkpt>
      <trkpt lat="47.56565" lon="-2.16077">
        <ele>30.4</ele>
        <time>2021-08-14T07:40:39Z</time>
      </trkpt>
      <trkpt lat="47.56561" lon="-2.16077">
        <ele>30.7</ele>
        <time>2021-08-14T07:40:41Z</time>
      </trkpt>
      <trkpt lat="47.56559" lon="-2.16077">
        <ele>30.8</ele>
        <time>2021-08-14T07:40:42Z</time>
      </trkpt>
      <trkpt lat="47.56558" lon="-2.16077">
        <ele>31</ele>
        <time>2021-08-14T07:40:43Z</time>
      </trkpt>
      <trkpt lat="47.56557" lon="-2.16077">
        <ele>31.1</ele>
        <time>2021-08-14T07:40:44Z</time>
      </trkpt>
      <trkpt lat="47.56555" lon="-2.16078">
        <ele>31.2</ele>
        <time>2021-08-14T07:40:45Z</time>
      </trkpt>
      <trkpt lat="47.56551" lon="-2.16079">
        <ele>31.5</ele>
        <time>2021-08-14T07:40:47Z</time>
      </trkpt>
      <trkpt lat="47.5655" lon="-2.1608">
        <ele>31.6</ele>
        <time>2021-08-14T07:40:48Z</time>
      </trkpt>
      <trkpt lat="47.56547" lon="-2.16081">
        <ele>31.9</ele>
        <time>2021-08-14T07:40:49Z</time>
      </trkpt>
      <trkpt lat="47.56544" lon="-2.16082">
        <ele>32.1</ele>
        <time>2021-08-14T07:40:51Z</time>
      </trkpt>
      <trkpt lat="47.56541" lon="-2.16084">
        <ele>32.4</ele>
        <time>2021-08-14T07:40:52Z</time>
      </trkpt>
      <trkpt lat="47.56539" lon="-2.16085">
        <ele>32.6</ele>
        <time>2021-08-14T07:40:53Z</time>
      </trkpt>
      <trkpt lat="47.56537" lon="-2.16086">
        <ele>32.8</ele>
        <time>2021-08-14T07:40:55Z</time>
      </trkpt>
      <trkpt lat="47.56534" lon="-2.16086">
        <ele>33</ele>
        <time>2021-08-14T07:40:56Z</time>
      </trkpt>
      <trkpt lat="47.56532" lon="-2.16087">
        <ele>33.2</ele>
        <time>2021-08-14T07:40:57Z</time>
      </trkpt>
      <trkpt lat="47.56529" lon="-2.16088">
        <ele>33.4</ele>
        <time>2021-08-14T07:40:59Z</time>
      </trkpt>
      <trkpt lat="47.56526" lon="-2.16089">
        <ele>33.7</ele>
        <time>2021-08-14T07:41:00Z</time>
      </trkpt>
      <trkpt lat="47.56524" lon="-2.16091">
        <ele>33.9</ele>
        <time>2021-08-14T07:41:01Z</time>
      </trkpt>
      <trkpt lat="47.56522" lon="-2.16093">
        <ele>34.1</ele>
        <time>2021-08-14T07:41:02Z</time>
      </trkpt>
      <trkpt lat="47.5652" lon="-2.16094">
        <ele>34.3</ele>
        <time>2021-08-14T07:41:04Z</time>
      </trkpt>
      <trkpt lat="47.56517" lon="-2.16096">
        <ele>34.6</ele>
        <time>2021-08-14T07:41:06Z</time>
      </trkpt>
      <trkpt lat="47.56515" lon="-2.16098">
        <ele>34.8</ele>
        <time>2021-08-14T07:41:07Z</time>
      </trkpt>
      <trkpt lat="47.56511" lon="-2.16101">
        <ele>35.1</ele>
        <time>2021-08-14T07:41:08Z</time>
      </trkpt>
      <trkpt lat="47.5651" lon="-2.16102">
        <ele>35.2</ele>
        <time>2021-08-14T07:41:09Z</time>
      </trkpt>
      <trkpt lat="47.56508" lon="-2.16103">
        <ele>35.4</ele>
        <time>2021-08-14T07:41:10Z</time>
      </trkpt>
      <trkpt lat="47.56505" lon="-2.16105">
        <ele>35.7</ele>
        <time>2021-08-14T07:41:12Z</time>
      </trkpt>
      <trkpt lat="47.56502" lon="-2.16108">
        <ele>35.9</ele>
        <time>2021-08-14T07:41:13Z</time>
      </trkpt>
      <trkpt lat="47.56499" lon="-2.16111">
        <ele>36.2</ele>
        <time>2021-08-14T07:41:15Z</time>
      </trkpt>
      <trkpt lat="47.56497" lon="-2.16114">
        <ele>36.5</ele>
        <time>2021-08-14T07:41:17Z</time>
      </trkpt>
      <trkpt lat="47.56494" lon="-2.16118">
        <ele>36.7</ele>
        <time>2021-08-14T07:41:18Z</time>
      </trkpt>
      <trkpt lat="47.56493" lon="-2.16119">
        <ele>36.8</ele>
        <time>2021-08-14T07:41:19Z</time>
      </trkpt>
      <trkpt lat="47.56491" lon="-2.16125">
        <ele>37.1</ele>
        <time>2021-08-14T07:41:21Z</time>
      </trkpt>
      <trkpt lat="47.5649" lon="-2.16127">
        <ele>37.2</ele>
        <time>2021-08-14T07:41:22Z</time>
      </trkpt>
      <trkpt lat="47.56489" lon="-2.16129">
        <ele>37.4</ele>
        <time>2021-08-14T07:41:23Z</time>
      </trkpt>
      <trkpt lat="47.56488" lon="-2.1613">
        <ele>37.4</ele>
        <time>2021-08-14T07:41:24Z</time>
      </trkpt>
      <trkpt lat="47.56488" lon="-2.16131">
        <ele>37.5</ele>
        <time>2021-08-14T07:41:25Z</time>
      </trkpt>
      <trkpt lat="47.56487" lon="-2.16132">
        <ele>37.6</ele>
        <time>2021-08-14T07:41:26Z</time>
      </trkpt>
      <trkpt lat="47.56484" lon="-2.16136">
        <ele>37.8</ele>
        <time>2021-08-14T07:41:28Z</time>
      </trkpt>
      <trkpt lat="47.56483" lon="-2.16137">
        <ele>37.8</ele>
        <time>2021-08-14T07:41:29Z</time>
      </trkpt>
      <trkpt lat="47.56482" lon="-2.16139">
        <ele>37.9</ele>
        <time>2021-08-14T07:41:30Z</time>
      </trkpt>
      <trkpt lat="47.56481" lon="-2.1614">
        <ele>38</ele>
        <time>2021-08-14T07:41:31Z</time>
      </trkpt>
      <trkpt lat="47.56479" lon="-2.16144">
        <ele>38.2</ele>
        <time>2021-08-14T07:41:32Z</time>
      </trkpt>
      <trkpt lat="47.56478" lon="-2.16145">
        <ele>38.3</ele>
        <time>2021-08-14T07:41:33Z</time>
      </trkpt>
      <trkpt lat="47.56475" lon="-2.1615">
        <ele>38.6</ele>
        <time>2021-08-14T07:41:35Z</time>
      </trkpt>
      <trkpt lat="47.56473" lon="-2.16154">
        <ele>38.8</ele>
        <time>2021-08-14T07:41:36Z</time>
      </trkpt>
      <trkpt lat="47.56471" lon="-2.16158">
        <ele>39</ele>
        <time>2021-08-14T07:41:37Z</time>
      </trkpt>
      <trkpt lat="47.56469" lon="-2.16163">
        <ele>39.3</ele>
        <time>2021-08-14T07:41:39Z</time>
      </trkpt>
      <trkpt lat="47.56467" lon="-2.16167">
        <ele>39.5</ele>
        <time>2021-08-14T07:41:40Z</time>
      </trkpt>
      <trkpt lat="47.56466" lon="-2.1617">
        <ele>39.7</ele>
        <time>2021-08-14T07:41:41Z</time>
      </trkpt>
      <trkpt lat="47.56464" lon="-2.16175">
        <ele>39.9</ele>
        <time>2021-08-14T07:41:42Z</time>
      </trkpt>
      <trkpt lat="47.56462" lon="-2.16178">
        <ele>40</ele>
        <time>2021-08-14T07:41:43Z</time>
      </trkpt>
      <trkpt lat="47.5646" lon="-2.16182">
        <ele>40.2</ele>
        <time>2021-08-14T07:41:45Z</time>
      </trkpt>
      <trkpt lat="47.56457" lon="-2.16186">
        <ele>40.4</ele>
        <time>2021-08-14T07:41:46Z</time>
      </trkpt>
      <trkpt lat="47.56455" lon="-2.16191">
        <ele>40.6</ele>
        <time>2021-08-14T07:41:48Z</time>
      </trkpt>
      <trkpt lat="47.56452" lon="-2.16194">
        <ele>40.8</ele>
        <time>2021-08-14T07:41:50Z</time>
      </trkpt>
      <trkpt lat="47.5645" lon="-2.16198">
        <ele>40.9</ele>
        <time>2021-08-14T07:41:51Z</time>
      </trkpt>
      <trkpt lat="47.56447" lon="-2.16201">
        <ele>41.1</ele>
        <time>2021-08-14T07:41:53Z</time>
      </trkpt>
      <trkpt lat="47.56445" lon="-2.16203">
        <ele>41.1</ele>
        <time>2021-08-14T07:41:54Z</time>
      </trkpt>
      <trkpt lat="47.56443" lon="-2.16205">
        <ele>41.2</ele>
        <time>2021-08-14T07:41:55Z</time>
      </trkpt>
      <trkpt lat="47.5644" lon="-2.16207">
        <ele>41.2</ele>
        <time>2021-08-14T07:41:57Z</time>
      </trkpt>
      <trkpt lat="47.56437" lon="-2.1621">
        <ele>41.2</ele>
        <time>2021-08-14T07:41:59Z</time>
      </trkpt>
      <trkpt lat="47.56434" lon="-2.16211">
        <ele>41.2</ele>
        <time>2021-08-14T07:42:00Z</time>
      </trkpt>
      <trkpt lat="47.56431" lon="-2.16214">
        <ele>41.2</ele>
        <time>2021-08-14T07:42:02Z</time>
      </trkpt>
      <trkpt lat="47.56428" lon="-2.16216">
        <ele>41.1</ele>
        <time>2021-08-14T07:42:03Z</time>
      </trkpt>
      <trkpt lat="47.56424" lon="-2.16217">
        <ele>41</ele>
        <time>2021-08-14T07:42:05Z</time>
      </trkpt>
      <trkpt lat="47.56419" lon="-2.16221">
        <ele>40.9</ele>
        <time>2021-08-14T07:42:06Z</time>
      </trkpt>
      <trkpt lat="47.56415" lon="-2.16223">
        <ele>40.9</ele>
        <time>2021-08-14T07:42:07Z</time>
      </trkpt>
      <trkpt lat="47.56411" lon="-2.16225">
        <ele>40.8</ele>
        <time>2021-08-14T07:42:08Z</time>
      </trkpt>
      <trkpt lat="47.56406" lon="-2.16226">
        <ele>40.8</ele>
        <time>2021-08-14T07:42:10Z</time>
      </trkpt>
      <trkpt lat="47.564" lon="-2.16229">
        <ele>40.8</ele>
        <time>2021-08-14T07:42:12Z</time>
      </trkpt>
      <trkpt lat="47.56396" lon="-2.16231">
        <ele>40.7</ele>
        <time>2021-08-14T07:42:13Z</time>
      </trkpt>
      <trkpt lat="47.56395" lon="-2.16232">
        <ele>40.7</ele>
        <time>2021-08-14T07:42:14Z</time>
      </trkpt>
      <trkpt lat="47.56393" lon="-2.16233">
        <ele>40.7</ele>
        <time>2021-08-14T07:42:15Z</time>
      </trkpt>
      <trkpt lat="47.5639" lon="-2.16235">
        <ele>40.7</ele>
        <time>2021-08-14T07:42:17Z</time>
      </trkpt>
      <trkpt lat="47.56388" lon="-2.16237">
        <ele>40.7</ele>
        <time>2021-08-14T07:42:18Z</time>
      </trkpt>
      <trkpt lat="47.56385" lon="-2.16237">
        <ele>40.7</ele>
        <time>2021-08-14T07:42:19Z</time>
      </trkpt>
      <trkpt lat="47.5638" lon="-2.16238">
        <ele>40.7</ele>
        <time>2021-08-14T07:42:21Z</time>
      </trkpt>
      <trkpt lat="47.56377" lon="-2.16238">
        <ele>40.7</ele>
        <time>2021-08-14T07:42:22Z</time>
      </trkpt>
      <trkpt lat="47.56373" lon="-2.16238">
        <ele>40.8</ele>
        <time>2021-08-14T07:42:23Z</time>
      </trkpt>
      <trkpt lat="47.56369" lon="-2.16239">
        <ele>40.9</ele>
        <time>2021-08-14T07:42:25Z</time>
      </trkpt>
      <trkpt lat="47.56365" lon="-2.16239">
        <ele>40.9</ele>
        <time>2021-08-14T07:42:26Z</time>
      </trkpt>
      <trkpt lat="47.56362" lon="-2.1624">
        <ele>41</ele>
        <time>2021-08-14T07:42:27Z</time>
      </trkpt>
      <trkpt lat="47.56358" lon="-2.1624">
        <ele>41.1</ele>
        <time>2021-08-14T07:42:28Z</time>
      </trkpt>
      <trkpt lat="47.56355" lon="-2.16241">
        <ele>41.2</ele>
        <time>2021-08-14T07:42:29Z</time>
      </trkpt>
      <trkpt lat="47.56352" lon="-2.16241">
        <ele>41.2</ele>
        <time>2021-08-14T07:42:30Z</time>
      </trkpt>
      <trkpt lat="47.56349" lon="-2.16241">
        <ele>41.3</ele>
        <time>2021-08-14T07:42:31Z</time>
      </trkpt>
      <trkpt lat="47.56345" lon="-2.16242">
        <ele>41.4</ele>
        <time>2021-08-14T07:42:33Z</time>
      </trkpt>
      <trkpt lat="47.56342" lon="-2.16242">
        <ele>41.5</ele>
        <time>2021-08-14T07:42:34Z</time>
      </trkpt>
      <trkpt lat="47.5634" lon="-2.16242">
        <ele>41.6</ele>
        <time>2021-08-14T07:42:35Z</time>
      </trkpt>
      <trkpt lat="47.56337" lon="-2.16243">
        <ele>41.7</ele>
        <time>2021-08-14T07:42:37Z</time>
      </trkpt>
      <trkpt lat="47.56334" lon="-2.16244">
        <ele>41.8</ele>
        <time>2021-08-14T07:42:38Z</time>
      </trkpt>
      <trkpt lat="47.5633" lon="-2.16245">
        <ele>41.9</ele>
        <time>2021-08-14T07:42:39Z</time>
      </trkpt>
      <trkpt lat="47.56326" lon="-2.16246">
        <ele>42</ele>
        <time>2021-08-14T07:42:40Z</time>
      </trkpt>
      <trkpt lat="47.56323" lon="-2.16247">
        <ele>42.1</ele>
        <time>2021-08-14T07:42:42Z</time>
      </trkpt>
      <trkpt lat="47.5632" lon="-2.16248">
        <ele>42.3</ele>
        <time>2021-08-14T07:42:43Z</time>
      </trkpt>
      <trkpt lat="47.56315" lon="-2.16249">
        <ele>42.5</ele>
        <time>2021-08-14T07:42:44Z</time>
      </trkpt>
      <trkpt lat="47.56312" lon="-2.1625">
        <ele>42.7</ele>
        <time>2021-08-14T07:42:45Z</time>
      </trkpt>
      <trkpt lat="47.56307" lon="-2.16255">
        <ele>43.2</ele>
        <time>2021-08-14T07:42:47Z</time>
      </trkpt>
      <trkpt lat="47.56305" lon="-2.16261">
        <ele>43.5</ele>
        <time>2021-08-14T07:42:48Z</time>
      </trkpt>
      <trkpt lat="47.56305" lon="-2.16267">
        <ele>43.9</ele>
        <time>2021-08-14T07:42:50Z</time>
      </trkpt>
      <trkpt lat="47.56305" lon="-2.16273">
        <ele>44.2</ele>
        <time>2021-08-14T07:42:51Z</time>
      </trkpt>
      <trkpt lat="47.56305" lon="-2.16277">
        <ele>44.4</ele>
        <time>2021-08-14T07:42:52Z</time>
      </trkpt>
      <trkpt lat="47.56305" lon="-2.16284">
        <ele>44.7</ele>
        <time>2021-08-14T07:42:54Z</time>
      </trkpt>
      <trkpt lat="47.56305" lon="-2.16286">
        <ele>44.9</ele>
        <time>2021-08-14T07:42:55Z</time>
      </trkpt>
      <trkpt lat="47.56304" lon="-2.16291">
        <ele>45.1</ele>
        <time>2021-08-14T07:42:57Z</time>
      </trkpt>
      <trkpt lat="47.56304" lon="-2.16294">
        <ele>45.3</ele>
        <time>2021-08-14T07:42:58Z</time>
      </trkpt>
      <trkpt lat="47.56304" lon="-2.16298">
        <ele>45.5</ele>
        <time>2021-08-14T07:43:00Z</time>
      </trkpt>
      <trkpt lat="47.56304" lon="-2.16302">
        <ele>45.7</ele>
        <time>2021-08-14T07:43:01Z</time>
      </trkpt>
      <trkpt lat="47.56304" lon="-2.16307">
        <ele>45.9</ele>
        <time>2021-08-14T07:43:02Z</time>
      </trkpt>
      <trkpt lat="47.56305" lon="-2.16308">
        <ele>45.9</ele>
        <time>2021-08-14T07:43:03Z</time>
      </trkpt>
      <trkpt lat="47.56305" lon="-2.16314">
        <ele>46.2</ele>
        <time>2021-08-14T07:43:05Z</time>
      </trkpt>
      <trkpt lat="47.56305" lon="-2.16316">
        <ele>46.3</ele>
        <time>2021-08-14T07:43:06Z</time>
      </trkpt>
      <trkpt lat="47.56305" lon="-2.1632">
        <ele>46.4</ele>
        <time>2021-08-14T07:43:07Z</time>
      </trkpt>
      <trkpt lat="47.56305" lon="-2.16323">
        <ele>46.5</ele>
        <time>2021-08-14T07:43:09Z</time>
      </trkpt>
      <trkpt lat="47.56304" lon="-2.16329">
        <ele>46.6</ele>
        <time>2021-08-14T07:43:10Z</time>
      </trkpt>
      <trkpt lat="47.56304" lon="-2.1633">
        <ele>46.7</ele>
        <time>2021-08-14T07:43:11Z</time>
      </trkpt>
      <trkpt lat="47.56304" lon="-2.16334">
        <ele>46.8</ele>
        <time>2021-08-14T07:43:12Z</time>
      </trkpt>
      <trkpt lat="47.56304" lon="-2.16338">
        <ele>46.9</ele>
        <time>2021-08-14T07:43:14Z</time>
      </trkpt>
      <trkpt lat="47.56305" lon="-2.16342">
        <ele>47</ele>
        <time>2021-08-14T07:43:15Z</time>
      </trkpt>
      <trkpt lat="47.56305" lon="-2.16347">
        <ele>47.1</ele>
        <time>2021-08-14T07:43:16Z</time>
      </trkpt>
      <trkpt lat="47.56305" lon="-2.16349">
        <ele>47.2</ele>
        <time>2021-08-14T07:43:17Z</time>
      </trkpt>
      <trkpt lat="47.56306" lon="-2.16355">
        <ele>47.3</ele>
        <time>2021-08-14T07:43:19Z</time>
      </trkpt>
      <trkpt lat="47.56306" lon="-2.16359">
        <ele>47.4</ele>
        <time>2021-08-14T07:43:20Z</time>
      </trkpt>
      <trkpt lat="47.56307" lon="-2.16363">
        <ele>47.5</ele>
        <time>2021-08-14T07:43:22Z</time>
      </trkpt>
      <trkpt lat="47.56309" lon="-2.16367">
        <ele>47.6</ele>
        <time>2021-08-14T07:43:23Z</time>
      </trkpt>
      <trkpt lat="47.5631" lon="-2.16372">
        <ele>47.7</ele>
        <time>2021-08-14T07:43:25Z</time>
      </trkpt>
      <trkpt lat="47.56312" lon="-2.16376">
        <ele>47.8</ele>
        <time>2021-08-14T07:43:26Z</time>
      </trkpt>
      <trkpt lat="47.56314" lon="-2.16381">
        <ele>48</ele>
        <time>2021-08-14T07:43:28Z</time>
      </trkpt>
      <trkpt lat="47.56315" lon="-2.16385">
        <ele>48.1</ele>
        <time>2021-08-14T07:43:29Z</time>
      </trkpt>
      <trkpt lat="47.56317" lon="-2.1639">
        <ele>48.3</ele>
        <time>2021-08-14T07:43:31Z</time>
      </trkpt>
      <trkpt lat="47.56318" lon="-2.16393">
        <ele>48.3</ele>
        <time>2021-08-14T07:43:32Z</time>
      </trkpt>
      <trkpt lat="47.5632" lon="-2.16399">
        <ele>48.5</ele>
        <time>2021-08-14T07:43:34Z</time>
      </trkpt>
      <trkpt lat="47.56321" lon="-2.16402">
        <ele>48.6</ele>
        <time>2021-08-14T07:43:35Z</time>
      </trkpt>
      <trkpt lat="47.56322" lon="-2.16407">
        <ele>48.7</ele>
        <time>2021-08-14T07:43:37Z</time>
      </trkpt>
      <trkpt lat="47.56322" lon="-2.16411">
        <ele>48.7</ele>
        <time>2021-08-14T07:43:38Z</time>
      </trkpt>
      <trkpt lat="47.56322" lon="-2.16416">
        <ele>48.8</ele>
        <time>2021-08-14T07:43:40Z</time>
      </trkpt>
      <trkpt lat="47.56322" lon="-2.1642">
        <ele>48.9</ele>
        <time>2021-08-14T07:43:41Z</time>
      </trkpt>
      <trkpt lat="47.56322" lon="-2.16424">
        <ele>48.9</ele>
        <time>2021-08-14T07:43:42Z</time>
      </trkpt>
      <trkpt lat="47.56322" lon="-2.1643">
        <ele>49</ele>
        <time>2021-08-14T07:43:44Z</time>
      </trkpt>
      <trkpt lat="47.56322" lon="-2.16434">
        <ele>49.1</ele>
        <time>2021-08-14T07:43:45Z</time>
      </trkpt>
      <trkpt lat="47.56323" lon="-2.16441">
        <ele>49.2</ele>
        <time>2021-08-14T07:43:47Z</time>
      </trkpt>
      <trkpt lat="47.56324" lon="-2.16445">
        <ele>49.2</ele>
        <time>2021-08-14T07:43:48Z</time>
      </trkpt>
      <trkpt lat="47.56324" lon="-2.16449">
        <ele>49.2</ele>
        <time>2021-08-14T07:43:49Z</time>
      </trkpt>
      <trkpt lat="47.56326" lon="-2.16454">
        <ele>49.3</ele>
        <time>2021-08-14T07:43:51Z</time>
      </trkpt>
      <trkpt lat="47.56327" lon="-2.16458">
        <ele>49.3</ele>
        <time>2021-08-14T07:43:52Z</time>
      </trkpt>
      <trkpt lat="47.56328" lon="-2.16463">
        <ele>49.4</ele>
        <time>2021-08-14T07:43:53Z</time>
      </trkpt>
      <trkpt lat="47.56328" lon="-2.16469">
        <ele>49.4</ele>
        <time>2021-08-14T07:43:55Z</time>
      </trkpt>
      <trkpt lat="47.56329" lon="-2.16476">
        <ele>49.4</ele>
        <time>2021-08-14T07:43:56Z</time>
      </trkpt>
      <trkpt lat="47.56329" lon="-2.16482">
        <ele>49.5</ele>
        <time>2021-08-14T07:43:58Z</time>
      </trkpt>
      <trkpt lat="47.56329" lon="-2.16487">
        <ele>49.5</ele>
        <time>2021-08-14T07:43:59Z</time>
      </trkpt>
      <trkpt lat="47.56329" lon="-2.16493">
        <ele>49.5</ele>
        <time>2021-08-14T07:44:01Z</time>
      </trkpt>
      <trkpt lat="47.56329" lon="-2.165">
        <ele>49.6</ele>
        <time>2021-08-14T07:44:02Z</time>
      </trkpt>
      <trkpt lat="47.5633" lon="-2.16505">
        <ele>49.6</ele>
        <time>2021-08-14T07:44:04Z</time>
      </trkpt>
      <trkpt lat="47.56331" lon="-2.16511">
        <ele>49.6</ele>
        <time>2021-08-14T07:44:05Z</time>
      </trkpt>
      <trkpt lat="47.56331" lon="-2.16516">
        <ele>49.7</ele>
        <time>2021-08-14T07:44:06Z</time>
      </trkpt>
      <trkpt lat="47.56331" lon="-2.16522">
        <ele>49.7</ele>
        <time>2021-08-14T07:44:07Z</time>
      </trkpt>
      <trkpt lat="47.56331" lon="-2.16526">
        <ele>49.7</ele>
        <time>2021-08-14T07:44:08Z</time>
      </trkpt>
      <trkpt lat="47.56333" lon="-2.16531">
        <ele>49.8</ele>
        <time>2021-08-14T07:44:10Z</time>
      </trkpt>
      <trkpt lat="47.56336" lon="-2.16534">
        <ele>49.8</ele>
        <time>2021-08-14T07:44:11Z</time>
      </trkpt>
      <trkpt lat="47.56339" lon="-2.16535">
        <ele>49.8</ele>
        <time>2021-08-14T07:44:12Z</time>
      </trkpt>
      <trkpt lat="47.56342" lon="-2.16536">
        <ele>49.8</ele>
        <time>2021-08-14T07:44:14Z</time>
      </trkpt>
      <trkpt lat="47.56344" lon="-2.1654">
        <ele>49.8</ele>
        <time>2021-08-14T07:44:15Z</time>
      </trkpt>
      <trkpt lat="47.56346" lon="-2.16542">
        <ele>49.9</ele>
        <time>2021-08-14T07:44:16Z</time>
      </trkpt>
      <trkpt lat="47.5635" lon="-2.16546">
        <ele>49.9</ele>
        <time>2021-08-14T07:44:18Z</time>
      </trkpt>
      <trkpt lat="47.56352" lon="-2.16549">
        <ele>49.9</ele>
        <time>2021-08-14T07:44:19Z</time>
      </trkpt>
      <trkpt lat="47.56354" lon="-2.16552">
        <ele>49.9</ele>
        <time>2021-08-14T07:44:20Z</time>
      </trkpt>
      <trkpt lat="47.56355" lon="-2.16556">
        <ele>49.9</ele>
        <time>2021-08-14T07:44:22Z</time>
      </trkpt>
      <trkpt lat="47.56356" lon="-2.1656">
        <ele>49.9</ele>
        <time>2021-08-14T07:44:23Z</time>
      </trkpt>
      <trkpt lat="47.56358" lon="-2.16565">
        <ele>49.9</ele>
        <time>2021-08-14T07:44:24Z</time>
      </trkpt>
      <trkpt lat="47.56359" lon="-2.16566">
        <ele>49.8</ele>
        <time>2021-08-14T07:44:25Z</time>
      </trkpt>
      <trkpt lat="47.56361" lon="-2.16571">
        <ele>49.8</ele>
        <time>2021-08-14T07:44:26Z</time>
      </trkpt>
      <trkpt lat="47.56361" lon="-2.16572">
        <ele>49.8</ele>
        <time>2021-08-14T07:44:27Z</time>
      </trkpt>
      <trkpt lat="47.56364" lon="-2.16577">
        <ele>49.8</ele>
        <time>2021-08-14T07:44:28Z</time>
      </trkpt>
      <trkpt lat="47.56365" lon="-2.16578">
        <ele>49.8</ele>
        <time>2021-08-14T07:44:29Z</time>
      </trkpt>
      <trkpt lat="47.56366" lon="-2.16583">
        <ele>49.8</ele>
        <time>2021-08-14T07:44:31Z</time>
      </trkpt>
      <trkpt lat="47.56367" lon="-2.16589">
        <ele>49.9</ele>
        <time>2021-08-14T07:44:32Z</time>
      </trkpt>
      <trkpt lat="47.5637" lon="-2.16598">
        <ele>49.9</ele>
        <time>2021-08-14T07:44:34Z</time>
      </trkpt>
      <trkpt lat="47.56371" lon="-2.16602">
        <ele>49.9</ele>
        <time>2021-08-14T07:44:35Z</time>
      </trkpt>
      <trkpt lat="47.56372" lon="-2.16606">
        <ele>49.9</ele>
        <time>2021-08-14T07:44:36Z</time>
      </trkpt>
      <trkpt lat="47.56374" lon="-2.16615">
        <ele>50</ele>
        <time>2021-08-14T07:44:38Z</time>
      </trkpt>
      <trkpt lat="47.56374" lon="-2.16619">
        <ele>50</ele>
        <time>2021-08-14T07:44:39Z</time>
      </trkpt>
      <trkpt lat="47.56376" lon="-2.16627">
        <ele>50</ele>
        <time>2021-08-14T07:44:41Z</time>
      </trkpt>
      <trkpt lat="47.56377" lon="-2.16631">
        <ele>50.1</ele>
        <time>2021-08-14T07:44:42Z</time>
      </trkpt>
      <trkpt lat="47.56379" lon="-2.16638">
        <ele>50.1</ele>
        <time>2021-08-14T07:44:44Z</time>
      </trkpt>
      <trkpt lat="47.56381" lon="-2.16642">
        <ele>50.2</ele>
        <time>2021-08-14T07:44:45Z</time>
      </trkpt>
      <trkpt lat="47.56383" lon="-2.16647">
        <ele>50.2</ele>
        <time>2021-08-14T07:44:46Z</time>
      </trkpt>
      <trkpt lat="47.56385" lon="-2.1665">
        <ele>50.3</ele>
        <time>2021-08-14T07:44:47Z</time>
      </trkpt>
      <trkpt lat="47.56388" lon="-2.16655">
        <ele>50.3</ele>
        <time>2021-08-14T07:44:49Z</time>
      </trkpt>
      <trkpt lat="47.5639" lon="-2.1666">
        <ele>50.4</ele>
        <time>2021-08-14T07:44:50Z</time>
      </trkpt>
      <trkpt lat="47.56391" lon="-2.16666">
        <ele>50.5</ele>
        <time>2021-08-14T07:44:51Z</time>
      </trkpt>
      <trkpt lat="47.5639" lon="-2.16672">
        <ele>50.5</ele>
        <time>2021-08-14T07:44:52Z</time>
      </trkpt>
      <trkpt lat="47.5639" lon="-2.16677">
        <ele>50.6</ele>
        <time>2021-08-14T07:44:54Z</time>
      </trkpt>
      <trkpt lat="47.5639" lon="-2.16682">
        <ele>50.6</ele>
        <time>2021-08-14T07:44:55Z</time>
      </trkpt>
      <trkpt lat="47.56392" lon="-2.16686">
        <ele>50.6</ele>
        <time>2021-08-14T07:44:56Z</time>
      </trkpt>
      <trkpt lat="47.56396" lon="-2.16689">
        <ele>50.6</ele>
        <time>2021-08-14T07:44:58Z</time>
      </trkpt>
      <trkpt lat="47.56399" lon="-2.16693">
        <ele>50.6</ele>
        <time>2021-08-14T07:44:59Z</time>
      </trkpt>
      <trkpt lat="47.56398" lon="-2.16697">
        <ele>50.5</ele>
        <time>2021-08-14T07:45:00Z</time>
      </trkpt>
      <trkpt lat="47.56397" lon="-2.16698">
        <ele>50.5</ele>
        <time>2021-08-14T07:45:01Z</time>
      </trkpt>
      <trkpt lat="47.56394" lon="-2.167">
        <ele>50.1</ele>
        <time>2021-08-14T07:45:03Z</time>
      </trkpt>
      <trkpt lat="47.56392" lon="-2.16701">
        <ele>50</ele>
        <time>2021-08-14T07:45:04Z</time>
      </trkpt>
      <trkpt lat="47.56389" lon="-2.16701">
        <ele>49.8</ele>
        <time>2021-08-14T07:45:06Z</time>
      </trkpt>
      <trkpt lat="47.56387" lon="-2.16702">
        <ele>49.7</ele>
        <time>2021-08-14T07:45:07Z</time>
      </trkpt>
      <trkpt lat="47.56385" lon="-2.16704">
        <ele>49.5</ele>
        <time>2021-08-14T07:45:09Z</time>
      </trkpt>
      <trkpt lat="47.56382" lon="-2.16703">
        <ele>49.3</ele>
        <time>2021-08-14T07:45:11Z</time>
      </trkpt>
      <trkpt lat="47.56379" lon="-2.16702">
        <ele>49</ele>
        <time>2021-08-14T07:45:12Z</time>
      </trkpt>
      <trkpt lat="47.56376" lon="-2.16701">
        <ele>48.8</ele>
        <time>2021-08-14T07:45:13Z</time>
      </trkpt>
      <trkpt lat="47.5637" lon="-2.16699">
        <ele>48.2</ele>
        <time>2021-08-14T07:45:15Z</time>
      </trkpt>
      <trkpt lat="47.56365" lon="-2.16698">
        <ele>47.6</ele>
        <time>2021-08-14T07:45:17Z</time>
      </trkpt>
      <trkpt lat="47.56359" lon="-2.16698">
        <ele>47</ele>
        <time>2021-08-14T07:45:18Z</time>
      </trkpt>
      <trkpt lat="47.56354" lon="-2.16698">
        <ele>46.3</ele>
        <time>2021-08-14T07:45:19Z</time>
      </trkpt>
      <trkpt lat="47.56345" lon="-2.16699">
        <ele>45.4</ele>
        <time>2021-08-14T07:45:20Z</time>
      </trkpt>
      <trkpt lat="47.56338" lon="-2.16698">
        <ele>44.6</ele>
        <time>2021-08-14T07:45:22Z</time>
      </trkpt>
      <trkpt lat="47.56329" lon="-2.16696">
        <ele>43.8</ele>
        <time>2021-08-14T07:45:23Z</time>
      </trkpt>
      <trkpt lat="47.56322" lon="-2.16697">
        <ele>43.2</ele>
        <time>2021-08-14T07:45:25Z</time>
      </trkpt>
      <trkpt lat="47.56316" lon="-2.16698">
        <ele>42.7</ele>
        <time>2021-08-14T07:45:26Z</time>
      </trkpt>
      <trkpt lat="47.56311" lon="-2.167">
        <ele>42.1</ele>
        <time>2021-08-14T07:45:27Z</time>
      </trkpt>
      <trkpt lat="47.56307" lon="-2.16701">
        <ele>41.6</ele>
        <time>2021-08-14T07:45:28Z</time>
      </trkpt>
      <trkpt lat="47.56302" lon="-2.16703">
        <ele>41</ele>
        <time>2021-08-14T07:45:30Z</time>
      </trkpt>
      <trkpt lat="47.56298" lon="-2.16703">
        <ele>40.5</ele>
        <time>2021-08-14T07:45:31Z</time>
      </trkpt>
      <trkpt lat="47.56295" lon="-2.16701">
        <ele>40</ele>
        <time>2021-08-14T07:45:32Z</time>
      </trkpt>
      <trkpt lat="47.56288" lon="-2.16702">
        <ele>39.1</ele>
        <time>2021-08-14T07:45:34Z</time>
      </trkpt>
      <trkpt lat="47.56278" lon="-2.16707">
        <ele>37.7</ele>
        <time>2021-08-14T07:45:36Z</time>
      </trkpt>
      <trkpt lat="47.56273" lon="-2.1671">
        <ele>36.9</ele>
        <time>2021-08-14T07:45:37Z</time>
      </trkpt>
      <trkpt lat="47.56265" lon="-2.16714">
        <ele>35.8</ele>
        <time>2021-08-14T07:45:39Z</time>
      </trkpt>
      <trkpt lat="47.5626" lon="-2.16718">
        <ele>35.1</ele>
        <time>2021-08-14T07:45:40Z</time>
      </trkpt>
      <trkpt lat="47.56255" lon="-2.1672">
        <ele>34.5</ele>
        <time>2021-08-14T07:45:41Z</time>
      </trkpt>
      <trkpt lat="47.56247" lon="-2.16725">
        <ele>33.6</ele>
        <time>2021-08-14T07:45:43Z</time>
      </trkpt>
      <trkpt lat="47.56241" lon="-2.1673">
        <ele>32.9</ele>
        <time>2021-08-14T07:45:44Z</time>
      </trkpt>
      <trkpt lat="47.56236" lon="-2.16734">
        <ele>32.2</ele>
        <time>2021-08-14T07:45:45Z</time>
      </trkpt>
      <trkpt lat="47.56231" lon="-2.16737">
        <ele>31.7</ele>
        <time>2021-08-14T07:45:46Z</time>
      </trkpt>
      <trkpt lat="47.56224" lon="-2.16744">
        <ele>30.9</ele>
        <time>2021-08-14T07:45:48Z</time>
      </trkpt>
      <trkpt lat="47.56218" lon="-2.16751">
        <ele>30.2</ele>
        <time>2021-08-14T07:45:49Z</time>
      </trkpt>
      <trkpt lat="47.56206" lon="-2.16765">
        <ele>28.9</ele>
        <time>2021-08-14T07:45:50Z</time>
      </trkpt>
      <trkpt lat="47.56202" lon="-2.16769">
        <ele>28.3</ele>
        <time>2021-08-14T07:45:51Z</time>
      </trkpt>
      <trkpt lat="47.56198" lon="-2.16773">
        <ele>27.8</ele>
        <time>2021-08-14T07:45:52Z</time>
      </trkpt>
      <trkpt lat="47.56196" lon="-2.16778">
        <ele>27.3</ele>
        <time>2021-08-14T07:45:54Z</time>
      </trkpt>
      <trkpt lat="47.56194" lon="-2.16779">
        <ele>27</ele>
        <time>2021-08-14T07:45:55Z</time>
      </trkpt>
      <trkpt lat="47.56192" lon="-2.16781">
        <ele>26.8</ele>
        <time>2021-08-14T07:45:56Z</time>
      </trkpt>
      <trkpt lat="47.56191" lon="-2.16783">
        <ele>26.5</ele>
        <time>2021-08-14T07:45:57Z</time>
      </trkpt>
      <trkpt lat="47.56189" lon="-2.16785">
        <ele>26.3</ele>
        <time>2021-08-14T07:45:59Z</time>
      </trkpt>
      <trkpt lat="47.56188" lon="-2.16787">
        <ele>26</ele>
        <time>2021-08-14T07:46:00Z</time>
      </trkpt>
      <trkpt lat="47.5618" lon="-2.16793">
        <ele>25</ele>
        <time>2021-08-14T07:46:02Z</time>
      </trkpt>
      <trkpt lat="47.56175" lon="-2.16796">
        <ele>24.5</ele>
        <time>2021-08-14T07:46:03Z</time>
      </trkpt>
      <trkpt lat="47.56173" lon="-2.16798">
        <ele>24.3</ele>
        <time>2021-08-14T07:46:04Z</time>
      </trkpt>
      <trkpt lat="47.56168" lon="-2.16803">
        <ele>23.7</ele>
        <time>2021-08-14T07:46:06Z</time>
      </trkpt>
      <trkpt lat="47.56162" lon="-2.16807">
        <ele>23</ele>
        <time>2021-08-14T07:46:08Z</time>
      </trkpt>
      <trkpt lat="47.56155" lon="-2.1681">
        <ele>22.2</ele>
        <time>2021-08-14T07:46:09Z</time>
      </trkpt>
      <trkpt lat="47.5613" lon="-2.16827">
        <ele>18.5</ele>
        <time>2021-08-14T07:46:11Z</time>
      </trkpt>
      <trkpt lat="47.56121" lon="-2.16833">
        <ele>17</ele>
        <time>2021-08-14T07:46:12Z</time>
      </trkpt>
      <trkpt lat="47.56105" lon="-2.16843">
        <ele>14.6</ele>
        <time>2021-08-14T07:46:14Z</time>
      </trkpt>
      <trkpt lat="47.56092" lon="-2.16852">
        <ele>12.8</ele>
        <time>2021-08-14T07:46:16Z</time>
      </trkpt>
      <trkpt lat="47.5608" lon="-2.16866">
        <ele>11.5</ele>
        <time>2021-08-14T07:46:18Z</time>
      </trkpt>
      <trkpt lat="47.56075" lon="-2.16871">
        <ele>11.1</ele>
        <time>2021-08-14T07:46:19Z</time>
      </trkpt>
      <trkpt lat="47.56074" lon="-2.16875">
        <ele>11</ele>
        <time>2021-08-14T07:46:21Z</time>
      </trkpt>
      <trkpt lat="47.56072" lon="-2.16876">
        <ele>10.9</ele>
        <time>2021-08-14T07:46:22Z</time>
      </trkpt>
      <trkpt lat="47.56069" lon="-2.16878">
        <ele>10.7</ele>
        <time>2021-08-14T07:46:23Z</time>
      </trkpt>
      <trkpt lat="47.56063" lon="-2.1688">
        <ele>10.5</ele>
        <time>2021-08-14T07:46:25Z</time>
      </trkpt>
      <trkpt lat="47.56057" lon="-2.16882">
        <ele>10.4</ele>
        <time>2021-08-14T07:46:27Z</time>
      </trkpt>
      <trkpt lat="47.56054" lon="-2.16883">
        <ele>10.3</ele>
        <time>2021-08-14T07:46:28Z</time>
      </trkpt>
      <trkpt lat="47.56051" lon="-2.16885">
        <ele>10.2</ele>
        <time>2021-08-14T07:46:29Z</time>
      </trkpt>
      <trkpt lat="47.56048" lon="-2.16889">
        <ele>10.1</ele>
        <time>2021-08-14T07:46:30Z</time>
      </trkpt>
      <trkpt lat="47.56041" lon="-2.16894">
        <ele>10</ele>
        <time>2021-08-14T07:46:32Z</time>
      </trkpt>
      <trkpt lat="47.56037" lon="-2.169">
        <ele>10</ele>
        <time>2021-08-14T07:46:34Z</time>
      </trkpt>
      <trkpt lat="47.56036" lon="-2.16909">
        <ele>9.8</ele>
        <time>2021-08-14T07:46:36Z</time>
      </trkpt>
      <trkpt lat="47.56037" lon="-2.16914">
        <ele>9.7</ele>
        <time>2021-08-14T07:46:37Z</time>
      </trkpt>
      <trkpt lat="47.56039" lon="-2.16919">
        <ele>9.7</ele>
        <time>2021-08-14T07:46:38Z</time>
      </trkpt>
      <trkpt lat="47.56044" lon="-2.16924">
        <ele>9.6</ele>
        <time>2021-08-14T07:46:40Z</time>
      </trkpt>
      <trkpt lat="47.56046" lon="-2.16926">
        <ele>9.5</ele>
        <time>2021-08-14T07:46:41Z</time>
      </trkpt>
      <trkpt lat="47.56049" lon="-2.16927">
        <ele>9.5</ele>
        <time>2021-08-14T07:46:43Z</time>
      </trkpt>
      <trkpt lat="47.56052" lon="-2.16927">
        <ele>9.5</ele>
        <time>2021-08-14T07:46:44Z</time>
      </trkpt>
      <trkpt lat="47.56054" lon="-2.1693">
        <ele>9.5</ele>
        <time>2021-08-14T07:46:46Z</time>
      </trkpt>
      <trkpt lat="47.56055" lon="-2.16931">
        <ele>9.6</ele>
        <time>2021-08-14T07:46:47Z</time>
      </trkpt>
      <trkpt lat="47.56056" lon="-2.16932">
        <ele>9.6</ele>
        <time>2021-08-14T07:46:48Z</time>
      </trkpt>
      <trkpt lat="47.56058" lon="-2.16933">
        <ele>9.6</ele>
        <time>2021-08-14T07:46:49Z</time>
      </trkpt>
      <trkpt lat="47.56059" lon="-2.16934">
        <ele>9.6</ele>
        <time>2021-08-14T07:46:51Z</time>
      </trkpt>
      <trkpt lat="47.5606" lon="-2.16935">
        <ele>9.7</ele>
        <time>2021-08-14T07:46:53Z</time>
      </trkpt>
      <trkpt lat="47.56061" lon="-2.16936">
        <ele>9.7</ele>
        <time>2021-08-14T07:46:54Z</time>
      </trkpt>
      <trkpt lat="47.56062" lon="-2.16937">
        <ele>9.7</ele>
        <time>2021-08-14T07:46:56Z</time>
      </trkpt>
      <trkpt lat="47.56064" lon="-2.16938">
        <ele>9.8</ele>
        <time>2021-08-14T07:46:57Z</time>
      </trkpt>
      <trkpt lat="47.56065" lon="-2.16939">
        <ele>9.8</ele>
        <time>2021-08-14T07:46:59Z</time>
      </trkpt>
      <trkpt lat="47.56066" lon="-2.1694">
        <ele>9.9</ele>
        <time>2021-08-14T07:47:02Z</time>
      </trkpt>
      <trkpt lat="47.56067" lon="-2.16941">
        <ele>9.9</ele>
        <time>2021-08-14T07:48:25Z</time>
      </trkpt>
      <trkpt lat="47.56068" lon="-2.16942">
        <ele>10</ele>
        <time>2021-08-14T07:48:27Z</time>
      </trkpt>
      <trkpt lat="47.56069" lon="-2.16943">
        <ele>10</ele>
        <time>2021-08-14T07:48:28Z</time>
      </trkpt>
      <trkpt lat="47.5607" lon="-2.16944">
        <ele>10.1</ele>
        <time>2021-08-14T07:48:29Z</time>
      </trkpt>
      <trkpt lat="47.56074" lon="-2.16946">
        <ele>10.3</ele>
        <time>2021-08-14T07:48:31Z</time>
      </trkpt>
      <trkpt lat="47.56077" lon="-2.16948">
        <ele>10.5</ele>
        <time>2021-08-14T07:48:32Z</time>
      </trkpt>
      <trkpt lat="47.56081" lon="-2.16952">
        <ele>10.9</ele>
        <time>2021-08-14T07:48:34Z</time>
      </trkpt>
      <trkpt lat="47.56082" lon="-2.16953">
        <ele>11.1</ele>
        <time>2021-08-14T07:48:35Z</time>
      </trkpt>
      <trkpt lat="47.56083" lon="-2.16954">
        <ele>11.2</ele>
        <time>2021-08-14T07:48:37Z</time>
      </trkpt>
      <trkpt lat="47.56085" lon="-2.16955">
        <ele>11.3</ele>
        <time>2021-08-14T07:48:38Z</time>
      </trkpt>
      <trkpt lat="47.56086" lon="-2.16956">
        <ele>11.5</ele>
        <time>2021-08-14T07:48:39Z</time>
      </trkpt>
      <trkpt lat="47.56088" lon="-2.16958">
        <ele>11.7</ele>
        <time>2021-08-14T07:48:40Z</time>
      </trkpt>
      <trkpt lat="47.5609" lon="-2.1696">
        <ele>12</ele>
        <time>2021-08-14T07:48:42Z</time>
      </trkpt>
      <trkpt lat="47.56092" lon="-2.16961">
        <ele>12.2</ele>
        <time>2021-08-14T07:48:43Z</time>
      </trkpt>
      <trkpt lat="47.56094" lon="-2.16963">
        <ele>12.5</ele>
        <time>2021-08-14T07:48:45Z</time>
      </trkpt>
      <trkpt lat="47.56097" lon="-2.16965">
        <ele>12.8</ele>
        <time>2021-08-14T07:48:46Z</time>
      </trkpt>
      <trkpt lat="47.56098" lon="-2.16965">
        <ele>12.9</ele>
        <time>2021-08-14T07:48:47Z</time>
      </trkpt>
      <trkpt lat="47.561" lon="-2.16967">
        <ele>13.3</ele>
        <time>2021-08-14T07:48:48Z</time>
      </trkpt>
      <trkpt lat="47.56101" lon="-2.16967">
        <ele>13.4</ele>
        <time>2021-08-14T07:48:49Z</time>
      </trkpt>
      <trkpt lat="47.56104" lon="-2.1697">
        <ele>13.8</ele>
        <time>2021-08-14T07:48:51Z</time>
      </trkpt>
      <trkpt lat="47.56105" lon="-2.16971">
        <ele>13.9</ele>
        <time>2021-08-14T07:48:52Z</time>
      </trkpt>
      <trkpt lat="47.56107" lon="-2.16973">
        <ele>14.2</ele>
        <time>2021-08-14T07:48:53Z</time>
      </trkpt>
      <trkpt lat="47.56109" lon="-2.16975">
        <ele>14.5</ele>
        <time>2021-08-14T07:48:54Z</time>
      </trkpt>
      <trkpt lat="47.56112" lon="-2.16977">
        <ele>14.9</ele>
        <time>2021-08-14T07:48:55Z</time>
      </trkpt>
      <trkpt lat="47.56116" lon="-2.1698">
        <ele>15.3</ele>
        <time>2021-08-14T07:48:57Z</time>
      </trkpt>
      <trkpt lat="47.56117" lon="-2.16981">
        <ele>15.5</ele>
        <time>2021-08-14T07:48:58Z</time>
      </trkpt>
      <trkpt lat="47.56118" lon="-2.16982">
        <ele>15.6</ele>
        <time>2021-08-14T07:48:59Z</time>
      </trkpt>
      <trkpt lat="47.5612" lon="-2.16985">
        <ele>15.9</ele>
        <time>2021-08-14T07:49:01Z</time>
      </trkpt>
      <trkpt lat="47.56124" lon="-2.16987">
        <ele>16.4</ele>
        <time>2021-08-14T07:49:03Z</time>
      </trkpt>
      <trkpt lat="47.56127" lon="-2.16988">
        <ele>16.8</ele>
        <time>2021-08-14T07:49:05Z</time>
      </trkpt>
      <trkpt lat="47.56131" lon="-2.1699">
        <ele>17.1</ele>
        <time>2021-08-14T07:49:06Z</time>
      </trkpt>
      <trkpt lat="47.56133" lon="-2.16992">
        <ele>17.5</ele>
        <time>2021-08-14T07:49:07Z</time>
      </trkpt>
      <trkpt lat="47.56135" lon="-2.16994">
        <ele>17.7</ele>
        <time>2021-08-14T07:49:08Z</time>
      </trkpt>
      <trkpt lat="47.56138" lon="-2.16997">
        <ele>18.1</ele>
        <time>2021-08-14T07:49:10Z</time>
      </trkpt>
      <trkpt lat="47.5614" lon="-2.16999">
        <ele>18.4</ele>
        <time>2021-08-14T07:49:11Z</time>
      </trkpt>
      <trkpt lat="47.56142" lon="-2.17001">
        <ele>18.6</ele>
        <time>2021-08-14T07:49:12Z</time>
      </trkpt>
      <trkpt lat="47.56145" lon="-2.17005">
        <ele>19</ele>
        <time>2021-08-14T07:49:14Z</time>
      </trkpt>
      <trkpt lat="47.56148" lon="-2.17008">
        <ele>19.4</ele>
        <time>2021-08-14T07:49:15Z</time>
      </trkpt>
      <trkpt lat="47.56148" lon="-2.17009">
        <ele>19.5</ele>
        <time>2021-08-14T07:49:16Z</time>
      </trkpt>
      <trkpt lat="47.5615" lon="-2.17011">
        <ele>19.8</ele>
        <time>2021-08-14T07:49:17Z</time>
      </trkpt>
      <trkpt lat="47.56152" lon="-2.17014">
        <ele>20.1</ele>
        <time>2021-08-14T07:49:19Z</time>
      </trkpt>
      <trkpt lat="47.56154" lon="-2.17016">
        <ele>20.3</ele>
        <time>2021-08-14T07:49:20Z</time>
      </trkpt>
      <trkpt lat="47.56156" lon="-2.17018">
        <ele>20.6</ele>
        <time>2021-08-14T07:49:22Z</time>
      </trkpt>
      <trkpt lat="47.56158" lon="-2.1702">
        <ele>20.8</ele>
        <time>2021-08-14T07:49:23Z</time>
      </trkpt>
      <trkpt lat="47.5616" lon="-2.17022">
        <ele>21.1</ele>
        <time>2021-08-14T07:49:25Z</time>
      </trkpt>
      <trkpt lat="47.56161" lon="-2.17023">
        <ele>21.2</ele>
        <time>2021-08-14T07:49:26Z</time>
      </trkpt>
      <trkpt lat="47.56163" lon="-2.17025">
        <ele>21.4</ele>
        <time>2021-08-14T07:49:27Z</time>
      </trkpt>
      <trkpt lat="47.56166" lon="-2.17028">
        <ele>21.8</ele>
        <time>2021-08-14T07:49:29Z</time>
      </trkpt>
      <trkpt lat="47.56167" lon="-2.17029">
        <ele>21.9</ele>
        <time>2021-08-14T07:49:30Z</time>
      </trkpt>
      <trkpt lat="47.56168" lon="-2.1703">
        <ele>22.1</ele>
        <time>2021-08-14T07:49:31Z</time>
      </trkpt>
      <trkpt lat="47.56169" lon="-2.17032">
        <ele>22.2</ele>
        <time>2021-08-14T07:49:32Z</time>
      </trkpt>
      <trkpt lat="47.56174" lon="-2.17035">
        <ele>22.7</ele>
        <time>2021-08-14T07:49:34Z</time>
      </trkpt>
      <trkpt lat="47.56175" lon="-2.17037">
        <ele>22.9</ele>
        <time>2021-08-14T07:49:36Z</time>
      </trkpt>
      <trkpt lat="47.56177" lon="-2.17038">
        <ele>23.1</ele>
        <time>2021-08-14T07:49:37Z</time>
      </trkpt>
      <trkpt lat="47.56178" lon="-2.1704">
        <ele>23.2</ele>
        <time>2021-08-14T07:49:38Z</time>
      </trkpt>
      <trkpt lat="47.5618" lon="-2.17041">
        <ele>23.4</ele>
        <time>2021-08-14T07:49:39Z</time>
      </trkpt>
      <trkpt lat="47.56182" lon="-2.17043">
        <ele>23.7</ele>
        <time>2021-08-14T07:49:41Z</time>
      </trkpt>
      <trkpt lat="47.56185" lon="-2.17045">
        <ele>24</ele>
        <time>2021-08-14T07:49:42Z</time>
      </trkpt>
      <trkpt lat="47.56186" lon="-2.17045">
        <ele>24.1</ele>
        <time>2021-08-14T07:49:43Z</time>
      </trkpt>
      <trkpt lat="47.56188" lon="-2.17047">
        <ele>24.4</ele>
        <time>2021-08-14T07:49:44Z</time>
      </trkpt>
      <trkpt lat="47.56191" lon="-2.17049">
        <ele>24.8</ele>
        <time>2021-08-14T07:49:46Z</time>
      </trkpt>
      <trkpt lat="47.56192" lon="-2.1705">
        <ele>24.9</ele>
        <time>2021-08-14T07:49:47Z</time>
      </trkpt>
      <trkpt lat="47.56193" lon="-2.1705">
        <ele>25</ele>
        <time>2021-08-14T07:49:48Z</time>
      </trkpt>
      <trkpt lat="47.56195" lon="-2.17052">
        <ele>25.3</ele>
        <time>2021-08-14T07:49:50Z</time>
      </trkpt>
      <trkpt lat="47.56197" lon="-2.17054">
        <ele>25.5</ele>
        <time>2021-08-14T07:49:51Z</time>
      </trkpt>
      <trkpt lat="47.56198" lon="-2.17054">
        <ele>25.6</ele>
        <time>2021-08-14T07:49:52Z</time>
      </trkpt>
      <trkpt lat="47.562" lon="-2.17055">
        <ele>25.8</ele>
        <time>2021-08-14T07:49:53Z</time>
      </trkpt>
      <trkpt lat="47.56201" lon="-2.17056">
        <ele>25.9</ele>
        <time>2021-08-14T07:49:55Z</time>
      </trkpt>
      <trkpt lat="47.56201" lon="-2.17057">
        <ele>26</ele>
        <time>2021-08-14T07:49:56Z</time>
      </trkpt>
      <trkpt lat="47.56202" lon="-2.17057">
        <ele>26.1</ele>
        <time>2021-08-14T07:49:57Z</time>
      </trkpt>
      <trkpt lat="47.56203" lon="-2.17058">
        <ele>26.2</ele>
        <time>2021-08-14T07:49:58Z</time>
      </trkpt>
      <trkpt lat="47.56205" lon="-2.1706">
        <ele>26.4</ele>
        <time>2021-08-14T07:50:00Z</time>
      </trkpt>
      <trkpt lat="47.56207" lon="-2.17062">
        <ele>26.6</ele>
        <time>2021-08-14T07:50:01Z</time>
      </trkpt>
      <trkpt lat="47.56208" lon="-2.17064">
        <ele>26.8</ele>
        <time>2021-08-14T07:50:03Z</time>
      </trkpt>
      <trkpt lat="47.56211" lon="-2.17066">
        <ele>27</ele>
        <time>2021-08-14T07:50:04Z</time>
      </trkpt>
      <trkpt lat="47.56212" lon="-2.17068">
        <ele>27.1</ele>
        <time>2021-08-14T07:50:05Z</time>
      </trkpt>
      <trkpt lat="47.56213" lon="-2.17069">
        <ele>27.2</ele>
        <time>2021-08-14T07:50:06Z</time>
      </trkpt>
      <trkpt lat="47.56214" lon="-2.1707">
        <ele>27.3</ele>
        <time>2021-08-14T07:50:07Z</time>
      </trkpt>
      <trkpt lat="47.56216" lon="-2.17073">
        <ele>27.5</ele>
        <time>2021-08-14T07:50:09Z</time>
      </trkpt>
      <trkpt lat="47.56217" lon="-2.17074">
        <ele>27.7</ele>
        <time>2021-08-14T07:50:10Z</time>
      </trkpt>
      <trkpt lat="47.56219" lon="-2.17076">
        <ele>27.8</ele>
        <time>2021-08-14T07:50:11Z</time>
      </trkpt>
      <trkpt lat="47.56222" lon="-2.17078">
        <ele>28</ele>
        <time>2021-08-14T07:50:13Z</time>
      </trkpt>
      <trkpt lat="47.56222" lon="-2.17078">
        <ele>28.1</ele>
        <time>2021-08-14T07:50:14Z</time>
      </trkpt>
      <trkpt lat="47.56225" lon="-2.1708">
        <ele>28.3</ele>
        <time>2021-08-14T07:50:15Z</time>
      </trkpt>
      <trkpt lat="47.56228" lon="-2.17082">
        <ele>28.5</ele>
        <time>2021-08-14T07:50:17Z</time>
      </trkpt>
      <trkpt lat="47.56231" lon="-2.17083">
        <ele>28.7</ele>
        <time>2021-08-14T07:50:18Z</time>
      </trkpt>
      <trkpt lat="47.56232" lon="-2.17084">
        <ele>28.8</ele>
        <time>2021-08-14T07:50:19Z</time>
      </trkpt>
      <trkpt lat="47.56235" lon="-2.17086">
        <ele>29.1</ele>
        <time>2021-08-14T07:50:20Z</time>
      </trkpt>
      <trkpt lat="47.56236" lon="-2.17086">
        <ele>29.1</ele>
        <time>2021-08-14T07:50:21Z</time>
      </trkpt>
      <trkpt lat="47.56239" lon="-2.17088">
        <ele>29.4</ele>
        <time>2021-08-14T07:50:23Z</time>
      </trkpt>
      <trkpt lat="47.5624" lon="-2.17089">
        <ele>29.5</ele>
        <time>2021-08-14T07:50:24Z</time>
      </trkpt>
      <trkpt lat="47.56243" lon="-2.17091">
        <ele>29.7</ele>
        <time>2021-08-14T07:50:26Z</time>
      </trkpt>
      <trkpt lat="47.56245" lon="-2.17093">
        <ele>30</ele>
        <time>2021-08-14T07:50:27Z</time>
      </trkpt>
      <trkpt lat="47.56246" lon="-2.17094">
        <ele>30.1</ele>
        <time>2021-08-14T07:50:28Z</time>
      </trkpt>
      <trkpt lat="47.56247" lon="-2.17095">
        <ele>30.2</ele>
        <time>2021-08-14T07:50:29Z</time>
      </trkpt>
      <trkpt lat="47.56248" lon="-2.17096">
        <ele>30.2</ele>
        <time>2021-08-14T07:50:30Z</time>
      </trkpt>
      <trkpt lat="47.56248" lon="-2.17096">
        <ele>30.3</ele>
        <time>2021-08-14T07:50:32Z</time>
      </trkpt>
      <trkpt lat="47.56249" lon="-2.17097">
        <ele>30.4</ele>
        <time>2021-08-14T07:50:33Z</time>
      </trkpt>
      <trkpt lat="47.5625" lon="-2.17098">
        <ele>30.5</ele>
        <time>2021-08-14T07:50:34Z</time>
      </trkpt>
      <trkpt lat="47.56251" lon="-2.17099">
        <ele>30.6</ele>
        <time>2021-08-14T07:50:35Z</time>
      </trkpt>
      <trkpt lat="47.56253" lon="-2.17101">
        <ele>30.8</ele>
        <time>2021-08-14T07:50:37Z</time>
      </trkpt>
      <trkpt lat="47.56254" lon="-2.17103">
        <ele>30.9</ele>
        <time>2021-08-14T07:50:38Z</time>
      </trkpt>
      <trkpt lat="47.56255" lon="-2.17105">
        <ele>31.1</ele>
        <time>2021-08-14T07:50:39Z</time>
      </trkpt>
      <trkpt lat="47.56256" lon="-2.17107">
        <ele>31.3</ele>
        <time>2021-08-14T07:50:40Z</time>
      </trkpt>
      <trkpt lat="47.56259" lon="-2.17111">
        <ele>31.6</ele>
        <time>2021-08-14T07:50:42Z</time>
      </trkpt>
      <trkpt lat="47.5626" lon="-2.17112">
        <ele>31.8</ele>
        <time>2021-08-14T07:50:43Z</time>
      </trkpt>
      <trkpt lat="47.56262" lon="-2.17114">
        <ele>32</ele>
        <time>2021-08-14T07:50:45Z</time>
      </trkpt>
      <trkpt lat="47.56263" lon="-2.17115">
        <ele>32.2</ele>
        <time>2021-08-14T07:50:46Z</time>
      </trkpt>
      <trkpt lat="47.56267" lon="-2.17119">
        <ele>32.6</ele>
        <time>2021-08-14T07:50:49Z</time>
      </trkpt>
      <trkpt lat="47.56267" lon="-2.17119">
        <ele>32.7</ele>
        <time>2021-08-14T07:50:50Z</time>
      </trkpt>
      <trkpt lat="47.56269" lon="-2.17121">
        <ele>32.9</ele>
        <time>2021-08-14T07:50:51Z</time>
      </trkpt>
      <trkpt lat="47.56272" lon="-2.17124">
        <ele>33.3</ele>
        <time>2021-08-14T07:50:53Z</time>
      </trkpt>
      <trkpt lat="47.56275" lon="-2.17127">
        <ele>33.6</ele>
        <time>2021-08-14T07:50:54Z</time>
      </trkpt>
      <trkpt lat="47.56276" lon="-2.17129">
        <ele>33.8</ele>
        <time>2021-08-14T07:50:55Z</time>
      </trkpt>
      <trkpt lat="47.56279" lon="-2.17132">
        <ele>34.3</ele>
        <time>2021-08-14T07:50:57Z</time>
      </trkpt>
      <trkpt lat="47.56279" lon="-2.17132">
        <ele>34.3</ele>
        <time>2021-08-14T07:50:58Z</time>
      </trkpt>
      <trkpt lat="47.56279" lon="-2.17132">
        <ele>34.3</ele>
        <time>2021-08-14T07:51:00Z</time>
      </trkpt>
      <trkpt lat="47.5628" lon="-2.17132">
        <ele>34.3</ele>
        <time>2021-08-14T07:51:01Z</time>
      </trkpt>
      <trkpt lat="47.56282" lon="-2.17134">
        <ele>34.6</ele>
        <time>2021-08-14T07:51:02Z</time>
      </trkpt>
      <trkpt lat="47.56284" lon="-2.17137">
        <ele>34.9</ele>
        <time>2021-08-14T07:51:04Z</time>
      </trkpt>
      <trkpt lat="47.56286" lon="-2.17138">
        <ele>35.2</ele>
        <time>2021-08-14T07:51:05Z</time>
      </trkpt>
      <trkpt lat="47.56288" lon="-2.1714">
        <ele>35.5</ele>
        <time>2021-08-14T07:51:07Z</time>
      </trkpt>
      <trkpt lat="47.56293" lon="-2.17143">
        <ele>36.1</ele>
        <time>2021-08-14T07:51:08Z</time>
      </trkpt>
      <trkpt lat="47.56295" lon="-2.17144">
        <ele>36.4</ele>
        <time>2021-08-14T07:51:09Z</time>
      </trkpt>
      <trkpt lat="47.56298" lon="-2.17145">
        <ele>36.9</ele>
        <time>2021-08-14T07:51:11Z</time>
      </trkpt>
      <trkpt lat="47.56299" lon="-2.17146">
        <ele>37</ele>
        <time>2021-08-14T07:51:12Z</time>
      </trkpt>
      <trkpt lat="47.56301" lon="-2.17147">
        <ele>37.2</ele>
        <time>2021-08-14T07:51:13Z</time>
      </trkpt>
      <trkpt lat="47.56303" lon="-2.17148">
        <ele>37.5</ele>
        <time>2021-08-14T07:51:15Z</time>
      </trkpt>
      <trkpt lat="47.56305" lon="-2.1715">
        <ele>37.9</ele>
        <time>2021-08-14T07:51:16Z</time>
      </trkpt>
      <trkpt lat="47.56306" lon="-2.1715">
        <ele>38</ele>
        <time>2021-08-14T07:51:17Z</time>
      </trkpt>
      <trkpt lat="47.56306" lon="-2.1715">
        <ele>38</ele>
        <time>2021-08-14T07:51:18Z</time>
      </trkpt>
      <trkpt lat="47.56307" lon="-2.17151">
        <ele>38.1</ele>
        <time>2021-08-14T07:51:20Z</time>
      </trkpt>
      <trkpt lat="47.56308" lon="-2.17151">
        <ele>38.2</ele>
        <time>2021-08-14T07:51:22Z</time>
      </trkpt>
      <trkpt lat="47.56308" lon="-2.17151">
        <ele>38.3</ele>
        <time>2021-08-14T07:51:23Z</time>
      </trkpt>
      <trkpt lat="47.56309" lon="-2.17151">
        <ele>38.4</ele>
        <time>2021-08-14T07:51:25Z</time>
      </trkpt>
      <trkpt lat="47.5631" lon="-2.17151">
        <ele>38.5</ele>
        <time>2021-08-14T07:51:26Z</time>
      </trkpt>
      <trkpt lat="47.56313" lon="-2.17153">
        <ele>38.9</ele>
        <time>2021-08-14T07:51:29Z</time>
      </trkpt>
      <trkpt lat="47.56314" lon="-2.17153">
        <ele>39.1</ele>
        <time>2021-08-14T07:51:30Z</time>
      </trkpt>
      <trkpt lat="47.56315" lon="-2.17154">
        <ele>39.3</ele>
        <time>2021-08-14T07:51:31Z</time>
      </trkpt>
      <trkpt lat="47.56317" lon="-2.17157">
        <ele>39.6</ele>
        <time>2021-08-14T07:51:33Z</time>
      </trkpt>
      <trkpt lat="47.56318" lon="-2.17158">
        <ele>39.7</ele>
        <time>2021-08-14T07:51:34Z</time>
      </trkpt>
      <trkpt lat="47.56318" lon="-2.17159">
        <ele>39.9</ele>
        <time>2021-08-14T07:51:35Z</time>
      </trkpt>
      <trkpt lat="47.56319" lon="-2.1716">
        <ele>40</ele>
        <time>2021-08-14T07:51:36Z</time>
      </trkpt>
      <trkpt lat="47.56321" lon="-2.17161">
        <ele>40.3</ele>
        <time>2021-08-14T07:51:38Z</time>
      </trkpt>
      <trkpt lat="47.56322" lon="-2.17163">
        <ele>40.5</ele>
        <time>2021-08-14T07:51:39Z</time>
      </trkpt>
      <trkpt lat="47.56323" lon="-2.17164">
        <ele>40.7</ele>
        <time>2021-08-14T07:51:40Z</time>
      </trkpt>
      <trkpt lat="47.56324" lon="-2.17165">
        <ele>40.9</ele>
        <time>2021-08-14T07:51:41Z</time>
      </trkpt>
      <trkpt lat="47.56326" lon="-2.17167">
        <ele>41.2</ele>
        <time>2021-08-14T07:51:43Z</time>
      </trkpt>
      <trkpt lat="47.56327" lon="-2.17168">
        <ele>41.5</ele>
        <time>2021-08-14T07:51:44Z</time>
      </trkpt>
      <trkpt lat="47.56328" lon="-2.1717">
        <ele>41.7</ele>
        <time>2021-08-14T07:51:45Z</time>
      </trkpt>
      <trkpt lat="47.56329" lon="-2.17172">
        <ele>41.9</ele>
        <time>2021-08-14T07:51:46Z</time>
      </trkpt>
      <trkpt lat="47.56331" lon="-2.17173">
        <ele>42.3</ele>
        <time>2021-08-14T07:51:48Z</time>
      </trkpt>
      <trkpt lat="47.56332" lon="-2.17175">
        <ele>42.6</ele>
        <time>2021-08-14T07:51:49Z</time>
      </trkpt>
      <trkpt lat="47.56333" lon="-2.17175">
        <ele>42.6</ele>
        <time>2021-08-14T07:51:50Z</time>
      </trkpt>
      <trkpt lat="47.56333" lon="-2.17175">
        <ele>42.7</ele>
        <time>2021-08-14T07:51:52Z</time>
      </trkpt>
      <trkpt lat="47.56334" lon="-2.17175">
        <ele>42.8</ele>
        <time>2021-08-14T07:51:54Z</time>
      </trkpt>
      <trkpt lat="47.56334" lon="-2.17176">
        <ele>42.9</ele>
        <time>2021-08-14T07:51:55Z</time>
      </trkpt>
      <trkpt lat="47.56335" lon="-2.17176">
        <ele>43</ele>
        <time>2021-08-14T07:51:56Z</time>
      </trkpt>
      <trkpt lat="47.56335" lon="-2.17176">
        <ele>43.1</ele>
        <time>2021-08-14T07:51:58Z</time>
      </trkpt>
      <trkpt lat="47.56336" lon="-2.17177">
        <ele>43.2</ele>
        <time>2021-08-14T07:51:59Z</time>
      </trkpt>
      <trkpt lat="47.56337" lon="-2.17177">
        <ele>43.3</ele>
        <time>2021-08-14T07:52:00Z</time>
      </trkpt>
      <trkpt lat="47.56337" lon="-2.17177">
        <ele>43.5</ele>
        <time>2021-08-14T07:52:02Z</time>
      </trkpt>
      <trkpt lat="47.56339" lon="-2.17178">
        <ele>43.7</ele>
        <time>2021-08-14T07:52:03Z</time>
      </trkpt>
      <trkpt lat="47.5634" lon="-2.17178">
        <ele>43.9</ele>
        <time>2021-08-14T07:52:05Z</time>
      </trkpt>
      <trkpt lat="47.56342" lon="-2.17179">
        <ele>44.2</ele>
        <time>2021-08-14T07:52:06Z</time>
      </trkpt>
      <trkpt lat="47.56342" lon="-2.1718">
        <ele>44.3</ele>
        <time>2021-08-14T07:52:07Z</time>
      </trkpt>
      <trkpt lat="47.56344" lon="-2.17181">
        <ele>44.6</ele>
        <time>2021-08-14T07:52:09Z</time>
      </trkpt>
      <trkpt lat="47.56345" lon="-2.17182">
        <ele>44.9</ele>
        <time>2021-08-14T07:52:10Z</time>
      </trkpt>
      <trkpt lat="47.56346" lon="-2.17183">
        <ele>45.1</ele>
        <time>2021-08-14T07:52:12Z</time>
      </trkpt>
      <trkpt lat="47.56348" lon="-2.17183">
        <ele>45.3</ele>
        <time>2021-08-14T07:52:13Z</time>
      </trkpt>
      <trkpt lat="47.56349" lon="-2.17184">
        <ele>45.5</ele>
        <time>2021-08-14T07:52:14Z</time>
      </trkpt>
      <trkpt lat="47.5635" lon="-2.17184">
        <ele>45.6</ele>
        <time>2021-08-14T07:52:15Z</time>
      </trkpt>
      <trkpt lat="47.56352" lon="-2.17185">
        <ele>45.9</ele>
        <time>2021-08-14T07:52:17Z</time>
      </trkpt>
      <trkpt lat="47.56353" lon="-2.17185">
        <ele>46.1</ele>
        <time>2021-08-14T07:52:18Z</time>
      </trkpt>
      <trkpt lat="47.56354" lon="-2.17185">
        <ele>46.3</ele>
        <time>2021-08-14T07:52:19Z</time>
      </trkpt>
      <trkpt lat="47.56355" lon="-2.17185">
        <ele>46.4</ele>
        <time>2021-08-14T07:52:20Z</time>
      </trkpt>
      <trkpt lat="47.56356" lon="-2.17185">
        <ele>46.6</ele>
        <time>2021-08-14T07:52:22Z</time>
      </trkpt>
      <trkpt lat="47.56357" lon="-2.17185">
        <ele>46.7</ele>
        <time>2021-08-14T07:52:24Z</time>
      </trkpt>
      <trkpt lat="47.56357" lon="-2.17184">
        <ele>46.8</ele>
        <time>2021-08-14T07:52:26Z</time>
      </trkpt>
      <trkpt lat="47.56357" lon="-2.17184">
        <ele>46.8</ele>
        <time>2021-08-14T07:52:27Z</time>
      </trkpt>
      <trkpt lat="47.56357" lon="-2.17184">
        <ele>46.9</ele>
        <time>2021-08-14T07:52:28Z</time>
      </trkpt>
      <trkpt lat="47.56358" lon="-2.17183">
        <ele>46.9</ele>
        <time>2021-08-14T07:52:30Z</time>
      </trkpt>
      <trkpt lat="47.56359" lon="-2.17184">
        <ele>47.1</ele>
        <time>2021-08-14T07:52:31Z</time>
      </trkpt>
      <trkpt lat="47.56361" lon="-2.17185">
        <ele>47.4</ele>
        <time>2021-08-14T07:52:33Z</time>
      </trkpt>
      <trkpt lat="47.56362" lon="-2.17186">
        <ele>47.6</ele>
        <time>2021-08-14T07:52:34Z</time>
      </trkpt>
      <trkpt lat="47.56364" lon="-2.17187">
        <ele>47.8</ele>
        <time>2021-08-14T07:52:35Z</time>
      </trkpt>
      <trkpt lat="47.56365" lon="-2.17188">
        <ele>48</ele>
        <time>2021-08-14T07:52:36Z</time>
      </trkpt>
      <trkpt lat="47.56367" lon="-2.1719">
        <ele>48.3</ele>
        <time>2021-08-14T07:52:38Z</time>
      </trkpt>
      <trkpt lat="47.5637" lon="-2.17192">
        <ele>48.6</ele>
        <time>2021-08-14T07:52:39Z</time>
      </trkpt>
      <trkpt lat="47.56371" lon="-2.17193">
        <ele>48.7</ele>
        <time>2021-08-14T07:52:40Z</time>
      </trkpt>
      <trkpt lat="47.56373" lon="-2.17193">
        <ele>48.9</ele>
        <time>2021-08-14T07:52:41Z</time>
      </trkpt>
      <trkpt lat="47.56375" lon="-2.17195">
        <ele>49.1</ele>
        <time>2021-08-14T07:52:42Z</time>
      </trkpt>
      <trkpt lat="47.56377" lon="-2.17197">
        <ele>49.3</ele>
        <time>2021-08-14T07:52:44Z</time>
      </trkpt>
      <trkpt lat="47.5638" lon="-2.172">
        <ele>49.5</ele>
        <time>2021-08-14T07:52:45Z</time>
      </trkpt>
      <trkpt lat="47.56381" lon="-2.172">
        <ele>49.6</ele>
        <time>2021-08-14T07:52:46Z</time>
      </trkpt>
      <trkpt lat="47.56384" lon="-2.17202">
        <ele>49.8</ele>
        <time>2021-08-14T07:52:48Z</time>
      </trkpt>
      <trkpt lat="47.56385" lon="-2.17203">
        <ele>49.9</ele>
        <time>2021-08-14T07:52:49Z</time>
      </trkpt>
      <trkpt lat="47.56387" lon="-2.17204">
        <ele>50</ele>
        <time>2021-08-14T07:52:50Z</time>
      </trkpt>
      <trkpt lat="47.56388" lon="-2.17205">
        <ele>50.1</ele>
        <time>2021-08-14T07:52:51Z</time>
      </trkpt>
      <trkpt lat="47.56391" lon="-2.17206">
        <ele>50.3</ele>
        <time>2021-08-14T07:52:53Z</time>
      </trkpt>
      <trkpt lat="47.56392" lon="-2.17207">
        <ele>50.3</ele>
        <time>2021-08-14T07:52:54Z</time>
      </trkpt>
      <trkpt lat="47.56394" lon="-2.17207">
        <ele>50.4</ele>
        <time>2021-08-14T07:52:55Z</time>
      </trkpt>
      <trkpt lat="47.56397" lon="-2.17208">
        <ele>50.5</ele>
        <time>2021-08-14T07:52:57Z</time>
      </trkpt>
      <trkpt lat="47.56398" lon="-2.17209">
        <ele>50.6</ele>
        <time>2021-08-14T07:52:58Z</time>
      </trkpt>
      <trkpt lat="47.56401" lon="-2.1721">
        <ele>50.7</ele>
        <time>2021-08-14T07:53:00Z</time>
      </trkpt>
      <trkpt lat="47.56404" lon="-2.1721">
        <ele>50.9</ele>
        <time>2021-08-14T07:53:01Z</time>
      </trkpt>
      <trkpt lat="47.56405" lon="-2.1721">
        <ele>50.9</ele>
        <time>2021-08-14T07:53:02Z</time>
      </trkpt>
      <trkpt lat="47.56408" lon="-2.17211">
        <ele>51</ele>
        <time>2021-08-14T07:53:04Z</time>
      </trkpt>
      <trkpt lat="47.56411" lon="-2.17211">
        <ele>51.2</ele>
        <time>2021-08-14T07:53:05Z</time>
      </trkpt>
      <trkpt lat="47.56415" lon="-2.17212">
        <ele>51.3</ele>
        <time>2021-08-14T07:53:06Z</time>
      </trkpt>
      <trkpt lat="47.56418" lon="-2.17212">
        <ele>51.4</ele>
        <time>2021-08-14T07:53:08Z</time>
      </trkpt>
      <trkpt lat="47.56421" lon="-2.17213">
        <ele>51.4</ele>
        <time>2021-08-14T07:53:09Z</time>
      </trkpt>
      <trkpt lat="47.56424" lon="-2.17215">
        <ele>51.5</ele>
        <time>2021-08-14T07:53:11Z</time>
      </trkpt>
      <trkpt lat="47.56427" lon="-2.17217">
        <ele>51.6</ele>
        <time>2021-08-14T07:53:12Z</time>
      </trkpt>
      <trkpt lat="47.56428" lon="-2.17218">
        <ele>51.6</ele>
        <time>2021-08-14T07:53:13Z</time>
      </trkpt>
      <trkpt lat="47.56431" lon="-2.17218">
        <ele>51.6</ele>
        <time>2021-08-14T07:53:14Z</time>
      </trkpt>
      <trkpt lat="47.56434" lon="-2.17218">
        <ele>51.6</ele>
        <time>2021-08-14T07:53:16Z</time>
      </trkpt>
      <trkpt lat="47.56436" lon="-2.17219">
        <ele>51.6</ele>
        <time>2021-08-14T07:53:17Z</time>
      </trkpt>
      <trkpt lat="47.56441" lon="-2.17219">
        <ele>51.5</ele>
        <time>2021-08-14T07:53:19Z</time>
      </trkpt>
      <trkpt lat="47.56442" lon="-2.1722">
        <ele>51.5</ele>
        <time>2021-08-14T07:53:20Z</time>
      </trkpt>
      <trkpt lat="47.56444" lon="-2.1722">
        <ele>51.5</ele>
        <time>2021-08-14T07:53:21Z</time>
      </trkpt>
      <trkpt lat="47.56447" lon="-2.17221">
        <ele>51.5</ele>
        <time>2021-08-14T07:53:22Z</time>
      </trkpt>
      <trkpt lat="47.56449" lon="-2.17222">
        <ele>51.5</ele>
        <time>2021-08-14T07:53:23Z</time>
      </trkpt>
      <trkpt lat="47.56454" lon="-2.17223">
        <ele>51.4</ele>
        <time>2021-08-14T07:53:25Z</time>
      </trkpt>
      <trkpt lat="47.56455" lon="-2.17223">
        <ele>51.4</ele>
        <time>2021-08-14T07:53:27Z</time>
      </trkpt>
      <trkpt lat="47.56456" lon="-2.17224">
        <ele>51.4</ele>
        <time>2021-08-14T07:53:28Z</time>
      </trkpt>
      <trkpt lat="47.5646" lon="-2.17224">
        <ele>51.3</ele>
        <time>2021-08-14T07:53:29Z</time>
      </trkpt>
      <trkpt lat="47.56461" lon="-2.17225">
        <ele>51.3</ele>
        <time>2021-08-14T07:53:30Z</time>
      </trkpt>
      <trkpt lat="47.56465" lon="-2.17226">
        <ele>51.3</ele>
        <time>2021-08-14T07:53:32Z</time>
      </trkpt>
      <trkpt lat="47.56468" lon="-2.17228">
        <ele>51.2</ele>
        <time>2021-08-14T07:53:34Z</time>
      </trkpt>
      <trkpt lat="47.56472" lon="-2.17229">
        <ele>51.2</ele>
        <time>2021-08-14T07:53:35Z</time>
      </trkpt>
      <trkpt lat="47.56475" lon="-2.1723">
        <ele>51.1</ele>
        <time>2021-08-14T07:53:36Z</time>
      </trkpt>
      <trkpt lat="47.56476" lon="-2.17231">
        <ele>51.1</ele>
        <time>2021-08-14T07:53:37Z</time>
      </trkpt>
      <trkpt lat="47.5648" lon="-2.17233">
        <ele>51.1</ele>
        <time>2021-08-14T07:53:39Z</time>
      </trkpt>
      <trkpt lat="47.56482" lon="-2.17235">
        <ele>51</ele>
        <time>2021-08-14T07:53:40Z</time>
      </trkpt>
      <trkpt lat="47.56486" lon="-2.17236">
        <ele>51</ele>
        <time>2021-08-14T07:53:42Z</time>
      </trkpt>
      <trkpt lat="47.5649" lon="-2.17237">
        <ele>50.9</ele>
        <time>2021-08-14T07:53:44Z</time>
      </trkpt>
      <trkpt lat="47.56494" lon="-2.17238">
        <ele>50.9</ele>
        <time>2021-08-14T07:53:45Z</time>
      </trkpt>
      <trkpt lat="47.56497" lon="-2.17239">
        <ele>50.8</ele>
        <time>2021-08-14T07:53:46Z</time>
      </trkpt>
      <trkpt lat="47.56502" lon="-2.17241">
        <ele>50.8</ele>
        <time>2021-08-14T07:53:48Z</time>
      </trkpt>
      <trkpt lat="47.56506" lon="-2.17243">
        <ele>50.7</ele>
        <time>2021-08-14T07:53:49Z</time>
      </trkpt>
      <trkpt lat="47.56509" lon="-2.17244">
        <ele>50.7</ele>
        <time>2021-08-14T07:53:50Z</time>
      </trkpt>
      <trkpt lat="47.56512" lon="-2.17245">
        <ele>50.7</ele>
        <time>2021-08-14T07:53:51Z</time>
      </trkpt>
      <trkpt lat="47.56516" lon="-2.17247">
        <ele>50.6</ele>
        <time>2021-08-14T07:53:52Z</time>
      </trkpt>
      <trkpt lat="47.5652" lon="-2.17249">
        <ele>50.5</ele>
        <time>2021-08-14T07:53:54Z</time>
      </trkpt>
      <trkpt lat="47.56524" lon="-2.1725">
        <ele>50.5</ele>
        <time>2021-08-14T07:53:55Z</time>
      </trkpt>
      <trkpt lat="47.56527" lon="-2.17252">
        <ele>50.4</ele>
        <time>2021-08-14T07:53:56Z</time>
      </trkpt>
      <trkpt lat="47.5653" lon="-2.17253">
        <ele>50.4</ele>
        <time>2021-08-14T07:53:57Z</time>
      </trkpt>
      <trkpt lat="47.56535" lon="-2.17255">
        <ele>50.2</ele>
        <time>2021-08-14T07:53:59Z</time>
      </trkpt>
      <trkpt lat="47.56539" lon="-2.17257">
        <ele>50.1</ele>
        <time>2021-08-14T07:54:00Z</time>
      </trkpt>
      <trkpt lat="47.56543" lon="-2.17259">
        <ele>50</ele>
        <time>2021-08-14T07:54:01Z</time>
      </trkpt>
      <trkpt lat="47.56549" lon="-2.17262">
        <ele>49.8</ele>
        <time>2021-08-14T07:54:03Z</time>
      </trkpt>
      <trkpt lat="47.56553" lon="-2.17263">
        <ele>49.8</ele>
        <time>2021-08-14T07:54:04Z</time>
      </trkpt>
      <trkpt lat="47.56559" lon="-2.17267">
        <ele>49.6</ele>
        <time>2021-08-14T07:54:06Z</time>
      </trkpt>
      <trkpt lat="47.56563" lon="-2.17268">
        <ele>49.5</ele>
        <time>2021-08-14T07:54:07Z</time>
      </trkpt>
      <trkpt lat="47.56567" lon="-2.1727">
        <ele>49.4</ele>
        <time>2021-08-14T07:54:08Z</time>
      </trkpt>
      <trkpt lat="47.56573" lon="-2.17273">
        <ele>49.2</ele>
        <time>2021-08-14T07:54:10Z</time>
      </trkpt>
      <trkpt lat="47.5658" lon="-2.17277">
        <ele>49.1</ele>
        <time>2021-08-14T07:54:12Z</time>
      </trkpt>
      <trkpt lat="47.56583" lon="-2.17278">
        <ele>49</ele>
        <time>2021-08-14T07:54:13Z</time>
      </trkpt>
      <trkpt lat="47.56588" lon="-2.17279">
        <ele>48.8</ele>
        <time>2021-08-14T07:54:15Z</time>
      </trkpt>
      <trkpt lat="47.56592" lon="-2.1728">
        <ele>48.7</ele>
        <time>2021-08-14T07:54:16Z</time>
      </trkpt>
      <trkpt lat="47.56597" lon="-2.17281">
        <ele>48.6</ele>
        <time>2021-08-14T07:54:18Z</time>
      </trkpt>
      <trkpt lat="47.566" lon="-2.17281">
        <ele>48.5</ele>
        <time>2021-08-14T07:54:19Z</time>
      </trkpt>
      <trkpt lat="47.56604" lon="-2.17282">
        <ele>48.4</ele>
        <time>2021-08-14T07:54:20Z</time>
      </trkpt>
      <trkpt lat="47.56608" lon="-2.17282">
        <ele>48.4</ele>
        <time>2021-08-14T07:54:21Z</time>
      </trkpt>
      <trkpt lat="47.56611" lon="-2.17283">
        <ele>48.3</ele>
        <time>2021-08-14T07:54:22Z</time>
      </trkpt>
      <trkpt lat="47.56615" lon="-2.17283">
        <ele>48.2</ele>
        <time>2021-08-14T07:54:23Z</time>
      </trkpt>
      <trkpt lat="47.56621" lon="-2.17285">
        <ele>48.1</ele>
        <time>2021-08-14T07:54:25Z</time>
      </trkpt>
      <trkpt lat="47.56627" lon="-2.17287">
        <ele>47.9</ele>
        <time>2021-08-14T07:54:27Z</time>
      </trkpt>
      <trkpt lat="47.56631" lon="-2.17288">
        <ele>47.9</ele>
        <time>2021-08-14T07:54:28Z</time>
      </trkpt>
      <trkpt lat="47.56636" lon="-2.17289">
        <ele>47.8</ele>
        <time>2021-08-14T07:54:30Z</time>
      </trkpt>
      <trkpt lat="47.56639" lon="-2.1729">
        <ele>47.7</ele>
        <time>2021-08-14T07:54:31Z</time>
      </trkpt>
      <trkpt lat="47.56645" lon="-2.17291">
        <ele>47.6</ele>
        <time>2021-08-14T07:54:33Z</time>
      </trkpt>
      <trkpt lat="47.5665" lon="-2.17294">
        <ele>47.5</ele>
        <time>2021-08-14T07:54:35Z</time>
      </trkpt>
      <trkpt lat="47.56655" lon="-2.17298">
        <ele>47.4</ele>
        <time>2021-08-14T07:54:37Z</time>
      </trkpt>
      <trkpt lat="47.5666" lon="-2.17301">
        <ele>47.4</ele>
        <time>2021-08-14T07:54:38Z</time>
      </trkpt>
      <trkpt lat="47.56663" lon="-2.17303">
        <ele>47.3</ele>
        <time>2021-08-14T07:54:39Z</time>
      </trkpt>
      <trkpt lat="47.56667" lon="-2.17306">
        <ele>47.2</ele>
        <time>2021-08-14T07:54:41Z</time>
      </trkpt>
      <trkpt lat="47.5667" lon="-2.17309">
        <ele>47.2</ele>
        <time>2021-08-14T07:54:42Z</time>
      </trkpt>
      <trkpt lat="47.56675" lon="-2.17313">
        <ele>47.2</ele>
        <time>2021-08-14T07:54:43Z</time>
      </trkpt>
      <trkpt lat="47.56679" lon="-2.17318">
        <ele>47.1</ele>
        <time>2021-08-14T07:54:45Z</time>
      </trkpt>
      <trkpt lat="47.56682" lon="-2.17322">
        <ele>47.1</ele>
        <time>2021-08-14T07:54:46Z</time>
      </trkpt>
      <trkpt lat="47.56687" lon="-2.17327">
        <ele>47.1</ele>
        <time>2021-08-14T07:54:47Z</time>
      </trkpt>
      <trkpt lat="47.56692" lon="-2.17332">
        <ele>47</ele>
        <time>2021-08-14T07:54:49Z</time>
      </trkpt>
      <trkpt lat="47.56697" lon="-2.17338">
        <ele>47</ele>
        <time>2021-08-14T07:54:51Z</time>
      </trkpt>
      <trkpt lat="47.567" lon="-2.1734">
        <ele>47</ele>
        <time>2021-08-14T07:54:53Z</time>
      </trkpt>
      <trkpt lat="47.56704" lon="-2.17343">
        <ele>47</ele>
        <time>2021-08-14T07:54:54Z</time>
      </trkpt>
      <trkpt lat="47.56709" lon="-2.17349">
        <ele>46.8</ele>
        <time>2021-08-14T07:54:56Z</time>
      </trkpt>
      <trkpt lat="47.5671" lon="-2.17353">
        <ele>46.8</ele>
        <time>2021-08-14T07:54:57Z</time>
      </trkpt>
      <trkpt lat="47.5671" lon="-2.17362">
        <ele>46.8</ele>
        <time>2021-08-14T07:54:59Z</time>
      </trkpt>
      <trkpt lat="47.5671" lon="-2.1737">
        <ele>46.7</ele>
        <time>2021-08-14T07:55:01Z</time>
      </trkpt>
      <trkpt lat="47.56712" lon="-2.17377">
        <ele>46.6</ele>
        <time>2021-08-14T07:55:03Z</time>
      </trkpt>
      <trkpt lat="47.56714" lon="-2.17381">
        <ele>46.6</ele>
        <time>2021-08-14T07:55:04Z</time>
      </trkpt>
      <trkpt lat="47.56717" lon="-2.17385">
        <ele>46.5</ele>
        <time>2021-08-14T07:55:05Z</time>
      </trkpt>
      <trkpt lat="47.56721" lon="-2.17388">
        <ele>46.4</ele>
        <time>2021-08-14T07:55:07Z</time>
      </trkpt>
      <trkpt lat="47.5674" lon="-2.17399">
        <ele>43.9</ele>
        <time>2021-08-14T07:56:14Z</time>
      </trkpt>
      <trkpt lat="47.56747" lon="-2.17403">
        <ele>43.7</ele>
        <time>2021-08-14T07:56:16Z</time>
      </trkpt>
      <trkpt lat="47.56751" lon="-2.17404">
        <ele>43.6</ele>
        <time>2021-08-14T07:56:17Z</time>
      </trkpt>
      <trkpt lat="47.56756" lon="-2.17406">
        <ele>43.5</ele>
        <time>2021-08-14T07:56:18Z</time>
      </trkpt>
      <trkpt lat="47.56763" lon="-2.1741">
        <ele>43.4</ele>
        <time>2021-08-14T07:56:20Z</time>
      </trkpt>
      <trkpt lat="47.56767" lon="-2.17413">
        <ele>43.3</ele>
        <time>2021-08-14T07:56:21Z</time>
      </trkpt>
      <trkpt lat="47.5677" lon="-2.17415">
        <ele>43.2</ele>
        <time>2021-08-14T07:56:22Z</time>
      </trkpt>
      <trkpt lat="47.56777" lon="-2.17419">
        <ele>43</ele>
        <time>2021-08-14T07:56:24Z</time>
      </trkpt>
      <trkpt lat="47.56783" lon="-2.17424">
        <ele>42.8</ele>
        <time>2021-08-14T07:56:26Z</time>
      </trkpt>
      <trkpt lat="47.56787" lon="-2.17427">
        <ele>42.8</ele>
        <time>2021-08-14T07:56:27Z</time>
      </trkpt>
      <trkpt lat="47.56794" lon="-2.17433">
        <ele>42.6</ele>
        <time>2021-08-14T07:56:29Z</time>
      </trkpt>
      <trkpt lat="47.56801" lon="-2.1744">
        <ele>42.4</ele>
        <time>2021-08-14T07:56:31Z</time>
      </trkpt>
      <trkpt lat="47.56808" lon="-2.17446">
        <ele>42.2</ele>
        <time>2021-08-14T07:56:33Z</time>
      </trkpt>
      <trkpt lat="47.56811" lon="-2.17449">
        <ele>42.1</ele>
        <time>2021-08-14T07:56:34Z</time>
      </trkpt>
      <trkpt lat="47.56818" lon="-2.17456">
        <ele>41.9</ele>
        <time>2021-08-14T07:56:36Z</time>
      </trkpt>
      <trkpt lat="47.56822" lon="-2.17459">
        <ele>41.8</ele>
        <time>2021-08-14T07:56:37Z</time>
      </trkpt>
      <trkpt lat="47.5683" lon="-2.17467">
        <ele>41.6</ele>
        <time>2021-08-14T07:56:39Z</time>
      </trkpt>
      <trkpt lat="47.56835" lon="-2.17471">
        <ele>41.4</ele>
        <time>2021-08-14T07:56:40Z</time>
      </trkpt>
      <trkpt lat="47.5684" lon="-2.17476">
        <ele>41.3</ele>
        <time>2021-08-14T07:56:41Z</time>
      </trkpt>
      <trkpt lat="47.56849" lon="-2.17484">
        <ele>41</ele>
        <time>2021-08-14T07:56:43Z</time>
      </trkpt>
      <trkpt lat="47.56858" lon="-2.17492">
        <ele>40.7</ele>
        <time>2021-08-14T07:56:45Z</time>
      </trkpt>
      <trkpt lat="47.56862" lon="-2.17497">
        <ele>40.5</ele>
        <time>2021-08-14T07:56:46Z</time>
      </trkpt>
      <trkpt lat="47.56871" lon="-2.17505">
        <ele>40.2</ele>
        <time>2021-08-14T07:56:48Z</time>
      </trkpt>
      <trkpt lat="47.56881" lon="-2.17514">
        <ele>39.9</ele>
        <time>2021-08-14T07:56:50Z</time>
      </trkpt>
      <trkpt lat="47.5689" lon="-2.17524">
        <ele>39.5</ele>
        <time>2021-08-14T07:56:52Z</time>
      </trkpt>
      <trkpt lat="47.56895" lon="-2.17538">
        <ele>39.2</ele>
        <time>2021-08-14T07:56:54Z</time>
      </trkpt>
      <trkpt lat="47.56897" lon="-2.17545">
        <ele>39.2</ele>
        <time>2021-08-14T07:56:55Z</time>
      </trkpt>
      <trkpt lat="47.56898" lon="-2.17552">
        <ele>39.2</ele>
        <time>2021-08-14T07:56:56Z</time>
      </trkpt>
      <trkpt lat="47.569" lon="-2.17558">
        <ele>39.1</ele>
        <time>2021-08-14T07:56:57Z</time>
      </trkpt>
      <trkpt lat="47.56902" lon="-2.17566">
        <ele>39.1</ele>
        <time>2021-08-14T07:56:59Z</time>
      </trkpt>
      <trkpt lat="47.56903" lon="-2.17571">
        <ele>39</ele>
        <time>2021-08-14T07:57:00Z</time>
      </trkpt>
      <trkpt lat="47.56904" lon="-2.17577">
        <ele>39</ele>
        <time>2021-08-14T07:57:02Z</time>
      </trkpt>
      <trkpt lat="47.56904" lon="-2.17582">
        <ele>38.9</ele>
        <time>2021-08-14T07:57:03Z</time>
      </trkpt>
      <trkpt lat="47.56905" lon="-2.17587">
        <ele>38.9</ele>
        <time>2021-08-14T07:57:04Z</time>
      </trkpt>
      <trkpt lat="47.56907" lon="-2.17591">
        <ele>38.9</ele>
        <time>2021-08-14T07:57:06Z</time>
      </trkpt>
      <trkpt lat="47.56908" lon="-2.17596">
        <ele>38.8</ele>
        <time>2021-08-14T07:57:07Z</time>
      </trkpt>
      <trkpt lat="47.56909" lon="-2.17606">
        <ele>38.7</ele>
        <time>2021-08-14T07:57:09Z</time>
      </trkpt>
      <trkpt lat="47.56911" lon="-2.17619">
        <ele>38.6</ele>
        <time>2021-08-14T07:57:10Z</time>
      </trkpt>
      <trkpt lat="47.56912" lon="-2.17627">
        <ele>38.5</ele>
        <time>2021-08-14T07:57:11Z</time>
      </trkpt>
      <trkpt lat="47.56913" lon="-2.17634">
        <ele>38.4</ele>
        <time>2021-08-14T07:57:12Z</time>
      </trkpt>
      <trkpt lat="47.56914" lon="-2.17643">
        <ele>38.3</ele>
        <time>2021-08-14T07:57:14Z</time>
      </trkpt>
      <trkpt lat="47.56915" lon="-2.17653">
        <ele>38.2</ele>
        <time>2021-08-14T07:57:15Z</time>
      </trkpt>
      <trkpt lat="47.56916" lon="-2.17661">
        <ele>38.1</ele>
        <time>2021-08-14T07:57:16Z</time>
      </trkpt>
      <trkpt lat="47.56918" lon="-2.17673">
        <ele>37.9</ele>
        <time>2021-08-14T07:57:18Z</time>
      </trkpt>
      <trkpt lat="47.56919" lon="-2.17682">
        <ele>37.8</ele>
        <time>2021-08-14T07:57:19Z</time>
      </trkpt>
      <trkpt lat="47.5692" lon="-2.1769">
        <ele>37.7</ele>
        <time>2021-08-14T07:57:20Z</time>
      </trkpt>
      <trkpt lat="47.56921" lon="-2.17699">
        <ele>37.5</ele>
        <time>2021-08-14T07:57:22Z</time>
      </trkpt>
      <trkpt lat="47.56923" lon="-2.17708">
        <ele>37.4</ele>
        <time>2021-08-14T07:57:23Z</time>
      </trkpt>
      <trkpt lat="47.56923" lon="-2.17714">
        <ele>37.3</ele>
        <time>2021-08-14T07:57:24Z</time>
      </trkpt>
      <trkpt lat="47.56924" lon="-2.1772">
        <ele>37.2</ele>
        <time>2021-08-14T07:57:25Z</time>
      </trkpt>
      <trkpt lat="47.56927" lon="-2.17729">
        <ele>36.9</ele>
        <time>2021-08-14T07:57:27Z</time>
      </trkpt>
      <trkpt lat="47.56928" lon="-2.17734">
        <ele>36.8</ele>
        <time>2021-08-14T07:57:28Z</time>
      </trkpt>
      <trkpt lat="47.56932" lon="-2.17746">
        <ele>36.4</ele>
        <time>2021-08-14T07:57:30Z</time>
      </trkpt>
      <trkpt lat="47.56937" lon="-2.17753">
        <ele>36.1</ele>
        <time>2021-08-14T07:57:32Z</time>
      </trkpt>
      <trkpt lat="47.56942" lon="-2.17759">
        <ele>35.7</ele>
        <time>2021-08-14T07:57:33Z</time>
      </trkpt>
      <trkpt lat="47.56946" lon="-2.17765">
        <ele>35.4</ele>
        <time>2021-08-14T07:57:34Z</time>
      </trkpt>
      <trkpt lat="47.56954" lon="-2.17776">
        <ele>34.7</ele>
        <time>2021-08-14T07:57:36Z</time>
      </trkpt>
      <trkpt lat="47.56957" lon="-2.17783">
        <ele>34.3</ele>
        <time>2021-08-14T07:57:37Z</time>
      </trkpt>
      <trkpt lat="47.56964" lon="-2.17799">
        <ele>33.5</ele>
        <time>2021-08-14T07:57:39Z</time>
      </trkpt>
      <trkpt lat="47.5697" lon="-2.17817">
        <ele>32.6</ele>
        <time>2021-08-14T07:57:41Z</time>
      </trkpt>
      <trkpt lat="47.56974" lon="-2.17835">
        <ele>31.8</ele>
        <time>2021-08-14T07:57:43Z</time>
      </trkpt>
      <trkpt lat="47.56975" lon="-2.17842">
        <ele>31.4</ele>
        <time>2021-08-14T07:57:44Z</time>
      </trkpt>
      <trkpt lat="47.56978" lon="-2.17856">
        <ele>30.9</ele>
        <time>2021-08-14T07:57:46Z</time>
      </trkpt>
      <trkpt lat="47.56979" lon="-2.17862">
        <ele>30.6</ele>
        <time>2021-08-14T07:57:47Z</time>
      </trkpt>
      <trkpt lat="47.56982" lon="-2.17875">
        <ele>30.1</ele>
        <time>2021-08-14T07:57:49Z</time>
      </trkpt>
      <trkpt lat="47.56985" lon="-2.17884">
        <ele>29.7</ele>
        <time>2021-08-14T07:57:51Z</time>
      </trkpt>
      <trkpt lat="47.56986" lon="-2.17888">
        <ele>29.6</ele>
        <time>2021-08-14T07:57:52Z</time>
      </trkpt>
      <trkpt lat="47.56987" lon="-2.17893">
        <ele>29.4</ele>
        <time>2021-08-14T07:57:54Z</time>
      </trkpt>
      <trkpt lat="47.56988" lon="-2.17898">
        <ele>29.3</ele>
        <time>2021-08-14T07:57:55Z</time>
      </trkpt>
      <trkpt lat="47.56988" lon="-2.179">
        <ele>29.2</ele>
        <time>2021-08-14T07:57:56Z</time>
      </trkpt>
      <trkpt lat="47.56988" lon="-2.17907">
        <ele>29.1</ele>
        <time>2021-08-14T07:57:58Z</time>
      </trkpt>
      <trkpt lat="47.56989" lon="-2.17909">
        <ele>29</ele>
        <time>2021-08-14T07:57:59Z</time>
      </trkpt>
      <trkpt lat="47.5699" lon="-2.17912">
        <ele>29</ele>
        <time>2021-08-14T07:58:00Z</time>
      </trkpt>
      <trkpt lat="47.56991" lon="-2.1792">
        <ele>28.8</ele>
        <time>2021-08-14T07:58:02Z</time>
      </trkpt>
      <trkpt lat="47.56991" lon="-2.17925">
        <ele>28.7</ele>
        <time>2021-08-14T07:58:03Z</time>
      </trkpt>
      <trkpt lat="47.56991" lon="-2.17927">
        <ele>28.7</ele>
        <time>2021-08-14T07:58:04Z</time>
      </trkpt>
      <trkpt lat="47.56992" lon="-2.17933">
        <ele>28.6</ele>
        <time>2021-08-14T07:58:06Z</time>
      </trkpt>
      <trkpt lat="47.56993" lon="-2.17937">
        <ele>28.6</ele>
        <time>2021-08-14T07:58:07Z</time>
      </trkpt>
      <trkpt lat="47.56995" lon="-2.17943">
        <ele>28.6</ele>
        <time>2021-08-14T07:58:09Z</time>
      </trkpt>
      <trkpt lat="47.56997" lon="-2.17948">
        <ele>28.7</ele>
        <time>2021-08-14T07:58:11Z</time>
      </trkpt>
      <trkpt lat="47.56998" lon="-2.17951">
        <ele>28.7</ele>
        <time>2021-08-14T07:58:12Z</time>
      </trkpt>
      <trkpt lat="47.57" lon="-2.17956">
        <ele>28.8</ele>
        <time>2021-08-14T07:58:13Z</time>
      </trkpt>
      <trkpt lat="47.57" lon="-2.17958">
        <ele>28.9</ele>
        <time>2021-08-14T07:58:14Z</time>
      </trkpt>
      <trkpt lat="47.57" lon="-2.17964">
        <ele>29</ele>
        <time>2021-08-14T07:58:16Z</time>
      </trkpt>
      <trkpt lat="47.56999" lon="-2.17969">
        <ele>29.2</ele>
        <time>2021-08-14T07:58:17Z</time>
      </trkpt>
      <trkpt lat="47.56999" lon="-2.17971">
        <ele>29.3</ele>
        <time>2021-08-14T07:58:18Z</time>
      </trkpt>
      <trkpt lat="47.56998" lon="-2.17977">
        <ele>29.5</ele>
        <time>2021-08-14T07:58:20Z</time>
      </trkpt>
      <trkpt lat="47.56999" lon="-2.17982">
        <ele>29.8</ele>
        <time>2021-08-14T07:58:22Z</time>
      </trkpt>
      <trkpt lat="47.56999" lon="-2.17983">
        <ele>29.8</ele>
        <time>2021-08-14T07:58:23Z</time>
      </trkpt>
      <trkpt lat="47.57" lon="-2.17986">
        <ele>30.1</ele>
        <time>2021-08-14T07:58:24Z</time>
      </trkpt>
      <trkpt lat="47.57001" lon="-2.17991">
        <ele>30.3</ele>
        <time>2021-08-14T07:58:26Z</time>
      </trkpt>
      <trkpt lat="47.57002" lon="-2.17993">
        <ele>30.5</ele>
        <time>2021-08-14T07:58:27Z</time>
      </trkpt>
      <trkpt lat="47.57003" lon="-2.17994">
        <ele>30.7</ele>
        <time>2021-08-14T07:58:28Z</time>
      </trkpt>
      <trkpt lat="47.57005" lon="-2.17996">
        <ele>30.8</ele>
        <time>2021-08-14T07:58:30Z</time>
      </trkpt>
      <trkpt lat="47.57005" lon="-2.17998">
        <ele>31</ele>
        <time>2021-08-14T07:58:31Z</time>
      </trkpt>
      <trkpt lat="47.57006" lon="-2.18">
        <ele>31.1</ele>
        <time>2021-08-14T07:58:32Z</time>
      </trkpt>
      <trkpt lat="47.57006" lon="-2.18002">
        <ele>31.3</ele>
        <time>2021-08-14T07:58:33Z</time>
      </trkpt>
      <trkpt lat="47.57007" lon="-2.18004">
        <ele>31.5</ele>
        <time>2021-08-14T07:58:34Z</time>
      </trkpt>
      <trkpt lat="47.57008" lon="-2.18007">
        <ele>31.7</ele>
        <time>2021-08-14T07:58:36Z</time>
      </trkpt>
      <trkpt lat="47.5701" lon="-2.18011">
        <ele>32</ele>
        <time>2021-08-14T07:58:37Z</time>
      </trkpt>
      <trkpt lat="47.5701" lon="-2.18012">
        <ele>32.1</ele>
        <time>2021-08-14T07:58:38Z</time>
      </trkpt>
      <trkpt lat="47.57011" lon="-2.18017">
        <ele>32.5</ele>
        <time>2021-08-14T07:58:40Z</time>
      </trkpt>
      <trkpt lat="47.57012" lon="-2.18019">
        <ele>32.6</ele>
        <time>2021-08-14T07:58:41Z</time>
      </trkpt>
      <trkpt lat="47.57012" lon="-2.18021">
        <ele>32.8</ele>
        <time>2021-08-14T07:58:42Z</time>
      </trkpt>
      <trkpt lat="47.57013" lon="-2.18024">
        <ele>33</ele>
        <time>2021-08-14T07:58:43Z</time>
      </trkpt>
      <trkpt lat="47.57013" lon="-2.18026">
        <ele>33.1</ele>
        <time>2021-08-14T07:58:44Z</time>
      </trkpt>
      <trkpt lat="47.57014" lon="-2.18028">
        <ele>33.3</ele>
        <time>2021-08-14T07:58:45Z</time>
      </trkpt>
      <trkpt lat="47.57014" lon="-2.1803">
        <ele>33.4</ele>
        <time>2021-08-14T07:58:46Z</time>
      </trkpt>
      <trkpt lat="47.57015" lon="-2.18033">
        <ele>33.6</ele>
        <time>2021-08-14T07:58:48Z</time>
      </trkpt>
      <trkpt lat="47.57015" lon="-2.18036">
        <ele>33.8</ele>
        <time>2021-08-14T07:58:49Z</time>
      </trkpt>
      <trkpt lat="47.57016" lon="-2.18038">
        <ele>33.9</ele>
        <time>2021-08-14T07:58:50Z</time>
      </trkpt>
      <trkpt lat="47.57016" lon="-2.1804">
        <ele>34</ele>
        <time>2021-08-14T07:58:51Z</time>
      </trkpt>
      <trkpt lat="47.57016" lon="-2.18044">
        <ele>34.3</ele>
        <time>2021-08-14T07:58:53Z</time>
      </trkpt>
      <trkpt lat="47.57017" lon="-2.18047">
        <ele>34.4</ele>
        <time>2021-08-14T07:58:55Z</time>
      </trkpt>
      <trkpt lat="47.57016" lon="-2.18049">
        <ele>34.6</ele>
        <time>2021-08-14T07:58:56Z</time>
      </trkpt>
      <trkpt lat="47.57017" lon="-2.18054">
        <ele>34.8</ele>
        <time>2021-08-14T07:58:57Z</time>
      </trkpt>
      <trkpt lat="47.57017" lon="-2.18055">
        <ele>34.9</ele>
        <time>2021-08-14T07:58:58Z</time>
      </trkpt>
      <trkpt lat="47.57018" lon="-2.18058">
        <ele>35</ele>
        <time>2021-08-14T07:58:59Z</time>
      </trkpt>
      <trkpt lat="47.57018" lon="-2.18061">
        <ele>35.2</ele>
        <time>2021-08-14T07:59:01Z</time>
      </trkpt>
      <trkpt lat="47.57019" lon="-2.18064">
        <ele>35.3</ele>
        <time>2021-08-14T07:59:02Z</time>
      </trkpt>
      <trkpt lat="47.57019" lon="-2.18066">
        <ele>35.4</ele>
        <time>2021-08-14T07:59:03Z</time>
      </trkpt>
      <trkpt lat="47.5702" lon="-2.1807">
        <ele>35.6</ele>
        <time>2021-08-14T07:59:04Z</time>
      </trkpt>
      <trkpt lat="47.5702" lon="-2.18071">
        <ele>35.7</ele>
        <time>2021-08-14T07:59:05Z</time>
      </trkpt>
      <trkpt lat="47.57021" lon="-2.18075">
        <ele>35.9</ele>
        <time>2021-08-14T07:59:06Z</time>
      </trkpt>
      <trkpt lat="47.57021" lon="-2.18077">
        <ele>35.9</ele>
        <time>2021-08-14T07:59:08Z</time>
      </trkpt>
      <trkpt lat="47.57021" lon="-2.18078">
        <ele>36</ele>
        <time>2021-08-14T07:59:09Z</time>
      </trkpt>
      <trkpt lat="47.57021" lon="-2.18079">
        <ele>36</ele>
        <time>2021-08-14T07:59:11Z</time>
      </trkpt>
      <trkpt lat="47.57022" lon="-2.1808">
        <ele>36.1</ele>
        <time>2021-08-14T07:59:12Z</time>
      </trkpt>
      <trkpt lat="47.57022" lon="-2.18082">
        <ele>36.2</ele>
        <time>2021-08-14T07:59:13Z</time>
      </trkpt>
      <trkpt lat="47.57022" lon="-2.18083">
        <ele>36.2</ele>
        <time>2021-08-14T07:59:15Z</time>
      </trkpt>
      <trkpt lat="47.57022" lon="-2.18084">
        <ele>36.3</ele>
        <time>2021-08-14T07:59:16Z</time>
      </trkpt>
      <trkpt lat="47.57022" lon="-2.18085">
        <ele>36.3</ele>
        <time>2021-08-14T07:59:23Z</time>
      </trkpt>
      <trkpt lat="47.57022" lon="-2.18087">
        <ele>36.4</ele>
        <time>2021-08-14T07:59:25Z</time>
      </trkpt>
      <trkpt lat="47.57022" lon="-2.18088">
        <ele>36.4</ele>
        <time>2021-08-14T07:59:26Z</time>
      </trkpt>
      <trkpt lat="47.57022" lon="-2.18089">
        <ele>36.5</ele>
        <time>2021-08-14T07:59:27Z</time>
      </trkpt>
      <trkpt lat="47.57023" lon="-2.18094">
        <ele>36.7</ele>
        <time>2021-08-14T07:59:28Z</time>
      </trkpt>
      <trkpt lat="47.57024" lon="-2.18096">
        <ele>36.7</ele>
        <time>2021-08-14T07:59:29Z</time>
      </trkpt>
      <trkpt lat="47.57025" lon="-2.18101">
        <ele>36.9</ele>
        <time>2021-08-14T07:59:31Z</time>
      </trkpt>
      <trkpt lat="47.57025" lon="-2.18104">
        <ele>37.1</ele>
        <time>2021-08-14T07:59:32Z</time>
      </trkpt>
      <trkpt lat="47.57026" lon="-2.18107">
        <ele>37.2</ele>
        <time>2021-08-14T07:59:34Z</time>
      </trkpt>
      <trkpt lat="47.57027" lon="-2.18111">
        <ele>37.3</ele>
        <time>2021-08-14T07:59:35Z</time>
      </trkpt>
      <trkpt lat="47.57028" lon="-2.18113">
        <ele>37.4</ele>
        <time>2021-08-14T07:59:36Z</time>
      </trkpt>
      <trkpt lat="47.57029" lon="-2.18115">
        <ele>37.5</ele>
        <time>2021-08-14T07:59:37Z</time>
      </trkpt>
      <trkpt lat="47.57031" lon="-2.18119">
        <ele>37.6</ele>
        <time>2021-08-14T07:59:39Z</time>
      </trkpt>
      <trkpt lat="47.57032" lon="-2.18121">
        <ele>37.7</ele>
        <time>2021-08-14T07:59:40Z</time>
      </trkpt>
      <trkpt lat="47.57034" lon="-2.18126">
        <ele>37.9</ele>
        <time>2021-08-14T07:59:42Z</time>
      </trkpt>
      <trkpt lat="47.57036" lon="-2.18131">
        <ele>38</ele>
        <time>2021-08-14T07:59:44Z</time>
      </trkpt>
      <trkpt lat="47.57036" lon="-2.18132">
        <ele>38.1</ele>
        <time>2021-08-14T07:59:45Z</time>
      </trkpt>
      <trkpt lat="47.57037" lon="-2.18135">
        <ele>38.2</ele>
        <time>2021-08-14T07:59:46Z</time>
      </trkpt>
      <trkpt lat="47.57039" lon="-2.18138">
        <ele>38.3</ele>
        <time>2021-08-14T07:59:48Z</time>
      </trkpt>
      <trkpt lat="47.5704" lon="-2.18142">
        <ele>38.4</ele>
        <time>2021-08-14T07:59:49Z</time>
      </trkpt>
      <trkpt lat="47.57041" lon="-2.18143">
        <ele>38.4</ele>
        <time>2021-08-14T07:59:50Z</time>
      </trkpt>
      <trkpt lat="47.57042" lon="-2.18148">
        <ele>38.6</ele>
        <time>2021-08-14T07:59:52Z</time>
      </trkpt>
      <trkpt lat="47.57043" lon="-2.18149">
        <ele>38.6</ele>
        <time>2021-08-14T07:59:53Z</time>
      </trkpt>
      <trkpt lat="47.57044" lon="-2.18154">
        <ele>38.7</ele>
        <time>2021-08-14T07:59:54Z</time>
      </trkpt>
      <trkpt lat="47.57044" lon="-2.18155">
        <ele>38.8</ele>
        <time>2021-08-14T07:59:55Z</time>
      </trkpt>
      <trkpt lat="47.57045" lon="-2.1816">
        <ele>38.9</ele>
        <time>2021-08-14T07:59:57Z</time>
      </trkpt>
      <trkpt lat="47.57046" lon="-2.18164">
        <ele>39</ele>
        <time>2021-08-14T07:59:59Z</time>
      </trkpt>
      <trkpt lat="47.57047" lon="-2.18167">
        <ele>39.1</ele>
        <time>2021-08-14T08:00:00Z</time>
      </trkpt>
      <trkpt lat="47.57047" lon="-2.18169">
        <ele>39.1</ele>
        <time>2021-08-14T08:00:01Z</time>
      </trkpt>
      <trkpt lat="47.57048" lon="-2.18176">
        <ele>39.3</ele>
        <time>2021-08-14T08:00:03Z</time>
      </trkpt>
      <trkpt lat="47.57049" lon="-2.18178">
        <ele>39.3</ele>
        <time>2021-08-14T08:00:05Z</time>
      </trkpt>
      <trkpt lat="47.5705" lon="-2.18181">
        <ele>39.4</ele>
        <time>2021-08-14T08:00:06Z</time>
      </trkpt>
      <trkpt lat="47.5705" lon="-2.18183">
        <ele>39.5</ele>
        <time>2021-08-14T08:00:07Z</time>
      </trkpt>
      <trkpt lat="47.57052" lon="-2.18188">
        <ele>39.6</ele>
        <time>2021-08-14T08:00:09Z</time>
      </trkpt>
      <trkpt lat="47.57053" lon="-2.18193">
        <ele>39.7</ele>
        <time>2021-08-14T08:00:10Z</time>
      </trkpt>
      <trkpt lat="47.57054" lon="-2.18194">
        <ele>39.7</ele>
        <time>2021-08-14T08:00:11Z</time>
      </trkpt>
      <trkpt lat="47.57054" lon="-2.18197">
        <ele>39.8</ele>
        <time>2021-08-14T08:00:12Z</time>
      </trkpt>
      <trkpt lat="47.57055" lon="-2.18201">
        <ele>39.9</ele>
        <time>2021-08-14T08:00:14Z</time>
      </trkpt>
      <trkpt lat="47.57057" lon="-2.18206">
        <ele>40</ele>
        <time>2021-08-14T08:00:15Z</time>
      </trkpt>
      <trkpt lat="47.57057" lon="-2.18209">
        <ele>40.1</ele>
        <time>2021-08-14T08:00:16Z</time>
      </trkpt>
      <trkpt lat="47.57058" lon="-2.18214">
        <ele>40.3</ele>
        <time>2021-08-14T08:00:18Z</time>
      </trkpt>
      <trkpt lat="47.57059" lon="-2.18221">
        <ele>40.4</ele>
        <time>2021-08-14T08:00:20Z</time>
      </trkpt>
      <trkpt lat="47.5706" lon="-2.18223">
        <ele>40.5</ele>
        <time>2021-08-14T08:00:21Z</time>
      </trkpt>
      <trkpt lat="47.5706" lon="-2.18225">
        <ele>40.5</ele>
        <time>2021-08-14T08:00:22Z</time>
      </trkpt>
      <trkpt lat="47.57061" lon="-2.18228">
        <ele>40.6</ele>
        <time>2021-08-14T08:00:23Z</time>
      </trkpt>
      <trkpt lat="47.57061" lon="-2.18232">
        <ele>40.7</ele>
        <time>2021-08-14T08:00:25Z</time>
      </trkpt>
      <trkpt lat="47.57062" lon="-2.18237">
        <ele>40.9</ele>
        <time>2021-08-14T08:00:26Z</time>
      </trkpt>
      <trkpt lat="47.57062" lon="-2.18238">
        <ele>40.9</ele>
        <time>2021-08-14T08:00:27Z</time>
      </trkpt>
      <trkpt lat="47.57063" lon="-2.18242">
        <ele>41</ele>
        <time>2021-08-14T08:00:28Z</time>
      </trkpt>
      <trkpt lat="47.57063" lon="-2.18243">
        <ele>41.1</ele>
        <time>2021-08-14T08:00:29Z</time>
      </trkpt>
      <trkpt lat="47.57064" lon="-2.18248">
        <ele>41.2</ele>
        <time>2021-08-14T08:00:31Z</time>
      </trkpt>
      <trkpt lat="47.57064" lon="-2.18251">
        <ele>41.3</ele>
        <time>2021-08-14T08:00:32Z</time>
      </trkpt>
      <trkpt lat="47.57065" lon="-2.18255">
        <ele>41.4</ele>
        <time>2021-08-14T08:00:34Z</time>
      </trkpt>
      <trkpt lat="47.57066" lon="-2.18259">
        <ele>41.5</ele>
        <time>2021-08-14T08:00:35Z</time>
      </trkpt>
      <trkpt lat="47.57067" lon="-2.18264">
        <ele>41.6</ele>
        <time>2021-08-14T08:00:37Z</time>
      </trkpt>
      <trkpt lat="47.57067" lon="-2.18268">
        <ele>41.8</ele>
        <time>2021-08-14T08:00:38Z</time>
      </trkpt>
      <trkpt lat="47.57068" lon="-2.18272">
        <ele>41.9</ele>
        <time>2021-08-14T08:00:40Z</time>
      </trkpt>
      <trkpt lat="47.57069" lon="-2.18277">
        <ele>42</ele>
        <time>2021-08-14T08:00:41Z</time>
      </trkpt>
      <trkpt lat="47.5707" lon="-2.18279">
        <ele>42.1</ele>
        <time>2021-08-14T08:00:42Z</time>
      </trkpt>
      <trkpt lat="47.57071" lon="-2.18285">
        <ele>42.3</ele>
        <time>2021-08-14T08:00:44Z</time>
      </trkpt>
      <trkpt lat="47.57072" lon="-2.18288">
        <ele>42.4</ele>
        <time>2021-08-14T08:00:45Z</time>
      </trkpt>
      <trkpt lat="47.57073" lon="-2.18294">
        <ele>42.5</ele>
        <time>2021-08-14T08:00:47Z</time>
      </trkpt>
      <trkpt lat="47.57073" lon="-2.18296">
        <ele>42.6</ele>
        <time>2021-08-14T08:00:48Z</time>
      </trkpt>
      <trkpt lat="47.57074" lon="-2.183">
        <ele>42.7</ele>
        <time>2021-08-14T08:00:50Z</time>
      </trkpt>
      <trkpt lat="47.57075" lon="-2.18305">
        <ele>42.8</ele>
        <time>2021-08-14T08:00:51Z</time>
      </trkpt>
      <trkpt lat="47.57075" lon="-2.18306">
        <ele>42.8</ele>
        <time>2021-08-14T08:00:52Z</time>
      </trkpt>
      <trkpt lat="47.57076" lon="-2.18312">
        <ele>43</ele>
        <time>2021-08-14T08:00:54Z</time>
      </trkpt>
      <trkpt lat="47.57076" lon="-2.18315">
        <ele>43</ele>
        <time>2021-08-14T08:00:55Z</time>
      </trkpt>
      <trkpt lat="47.57077" lon="-2.18321">
        <ele>43.2</ele>
        <time>2021-08-14T08:00:57Z</time>
      </trkpt>
      <trkpt lat="47.57078" lon="-2.18326">
        <ele>43.3</ele>
        <time>2021-08-14T08:00:59Z</time>
      </trkpt>
      <trkpt lat="47.57078" lon="-2.18327">
        <ele>43.3</ele>
        <time>2021-08-14T08:01:00Z</time>
      </trkpt>
      <trkpt lat="47.57078" lon="-2.18333">
        <ele>43.4</ele>
        <time>2021-08-14T08:01:02Z</time>
      </trkpt>
      <trkpt lat="47.57078" lon="-2.18335">
        <ele>43.5</ele>
        <time>2021-08-14T08:01:03Z</time>
      </trkpt>
      <trkpt lat="47.57078" lon="-2.18338">
        <ele>43.5</ele>
        <time>2021-08-14T08:01:04Z</time>
      </trkpt>
      <trkpt lat="47.57079" lon="-2.18345">
        <ele>43.7</ele>
        <time>2021-08-14T08:01:06Z</time>
      </trkpt>
      <trkpt lat="47.57079" lon="-2.1835">
        <ele>43.8</ele>
        <time>2021-08-14T08:01:07Z</time>
      </trkpt>
      <trkpt lat="47.57079" lon="-2.18356">
        <ele>43.9</ele>
        <time>2021-08-14T08:01:09Z</time>
      </trkpt>
      <trkpt lat="47.57079" lon="-2.18361">
        <ele>44</ele>
        <time>2021-08-14T08:01:10Z</time>
      </trkpt>
      <trkpt lat="47.57079" lon="-2.18366">
        <ele>44.1</ele>
        <time>2021-08-14T08:01:11Z</time>
      </trkpt>
      <trkpt lat="47.57079" lon="-2.18372">
        <ele>44.2</ele>
        <time>2021-08-14T08:01:13Z</time>
      </trkpt>
      <trkpt lat="47.57081" lon="-2.1838">
        <ele>44.4</ele>
        <time>2021-08-14T08:01:15Z</time>
      </trkpt>
      <trkpt lat="47.5708" lon="-2.18386">
        <ele>44.5</ele>
        <time>2021-08-14T08:01:17Z</time>
      </trkpt>
      <trkpt lat="47.5708" lon="-2.18391">
        <ele>44.6</ele>
        <time>2021-08-14T08:01:18Z</time>
      </trkpt>
      <trkpt lat="47.57079" lon="-2.18396">
        <ele>44.7</ele>
        <time>2021-08-14T08:01:19Z</time>
      </trkpt>
      <trkpt lat="47.57079" lon="-2.18398">
        <ele>44.8</ele>
        <time>2021-08-14T08:01:20Z</time>
      </trkpt>
      <trkpt lat="47.57078" lon="-2.18404">
        <ele>44.9</ele>
        <time>2021-08-14T08:01:22Z</time>
      </trkpt>
      <trkpt lat="47.57077" lon="-2.18408">
        <ele>45</ele>
        <time>2021-08-14T08:01:23Z</time>
      </trkpt>
      <trkpt lat="47.57076" lon="-2.18414">
        <ele>45.1</ele>
        <time>2021-08-14T08:01:25Z</time>
      </trkpt>
      <trkpt lat="47.57075" lon="-2.18419">
        <ele>45.2</ele>
        <time>2021-08-14T08:01:27Z</time>
      </trkpt>
      <trkpt lat="47.57074" lon="-2.18423">
        <ele>45.3</ele>
        <time>2021-08-14T08:01:28Z</time>
      </trkpt>
      <trkpt lat="47.57074" lon="-2.18429">
        <ele>45.5</ele>
        <time>2021-08-14T08:01:29Z</time>
      </trkpt>
      <trkpt lat="47.57073" lon="-2.18431">
        <ele>45.5</ele>
        <time>2021-08-14T08:01:30Z</time>
      </trkpt>
      <trkpt lat="47.57072" lon="-2.18438">
        <ele>45.7</ele>
        <time>2021-08-14T08:01:32Z</time>
      </trkpt>
      <trkpt lat="47.5707" lon="-2.18443">
        <ele>45.8</ele>
        <time>2021-08-14T08:01:33Z</time>
      </trkpt>
      <trkpt lat="47.5707" lon="-2.18444">
        <ele>45.8</ele>
        <time>2021-08-14T08:01:34Z</time>
      </trkpt>
      <trkpt lat="47.57068" lon="-2.18451">
        <ele>45.9</ele>
        <time>2021-08-14T08:01:36Z</time>
      </trkpt>
      <trkpt lat="47.57067" lon="-2.18453">
        <ele>46</ele>
        <time>2021-08-14T08:01:37Z</time>
      </trkpt>
      <trkpt lat="47.57066" lon="-2.18455">
        <ele>46</ele>
        <time>2021-08-14T08:01:38Z</time>
      </trkpt>
      <trkpt lat="47.57065" lon="-2.18459">
        <ele>46</ele>
        <time>2021-08-14T08:01:39Z</time>
      </trkpt>
      <trkpt lat="47.57063" lon="-2.18464">
        <ele>46.1</ele>
        <time>2021-08-14T08:01:40Z</time>
      </trkpt>
      <trkpt lat="47.57062" lon="-2.18465">
        <ele>46.1</ele>
        <time>2021-08-14T08:01:41Z</time>
      </trkpt>
      <trkpt lat="47.57061" lon="-2.18471">
        <ele>46.2</ele>
        <time>2021-08-14T08:01:43Z</time>
      </trkpt>
      <trkpt lat="47.5706" lon="-2.18475">
        <ele>46.2</ele>
        <time>2021-08-14T08:01:44Z</time>
      </trkpt>
      <trkpt lat="47.5706" lon="-2.18476">
        <ele>46.2</ele>
        <time>2021-08-14T08:01:45Z</time>
      </trkpt>
      <trkpt lat="47.57059" lon="-2.18479">
        <ele>46.3</ele>
        <time>2021-08-14T08:01:46Z</time>
      </trkpt>
      <trkpt lat="47.57058" lon="-2.18484">
        <ele>46.3</ele>
        <time>2021-08-14T08:01:48Z</time>
      </trkpt>
      <trkpt lat="47.57057" lon="-2.18489">
        <ele>46.3</ele>
        <time>2021-08-14T08:01:49Z</time>
      </trkpt>
      <trkpt lat="47.57056" lon="-2.1849">
        <ele>46.3</ele>
        <time>2021-08-14T08:01:50Z</time>
      </trkpt>
      <trkpt lat="47.57054" lon="-2.18495">
        <ele>46.3</ele>
        <time>2021-08-14T08:01:52Z</time>
      </trkpt>
      <trkpt lat="47.57053" lon="-2.185">
        <ele>46.3</ele>
        <time>2021-08-14T08:01:54Z</time>
      </trkpt>
      <trkpt lat="47.57052" lon="-2.18503">
        <ele>46.3</ele>
        <time>2021-08-14T08:01:55Z</time>
      </trkpt>
      <trkpt lat="47.5705" lon="-2.18509">
        <ele>46.3</ele>
        <time>2021-08-14T08:01:56Z</time>
      </trkpt>
      <trkpt lat="47.57048" lon="-2.18516">
        <ele>46.3</ele>
        <time>2021-08-14T08:01:58Z</time>
      </trkpt>
      <trkpt lat="47.57046" lon="-2.18523">
        <ele>46.3</ele>
        <time>2021-08-14T08:01:59Z</time>
      </trkpt>
      <trkpt lat="47.57044" lon="-2.18531">
        <ele>46.2</ele>
        <time>2021-08-14T08:02:01Z</time>
      </trkpt>
      <trkpt lat="47.57042" lon="-2.18536">
        <ele>46.2</ele>
        <time>2021-08-14T08:02:02Z</time>
      </trkpt>
      <trkpt lat="47.5704" lon="-2.18542">
        <ele>46.2</ele>
        <time>2021-08-14T08:02:04Z</time>
      </trkpt>
      <trkpt lat="47.57038" lon="-2.18547">
        <ele>46.1</ele>
        <time>2021-08-14T08:02:05Z</time>
      </trkpt>
      <trkpt lat="47.57037" lon="-2.1855">
        <ele>46.1</ele>
        <time>2021-08-14T08:02:06Z</time>
      </trkpt>
      <trkpt lat="47.57035" lon="-2.18554">
        <ele>46</ele>
        <time>2021-08-14T08:02:07Z</time>
      </trkpt>
      <trkpt lat="47.57033" lon="-2.18559">
        <ele>46</ele>
        <time>2021-08-14T08:02:09Z</time>
      </trkpt>
      <trkpt lat="47.57031" lon="-2.18564">
        <ele>45.9</ele>
        <time>2021-08-14T08:02:10Z</time>
      </trkpt>
      <trkpt lat="47.57029" lon="-2.18571">
        <ele>45.8</ele>
        <time>2021-08-14T08:02:11Z</time>
      </trkpt>
      <trkpt lat="47.57027" lon="-2.18578">
        <ele>45.7</ele>
        <time>2021-08-14T08:02:12Z</time>
      </trkpt>
      <trkpt lat="47.57025" lon="-2.18586">
        <ele>45.7</ele>
        <time>2021-08-14T08:02:13Z</time>
      </trkpt>
      <trkpt lat="47.57023" lon="-2.18594">
        <ele>45.6</ele>
        <time>2021-08-14T08:02:15Z</time>
      </trkpt>
      <trkpt lat="47.57021" lon="-2.18602">
        <ele>45.5</ele>
        <time>2021-08-14T08:02:16Z</time>
      </trkpt>
      <trkpt lat="47.57019" lon="-2.1861">
        <ele>45.4</ele>
        <time>2021-08-14T08:02:18Z</time>
      </trkpt>
      <trkpt lat="47.57017" lon="-2.18616">
        <ele>45.3</ele>
        <time>2021-08-14T08:02:19Z</time>
      </trkpt>
      <trkpt lat="47.57015" lon="-2.18622">
        <ele>45.3</ele>
        <time>2021-08-14T08:02:20Z</time>
      </trkpt>
      <trkpt lat="47.57014" lon="-2.18628">
        <ele>45.2</ele>
        <time>2021-08-14T08:02:21Z</time>
      </trkpt>
      <trkpt lat="47.57012" lon="-2.18633">
        <ele>45.1</ele>
        <time>2021-08-14T08:02:22Z</time>
      </trkpt>
      <trkpt lat="47.5701" lon="-2.18639">
        <ele>45</ele>
        <time>2021-08-14T08:02:24Z</time>
      </trkpt>
      <trkpt lat="47.57007" lon="-2.18648">
        <ele>44.8</ele>
        <time>2021-08-14T08:02:25Z</time>
      </trkpt>
      <trkpt lat="47.57005" lon="-2.18653">
        <ele>44.7</ele>
        <time>2021-08-14T08:02:26Z</time>
      </trkpt>
      <trkpt lat="47.57003" lon="-2.1866">
        <ele>44.6</ele>
        <time>2021-08-14T08:02:28Z</time>
      </trkpt>
      <trkpt lat="47.57001" lon="-2.18666">
        <ele>44.4</ele>
        <time>2021-08-14T08:02:29Z</time>
      </trkpt>
      <trkpt lat="47.56999" lon="-2.18674">
        <ele>44.2</ele>
        <time>2021-08-14T08:02:30Z</time>
      </trkpt>
      <trkpt lat="47.56995" lon="-2.18684">
        <ele>43.9</ele>
        <time>2021-08-14T08:02:32Z</time>
      </trkpt>
      <trkpt lat="47.56993" lon="-2.18691">
        <ele>43.6</ele>
        <time>2021-08-14T08:02:34Z</time>
      </trkpt>
      <trkpt lat="47.5699" lon="-2.18697">
        <ele>43.4</ele>
        <time>2021-08-14T08:02:35Z</time>
      </trkpt>
      <trkpt lat="47.56988" lon="-2.18704">
        <ele>43.1</ele>
        <time>2021-08-14T08:02:36Z</time>
      </trkpt>
      <trkpt lat="47.56986" lon="-2.18711">
        <ele>42.9</ele>
        <time>2021-08-14T08:02:37Z</time>
      </trkpt>
      <trkpt lat="47.56983" lon="-2.18719">
        <ele>42.5</ele>
        <time>2021-08-14T08:02:38Z</time>
      </trkpt>
      <trkpt lat="47.56978" lon="-2.18733">
        <ele>41.9</ele>
        <time>2021-08-14T08:02:40Z</time>
      </trkpt>
      <trkpt lat="47.56976" lon="-2.1874">
        <ele>41.6</ele>
        <time>2021-08-14T08:02:41Z</time>
      </trkpt>
      <trkpt lat="47.56974" lon="-2.18747">
        <ele>41.3</ele>
        <time>2021-08-14T08:02:42Z</time>
      </trkpt>
      <trkpt lat="47.56968" lon="-2.18762">
        <ele>40.5</ele>
        <time>2021-08-14T08:02:44Z</time>
      </trkpt>
      <trkpt lat="47.56966" lon="-2.1877">
        <ele>40.1</ele>
        <time>2021-08-14T08:02:45Z</time>
      </trkpt>
      <trkpt lat="47.56961" lon="-2.18784">
        <ele>39.4</ele>
        <time>2021-08-14T08:02:47Z</time>
      </trkpt>
      <trkpt lat="47.56957" lon="-2.18797">
        <ele>38.7</ele>
        <time>2021-08-14T08:02:49Z</time>
      </trkpt>
      <trkpt lat="47.56955" lon="-2.18804">
        <ele>38.4</ele>
        <time>2021-08-14T08:02:50Z</time>
      </trkpt>
      <trkpt lat="47.56952" lon="-2.18814">
        <ele>37.9</ele>
        <time>2021-08-14T08:02:52Z</time>
      </trkpt>
      <trkpt lat="47.5695" lon="-2.18821">
        <ele>37.6</ele>
        <time>2021-08-14T08:02:54Z</time>
      </trkpt>
      <trkpt lat="47.5695" lon="-2.18828">
        <ele>36.6</ele>
        <time>2021-08-14T08:02:56Z</time>
      </trkpt>
      <trkpt lat="47.56951" lon="-2.18832">
        <ele>36.6</ele>
        <time>2021-08-14T08:02:57Z</time>
      </trkpt>
      <trkpt lat="47.56957" lon="-2.1883">
        <ele>36.7</ele>
        <time>2021-08-14T08:02:59Z</time>
      </trkpt>
      <trkpt lat="47.56959" lon="-2.18833">
        <ele>36.7</ele>
        <time>2021-08-14T08:03:00Z</time>
      </trkpt>
      <trkpt lat="47.56962" lon="-2.18835">
        <ele>36.8</ele>
        <time>2021-08-14T08:03:01Z</time>
      </trkpt>
      <trkpt lat="47.56966" lon="-2.18835">
        <ele>36.9</ele>
        <time>2021-08-14T08:03:03Z</time>
      </trkpt>
      <trkpt lat="47.56971" lon="-2.18835">
        <ele>37</ele>
        <time>2021-08-14T08:03:04Z</time>
      </trkpt>
      <trkpt lat="47.56976" lon="-2.18834">
        <ele>37.2</ele>
        <time>2021-08-14T08:03:06Z</time>
      </trkpt>
      <trkpt lat="47.56979" lon="-2.18833">
        <ele>37.4</ele>
        <time>2021-08-14T08:03:07Z</time>
      </trkpt>
      <trkpt lat="47.56982" lon="-2.18832">
        <ele>37.5</ele>
        <time>2021-08-14T08:03:08Z</time>
      </trkpt>
      <trkpt lat="47.56987" lon="-2.18832">
        <ele>37.8</ele>
        <time>2021-08-14T08:03:10Z</time>
      </trkpt>
      <trkpt lat="47.56991" lon="-2.18831">
        <ele>38</ele>
        <time>2021-08-14T08:03:11Z</time>
      </trkpt>
      <trkpt lat="47.56992" lon="-2.18831">
        <ele>38.1</ele>
        <time>2021-08-14T08:03:12Z</time>
      </trkpt>
      <trkpt lat="47.56994" lon="-2.1883">
        <ele>38.3</ele>
        <time>2021-08-14T08:03:13Z</time>
      </trkpt>
      <trkpt lat="47.56998" lon="-2.1883">
        <ele>38.5</ele>
        <time>2021-08-14T08:03:15Z</time>
      </trkpt>
      <trkpt lat="47.57003" lon="-2.18827">
        <ele>38.9</ele>
        <time>2021-08-14T08:03:17Z</time>
      </trkpt>
      <trkpt lat="47.57007" lon="-2.18826">
        <ele>39.2</ele>
        <time>2021-08-14T08:03:18Z</time>
      </trkpt>
      <trkpt lat="47.57009" lon="-2.18826">
        <ele>39.3</ele>
        <time>2021-08-14T08:03:19Z</time>
      </trkpt>
      <trkpt lat="47.57014" lon="-2.18825">
        <ele>39.7</ele>
        <time>2021-08-14T08:03:21Z</time>
      </trkpt>
      <trkpt lat="47.57019" lon="-2.18823">
        <ele>40.1</ele>
        <time>2021-08-14T08:03:23Z</time>
      </trkpt>
      <trkpt lat="47.57023" lon="-2.18821">
        <ele>40.3</ele>
        <time>2021-08-14T08:03:25Z</time>
      </trkpt>
      <trkpt lat="47.57026" lon="-2.1882">
        <ele>40.5</ele>
        <time>2021-08-14T08:03:26Z</time>
      </trkpt>
      <trkpt lat="47.5703" lon="-2.18819">
        <ele>40.8</ele>
        <time>2021-08-14T08:03:27Z</time>
      </trkpt>
      <trkpt lat="47.57032" lon="-2.18818">
        <ele>40.9</ele>
        <time>2021-08-14T08:03:28Z</time>
      </trkpt>
      <trkpt lat="47.57036" lon="-2.18817">
        <ele>41.1</ele>
        <time>2021-08-14T08:03:30Z</time>
      </trkpt>
      <trkpt lat="47.5704" lon="-2.18816">
        <ele>41.4</ele>
        <time>2021-08-14T08:03:31Z</time>
      </trkpt>
      <trkpt lat="47.57045" lon="-2.18814">
        <ele>41.6</ele>
        <time>2021-08-14T08:03:33Z</time>
      </trkpt>
      <trkpt lat="47.57048" lon="-2.18813">
        <ele>41.8</ele>
        <time>2021-08-14T08:03:34Z</time>
      </trkpt>
      <trkpt lat="47.57051" lon="-2.18812">
        <ele>41.9</ele>
        <time>2021-08-14T08:03:35Z</time>
      </trkpt>
      <trkpt lat="47.57054" lon="-2.18811">
        <ele>42.1</ele>
        <time>2021-08-14T08:03:36Z</time>
      </trkpt>
      <trkpt lat="47.57057" lon="-2.18811">
        <ele>42.3</ele>
        <time>2021-08-14T08:03:37Z</time>
      </trkpt>
      <trkpt lat="47.5706" lon="-2.1881">
        <ele>42.4</ele>
        <time>2021-08-14T08:03:39Z</time>
      </trkpt>
      <trkpt lat="47.57064" lon="-2.18809">
        <ele>42.6</ele>
        <time>2021-08-14T08:03:40Z</time>
      </trkpt>
      <trkpt lat="47.57067" lon="-2.18807">
        <ele>42.7</ele>
        <time>2021-08-14T08:03:41Z</time>
      </trkpt>
      <trkpt lat="47.57071" lon="-2.18806">
        <ele>42.8</ele>
        <time>2021-08-14T08:03:43Z</time>
      </trkpt>
      <trkpt lat="47.57075" lon="-2.18805">
        <ele>43</ele>
        <time>2021-08-14T08:03:44Z</time>
      </trkpt>
      <trkpt lat="47.57078" lon="-2.18804">
        <ele>43.1</ele>
        <time>2021-08-14T08:03:45Z</time>
      </trkpt>
      <trkpt lat="47.57081" lon="-2.18804">
        <ele>43.1</ele>
        <time>2021-08-14T08:03:46Z</time>
      </trkpt>
      <trkpt lat="47.57086" lon="-2.18802">
        <ele>43.3</ele>
        <time>2021-08-14T08:03:48Z</time>
      </trkpt>
      <trkpt lat="47.57089" lon="-2.18801">
        <ele>43.3</ele>
        <time>2021-08-14T08:03:49Z</time>
      </trkpt>
      <trkpt lat="47.57092" lon="-2.188">
        <ele>43.4</ele>
        <time>2021-08-14T08:03:50Z</time>
      </trkpt>
      <trkpt lat="47.57096" lon="-2.18799">
        <ele>43.5</ele>
        <time>2021-08-14T08:03:52Z</time>
      </trkpt>
      <trkpt lat="47.571" lon="-2.18798">
        <ele>43.6</ele>
        <time>2021-08-14T08:03:53Z</time>
      </trkpt>
      <trkpt lat="47.57105" lon="-2.18796">
        <ele>43.7</ele>
        <time>2021-08-14T08:03:55Z</time>
      </trkpt>
      <trkpt lat="47.57108" lon="-2.18795">
        <ele>43.8</ele>
        <time>2021-08-14T08:03:56Z</time>
      </trkpt>
      <trkpt lat="47.57113" lon="-2.18793">
        <ele>43.8</ele>
        <time>2021-08-14T08:03:58Z</time>
      </trkpt>
      <trkpt lat="47.57116" lon="-2.18793">
        <ele>43.9</ele>
        <time>2021-08-14T08:03:59Z</time>
      </trkpt>
      <trkpt lat="47.57119" lon="-2.18791">
        <ele>43.9</ele>
        <time>2021-08-14T08:04:00Z</time>
      </trkpt>
      <trkpt lat="47.57122" lon="-2.1879">
        <ele>43.9</ele>
        <time>2021-08-14T08:04:01Z</time>
      </trkpt>
      <trkpt lat="47.57127" lon="-2.18789">
        <ele>43.9</ele>
        <time>2021-08-14T08:04:03Z</time>
      </trkpt>
      <trkpt lat="47.57131" lon="-2.18788">
        <ele>43.9</ele>
        <time>2021-08-14T08:04:04Z</time>
      </trkpt>
      <trkpt lat="47.57134" lon="-2.18787">
        <ele>43.9</ele>
        <time>2021-08-14T08:04:05Z</time>
      </trkpt>
      <trkpt lat="47.57138" lon="-2.18785">
        <ele>43.9</ele>
        <time>2021-08-14T08:04:06Z</time>
      </trkpt>
      <trkpt lat="47.57142" lon="-2.18784">
        <ele>43.9</ele>
        <time>2021-08-14T08:04:08Z</time>
      </trkpt>
      <trkpt lat="47.57147" lon="-2.18783">
        <ele>43.8</ele>
        <time>2021-08-14T08:04:09Z</time>
      </trkpt>
      <trkpt lat="47.5715" lon="-2.18782">
        <ele>43.8</ele>
        <time>2021-08-14T08:04:10Z</time>
      </trkpt>
      <trkpt lat="47.57157" lon="-2.1878">
        <ele>43.6</ele>
        <time>2021-08-14T08:04:12Z</time>
      </trkpt>
      <trkpt lat="47.5716" lon="-2.18779">
        <ele>43.5</ele>
        <time>2021-08-14T08:04:13Z</time>
      </trkpt>
      <trkpt lat="47.57166" lon="-2.18777">
        <ele>43.4</ele>
        <time>2021-08-14T08:04:15Z</time>
      </trkpt>
      <trkpt lat="47.5717" lon="-2.18776">
        <ele>43.2</ele>
        <time>2021-08-14T08:04:16Z</time>
      </trkpt>
      <trkpt lat="47.57175" lon="-2.18776">
        <ele>43</ele>
        <time>2021-08-14T08:04:17Z</time>
      </trkpt>
      <trkpt lat="47.57183" lon="-2.18774">
        <ele>42.7</ele>
        <time>2021-08-14T08:04:19Z</time>
      </trkpt>
      <trkpt lat="47.57187" lon="-2.18772">
        <ele>42.5</ele>
        <time>2021-08-14T08:04:20Z</time>
      </trkpt>
      <trkpt lat="47.57192" lon="-2.1877">
        <ele>42.2</ele>
        <time>2021-08-14T08:04:21Z</time>
      </trkpt>
      <trkpt lat="47.57202" lon="-2.18763">
        <ele>41.6</ele>
        <time>2021-08-14T08:04:23Z</time>
      </trkpt>
      <trkpt lat="47.57206" lon="-2.18758">
        <ele>41.2</ele>
        <time>2021-08-14T08:04:24Z</time>
      </trkpt>
      <trkpt lat="47.57215" lon="-2.18746">
        <ele>40.4</ele>
        <time>2021-08-14T08:04:26Z</time>
      </trkpt>
      <trkpt lat="47.57219" lon="-2.18739">
        <ele>40</ele>
        <time>2021-08-14T08:04:27Z</time>
      </trkpt>
      <trkpt lat="47.57227" lon="-2.18723">
        <ele>39</ele>
        <time>2021-08-14T08:04:29Z</time>
      </trkpt>
      <trkpt lat="47.57232" lon="-2.18704">
        <ele>38</ele>
        <time>2021-08-14T08:04:31Z</time>
      </trkpt>
      <trkpt lat="47.57234" lon="-2.18693">
        <ele>37.4</ele>
        <time>2021-08-14T08:04:32Z</time>
      </trkpt>
      <trkpt lat="47.57236" lon="-2.1867">
        <ele>36.3</ele>
        <time>2021-08-14T08:04:34Z</time>
      </trkpt>
      <trkpt lat="47.57238" lon="-2.18645">
        <ele>35.1</ele>
        <time>2021-08-14T08:04:36Z</time>
      </trkpt>
      <trkpt lat="47.57239" lon="-2.18621">
        <ele>33.9</ele>
        <time>2021-08-14T08:04:38Z</time>
      </trkpt>
      <trkpt lat="47.57241" lon="-2.18595">
        <ele>32.7</ele>
        <time>2021-08-14T08:04:40Z</time>
      </trkpt>
      <trkpt lat="47.57243" lon="-2.1857">
        <ele>31.5</ele>
        <time>2021-08-14T08:04:42Z</time>
      </trkpt>
      <trkpt lat="47.57244" lon="-2.18557">
        <ele>31</ele>
        <time>2021-08-14T08:04:43Z</time>
      </trkpt>
      <trkpt lat="47.57247" lon="-2.18532">
        <ele>30</ele>
        <time>2021-08-14T08:04:45Z</time>
      </trkpt>
      <trkpt lat="47.57248" lon="-2.18521">
        <ele>29.5</ele>
        <time>2021-08-14T08:04:46Z</time>
      </trkpt>
      <trkpt lat="47.57249" lon="-2.18503">
        <ele>28.9</ele>
        <time>2021-08-14T08:04:48Z</time>
      </trkpt>
      <trkpt lat="47.5725" lon="-2.18493">
        <ele>28.5</ele>
        <time>2021-08-14T08:04:49Z</time>
      </trkpt>
      <trkpt lat="47.57251" lon="-2.18473">
        <ele>27.6</ele>
        <time>2021-08-14T08:04:51Z</time>
      </trkpt>
      <trkpt lat="47.57251" lon="-2.18452">
        <ele>26.7</ele>
        <time>2021-08-14T08:04:53Z</time>
      </trkpt>
      <trkpt lat="47.57247" lon="-2.18429">
        <ele>25.8</ele>
        <time>2021-08-14T08:04:55Z</time>
      </trkpt>
      <trkpt lat="47.57245" lon="-2.18418">
        <ele>25.3</ele>
        <time>2021-08-14T08:04:56Z</time>
      </trkpt>
      <trkpt lat="47.5724" lon="-2.18395">
        <ele>24.2</ele>
        <time>2021-08-14T08:04:58Z</time>
      </trkpt>
      <trkpt lat="47.5724" lon="-2.1837">
        <ele>23</ele>
        <time>2021-08-14T08:05:00Z</time>
      </trkpt>
      <trkpt lat="47.57245" lon="-2.18346">
        <ele>21.8</ele>
        <time>2021-08-14T08:05:02Z</time>
      </trkpt>
      <trkpt lat="47.57255" lon="-2.18328">
        <ele>20.7</ele>
        <time>2021-08-14T08:05:04Z</time>
      </trkpt>
      <trkpt lat="47.5726" lon="-2.18322">
        <ele>20.3</ele>
        <time>2021-08-14T08:05:05Z</time>
      </trkpt>
      <trkpt lat="47.57271" lon="-2.18314">
        <ele>19.5</ele>
        <time>2021-08-14T08:05:07Z</time>
      </trkpt>
      <trkpt lat="47.57283" lon="-2.18311">
        <ele>18.6</ele>
        <time>2021-08-14T08:05:09Z</time>
      </trkpt>
      <trkpt lat="47.57289" lon="-2.1831">
        <ele>18.2</ele>
        <time>2021-08-14T08:05:10Z</time>
      </trkpt>
      <trkpt lat="47.57296" lon="-2.18308">
        <ele>17.9</ele>
        <time>2021-08-14T08:05:11Z</time>
      </trkpt>
      <trkpt lat="47.57307" lon="-2.18305">
        <ele>17.2</ele>
        <time>2021-08-14T08:05:13Z</time>
      </trkpt>
      <trkpt lat="47.57317" lon="-2.18301">
        <ele>16.6</ele>
        <time>2021-08-14T08:05:15Z</time>
      </trkpt>
      <trkpt lat="47.57326" lon="-2.18298">
        <ele>16.2</ele>
        <time>2021-08-14T08:05:17Z</time>
      </trkpt>
      <trkpt lat="47.5733" lon="-2.18297">
        <ele>16.2</ele>
        <time>2021-08-14T08:05:18Z</time>
      </trkpt>
      <trkpt lat="47.57331" lon="-2.18296">
        <ele>16.2</ele>
        <time>2021-08-14T08:05:19Z</time>
      </trkpt>
      <trkpt lat="47.57334" lon="-2.18294">
        <ele>16.2</ele>
        <time>2021-08-14T08:05:21Z</time>
      </trkpt>
      <trkpt lat="47.57333" lon="-2.18294">
        <ele>16.2</ele>
        <time>2021-08-14T08:05:22Z</time>
      </trkpt>
      <trkpt lat="47.57333" lon="-2.18295">
        <ele>16.2</ele>
        <time>2021-08-14T08:05:24Z</time>
      </trkpt>
      <trkpt lat="47.57333" lon="-2.18295">
        <ele>16.2</ele>
        <time>2021-08-14T08:05:25Z</time>
      </trkpt>
      <trkpt lat="47.57333" lon="-2.18295">
        <ele>16.2</ele>
        <time>2021-08-14T08:05:27Z</time>
      </trkpt>
      <trkpt lat="47.57333" lon="-2.18295">
        <ele>16.2</ele>
        <time>2021-08-14T08:05:29Z</time>
      </trkpt>
      <trkpt lat="47.57333" lon="-2.18295">
        <ele>16.2</ele>
        <time>2021-08-14T08:05:30Z</time>
      </trkpt>
      <trkpt lat="47.57333" lon="-2.18295">
        <ele>16.2</ele>
        <time>2021-08-14T08:05:32Z</time>
      </trkpt>
      <trkpt lat="47.57337" lon="-2.18294">
        <ele>16.1</ele>
        <time>2021-08-14T08:05:43Z</time>
      </trkpt>
      <trkpt lat="47.57342" lon="-2.18293">
        <ele>16</ele>
        <time>2021-08-14T08:05:45Z</time>
      </trkpt>
      <trkpt lat="47.57346" lon="-2.18292">
        <ele>15.9</ele>
        <time>2021-08-14T08:05:47Z</time>
      </trkpt>
      <trkpt lat="47.57351" lon="-2.18294">
        <ele>15.6</ele>
        <time>2021-08-14T08:05:49Z</time>
      </trkpt>
      <trkpt lat="47.57358" lon="-2.18295">
        <ele>15.3</ele>
        <time>2021-08-14T08:05:51Z</time>
      </trkpt>
      <trkpt lat="47.57366" lon="-2.18295">
        <ele>14.8</ele>
        <time>2021-08-14T08:05:53Z</time>
      </trkpt>
      <trkpt lat="47.57377" lon="-2.18292">
        <ele>14.1</ele>
        <time>2021-08-14T08:05:55Z</time>
      </trkpt>
      <trkpt lat="47.57382" lon="-2.18289">
        <ele>13.8</ele>
        <time>2021-08-14T08:05:56Z</time>
      </trkpt>
      <trkpt lat="47.57388" lon="-2.18286">
        <ele>13.3</ele>
        <time>2021-08-14T08:05:58Z</time>
      </trkpt>
      <trkpt lat="47.57397" lon="-2.18281">
        <ele>12.8</ele>
        <time>2021-08-14T08:06:00Z</time>
      </trkpt>
      <trkpt lat="47.57402" lon="-2.18279">
        <ele>12.5</ele>
        <time>2021-08-14T08:06:01Z</time>
      </trkpt>
      <trkpt lat="47.57413" lon="-2.18278">
        <ele>11.9</ele>
        <time>2021-08-14T08:06:03Z</time>
      </trkpt>
      <trkpt lat="47.57424" lon="-2.18279">
        <ele>11.3</ele>
        <time>2021-08-14T08:06:05Z</time>
      </trkpt>
      <trkpt lat="47.57429" lon="-2.1828">
        <ele>11</ele>
        <time>2021-08-14T08:06:06Z</time>
      </trkpt>
      <trkpt lat="47.57435" lon="-2.1828">
        <ele>10.8</ele>
        <time>2021-08-14T08:06:07Z</time>
      </trkpt>
      <trkpt lat="47.57446" lon="-2.1828">
        <ele>10.3</ele>
        <time>2021-08-14T08:06:09Z</time>
      </trkpt>
      <trkpt lat="47.57452" lon="-2.18281">
        <ele>10</ele>
        <time>2021-08-14T08:06:10Z</time>
      </trkpt>
      <trkpt lat="47.57464" lon="-2.18281">
        <ele>9.5</ele>
        <time>2021-08-14T08:06:12Z</time>
      </trkpt>
      <trkpt lat="47.57476" lon="-2.18282">
        <ele>9</ele>
        <time>2021-08-14T08:06:14Z</time>
      </trkpt>
      <trkpt lat="47.57482" lon="-2.18283">
        <ele>8.8</ele>
        <time>2021-08-14T08:06:15Z</time>
      </trkpt>
      <trkpt lat="47.57488" lon="-2.18283">
        <ele>8.6</ele>
        <time>2021-08-14T08:06:16Z</time>
      </trkpt>
      <trkpt lat="47.57499" lon="-2.18284">
        <ele>8.2</ele>
        <time>2021-08-14T08:06:18Z</time>
      </trkpt>
      <trkpt lat="47.57505" lon="-2.18284">
        <ele>8</ele>
        <time>2021-08-14T08:06:19Z</time>
      </trkpt>
      <trkpt lat="47.57511" lon="-2.18284">
        <ele>7.8</ele>
        <time>2021-08-14T08:06:20Z</time>
      </trkpt>
      <trkpt lat="47.57523" lon="-2.18285">
        <ele>7.5</ele>
        <time>2021-08-14T08:06:22Z</time>
      </trkpt>
      <trkpt lat="47.57529" lon="-2.18285">
        <ele>7.3</ele>
        <time>2021-08-14T08:06:23Z</time>
      </trkpt>
      <trkpt lat="47.57536" lon="-2.18285">
        <ele>7.1</ele>
        <time>2021-08-14T08:06:24Z</time>
      </trkpt>
      <trkpt lat="47.57548" lon="-2.18286">
        <ele>6.8</ele>
        <time>2021-08-14T08:06:26Z</time>
      </trkpt>
      <trkpt lat="47.57555" lon="-2.18287">
        <ele>6.6</ele>
        <time>2021-08-14T08:06:27Z</time>
      </trkpt>
      <trkpt lat="47.57567" lon="-2.18288">
        <ele>6.3</ele>
        <time>2021-08-14T08:06:29Z</time>
      </trkpt>
      <trkpt lat="47.57573" lon="-2.18288">
        <ele>6.2</ele>
        <time>2021-08-14T08:06:30Z</time>
      </trkpt>
      <trkpt lat="47.57579" lon="-2.18288">
        <ele>6</ele>
        <time>2021-08-14T08:06:31Z</time>
      </trkpt>
      <trkpt lat="47.5759" lon="-2.18288">
        <ele>5.8</ele>
        <time>2021-08-14T08:06:33Z</time>
      </trkpt>
      <trkpt lat="47.57601" lon="-2.18288">
        <ele>5.6</ele>
        <time>2021-08-14T08:06:35Z</time>
      </trkpt>
      <trkpt lat="47.57611" lon="-2.18288">
        <ele>5.5</ele>
        <time>2021-08-14T08:06:37Z</time>
      </trkpt>
      <trkpt lat="47.57621" lon="-2.18288">
        <ele>5.4</ele>
        <time>2021-08-14T08:06:39Z</time>
      </trkpt>
      <trkpt lat="47.5763" lon="-2.18289">
        <ele>5.4</ele>
        <time>2021-08-14T08:06:41Z</time>
      </trkpt>
      <trkpt lat="47.57635" lon="-2.18295">
        <ele>5.3</ele>
        <time>2021-08-14T08:06:43Z</time>
      </trkpt>
      <trkpt lat="47.57636" lon="-2.18309">
        <ele>5.1</ele>
        <time>2021-08-14T08:06:45Z</time>
      </trkpt>
      <trkpt lat="47.57636" lon="-2.18323">
        <ele>4.8</ele>
        <time>2021-08-14T08:06:47Z</time>
      </trkpt>
      <trkpt lat="47.57635" lon="-2.18332">
        <ele>4.6</ele>
        <time>2021-08-14T08:06:48Z</time>
      </trkpt>
      <trkpt lat="47.57637" lon="-2.18336">
        <ele>4.5</ele>
        <time>2021-08-14T08:06:49Z</time>
      </trkpt>
      <trkpt lat="47.57637" lon="-2.18343">
        <ele>4.4</ele>
        <time>2021-08-14T08:06:50Z</time>
      </trkpt>
      <trkpt lat="47.57635" lon="-2.18357">
        <ele>4.2</ele>
        <time>2021-08-14T08:06:52Z</time>
      </trkpt>
      <trkpt lat="47.57635" lon="-2.18364">
        <ele>4.1</ele>
        <time>2021-08-14T08:06:53Z</time>
      </trkpt>
      <trkpt lat="47.57635" lon="-2.18378">
        <ele>4</ele>
        <time>2021-08-14T08:06:55Z</time>
      </trkpt>
      <trkpt lat="47.57635" lon="-2.18392">
        <ele>3.9</ele>
        <time>2021-08-14T08:06:57Z</time>
      </trkpt>
      <trkpt lat="47.57635" lon="-2.18398">
        <ele>3.8</ele>
        <time>2021-08-14T08:06:58Z</time>
      </trkpt>
      <trkpt lat="47.57634" lon="-2.18413">
        <ele>3.7</ele>
        <time>2021-08-14T08:07:00Z</time>
      </trkpt>
      <trkpt lat="47.57634" lon="-2.18427">
        <ele>3.7</ele>
        <time>2021-08-14T08:07:02Z</time>
      </trkpt>
      <trkpt lat="47.57634" lon="-2.1844">
        <ele>3.7</ele>
        <time>2021-08-14T08:07:04Z</time>
      </trkpt>
      <trkpt lat="47.57634" lon="-2.18454">
        <ele>3.7</ele>
        <time>2021-08-14T08:07:06Z</time>
      </trkpt>
      <trkpt lat="47.57634" lon="-2.1846">
        <ele>3.7</ele>
        <time>2021-08-14T08:07:07Z</time>
      </trkpt>
      <trkpt lat="47.57634" lon="-2.18472">
        <ele>3.8</ele>
        <time>2021-08-14T08:07:09Z</time>
      </trkpt>
      <trkpt lat="47.57634" lon="-2.18486">
        <ele>3.8</ele>
        <time>2021-08-14T08:07:11Z</time>
      </trkpt>
      <trkpt lat="47.57633" lon="-2.185">
        <ele>3.8</ele>
        <time>2021-08-14T08:07:13Z</time>
      </trkpt>
      <trkpt lat="47.57633" lon="-2.18507">
        <ele>3.8</ele>
        <time>2021-08-14T08:07:14Z</time>
      </trkpt>
      <trkpt lat="47.57633" lon="-2.18521">
        <ele>3.8</ele>
        <time>2021-08-14T08:07:16Z</time>
      </trkpt>
      <trkpt lat="47.57633" lon="-2.18528">
        <ele>3.8</ele>
        <time>2021-08-14T08:07:17Z</time>
      </trkpt>
      <trkpt lat="47.57633" lon="-2.18533">
        <ele>3.8</ele>
        <time>2021-08-14T08:07:18Z</time>
      </trkpt>
      <trkpt lat="47.57633" lon="-2.18544">
        <ele>3.8</ele>
        <time>2021-08-14T08:07:20Z</time>
      </trkpt>
      <trkpt lat="47.57633" lon="-2.18551">
        <ele>3.8</ele>
        <time>2021-08-14T08:07:21Z</time>
      </trkpt>
      <trkpt lat="47.57633" lon="-2.18557">
        <ele>3.8</ele>
        <time>2021-08-14T08:07:22Z</time>
      </trkpt>
      <trkpt lat="47.57632" lon="-2.18572">
        <ele>3.9</ele>
        <time>2021-08-14T08:07:24Z</time>
      </trkpt>
      <trkpt lat="47.57632" lon="-2.18578">
        <ele>3.9</ele>
        <time>2021-08-14T08:07:25Z</time>
      </trkpt>
      <trkpt lat="47.57632" lon="-2.18585">
        <ele>3.9</ele>
        <time>2021-08-14T08:07:26Z</time>
      </trkpt>
      <trkpt lat="47.57633" lon="-2.186">
        <ele>3.9</ele>
        <time>2021-08-14T08:07:28Z</time>
      </trkpt>
      <trkpt lat="47.57633" lon="-2.18614">
        <ele>3.9</ele>
        <time>2021-08-14T08:07:30Z</time>
      </trkpt>
      <trkpt lat="47.57633" lon="-2.18625">
        <ele>3.9</ele>
        <time>2021-08-14T08:07:32Z</time>
      </trkpt>
      <trkpt lat="47.57634" lon="-2.18637">
        <ele>3.9</ele>
        <time>2021-08-14T08:07:34Z</time>
      </trkpt>
      <trkpt lat="47.57635" lon="-2.18647">
        <ele>3.9</ele>
        <time>2021-08-14T08:07:36Z</time>
      </trkpt>
      <trkpt lat="47.57636" lon="-2.18652">
        <ele>3.9</ele>
        <time>2021-08-14T08:07:37Z</time>
      </trkpt>
      <trkpt lat="47.57637" lon="-2.18662">
        <ele>3.9</ele>
        <time>2021-08-14T08:07:39Z</time>
      </trkpt>
      <trkpt lat="47.57637" lon="-2.18668">
        <ele>3.9</ele>
        <time>2021-08-14T08:07:40Z</time>
      </trkpt>
      <trkpt lat="47.57638" lon="-2.18679">
        <ele>4</ele>
        <time>2021-08-14T08:07:42Z</time>
      </trkpt>
      <trkpt lat="47.57639" lon="-2.18685">
        <ele>4</ele>
        <time>2021-08-14T08:07:43Z</time>
      </trkpt>
      <trkpt lat="47.5764" lon="-2.18694">
        <ele>4</ele>
        <time>2021-08-14T08:07:45Z</time>
      </trkpt>
      <trkpt lat="47.5764" lon="-2.187">
        <ele>4</ele>
        <time>2021-08-14T08:07:46Z</time>
      </trkpt>
      <trkpt lat="47.57641" lon="-2.18707">
        <ele>4</ele>
        <time>2021-08-14T08:07:47Z</time>
      </trkpt>
      <trkpt lat="47.57641" lon="-2.18714">
        <ele>4</ele>
        <time>2021-08-14T08:07:49Z</time>
      </trkpt>
      <trkpt lat="47.57641" lon="-2.18723">
        <ele>4</ele>
        <time>2021-08-14T08:07:50Z</time>
      </trkpt>
      <trkpt lat="47.57642" lon="-2.18728">
        <ele>3.9</ele>
        <time>2021-08-14T08:07:51Z</time>
      </trkpt>
      <trkpt lat="47.57642" lon="-2.18738">
        <ele>3.9</ele>
        <time>2021-08-14T08:07:53Z</time>
      </trkpt>
      <trkpt lat="47.57642" lon="-2.18743">
        <ele>3.9</ele>
        <time>2021-08-14T08:07:54Z</time>
      </trkpt>
      <trkpt lat="47.57642" lon="-2.18748">
        <ele>3.9</ele>
        <time>2021-08-14T08:07:55Z</time>
      </trkpt>
      <trkpt lat="47.57642" lon="-2.18753">
        <ele>3.9</ele>
        <time>2021-08-14T08:07:56Z</time>
      </trkpt>
      <trkpt lat="47.57643" lon="-2.1876">
        <ele>3.9</ele>
        <time>2021-08-14T08:07:58Z</time>
      </trkpt>
      <trkpt lat="47.57643" lon="-2.18765">
        <ele>4</ele>
        <time>2021-08-14T08:07:59Z</time>
      </trkpt>
      <trkpt lat="47.57643" lon="-2.18772">
        <ele>4</ele>
        <time>2021-08-14T08:08:00Z</time>
      </trkpt>
      <trkpt lat="47.57643" lon="-2.18778">
        <ele>4</ele>
        <time>2021-08-14T08:08:02Z</time>
      </trkpt>
      <trkpt lat="47.57643" lon="-2.18783">
        <ele>4</ele>
        <time>2021-08-14T08:08:03Z</time>
      </trkpt>
      <trkpt lat="47.57642" lon="-2.1879">
        <ele>4</ele>
        <time>2021-08-14T08:08:04Z</time>
      </trkpt>
      <trkpt lat="47.57642" lon="-2.18795">
        <ele>4</ele>
        <time>2021-08-14T08:08:05Z</time>
      </trkpt>
      <trkpt lat="47.57642" lon="-2.18804">
        <ele>4</ele>
        <time>2021-08-14T08:08:07Z</time>
      </trkpt>
      <trkpt lat="47.57642" lon="-2.18813">
        <ele>4.1</ele>
        <time>2021-08-14T08:08:09Z</time>
      </trkpt>
      <trkpt lat="47.57641" lon="-2.18819">
        <ele>4.1</ele>
        <time>2021-08-14T08:08:11Z</time>
      </trkpt>
      <trkpt lat="47.57641" lon="-2.18824">
        <ele>4.1</ele>
        <time>2021-08-14T08:08:12Z</time>
      </trkpt>
      <trkpt lat="47.57641" lon="-2.1883">
        <ele>4.1</ele>
        <time>2021-08-14T08:08:13Z</time>
      </trkpt>
      <trkpt lat="47.57641" lon="-2.18835">
        <ele>4.1</ele>
        <time>2021-08-14T08:08:14Z</time>
      </trkpt>
      <trkpt lat="47.57641" lon="-2.18842">
        <ele>4.1</ele>
        <time>2021-08-14T08:08:16Z</time>
      </trkpt>
      <trkpt lat="47.57641" lon="-2.18849">
        <ele>4.1</ele>
        <time>2021-08-14T08:08:18Z</time>
      </trkpt>
      <trkpt lat="47.5764" lon="-2.18853">
        <ele>4.1</ele>
        <time>2021-08-14T08:08:19Z</time>
      </trkpt>
      <trkpt lat="47.5764" lon="-2.1886">
        <ele>4.2</ele>
        <time>2021-08-14T08:08:20Z</time>
      </trkpt>
      <trkpt lat="47.5764" lon="-2.18867">
        <ele>4.2</ele>
        <time>2021-08-14T08:08:22Z</time>
      </trkpt>
      <trkpt lat="47.5764" lon="-2.18873">
        <ele>4.2</ele>
        <time>2021-08-14T08:08:23Z</time>
      </trkpt>
      <trkpt lat="47.5764" lon="-2.18878">
        <ele>4.2</ele>
        <time>2021-08-14T08:08:24Z</time>
      </trkpt>
      <trkpt lat="47.5764" lon="-2.18883">
        <ele>4.2</ele>
        <time>2021-08-14T08:08:25Z</time>
      </trkpt>
      <trkpt lat="47.57639" lon="-2.18891">
        <ele>4.2</ele>
        <time>2021-08-14T08:08:27Z</time>
      </trkpt>
      <trkpt lat="47.57639" lon="-2.18898">
        <ele>4.2</ele>
        <time>2021-08-14T08:08:29Z</time>
      </trkpt>
      <trkpt lat="47.57639" lon="-2.18904">
        <ele>4.3</ele>
        <time>2021-08-14T08:08:30Z</time>
      </trkpt>
      <trkpt lat="47.57638" lon="-2.18911">
        <ele>4.3</ele>
        <time>2021-08-14T08:08:32Z</time>
      </trkpt>
      <trkpt lat="47.57638" lon="-2.18918">
        <ele>4.3</ele>
        <time>2021-08-14T08:08:33Z</time>
      </trkpt>
      <trkpt lat="47.57638" lon="-2.18924">
        <ele>4.3</ele>
        <time>2021-08-14T08:08:35Z</time>
      </trkpt>
      <trkpt lat="47.57638" lon="-2.1893">
        <ele>4.3</ele>
        <time>2021-08-14T08:08:36Z</time>
      </trkpt>
      <trkpt lat="47.57637" lon="-2.18935">
        <ele>4.3</ele>
        <time>2021-08-14T08:08:37Z</time>
      </trkpt>
      <trkpt lat="47.57637" lon="-2.18939">
        <ele>4.3</ele>
        <time>2021-08-14T08:08:38Z</time>
      </trkpt>
      <trkpt lat="47.57636" lon="-2.18946">
        <ele>4.3</ele>
        <time>2021-08-14T08:08:40Z</time>
      </trkpt>
      <trkpt lat="47.57636" lon="-2.18952">
        <ele>4.3</ele>
        <time>2021-08-14T08:08:41Z</time>
      </trkpt>
      <trkpt lat="47.57635" lon="-2.18957">
        <ele>4.3</ele>
        <time>2021-08-14T08:08:43Z</time>
      </trkpt>
      <trkpt lat="47.57635" lon="-2.18961">
        <ele>4.3</ele>
        <time>2021-08-14T08:08:44Z</time>
      </trkpt>
      <trkpt lat="47.57634" lon="-2.18967">
        <ele>4.3</ele>
        <time>2021-08-14T08:08:45Z</time>
      </trkpt>
      <trkpt lat="47.57634" lon="-2.18971">
        <ele>4.3</ele>
        <time>2021-08-14T08:08:46Z</time>
      </trkpt>
      <trkpt lat="47.57634" lon="-2.18979">
        <ele>4.3</ele>
        <time>2021-08-14T08:08:48Z</time>
      </trkpt>
      <trkpt lat="47.57634" lon="-2.18984">
        <ele>4.3</ele>
        <time>2021-08-14T08:08:49Z</time>
      </trkpt>
      <trkpt lat="47.57634" lon="-2.1899">
        <ele>4.3</ele>
        <time>2021-08-14T08:08:50Z</time>
      </trkpt>
      <trkpt lat="47.57634" lon="-2.18995">
        <ele>4.3</ele>
        <time>2021-08-14T08:08:51Z</time>
      </trkpt>
      <trkpt lat="47.57633" lon="-2.18999">
        <ele>4.3</ele>
        <time>2021-08-14T08:08:52Z</time>
      </trkpt>
      <trkpt lat="47.57633" lon="-2.19005">
        <ele>4.3</ele>
        <time>2021-08-14T08:08:54Z</time>
      </trkpt>
      <trkpt lat="47.57633" lon="-2.19013">
        <ele>4.3</ele>
        <time>2021-08-14T08:08:55Z</time>
      </trkpt>
      <trkpt lat="47.57633" lon="-2.19019">
        <ele>4.3</ele>
        <time>2021-08-14T08:08:57Z</time>
      </trkpt>
      <trkpt lat="47.57633" lon="-2.19024">
        <ele>4.3</ele>
        <time>2021-08-14T08:08:58Z</time>
      </trkpt>
      <trkpt lat="47.57634" lon="-2.19029">
        <ele>4.3</ele>
        <time>2021-08-14T08:08:59Z</time>
      </trkpt>
      <trkpt lat="47.57634" lon="-2.19034">
        <ele>4.3</ele>
        <time>2021-08-14T08:09:00Z</time>
      </trkpt>
      <trkpt lat="47.57634" lon="-2.19039">
        <ele>4.3</ele>
        <time>2021-08-14T08:09:01Z</time>
      </trkpt>
      <trkpt lat="47.57635" lon="-2.19045">
        <ele>4.3</ele>
        <time>2021-08-14T08:09:03Z</time>
      </trkpt>
      <trkpt lat="47.57635" lon="-2.1905">
        <ele>4.3</ele>
        <time>2021-08-14T08:09:04Z</time>
      </trkpt>
      <trkpt lat="47.57635" lon="-2.19056">
        <ele>4.4</ele>
        <time>2021-08-14T08:09:05Z</time>
      </trkpt>
      <trkpt lat="47.57636" lon="-2.19061">
        <ele>4.4</ele>
        <time>2021-08-14T08:09:06Z</time>
      </trkpt>
      <trkpt lat="47.57637" lon="-2.19071">
        <ele>4.4</ele>
        <time>2021-08-14T08:09:08Z</time>
      </trkpt>
      <trkpt lat="47.57638" lon="-2.19077">
        <ele>4.4</ele>
        <time>2021-08-14T08:09:10Z</time>
      </trkpt>
      <trkpt lat="47.57639" lon="-2.19082">
        <ele>4.4</ele>
        <time>2021-08-14T08:09:11Z</time>
      </trkpt>
      <trkpt lat="47.57639" lon="-2.19089">
        <ele>4.4</ele>
        <time>2021-08-14T08:09:12Z</time>
      </trkpt>
      <trkpt lat="47.5764" lon="-2.19096">
        <ele>4.4</ele>
        <time>2021-08-14T08:09:14Z</time>
      </trkpt>
      <trkpt lat="47.57641" lon="-2.19102">
        <ele>4.4</ele>
        <time>2021-08-14T08:09:15Z</time>
      </trkpt>
      <trkpt lat="47.57642" lon="-2.1911">
        <ele>4.4</ele>
        <time>2021-08-14T08:09:17Z</time>
      </trkpt>
      <trkpt lat="47.57643" lon="-2.19115">
        <ele>4.4</ele>
        <time>2021-08-14T08:09:18Z</time>
      </trkpt>
      <trkpt lat="47.57643" lon="-2.19123">
        <ele>4.5</ele>
        <time>2021-08-14T08:09:20Z</time>
      </trkpt>
      <trkpt lat="47.57644" lon="-2.19127">
        <ele>4.5</ele>
        <time>2021-08-14T08:09:21Z</time>
      </trkpt>
      <trkpt lat="47.57644" lon="-2.19132">
        <ele>4.5</ele>
        <time>2021-08-14T08:09:22Z</time>
      </trkpt>
      <trkpt lat="47.57645" lon="-2.19138">
        <ele>4.5</ele>
        <time>2021-08-14T08:09:24Z</time>
      </trkpt>
      <trkpt lat="47.57646" lon="-2.19143">
        <ele>4.6</ele>
        <time>2021-08-14T08:09:25Z</time>
      </trkpt>
      <trkpt lat="47.57646" lon="-2.1915">
        <ele>4.7</ele>
        <time>2021-08-14T08:09:26Z</time>
      </trkpt>
      <trkpt lat="47.57644" lon="-2.19156">
        <ele>4.7</ele>
        <time>2021-08-14T08:09:28Z</time>
      </trkpt>
      <trkpt lat="47.57641" lon="-2.19159">
        <ele>4.8</ele>
        <time>2021-08-14T08:09:29Z</time>
      </trkpt>
      <trkpt lat="47.57639" lon="-2.19161">
        <ele>4.9</ele>
        <time>2021-08-14T08:09:30Z</time>
      </trkpt>
      <trkpt lat="47.57636" lon="-2.1916">
        <ele>4.9</ele>
        <time>2021-08-14T08:09:32Z</time>
      </trkpt>
      <trkpt lat="47.57631" lon="-2.19161">
        <ele>5</ele>
        <time>2021-08-14T08:09:33Z</time>
      </trkpt>
      <trkpt lat="47.57629" lon="-2.19161">
        <ele>5</ele>
        <time>2021-08-14T08:09:34Z</time>
      </trkpt>
      <trkpt lat="47.57625" lon="-2.19161">
        <ele>5.1</ele>
        <time>2021-08-14T08:09:35Z</time>
      </trkpt>
      <trkpt lat="47.57624" lon="-2.19161">
        <ele>5.2</ele>
        <time>2021-08-14T08:09:36Z</time>
      </trkpt>
      <trkpt lat="47.57621" lon="-2.19161">
        <ele>5.2</ele>
        <time>2021-08-14T08:09:38Z</time>
      </trkpt>
      <trkpt lat="47.57618" lon="-2.19162">
        <ele>5.3</ele>
        <time>2021-08-14T08:09:40Z</time>
      </trkpt>
      <trkpt lat="47.57615" lon="-2.19163">
        <ele>5.4</ele>
        <time>2021-08-14T08:09:41Z</time>
      </trkpt>
      <trkpt lat="47.57611" lon="-2.19164">
        <ele>5.5</ele>
        <time>2021-08-14T08:09:43Z</time>
      </trkpt>
      <trkpt lat="47.5761" lon="-2.19164">
        <ele>5.5</ele>
        <time>2021-08-14T08:09:44Z</time>
      </trkpt>
      <trkpt lat="47.57607" lon="-2.19164">
        <ele>5.6</ele>
        <time>2021-08-14T08:09:45Z</time>
      </trkpt>
      <trkpt lat="47.57606" lon="-2.19164">
        <ele>5.6</ele>
        <time>2021-08-14T08:09:46Z</time>
      </trkpt>
      <trkpt lat="47.57604" lon="-2.19165">
        <ele>5.7</ele>
        <time>2021-08-14T08:09:47Z</time>
      </trkpt>
      <trkpt lat="47.57601" lon="-2.19166">
        <ele>5.8</ele>
        <time>2021-08-14T08:09:49Z</time>
      </trkpt>
      <trkpt lat="47.57597" lon="-2.19167">
        <ele>5.9</ele>
        <time>2021-08-14T08:09:50Z</time>
      </trkpt>
      <trkpt lat="47.57596" lon="-2.19167">
        <ele>5.9</ele>
        <time>2021-08-14T08:09:51Z</time>
      </trkpt>
      <trkpt lat="47.57593" lon="-2.19168">
        <ele>6</ele>
        <time>2021-08-14T08:09:52Z</time>
      </trkpt>
      <trkpt lat="47.5759" lon="-2.19168">
        <ele>6.1</ele>
        <time>2021-08-14T08:09:54Z</time>
      </trkpt>
      <trkpt lat="47.57587" lon="-2.19169">
        <ele>6.2</ele>
        <time>2021-08-14T08:09:55Z</time>
      </trkpt>
      <trkpt lat="47.57583" lon="-2.1917">
        <ele>6.3</ele>
        <time>2021-08-14T08:09:57Z</time>
      </trkpt>
      <trkpt lat="47.57581" lon="-2.1917">
        <ele>6.3</ele>
        <time>2021-08-14T08:09:58Z</time>
      </trkpt>
      <trkpt lat="47.57579" lon="-2.1917">
        <ele>6.4</ele>
        <time>2021-08-14T08:09:59Z</time>
      </trkpt>
      <trkpt lat="47.57576" lon="-2.19171">
        <ele>6.5</ele>
        <time>2021-08-14T08:10:00Z</time>
      </trkpt>
      <trkpt lat="47.57575" lon="-2.19171">
        <ele>6.5</ele>
        <time>2021-08-14T08:10:01Z</time>
      </trkpt>
      <trkpt lat="47.57572" lon="-2.19172">
        <ele>6.6</ele>
        <time>2021-08-14T08:10:02Z</time>
      </trkpt>
      <trkpt lat="47.5757" lon="-2.19172">
        <ele>6.6</ele>
        <time>2021-08-14T08:10:03Z</time>
      </trkpt>
      <trkpt lat="47.57567" lon="-2.19172">
        <ele>6.7</ele>
        <time>2021-08-14T08:10:05Z</time>
      </trkpt>
      <trkpt lat="47.57564" lon="-2.19173">
        <ele>6.8</ele>
        <time>2021-08-14T08:10:06Z</time>
      </trkpt>
      <trkpt lat="47.57562" lon="-2.19174">
        <ele>6.9</ele>
        <time>2021-08-14T08:10:07Z</time>
      </trkpt>
      <trkpt lat="47.57559" lon="-2.19175">
        <ele>7</ele>
        <time>2021-08-14T08:10:09Z</time>
      </trkpt>
      <trkpt lat="47.57555" lon="-2.19175">
        <ele>7.1</ele>
        <time>2021-08-14T08:10:10Z</time>
      </trkpt>
      <trkpt lat="47.57554" lon="-2.19176">
        <ele>7.2</ele>
        <time>2021-08-14T08:10:11Z</time>
      </trkpt>
      <trkpt lat="47.57552" lon="-2.19176">
        <ele>7.3</ele>
        <time>2021-08-14T08:10:12Z</time>
      </trkpt>
      <trkpt lat="47.57548" lon="-2.19176">
        <ele>7.4</ele>
        <time>2021-08-14T08:10:14Z</time>
      </trkpt>
      <trkpt lat="47.57545" lon="-2.19176">
        <ele>7.5</ele>
        <time>2021-08-14T08:10:15Z</time>
      </trkpt>
      <trkpt lat="47.57541" lon="-2.19177">
        <ele>7.7</ele>
        <time>2021-08-14T08:10:17Z</time>
      </trkpt>
      <trkpt lat="47.57539" lon="-2.19177">
        <ele>7.8</ele>
        <time>2021-08-14T08:10:18Z</time>
      </trkpt>
      <trkpt lat="47.57536" lon="-2.19178">
        <ele>7.9</ele>
        <time>2021-08-14T08:10:20Z</time>
      </trkpt>
      <trkpt lat="47.57532" lon="-2.19178">
        <ele>8</ele>
        <time>2021-08-14T08:10:21Z</time>
      </trkpt>
      <trkpt lat="47.57531" lon="-2.19178">
        <ele>8.1</ele>
        <time>2021-08-14T08:10:22Z</time>
      </trkpt>
      <trkpt lat="47.57527" lon="-2.19179">
        <ele>8.2</ele>
        <time>2021-08-14T08:10:24Z</time>
      </trkpt>
      <trkpt lat="47.57526" lon="-2.19179">
        <ele>8.2</ele>
        <time>2021-08-14T08:10:25Z</time>
      </trkpt>
      <trkpt lat="47.57522" lon="-2.19179">
        <ele>8.4</ele>
        <time>2021-08-14T08:10:26Z</time>
      </trkpt>
      <trkpt lat="47.57521" lon="-2.19179">
        <ele>8.5</ele>
        <time>2021-08-14T08:10:27Z</time>
      </trkpt>
      <trkpt lat="47.57517" lon="-2.1918">
        <ele>8.6</ele>
        <time>2021-08-14T08:10:28Z</time>
      </trkpt>
      <trkpt lat="47.57516" lon="-2.1918">
        <ele>8.7</ele>
        <time>2021-08-14T08:10:29Z</time>
      </trkpt>
      <trkpt lat="47.57512" lon="-2.19181">
        <ele>8.9</ele>
        <time>2021-08-14T08:10:31Z</time>
      </trkpt>
      <trkpt lat="47.5751" lon="-2.19181">
        <ele>9</ele>
        <time>2021-08-14T08:10:32Z</time>
      </trkpt>
      <trkpt lat="47.57508" lon="-2.19181">
        <ele>9.1</ele>
        <time>2021-08-14T08:10:33Z</time>
      </trkpt>
      <trkpt lat="47.57506" lon="-2.19182">
        <ele>9.3</ele>
        <time>2021-08-14T08:10:34Z</time>
      </trkpt>
      <trkpt lat="47.57503" lon="-2.19182">
        <ele>9.4</ele>
        <time>2021-08-14T08:10:35Z</time>
      </trkpt>
      <trkpt lat="47.57499" lon="-2.19183">
        <ele>9.7</ele>
        <time>2021-08-14T08:10:37Z</time>
      </trkpt>
      <trkpt lat="47.57496" lon="-2.19183">
        <ele>9.8</ele>
        <time>2021-08-14T08:10:38Z</time>
      </trkpt>
      <trkpt lat="47.57493" lon="-2.19183">
        <ele>10</ele>
        <time>2021-08-14T08:10:40Z</time>
      </trkpt>
      <trkpt lat="47.5749" lon="-2.19184">
        <ele>10.2</ele>
        <time>2021-08-14T08:10:41Z</time>
      </trkpt>
      <trkpt lat="47.57488" lon="-2.19184">
        <ele>10.3</ele>
        <time>2021-08-14T08:10:42Z</time>
      </trkpt>
      <trkpt lat="47.57485" lon="-2.19184">
        <ele>10.5</ele>
        <time>2021-08-14T08:10:43Z</time>
      </trkpt>
      <trkpt lat="47.57484" lon="-2.19185">
        <ele>10.6</ele>
        <time>2021-08-14T08:10:44Z</time>
      </trkpt>
      <trkpt lat="47.57481" lon="-2.19185">
        <ele>10.7</ele>
        <time>2021-08-14T08:10:46Z</time>
      </trkpt>
      <trkpt lat="47.57477" lon="-2.19185">
        <ele>11</ele>
        <time>2021-08-14T08:10:47Z</time>
      </trkpt>
      <trkpt lat="47.57473" lon="-2.19186">
        <ele>11.2</ele>
        <time>2021-08-14T08:10:49Z</time>
      </trkpt>
      <trkpt lat="47.57471" lon="-2.19186">
        <ele>11.4</ele>
        <time>2021-08-14T08:10:50Z</time>
      </trkpt>
      <trkpt lat="47.57468" lon="-2.19187">
        <ele>11.6</ele>
        <time>2021-08-14T08:10:52Z</time>
      </trkpt>
      <trkpt lat="47.57465" lon="-2.19187">
        <ele>11.8</ele>
        <time>2021-08-14T08:10:53Z</time>
      </trkpt>
      <trkpt lat="47.57462" lon="-2.19188">
        <ele>12.1</ele>
        <time>2021-08-14T08:10:54Z</time>
      </trkpt>
      <trkpt lat="47.57461" lon="-2.19188">
        <ele>12.1</ele>
        <time>2021-08-14T08:10:55Z</time>
      </trkpt>
      <trkpt lat="47.57458" lon="-2.19188">
        <ele>12.3</ele>
        <time>2021-08-14T08:10:56Z</time>
      </trkpt>
      <trkpt lat="47.57457" lon="-2.19188">
        <ele>12.4</ele>
        <time>2021-08-14T08:10:57Z</time>
      </trkpt>
      <trkpt lat="47.57454" lon="-2.19189">
        <ele>12.7</ele>
        <time>2021-08-14T08:10:59Z</time>
      </trkpt>
      <trkpt lat="47.57453" lon="-2.19189">
        <ele>12.8</ele>
        <time>2021-08-14T08:11:00Z</time>
      </trkpt>
      <trkpt lat="47.57451" lon="-2.1919">
        <ele>12.9</ele>
        <time>2021-08-14T08:11:01Z</time>
      </trkpt>
      <trkpt lat="47.57448" lon="-2.1919">
        <ele>13.1</ele>
        <time>2021-08-14T08:11:03Z</time>
      </trkpt>
      <trkpt lat="47.57445" lon="-2.19191">
        <ele>13.3</ele>
        <time>2021-08-14T08:11:04Z</time>
      </trkpt>
      <trkpt lat="47.57444" lon="-2.19191">
        <ele>13.4</ele>
        <time>2021-08-14T08:11:05Z</time>
      </trkpt>
      <trkpt lat="47.57441" lon="-2.19193">
        <ele>13.7</ele>
        <time>2021-08-14T08:11:07Z</time>
      </trkpt>
      <trkpt lat="47.57439" lon="-2.19194">
        <ele>13.8</ele>
        <time>2021-08-14T08:11:08Z</time>
      </trkpt>
      <trkpt lat="47.57435" lon="-2.19195">
        <ele>14.2</ele>
        <time>2021-08-14T08:11:10Z</time>
      </trkpt>
      <trkpt lat="47.57433" lon="-2.19195">
        <ele>14.3</ele>
        <time>2021-08-14T08:11:12Z</time>
      </trkpt>
      <trkpt lat="47.57432" lon="-2.19195">
        <ele>14.4</ele>
        <time>2021-08-14T08:11:13Z</time>
      </trkpt>
      <trkpt lat="47.5743" lon="-2.19196">
        <ele>14.6</ele>
        <time>2021-08-14T08:11:14Z</time>
      </trkpt>
      <trkpt lat="47.57428" lon="-2.19196">
        <ele>14.7</ele>
        <time>2021-08-14T08:11:16Z</time>
      </trkpt>
      <trkpt lat="47.57425" lon="-2.19197">
        <ele>15</ele>
        <time>2021-08-14T08:11:17Z</time>
      </trkpt>
      <trkpt lat="47.57424" lon="-2.19197">
        <ele>15.1</ele>
        <time>2021-08-14T08:11:18Z</time>
      </trkpt>
      <trkpt lat="47.5742" lon="-2.19198">
        <ele>15.4</ele>
        <time>2021-08-14T08:11:20Z</time>
      </trkpt>
      <trkpt lat="47.57419" lon="-2.19198">
        <ele>15.5</ele>
        <time>2021-08-14T08:11:21Z</time>
      </trkpt>
      <trkpt lat="47.57418" lon="-2.19198">
        <ele>15.6</ele>
        <time>2021-08-14T08:11:22Z</time>
      </trkpt>
      <trkpt lat="47.57416" lon="-2.19198">
        <ele>15.8</ele>
        <time>2021-08-14T08:11:23Z</time>
      </trkpt>
      <trkpt lat="47.57414" lon="-2.19199">
        <ele>15.9</ele>
        <time>2021-08-14T08:11:24Z</time>
      </trkpt>
      <trkpt lat="47.57412" lon="-2.192">
        <ele>16.2</ele>
        <time>2021-08-14T08:11:26Z</time>
      </trkpt>
      <trkpt lat="47.57409" lon="-2.192">
        <ele>16.4</ele>
        <time>2021-08-14T08:11:27Z</time>
      </trkpt>
      <trkpt lat="47.57407" lon="-2.19201">
        <ele>16.6</ele>
        <time>2021-08-14T08:11:29Z</time>
      </trkpt>
      <trkpt lat="47.57404" lon="-2.19201">
        <ele>16.9</ele>
        <time>2021-08-14T08:11:30Z</time>
      </trkpt>
      <trkpt lat="47.57403" lon="-2.19201">
        <ele>17</ele>
        <time>2021-08-14T08:11:31Z</time>
      </trkpt>
      <trkpt lat="47.57401" lon="-2.19202">
        <ele>17.2</ele>
        <time>2021-08-14T08:11:32Z</time>
      </trkpt>
      <trkpt lat="47.574" lon="-2.19203">
        <ele>17.3</ele>
        <time>2021-08-14T08:11:33Z</time>
      </trkpt>
      <trkpt lat="47.57399" lon="-2.19204">
        <ele>17.5</ele>
        <time>2021-08-14T08:11:34Z</time>
      </trkpt>
      <trkpt lat="47.57397" lon="-2.19206">
        <ele>17.7</ele>
        <time>2021-08-14T08:11:36Z</time>
      </trkpt>
      <trkpt lat="47.57396" lon="-2.19207">
        <ele>17.9</ele>
        <time>2021-08-14T08:11:37Z</time>
      </trkpt>
      <trkpt lat="47.57395" lon="-2.19209">
        <ele>18.1</ele>
        <time>2021-08-14T08:11:38Z</time>
      </trkpt>
      <trkpt lat="47.57393" lon="-2.19212">
        <ele>18.4</ele>
        <time>2021-08-14T08:11:40Z</time>
      </trkpt>
      <trkpt lat="47.57393" lon="-2.19214">
        <ele>19.4</ele>
        <time>2021-08-14T08:11:42Z</time>
      </trkpt>
      <trkpt lat="47.57394" lon="-2.19216">
        <ele>19.4</ele>
        <time>2021-08-14T08:11:43Z</time>
      </trkpt>
      <trkpt lat="47.57395" lon="-2.19219">
        <ele>19.4</ele>
        <time>2021-08-14T08:11:45Z</time>
      </trkpt>
      <trkpt lat="47.57396" lon="-2.19223">
        <ele>19.5</ele>
        <time>2021-08-14T08:11:47Z</time>
      </trkpt>
      <trkpt lat="47.57397" lon="-2.19227">
        <ele>19.5</ele>
        <time>2021-08-14T08:11:49Z</time>
      </trkpt>
      <trkpt lat="47.57397" lon="-2.19229">
        <ele>19.5</ele>
        <time>2021-08-14T08:11:50Z</time>
      </trkpt>
      <trkpt lat="47.57398" lon="-2.19231">
        <ele>19.5</ele>
        <time>2021-08-14T08:11:51Z</time>
      </trkpt>
      <trkpt lat="47.57399" lon="-2.19235">
        <ele>19.6</ele>
        <time>2021-08-14T08:11:53Z</time>
      </trkpt>
      <trkpt lat="47.57399" lon="-2.19237">
        <ele>19.6</ele>
        <time>2021-08-14T08:11:54Z</time>
      </trkpt>
      <trkpt lat="47.574" lon="-2.19239">
        <ele>19.6</ele>
        <time>2021-08-14T08:11:55Z</time>
      </trkpt>
      <trkpt lat="47.574" lon="-2.19241">
        <ele>19.6</ele>
        <time>2021-08-14T08:11:56Z</time>
      </trkpt>
      <trkpt lat="47.574" lon="-2.19243">
        <ele>19.6</ele>
        <time>2021-08-14T08:11:57Z</time>
      </trkpt>
      <trkpt lat="47.57399" lon="-2.19246">
        <ele>19.7</ele>
        <time>2021-08-14T08:11:59Z</time>
      </trkpt>
      <trkpt lat="47.57398" lon="-2.19249">
        <ele>19.7</ele>
        <time>2021-08-14T08:12:00Z</time>
      </trkpt>
      <trkpt lat="47.57397" lon="-2.1925">
        <ele>19.7</ele>
        <time>2021-08-14T08:12:01Z</time>
      </trkpt>
      <trkpt lat="47.57396" lon="-2.19252">
        <ele>19.7</ele>
        <time>2021-08-14T08:12:02Z</time>
      </trkpt>
      <trkpt lat="47.57396" lon="-2.19254">
        <ele>19.8</ele>
        <time>2021-08-14T08:12:04Z</time>
      </trkpt>
      <trkpt lat="47.57395" lon="-2.19256">
        <ele>20</ele>
        <time>2021-08-14T08:12:05Z</time>
      </trkpt>
      <trkpt lat="47.57395" lon="-2.19258">
        <ele>20</ele>
        <time>2021-08-14T08:12:06Z</time>
      </trkpt>
      <trkpt lat="47.57394" lon="-2.19259">
        <ele>20.1</ele>
        <time>2021-08-14T08:12:07Z</time>
      </trkpt>
      <trkpt lat="47.57393" lon="-2.19262">
        <ele>20.4</ele>
        <time>2021-08-14T08:12:09Z</time>
      </trkpt>
      <trkpt lat="47.57392" lon="-2.19263">
        <ele>20.5</ele>
        <time>2021-08-14T08:12:10Z</time>
      </trkpt>
      <trkpt lat="47.57391" lon="-2.19265">
        <ele>20.6</ele>
        <time>2021-08-14T08:12:11Z</time>
      </trkpt>
      <trkpt lat="47.57391" lon="-2.19268">
        <ele>20.8</ele>
        <time>2021-08-14T08:12:13Z</time>
      </trkpt>
      <trkpt lat="47.5739" lon="-2.1927">
        <ele>21</ele>
        <time>2021-08-14T08:12:15Z</time>
      </trkpt>
      <trkpt lat="47.5739" lon="-2.19271">
        <ele>21.1</ele>
        <time>2021-08-14T08:12:16Z</time>
      </trkpt>
      <trkpt lat="47.57389" lon="-2.19275">
        <ele>21.4</ele>
        <time>2021-08-14T08:12:18Z</time>
      </trkpt>
      <trkpt lat="47.57388" lon="-2.19277">
        <ele>21.6</ele>
        <time>2021-08-14T08:12:19Z</time>
      </trkpt>
      <trkpt lat="47.57387" lon="-2.1928">
        <ele>21.8</ele>
        <time>2021-08-14T08:12:20Z</time>
      </trkpt>
      <trkpt lat="47.57386" lon="-2.19283">
        <ele>22.1</ele>
        <time>2021-08-14T08:12:21Z</time>
      </trkpt>
      <trkpt lat="47.57386" lon="-2.19286">
        <ele>22.3</ele>
        <time>2021-08-14T08:12:23Z</time>
      </trkpt>
      <trkpt lat="47.57386" lon="-2.19289">
        <ele>22.6</ele>
        <time>2021-08-14T08:12:25Z</time>
      </trkpt>
      <trkpt lat="47.57387" lon="-2.19291">
        <ele>22.7</ele>
        <time>2021-08-14T08:12:26Z</time>
      </trkpt>
      <trkpt lat="47.57387" lon="-2.19292">
        <ele>22.8</ele>
        <time>2021-08-14T08:12:27Z</time>
      </trkpt>
      <trkpt lat="47.57387" lon="-2.19293">
        <ele>22.9</ele>
        <time>2021-08-14T08:12:29Z</time>
      </trkpt>
      <trkpt lat="47.57387" lon="-2.19297">
        <ele>23.2</ele>
        <time>2021-08-14T08:12:31Z</time>
      </trkpt>
      <trkpt lat="47.57387" lon="-2.19299">
        <ele>23.4</ele>
        <time>2021-08-14T08:12:32Z</time>
      </trkpt>
      <trkpt lat="47.57387" lon="-2.19302">
        <ele>23.5</ele>
        <time>2021-08-14T08:12:33Z</time>
      </trkpt>
      <trkpt lat="47.57386" lon="-2.19306">
        <ele>23.8</ele>
        <time>2021-08-14T08:12:35Z</time>
      </trkpt>
      <trkpt lat="47.57386" lon="-2.1931">
        <ele>24</ele>
        <time>2021-08-14T08:12:36Z</time>
      </trkpt>
      <trkpt lat="47.57385" lon="-2.19313">
        <ele>24.2</ele>
        <time>2021-08-14T08:12:38Z</time>
      </trkpt>
      <trkpt lat="47.57385" lon="-2.19317">
        <ele>24.5</ele>
        <time>2021-08-14T08:12:39Z</time>
      </trkpt>
      <trkpt lat="47.57385" lon="-2.19319">
        <ele>24.7</ele>
        <time>2021-08-14T08:12:40Z</time>
      </trkpt>
      <trkpt lat="47.57385" lon="-2.19322">
        <ele>24.9</ele>
        <time>2021-08-14T08:12:42Z</time>
      </trkpt>
      <trkpt lat="47.57385" lon="-2.19325">
        <ele>25</ele>
        <time>2021-08-14T08:12:43Z</time>
      </trkpt>
      <trkpt lat="47.57385" lon="-2.19328">
        <ele>25.2</ele>
        <time>2021-08-14T08:12:44Z</time>
      </trkpt>
      <trkpt lat="47.57386" lon="-2.19331">
        <ele>25.4</ele>
        <time>2021-08-14T08:12:45Z</time>
      </trkpt>
      <trkpt lat="47.57386" lon="-2.19335">
        <ele>25.7</ele>
        <time>2021-08-14T08:12:47Z</time>
      </trkpt>
      <trkpt lat="47.57386" lon="-2.19337">
        <ele>25.8</ele>
        <time>2021-08-14T08:12:48Z</time>
      </trkpt>
      <trkpt lat="47.57386" lon="-2.19341">
        <ele>26.1</ele>
        <time>2021-08-14T08:12:50Z</time>
      </trkpt>
      <trkpt lat="47.57385" lon="-2.19346">
        <ele>26.4</ele>
        <time>2021-08-14T08:12:51Z</time>
      </trkpt>
      <trkpt lat="47.57385" lon="-2.19347">
        <ele>26.6</ele>
        <time>2021-08-14T08:12:52Z</time>
      </trkpt>
      <trkpt lat="47.57385" lon="-2.19353">
        <ele>27</ele>
        <time>2021-08-14T08:12:54Z</time>
      </trkpt>
      <trkpt lat="47.57384" lon="-2.19354">
        <ele>27.1</ele>
        <time>2021-08-14T08:12:55Z</time>
      </trkpt>
      <trkpt lat="47.57384" lon="-2.19358">
        <ele>27.5</ele>
        <time>2021-08-14T08:12:57Z</time>
      </trkpt>
      <trkpt lat="47.57382" lon="-2.19362">
        <ele>27.8</ele>
        <time>2021-08-14T08:12:59Z</time>
      </trkpt>
      <trkpt lat="47.57382" lon="-2.19364">
        <ele>28</ele>
        <time>2021-08-14T08:13:00Z</time>
      </trkpt>
      <trkpt lat="47.57382" lon="-2.19366">
        <ele>28.2</ele>
        <time>2021-08-14T08:13:01Z</time>
      </trkpt>
      <trkpt lat="47.57382" lon="-2.19368">
        <ele>28.5</ele>
        <time>2021-08-14T08:13:03Z</time>
      </trkpt>
      <trkpt lat="47.57382" lon="-2.19372">
        <ele>28.8</ele>
        <time>2021-08-14T08:13:04Z</time>
      </trkpt>
      <trkpt lat="47.57382" lon="-2.19373">
        <ele>29</ele>
        <time>2021-08-14T08:13:05Z</time>
      </trkpt>
      <trkpt lat="47.57382" lon="-2.19375">
        <ele>29.2</ele>
        <time>2021-08-14T08:13:07Z</time>
      </trkpt>
      <trkpt lat="47.57381" lon="-2.19376">
        <ele>29.3</ele>
        <time>2021-08-14T08:13:08Z</time>
      </trkpt>
      <trkpt lat="47.57381" lon="-2.19376">
        <ele>29.4</ele>
        <time>2021-08-14T08:13:09Z</time>
      </trkpt>
      <trkpt lat="47.57381" lon="-2.19376">
        <ele>29.4</ele>
        <time>2021-08-14T08:13:11Z</time>
      </trkpt>
      <trkpt lat="47.57382" lon="-2.19377">
        <ele>29.5</ele>
        <time>2021-08-14T08:13:12Z</time>
      </trkpt>
      <trkpt lat="47.57382" lon="-2.19377">
        <ele>29.6</ele>
        <time>2021-08-14T08:13:14Z</time>
      </trkpt>
      <trkpt lat="47.57382" lon="-2.19378">
        <ele>29.6</ele>
        <time>2021-08-14T08:13:15Z</time>
      </trkpt>
      <trkpt lat="47.57382" lon="-2.19379">
        <ele>29.8</ele>
        <time>2021-08-14T08:13:16Z</time>
      </trkpt>
      <trkpt lat="47.57381" lon="-2.1938">
        <ele>30</ele>
        <time>2021-08-14T08:13:17Z</time>
      </trkpt>
      <trkpt lat="47.57381" lon="-2.19382">
        <ele>30.1</ele>
        <time>2021-08-14T08:13:18Z</time>
      </trkpt>
      <trkpt lat="47.57381" lon="-2.19383">
        <ele>30.3</ele>
        <time>2021-08-14T08:13:22Z</time>
      </trkpt>
      <trkpt lat="47.5738" lon="-2.19384">
        <ele>30.4</ele>
        <time>2021-08-14T08:13:23Z</time>
      </trkpt>
      <trkpt lat="47.5738" lon="-2.19385">
        <ele>30.6</ele>
        <time>2021-08-14T08:13:25Z</time>
      </trkpt>
      <trkpt lat="47.57379" lon="-2.19387">
        <ele>30.8</ele>
        <time>2021-08-14T08:13:26Z</time>
      </trkpt>
      <trkpt lat="47.57379" lon="-2.19388">
        <ele>31</ele>
        <time>2021-08-14T08:13:27Z</time>
      </trkpt>
      <trkpt lat="47.57378" lon="-2.19389">
        <ele>31.2</ele>
        <time>2021-08-14T08:13:29Z</time>
      </trkpt>
      <trkpt lat="47.57378" lon="-2.19389">
        <ele>31.2</ele>
        <time>2021-08-14T08:13:31Z</time>
      </trkpt>
      <trkpt lat="47.57378" lon="-2.19389">
        <ele>31.3</ele>
        <time>2021-08-14T08:13:32Z</time>
      </trkpt>
      <trkpt lat="47.57378" lon="-2.1939">
        <ele>31.3</ele>
        <time>2021-08-14T08:13:34Z</time>
      </trkpt>
      <trkpt lat="47.57377" lon="-2.19391">
        <ele>31.5</ele>
        <time>2021-08-14T08:13:35Z</time>
      </trkpt>
      <trkpt lat="47.57377" lon="-2.19393">
        <ele>31.8</ele>
        <time>2021-08-14T08:13:37Z</time>
      </trkpt>
      <trkpt lat="47.57376" lon="-2.19394">
        <ele>32</ele>
        <time>2021-08-14T08:13:38Z</time>
      </trkpt>
      <trkpt lat="47.57375" lon="-2.19396">
        <ele>32.2</ele>
        <time>2021-08-14T08:13:40Z</time>
      </trkpt>
      <trkpt lat="47.57375" lon="-2.19398">
        <ele>32.5</ele>
        <time>2021-08-14T08:13:41Z</time>
      </trkpt>
      <trkpt lat="47.57374" lon="-2.19398">
        <ele>32.7</ele>
        <time>2021-08-14T08:13:42Z</time>
      </trkpt>
      <trkpt lat="47.57374" lon="-2.19399">
        <ele>32.8</ele>
        <time>2021-08-14T08:13:43Z</time>
      </trkpt>
      <trkpt lat="47.57373" lon="-2.194">
        <ele>32.9</ele>
        <time>2021-08-14T08:13:44Z</time>
      </trkpt>
      <trkpt lat="47.57373" lon="-2.194">
        <ele>33</ele>
        <time>2021-08-14T08:13:45Z</time>
      </trkpt>
      <trkpt lat="47.57372" lon="-2.19401">
        <ele>33.2</ele>
        <time>2021-08-14T08:13:47Z</time>
      </trkpt>
      <trkpt lat="47.57372" lon="-2.19403">
        <ele>33.5</ele>
        <time>2021-08-14T08:13:49Z</time>
      </trkpt>
      <trkpt lat="47.57371" lon="-2.19403">
        <ele>33.6</ele>
        <time>2021-08-14T08:13:51Z</time>
      </trkpt>
      <trkpt lat="47.57371" lon="-2.19404">
        <ele>33.7</ele>
        <time>2021-08-14T08:13:53Z</time>
      </trkpt>
      <trkpt lat="47.57371" lon="-2.19405">
        <ele>33.9</ele>
        <time>2021-08-14T08:13:55Z</time>
      </trkpt>
      <trkpt lat="47.5737" lon="-2.19406">
        <ele>34</ele>
        <time>2021-08-14T08:13:56Z</time>
      </trkpt>
      <trkpt lat="47.5737" lon="-2.19407">
        <ele>34.1</ele>
        <time>2021-08-14T08:13:57Z</time>
      </trkpt>
      <trkpt lat="47.5737" lon="-2.19407">
        <ele>34.2</ele>
        <time>2021-08-14T08:13:58Z</time>
      </trkpt>
      <trkpt lat="47.5737" lon="-2.19408">
        <ele>34.3</ele>
        <time>2021-08-14T08:13:59Z</time>
      </trkpt>
      <trkpt lat="47.5737" lon="-2.19409">
        <ele>34.5</ele>
        <time>2021-08-14T08:14:01Z</time>
      </trkpt>
      <trkpt lat="47.57369" lon="-2.19411">
        <ele>34.8</ele>
        <time>2021-08-14T08:14:02Z</time>
      </trkpt>
      <trkpt lat="47.57369" lon="-2.19412">
        <ele>35</ele>
        <time>2021-08-14T08:14:03Z</time>
      </trkpt>
      <trkpt lat="47.57368" lon="-2.19413">
        <ele>35.2</ele>
        <time>2021-08-14T08:14:04Z</time>
      </trkpt>
      <trkpt lat="47.57368" lon="-2.19414">
        <ele>35.4</ele>
        <time>2021-08-14T08:14:05Z</time>
      </trkpt>
      <trkpt lat="47.57367" lon="-2.19415">
        <ele>35.6</ele>
        <time>2021-08-14T08:14:07Z</time>
      </trkpt>
      <trkpt lat="47.57367" lon="-2.19417">
        <ele>35.9</ele>
        <time>2021-08-14T08:14:09Z</time>
      </trkpt>
      <trkpt lat="47.57367" lon="-2.19418">
        <ele>36.1</ele>
        <time>2021-08-14T08:14:10Z</time>
      </trkpt>
      <trkpt lat="47.57367" lon="-2.19419">
        <ele>36.2</ele>
        <time>2021-08-14T08:14:11Z</time>
      </trkpt>
      <trkpt lat="47.57367" lon="-2.1942">
        <ele>36.3</ele>
        <time>2021-08-14T08:14:12Z</time>
      </trkpt>
      <trkpt lat="47.57367" lon="-2.19421">
        <ele>36.6</ele>
        <time>2021-08-14T08:14:14Z</time>
      </trkpt>
      <trkpt lat="47.57366" lon="-2.19421">
        <ele>36.6</ele>
        <time>2021-08-14T08:14:15Z</time>
      </trkpt>
      <trkpt lat="47.57366" lon="-2.19422">
        <ele>36.7</ele>
        <time>2021-08-14T08:14:17Z</time>
      </trkpt>
      <trkpt lat="47.57366" lon="-2.19422">
        <ele>36.7</ele>
        <time>2021-08-14T08:14:19Z</time>
      </trkpt>
      <trkpt lat="47.57366" lon="-2.19422">
        <ele>36.8</ele>
        <time>2021-08-14T08:14:21Z</time>
      </trkpt>
      <trkpt lat="47.57366" lon="-2.19423">
        <ele>36.9</ele>
        <time>2021-08-14T08:14:22Z</time>
      </trkpt>
      <trkpt lat="47.57366" lon="-2.19423">
        <ele>36.9</ele>
        <time>2021-08-14T08:14:23Z</time>
      </trkpt>
      <trkpt lat="47.57366" lon="-2.19424">
        <ele>37</ele>
        <time>2021-08-14T08:14:24Z</time>
      </trkpt>
      <trkpt lat="47.57366" lon="-2.19424">
        <ele>37</ele>
        <time>2021-08-14T08:14:26Z</time>
      </trkpt>
      <trkpt lat="47.57366" lon="-2.19424">
        <ele>37.1</ele>
        <time>2021-08-14T08:14:26Z</time>
      </trkpt>
      <trkpt lat="47.57366" lon="-2.19426">
        <ele>37.3</ele>
        <time>2021-08-14T08:14:27Z</time>
      </trkpt>
      <trkpt lat="47.57365" lon="-2.19428">
        <ele>37.7</ele>
        <time>2021-08-14T08:14:29Z</time>
      </trkpt>
      <trkpt lat="47.57365" lon="-2.19429">
        <ele>37.9</ele>
        <time>2021-08-14T08:14:30Z</time>
      </trkpt>
      <trkpt lat="47.57364" lon="-2.19431">
        <ele>38.3</ele>
        <time>2021-08-14T08:14:31Z</time>
      </trkpt>
      <trkpt lat="47.57364" lon="-2.19433">
        <ele>38.6</ele>
        <time>2021-08-14T08:14:33Z</time>
      </trkpt>
      <trkpt lat="47.57364" lon="-2.19435">
        <ele>38.8</ele>
        <time>2021-08-14T08:14:34Z</time>
      </trkpt>
      <trkpt lat="47.57363" lon="-2.19436">
        <ele>39</ele>
        <time>2021-08-14T08:14:35Z</time>
      </trkpt>
      <trkpt lat="47.57363" lon="-2.19438">
        <ele>39.4</ele>
        <time>2021-08-14T08:14:37Z</time>
      </trkpt>
      <trkpt lat="47.57362" lon="-2.19439">
        <ele>39.6</ele>
        <time>2021-08-14T08:14:38Z</time>
      </trkpt>
      <trkpt lat="47.57362" lon="-2.19441">
        <ele>39.9</ele>
        <time>2021-08-14T08:14:40Z</time>
      </trkpt>
      <trkpt lat="47.57361" lon="-2.19442">
        <ele>40.2</ele>
        <time>2021-08-14T08:14:41Z</time>
      </trkpt>
      <trkpt lat="47.5736" lon="-2.19443">
        <ele>40.5</ele>
        <time>2021-08-14T08:14:43Z</time>
      </trkpt>
      <trkpt lat="47.57359" lon="-2.19444">
        <ele>40.6</ele>
        <time>2021-08-14T08:14:44Z</time>
      </trkpt>
      <trkpt lat="47.57359" lon="-2.19445">
        <ele>40.8</ele>
        <time>2021-08-14T08:14:46Z</time>
      </trkpt>
      <trkpt lat="47.57358" lon="-2.19446">
        <ele>41.2</ele>
        <time>2021-08-14T08:14:47Z</time>
      </trkpt>
      <trkpt lat="47.57357" lon="-2.19448">
        <ele>41.4</ele>
        <time>2021-08-14T08:14:48Z</time>
      </trkpt>
      <trkpt lat="47.57357" lon="-2.19448">
        <ele>41.5</ele>
        <time>2021-08-14T08:14:49Z</time>
      </trkpt>
      <trkpt lat="47.57356" lon="-2.1945">
        <ele>41.8</ele>
        <time>2021-08-14T08:14:51Z</time>
      </trkpt>
      <trkpt lat="47.57356" lon="-2.19451">
        <ele>42</ele>
        <time>2021-08-14T08:14:52Z</time>
      </trkpt>
      <trkpt lat="47.57355" lon="-2.19453">
        <ele>42.3</ele>
        <time>2021-08-14T08:14:54Z</time>
      </trkpt>
      <trkpt lat="47.57354" lon="-2.19454">
        <ele>42.4</ele>
        <time>2021-08-14T08:14:55Z</time>
      </trkpt>
      <trkpt lat="47.57354" lon="-2.19455">
        <ele>42.6</ele>
        <time>2021-08-14T08:14:56Z</time>
      </trkpt>
      <trkpt lat="47.57353" lon="-2.19456">
        <ele>42.8</ele>
        <time>2021-08-14T08:14:58Z</time>
      </trkpt>
      <trkpt lat="47.57352" lon="-2.19457">
        <ele>43</ele>
        <time>2021-08-14T08:14:59Z</time>
      </trkpt>
      <trkpt lat="47.57351" lon="-2.19458">
        <ele>43.2</ele>
        <time>2021-08-14T08:15:00Z</time>
      </trkpt>
      <trkpt lat="47.57351" lon="-2.19459">
        <ele>43.4</ele>
        <time>2021-08-14T08:15:01Z</time>
      </trkpt>
      <trkpt lat="47.57349" lon="-2.1946">
        <ele>43.7</ele>
        <time>2021-08-14T08:15:03Z</time>
      </trkpt>
      <trkpt lat="47.57348" lon="-2.19461">
        <ele>43.9</ele>
        <time>2021-08-14T08:15:04Z</time>
      </trkpt>
      <trkpt lat="47.57347" lon="-2.19462">
        <ele>44.1</ele>
        <time>2021-08-14T08:15:05Z</time>
      </trkpt>
      <trkpt lat="47.57346" lon="-2.19463">
        <ele>44.3</ele>
        <time>2021-08-14T08:15:07Z</time>
      </trkpt>
      <trkpt lat="47.57345" lon="-2.19464">
        <ele>44.5</ele>
        <time>2021-08-14T08:15:08Z</time>
      </trkpt>
      <trkpt lat="47.57345" lon="-2.19465">
        <ele>44.6</ele>
        <time>2021-08-14T08:15:09Z</time>
      </trkpt>
      <trkpt lat="47.57344" lon="-2.19467">
        <ele>44.8</ele>
        <time>2021-08-14T08:15:11Z</time>
      </trkpt>
      <trkpt lat="47.57343" lon="-2.19469">
        <ele>45</ele>
        <time>2021-08-14T08:15:12Z</time>
      </trkpt>
      <trkpt lat="47.57342" lon="-2.19471">
        <ele>45.3</ele>
        <time>2021-08-14T08:15:14Z</time>
      </trkpt>
      <trkpt lat="47.57342" lon="-2.19473">
        <ele>45.4</ele>
        <time>2021-08-14T08:15:15Z</time>
      </trkpt>
      <trkpt lat="47.57341" lon="-2.19474">
        <ele>45.5</ele>
        <time>2021-08-14T08:15:16Z</time>
      </trkpt>
      <trkpt lat="47.5734" lon="-2.19476">
        <ele>45.7</ele>
        <time>2021-08-14T08:15:18Z</time>
      </trkpt>
      <trkpt lat="47.57338" lon="-2.19479">
        <ele>46</ele>
        <time>2021-08-14T08:15:19Z</time>
      </trkpt>
      <trkpt lat="47.57338" lon="-2.1948">
        <ele>46.1</ele>
        <time>2021-08-14T08:15:21Z</time>
      </trkpt>
      <trkpt lat="47.57338" lon="-2.19481">
        <ele>46.1</ele>
        <time>2021-08-14T08:15:22Z</time>
      </trkpt>
      <trkpt lat="47.57338" lon="-2.19482">
        <ele>46.2</ele>
        <time>2021-08-14T08:15:23Z</time>
      </trkpt>
      <trkpt lat="47.57338" lon="-2.19483">
        <ele>46.2</ele>
        <time>2021-08-14T08:15:26Z</time>
      </trkpt>
      <trkpt lat="47.57338" lon="-2.19483">
        <ele>46.3</ele>
        <time>2021-08-14T08:15:27Z</time>
      </trkpt>
      <trkpt lat="47.57337" lon="-2.19484">
        <ele>46.3</ele>
        <time>2021-08-14T08:15:28Z</time>
      </trkpt>
      <trkpt lat="47.57337" lon="-2.19485">
        <ele>46.4</ele>
        <time>2021-08-14T08:15:29Z</time>
      </trkpt>
      <trkpt lat="47.57337" lon="-2.19486">
        <ele>46.4</ele>
        <time>2021-08-14T08:15:31Z</time>
      </trkpt>
      <trkpt lat="47.57337" lon="-2.19487">
        <ele>46.5</ele>
        <time>2021-08-14T08:15:33Z</time>
      </trkpt>
      <trkpt lat="47.57337" lon="-2.19488">
        <ele>46.5</ele>
        <time>2021-08-14T08:15:35Z</time>
      </trkpt>
      <trkpt lat="47.57337" lon="-2.19489">
        <ele>46.6</ele>
        <time>2021-08-14T08:15:36Z</time>
      </trkpt>
      <trkpt lat="47.57337" lon="-2.1949">
        <ele>46.6</ele>
        <time>2021-08-14T08:15:38Z</time>
      </trkpt>
      <trkpt lat="47.57336" lon="-2.19491">
        <ele>46.6</ele>
        <time>2021-08-14T08:15:45Z</time>
      </trkpt>
      <trkpt lat="47.57336" lon="-2.19491">
        <ele>46.7</ele>
        <time>2021-08-14T08:15:47Z</time>
      </trkpt>
      <trkpt lat="47.57336" lon="-2.19492">
        <ele>46.7</ele>
        <time>2021-08-14T08:15:48Z</time>
      </trkpt>
      <trkpt lat="47.57337" lon="-2.19496">
        <ele>46.9</ele>
        <time>2021-08-14T08:15:49Z</time>
      </trkpt>
      <trkpt lat="47.57339" lon="-2.19503">
        <ele>47.1</ele>
        <time>2021-08-14T08:15:51Z</time>
      </trkpt>
      <trkpt lat="47.57341" lon="-2.19507">
        <ele>47.2</ele>
        <time>2021-08-14T08:15:52Z</time>
      </trkpt>
      <trkpt lat="47.57343" lon="-2.19511">
        <ele>47.2</ele>
        <time>2021-08-14T08:15:53Z</time>
      </trkpt>
      <trkpt lat="47.57346" lon="-2.19517">
        <ele>47.3</ele>
        <time>2021-08-14T08:15:55Z</time>
      </trkpt>
      <trkpt lat="47.57348" lon="-2.1952">
        <ele>47.3</ele>
        <time>2021-08-14T08:15:56Z</time>
      </trkpt>
      <trkpt lat="47.57349" lon="-2.19524">
        <ele>47.3</ele>
        <time>2021-08-14T08:15:57Z</time>
      </trkpt>
      <trkpt lat="47.57351" lon="-2.19529">
        <ele>47.4</ele>
        <time>2021-08-14T08:15:59Z</time>
      </trkpt>
      <trkpt lat="47.57352" lon="-2.1953">
        <ele>47.4</ele>
        <time>2021-08-14T08:16:00Z</time>
      </trkpt>
      <trkpt lat="47.57353" lon="-2.19534">
        <ele>47.4</ele>
        <time>2021-08-14T08:16:01Z</time>
      </trkpt>
      <trkpt lat="47.57355" lon="-2.19538">
        <ele>47.5</ele>
        <time>2021-08-14T08:16:02Z</time>
      </trkpt>
      <trkpt lat="47.57355" lon="-2.1954">
        <ele>47.5</ele>
        <time>2021-08-14T08:16:03Z</time>
      </trkpt>
      <trkpt lat="47.57357" lon="-2.19543">
        <ele>47.5</ele>
        <time>2021-08-14T08:16:04Z</time>
      </trkpt>
      <trkpt lat="47.57358" lon="-2.19545">
        <ele>47.5</ele>
        <time>2021-08-14T08:16:05Z</time>
      </trkpt>
      <trkpt lat="47.57359" lon="-2.1955">
        <ele>47.6</ele>
        <time>2021-08-14T08:16:07Z</time>
      </trkpt>
      <trkpt lat="47.5736" lon="-2.19553">
        <ele>47.6</ele>
        <time>2021-08-14T08:16:08Z</time>
      </trkpt>
      <trkpt lat="47.57362" lon="-2.19559">
        <ele>47.7</ele>
        <time>2021-08-14T08:16:10Z</time>
      </trkpt>
      <trkpt lat="47.57362" lon="-2.1956">
        <ele>47.8</ele>
        <time>2021-08-14T08:16:11Z</time>
      </trkpt>
      <trkpt lat="47.57363" lon="-2.19563">
        <ele>47.8</ele>
        <time>2021-08-14T08:16:12Z</time>
      </trkpt>
      <trkpt lat="47.57363" lon="-2.19565">
        <ele>47.8</ele>
        <time>2021-08-14T08:16:13Z</time>
      </trkpt>
      <trkpt lat="47.57363" lon="-2.19568">
        <ele>47.9</ele>
        <time>2021-08-14T08:16:14Z</time>
      </trkpt>
      <trkpt lat="47.57364" lon="-2.19571">
        <ele>47.9</ele>
        <time>2021-08-14T08:16:16Z</time>
      </trkpt>
      <trkpt lat="47.57365" lon="-2.19576">
        <ele>48</ele>
        <time>2021-08-14T08:16:17Z</time>
      </trkpt>
      <trkpt lat="47.57365" lon="-2.1958">
        <ele>48.1</ele>
        <time>2021-08-14T08:16:18Z</time>
      </trkpt>
      <trkpt lat="47.57366" lon="-2.19583">
        <ele>48.1</ele>
        <time>2021-08-14T08:16:19Z</time>
      </trkpt>
      <trkpt lat="47.57367" lon="-2.19589">
        <ele>48.2</ele>
        <time>2021-08-14T08:16:21Z</time>
      </trkpt>
      <trkpt lat="47.57367" lon="-2.19593">
        <ele>48.3</ele>
        <time>2021-08-14T08:16:22Z</time>
      </trkpt>
      <trkpt lat="47.57368" lon="-2.19599">
        <ele>48.4</ele>
        <time>2021-08-14T08:16:23Z</time>
      </trkpt>
      <trkpt lat="47.57368" lon="-2.19601">
        <ele>48.5</ele>
        <time>2021-08-14T08:16:24Z</time>
      </trkpt>
      <trkpt lat="47.57369" lon="-2.19605">
        <ele>48.5</ele>
        <time>2021-08-14T08:16:25Z</time>
      </trkpt>
      <trkpt lat="47.5737" lon="-2.1961">
        <ele>48.6</ele>
        <time>2021-08-14T08:16:27Z</time>
      </trkpt>
      <trkpt lat="47.57371" lon="-2.19615">
        <ele>48.7</ele>
        <time>2021-08-14T08:16:28Z</time>
      </trkpt>
      <trkpt lat="47.57372" lon="-2.19619">
        <ele>48.8</ele>
        <time>2021-08-14T08:16:29Z</time>
      </trkpt>
      <trkpt lat="47.57374" lon="-2.19625">
        <ele>48.9</ele>
        <time>2021-08-14T08:16:31Z</time>
      </trkpt>
      <trkpt lat="47.57376" lon="-2.19628">
        <ele>49</ele>
        <time>2021-08-14T08:16:32Z</time>
      </trkpt>
      <trkpt lat="47.57377" lon="-2.19632">
        <ele>49.1</ele>
        <time>2021-08-14T08:16:33Z</time>
      </trkpt>
      <trkpt lat="47.57378" lon="-2.19636">
        <ele>49.2</ele>
        <time>2021-08-14T08:16:34Z</time>
      </trkpt>
      <trkpt lat="47.57379" lon="-2.19641">
        <ele>49.3</ele>
        <time>2021-08-14T08:16:36Z</time>
      </trkpt>
      <trkpt lat="47.57379" lon="-2.19646">
        <ele>49.4</ele>
        <time>2021-08-14T08:16:37Z</time>
      </trkpt>
      <trkpt lat="47.57377" lon="-2.19651">
        <ele>49.5</ele>
        <time>2021-08-14T08:16:38Z</time>
      </trkpt>
      <trkpt lat="47.57377" lon="-2.19652">
        <ele>49.5</ele>
        <time>2021-08-14T08:16:39Z</time>
      </trkpt>
      <trkpt lat="47.57375" lon="-2.19657">
        <ele>49.6</ele>
        <time>2021-08-14T08:16:41Z</time>
      </trkpt>
      <trkpt lat="47.57374" lon="-2.1966">
        <ele>49.7</ele>
        <time>2021-08-14T08:16:42Z</time>
      </trkpt>
      <trkpt lat="47.57372" lon="-2.19664">
        <ele>49.8</ele>
        <time>2021-08-14T08:16:44Z</time>
      </trkpt>
      <trkpt lat="47.5737" lon="-2.19669">
        <ele>49.9</ele>
        <time>2021-08-14T08:16:45Z</time>
      </trkpt>
      <trkpt lat="47.57369" lon="-2.19671">
        <ele>49.9</ele>
        <time>2021-08-14T08:16:46Z</time>
      </trkpt>
      <trkpt lat="47.57367" lon="-2.19674">
        <ele>50</ele>
        <time>2021-08-14T08:16:48Z</time>
      </trkpt>
      <trkpt lat="47.57364" lon="-2.19678">
        <ele>50.1</ele>
        <time>2021-08-14T08:16:49Z</time>
      </trkpt>
      <trkpt lat="47.57363" lon="-2.19679">
        <ele>50.1</ele>
        <time>2021-08-14T08:16:50Z</time>
      </trkpt>
      <trkpt lat="47.57361" lon="-2.19681">
        <ele>50.2</ele>
        <time>2021-08-14T08:16:51Z</time>
      </trkpt>
      <trkpt lat="47.57358" lon="-2.19682">
        <ele>50.3</ele>
        <time>2021-08-14T08:16:53Z</time>
      </trkpt>
      <trkpt lat="47.57355" lon="-2.19684">
        <ele>50.3</ele>
        <time>2021-08-14T08:16:54Z</time>
      </trkpt>
      <trkpt lat="47.57353" lon="-2.19684">
        <ele>50.3</ele>
        <time>2021-08-14T08:16:55Z</time>
      </trkpt>
      <trkpt lat="47.5735" lon="-2.19685">
        <ele>50.4</ele>
        <time>2021-08-14T08:16:57Z</time>
      </trkpt>
      <trkpt lat="47.57347" lon="-2.19685">
        <ele>50.4</ele>
        <time>2021-08-14T08:16:58Z</time>
      </trkpt>
      <trkpt lat="47.57344" lon="-2.19684">
        <ele>50.4</ele>
        <time>2021-08-14T08:16:59Z</time>
      </trkpt>
      <trkpt lat="47.57342" lon="-2.19683">
        <ele>50.4</ele>
        <time>2021-08-14T08:17:00Z</time>
      </trkpt>
      <trkpt lat="47.57338" lon="-2.19682">
        <ele>50.4</ele>
        <time>2021-08-14T08:17:02Z</time>
      </trkpt>
      <trkpt lat="47.57334" lon="-2.19681">
        <ele>50.4</ele>
        <time>2021-08-14T08:17:03Z</time>
      </trkpt>
      <trkpt lat="47.5733" lon="-2.1968">
        <ele>50.4</ele>
        <time>2021-08-14T08:17:04Z</time>
      </trkpt>
      <trkpt lat="47.57329" lon="-2.1968">
        <ele>50.4</ele>
        <time>2021-08-14T08:17:05Z</time>
      </trkpt>
      <trkpt lat="47.57323" lon="-2.1968">
        <ele>50.4</ele>
        <time>2021-08-14T08:17:07Z</time>
      </trkpt>
      <trkpt lat="47.5732" lon="-2.1968">
        <ele>50.4</ele>
        <time>2021-08-14T08:17:08Z</time>
      </trkpt>
      <trkpt lat="47.57317" lon="-2.19681">
        <ele>50.3</ele>
        <time>2021-08-14T08:17:09Z</time>
      </trkpt>
      <trkpt lat="47.57311" lon="-2.19682">
        <ele>50.2</ele>
        <time>2021-08-14T08:17:11Z</time>
      </trkpt>
      <trkpt lat="47.57307" lon="-2.19683">
        <ele>50.1</ele>
        <time>2021-08-14T08:17:12Z</time>
      </trkpt>
      <trkpt lat="47.57304" lon="-2.19684">
        <ele>50</ele>
        <time>2021-08-14T08:17:13Z</time>
      </trkpt>
      <trkpt lat="47.57298" lon="-2.19685">
        <ele>49.9</ele>
        <time>2021-08-14T08:17:15Z</time>
      </trkpt>
      <trkpt lat="47.57294" lon="-2.19687">
        <ele>49.7</ele>
        <time>2021-08-14T08:17:16Z</time>
      </trkpt>
      <trkpt lat="47.5729" lon="-2.19688">
        <ele>49.6</ele>
        <time>2021-08-14T08:17:17Z</time>
      </trkpt>
      <trkpt lat="47.57285" lon="-2.1969">
        <ele>49.4</ele>
        <time>2021-08-14T08:17:18Z</time>
      </trkpt>
      <trkpt lat="47.57278" lon="-2.19695">
        <ele>49.1</ele>
        <time>2021-08-14T08:17:20Z</time>
      </trkpt>
      <trkpt lat="47.57269" lon="-2.19698">
        <ele>48.6</ele>
        <time>2021-08-14T08:17:22Z</time>
      </trkpt>
      <trkpt lat="47.57264" lon="-2.19699">
        <ele>48.4</ele>
        <time>2021-08-14T08:17:23Z</time>
      </trkpt>
      <trkpt lat="47.57258" lon="-2.197">
        <ele>48.2</ele>
        <time>2021-08-14T08:17:24Z</time>
      </trkpt>
      <trkpt lat="47.57253" lon="-2.19701">
        <ele>47.9</ele>
        <time>2021-08-14T08:17:25Z</time>
      </trkpt>
      <trkpt lat="47.57237" lon="-2.19701">
        <ele>47.2</ele>
        <time>2021-08-14T08:17:27Z</time>
      </trkpt>
      <trkpt lat="47.57229" lon="-2.197">
        <ele>46.9</ele>
        <time>2021-08-14T08:17:29Z</time>
      </trkpt>
      <trkpt lat="47.57219" lon="-2.19697">
        <ele>46.4</ele>
        <time>2021-08-14T08:17:31Z</time>
      </trkpt>
      <trkpt lat="47.57213" lon="-2.19695">
        <ele>46.1</ele>
        <time>2021-08-14T08:17:32Z</time>
      </trkpt>
      <trkpt lat="47.57208" lon="-2.19692">
        <ele>45.8</ele>
        <time>2021-08-14T08:17:33Z</time>
      </trkpt>
      <trkpt lat="47.57197" lon="-2.19688">
        <ele>45.3</ele>
        <time>2021-08-14T08:17:35Z</time>
      </trkpt>
      <trkpt lat="47.57192" lon="-2.19686">
        <ele>45.1</ele>
        <time>2021-08-14T08:17:36Z</time>
      </trkpt>
      <trkpt lat="47.57187" lon="-2.19681">
        <ele>44.9</ele>
        <time>2021-08-14T08:17:38Z</time>
      </trkpt>
      <trkpt lat="47.57181" lon="-2.19683">
        <ele>44.7</ele>
        <time>2021-08-14T08:17:39Z</time>
      </trkpt>
      <trkpt lat="47.57176" lon="-2.19685">
        <ele>44.6</ele>
        <time>2021-08-14T08:17:41Z</time>
      </trkpt>
      <trkpt lat="47.57172" lon="-2.19686">
        <ele>44.5</ele>
        <time>2021-08-14T08:17:42Z</time>
      </trkpt>
      <trkpt lat="47.57171" lon="-2.19687">
        <ele>44.4</ele>
        <time>2021-08-14T08:17:43Z</time>
      </trkpt>
      <trkpt lat="47.5717" lon="-2.19689">
        <ele>44.4</ele>
        <time>2021-08-14T08:17:44Z</time>
      </trkpt>
      <trkpt lat="47.57169" lon="-2.19694">
        <ele>44.2</ele>
        <time>2021-08-14T08:17:46Z</time>
      </trkpt>
      <trkpt lat="47.57169" lon="-2.19696">
        <ele>44.2</ele>
        <time>2021-08-14T08:17:47Z</time>
      </trkpt>
      <trkpt lat="47.5717" lon="-2.19699">
        <ele>44.2</ele>
        <time>2021-08-14T08:17:48Z</time>
      </trkpt>
      <trkpt lat="47.57172" lon="-2.19704">
        <ele>44.2</ele>
        <time>2021-08-14T08:17:50Z</time>
      </trkpt>
      <trkpt lat="47.57173" lon="-2.19708">
        <ele>44.1</ele>
        <time>2021-08-14T08:17:51Z</time>
      </trkpt>
      <trkpt lat="47.57174" lon="-2.19715">
        <ele>44.1</ele>
        <time>2021-08-14T08:17:53Z</time>
      </trkpt>
      <trkpt lat="47.57177" lon="-2.19722">
        <ele>44.2</ele>
        <time>2021-08-14T08:17:55Z</time>
      </trkpt>
      <trkpt lat="47.57177" lon="-2.19727">
        <ele>44.2</ele>
        <time>2021-08-14T08:17:57Z</time>
      </trkpt>
      <trkpt lat="47.57177" lon="-2.19732">
        <ele>44.2</ele>
        <time>2021-08-14T08:17:58Z</time>
      </trkpt>
      <trkpt lat="47.57178" lon="-2.19738">
        <ele>44.3</ele>
        <time>2021-08-14T08:17:59Z</time>
      </trkpt>
      <trkpt lat="47.57178" lon="-2.1974">
        <ele>44.3</ele>
        <time>2021-08-14T08:18:00Z</time>
      </trkpt>
      <trkpt lat="47.57179" lon="-2.19745">
        <ele>44.4</ele>
        <time>2021-08-14T08:18:02Z</time>
      </trkpt>
      <trkpt lat="47.57181" lon="-2.19751">
        <ele>44.4</ele>
        <time>2021-08-14T08:18:03Z</time>
      </trkpt>
      <trkpt lat="47.57181" lon="-2.19757">
        <ele>44.5</ele>
        <time>2021-08-14T08:18:04Z</time>
      </trkpt>
      <trkpt lat="47.57182" lon="-2.19762">
        <ele>44.6</ele>
        <time>2021-08-14T08:18:05Z</time>
      </trkpt>
      <trkpt lat="47.57183" lon="-2.1977">
        <ele>44.7</ele>
        <time>2021-08-14T08:18:07Z</time>
      </trkpt>
      <trkpt lat="47.57184" lon="-2.19775">
        <ele>44.8</ele>
        <time>2021-08-14T08:18:08Z</time>
      </trkpt>
      <trkpt lat="47.57185" lon="-2.19781">
        <ele>44.9</ele>
        <time>2021-08-14T08:18:09Z</time>
      </trkpt>
      <trkpt lat="47.57187" lon="-2.1979">
        <ele>45.1</ele>
        <time>2021-08-14T08:18:11Z</time>
      </trkpt>
      <trkpt lat="47.57188" lon="-2.198">
        <ele>45.2</ele>
        <time>2021-08-14T08:18:13Z</time>
      </trkpt>
      <trkpt lat="47.5719" lon="-2.19806">
        <ele>45.3</ele>
        <time>2021-08-14T08:18:15Z</time>
      </trkpt>
      <trkpt lat="47.57191" lon="-2.19813">
        <ele>45.4</ele>
        <time>2021-08-14T08:18:16Z</time>
      </trkpt>
      <trkpt lat="47.57192" lon="-2.19821">
        <ele>45.6</ele>
        <time>2021-08-14T08:18:18Z</time>
      </trkpt>
      <trkpt lat="47.57193" lon="-2.1983">
        <ele>45.7</ele>
        <time>2021-08-14T08:18:20Z</time>
      </trkpt>
      <trkpt lat="47.57194" lon="-2.19834">
        <ele>45.8</ele>
        <time>2021-08-14T08:18:21Z</time>
      </trkpt>
      <trkpt lat="47.57195" lon="-2.1984">
        <ele>45.9</ele>
        <time>2021-08-14T08:18:23Z</time>
      </trkpt>
      <trkpt lat="47.57197" lon="-2.19847">
        <ele>46</ele>
        <time>2021-08-14T08:18:24Z</time>
      </trkpt>
      <trkpt lat="47.57198" lon="-2.19851">
        <ele>46</ele>
        <time>2021-08-14T08:18:25Z</time>
      </trkpt>
      <trkpt lat="47.57199" lon="-2.19856">
        <ele>46.1</ele>
        <time>2021-08-14T08:18:26Z</time>
      </trkpt>
      <trkpt lat="47.57199" lon="-2.1986">
        <ele>46.2</ele>
        <time>2021-08-14T08:18:27Z</time>
      </trkpt>
      <trkpt lat="47.572" lon="-2.19867">
        <ele>46.4</ele>
        <time>2021-08-14T08:18:29Z</time>
      </trkpt>
      <trkpt lat="47.57201" lon="-2.19873">
        <ele>46.5</ele>
        <time>2021-08-14T08:18:30Z</time>
      </trkpt>
      <trkpt lat="47.57202" lon="-2.1988">
        <ele>46.7</ele>
        <time>2021-08-14T08:18:32Z</time>
      </trkpt>
      <trkpt lat="47.57203" lon="-2.19887">
        <ele>46.9</ele>
        <time>2021-08-14T08:18:33Z</time>
      </trkpt>
      <trkpt lat="47.57204" lon="-2.19892">
        <ele>47</ele>
        <time>2021-08-14T08:18:34Z</time>
      </trkpt>
      <trkpt lat="47.57206" lon="-2.199">
        <ele>47.2</ele>
        <time>2021-08-14T08:18:36Z</time>
      </trkpt>
      <trkpt lat="47.57207" lon="-2.19907">
        <ele>47.4</ele>
        <time>2021-08-14T08:18:38Z</time>
      </trkpt>
      <trkpt lat="47.57207" lon="-2.19912">
        <ele>47.5</ele>
        <time>2021-08-14T08:18:39Z</time>
      </trkpt>
      <trkpt lat="47.57208" lon="-2.19918">
        <ele>47.7</ele>
        <time>2021-08-14T08:18:40Z</time>
      </trkpt>
      <trkpt lat="47.5721" lon="-2.19927">
        <ele>48</ele>
        <time>2021-08-14T08:18:42Z</time>
      </trkpt>
      <trkpt lat="47.57211" lon="-2.19932">
        <ele>48.2</ele>
        <time>2021-08-14T08:18:43Z</time>
      </trkpt>
      <trkpt lat="47.57212" lon="-2.19937">
        <ele>48.4</ele>
        <time>2021-08-14T08:18:45Z</time>
      </trkpt>
      <trkpt lat="47.57212" lon="-2.19942">
        <ele>48.6</ele>
        <time>2021-08-14T08:18:46Z</time>
      </trkpt>
      <trkpt lat="47.57213" lon="-2.19948">
        <ele>48.8</ele>
        <time>2021-08-14T08:18:47Z</time>
      </trkpt>
      <trkpt lat="47.57214" lon="-2.19953">
        <ele>49.1</ele>
        <time>2021-08-14T08:18:48Z</time>
      </trkpt>
      <trkpt lat="47.57216" lon="-2.1996">
        <ele>49.4</ele>
        <time>2021-08-14T08:18:50Z</time>
      </trkpt>
      <trkpt lat="47.57217" lon="-2.19966">
        <ele>49.6</ele>
        <time>2021-08-14T08:18:51Z</time>
      </trkpt>
      <trkpt lat="47.57218" lon="-2.19974">
        <ele>50</ele>
        <time>2021-08-14T08:18:53Z</time>
      </trkpt>
      <trkpt lat="47.5722" lon="-2.1998">
        <ele>50.2</ele>
        <time>2021-08-14T08:18:55Z</time>
      </trkpt>
      <trkpt lat="47.57221" lon="-2.19986">
        <ele>50.5</ele>
        <time>2021-08-14T08:18:56Z</time>
      </trkpt>
      <trkpt lat="47.57222" lon="-2.19991">
        <ele>50.8</ele>
        <time>2021-08-14T08:18:57Z</time>
      </trkpt>
      <trkpt lat="47.57222" lon="-2.19997">
        <ele>51</ele>
        <time>2021-08-14T08:18:58Z</time>
      </trkpt>
      <trkpt lat="47.57224" lon="-2.20005">
        <ele>51.4</ele>
        <time>2021-08-14T08:19:00Z</time>
      </trkpt>
      <trkpt lat="47.57225" lon="-2.20009">
        <ele>51.6</ele>
        <time>2021-08-14T08:19:01Z</time>
      </trkpt>
      <trkpt lat="47.57226" lon="-2.20015">
        <ele>51.8</ele>
        <time>2021-08-14T08:19:02Z</time>
      </trkpt>
      <trkpt lat="47.57228" lon="-2.20023">
        <ele>52.2</ele>
        <time>2021-08-14T08:19:04Z</time>
      </trkpt>
      <trkpt lat="47.57228" lon="-2.20029">
        <ele>52.4</ele>
        <time>2021-08-14T08:19:05Z</time>
      </trkpt>
      <trkpt lat="47.57229" lon="-2.20033">
        <ele>52.6</ele>
        <time>2021-08-14T08:19:06Z</time>
      </trkpt>
      <trkpt lat="47.5723" lon="-2.2004">
        <ele>52.9</ele>
        <time>2021-08-14T08:19:08Z</time>
      </trkpt>
      <trkpt lat="47.57232" lon="-2.20047">
        <ele>53.1</ele>
        <time>2021-08-14T08:19:09Z</time>
      </trkpt>
      <trkpt lat="47.57233" lon="-2.20052">
        <ele>53.3</ele>
        <time>2021-08-14T08:19:10Z</time>
      </trkpt>
      <trkpt lat="47.57234" lon="-2.2006">
        <ele>53.6</ele>
        <time>2021-08-14T08:19:12Z</time>
      </trkpt>
      <trkpt lat="47.57235" lon="-2.20065">
        <ele>53.7</ele>
        <time>2021-08-14T08:19:13Z</time>
      </trkpt>
      <trkpt lat="47.57236" lon="-2.2007">
        <ele>53.9</ele>
        <time>2021-08-14T08:19:14Z</time>
      </trkpt>
      <trkpt lat="47.57237" lon="-2.20078">
        <ele>54.2</ele>
        <time>2021-08-14T08:19:16Z</time>
      </trkpt>
      <trkpt lat="47.57238" lon="-2.20085">
        <ele>54.4</ele>
        <time>2021-08-14T08:19:18Z</time>
      </trkpt>
      <trkpt lat="47.5724" lon="-2.20092">
        <ele>54.7</ele>
        <time>2021-08-14T08:19:19Z</time>
      </trkpt>
      <trkpt lat="47.57241" lon="-2.20099">
        <ele>54.9</ele>
        <time>2021-08-14T08:19:21Z</time>
      </trkpt>
      <trkpt lat="47.57242" lon="-2.20103">
        <ele>55</ele>
        <time>2021-08-14T08:19:22Z</time>
      </trkpt>
      <trkpt lat="47.57243" lon="-2.20108">
        <ele>55.2</ele>
        <time>2021-08-14T08:19:24Z</time>
      </trkpt>
      <trkpt lat="47.57244" lon="-2.20112">
        <ele>55.3</ele>
        <time>2021-08-14T08:19:25Z</time>
      </trkpt>
      <trkpt lat="47.57244" lon="-2.20116">
        <ele>55.5</ele>
        <time>2021-08-14T08:19:26Z</time>
      </trkpt>
      <trkpt lat="47.57245" lon="-2.2012">
        <ele>55.6</ele>
        <time>2021-08-14T08:19:27Z</time>
      </trkpt>
      <trkpt lat="47.57246" lon="-2.20124">
        <ele>55.7</ele>
        <time>2021-08-14T08:19:28Z</time>
      </trkpt>
      <trkpt lat="47.57247" lon="-2.20129">
        <ele>55.8</ele>
        <time>2021-08-14T08:19:30Z</time>
      </trkpt>
      <trkpt lat="47.57248" lon="-2.20134">
        <ele>56</ele>
        <time>2021-08-14T08:19:31Z</time>
      </trkpt>
      <trkpt lat="47.57248" lon="-2.20139">
        <ele>56.1</ele>
        <time>2021-08-14T08:19:32Z</time>
      </trkpt>
      <trkpt lat="47.57249" lon="-2.20143">
        <ele>56.2</ele>
        <time>2021-08-14T08:19:33Z</time>
      </trkpt>
      <trkpt lat="47.5725" lon="-2.20151">
        <ele>56.3</ele>
        <time>2021-08-14T08:19:35Z</time>
      </trkpt>
      <trkpt lat="47.57251" lon="-2.20156">
        <ele>56.4</ele>
        <time>2021-08-14T08:19:37Z</time>
      </trkpt>
      <trkpt lat="47.57252" lon="-2.20162">
        <ele>56.5</ele>
        <time>2021-08-14T08:19:38Z</time>
      </trkpt>
      <trkpt lat="47.57253" lon="-2.20166">
        <ele>56.6</ele>
        <time>2021-08-14T08:19:39Z</time>
      </trkpt>
      <trkpt lat="47.57254" lon="-2.2017">
        <ele>56.7</ele>
        <time>2021-08-14T08:19:40Z</time>
      </trkpt>
      <trkpt lat="47.57255" lon="-2.20175">
        <ele>56.8</ele>
        <time>2021-08-14T08:19:41Z</time>
      </trkpt>
      <trkpt lat="47.57256" lon="-2.20182">
        <ele>56.9</ele>
        <time>2021-08-14T08:19:43Z</time>
      </trkpt>
      <trkpt lat="47.57257" lon="-2.20187">
        <ele>57</ele>
        <time>2021-08-14T08:19:44Z</time>
      </trkpt>
      <trkpt lat="47.57258" lon="-2.20193">
        <ele>57.1</ele>
        <time>2021-08-14T08:19:46Z</time>
      </trkpt>
      <trkpt lat="47.57258" lon="-2.20198">
        <ele>57.1</ele>
        <time>2021-08-14T08:19:47Z</time>
      </trkpt>
      <trkpt lat="47.57259" lon="-2.20203">
        <ele>57.2</ele>
        <time>2021-08-14T08:19:48Z</time>
      </trkpt>
      <trkpt lat="47.5726" lon="-2.20208">
        <ele>57.3</ele>
        <time>2021-08-14T08:19:49Z</time>
      </trkpt>
      <trkpt lat="47.57261" lon="-2.20216">
        <ele>57.4</ele>
        <time>2021-08-14T08:19:51Z</time>
      </trkpt>
      <trkpt lat="47.57262" lon="-2.20222">
        <ele>57.4</ele>
        <time>2021-08-14T08:19:52Z</time>
      </trkpt>
      <trkpt lat="47.57263" lon="-2.20227">
        <ele>57.5</ele>
        <time>2021-08-14T08:19:53Z</time>
      </trkpt>
      <trkpt lat="47.57264" lon="-2.20235">
        <ele>57.6</ele>
        <time>2021-08-14T08:19:55Z</time>
      </trkpt>
      <trkpt lat="47.57265" lon="-2.2024">
        <ele>57.6</ele>
        <time>2021-08-14T08:19:56Z</time>
      </trkpt>
      <trkpt lat="47.57266" lon="-2.20245">
        <ele>57.7</ele>
        <time>2021-08-14T08:19:57Z</time>
      </trkpt>
      <trkpt lat="47.57267" lon="-2.2025">
        <ele>57.8</ele>
        <time>2021-08-14T08:19:58Z</time>
      </trkpt>
      <trkpt lat="47.57269" lon="-2.20259">
        <ele>57.9</ele>
        <time>2021-08-14T08:20:00Z</time>
      </trkpt>
      <trkpt lat="47.5727" lon="-2.20264">
        <ele>58</ele>
        <time>2021-08-14T08:20:01Z</time>
      </trkpt>
      <trkpt lat="47.57271" lon="-2.2027">
        <ele>58.1</ele>
        <time>2021-08-14T08:20:03Z</time>
      </trkpt>
      <trkpt lat="47.57272" lon="-2.20277">
        <ele>58.2</ele>
        <time>2021-08-14T08:20:04Z</time>
      </trkpt>
      <trkpt lat="47.57273" lon="-2.20284">
        <ele>58.3</ele>
        <time>2021-08-14T08:20:06Z</time>
      </trkpt>
      <trkpt lat="47.57274" lon="-2.2029">
        <ele>58.4</ele>
        <time>2021-08-14T08:20:07Z</time>
      </trkpt>
      <trkpt lat="47.57275" lon="-2.20295">
        <ele>58.5</ele>
        <time>2021-08-14T08:20:08Z</time>
      </trkpt>
      <trkpt lat="47.57276" lon="-2.20301">
        <ele>58.6</ele>
        <time>2021-08-14T08:20:10Z</time>
      </trkpt>
      <trkpt lat="47.57277" lon="-2.20308">
        <ele>58.7</ele>
        <time>2021-08-14T08:20:11Z</time>
      </trkpt>
      <trkpt lat="47.57279" lon="-2.20317">
        <ele>58.9</ele>
        <time>2021-08-14T08:20:13Z</time>
      </trkpt>
      <trkpt lat="47.5728" lon="-2.20323">
        <ele>59</ele>
        <time>2021-08-14T08:20:15Z</time>
      </trkpt>
      <trkpt lat="47.57281" lon="-2.20328">
        <ele>59.1</ele>
        <time>2021-08-14T08:20:16Z</time>
      </trkpt>
      <trkpt lat="47.57282" lon="-2.20334">
        <ele>59.2</ele>
        <time>2021-08-14T08:20:17Z</time>
      </trkpt>
      <trkpt lat="47.57283" lon="-2.20339">
        <ele>59.3</ele>
        <time>2021-08-14T08:20:18Z</time>
      </trkpt>
      <trkpt lat="47.57284" lon="-2.20343">
        <ele>59.4</ele>
        <time>2021-08-14T08:20:19Z</time>
      </trkpt>
      <trkpt lat="47.57285" lon="-2.20352">
        <ele>59.6</ele>
        <time>2021-08-14T08:20:21Z</time>
      </trkpt>
      <trkpt lat="47.57286" lon="-2.20359">
        <ele>59.7</ele>
        <time>2021-08-14T08:20:23Z</time>
      </trkpt>
      <trkpt lat="47.57287" lon="-2.20365">
        <ele>59.8</ele>
        <time>2021-08-14T08:20:24Z</time>
      </trkpt>
      <trkpt lat="47.57288" lon="-2.20371">
        <ele>59.9</ele>
        <time>2021-08-14T08:20:25Z</time>
      </trkpt>
      <trkpt lat="47.5729" lon="-2.20379">
        <ele>60.1</ele>
        <time>2021-08-14T08:20:27Z</time>
      </trkpt>
      <trkpt lat="47.57291" lon="-2.20386">
        <ele>60.2</ele>
        <time>2021-08-14T08:20:29Z</time>
      </trkpt>
      <trkpt lat="47.57292" lon="-2.20392">
        <ele>60.3</ele>
        <time>2021-08-14T08:20:30Z</time>
      </trkpt>
      <trkpt lat="47.57293" lon="-2.20397">
        <ele>60.4</ele>
        <time>2021-08-14T08:20:31Z</time>
      </trkpt>
      <trkpt lat="47.57294" lon="-2.20402">
        <ele>60.5</ele>
        <time>2021-08-14T08:20:32Z</time>
      </trkpt>
      <trkpt lat="47.57295" lon="-2.20411">
        <ele>60.6</ele>
        <time>2021-08-14T08:20:34Z</time>
      </trkpt>
      <trkpt lat="47.57296" lon="-2.20416">
        <ele>60.7</ele>
        <time>2021-08-14T08:20:35Z</time>
      </trkpt>
      <trkpt lat="47.57297" lon="-2.20421">
        <ele>60.7</ele>
        <time>2021-08-14T08:20:36Z</time>
      </trkpt>
      <trkpt lat="47.57298" lon="-2.20427">
        <ele>60.8</ele>
        <time>2021-08-14T08:20:38Z</time>
      </trkpt>
      <trkpt lat="47.57299" lon="-2.20434">
        <ele>60.9</ele>
        <time>2021-08-14T08:20:39Z</time>
      </trkpt>
      <trkpt lat="47.57301" lon="-2.20443">
        <ele>61</ele>
        <time>2021-08-14T08:20:41Z</time>
      </trkpt>
      <trkpt lat="47.57302" lon="-2.20447">
        <ele>61</ele>
        <time>2021-08-14T08:20:42Z</time>
      </trkpt>
      <trkpt lat="47.57303" lon="-2.20452">
        <ele>61.1</ele>
        <time>2021-08-14T08:20:43Z</time>
      </trkpt>
      <trkpt lat="47.57303" lon="-2.20457">
        <ele>61.2</ele>
        <time>2021-08-14T08:20:44Z</time>
      </trkpt>
      <trkpt lat="47.57305" lon="-2.20466">
        <ele>61.2</ele>
        <time>2021-08-14T08:20:46Z</time>
      </trkpt>
      <trkpt lat="47.57306" lon="-2.20473">
        <ele>61.3</ele>
        <time>2021-08-14T08:20:48Z</time>
      </trkpt>
      <trkpt lat="47.57307" lon="-2.20481">
        <ele>61.4</ele>
        <time>2021-08-14T08:20:49Z</time>
      </trkpt>
      <trkpt lat="47.57308" lon="-2.20487">
        <ele>61.4</ele>
        <time>2021-08-14T08:20:50Z</time>
      </trkpt>
      <trkpt lat="47.57309" lon="-2.20492">
        <ele>61.4</ele>
        <time>2021-08-14T08:20:52Z</time>
      </trkpt>
      <trkpt lat="47.57311" lon="-2.20499">
        <ele>61.5</ele>
        <time>2021-08-14T08:20:53Z</time>
      </trkpt>
      <trkpt lat="47.57312" lon="-2.20508">
        <ele>61.5</ele>
        <time>2021-08-14T08:20:55Z</time>
      </trkpt>
      <trkpt lat="47.57313" lon="-2.20513">
        <ele>61.5</ele>
        <time>2021-08-14T08:20:56Z</time>
      </trkpt>
      <trkpt lat="47.57314" lon="-2.20519">
        <ele>61.5</ele>
        <time>2021-08-14T08:20:57Z</time>
      </trkpt>
      <trkpt lat="47.57315" lon="-2.20525">
        <ele>61.5</ele>
        <time>2021-08-14T08:20:58Z</time>
      </trkpt>
      <trkpt lat="47.57316" lon="-2.20534">
        <ele>61.5</ele>
        <time>2021-08-14T08:21:00Z</time>
      </trkpt>
      <trkpt lat="47.57316" lon="-2.2054">
        <ele>61.5</ele>
        <time>2021-08-14T08:21:01Z</time>
      </trkpt>
      <trkpt lat="47.57317" lon="-2.20548">
        <ele>61.4</ele>
        <time>2021-08-14T08:21:02Z</time>
      </trkpt>
      <trkpt lat="47.57317" lon="-2.20558">
        <ele>61.3</ele>
        <time>2021-08-14T08:21:04Z</time>
      </trkpt>
      <trkpt lat="47.57317" lon="-2.20564">
        <ele>61.3</ele>
        <time>2021-08-14T08:21:05Z</time>
      </trkpt>
      <trkpt lat="47.57316" lon="-2.2057">
        <ele>61.2</ele>
        <time>2021-08-14T08:21:06Z</time>
      </trkpt>
      <trkpt lat="47.57316" lon="-2.20577">
        <ele>61.1</ele>
        <time>2021-08-14T08:21:08Z</time>
      </trkpt>
      <trkpt lat="47.57316" lon="-2.20587">
        <ele>61</ele>
        <time>2021-08-14T08:21:09Z</time>
      </trkpt>
      <trkpt lat="47.57316" lon="-2.20596">
        <ele>60.9</ele>
        <time>2021-08-14T08:21:11Z</time>
      </trkpt>
      <trkpt lat="47.57316" lon="-2.20604">
        <ele>60.8</ele>
        <time>2021-08-14T08:21:12Z</time>
      </trkpt>
      <trkpt lat="47.57317" lon="-2.20614">
        <ele>60.7</ele>
        <time>2021-08-14T08:21:14Z</time>
      </trkpt>
      <trkpt lat="47.57317" lon="-2.20625">
        <ele>60.5</ele>
        <time>2021-08-14T08:21:16Z</time>
      </trkpt>
      <trkpt lat="47.57317" lon="-2.20631">
        <ele>60.4</ele>
        <time>2021-08-14T08:21:17Z</time>
      </trkpt>
      <trkpt lat="47.57318" lon="-2.20637">
        <ele>60.3</ele>
        <time>2021-08-14T08:21:18Z</time>
      </trkpt>
      <trkpt lat="47.57318" lon="-2.20646">
        <ele>60.2</ele>
        <time>2021-08-14T08:21:20Z</time>
      </trkpt>
      <trkpt lat="47.57318" lon="-2.20653">
        <ele>60</ele>
        <time>2021-08-14T08:21:21Z</time>
      </trkpt>
      <trkpt lat="47.57319" lon="-2.20662">
        <ele>59.8</ele>
        <time>2021-08-14T08:21:22Z</time>
      </trkpt>
      <trkpt lat="47.5732" lon="-2.2067">
        <ele>59.6</ele>
        <time>2021-08-14T08:21:23Z</time>
      </trkpt>
      <trkpt lat="47.57323" lon="-2.20685">
        <ele>59.1</ele>
        <time>2021-08-14T08:21:25Z</time>
      </trkpt>
      <trkpt lat="47.57326" lon="-2.207">
        <ele>58.4</ele>
        <time>2021-08-14T08:21:27Z</time>
      </trkpt>
      <trkpt lat="47.57328" lon="-2.20709">
        <ele>58</ele>
        <time>2021-08-14T08:21:28Z</time>
      </trkpt>
      <trkpt lat="47.5733" lon="-2.20718">
        <ele>57.6</ele>
        <time>2021-08-14T08:21:29Z</time>
      </trkpt>
      <trkpt lat="47.57332" lon="-2.20728">
        <ele>57</ele>
        <time>2021-08-14T08:21:30Z</time>
      </trkpt>
      <trkpt lat="47.57336" lon="-2.2075">
        <ele>55.8</ele>
        <time>2021-08-14T08:21:32Z</time>
      </trkpt>
      <trkpt lat="47.57339" lon="-2.20773">
        <ele>54.5</ele>
        <time>2021-08-14T08:21:34Z</time>
      </trkpt>
      <trkpt lat="47.57341" lon="-2.20785">
        <ele>53.9</ele>
        <time>2021-08-14T08:21:35Z</time>
      </trkpt>
      <trkpt lat="47.57344" lon="-2.20809">
        <ele>52.9</ele>
        <time>2021-08-14T08:21:37Z</time>
      </trkpt>
      <trkpt lat="47.5735" lon="-2.20832">
        <ele>52.1</ele>
        <time>2021-08-14T08:21:39Z</time>
      </trkpt>
      <trkpt lat="47.57353" lon="-2.20843">
        <ele>51.8</ele>
        <time>2021-08-14T08:21:40Z</time>
      </trkpt>
      <trkpt lat="47.57359" lon="-2.20864">
        <ele>51.5</ele>
        <time>2021-08-14T08:21:42Z</time>
      </trkpt>
      <trkpt lat="47.57364" lon="-2.20882">
        <ele>51.4</ele>
        <time>2021-08-14T08:21:44Z</time>
      </trkpt>
      <trkpt lat="47.57368" lon="-2.20891">
        <ele>51.4</ele>
        <time>2021-08-14T08:21:45Z</time>
      </trkpt>
      <trkpt lat="47.5737" lon="-2.20899">
        <ele>51.4</ele>
        <time>2021-08-14T08:21:46Z</time>
      </trkpt>
      <trkpt lat="47.57375" lon="-2.20915">
        <ele>51.6</ele>
        <time>2021-08-14T08:21:48Z</time>
      </trkpt>
      <trkpt lat="47.57377" lon="-2.20922">
        <ele>51.8</ele>
        <time>2021-08-14T08:21:49Z</time>
      </trkpt>
      <trkpt lat="47.57381" lon="-2.20935">
        <ele>52.1</ele>
        <time>2021-08-14T08:21:51Z</time>
      </trkpt>
      <trkpt lat="47.57383" lon="-2.20941">
        <ele>52.3</ele>
        <time>2021-08-14T08:21:52Z</time>
      </trkpt>
      <trkpt lat="47.57386" lon="-2.20949">
        <ele>52.6</ele>
        <time>2021-08-14T08:21:54Z</time>
      </trkpt>
      <trkpt lat="47.57387" lon="-2.20953">
        <ele>52.8</ele>
        <time>2021-08-14T08:21:55Z</time>
      </trkpt>
      <trkpt lat="47.57388" lon="-2.20957">
        <ele>52.9</ele>
        <time>2021-08-14T08:21:56Z</time>
      </trkpt>
      <trkpt lat="47.57392" lon="-2.20964">
        <ele>53.3</ele>
        <time>2021-08-14T08:21:58Z</time>
      </trkpt>
      <trkpt lat="47.57394" lon="-2.20969">
        <ele>53.6</ele>
        <time>2021-08-14T08:21:59Z</time>
      </trkpt>
      <trkpt lat="47.57398" lon="-2.20972">
        <ele>53.9</ele>
        <time>2021-08-14T08:22:01Z</time>
      </trkpt>
      <trkpt lat="47.57399" lon="-2.20974">
        <ele>54</ele>
        <time>2021-08-14T08:22:02Z</time>
      </trkpt>
      <trkpt lat="47.57402" lon="-2.20977">
        <ele>54.2</ele>
        <time>2021-08-14T08:22:03Z</time>
      </trkpt>
      <trkpt lat="47.57404" lon="-2.20979">
        <ele>54.4</ele>
        <time>2021-08-14T08:22:04Z</time>
      </trkpt>
      <trkpt lat="47.57408" lon="-2.20985">
        <ele>54.8</ele>
        <time>2021-08-14T08:22:06Z</time>
      </trkpt>
      <trkpt lat="47.5741" lon="-2.20989">
        <ele>55</ele>
        <time>2021-08-14T08:22:07Z</time>
      </trkpt>
      <trkpt lat="47.57413" lon="-2.20995">
        <ele>55.3</ele>
        <time>2021-08-14T08:22:09Z</time>
      </trkpt>
      <trkpt lat="47.57416" lon="-2.20999">
        <ele>55.6</ele>
        <time>2021-08-14T08:22:10Z</time>
      </trkpt>
      <trkpt lat="47.57417" lon="-2.21003">
        <ele>55.7</ele>
        <time>2021-08-14T08:22:11Z</time>
      </trkpt>
      <trkpt lat="47.57419" lon="-2.2101">
        <ele>56</ele>
        <time>2021-08-14T08:22:13Z</time>
      </trkpt>
      <trkpt lat="47.57421" lon="-2.21016">
        <ele>56.2</ele>
        <time>2021-08-14T08:22:14Z</time>
      </trkpt>
      <trkpt lat="47.57422" lon="-2.21021">
        <ele>56.4</ele>
        <time>2021-08-14T08:22:16Z</time>
      </trkpt>
      <trkpt lat="47.57422" lon="-2.21027">
        <ele>56.6</ele>
        <time>2021-08-14T08:22:17Z</time>
      </trkpt>
      <trkpt lat="47.57423" lon="-2.21033">
        <ele>56.7</ele>
        <time>2021-08-14T08:22:18Z</time>
      </trkpt>
      <trkpt lat="47.57423" lon="-2.21039">
        <ele>56.9</ele>
        <time>2021-08-14T08:22:20Z</time>
      </trkpt>
      <trkpt lat="47.57423" lon="-2.21045">
        <ele>57</ele>
        <time>2021-08-14T08:22:21Z</time>
      </trkpt>
      <trkpt lat="47.57424" lon="-2.2105">
        <ele>57.1</ele>
        <time>2021-08-14T08:22:22Z</time>
      </trkpt>
      <trkpt lat="47.57423" lon="-2.21055">
        <ele>57.2</ele>
        <time>2021-08-14T08:22:23Z</time>
      </trkpt>
      <trkpt lat="47.57424" lon="-2.2106">
        <ele>57.2</ele>
        <time>2021-08-14T08:22:24Z</time>
      </trkpt>
      <trkpt lat="47.57424" lon="-2.21068">
        <ele>57.3</ele>
        <time>2021-08-14T08:22:26Z</time>
      </trkpt>
      <trkpt lat="47.57425" lon="-2.21074">
        <ele>57.4</ele>
        <time>2021-08-14T08:22:27Z</time>
      </trkpt>
      <trkpt lat="47.57426" lon="-2.21079">
        <ele>57.4</ele>
        <time>2021-08-14T08:22:28Z</time>
      </trkpt>
      <trkpt lat="47.57427" lon="-2.21084">
        <ele>57.6</ele>
        <time>2021-08-14T08:22:30Z</time>
      </trkpt>
      <trkpt lat="47.57429" lon="-2.21088">
        <ele>57.7</ele>
        <time>2021-08-14T08:22:31Z</time>
      </trkpt>
      <trkpt lat="47.57431" lon="-2.21093">
        <ele>57.9</ele>
        <time>2021-08-14T08:22:32Z</time>
      </trkpt>
      <trkpt lat="47.57434" lon="-2.21096">
        <ele>58</ele>
        <time>2021-08-14T08:22:34Z</time>
      </trkpt>
      <trkpt lat="47.57438" lon="-2.21099">
        <ele>58.2</ele>
        <time>2021-08-14T08:22:35Z</time>
      </trkpt>
      <trkpt lat="47.57441" lon="-2.21101">
        <ele>58.3</ele>
        <time>2021-08-14T08:22:36Z</time>
      </trkpt>
      <trkpt lat="47.57444" lon="-2.21102">
        <ele>58.5</ele>
        <time>2021-08-14T08:22:37Z</time>
      </trkpt>
      <trkpt lat="47.57449" lon="-2.21102">
        <ele>58.7</ele>
        <time>2021-08-14T08:22:39Z</time>
      </trkpt>
      <trkpt lat="47.57453" lon="-2.21101">
        <ele>58.8</ele>
        <time>2021-08-14T08:22:40Z</time>
      </trkpt>
      <trkpt lat="47.57458" lon="-2.211">
        <ele>59</ele>
        <time>2021-08-14T08:22:42Z</time>
      </trkpt>
      <trkpt lat="47.57461" lon="-2.211">
        <ele>59.1</ele>
        <time>2021-08-14T08:22:43Z</time>
      </trkpt>
      <trkpt lat="47.57465" lon="-2.21099">
        <ele>59.2</ele>
        <time>2021-08-14T08:22:45Z</time>
      </trkpt>
      <trkpt lat="47.57469" lon="-2.21099">
        <ele>59.3</ele>
        <time>2021-08-14T08:22:46Z</time>
      </trkpt>
      <trkpt lat="47.57475" lon="-2.21098">
        <ele>59.3</ele>
        <time>2021-08-14T08:22:48Z</time>
      </trkpt>
      <trkpt lat="47.57478" lon="-2.21097">
        <ele>59.4</ele>
        <time>2021-08-14T08:22:49Z</time>
      </trkpt>
      <trkpt lat="47.57483" lon="-2.21096">
        <ele>59.4</ele>
        <time>2021-08-14T08:22:51Z</time>
      </trkpt>
      <trkpt lat="47.57487" lon="-2.21095">
        <ele>59.5</ele>
        <time>2021-08-14T08:22:52Z</time>
      </trkpt>
      <trkpt lat="47.57492" lon="-2.21095">
        <ele>59.5</ele>
        <time>2021-08-14T08:22:54Z</time>
      </trkpt>
      <trkpt lat="47.57496" lon="-2.21094">
        <ele>59.5</ele>
        <time>2021-08-14T08:22:55Z</time>
      </trkpt>
      <trkpt lat="47.575" lon="-2.21094">
        <ele>59.5</ele>
        <time>2021-08-14T08:22:56Z</time>
      </trkpt>
      <trkpt lat="47.57506" lon="-2.21093">
        <ele>59.5</ele>
        <time>2021-08-14T08:22:58Z</time>
      </trkpt>
      <trkpt lat="47.5751" lon="-2.21092">
        <ele>59.5</ele>
        <time>2021-08-14T08:22:59Z</time>
      </trkpt>
      <trkpt lat="47.57513" lon="-2.21092">
        <ele>59.5</ele>
        <time>2021-08-14T08:23:00Z</time>
      </trkpt>
      <trkpt lat="47.57516" lon="-2.2109">
        <ele>59.5</ele>
        <time>2021-08-14T08:23:01Z</time>
      </trkpt>
      <trkpt lat="47.5752" lon="-2.21089">
        <ele>59.4</ele>
        <time>2021-08-14T08:23:02Z</time>
      </trkpt>
      <trkpt lat="47.57525" lon="-2.21088">
        <ele>59.4</ele>
        <time>2021-08-14T08:23:04Z</time>
      </trkpt>
      <trkpt lat="47.57529" lon="-2.21087">
        <ele>59.4</ele>
        <time>2021-08-14T08:23:05Z</time>
      </trkpt>
      <trkpt lat="47.57534" lon="-2.21085">
        <ele>59.3</ele>
        <time>2021-08-14T08:23:06Z</time>
      </trkpt>
      <trkpt lat="47.57539" lon="-2.21084">
        <ele>59.3</ele>
        <time>2021-08-14T08:23:08Z</time>
      </trkpt>
      <trkpt lat="47.57543" lon="-2.21083">
        <ele>59.2</ele>
        <time>2021-08-14T08:23:09Z</time>
      </trkpt>
      <trkpt lat="47.57547" lon="-2.21082">
        <ele>59.2</ele>
        <time>2021-08-14T08:23:10Z</time>
      </trkpt>
      <trkpt lat="47.57551" lon="-2.21081">
        <ele>59.2</ele>
        <time>2021-08-14T08:23:11Z</time>
      </trkpt>
      <trkpt lat="47.57557" lon="-2.21079">
        <ele>59.1</ele>
        <time>2021-08-14T08:23:13Z</time>
      </trkpt>
      <trkpt lat="47.5756" lon="-2.21078">
        <ele>59.1</ele>
        <time>2021-08-14T08:23:14Z</time>
      </trkpt>
      <trkpt lat="47.57566" lon="-2.21076">
        <ele>59</ele>
        <time>2021-08-14T08:23:16Z</time>
      </trkpt>
      <trkpt lat="47.5757" lon="-2.21074">
        <ele>59</ele>
        <time>2021-08-14T08:23:17Z</time>
      </trkpt>
      <trkpt lat="47.57576" lon="-2.21072">
        <ele>59</ele>
        <time>2021-08-14T08:23:19Z</time>
      </trkpt>
      <trkpt lat="47.5758" lon="-2.21071">
        <ele>58.9</ele>
        <time>2021-08-14T08:23:20Z</time>
      </trkpt>
      <trkpt lat="47.57584" lon="-2.2107">
        <ele>58.9</ele>
        <time>2021-08-14T08:23:21Z</time>
      </trkpt>
      <trkpt lat="47.57587" lon="-2.21069">
        <ele>58.9</ele>
        <time>2021-08-14T08:23:22Z</time>
      </trkpt>
      <trkpt lat="47.57591" lon="-2.21068">
        <ele>58.8</ele>
        <time>2021-08-14T08:23:23Z</time>
      </trkpt>
      <trkpt lat="47.57595" lon="-2.21066">
        <ele>58.8</ele>
        <time>2021-08-14T08:23:24Z</time>
      </trkpt>
      <trkpt lat="47.57599" lon="-2.21065">
        <ele>58.8</ele>
        <time>2021-08-14T08:23:26Z</time>
      </trkpt>
      <trkpt lat="47.57604" lon="-2.21064">
        <ele>58.7</ele>
        <time>2021-08-14T08:23:27Z</time>
      </trkpt>
      <trkpt lat="47.57608" lon="-2.21063">
        <ele>58.7</ele>
        <time>2021-08-14T08:23:28Z</time>
      </trkpt>
      <trkpt lat="47.57612" lon="-2.21062">
        <ele>58.7</ele>
        <time>2021-08-14T08:23:29Z</time>
      </trkpt>
      <trkpt lat="47.57616" lon="-2.2106">
        <ele>58.6</ele>
        <time>2021-08-14T08:23:30Z</time>
      </trkpt>
      <trkpt lat="47.57622" lon="-2.21055">
        <ele>58.5</ele>
        <time>2021-08-14T08:23:32Z</time>
      </trkpt>
      <trkpt lat="47.57625" lon="-2.2105">
        <ele>58.5</ele>
        <time>2021-08-14T08:23:33Z</time>
      </trkpt>
      <trkpt lat="47.57628" lon="-2.21043">
        <ele>58.3</ele>
        <time>2021-08-14T08:23:35Z</time>
      </trkpt>
      <trkpt lat="47.5763" lon="-2.21038">
        <ele>58.2</ele>
        <time>2021-08-14T08:23:36Z</time>
      </trkpt>
      <trkpt lat="47.57634" lon="-2.21034">
        <ele>58.1</ele>
        <time>2021-08-14T08:23:38Z</time>
      </trkpt>
      <trkpt lat="47.57637" lon="-2.21028">
        <ele>57.9</ele>
        <time>2021-08-14T08:23:40Z</time>
      </trkpt>
      <trkpt lat="47.57639" lon="-2.21024">
        <ele>57.7</ele>
        <time>2021-08-14T08:23:41Z</time>
      </trkpt>
      <trkpt lat="47.57642" lon="-2.2102">
        <ele>57.6</ele>
        <time>2021-08-14T08:23:42Z</time>
      </trkpt>
      <trkpt lat="47.57644" lon="-2.21016">
        <ele>57.4</ele>
        <time>2021-08-14T08:23:43Z</time>
      </trkpt>
      <trkpt lat="47.57648" lon="-2.21012">
        <ele>57.1</ele>
        <time>2021-08-14T08:23:45Z</time>
      </trkpt>
      <trkpt lat="47.57651" lon="-2.2101">
        <ele>56.9</ele>
        <time>2021-08-14T08:23:46Z</time>
      </trkpt>
      <trkpt lat="47.57655" lon="-2.21007">
        <ele>56.6</ele>
        <time>2021-08-14T08:23:47Z</time>
      </trkpt>
      <trkpt lat="47.57658" lon="-2.21005">
        <ele>56.4</ele>
        <time>2021-08-14T08:23:48Z</time>
      </trkpt>
      <trkpt lat="47.57664" lon="-2.21002">
        <ele>55.9</ele>
        <time>2021-08-14T08:23:50Z</time>
      </trkpt>
      <trkpt lat="47.57669" lon="-2.20999">
        <ele>55.4</ele>
        <time>2021-08-14T08:23:51Z</time>
      </trkpt>
      <trkpt lat="47.57675" lon="-2.20997">
        <ele>54.9</ele>
        <time>2021-08-14T08:23:52Z</time>
      </trkpt>
      <trkpt lat="47.57681" lon="-2.20995">
        <ele>54.1</ele>
        <time>2021-08-14T08:23:54Z</time>
      </trkpt>
      <trkpt lat="47.57687" lon="-2.20992">
        <ele>53.5</ele>
        <time>2021-08-14T08:23:55Z</time>
      </trkpt>
      <trkpt lat="47.57692" lon="-2.20988">
        <ele>52.6</ele>
        <time>2021-08-14T08:23:57Z</time>
      </trkpt>
      <trkpt lat="47.57696" lon="-2.20983">
        <ele>51.7</ele>
        <time>2021-08-14T08:23:58Z</time>
      </trkpt>
      <trkpt lat="47.577" lon="-2.20981">
        <ele>51</ele>
        <time>2021-08-14T08:24:00Z</time>
      </trkpt>
      <trkpt lat="47.57703" lon="-2.2098">
        <ele>50.1</ele>
        <time>2021-08-14T08:24:02Z</time>
      </trkpt>
      <trkpt lat="47.57705" lon="-2.20979">
        <ele>49.6</ele>
        <time>2021-08-14T08:24:04Z</time>
      </trkpt>
      <trkpt lat="47.57706" lon="-2.20979">
        <ele>49.4</ele>
        <time>2021-08-14T08:24:05Z</time>
      </trkpt>
      <trkpt lat="47.57707" lon="-2.20979">
        <ele>49.1</ele>
        <time>2021-08-14T08:24:07Z</time>
      </trkpt>
      <trkpt lat="47.57708" lon="-2.20979">
        <ele>48.8</ele>
        <time>2021-08-14T08:24:08Z</time>
      </trkpt>
      <trkpt lat="47.57709" lon="-2.20979">
        <ele>48.6</ele>
        <time>2021-08-14T08:24:10Z</time>
      </trkpt>
      <trkpt lat="47.57709" lon="-2.2098">
        <ele>48.5</ele>
        <time>2021-08-14T08:24:11Z</time>
      </trkpt>
      <trkpt lat="47.57709" lon="-2.2098">
        <ele>48.4</ele>
        <time>2021-08-14T08:24:13Z</time>
      </trkpt>
      <trkpt lat="47.57708" lon="-2.2098">
        <ele>48.3</ele>
        <time>2021-08-14T08:24:15Z</time>
      </trkpt>
      <trkpt lat="47.57708" lon="-2.2098">
        <ele>48.2</ele>
        <time>2021-08-14T08:24:16Z</time>
      </trkpt>
      <trkpt lat="47.57709" lon="-2.20979">
        <ele>47.9</ele>
        <time>2021-08-14T08:24:18Z</time>
      </trkpt>
      <trkpt lat="47.57713" lon="-2.20978">
        <ele>46.7</ele>
        <time>2021-08-14T08:24:33Z</time>
      </trkpt>
      <trkpt lat="47.57715" lon="-2.20978">
        <ele>46.2</ele>
        <time>2021-08-14T08:24:34Z</time>
      </trkpt>
      <trkpt lat="47.57718" lon="-2.20976">
        <ele>45.4</ele>
        <time>2021-08-14T08:24:36Z</time>
      </trkpt>
      <trkpt lat="47.57721" lon="-2.20975">
        <ele>44.5</ele>
        <time>2021-08-14T08:24:37Z</time>
      </trkpt>
      <trkpt lat="47.57724" lon="-2.20973">
        <ele>43.9</ele>
        <time>2021-08-14T08:24:38Z</time>
      </trkpt>
      <trkpt lat="47.57726" lon="-2.20973">
        <ele>43.3</ele>
        <time>2021-08-14T08:24:39Z</time>
      </trkpt>
      <trkpt lat="47.57729" lon="-2.20973">
        <ele>42.7</ele>
        <time>2021-08-14T08:24:41Z</time>
      </trkpt>
      <trkpt lat="47.57733" lon="-2.20972">
        <ele>41.9</ele>
        <time>2021-08-14T08:24:42Z</time>
      </trkpt>
      <trkpt lat="47.57735" lon="-2.20971">
        <ele>41.5</ele>
        <time>2021-08-14T08:24:43Z</time>
      </trkpt>
      <trkpt lat="47.57742" lon="-2.20971">
        <ele>40.3</ele>
        <time>2021-08-14T08:24:45Z</time>
      </trkpt>
      <trkpt lat="47.57745" lon="-2.20971">
        <ele>39.8</ele>
        <time>2021-08-14T08:24:46Z</time>
      </trkpt>
      <trkpt lat="47.57748" lon="-2.20971">
        <ele>39.1</ele>
        <time>2021-08-14T08:24:47Z</time>
      </trkpt>
      <trkpt lat="47.57753" lon="-2.20972">
        <ele>39.1</ele>
        <time>2021-08-14T08:24:49Z</time>
      </trkpt>
      <trkpt lat="47.57754" lon="-2.20972">
        <ele>39.1</ele>
        <time>2021-08-14T08:24:50Z</time>
      </trkpt>
      <trkpt lat="47.57756" lon="-2.20973">
        <ele>39.1</ele>
        <time>2021-08-14T08:24:51Z</time>
      </trkpt>
      <trkpt lat="47.5776" lon="-2.20976">
        <ele>39.1</ele>
        <time>2021-08-14T08:24:52Z</time>
      </trkpt>
      <trkpt lat="47.57761" lon="-2.20978">
        <ele>39.1</ele>
        <time>2021-08-14T08:24:53Z</time>
      </trkpt>
      <trkpt lat="47.57765" lon="-2.20983">
        <ele>39.1</ele>
        <time>2021-08-14T08:24:55Z</time>
      </trkpt>
      <trkpt lat="47.57769" lon="-2.20986">
        <ele>39.1</ele>
        <time>2021-08-14T08:24:57Z</time>
      </trkpt>
      <trkpt lat="47.5777" lon="-2.20987">
        <ele>39.1</ele>
        <time>2021-08-14T08:24:58Z</time>
      </trkpt>
      <trkpt lat="47.57772" lon="-2.20987">
        <ele>39.1</ele>
        <time>2021-08-14T08:24:59Z</time>
      </trkpt>
      <trkpt lat="47.57776" lon="-2.20987">
        <ele>39.2</ele>
        <time>2021-08-14T08:25:01Z</time>
      </trkpt>
      <trkpt lat="47.5778" lon="-2.20987">
        <ele>39.3</ele>
        <time>2021-08-14T08:25:03Z</time>
      </trkpt>
      <trkpt lat="47.57782" lon="-2.20988">
        <ele>39.3</ele>
        <time>2021-08-14T08:25:04Z</time>
      </trkpt>
      <trkpt lat="47.57784" lon="-2.20988">
        <ele>39.4</ele>
        <time>2021-08-14T08:25:05Z</time>
      </trkpt>
      <trkpt lat="47.57789" lon="-2.2099">
        <ele>39.5</ele>
        <time>2021-08-14T08:25:07Z</time>
      </trkpt>
      <trkpt lat="47.57791" lon="-2.20991">
        <ele>39.6</ele>
        <time>2021-08-14T08:25:08Z</time>
      </trkpt>
      <trkpt lat="47.57796" lon="-2.20994">
        <ele>39.8</ele>
        <time>2021-08-14T08:25:10Z</time>
      </trkpt>
      <trkpt lat="47.57798" lon="-2.20996">
        <ele>39.9</ele>
        <time>2021-08-14T08:25:11Z</time>
      </trkpt>
      <trkpt lat="47.57803" lon="-2.21">
        <ele>40.1</ele>
        <time>2021-08-14T08:25:13Z</time>
      </trkpt>
      <trkpt lat="47.57806" lon="-2.21005">
        <ele>40.3</ele>
        <time>2021-08-14T08:25:15Z</time>
      </trkpt>
      <trkpt lat="47.57809" lon="-2.2101">
        <ele>40.6</ele>
        <time>2021-08-14T08:25:16Z</time>
      </trkpt>
      <trkpt lat="47.57812" lon="-2.21014">
        <ele>40.8</ele>
        <time>2021-08-14T08:25:18Z</time>
      </trkpt>
      <trkpt lat="47.57814" lon="-2.21019">
        <ele>41</ele>
        <time>2021-08-14T08:25:19Z</time>
      </trkpt>
      <trkpt lat="47.57817" lon="-2.21025">
        <ele>41.3</ele>
        <time>2021-08-14T08:25:21Z</time>
      </trkpt>
      <trkpt lat="47.57818" lon="-2.21028">
        <ele>41.5</ele>
        <time>2021-08-14T08:25:22Z</time>
      </trkpt>
      <trkpt lat="47.57819" lon="-2.21034">
        <ele>41.8</ele>
        <time>2021-08-14T08:25:24Z</time>
      </trkpt>
      <trkpt lat="47.57819" lon="-2.21038">
        <ele>41.9</ele>
        <time>2021-08-14T08:25:25Z</time>
      </trkpt>
      <trkpt lat="47.5782" lon="-2.21043">
        <ele>42.2</ele>
        <time>2021-08-14T08:25:27Z</time>
      </trkpt>
      <trkpt lat="47.57821" lon="-2.21047">
        <ele>42.4</ele>
        <time>2021-08-14T08:25:28Z</time>
      </trkpt>
      <trkpt lat="47.57822" lon="-2.21052">
        <ele>42.6</ele>
        <time>2021-08-14T08:25:29Z</time>
      </trkpt>
      <trkpt lat="47.57823" lon="-2.21057">
        <ele>42.8</ele>
        <time>2021-08-14T08:25:30Z</time>
      </trkpt>
      <trkpt lat="47.57823" lon="-2.21062">
        <ele>43.1</ele>
        <time>2021-08-14T08:25:32Z</time>
      </trkpt>
      <trkpt lat="47.57824" lon="-2.21067">
        <ele>43.3</ele>
        <time>2021-08-14T08:25:33Z</time>
      </trkpt>
      <trkpt lat="47.57824" lon="-2.21069">
        <ele>43.4</ele>
        <time>2021-08-14T08:25:34Z</time>
      </trkpt>
      <trkpt lat="47.57825" lon="-2.21073">
        <ele>43.6</ele>
        <time>2021-08-14T08:25:36Z</time>
      </trkpt>
      <trkpt lat="47.57825" lon="-2.21074">
        <ele>43.6</ele>
        <time>2021-08-14T08:25:37Z</time>
      </trkpt>
      <trkpt lat="47.57825" lon="-2.21077">
        <ele>43.8</ele>
        <time>2021-08-14T08:25:38Z</time>
      </trkpt>
      <trkpt lat="47.57825" lon="-2.21083">
        <ele>44</ele>
        <time>2021-08-14T08:25:40Z</time>
      </trkpt>
      <trkpt lat="47.57826" lon="-2.21088">
        <ele>44.3</ele>
        <time>2021-08-14T08:25:42Z</time>
      </trkpt>
      <trkpt lat="47.57828" lon="-2.21093">
        <ele>44.5</ele>
        <time>2021-08-14T08:25:44Z</time>
      </trkpt>
      <trkpt lat="47.5783" lon="-2.21098">
        <ele>44.8</ele>
        <time>2021-08-14T08:25:46Z</time>
      </trkpt>
      <trkpt lat="47.57832" lon="-2.21103">
        <ele>45.1</ele>
        <time>2021-08-14T08:25:48Z</time>
      </trkpt>
      <trkpt lat="47.57834" lon="-2.21106">
        <ele>45.3</ele>
        <time>2021-08-14T08:25:50Z</time>
      </trkpt>
      <trkpt lat="47.57835" lon="-2.21108">
        <ele>45.3</ele>
        <time>2021-08-14T08:25:51Z</time>
      </trkpt>
      <trkpt lat="47.57836" lon="-2.21109">
        <ele>45.4</ele>
        <time>2021-08-14T08:25:52Z</time>
      </trkpt>
      <trkpt lat="47.57837" lon="-2.21112">
        <ele>45.6</ele>
        <time>2021-08-14T08:25:54Z</time>
      </trkpt>
      <trkpt lat="47.5784" lon="-2.21115">
        <ele>45.8</ele>
        <time>2021-08-14T08:25:55Z</time>
      </trkpt>
      <trkpt lat="47.57842" lon="-2.21116">
        <ele>45.9</ele>
        <time>2021-08-14T08:25:56Z</time>
      </trkpt>
      <trkpt lat="47.57844" lon="-2.21118">
        <ele>46</ele>
        <time>2021-08-14T08:25:57Z</time>
      </trkpt>
      <trkpt lat="47.57847" lon="-2.21122">
        <ele>46.2</ele>
        <time>2021-08-14T08:25:59Z</time>
      </trkpt>
      <trkpt lat="47.57849" lon="-2.21126">
        <ele>46.4</ele>
        <time>2021-08-14T08:26:00Z</time>
      </trkpt>
      <trkpt lat="47.57851" lon="-2.21129">
        <ele>46.6</ele>
        <time>2021-08-14T08:26:02Z</time>
      </trkpt>
      <trkpt lat="47.57853" lon="-2.21133">
        <ele>46.8</ele>
        <time>2021-08-14T08:26:03Z</time>
      </trkpt>
      <trkpt lat="47.57855" lon="-2.21137">
        <ele>47</ele>
        <time>2021-08-14T08:26:05Z</time>
      </trkpt>
      <trkpt lat="47.57857" lon="-2.21139">
        <ele>47.1</ele>
        <time>2021-08-14T08:26:06Z</time>
      </trkpt>
      <trkpt lat="47.5786" lon="-2.21143">
        <ele>47.3</ele>
        <time>2021-08-14T08:26:08Z</time>
      </trkpt>
      <trkpt lat="47.57864" lon="-2.21147">
        <ele>47.6</ele>
        <time>2021-08-14T08:26:10Z</time>
      </trkpt>
      <trkpt lat="47.57866" lon="-2.21152">
        <ele>47.8</ele>
        <time>2021-08-14T08:26:12Z</time>
      </trkpt>
      <trkpt lat="47.57868" lon="-2.21157">
        <ele>48</ele>
        <time>2021-08-14T08:26:14Z</time>
      </trkpt>
      <trkpt lat="47.5787" lon="-2.21159">
        <ele>48.1</ele>
        <time>2021-08-14T08:26:15Z</time>
      </trkpt>
      <trkpt lat="47.57872" lon="-2.21164">
        <ele>48.4</ele>
        <time>2021-08-14T08:26:17Z</time>
      </trkpt>
      <trkpt lat="47.57874" lon="-2.21168">
        <ele>48.6</ele>
        <time>2021-08-14T08:26:19Z</time>
      </trkpt>
      <trkpt lat="47.57876" lon="-2.21172">
        <ele>48.7</ele>
        <time>2021-08-14T08:26:21Z</time>
      </trkpt>
      <trkpt lat="47.57876" lon="-2.21176">
        <ele>48.9</ele>
        <time>2021-08-14T08:26:22Z</time>
      </trkpt>
      <trkpt lat="47.57877" lon="-2.21181">
        <ele>49.1</ele>
        <time>2021-08-14T08:26:24Z</time>
      </trkpt>
      <trkpt lat="47.57878" lon="-2.21187">
        <ele>49.3</ele>
        <time>2021-08-14T08:26:26Z</time>
      </trkpt>
      <trkpt lat="47.57878" lon="-2.2119">
        <ele>49.5</ele>
        <time>2021-08-14T08:26:27Z</time>
      </trkpt>
      <trkpt lat="47.57878" lon="-2.21196">
        <ele>49.7</ele>
        <time>2021-08-14T08:26:29Z</time>
      </trkpt>
      <trkpt lat="47.57879" lon="-2.21201">
        <ele>49.9</ele>
        <time>2021-08-14T08:26:31Z</time>
      </trkpt>
      <trkpt lat="47.57879" lon="-2.21203">
        <ele>50</ele>
        <time>2021-08-14T08:26:32Z</time>
      </trkpt>
      <trkpt lat="47.57878" lon="-2.21209">
        <ele>50.3</ele>
        <time>2021-08-14T08:26:34Z</time>
      </trkpt>
      <trkpt lat="47.57878" lon="-2.21211">
        <ele>50.4</ele>
        <time>2021-08-14T08:26:35Z</time>
      </trkpt>
      <trkpt lat="47.57878" lon="-2.21216">
        <ele>50.6</ele>
        <time>2021-08-14T08:26:37Z</time>
      </trkpt>
      <trkpt lat="47.57877" lon="-2.2122">
        <ele>50.8</ele>
        <time>2021-08-14T08:26:38Z</time>
      </trkpt>
      <trkpt lat="47.57877" lon="-2.21227">
        <ele>51</ele>
        <time>2021-08-14T08:26:40Z</time>
      </trkpt>
      <trkpt lat="47.57876" lon="-2.21229">
        <ele>51.1</ele>
        <time>2021-08-14T08:26:41Z</time>
      </trkpt>
      <trkpt lat="47.57876" lon="-2.21231">
        <ele>51.2</ele>
        <time>2021-08-14T08:26:42Z</time>
      </trkpt>
      <trkpt lat="47.57875" lon="-2.21237">
        <ele>51.5</ele>
        <time>2021-08-14T08:26:44Z</time>
      </trkpt>
      <trkpt lat="47.57875" lon="-2.21241">
        <ele>51.6</ele>
        <time>2021-08-14T08:26:46Z</time>
      </trkpt>
      <trkpt lat="47.57874" lon="-2.21245">
        <ele>51.8</ele>
        <time>2021-08-14T08:26:47Z</time>
      </trkpt>
      <trkpt lat="47.57873" lon="-2.21252">
        <ele>52</ele>
        <time>2021-08-14T08:26:49Z</time>
      </trkpt>
      <trkpt lat="47.57873" lon="-2.21258">
        <ele>52.3</ele>
        <time>2021-08-14T08:26:51Z</time>
      </trkpt>
      <trkpt lat="47.57872" lon="-2.21263">
        <ele>52.5</ele>
        <time>2021-08-14T08:26:53Z</time>
      </trkpt>
      <trkpt lat="47.57871" lon="-2.21267">
        <ele>52.6</ele>
        <time>2021-08-14T08:26:54Z</time>
      </trkpt>
      <trkpt lat="47.5787" lon="-2.21271">
        <ele>52.8</ele>
        <time>2021-08-14T08:26:55Z</time>
      </trkpt>
      <trkpt lat="47.57869" lon="-2.21273">
        <ele>52.9</ele>
        <time>2021-08-14T08:26:56Z</time>
      </trkpt>
      <trkpt lat="47.57868" lon="-2.21277">
        <ele>53.1</ele>
        <time>2021-08-14T08:26:57Z</time>
      </trkpt>
      <trkpt lat="47.57868" lon="-2.21278">
        <ele>53.1</ele>
        <time>2021-08-14T08:26:58Z</time>
      </trkpt>
      <trkpt lat="47.57867" lon="-2.21284">
        <ele>53.4</ele>
        <time>2021-08-14T08:27:00Z</time>
      </trkpt>
      <trkpt lat="47.57866" lon="-2.2129">
        <ele>53.6</ele>
        <time>2021-08-14T08:27:02Z</time>
      </trkpt>
      <trkpt lat="47.57865" lon="-2.21294">
        <ele>53.8</ele>
        <time>2021-08-14T08:27:03Z</time>
      </trkpt>
      <trkpt lat="47.57865" lon="-2.21296">
        <ele>53.8</ele>
        <time>2021-08-14T08:27:04Z</time>
      </trkpt>
      <trkpt lat="47.57863" lon="-2.21301">
        <ele>54.1</ele>
        <time>2021-08-14T08:27:06Z</time>
      </trkpt>
      <trkpt lat="47.57863" lon="-2.21302">
        <ele>54.1</ele>
        <time>2021-08-14T08:27:07Z</time>
      </trkpt>
      <trkpt lat="47.57861" lon="-2.21308">
        <ele>54.4</ele>
        <time>2021-08-14T08:27:09Z</time>
      </trkpt>
      <trkpt lat="47.5786" lon="-2.2131">
        <ele>54.5</ele>
        <time>2021-08-14T08:27:10Z</time>
      </trkpt>
      <trkpt lat="47.57859" lon="-2.21315">
        <ele>54.7</ele>
        <time>2021-08-14T08:27:12Z</time>
      </trkpt>
      <trkpt lat="47.57859" lon="-2.2132">
        <ele>54.9</ele>
        <time>2021-08-14T08:27:14Z</time>
      </trkpt>
      <trkpt lat="47.57858" lon="-2.21322">
        <ele>55.2</ele>
        <time>2021-08-14T08:27:15Z</time>
      </trkpt>
      <trkpt lat="47.57858" lon="-2.21324">
        <ele>55.1</ele>
        <time>2021-08-14T08:27:16Z</time>
      </trkpt>
      <trkpt lat="47.57858" lon="-2.21328">
        <ele>55.1</ele>
        <time>2021-08-14T08:27:18Z</time>
      </trkpt>
      <trkpt lat="47.57858" lon="-2.2133">
        <ele>55</ele>
        <time>2021-08-14T08:27:19Z</time>
      </trkpt>
      <trkpt lat="47.57859" lon="-2.21331">
        <ele>55</ele>
        <time>2021-08-14T08:27:20Z</time>
      </trkpt>
      <trkpt lat="47.5786" lon="-2.21333">
        <ele>54.9</ele>
        <time>2021-08-14T08:27:22Z</time>
      </trkpt>
      <trkpt lat="47.57861" lon="-2.21334">
        <ele>54.9</ele>
        <time>2021-08-14T08:27:23Z</time>
      </trkpt>
      <trkpt lat="47.57861" lon="-2.21335">
        <ele>54.8</ele>
        <time>2021-08-14T08:27:24Z</time>
      </trkpt>
      <trkpt lat="47.57865" lon="-2.21339">
        <ele>54.6</ele>
        <time>2021-08-14T08:27:26Z</time>
      </trkpt>
      <trkpt lat="47.57866" lon="-2.21341">
        <ele>54.5</ele>
        <time>2021-08-14T08:27:27Z</time>
      </trkpt>
      <trkpt lat="47.57866" lon="-2.21343">
        <ele>54.4</ele>
        <time>2021-08-14T08:27:28Z</time>
      </trkpt>
      <trkpt lat="47.57868" lon="-2.21346">
        <ele>54.2</ele>
        <time>2021-08-14T08:27:29Z</time>
      </trkpt>
      <trkpt lat="47.5787" lon="-2.2135">
        <ele>54</ele>
        <time>2021-08-14T08:27:31Z</time>
      </trkpt>
      <trkpt lat="47.57871" lon="-2.21352">
        <ele>53.9</ele>
        <time>2021-08-14T08:27:32Z</time>
      </trkpt>
      <trkpt lat="47.57872" lon="-2.21355">
        <ele>53.7</ele>
        <time>2021-08-14T08:27:34Z</time>
      </trkpt>
      <trkpt lat="47.57873" lon="-2.21358">
        <ele>53.5</ele>
        <time>2021-08-14T08:27:36Z</time>
      </trkpt>
      <trkpt lat="47.57873" lon="-2.2136">
        <ele>53.4</ele>
        <time>2021-08-14T08:27:37Z</time>
      </trkpt>
      <trkpt lat="47.57873" lon="-2.21361">
        <ele>53.4</ele>
        <time>2021-08-14T08:27:38Z</time>
      </trkpt>
      <trkpt lat="47.57874" lon="-2.21364">
        <ele>53.2</ele>
        <time>2021-08-14T08:27:39Z</time>
      </trkpt>
      <trkpt lat="47.57874" lon="-2.21365">
        <ele>53.1</ele>
        <time>2021-08-14T08:27:40Z</time>
      </trkpt>
      <trkpt lat="47.57874" lon="-2.21367">
        <ele>53</ele>
        <time>2021-08-14T08:27:41Z</time>
      </trkpt>
      <trkpt lat="47.57875" lon="-2.2137">
        <ele>52.9</ele>
        <time>2021-08-14T08:27:43Z</time>
      </trkpt>
      <trkpt lat="47.57875" lon="-2.21368">
        <ele>52.8</ele>
        <time>2021-08-14T08:27:45Z</time>
      </trkpt>
      <trkpt lat="47.57875" lon="-2.21367">
        <ele>52.8</ele>
        <time>2021-08-14T08:27:46Z</time>
      </trkpt>
      <trkpt lat="47.57875" lon="-2.21367">
        <ele>52.8</ele>
        <time>2021-08-14T08:27:48Z</time>
      </trkpt>
      <trkpt lat="47.57875" lon="-2.21367">
        <ele>52.7</ele>
        <time>2021-08-14T08:27:50Z</time>
      </trkpt>
      <trkpt lat="47.57877" lon="-2.21371">
        <ele>52.5</ele>
        <time>2021-08-14T08:27:51Z</time>
      </trkpt>
      <trkpt lat="47.57879" lon="-2.21376">
        <ele>52.2</ele>
        <time>2021-08-14T08:27:53Z</time>
      </trkpt>
      <trkpt lat="47.5788" lon="-2.21382">
        <ele>51.9</ele>
        <time>2021-08-14T08:27:54Z</time>
      </trkpt>
      <trkpt lat="47.57881" lon="-2.21389">
        <ele>51.6</ele>
        <time>2021-08-14T08:27:55Z</time>
      </trkpt>
      <trkpt lat="47.57882" lon="-2.21396">
        <ele>51.3</ele>
        <time>2021-08-14T08:27:56Z</time>
      </trkpt>
      <trkpt lat="47.57882" lon="-2.21407">
        <ele>50.7</ele>
        <time>2021-08-14T08:27:58Z</time>
      </trkpt>
      <trkpt lat="47.57879" lon="-2.21413">
        <ele>50.4</ele>
        <time>2021-08-14T08:27:59Z</time>
      </trkpt>
      <trkpt lat="47.57874" lon="-2.21417">
        <ele>49.9</ele>
        <time>2021-08-14T08:28:01Z</time>
      </trkpt>
      <trkpt lat="47.57869" lon="-2.2142">
        <ele>49.5</ele>
        <time>2021-08-14T08:28:02Z</time>
      </trkpt>
      <trkpt lat="47.57865" lon="-2.21423">
        <ele>49</ele>
        <time>2021-08-14T08:28:04Z</time>
      </trkpt>
      <trkpt lat="47.57862" lon="-2.21428">
        <ele>48.6</ele>
        <time>2021-08-14T08:28:05Z</time>
      </trkpt>
      <trkpt lat="47.57861" lon="-2.21432">
        <ele>48.2</ele>
        <time>2021-08-14T08:28:06Z</time>
      </trkpt>
      <trkpt lat="47.57859" lon="-2.21437">
        <ele>47.6</ele>
        <time>2021-08-14T08:28:07Z</time>
      </trkpt>
      <trkpt lat="47.57859" lon="-2.21442">
        <ele>47.2</ele>
        <time>2021-08-14T08:28:08Z</time>
      </trkpt>
      <trkpt lat="47.5786" lon="-2.21446">
        <ele>46.7</ele>
        <time>2021-08-14T08:28:09Z</time>
      </trkpt>
      <trkpt lat="47.57861" lon="-2.2145">
        <ele>46.1</ele>
        <time>2021-08-14T08:28:10Z</time>
      </trkpt>
      <trkpt lat="47.57865" lon="-2.21455">
        <ele>45.1</ele>
        <time>2021-08-14T08:28:12Z</time>
      </trkpt>
      <trkpt lat="47.57868" lon="-2.21458">
        <ele>44.3</ele>
        <time>2021-08-14T08:28:13Z</time>
      </trkpt>
      <trkpt lat="47.57871" lon="-2.21459">
        <ele>43.5</ele>
        <time>2021-08-14T08:28:14Z</time>
      </trkpt>
      <trkpt lat="47.57877" lon="-2.21462">
        <ele>42.1</ele>
        <time>2021-08-14T08:28:16Z</time>
      </trkpt>
      <trkpt lat="47.57881" lon="-2.21464">
        <ele>41.3</ele>
        <time>2021-08-14T08:28:18Z</time>
      </trkpt>
      <trkpt lat="47.57884" lon="-2.21465">
        <ele>40.7</ele>
        <time>2021-08-14T08:28:19Z</time>
      </trkpt>
      <trkpt lat="47.57889" lon="-2.21466">
        <ele>39.7</ele>
        <time>2021-08-14T08:28:21Z</time>
      </trkpt>
      <trkpt lat="47.5789" lon="-2.21467">
        <ele>39.4</ele>
        <time>2021-08-14T08:28:22Z</time>
      </trkpt>
      <trkpt lat="47.57892" lon="-2.21467">
        <ele>39</ele>
        <time>2021-08-14T08:28:23Z</time>
      </trkpt>
      <trkpt lat="47.57895" lon="-2.21468">
        <ele>38.4</ele>
        <time>2021-08-14T08:28:25Z</time>
      </trkpt>
      <trkpt lat="47.57899" lon="-2.21469">
        <ele>37.7</ele>
        <time>2021-08-14T08:28:26Z</time>
      </trkpt>
      <trkpt lat="47.57902" lon="-2.21471">
        <ele>36.9</ele>
        <time>2021-08-14T08:28:28Z</time>
      </trkpt>
      <trkpt lat="47.57905" lon="-2.21473">
        <ele>36.3</ele>
        <time>2021-08-14T08:28:29Z</time>
      </trkpt>
      <trkpt lat="47.57907" lon="-2.21474">
        <ele>36</ele>
        <time>2021-08-14T08:28:30Z</time>
      </trkpt>
      <trkpt lat="47.57908" lon="-2.21474">
        <ele>35.7</ele>
        <time>2021-08-14T08:28:32Z</time>
      </trkpt>
      <trkpt lat="47.57911" lon="-2.21474">
        <ele>35.2</ele>
        <time>2021-08-14T08:28:33Z</time>
      </trkpt>
      <trkpt lat="47.57912" lon="-2.21472">
        <ele>34.9</ele>
        <time>2021-08-14T08:28:34Z</time>
      </trkpt>
      <trkpt lat="47.57913" lon="-2.2147">
        <ele>34.6</ele>
        <time>2021-08-14T08:28:35Z</time>
      </trkpt>
      <trkpt lat="47.57916" lon="-2.21468">
        <ele>33.9</ele>
        <time>2021-08-14T08:28:37Z</time>
      </trkpt>
      <trkpt lat="47.57919" lon="-2.21467">
        <ele>33.3</ele>
        <time>2021-08-14T08:28:38Z</time>
      </trkpt>
      <trkpt lat="47.57924" lon="-2.21464">
        <ele>32.4</ele>
        <time>2021-08-14T08:28:40Z</time>
      </trkpt>
      <trkpt lat="47.57925" lon="-2.21463">
        <ele>32.1</ele>
        <time>2021-08-14T08:28:41Z</time>
      </trkpt>
      <trkpt lat="47.57926" lon="-2.21462">
        <ele>31.8</ele>
        <time>2021-08-14T08:28:42Z</time>
      </trkpt>
      <trkpt lat="47.5793" lon="-2.2146">
        <ele>31.1</ele>
        <time>2021-08-14T08:28:44Z</time>
      </trkpt>
      <trkpt lat="47.57934" lon="-2.21459">
        <ele>30.2</ele>
        <time>2021-08-14T08:28:45Z</time>
      </trkpt>
      <trkpt lat="47.57938" lon="-2.21459">
        <ele>29.3</ele>
        <time>2021-08-14T08:28:47Z</time>
      </trkpt>
      <trkpt lat="47.57942" lon="-2.21458">
        <ele>28.4</ele>
        <time>2021-08-14T08:28:48Z</time>
      </trkpt>
      <trkpt lat="47.57945" lon="-2.21457">
        <ele>27.7</ele>
        <time>2021-08-14T08:28:49Z</time>
      </trkpt>
      <trkpt lat="47.57948" lon="-2.21457">
        <ele>27</ele>
        <time>2021-08-14T08:28:50Z</time>
      </trkpt>
      <trkpt lat="47.57949" lon="-2.21457">
        <ele>26.9</ele>
        <time>2021-08-14T08:28:51Z</time>
      </trkpt>
      <trkpt lat="47.57952" lon="-2.21456">
        <ele>26.2</ele>
        <time>2021-08-14T08:28:53Z</time>
      </trkpt>
      <trkpt lat="47.57952" lon="-2.21456">
        <ele>26</ele>
        <time>2021-08-14T08:28:54Z</time>
      </trkpt>
      <trkpt lat="47.57954" lon="-2.21455">
        <ele>25.7</ele>
        <time>2021-08-14T08:28:55Z</time>
      </trkpt>
      <trkpt lat="47.57956" lon="-2.21454">
        <ele>25.2</ele>
        <time>2021-08-14T08:28:57Z</time>
      </trkpt>
      <trkpt lat="47.57955" lon="-2.21452">
        <ele>25</ele>
        <time>2021-08-14T08:28:59Z</time>
      </trkpt>
      <trkpt lat="47.57955" lon="-2.21452">
        <ele>25</ele>
        <time>2021-08-14T08:29:01Z</time>
      </trkpt>
      <trkpt lat="47.57956" lon="-2.21452">
        <ele>24.9</ele>
        <time>2021-08-14T08:29:02Z</time>
      </trkpt>
      <trkpt lat="47.57957" lon="-2.21451">
        <ele>24.6</ele>
        <time>2021-08-14T08:29:04Z</time>
      </trkpt>
      <trkpt lat="47.57958" lon="-2.21452">
        <ele>24.5</ele>
        <time>2021-08-14T08:29:06Z</time>
      </trkpt>
      <trkpt lat="47.57958" lon="-2.21452">
        <ele>24.4</ele>
        <time>2021-08-14T08:29:07Z</time>
      </trkpt>
      <trkpt lat="47.57959" lon="-2.21452">
        <ele>24.3</ele>
        <time>2021-08-14T08:29:08Z</time>
      </trkpt>
      <trkpt lat="47.5796" lon="-2.21453">
        <ele>24.1</ele>
        <time>2021-08-14T08:29:09Z</time>
      </trkpt>
      <trkpt lat="47.57962" lon="-2.21455">
        <ele>23.6</ele>
        <time>2021-08-14T08:29:11Z</time>
      </trkpt>
      <trkpt lat="47.57962" lon="-2.21457">
        <ele>23.4</ele>
        <time>2021-08-14T08:29:13Z</time>
      </trkpt>
      <trkpt lat="47.57962" lon="-2.21456">
        <ele>23.2</ele>
        <time>2021-08-14T08:29:15Z</time>
      </trkpt>
      <trkpt lat="47.57962" lon="-2.21455">
        <ele>23.1</ele>
        <time>2021-08-14T08:29:17Z</time>
      </trkpt>
      <trkpt lat="47.57962" lon="-2.21454">
        <ele>23</ele>
        <time>2021-08-14T08:29:19Z</time>
      </trkpt>
      <trkpt lat="47.57962" lon="-2.21454">
        <ele>22.9</ele>
        <time>2021-08-14T08:29:20Z</time>
      </trkpt>
      <trkpt lat="47.57963" lon="-2.21453">
        <ele>22.9</ele>
        <time>2021-08-14T08:29:22Z</time>
      </trkpt>
      <trkpt lat="47.57963" lon="-2.21453">
        <ele>22.8</ele>
        <time>2021-08-14T08:29:23Z</time>
      </trkpt>
      <trkpt lat="47.57964" lon="-2.21453">
        <ele>22.7</ele>
        <time>2021-08-14T08:29:25Z</time>
      </trkpt>
      <trkpt lat="47.57964" lon="-2.21453">
        <ele>22.6</ele>
        <time>2021-08-14T08:29:26Z</time>
      </trkpt>
      <trkpt lat="47.57966" lon="-2.21453">
        <ele>22.3</ele>
        <time>2021-08-14T08:29:28Z</time>
      </trkpt>
      <trkpt lat="47.57966" lon="-2.21453">
        <ele>22.3</ele>
        <time>2021-08-14T08:29:30Z</time>
      </trkpt>
      <trkpt lat="47.57966" lon="-2.21453">
        <ele>22.3</ele>
        <time>2021-08-14T08:29:31Z</time>
      </trkpt>
      <trkpt lat="47.57967" lon="-2.21454">
        <ele>22.2</ele>
        <time>2021-08-14T08:29:32Z</time>
      </trkpt>
      <trkpt lat="47.57969" lon="-2.21458">
        <ele>21.7</ele>
        <time>2021-08-14T08:29:34Z</time>
      </trkpt>
      <trkpt lat="47.5797" lon="-2.21459">
        <ele>21.7</ele>
        <time>2021-08-14T08:29:35Z</time>
      </trkpt>
      <trkpt lat="47.57972" lon="-2.21461">
        <ele>21.6</ele>
        <time>2021-08-14T08:29:36Z</time>
      </trkpt>
      <trkpt lat="47.57977" lon="-2.21468">
        <ele>21.5</ele>
        <time>2021-08-14T08:29:38Z</time>
      </trkpt>
      <trkpt lat="47.57978" lon="-2.21474">
        <ele>21.6</ele>
        <time>2021-08-14T08:29:40Z</time>
      </trkpt>
      <trkpt lat="47.57977" lon="-2.21479">
        <ele>21.6</ele>
        <time>2021-08-14T08:29:41Z</time>
      </trkpt>
      <trkpt lat="47.57977" lon="-2.2148">
        <ele>21.6</ele>
        <time>2021-08-14T08:29:42Z</time>
      </trkpt>
      <trkpt lat="47.57979" lon="-2.21484">
        <ele>21.7</ele>
        <time>2021-08-14T08:29:44Z</time>
      </trkpt>
      <trkpt lat="47.5798" lon="-2.21486">
        <ele>21.8</ele>
        <time>2021-08-14T08:29:45Z</time>
      </trkpt>
      <trkpt lat="47.57981" lon="-2.21488">
        <ele>21.9</ele>
        <time>2021-08-14T08:29:46Z</time>
      </trkpt>
      <trkpt lat="47.57981" lon="-2.21491">
        <ele>21.9</ele>
        <time>2021-08-14T08:29:47Z</time>
      </trkpt>
      <trkpt lat="47.57981" lon="-2.21493">
        <ele>22</ele>
        <time>2021-08-14T08:29:49Z</time>
      </trkpt>
      <trkpt lat="47.57981" lon="-2.21496">
        <ele>22.1</ele>
        <time>2021-08-14T08:29:50Z</time>
      </trkpt>
      <trkpt lat="47.57981" lon="-2.21498">
        <ele>22.2</ele>
        <time>2021-08-14T08:29:51Z</time>
      </trkpt>
      <trkpt lat="47.57981" lon="-2.215">
        <ele>22.3</ele>
        <time>2021-08-14T08:29:52Z</time>
      </trkpt>
      <trkpt lat="47.57982" lon="-2.21502">
        <ele>22.4</ele>
        <time>2021-08-14T08:29:53Z</time>
      </trkpt>
      <trkpt lat="47.57983" lon="-2.21504">
        <ele>22.4</ele>
        <time>2021-08-14T08:29:54Z</time>
      </trkpt>
      <trkpt lat="47.57984" lon="-2.21507">
        <ele>22.6</ele>
        <time>2021-08-14T08:29:56Z</time>
      </trkpt>
      <trkpt lat="47.57985" lon="-2.21511">
        <ele>22.7</ele>
        <time>2021-08-14T08:29:57Z</time>
      </trkpt>
      <trkpt lat="47.57985" lon="-2.21516">
        <ele>22.9</ele>
        <time>2021-08-14T08:29:59Z</time>
      </trkpt>
      <trkpt lat="47.57985" lon="-2.21518">
        <ele>23</ele>
        <time>2021-08-14T08:30:00Z</time>
      </trkpt>
      <trkpt lat="47.57985" lon="-2.21522">
        <ele>23.2</ele>
        <time>2021-08-14T08:30:01Z</time>
      </trkpt>
      <trkpt lat="47.57985" lon="-2.21524">
        <ele>23.3</ele>
        <time>2021-08-14T08:30:02Z</time>
      </trkpt>
      <trkpt lat="47.57985" lon="-2.21526">
        <ele>23.4</ele>
        <time>2021-08-14T08:30:04Z</time>
      </trkpt>
      <trkpt lat="47.57985" lon="-2.21529">
        <ele>23.5</ele>
        <time>2021-08-14T08:30:05Z</time>
      </trkpt>
      <trkpt lat="47.57984" lon="-2.21533">
        <ele>23.7</ele>
        <time>2021-08-14T08:30:06Z</time>
      </trkpt>
      <trkpt lat="47.57984" lon="-2.21535">
        <ele>23.8</ele>
        <time>2021-08-14T08:30:07Z</time>
      </trkpt>
      <trkpt lat="47.57984" lon="-2.21541">
        <ele>24.1</ele>
        <time>2021-08-14T08:30:09Z</time>
      </trkpt>
      <trkpt lat="47.57984" lon="-2.21545">
        <ele>24.3</ele>
        <time>2021-08-14T08:30:11Z</time>
      </trkpt>
      <trkpt lat="47.57984" lon="-2.21546">
        <ele>24.4</ele>
        <time>2021-08-14T08:30:12Z</time>
      </trkpt>
      <trkpt lat="47.57983" lon="-2.2155">
        <ele>24.6</ele>
        <time>2021-08-14T08:30:13Z</time>
      </trkpt>
      <trkpt lat="47.57983" lon="-2.21552">
        <ele>24.7</ele>
        <time>2021-08-14T08:30:14Z</time>
      </trkpt>
      <trkpt lat="47.57982" lon="-2.21557">
        <ele>25</ele>
        <time>2021-08-14T08:30:16Z</time>
      </trkpt>
      <trkpt lat="47.57982" lon="-2.21559">
        <ele>25</ele>
        <time>2021-08-14T08:30:17Z</time>
      </trkpt>
      <trkpt lat="47.57982" lon="-2.2156">
        <ele>25.1</ele>
        <time>2021-08-14T08:30:18Z</time>
      </trkpt>
      <trkpt lat="47.57982" lon="-2.21561">
        <ele>25.1</ele>
        <time>2021-08-14T08:30:19Z</time>
      </trkpt>
      <trkpt lat="47.57983" lon="-2.21564">
        <ele>25.2</ele>
        <time>2021-08-14T08:30:21Z</time>
      </trkpt>
      <trkpt lat="47.57983" lon="-2.21566">
        <ele>25.3</ele>
        <time>2021-08-14T08:30:22Z</time>
      </trkpt>
      <trkpt lat="47.57983" lon="-2.2157">
        <ele>25.4</ele>
        <time>2021-08-14T08:30:23Z</time>
      </trkpt>
      <trkpt lat="47.57983" lon="-2.21571">
        <ele>25.5</ele>
        <time>2021-08-14T08:30:24Z</time>
      </trkpt>
      <trkpt lat="47.57984" lon="-2.21572">
        <ele>25.5</ele>
        <time>2021-08-14T08:30:25Z</time>
      </trkpt>
      <trkpt lat="47.57984" lon="-2.21574">
        <ele>25.6</ele>
        <time>2021-08-14T08:30:26Z</time>
      </trkpt>
      <trkpt lat="47.57984" lon="-2.21577">
        <ele>25.7</ele>
        <time>2021-08-14T08:30:28Z</time>
      </trkpt>
      <trkpt lat="47.57985" lon="-2.21579">
        <ele>25.7</ele>
        <time>2021-08-14T08:30:29Z</time>
      </trkpt>
      <trkpt lat="47.57985" lon="-2.21582">
        <ele>25.8</ele>
        <time>2021-08-14T08:30:30Z</time>
      </trkpt>
      <trkpt lat="47.57986" lon="-2.21588">
        <ele>26</ele>
        <time>2021-08-14T08:30:32Z</time>
      </trkpt>
      <trkpt lat="47.57987" lon="-2.21591">
        <ele>26.1</ele>
        <time>2021-08-14T08:30:33Z</time>
      </trkpt>
      <trkpt lat="47.57987" lon="-2.21593">
        <ele>26.2</ele>
        <time>2021-08-14T08:30:34Z</time>
      </trkpt>
      <trkpt lat="47.57988" lon="-2.21597">
        <ele>26.3</ele>
        <time>2021-08-14T08:30:36Z</time>
      </trkpt>
      <trkpt lat="47.57988" lon="-2.21598">
        <ele>26.3</ele>
        <time>2021-08-14T08:30:37Z</time>
      </trkpt>
      <trkpt lat="47.57989" lon="-2.21603">
        <ele>26.5</ele>
        <time>2021-08-14T08:30:38Z</time>
      </trkpt>
      <trkpt lat="47.5799" lon="-2.2161">
        <ele>26.7</ele>
        <time>2021-08-14T08:30:41Z</time>
      </trkpt>
      <trkpt lat="47.57991" lon="-2.21615">
        <ele>26.8</ele>
        <time>2021-08-14T08:30:43Z</time>
      </trkpt>
      <trkpt lat="47.57992" lon="-2.2162">
        <ele>26.9</ele>
        <time>2021-08-14T08:30:44Z</time>
      </trkpt>
      <trkpt lat="47.57993" lon="-2.2162">
        <ele>27</ele>
        <time>2021-08-14T08:30:45Z</time>
      </trkpt>
      <trkpt lat="47.57993" lon="-2.21623">
        <ele>27</ele>
        <time>2021-08-14T08:30:46Z</time>
      </trkpt>
      <trkpt lat="47.57994" lon="-2.21627">
        <ele>27.1</ele>
        <time>2021-08-14T08:30:48Z</time>
      </trkpt>
      <trkpt lat="47.57996" lon="-2.21631">
        <ele>27.2</ele>
        <time>2021-08-14T08:30:49Z</time>
      </trkpt>
      <trkpt lat="47.57996" lon="-2.21633">
        <ele>27.3</ele>
        <time>2021-08-14T08:30:50Z</time>
      </trkpt>
      <trkpt lat="47.57997" lon="-2.21639">
        <ele>27.4</ele>
        <time>2021-08-14T08:30:52Z</time>
      </trkpt>
      <trkpt lat="47.57999" lon="-2.21643">
        <ele>27.5</ele>
        <time>2021-08-14T08:30:54Z</time>
      </trkpt>
      <trkpt lat="47.57999" lon="-2.21644">
        <ele>27.6</ele>
        <time>2021-08-14T08:30:55Z</time>
      </trkpt>
      <trkpt lat="47.58" lon="-2.21649">
        <ele>27.6</ele>
        <time>2021-08-14T08:30:57Z</time>
      </trkpt>
      <trkpt lat="47.58001" lon="-2.21655">
        <ele>27.7</ele>
        <time>2021-08-14T08:30:59Z</time>
      </trkpt>
      <trkpt lat="47.58002" lon="-2.21657">
        <ele>27.8</ele>
        <time>2021-08-14T08:31:00Z</time>
      </trkpt>
      <trkpt lat="47.58004" lon="-2.2166">
        <ele>27.8</ele>
        <time>2021-08-14T08:31:02Z</time>
      </trkpt>
      <trkpt lat="47.58004" lon="-2.21662">
        <ele>27.8</ele>
        <time>2021-08-14T08:31:03Z</time>
      </trkpt>
      <trkpt lat="47.58005" lon="-2.21665">
        <ele>27.8</ele>
        <time>2021-08-14T08:31:04Z</time>
      </trkpt>
      <trkpt lat="47.58006" lon="-2.21668">
        <ele>27.9</ele>
        <time>2021-08-14T08:31:05Z</time>
      </trkpt>
      <trkpt lat="47.58007" lon="-2.21671">
        <ele>27.9</ele>
        <time>2021-08-14T08:31:07Z</time>
      </trkpt>
      <trkpt lat="47.58008" lon="-2.21674">
        <ele>27.9</ele>
        <time>2021-08-14T08:31:08Z</time>
      </trkpt>
      <trkpt lat="47.5801" lon="-2.21678">
        <ele>28</ele>
        <time>2021-08-14T08:31:10Z</time>
      </trkpt>
      <trkpt lat="47.5801" lon="-2.21681">
        <ele>28.1</ele>
        <time>2021-08-14T08:31:11Z</time>
      </trkpt>
      <trkpt lat="47.5801" lon="-2.21685">
        <ele>28.2</ele>
        <time>2021-08-14T08:31:13Z</time>
      </trkpt>
      <trkpt lat="47.5801" lon="-2.21691">
        <ele>28.4</ele>
        <time>2021-08-14T08:31:14Z</time>
      </trkpt>
      <trkpt lat="47.5801" lon="-2.21692">
        <ele>28.4</ele>
        <time>2021-08-14T08:31:15Z</time>
      </trkpt>
      <trkpt lat="47.58009" lon="-2.21695">
        <ele>28.6</ele>
        <time>2021-08-14T08:31:17Z</time>
      </trkpt>
      <trkpt lat="47.58009" lon="-2.21697">
        <ele>28.6</ele>
        <time>2021-08-14T08:31:18Z</time>
      </trkpt>
      <trkpt lat="47.58009" lon="-2.21698">
        <ele>28.7</ele>
        <time>2021-08-14T08:31:19Z</time>
      </trkpt>
      <trkpt lat="47.58009" lon="-2.21699">
        <ele>28.7</ele>
        <time>2021-08-14T08:31:20Z</time>
      </trkpt>
      <trkpt lat="47.58009" lon="-2.217">
        <ele>28.7</ele>
        <time>2021-08-14T08:31:21Z</time>
      </trkpt>
      <trkpt lat="47.58009" lon="-2.21701">
        <ele>28.8</ele>
        <time>2021-08-14T08:31:23Z</time>
      </trkpt>
      <trkpt lat="47.58008" lon="-2.21702">
        <ele>28.8</ele>
        <time>2021-08-14T08:31:24Z</time>
      </trkpt>
      <trkpt lat="47.58008" lon="-2.21704">
        <ele>28.9</ele>
        <time>2021-08-14T08:31:26Z</time>
      </trkpt>
      <trkpt lat="47.58008" lon="-2.21704">
        <ele>29</ele>
        <time>2021-08-14T08:31:28Z</time>
      </trkpt>
      <trkpt lat="47.58008" lon="-2.21705">
        <ele>29</ele>
        <time>2021-08-14T08:31:29Z</time>
      </trkpt>
      <trkpt lat="47.58007" lon="-2.21706">
        <ele>29</ele>
        <time>2021-08-14T08:31:31Z</time>
      </trkpt>
      <trkpt lat="47.58007" lon="-2.21707">
        <ele>29.1</ele>
        <time>2021-08-14T08:31:33Z</time>
      </trkpt>
      <trkpt lat="47.58008" lon="-2.21709">
        <ele>29.1</ele>
        <time>2021-08-14T08:31:34Z</time>
      </trkpt>
      <trkpt lat="47.58008" lon="-2.2171">
        <ele>29.2</ele>
        <time>2021-08-14T08:31:35Z</time>
      </trkpt>
      <trkpt lat="47.5801" lon="-2.21714">
        <ele>29.3</ele>
        <time>2021-08-14T08:31:37Z</time>
      </trkpt>
      <trkpt lat="47.58011" lon="-2.21716">
        <ele>29.3</ele>
        <time>2021-08-14T08:31:38Z</time>
      </trkpt>
      <trkpt lat="47.58011" lon="-2.21718">
        <ele>29.3</ele>
        <time>2021-08-14T08:31:39Z</time>
      </trkpt>
      <trkpt lat="47.58012" lon="-2.21721">
        <ele>29.4</ele>
        <time>2021-08-14T08:31:41Z</time>
      </trkpt>
      <trkpt lat="47.58013" lon="-2.21725">
        <ele>29.3</ele>
        <time>2021-08-14T08:31:42Z</time>
      </trkpt>
      <trkpt lat="47.58013" lon="-2.21727">
        <ele>29.3</ele>
        <time>2021-08-14T08:31:43Z</time>
      </trkpt>
      <trkpt lat="47.58015" lon="-2.21732">
        <ele>29.2</ele>
        <time>2021-08-14T08:31:45Z</time>
      </trkpt>
      <trkpt lat="47.58015" lon="-2.21734">
        <ele>29.2</ele>
        <time>2021-08-14T08:31:46Z</time>
      </trkpt>
      <trkpt lat="47.58015" lon="-2.21739">
        <ele>29.1</ele>
        <time>2021-08-14T08:31:48Z</time>
      </trkpt>
      <trkpt lat="47.58016" lon="-2.21743">
        <ele>28.9</ele>
        <time>2021-08-14T08:31:49Z</time>
      </trkpt>
      <trkpt lat="47.58019" lon="-2.21752">
        <ele>28.5</ele>
        <time>2021-08-14T08:31:51Z</time>
      </trkpt>
      <trkpt lat="47.5802" lon="-2.21758">
        <ele>28.2</ele>
        <time>2021-08-14T08:31:53Z</time>
      </trkpt>
      <trkpt lat="47.5802" lon="-2.21761">
        <ele>28.1</ele>
        <time>2021-08-14T08:31:55Z</time>
      </trkpt>
      <trkpt lat="47.58021" lon="-2.21762">
        <ele>28</ele>
        <time>2021-08-14T08:31:56Z</time>
      </trkpt>
      <trkpt lat="47.58021" lon="-2.21764">
        <ele>27.9</ele>
        <time>2021-08-14T08:31:57Z</time>
      </trkpt>
      <trkpt lat="47.58023" lon="-2.2177">
        <ele>27.6</ele>
        <time>2021-08-14T08:31:59Z</time>
      </trkpt>
      <trkpt lat="47.58024" lon="-2.21777">
        <ele>27.3</ele>
        <time>2021-08-14T08:32:00Z</time>
      </trkpt>
      <trkpt lat="47.58025" lon="-2.21783">
        <ele>27.1</ele>
        <time>2021-08-14T08:32:02Z</time>
      </trkpt>
      <trkpt lat="47.58026" lon="-2.21787">
        <ele>26.9</ele>
        <time>2021-08-14T08:32:03Z</time>
      </trkpt>
      <trkpt lat="47.58027" lon="-2.21791">
        <ele>26.8</ele>
        <time>2021-08-14T08:32:04Z</time>
      </trkpt>
      <trkpt lat="47.58028" lon="-2.21795">
        <ele>26.7</ele>
        <time>2021-08-14T08:32:06Z</time>
      </trkpt>
      <trkpt lat="47.58028" lon="-2.21797">
        <ele>26.7</ele>
        <time>2021-08-14T08:32:07Z</time>
      </trkpt>
      <trkpt lat="47.58028" lon="-2.21802">
        <ele>26.6</ele>
        <time>2021-08-14T08:32:09Z</time>
      </trkpt>
      <trkpt lat="47.58029" lon="-2.21806">
        <ele>26.5</ele>
        <time>2021-08-14T08:32:11Z</time>
      </trkpt>
      <trkpt lat="47.58029" lon="-2.21807">
        <ele>26.5</ele>
        <time>2021-08-14T08:32:12Z</time>
      </trkpt>
      <trkpt lat="47.58029" lon="-2.2181">
        <ele>26.5</ele>
        <time>2021-08-14T08:32:13Z</time>
      </trkpt>
      <trkpt lat="47.58029" lon="-2.21811">
        <ele>26.4</ele>
        <time>2021-08-14T08:32:15Z</time>
      </trkpt>
      <trkpt lat="47.58029" lon="-2.21812">
        <ele>26.4</ele>
        <time>2021-08-14T08:32:16Z</time>
      </trkpt>
      <trkpt lat="47.58029" lon="-2.21813">
        <ele>26.4</ele>
        <time>2021-08-14T08:32:18Z</time>
      </trkpt>
      <trkpt lat="47.58029" lon="-2.21814">
        <ele>26.4</ele>
        <time>2021-08-14T08:32:20Z</time>
      </trkpt>
      <trkpt lat="47.58029" lon="-2.21816">
        <ele>26.4</ele>
        <time>2021-08-14T08:32:22Z</time>
      </trkpt>
      <trkpt lat="47.58029" lon="-2.21817">
        <ele>26.4</ele>
        <time>2021-08-14T08:32:33Z</time>
      </trkpt>
      <trkpt lat="47.58029" lon="-2.21818">
        <ele>26.4</ele>
        <time>2021-08-14T08:32:34Z</time>
      </trkpt>
      <trkpt lat="47.58029" lon="-2.21819">
        <ele>26.4</ele>
        <time>2021-08-14T08:32:35Z</time>
      </trkpt>
      <trkpt lat="47.58031" lon="-2.21826">
        <ele>26.4</ele>
        <time>2021-08-14T08:32:37Z</time>
      </trkpt>
      <trkpt lat="47.58031" lon="-2.21828">
        <ele>26.4</ele>
        <time>2021-08-14T08:32:38Z</time>
      </trkpt>
      <trkpt lat="47.58032" lon="-2.2183">
        <ele>26.5</ele>
        <time>2021-08-14T08:32:39Z</time>
      </trkpt>
      <trkpt lat="47.58033" lon="-2.21835">
        <ele>26.5</ele>
        <time>2021-08-14T08:32:40Z</time>
      </trkpt>
      <trkpt lat="47.58033" lon="-2.21839">
        <ele>26.6</ele>
        <time>2021-08-14T08:32:42Z</time>
      </trkpt>
      <trkpt lat="47.58034" lon="-2.21842">
        <ele>26.7</ele>
        <time>2021-08-14T08:32:43Z</time>
      </trkpt>
      <trkpt lat="47.58035" lon="-2.21846">
        <ele>26.8</ele>
        <time>2021-08-14T08:32:45Z</time>
      </trkpt>
      <trkpt lat="47.58035" lon="-2.21849">
        <ele>26.9</ele>
        <time>2021-08-14T08:32:47Z</time>
      </trkpt>
      <trkpt lat="47.58035" lon="-2.21851">
        <ele>27</ele>
        <time>2021-08-14T08:32:49Z</time>
      </trkpt>
      <trkpt lat="47.58035" lon="-2.21852">
        <ele>27.1</ele>
        <time>2021-08-14T08:32:50Z</time>
      </trkpt>
      <trkpt lat="47.58035" lon="-2.21855">
        <ele>27.2</ele>
        <time>2021-08-14T08:32:51Z</time>
      </trkpt>
      <trkpt lat="47.58034" lon="-2.2186">
        <ele>27.4</ele>
        <time>2021-08-14T08:32:53Z</time>
      </trkpt>
      <trkpt lat="47.58035" lon="-2.21863">
        <ele>27.5</ele>
        <time>2021-08-14T08:32:54Z</time>
      </trkpt>
      <trkpt lat="47.58035" lon="-2.21866">
        <ele>27.6</ele>
        <time>2021-08-14T08:32:56Z</time>
      </trkpt>
      <trkpt lat="47.58035" lon="-2.2187">
        <ele>27.8</ele>
        <time>2021-08-14T08:32:57Z</time>
      </trkpt>
      <trkpt lat="47.58036" lon="-2.21876">
        <ele>28</ele>
        <time>2021-08-14T08:32:59Z</time>
      </trkpt>
      <trkpt lat="47.58037" lon="-2.21879">
        <ele>28.1</ele>
        <time>2021-08-14T08:33:01Z</time>
      </trkpt>
      <trkpt lat="47.58037" lon="-2.21881">
        <ele>28.2</ele>
        <time>2021-08-14T08:33:02Z</time>
      </trkpt>
      <trkpt lat="47.58037" lon="-2.21887">
        <ele>28.3</ele>
        <time>2021-08-14T08:33:04Z</time>
      </trkpt>
      <trkpt lat="47.58037" lon="-2.21889">
        <ele>28.4</ele>
        <time>2021-08-14T08:33:05Z</time>
      </trkpt>
      <trkpt lat="47.58037" lon="-2.21891">
        <ele>28.4</ele>
        <time>2021-08-14T08:33:06Z</time>
      </trkpt>
      <trkpt lat="47.58037" lon="-2.21894">
        <ele>28.5</ele>
        <time>2021-08-14T08:33:08Z</time>
      </trkpt>
      <trkpt lat="47.58038" lon="-2.21896">
        <ele>28.5</ele>
        <time>2021-08-14T08:33:09Z</time>
      </trkpt>
      <trkpt lat="47.58039" lon="-2.219">
        <ele>28.6</ele>
        <time>2021-08-14T08:33:11Z</time>
      </trkpt>
      <trkpt lat="47.5804" lon="-2.21904">
        <ele>28.7</ele>
        <time>2021-08-14T08:33:12Z</time>
      </trkpt>
      <trkpt lat="47.58041" lon="-2.21906">
        <ele>28.7</ele>
        <time>2021-08-14T08:33:14Z</time>
      </trkpt>
      <trkpt lat="47.58041" lon="-2.21907">
        <ele>28.7</ele>
        <time>2021-08-14T08:33:15Z</time>
      </trkpt>
      <trkpt lat="47.58042" lon="-2.21909">
        <ele>28.8</ele>
        <time>2021-08-14T08:33:17Z</time>
      </trkpt>
      <trkpt lat="47.58042" lon="-2.21911">
        <ele>28.8</ele>
        <time>2021-08-14T08:33:19Z</time>
      </trkpt>
      <trkpt lat="47.58042" lon="-2.21913">
        <ele>28.8</ele>
        <time>2021-08-14T08:33:20Z</time>
      </trkpt>
      <trkpt lat="47.58043" lon="-2.21915">
        <ele>28.8</ele>
        <time>2021-08-14T08:33:21Z</time>
      </trkpt>
      <trkpt lat="47.58043" lon="-2.21917">
        <ele>28.8</ele>
        <time>2021-08-14T08:33:22Z</time>
      </trkpt>
      <trkpt lat="47.58045" lon="-2.21924">
        <ele>28.7</ele>
        <time>2021-08-14T08:33:25Z</time>
      </trkpt>
      <trkpt lat="47.58047" lon="-2.21928">
        <ele>28.7</ele>
        <time>2021-08-14T08:33:27Z</time>
      </trkpt>
      <trkpt lat="47.58047" lon="-2.21934">
        <ele>28.5</ele>
        <time>2021-08-14T08:33:29Z</time>
      </trkpt>
      <trkpt lat="47.58047" lon="-2.21935">
        <ele>28.5</ele>
        <time>2021-08-14T08:33:30Z</time>
      </trkpt>
      <trkpt lat="47.58048" lon="-2.21938">
        <ele>28.4</ele>
        <time>2021-08-14T08:33:31Z</time>
      </trkpt>
      <trkpt lat="47.58049" lon="-2.21939">
        <ele>28.4</ele>
        <time>2021-08-14T08:33:32Z</time>
      </trkpt>
      <trkpt lat="47.58049" lon="-2.21942">
        <ele>28.3</ele>
        <time>2021-08-14T08:33:33Z</time>
      </trkpt>
      <trkpt lat="47.5805" lon="-2.21945">
        <ele>28.1</ele>
        <time>2021-08-14T08:33:35Z</time>
      </trkpt>
      <trkpt lat="47.58051" lon="-2.21948">
        <ele>28</ele>
        <time>2021-08-14T08:33:36Z</time>
      </trkpt>
      <trkpt lat="47.58052" lon="-2.21952">
        <ele>27.8</ele>
        <time>2021-08-14T08:33:38Z</time>
      </trkpt>
      <trkpt lat="47.58054" lon="-2.21956">
        <ele>27.6</ele>
        <time>2021-08-14T08:33:39Z</time>
      </trkpt>
      <trkpt lat="47.58054" lon="-2.21958">
        <ele>27.5</ele>
        <time>2021-08-14T08:33:40Z</time>
      </trkpt>
      <trkpt lat="47.58055" lon="-2.2196">
        <ele>27.4</ele>
        <time>2021-08-14T08:33:41Z</time>
      </trkpt>
      <trkpt lat="47.58057" lon="-2.21968">
        <ele>27</ele>
        <time>2021-08-14T08:33:44Z</time>
      </trkpt>
      <trkpt lat="47.58058" lon="-2.21974">
        <ele>26.8</ele>
        <time>2021-08-14T08:33:45Z</time>
      </trkpt>
      <trkpt lat="47.58058" lon="-2.21976">
        <ele>26.7</ele>
        <time>2021-08-14T08:33:46Z</time>
      </trkpt>
      <trkpt lat="47.5806" lon="-2.21981">
        <ele>26.4</ele>
        <time>2021-08-14T08:33:47Z</time>
      </trkpt>
      <trkpt lat="47.5806" lon="-2.21982">
        <ele>26.4</ele>
        <time>2021-08-14T08:33:48Z</time>
      </trkpt>
      <trkpt lat="47.58063" lon="-2.21991">
        <ele>26</ele>
        <time>2021-08-14T08:33:50Z</time>
      </trkpt>
      <trkpt lat="47.58064" lon="-2.21997">
        <ele>25.9</ele>
        <time>2021-08-14T08:33:52Z</time>
      </trkpt>
      <trkpt lat="47.58065" lon="-2.22003">
        <ele>25.8</ele>
        <time>2021-08-14T08:33:54Z</time>
      </trkpt>
      <trkpt lat="47.58066" lon="-2.22006">
        <ele>25.8</ele>
        <time>2021-08-14T08:33:55Z</time>
      </trkpt>
      <trkpt lat="47.58068" lon="-2.22013">
        <ele>25.8</ele>
        <time>2021-08-14T08:33:57Z</time>
      </trkpt>
      <trkpt lat="47.58069" lon="-2.22017">
        <ele>25.9</ele>
        <time>2021-08-14T08:33:58Z</time>
      </trkpt>
      <trkpt lat="47.5807" lon="-2.22019">
        <ele>25.9</ele>
        <time>2021-08-14T08:33:59Z</time>
      </trkpt>
      <trkpt lat="47.58071" lon="-2.22021">
        <ele>25.9</ele>
        <time>2021-08-14T08:34:01Z</time>
      </trkpt>
      <trkpt lat="47.58072" lon="-2.22023">
        <ele>26</ele>
        <time>2021-08-14T08:34:02Z</time>
      </trkpt>
      <trkpt lat="47.58072" lon="-2.22028">
        <ele>26.1</ele>
        <time>2021-08-14T08:34:04Z</time>
      </trkpt>
      <trkpt lat="47.58072" lon="-2.22029">
        <ele>26.1</ele>
        <time>2021-08-14T08:34:05Z</time>
      </trkpt>
      <trkpt lat="47.58072" lon="-2.22032">
        <ele>26.2</ele>
        <time>2021-08-14T08:34:07Z</time>
      </trkpt>
      <trkpt lat="47.58072" lon="-2.22034">
        <ele>26.3</ele>
        <time>2021-08-14T08:34:08Z</time>
      </trkpt>
      <trkpt lat="47.58072" lon="-2.22036">
        <ele>26.3</ele>
        <time>2021-08-14T08:34:09Z</time>
      </trkpt>
      <trkpt lat="47.58073" lon="-2.22039">
        <ele>26.4</ele>
        <time>2021-08-14T08:34:10Z</time>
      </trkpt>
      <trkpt lat="47.58073" lon="-2.2204">
        <ele>26.4</ele>
        <time>2021-08-14T08:34:11Z</time>
      </trkpt>
      <trkpt lat="47.58073" lon="-2.22043">
        <ele>26.5</ele>
        <time>2021-08-14T08:34:13Z</time>
      </trkpt>
      <trkpt lat="47.58073" lon="-2.22045">
        <ele>26.5</ele>
        <time>2021-08-14T08:34:14Z</time>
      </trkpt>
      <trkpt lat="47.58073" lon="-2.22048">
        <ele>26.6</ele>
        <time>2021-08-14T08:34:16Z</time>
      </trkpt>
      <trkpt lat="47.58073" lon="-2.2205">
        <ele>26.6</ele>
        <time>2021-08-14T08:34:17Z</time>
      </trkpt>
      <trkpt lat="47.58073" lon="-2.22053">
        <ele>26.7</ele>
        <time>2021-08-14T08:34:19Z</time>
      </trkpt>
      <trkpt lat="47.58073" lon="-2.22055">
        <ele>26.7</ele>
        <time>2021-08-14T08:34:20Z</time>
      </trkpt>
      <trkpt lat="47.58074" lon="-2.22058">
        <ele>26.8</ele>
        <time>2021-08-14T08:34:22Z</time>
      </trkpt>
      <trkpt lat="47.58074" lon="-2.22062">
        <ele>26.9</ele>
        <time>2021-08-14T08:34:23Z</time>
      </trkpt>
      <trkpt lat="47.58075" lon="-2.22066">
        <ele>26.9</ele>
        <time>2021-08-14T08:34:25Z</time>
      </trkpt>
      <trkpt lat="47.58076" lon="-2.22068">
        <ele>27</ele>
        <time>2021-08-14T08:34:26Z</time>
      </trkpt>
      <trkpt lat="47.58076" lon="-2.22071">
        <ele>27</ele>
        <time>2021-08-14T08:34:27Z</time>
      </trkpt>
      <trkpt lat="47.58076" lon="-2.22074">
        <ele>27.1</ele>
        <time>2021-08-14T08:34:28Z</time>
      </trkpt>
      <trkpt lat="47.58076" lon="-2.22079">
        <ele>27.2</ele>
        <time>2021-08-14T08:34:30Z</time>
      </trkpt>
      <trkpt lat="47.58077" lon="-2.2208">
        <ele>27.2</ele>
        <time>2021-08-14T08:34:31Z</time>
      </trkpt>
      <trkpt lat="47.58077" lon="-2.22083">
        <ele>27.2</ele>
        <time>2021-08-14T08:34:33Z</time>
      </trkpt>
      <trkpt lat="47.58078" lon="-2.22084">
        <ele>27.2</ele>
        <time>2021-08-14T08:34:34Z</time>
      </trkpt>
      <trkpt lat="47.58078" lon="-2.22084">
        <ele>27.3</ele>
        <time>2021-08-14T08:34:36Z</time>
      </trkpt>
      <trkpt lat="47.58078" lon="-2.22085">
        <ele>27.3</ele>
        <time>2021-08-14T08:34:37Z</time>
      </trkpt>
      <trkpt lat="47.58079" lon="-2.22087">
        <ele>27.3</ele>
        <time>2021-08-14T08:34:38Z</time>
      </trkpt>
      <trkpt lat="47.58079" lon="-2.22093">
        <ele>27.3</ele>
        <time>2021-08-14T08:34:40Z</time>
      </trkpt>
      <trkpt lat="47.58079" lon="-2.22094">
        <ele>27.3</ele>
        <time>2021-08-14T08:34:41Z</time>
      </trkpt>
      <trkpt lat="47.58079" lon="-2.22094">
        <ele>27.3</ele>
        <time>2021-08-14T08:34:43Z</time>
      </trkpt>
      <trkpt lat="47.58079" lon="-2.22095">
        <ele>27.3</ele>
        <time>2021-08-14T08:34:44Z</time>
      </trkpt>
      <trkpt lat="47.58079" lon="-2.22096">
        <ele>27.3</ele>
        <time>2021-08-14T08:34:46Z</time>
      </trkpt>
      <trkpt lat="47.58079" lon="-2.22097">
        <ele>27.3</ele>
        <time>2021-08-14T08:34:49Z</time>
      </trkpt>
      <trkpt lat="47.58079" lon="-2.22098">
        <ele>27.3</ele>
        <time>2021-08-14T08:34:51Z</time>
      </trkpt>
      <trkpt lat="47.58079" lon="-2.22099">
        <ele>27.3</ele>
        <time>2021-08-14T08:34:53Z</time>
      </trkpt>
      <trkpt lat="47.58079" lon="-2.221">
        <ele>27.3</ele>
        <time>2021-08-14T08:34:55Z</time>
      </trkpt>
      <trkpt lat="47.58079" lon="-2.22101">
        <ele>27.3</ele>
        <time>2021-08-14T08:34:55Z</time>
      </trkpt>
      <trkpt lat="47.58079" lon="-2.22101">
        <ele>27.3</ele>
        <time>2021-08-14T08:34:56Z</time>
      </trkpt>
      <trkpt lat="47.5808" lon="-2.22102">
        <ele>27.2</ele>
        <time>2021-08-14T08:34:57Z</time>
      </trkpt>
      <trkpt lat="47.58081" lon="-2.22105">
        <ele>27.2</ele>
        <time>2021-08-14T08:34:59Z</time>
      </trkpt>
      <trkpt lat="47.58083" lon="-2.22108">
        <ele>27.1</ele>
        <time>2021-08-14T08:35:00Z</time>
      </trkpt>
      <trkpt lat="47.58085" lon="-2.22112">
        <ele>27</ele>
        <time>2021-08-14T08:35:02Z</time>
      </trkpt>
      <trkpt lat="47.58085" lon="-2.22115">
        <ele>26.9</ele>
        <time>2021-08-14T08:35:03Z</time>
      </trkpt>
      <trkpt lat="47.58084" lon="-2.22119">
        <ele>26.7</ele>
        <time>2021-08-14T08:35:05Z</time>
      </trkpt>
      <trkpt lat="47.58084" lon="-2.22124">
        <ele>26.5</ele>
        <time>2021-08-14T08:35:06Z</time>
      </trkpt>
      <trkpt lat="47.58084" lon="-2.22125">
        <ele>26.5</ele>
        <time>2021-08-14T08:35:07Z</time>
      </trkpt>
      <trkpt lat="47.58085" lon="-2.2213">
        <ele>26.2</ele>
        <time>2021-08-14T08:35:09Z</time>
      </trkpt>
      <trkpt lat="47.58085" lon="-2.22132">
        <ele>26.1</ele>
        <time>2021-08-14T08:35:10Z</time>
      </trkpt>
      <trkpt lat="47.58086" lon="-2.22137">
        <ele>25.9</ele>
        <time>2021-08-14T08:35:12Z</time>
      </trkpt>
      <trkpt lat="47.58086" lon="-2.22141">
        <ele>25.7</ele>
        <time>2021-08-14T08:35:13Z</time>
      </trkpt>
      <trkpt lat="47.58086" lon="-2.22143">
        <ele>25.5</ele>
        <time>2021-08-14T08:35:14Z</time>
      </trkpt>
      <trkpt lat="47.58087" lon="-2.22149">
        <ele>25.3</ele>
        <time>2021-08-14T08:35:16Z</time>
      </trkpt>
      <trkpt lat="47.58087" lon="-2.22154">
        <ele>25</ele>
        <time>2021-08-14T08:35:17Z</time>
      </trkpt>
      <trkpt lat="47.58089" lon="-2.2216">
        <ele>24.7</ele>
        <time>2021-08-14T08:35:19Z</time>
      </trkpt>
      <trkpt lat="47.58091" lon="-2.22166">
        <ele>24.4</ele>
        <time>2021-08-14T08:35:21Z</time>
      </trkpt>
      <trkpt lat="47.58092" lon="-2.22171">
        <ele>24.2</ele>
        <time>2021-08-14T08:35:22Z</time>
      </trkpt>
      <trkpt lat="47.58091" lon="-2.22176">
        <ele>24</ele>
        <time>2021-08-14T08:35:23Z</time>
      </trkpt>
      <trkpt lat="47.58091" lon="-2.22181">
        <ele>23.9</ele>
        <time>2021-08-14T08:35:24Z</time>
      </trkpt>
      <trkpt lat="47.58091" lon="-2.22185">
        <ele>23.8</ele>
        <time>2021-08-14T08:35:25Z</time>
      </trkpt>
      <trkpt lat="47.58092" lon="-2.22186">
        <ele>23.7</ele>
        <time>2021-08-14T08:35:27Z</time>
      </trkpt>
      <trkpt lat="47.58092" lon="-2.22187">
        <ele>23.7</ele>
        <time>2021-08-14T08:35:28Z</time>
      </trkpt>
      <trkpt lat="47.58093" lon="-2.22187">
        <ele>23.7</ele>
        <time>2021-08-14T08:35:29Z</time>
      </trkpt>
      <trkpt lat="47.58093" lon="-2.22188">
        <ele>23.7</ele>
        <time>2021-08-14T08:35:31Z</time>
      </trkpt>
      <trkpt lat="47.58093" lon="-2.22189">
        <ele>23.6</ele>
        <time>2021-08-14T08:35:32Z</time>
      </trkpt>
      <trkpt lat="47.58094" lon="-2.2219">
        <ele>23.6</ele>
        <time>2021-08-14T08:35:34Z</time>
      </trkpt>
      <trkpt lat="47.58094" lon="-2.22191">
        <ele>23.6</ele>
        <time>2021-08-14T08:35:35Z</time>
      </trkpt>
      <trkpt lat="47.58094" lon="-2.22192">
        <ele>23.6</ele>
        <time>2021-08-14T08:35:37Z</time>
      </trkpt>
      <trkpt lat="47.58095" lon="-2.22193">
        <ele>23.6</ele>
        <time>2021-08-14T08:35:38Z</time>
      </trkpt>
      <trkpt lat="47.58095" lon="-2.22194">
        <ele>23.5</ele>
        <time>2021-08-14T08:35:39Z</time>
      </trkpt>
      <trkpt lat="47.58095" lon="-2.22194">
        <ele>23.5</ele>
        <time>2021-08-14T08:35:40Z</time>
      </trkpt>
      <trkpt lat="47.58095" lon="-2.22195">
        <ele>23.5</ele>
        <time>2021-08-14T08:35:42Z</time>
      </trkpt>
      <trkpt lat="47.58096" lon="-2.22197">
        <ele>23.5</ele>
        <time>2021-08-14T08:35:43Z</time>
      </trkpt>
      <trkpt lat="47.58096" lon="-2.22198">
        <ele>23.5</ele>
        <time>2021-08-14T08:35:44Z</time>
      </trkpt>
      <trkpt lat="47.58096" lon="-2.222">
        <ele>23.4</ele>
        <time>2021-08-14T08:35:45Z</time>
      </trkpt>
      <trkpt lat="47.58096" lon="-2.22202">
        <ele>23.4</ele>
        <time>2021-08-14T08:35:46Z</time>
      </trkpt>
      <trkpt lat="47.58095" lon="-2.22203">
        <ele>23.4</ele>
        <time>2021-08-14T08:35:48Z</time>
      </trkpt>
      <trkpt lat="47.58095" lon="-2.22204">
        <ele>23.4</ele>
        <time>2021-08-14T08:35:50Z</time>
      </trkpt>
      <trkpt lat="47.58095" lon="-2.22205">
        <ele>23.4</ele>
        <time>2021-08-14T08:35:51Z</time>
      </trkpt>
      <trkpt lat="47.58095" lon="-2.22205">
        <ele>23.4</ele>
        <time>2021-08-14T08:35:53Z</time>
      </trkpt>
      <trkpt lat="47.58095" lon="-2.22205">
        <ele>23.4</ele>
        <time>2021-08-14T08:35:55Z</time>
      </trkpt>
      <trkpt lat="47.58095" lon="-2.22205">
        <ele>23.4</ele>
        <time>2021-08-14T08:35:56Z</time>
      </trkpt>
      <trkpt lat="47.58095" lon="-2.22206">
        <ele>23.4</ele>
        <time>2021-08-14T08:35:58Z</time>
      </trkpt>
      <trkpt lat="47.58096" lon="-2.22205">
        <ele>23.4</ele>
        <time>2021-08-14T08:36:00Z</time>
      </trkpt>
      <trkpt lat="47.58096" lon="-2.22205">
        <ele>23.4</ele>
        <time>2021-08-14T08:36:02Z</time>
      </trkpt>
      <trkpt lat="47.58095" lon="-2.2221">
        <ele>23.4</ele>
        <time>2021-08-14T08:36:15Z</time>
      </trkpt>
      <trkpt lat="47.58095" lon="-2.22212">
        <ele>23.4</ele>
        <time>2021-08-14T08:36:16Z</time>
      </trkpt>
      <trkpt lat="47.58097" lon="-2.22212">
        <ele>23.4</ele>
        <time>2021-08-14T08:36:18Z</time>
      </trkpt>
      <trkpt lat="47.58098" lon="-2.22215">
        <ele>23.4</ele>
        <time>2021-08-14T08:36:19Z</time>
      </trkpt>
      <trkpt lat="47.58099" lon="-2.22219">
        <ele>23.4</ele>
        <time>2021-08-14T08:36:21Z</time>
      </trkpt>
      <trkpt lat="47.581" lon="-2.22224">
        <ele>23.5</ele>
        <time>2021-08-14T08:36:23Z</time>
      </trkpt>
      <trkpt lat="47.581" lon="-2.22227">
        <ele>23.5</ele>
        <time>2021-08-14T08:36:24Z</time>
      </trkpt>
      <trkpt lat="47.58101" lon="-2.22229">
        <ele>23.5</ele>
        <time>2021-08-14T08:36:26Z</time>
      </trkpt>
      <trkpt lat="47.581" lon="-2.22231">
        <ele>23.5</ele>
        <time>2021-08-14T08:36:27Z</time>
      </trkpt>
      <trkpt lat="47.581" lon="-2.22234">
        <ele>23.5</ele>
        <time>2021-08-14T08:36:28Z</time>
      </trkpt>
      <trkpt lat="47.581" lon="-2.22236">
        <ele>23.6</ele>
        <time>2021-08-14T08:36:29Z</time>
      </trkpt>
      <trkpt lat="47.581" lon="-2.22237">
        <ele>23.6</ele>
        <time>2021-08-14T08:36:30Z</time>
      </trkpt>
      <trkpt lat="47.581" lon="-2.22239">
        <ele>23.6</ele>
        <time>2021-08-14T08:36:32Z</time>
      </trkpt>
      <trkpt lat="47.58101" lon="-2.22242">
        <ele>23.6</ele>
        <time>2021-08-14T08:36:33Z</time>
      </trkpt>
      <trkpt lat="47.58101" lon="-2.22244">
        <ele>23.6</ele>
        <time>2021-08-14T08:36:35Z</time>
      </trkpt>
      <trkpt lat="47.581" lon="-2.22244">
        <ele>23.6</ele>
        <time>2021-08-14T08:36:37Z</time>
      </trkpt>
      <trkpt lat="47.581" lon="-2.22245">
        <ele>23.6</ele>
        <time>2021-08-14T08:36:38Z</time>
      </trkpt>
      <trkpt lat="47.58101" lon="-2.22247">
        <ele>23.6</ele>
        <time>2021-08-14T08:36:40Z</time>
      </trkpt>
      <trkpt lat="47.58101" lon="-2.22249">
        <ele>23.5</ele>
        <time>2021-08-14T08:36:41Z</time>
      </trkpt>
      <trkpt lat="47.58104" lon="-2.22252">
        <ele>23.5</ele>
        <time>2021-08-14T08:36:43Z</time>
      </trkpt>
      <trkpt lat="47.58104" lon="-2.22253">
        <ele>23.4</ele>
        <time>2021-08-14T08:36:44Z</time>
      </trkpt>
      <trkpt lat="47.58106" lon="-2.22259">
        <ele>23.3</ele>
        <time>2021-08-14T08:36:46Z</time>
      </trkpt>
      <trkpt lat="47.58106" lon="-2.22261">
        <ele>23.2</ele>
        <time>2021-08-14T08:36:47Z</time>
      </trkpt>
      <trkpt lat="47.58106" lon="-2.22265">
        <ele>23</ele>
        <time>2021-08-14T08:36:48Z</time>
      </trkpt>
      <trkpt lat="47.58106" lon="-2.22266">
        <ele>23</ele>
        <time>2021-08-14T08:36:49Z</time>
      </trkpt>
      <trkpt lat="47.58106" lon="-2.22269">
        <ele>22.8</ele>
        <time>2021-08-14T08:36:50Z</time>
      </trkpt>
      <trkpt lat="47.58106" lon="-2.22272">
        <ele>22.7</ele>
        <time>2021-08-14T08:36:51Z</time>
      </trkpt>
      <trkpt lat="47.58107" lon="-2.22274">
        <ele>22.6</ele>
        <time>2021-08-14T08:36:53Z</time>
      </trkpt>
      <trkpt lat="47.58107" lon="-2.22273">
        <ele>22.5</ele>
        <time>2021-08-14T08:36:55Z</time>
      </trkpt>
      <trkpt lat="47.58107" lon="-2.22273">
        <ele>22.5</ele>
        <time>2021-08-14T08:36:56Z</time>
      </trkpt>
      <trkpt lat="47.58107" lon="-2.22272">
        <ele>22.5</ele>
        <time>2021-08-14T08:36:57Z</time>
      </trkpt>
      <trkpt lat="47.58107" lon="-2.22272">
        <ele>22.5</ele>
        <time>2021-08-14T08:36:58Z</time>
      </trkpt>
      <trkpt lat="47.58106" lon="-2.22273">
        <ele>22.5</ele>
        <time>2021-08-14T08:37:00Z</time>
      </trkpt>
      <trkpt lat="47.58106" lon="-2.22273">
        <ele>22.5</ele>
        <time>2021-08-14T08:37:01Z</time>
      </trkpt>
      <trkpt lat="47.58106" lon="-2.22274">
        <ele>22.4</ele>
        <time>2021-08-14T08:37:02Z</time>
      </trkpt>
      <trkpt lat="47.58106" lon="-2.22276">
        <ele>22.3</ele>
        <time>2021-08-14T08:37:04Z</time>
      </trkpt>
      <trkpt lat="47.58107" lon="-2.22279">
        <ele>22.1</ele>
        <time>2021-08-14T08:37:05Z</time>
      </trkpt>
      <trkpt lat="47.58108" lon="-2.22285">
        <ele>21.6</ele>
        <time>2021-08-14T08:37:07Z</time>
      </trkpt>
      <trkpt lat="47.5811" lon="-2.22291">
        <ele>21</ele>
        <time>2021-08-14T08:37:08Z</time>
      </trkpt>
      <trkpt lat="47.58114" lon="-2.223">
        <ele>20.1</ele>
        <time>2021-08-14T08:37:10Z</time>
      </trkpt>
      <trkpt lat="47.58117" lon="-2.22312">
        <ele>18.7</ele>
        <time>2021-08-14T08:37:11Z</time>
      </trkpt>
      <trkpt lat="47.58117" lon="-2.22324">
        <ele>17.4</ele>
        <time>2021-08-14T08:37:13Z</time>
      </trkpt>
      <trkpt lat="47.58117" lon="-2.2233">
        <ele>16.8</ele>
        <time>2021-08-14T08:37:14Z</time>
      </trkpt>
      <trkpt lat="47.58115" lon="-2.22338">
        <ele>15.9</ele>
        <time>2021-08-14T08:37:16Z</time>
      </trkpt>
      <trkpt lat="47.58113" lon="-2.22344">
        <ele>15.3</ele>
        <time>2021-08-14T08:37:17Z</time>
      </trkpt>
      <trkpt lat="47.58111" lon="-2.22351">
        <ele>14.7</ele>
        <time>2021-08-14T08:37:18Z</time>
      </trkpt>
      <trkpt lat="47.58112" lon="-2.22358">
        <ele>14.1</ele>
        <time>2021-08-14T08:37:19Z</time>
      </trkpt>
      <trkpt lat="47.58116" lon="-2.22369">
        <ele>13.2</ele>
        <time>2021-08-14T08:37:21Z</time>
      </trkpt>
      <trkpt lat="47.58117" lon="-2.2238">
        <ele>12.4</ele>
        <time>2021-08-14T08:37:23Z</time>
      </trkpt>
      <trkpt lat="47.58118" lon="-2.22385">
        <ele>12.1</ele>
        <time>2021-08-14T08:37:24Z</time>
      </trkpt>
      <trkpt lat="47.5812" lon="-2.22391">
        <ele>11.6</ele>
        <time>2021-08-14T08:37:26Z</time>
      </trkpt>
      <trkpt lat="47.58123" lon="-2.22397">
        <ele>11.1</ele>
        <time>2021-08-14T08:37:27Z</time>
      </trkpt>
      <trkpt lat="47.58126" lon="-2.22403">
        <ele>10.6</ele>
        <time>2021-08-14T08:37:29Z</time>
      </trkpt>
      <trkpt lat="47.58128" lon="-2.22408">
        <ele>10.2</ele>
        <time>2021-08-14T08:37:30Z</time>
      </trkpt>
      <trkpt lat="47.58128" lon="-2.22412">
        <ele>9.9</ele>
        <time>2021-08-14T08:37:31Z</time>
      </trkpt>
      <trkpt lat="47.58127" lon="-2.22417">
        <ele>9.5</ele>
        <time>2021-08-14T08:37:33Z</time>
      </trkpt>
      <trkpt lat="47.58127" lon="-2.22417">
        <ele>9.5</ele>
        <time>2021-08-14T08:37:34Z</time>
      </trkpt>
      <trkpt lat="47.58127" lon="-2.22415">
        <ele>9.3</ele>
        <time>2021-08-14T08:37:36Z</time>
      </trkpt>
      <trkpt lat="47.5813" lon="-2.22416">
        <ele>9</ele>
        <time>2021-08-14T08:37:38Z</time>
      </trkpt>
      <trkpt lat="47.58134" lon="-2.22417">
        <ele>8.5</ele>
        <time>2021-08-14T08:37:40Z</time>
      </trkpt>
      <trkpt lat="47.5814" lon="-2.22417">
        <ele>8</ele>
        <time>2021-08-14T08:37:41Z</time>
      </trkpt>
      <trkpt lat="47.58147" lon="-2.22418">
        <ele>7.2</ele>
        <time>2021-08-14T08:37:43Z</time>
      </trkpt>
      <trkpt lat="47.58151" lon="-2.22419">
        <ele>6.7</ele>
        <time>2021-08-14T08:37:44Z</time>
      </trkpt>
      <trkpt lat="47.58155" lon="-2.22419">
        <ele>6.4</ele>
        <time>2021-08-14T08:37:45Z</time>
      </trkpt>
      <trkpt lat="47.58159" lon="-2.22422">
        <ele>6.3</ele>
        <time>2021-08-14T08:37:47Z</time>
      </trkpt>
      <trkpt lat="47.58163" lon="-2.22429">
        <ele>6.3</ele>
        <time>2021-08-14T08:37:48Z</time>
      </trkpt>
      <trkpt lat="47.58164" lon="-2.22435">
        <ele>6.1</ele>
        <time>2021-08-14T08:37:49Z</time>
      </trkpt>
      <trkpt lat="47.58164" lon="-2.2244">
        <ele>6.1</ele>
        <time>2021-08-14T08:37:50Z</time>
      </trkpt>
      <trkpt lat="47.58163" lon="-2.22449">
        <ele>6</ele>
        <time>2021-08-14T08:37:52Z</time>
      </trkpt>
      <trkpt lat="47.58162" lon="-2.22455">
        <ele>6</ele>
        <time>2021-08-14T08:37:53Z</time>
      </trkpt>
      <trkpt lat="47.5816" lon="-2.22461">
        <ele>6</ele>
        <time>2021-08-14T08:37:55Z</time>
      </trkpt>
      <trkpt lat="47.58158" lon="-2.22466">
        <ele>5.9</ele>
        <time>2021-08-14T08:37:56Z</time>
      </trkpt>
      <trkpt lat="47.58157" lon="-2.22474">
        <ele>5.9</ele>
        <time>2021-08-14T08:37:58Z</time>
      </trkpt>
      <trkpt lat="47.58156" lon="-2.2248">
        <ele>6</ele>
        <time>2021-08-14T08:38:00Z</time>
      </trkpt>
      <trkpt lat="47.58155" lon="-2.22483">
        <ele>6</ele>
        <time>2021-08-14T08:38:01Z</time>
      </trkpt>
      <trkpt lat="47.58155" lon="-2.22486">
        <ele>6</ele>
        <time>2021-08-14T08:38:02Z</time>
      </trkpt>
      <trkpt lat="47.58153" lon="-2.22489">
        <ele>6</ele>
        <time>2021-08-14T08:38:03Z</time>
      </trkpt>
      <trkpt lat="47.58152" lon="-2.22495">
        <ele>6</ele>
        <time>2021-08-14T08:38:05Z</time>
      </trkpt>
      <trkpt lat="47.58151" lon="-2.225">
        <ele>6</ele>
        <time>2021-08-14T08:38:07Z</time>
      </trkpt>
      <trkpt lat="47.5815" lon="-2.22505">
        <ele>6.1</ele>
        <time>2021-08-14T08:38:08Z</time>
      </trkpt>
      <trkpt lat="47.58149" lon="-2.2251">
        <ele>6.1</ele>
        <time>2021-08-14T08:38:09Z</time>
      </trkpt>
      <trkpt lat="47.58148" lon="-2.22517">
        <ele>6.2</ele>
        <time>2021-08-14T08:38:11Z</time>
      </trkpt>
      <trkpt lat="47.58147" lon="-2.22523">
        <ele>6.2</ele>
        <time>2021-08-14T08:38:13Z</time>
      </trkpt>
      <trkpt lat="47.58146" lon="-2.22527">
        <ele>6.2</ele>
        <time>2021-08-14T08:38:14Z</time>
      </trkpt>
      <trkpt lat="47.58144" lon="-2.22533">
        <ele>6.3</ele>
        <time>2021-08-14T08:38:15Z</time>
      </trkpt>
      <trkpt lat="47.58143" lon="-2.22538">
        <ele>6.4</ele>
        <time>2021-08-14T08:38:17Z</time>
      </trkpt>
      <trkpt lat="47.58142" lon="-2.22546">
        <ele>6.4</ele>
        <time>2021-08-14T08:38:18Z</time>
      </trkpt>
      <trkpt lat="47.5814" lon="-2.22551">
        <ele>6.5</ele>
        <time>2021-08-14T08:38:20Z</time>
      </trkpt>
      <trkpt lat="47.58139" lon="-2.22558">
        <ele>6.6</ele>
        <time>2021-08-14T08:38:21Z</time>
      </trkpt>
      <trkpt lat="47.58137" lon="-2.22563">
        <ele>6.6</ele>
        <time>2021-08-14T08:38:22Z</time>
      </trkpt>
      <trkpt lat="47.58136" lon="-2.22569">
        <ele>6.7</ele>
        <time>2021-08-14T08:38:24Z</time>
      </trkpt>
      <trkpt lat="47.58134" lon="-2.22576">
        <ele>6.8</ele>
        <time>2021-08-14T08:38:25Z</time>
      </trkpt>
      <trkpt lat="47.58132" lon="-2.22583">
        <ele>6.8</ele>
        <time>2021-08-14T08:38:27Z</time>
      </trkpt>
      <trkpt lat="47.58131" lon="-2.22589">
        <ele>6.9</ele>
        <time>2021-08-14T08:38:28Z</time>
      </trkpt>
      <trkpt lat="47.5813" lon="-2.22594">
        <ele>6.9</ele>
        <time>2021-08-14T08:38:29Z</time>
      </trkpt>
      <trkpt lat="47.58128" lon="-2.22601">
        <ele>6.9</ele>
        <time>2021-08-14T08:38:30Z</time>
      </trkpt>
      <trkpt lat="47.58125" lon="-2.22611">
        <ele>7</ele>
        <time>2021-08-14T08:38:32Z</time>
      </trkpt>
      <trkpt lat="47.58124" lon="-2.22617">
        <ele>7</ele>
        <time>2021-08-14T08:38:33Z</time>
      </trkpt>
      <trkpt lat="47.58123" lon="-2.22623">
        <ele>7</ele>
        <time>2021-08-14T08:38:35Z</time>
      </trkpt>
      <trkpt lat="47.58121" lon="-2.22631">
        <ele>7</ele>
        <time>2021-08-14T08:38:36Z</time>
      </trkpt>
      <trkpt lat="47.58118" lon="-2.2264">
        <ele>7</ele>
        <time>2021-08-14T08:38:38Z</time>
      </trkpt>
      <trkpt lat="47.58117" lon="-2.22646">
        <ele>7.1</ele>
        <time>2021-08-14T08:38:39Z</time>
      </trkpt>
      <trkpt lat="47.58116" lon="-2.22655">
        <ele>7.2</ele>
        <time>2021-08-14T08:38:41Z</time>
      </trkpt>
      <trkpt lat="47.58115" lon="-2.2266">
        <ele>7.2</ele>
        <time>2021-08-14T08:38:42Z</time>
      </trkpt>
      <trkpt lat="47.58113" lon="-2.22668">
        <ele>7.3</ele>
        <time>2021-08-14T08:38:44Z</time>
      </trkpt>
      <trkpt lat="47.58112" lon="-2.22676">
        <ele>7.3</ele>
        <time>2021-08-14T08:38:45Z</time>
      </trkpt>
      <trkpt lat="47.58111" lon="-2.2268">
        <ele>7.4</ele>
        <time>2021-08-14T08:38:46Z</time>
      </trkpt>
      <trkpt lat="47.58109" lon="-2.22689">
        <ele>7.5</ele>
        <time>2021-08-14T08:38:48Z</time>
      </trkpt>
      <trkpt lat="47.58107" lon="-2.22698">
        <ele>7.6</ele>
        <time>2021-08-14T08:38:50Z</time>
      </trkpt>
      <trkpt lat="47.58106" lon="-2.22702">
        <ele>7.7</ele>
        <time>2021-08-14T08:38:51Z</time>
      </trkpt>
      <trkpt lat="47.58105" lon="-2.22708">
        <ele>7.8</ele>
        <time>2021-08-14T08:38:53Z</time>
      </trkpt>
      <trkpt lat="47.58103" lon="-2.22715">
        <ele>7.9</ele>
        <time>2021-08-14T08:38:54Z</time>
      </trkpt>
      <trkpt lat="47.58102" lon="-2.2272">
        <ele>8</ele>
        <time>2021-08-14T08:38:56Z</time>
      </trkpt>
      <trkpt lat="47.581" lon="-2.22728">
        <ele>8.2</ele>
        <time>2021-08-14T08:38:57Z</time>
      </trkpt>
      <trkpt lat="47.58099" lon="-2.22732">
        <ele>8.3</ele>
        <time>2021-08-14T08:38:58Z</time>
      </trkpt>
      <trkpt lat="47.58098" lon="-2.22737">
        <ele>8.3</ele>
        <time>2021-08-14T08:38:59Z</time>
      </trkpt>
      <trkpt lat="47.58096" lon="-2.22745">
        <ele>8.3</ele>
        <time>2021-08-14T08:39:01Z</time>
      </trkpt>
      <trkpt lat="47.58095" lon="-2.2275">
        <ele>8.3</ele>
        <time>2021-08-14T08:39:02Z</time>
      </trkpt>
      <trkpt lat="47.58094" lon="-2.22758">
        <ele>8.2</ele>
        <time>2021-08-14T08:39:04Z</time>
      </trkpt>
      <trkpt lat="47.58091" lon="-2.22766">
        <ele>8.2</ele>
        <time>2021-08-14T08:39:06Z</time>
      </trkpt>
      <trkpt lat="47.5809" lon="-2.22772">
        <ele>8.2</ele>
        <time>2021-08-14T08:39:07Z</time>
      </trkpt>
      <trkpt lat="47.58088" lon="-2.2278">
        <ele>8.1</ele>
        <time>2021-08-14T08:39:09Z</time>
      </trkpt>
      <trkpt lat="47.58087" lon="-2.22786">
        <ele>8.1</ele>
        <time>2021-08-14T08:39:10Z</time>
      </trkpt>
      <trkpt lat="47.58086" lon="-2.22792">
        <ele>8.1</ele>
        <time>2021-08-14T08:39:11Z</time>
      </trkpt>
      <trkpt lat="47.58084" lon="-2.22798">
        <ele>8.1</ele>
        <time>2021-08-14T08:39:12Z</time>
      </trkpt>
      <trkpt lat="47.58082" lon="-2.22808">
        <ele>8.1</ele>
        <time>2021-08-14T08:39:14Z</time>
      </trkpt>
      <trkpt lat="47.58081" lon="-2.22813">
        <ele>8.1</ele>
        <time>2021-08-14T08:39:15Z</time>
      </trkpt>
      <trkpt lat="47.5808" lon="-2.22819">
        <ele>8.1</ele>
        <time>2021-08-14T08:39:16Z</time>
      </trkpt>
      <trkpt lat="47.58077" lon="-2.22829">
        <ele>8</ele>
        <time>2021-08-14T08:39:18Z</time>
      </trkpt>
      <trkpt lat="47.58076" lon="-2.22835">
        <ele>8</ele>
        <time>2021-08-14T08:39:19Z</time>
      </trkpt>
      <trkpt lat="47.58074" lon="-2.22845">
        <ele>7.9</ele>
        <time>2021-08-14T08:39:21Z</time>
      </trkpt>
      <trkpt lat="47.58073" lon="-2.22851">
        <ele>7.8</ele>
        <time>2021-08-14T08:39:22Z</time>
      </trkpt>
      <trkpt lat="47.58072" lon="-2.22856">
        <ele>7.8</ele>
        <time>2021-08-14T08:39:23Z</time>
      </trkpt>
      <trkpt lat="47.5807" lon="-2.22863">
        <ele>7.7</ele>
        <time>2021-08-14T08:39:25Z</time>
      </trkpt>
      <trkpt lat="47.58069" lon="-2.22868">
        <ele>7.7</ele>
        <time>2021-08-14T08:39:26Z</time>
      </trkpt>
      <trkpt lat="47.58068" lon="-2.22875">
        <ele>7.6</ele>
        <time>2021-08-14T08:39:27Z</time>
      </trkpt>
      <trkpt lat="47.58066" lon="-2.2288">
        <ele>7.6</ele>
        <time>2021-08-14T08:39:28Z</time>
      </trkpt>
      <trkpt lat="47.58064" lon="-2.22889">
        <ele>7.5</ele>
        <time>2021-08-14T08:39:30Z</time>
      </trkpt>
      <trkpt lat="47.58062" lon="-2.22895">
        <ele>7.4</ele>
        <time>2021-08-14T08:39:31Z</time>
      </trkpt>
      <trkpt lat="47.58061" lon="-2.22902">
        <ele>7.4</ele>
        <time>2021-08-14T08:39:32Z</time>
      </trkpt>
      <trkpt lat="47.58059" lon="-2.22909">
        <ele>7.3</ele>
        <time>2021-08-14T08:39:33Z</time>
      </trkpt>
      <trkpt lat="47.58058" lon="-2.22917">
        <ele>7.3</ele>
        <time>2021-08-14T08:39:35Z</time>
      </trkpt>
      <trkpt lat="47.58057" lon="-2.22925">
        <ele>7.2</ele>
        <time>2021-08-14T08:39:36Z</time>
      </trkpt>
      <trkpt lat="47.58055" lon="-2.22933">
        <ele>7.2</ele>
        <time>2021-08-14T08:39:37Z</time>
      </trkpt>
      <trkpt lat="47.58052" lon="-2.22945">
        <ele>7.1</ele>
        <time>2021-08-14T08:39:39Z</time>
      </trkpt>
      <trkpt lat="47.58051" lon="-2.22952">
        <ele>7</ele>
        <time>2021-08-14T08:39:40Z</time>
      </trkpt>
      <trkpt lat="47.58048" lon="-2.22962">
        <ele>6.9</ele>
        <time>2021-08-14T08:39:42Z</time>
      </trkpt>
      <trkpt lat="47.58047" lon="-2.2297">
        <ele>6.9</ele>
        <time>2021-08-14T08:39:43Z</time>
      </trkpt>
      <trkpt lat="47.58045" lon="-2.22977">
        <ele>6.8</ele>
        <time>2021-08-14T08:39:44Z</time>
      </trkpt>
      <trkpt lat="47.58043" lon="-2.22984">
        <ele>6.7</ele>
        <time>2021-08-14T08:39:45Z</time>
      </trkpt>
      <trkpt lat="47.58041" lon="-2.22996">
        <ele>6.6</ele>
        <time>2021-08-14T08:39:47Z</time>
      </trkpt>
      <trkpt lat="47.58039" lon="-2.23002">
        <ele>6.5</ele>
        <time>2021-08-14T08:39:48Z</time>
      </trkpt>
      <trkpt lat="47.58037" lon="-2.2301">
        <ele>6.4</ele>
        <time>2021-08-14T08:39:49Z</time>
      </trkpt>
      <trkpt lat="47.58036" lon="-2.23017">
        <ele>6.4</ele>
        <time>2021-08-14T08:39:50Z</time>
      </trkpt>
      <trkpt lat="47.58034" lon="-2.23026">
        <ele>6.2</ele>
        <time>2021-08-14T08:39:52Z</time>
      </trkpt>
      <trkpt lat="47.58031" lon="-2.23038">
        <ele>6.1</ele>
        <time>2021-08-14T08:39:53Z</time>
      </trkpt>
      <trkpt lat="47.58028" lon="-2.23052">
        <ele>5.9</ele>
        <time>2021-08-14T08:39:55Z</time>
      </trkpt>
      <trkpt lat="47.58027" lon="-2.23058">
        <ele>5.9</ele>
        <time>2021-08-14T08:39:56Z</time>
      </trkpt>
      <trkpt lat="47.58028" lon="-2.23069">
        <ele>5.8</ele>
        <time>2021-08-14T08:39:58Z</time>
      </trkpt>
      <trkpt lat="47.58024" lon="-2.23076">
        <ele>5.7</ele>
        <time>2021-08-14T08:39:59Z</time>
      </trkpt>
      <trkpt lat="47.58021" lon="-2.23088">
        <ele>5.5</ele>
        <time>2021-08-14T08:40:01Z</time>
      </trkpt>
      <trkpt lat="47.58018" lon="-2.23097">
        <ele>5.4</ele>
        <time>2021-08-14T08:40:03Z</time>
      </trkpt>
      <trkpt lat="47.58016" lon="-2.23106">
        <ele>5.3</ele>
        <time>2021-08-14T08:40:04Z</time>
      </trkpt>
      <trkpt lat="47.58012" lon="-2.23117">
        <ele>5.2</ele>
        <time>2021-08-14T08:40:06Z</time>
      </trkpt>
      <trkpt lat="47.58011" lon="-2.23123">
        <ele>5.2</ele>
        <time>2021-08-14T08:40:07Z</time>
      </trkpt>
      <trkpt lat="47.58008" lon="-2.23133">
        <ele>5.1</ele>
        <time>2021-08-14T08:40:09Z</time>
      </trkpt>
      <trkpt lat="47.58006" lon="-2.23138">
        <ele>5.1</ele>
        <time>2021-08-14T08:40:10Z</time>
      </trkpt>
      <trkpt lat="47.58004" lon="-2.23143">
        <ele>5.1</ele>
        <time>2021-08-14T08:40:11Z</time>
      </trkpt>
      <trkpt lat="47.58003" lon="-2.23149">
        <ele>5</ele>
        <time>2021-08-14T08:40:12Z</time>
      </trkpt>
      <trkpt lat="47.58003" lon="-2.23155">
        <ele>5</ele>
        <time>2021-08-14T08:40:13Z</time>
      </trkpt>
      <trkpt lat="47.58003" lon="-2.23162">
        <ele>5</ele>
        <time>2021-08-14T08:40:15Z</time>
      </trkpt>
      <trkpt lat="47.58003" lon="-2.23165">
        <ele>5</ele>
        <time>2021-08-14T08:40:16Z</time>
      </trkpt>
      <trkpt lat="47.58003" lon="-2.23167">
        <ele>5</ele>
        <time>2021-08-14T08:40:17Z</time>
      </trkpt>
      <trkpt lat="47.58002" lon="-2.23168">
        <ele>5</ele>
        <time>2021-08-14T08:40:18Z</time>
      </trkpt>
      <trkpt lat="47.58001" lon="-2.23167">
        <ele>5</ele>
        <time>2021-08-14T08:40:20Z</time>
      </trkpt>
      <trkpt lat="47.58001" lon="-2.23166">
        <ele>5</ele>
        <time>2021-08-14T08:40:22Z</time>
      </trkpt>
      <trkpt lat="47.58001" lon="-2.23166">
        <ele>5</ele>
        <time>2021-08-14T08:40:23Z</time>
      </trkpt>
      <trkpt lat="47.58001" lon="-2.23166">
        <ele>5</ele>
        <time>2021-08-14T08:40:24Z</time>
      </trkpt>
      <trkpt lat="47.58001" lon="-2.23166">
        <ele>5</ele>
        <time>2021-08-14T08:40:25Z</time>
      </trkpt>
      <trkpt lat="47.58001" lon="-2.23165">
        <ele>5</ele>
        <time>2021-08-14T08:40:27Z</time>
      </trkpt>
      <trkpt lat="47.58001" lon="-2.23165">
        <ele>5</ele>
        <time>2021-08-14T08:40:28Z</time>
      </trkpt>
      <trkpt lat="47.57999" lon="-2.23168">
        <ele>5</ele>
        <time>2021-08-14T08:44:21Z</time>
      </trkpt>
      <trkpt lat="47.57996" lon="-2.23169">
        <ele>5</ele>
        <time>2021-08-14T08:44:23Z</time>
      </trkpt>
      <trkpt lat="47.57994" lon="-2.23169">
        <ele>5</ele>
        <time>2021-08-14T08:44:24Z</time>
      </trkpt>
      <trkpt lat="47.57991" lon="-2.23172">
        <ele>5</ele>
        <time>2021-08-14T08:44:26Z</time>
      </trkpt>
      <trkpt lat="47.57988" lon="-2.23175">
        <ele>5</ele>
        <time>2021-08-14T08:44:28Z</time>
      </trkpt>
      <trkpt lat="47.57987" lon="-2.23176">
        <ele>5</ele>
        <time>2021-08-14T08:44:29Z</time>
      </trkpt>
      <trkpt lat="47.57987" lon="-2.23176">
        <ele>5</ele>
        <time>2021-08-14T08:44:30Z</time>
      </trkpt>
      <trkpt lat="47.57986" lon="-2.23177">
        <ele>5</ele>
        <time>2021-08-14T08:44:31Z</time>
      </trkpt>
      <trkpt lat="47.57985" lon="-2.23174">
        <ele>5</ele>
        <time>2021-08-14T08:44:33Z</time>
      </trkpt>
      <trkpt lat="47.57985" lon="-2.23173">
        <ele>5</ele>
        <time>2021-08-14T08:44:34Z</time>
      </trkpt>
      <trkpt lat="47.57988" lon="-2.23171">
        <ele>5</ele>
        <time>2021-08-14T08:44:36Z</time>
      </trkpt>
      <trkpt lat="47.57991" lon="-2.23169">
        <ele>5</ele>
        <time>2021-08-14T08:44:38Z</time>
      </trkpt>
      <trkpt lat="47.57992" lon="-2.23168">
        <ele>5</ele>
        <time>2021-08-14T08:44:39Z</time>
      </trkpt>
      <trkpt lat="47.57994" lon="-2.23167">
        <ele>5</ele>
        <time>2021-08-14T08:44:40Z</time>
      </trkpt>
      <trkpt lat="47.57996" lon="-2.23165">
        <ele>5</ele>
        <time>2021-08-14T08:44:42Z</time>
      </trkpt>
      <trkpt lat="47.57997" lon="-2.23163">
        <ele>5</ele>
        <time>2021-08-14T08:44:44Z</time>
      </trkpt>
      <trkpt lat="47.57999" lon="-2.23161">
        <ele>5</ele>
        <time>2021-08-14T08:44:45Z</time>
      </trkpt>
      <trkpt lat="47.58" lon="-2.23161">
        <ele>5</ele>
        <time>2021-08-14T08:44:46Z</time>
      </trkpt>
      <trkpt lat="47.58001" lon="-2.23161">
        <ele>5</ele>
        <time>2021-08-14T08:44:47Z</time>
      </trkpt>
      <trkpt lat="47.58002" lon="-2.23162">
        <ele>5</ele>
        <time>2021-08-14T08:44:48Z</time>
      </trkpt>
      <trkpt lat="47.58003" lon="-2.23166">
        <ele>5</ele>
        <time>2021-08-14T08:44:50Z</time>
      </trkpt>
      <trkpt lat="47.58003" lon="-2.23167">
        <ele>5</ele>
        <time>2021-08-14T08:44:51Z</time>
      </trkpt>
      <trkpt lat="47.58003" lon="-2.23166">
        <ele>5</ele>
        <time>2021-08-14T08:44:52Z</time>
      </trkpt>
      <trkpt lat="47.58003" lon="-2.23166">
        <ele>5</ele>
        <time>2021-08-14T08:44:54Z</time>
      </trkpt>
      <trkpt lat="47.58003" lon="-2.23166">
        <ele>5</ele>
        <time>2021-08-14T08:44:55Z</time>
      </trkpt>
      <trkpt lat="47.58003" lon="-2.23166">
        <ele>5</ele>
        <time>2021-08-14T08:44:57Z</time>
      </trkpt>
      <trkpt lat="47.58003" lon="-2.23166">
        <ele>5</ele>
        <time>2021-08-14T08:44:58Z</time>
      </trkpt>
      <trkpt lat="47.58003" lon="-2.23166">
        <ele>5</ele>
        <time>2021-08-14T08:45:00Z</time>
      </trkpt>
      <trkpt lat="47.57999" lon="-2.23164">
        <ele>5</ele>
        <time>2021-08-14T08:47:29Z</time>
      </trkpt>
      <trkpt lat="47.57996" lon="-2.23166">
        <ele>5</ele>
        <time>2021-08-14T08:47:30Z</time>
      </trkpt>
      <trkpt lat="47.57993" lon="-2.23168">
        <ele>5</ele>
        <time>2021-08-14T08:47:31Z</time>
      </trkpt>
      <trkpt lat="47.57988" lon="-2.23174">
        <ele>5.1</ele>
        <time>2021-08-14T08:47:33Z</time>
      </trkpt>
      <trkpt lat="47.57982" lon="-2.23179">
        <ele>5.1</ele>
        <time>2021-08-14T08:47:35Z</time>
      </trkpt>
      <trkpt lat="47.57979" lon="-2.23182">
        <ele>5.1</ele>
        <time>2021-08-14T08:47:36Z</time>
      </trkpt>
      <trkpt lat="47.57972" lon="-2.23186">
        <ele>5.1</ele>
        <time>2021-08-14T08:47:38Z</time>
      </trkpt>
      <trkpt lat="47.57966" lon="-2.2319">
        <ele>5.2</ele>
        <time>2021-08-14T08:47:40Z</time>
      </trkpt>
      <trkpt lat="47.5796" lon="-2.23193">
        <ele>5.2</ele>
        <time>2021-08-14T08:47:42Z</time>
      </trkpt>
      <trkpt lat="47.57957" lon="-2.23194">
        <ele>5.2</ele>
        <time>2021-08-14T08:47:43Z</time>
      </trkpt>
      <trkpt lat="47.57953" lon="-2.23197">
        <ele>5.3</ele>
        <time>2021-08-14T08:47:45Z</time>
      </trkpt>
      <trkpt lat="47.57948" lon="-2.232">
        <ele>5.3</ele>
        <time>2021-08-14T08:47:47Z</time>
      </trkpt>
      <trkpt lat="47.57942" lon="-2.23202">
        <ele>5.4</ele>
        <time>2021-08-14T08:47:49Z</time>
      </trkpt>
      <trkpt lat="47.57936" lon="-2.23204">
        <ele>5.4</ele>
        <time>2021-08-14T08:47:51Z</time>
      </trkpt>
      <trkpt lat="47.57929" lon="-2.23205">
        <ele>5.4</ele>
        <time>2021-08-14T08:47:53Z</time>
      </trkpt>
      <trkpt lat="47.57922" lon="-2.23206">
        <ele>5.5</ele>
        <time>2021-08-14T08:47:55Z</time>
      </trkpt>
      <trkpt lat="47.57917" lon="-2.23206">
        <ele>5.5</ele>
        <time>2021-08-14T08:47:57Z</time>
      </trkpt>
      <trkpt lat="47.57911" lon="-2.23206">
        <ele>5.5</ele>
        <time>2021-08-14T08:47:59Z</time>
      </trkpt>
      <trkpt lat="47.57908" lon="-2.23205">
        <ele>5.5</ele>
        <time>2021-08-14T08:48:00Z</time>
      </trkpt>
      <trkpt lat="47.57902" lon="-2.23205">
        <ele>5.5</ele>
        <time>2021-08-14T08:48:02Z</time>
      </trkpt>
      <trkpt lat="47.57898" lon="-2.23205">
        <ele>5.5</ele>
        <time>2021-08-14T08:48:03Z</time>
      </trkpt>
      <trkpt lat="47.57892" lon="-2.23206">
        <ele>5.5</ele>
        <time>2021-08-14T08:48:05Z</time>
      </trkpt>
      <trkpt lat="47.57887" lon="-2.23207">
        <ele>5.6</ele>
        <time>2021-08-14T08:48:07Z</time>
      </trkpt>
      <trkpt lat="47.57886" lon="-2.23207">
        <ele>5.6</ele>
        <time>2021-08-14T08:48:08Z</time>
      </trkpt>
      <trkpt lat="47.57886" lon="-2.23206">
        <ele>5.6</ele>
        <time>2021-08-14T08:48:09Z</time>
      </trkpt>
      <trkpt lat="47.57887" lon="-2.23207">
        <ele>5.6</ele>
        <time>2021-08-14T08:48:10Z</time>
      </trkpt>
      <trkpt lat="47.57887" lon="-2.23207">
        <ele>5.6</ele>
        <time>2021-08-14T08:48:12Z</time>
      </trkpt>
      <trkpt lat="47.57887" lon="-2.23207">
        <ele>5.6</ele>
        <time>2021-08-14T08:48:14Z</time>
      </trkpt>
      <trkpt lat="47.57887" lon="-2.23207">
        <ele>5.6</ele>
        <time>2021-08-14T08:48:16Z</time>
      </trkpt>
      <trkpt lat="47.57887" lon="-2.23207">
        <ele>5.6</ele>
        <time>2021-08-14T08:48:17Z</time>
      </trkpt>
      <trkpt lat="47.57886" lon="-2.23206">
        <ele>5.6</ele>
        <time>2021-08-14T08:48:19Z</time>
      </trkpt>
      <trkpt lat="47.57885" lon="-2.23204">
        <ele>5.6</ele>
        <time>2021-08-14T08:48:34Z</time>
      </trkpt>
      <trkpt lat="47.57885" lon="-2.23202">
        <ele>5.6</ele>
        <time>2021-08-14T08:48:35Z</time>
      </trkpt>
      <trkpt lat="47.57882" lon="-2.23201">
        <ele>5.6</ele>
        <time>2021-08-14T08:48:38Z</time>
      </trkpt>
      <trkpt lat="47.57882" lon="-2.23201">
        <ele>5.6</ele>
        <time>2021-08-14T08:48:39Z</time>
      </trkpt>
      <trkpt lat="47.57882" lon="-2.23201">
        <ele>5.6</ele>
        <time>2021-08-14T08:48:41Z</time>
      </trkpt>
      <trkpt lat="47.57882" lon="-2.23201">
        <ele>5.6</ele>
        <time>2021-08-14T08:48:42Z</time>
      </trkpt>
      <trkpt lat="47.57882" lon="-2.23201">
        <ele>5.6</ele>
        <time>2021-08-14T08:48:44Z</time>
      </trkpt>
      <trkpt lat="47.57882" lon="-2.23201">
        <ele>5.6</ele>
        <time>2021-08-14T08:48:45Z</time>
      </trkpt>
      <trkpt lat="47.57877" lon="-2.23205">
        <ele>5.6</ele>
        <time>2021-08-14T08:50:43Z</time>
      </trkpt>
      <trkpt lat="47.57871" lon="-2.23205">
        <ele>5.5</ele>
        <time>2021-08-14T08:50:45Z</time>
      </trkpt>
      <trkpt lat="47.57865" lon="-2.23206">
        <ele>5.5</ele>
        <time>2021-08-14T08:50:47Z</time>
      </trkpt>
      <trkpt lat="47.57862" lon="-2.23206">
        <ele>5.4</ele>
        <time>2021-08-14T08:50:48Z</time>
      </trkpt>
      <trkpt lat="47.57857" lon="-2.23207">
        <ele>5.4</ele>
        <time>2021-08-14T08:50:50Z</time>
      </trkpt>
      <trkpt lat="47.57852" lon="-2.23207">
        <ele>5.3</ele>
        <time>2021-08-14T08:50:51Z</time>
      </trkpt>
      <trkpt lat="47.57847" lon="-2.23208">
        <ele>5.3</ele>
        <time>2021-08-14T08:50:52Z</time>
      </trkpt>
      <trkpt lat="47.57843" lon="-2.23207">
        <ele>5.2</ele>
        <time>2021-08-14T08:50:53Z</time>
      </trkpt>
      <trkpt lat="47.57835" lon="-2.23208">
        <ele>5.1</ele>
        <time>2021-08-14T08:50:55Z</time>
      </trkpt>
      <trkpt lat="47.57828" lon="-2.23208">
        <ele>5</ele>
        <time>2021-08-14T08:50:57Z</time>
      </trkpt>
      <trkpt lat="47.57823" lon="-2.23208">
        <ele>4.9</ele>
        <time>2021-08-14T08:50:58Z</time>
      </trkpt>
      <trkpt lat="47.57819" lon="-2.23208">
        <ele>4.8</ele>
        <time>2021-08-14T08:50:59Z</time>
      </trkpt>
      <trkpt lat="47.57812" lon="-2.23209">
        <ele>4.7</ele>
        <time>2021-08-14T08:51:01Z</time>
      </trkpt>
      <trkpt lat="47.57807" lon="-2.23209">
        <ele>4.6</ele>
        <time>2021-08-14T08:51:02Z</time>
      </trkpt>
      <trkpt lat="47.57803" lon="-2.2321">
        <ele>4.5</ele>
        <time>2021-08-14T08:51:03Z</time>
      </trkpt>
      <trkpt lat="47.578" lon="-2.23211">
        <ele>4.5</ele>
        <time>2021-08-14T08:51:04Z</time>
      </trkpt>
      <trkpt lat="47.57792" lon="-2.23213">
        <ele>4.4</ele>
        <time>2021-08-14T08:51:06Z</time>
      </trkpt>
      <trkpt lat="47.57788" lon="-2.23216">
        <ele>4.4</ele>
        <time>2021-08-14T08:51:07Z</time>
      </trkpt>
      <trkpt lat="47.5778" lon="-2.23222">
        <ele>4.3</ele>
        <time>2021-08-14T08:51:09Z</time>
      </trkpt>
      <trkpt lat="47.57775" lon="-2.23224">
        <ele>4.2</ele>
        <time>2021-08-14T08:51:10Z</time>
      </trkpt>
      <trkpt lat="47.5777" lon="-2.23229">
        <ele>4.2</ele>
        <time>2021-08-14T08:51:12Z</time>
      </trkpt>
      <trkpt lat="47.57764" lon="-2.23234">
        <ele>4.1</ele>
        <time>2021-08-14T08:51:13Z</time>
      </trkpt>
      <trkpt lat="47.57757" lon="-2.2324">
        <ele>4</ele>
        <time>2021-08-14T08:51:15Z</time>
      </trkpt>
      <trkpt lat="47.57752" lon="-2.23245">
        <ele>4</ele>
        <time>2021-08-14T08:51:16Z</time>
      </trkpt>
      <trkpt lat="47.57748" lon="-2.2325">
        <ele>3.9</ele>
        <time>2021-08-14T08:51:18Z</time>
      </trkpt>
      <trkpt lat="47.57743" lon="-2.23254">
        <ele>3.9</ele>
        <time>2021-08-14T08:51:19Z</time>
      </trkpt>
      <trkpt lat="47.57738" lon="-2.23258">
        <ele>3.9</ele>
        <time>2021-08-14T08:51:20Z</time>
      </trkpt>
      <trkpt lat="47.57734" lon="-2.23263">
        <ele>3.9</ele>
        <time>2021-08-14T08:51:21Z</time>
      </trkpt>
      <trkpt lat="47.57727" lon="-2.2327">
        <ele>3.8</ele>
        <time>2021-08-14T08:51:23Z</time>
      </trkpt>
      <trkpt lat="47.57722" lon="-2.23275">
        <ele>3.8</ele>
        <time>2021-08-14T08:51:25Z</time>
      </trkpt>
      <trkpt lat="47.57716" lon="-2.2328">
        <ele>3.8</ele>
        <time>2021-08-14T08:51:26Z</time>
      </trkpt>
      <trkpt lat="47.57712" lon="-2.23283">
        <ele>3.8</ele>
        <time>2021-08-14T08:51:27Z</time>
      </trkpt>
      <trkpt lat="47.57704" lon="-2.2329">
        <ele>3.8</ele>
        <time>2021-08-14T08:51:29Z</time>
      </trkpt>
      <trkpt lat="47.57701" lon="-2.23294">
        <ele>3.8</ele>
        <time>2021-08-14T08:51:30Z</time>
      </trkpt>
      <trkpt lat="47.57697" lon="-2.23297">
        <ele>3.8</ele>
        <time>2021-08-14T08:51:31Z</time>
      </trkpt>
      <trkpt lat="47.5769" lon="-2.23304">
        <ele>3.7</ele>
        <time>2021-08-14T08:51:33Z</time>
      </trkpt>
      <trkpt lat="47.57685" lon="-2.23309">
        <ele>3.7</ele>
        <time>2021-08-14T08:51:35Z</time>
      </trkpt>
      <trkpt lat="47.5768" lon="-2.23314">
        <ele>3.7</ele>
        <time>2021-08-14T08:51:36Z</time>
      </trkpt>
      <trkpt lat="47.57675" lon="-2.23318">
        <ele>3.7</ele>
        <time>2021-08-14T08:51:37Z</time>
      </trkpt>
      <trkpt lat="47.5767" lon="-2.23322">
        <ele>3.6</ele>
        <time>2021-08-14T08:51:39Z</time>
      </trkpt>
      <trkpt lat="47.57665" lon="-2.23327">
        <ele>3.6</ele>
        <time>2021-08-14T08:51:40Z</time>
      </trkpt>
      <trkpt lat="47.57661" lon="-2.23331">
        <ele>3.6</ele>
        <time>2021-08-14T08:51:41Z</time>
      </trkpt>
      <trkpt lat="47.57654" lon="-2.23337">
        <ele>3.6</ele>
        <time>2021-08-14T08:51:43Z</time>
      </trkpt>
      <trkpt lat="47.5765" lon="-2.2334">
        <ele>3.6</ele>
        <time>2021-08-14T08:51:44Z</time>
      </trkpt>
      <trkpt lat="47.57645" lon="-2.23345">
        <ele>3.6</ele>
        <time>2021-08-14T08:51:46Z</time>
      </trkpt>
      <trkpt lat="47.5764" lon="-2.2335">
        <ele>3.5</ele>
        <time>2021-08-14T08:51:47Z</time>
      </trkpt>
      <trkpt lat="47.57635" lon="-2.23354">
        <ele>3.5</ele>
        <time>2021-08-14T08:51:49Z</time>
      </trkpt>
      <trkpt lat="47.57631" lon="-2.23359">
        <ele>3.5</ele>
        <time>2021-08-14T08:51:50Z</time>
      </trkpt>
      <trkpt lat="47.57625" lon="-2.23363">
        <ele>3.5</ele>
        <time>2021-08-14T08:51:51Z</time>
      </trkpt>
      <trkpt lat="47.5762" lon="-2.23368">
        <ele>3.4</ele>
        <time>2021-08-14T08:51:53Z</time>
      </trkpt>
      <trkpt lat="47.57616" lon="-2.23372">
        <ele>3.4</ele>
        <time>2021-08-14T08:51:54Z</time>
      </trkpt>
      <trkpt lat="47.57611" lon="-2.23376">
        <ele>3.4</ele>
        <time>2021-08-14T08:51:55Z</time>
      </trkpt>
      <trkpt lat="47.57608" lon="-2.23379">
        <ele>3.4</ele>
        <time>2021-08-14T08:51:56Z</time>
      </trkpt>
      <trkpt lat="47.57601" lon="-2.23385">
        <ele>3.3</ele>
        <time>2021-08-14T08:51:58Z</time>
      </trkpt>
      <trkpt lat="47.57597" lon="-2.23389">
        <ele>3.3</ele>
        <time>2021-08-14T08:51:59Z</time>
      </trkpt>
      <trkpt lat="47.57593" lon="-2.23393">
        <ele>3.3</ele>
        <time>2021-08-14T08:52:01Z</time>
      </trkpt>
      <trkpt lat="47.57588" lon="-2.23398">
        <ele>3.3</ele>
        <time>2021-08-14T08:52:02Z</time>
      </trkpt>
      <trkpt lat="47.57584" lon="-2.23402">
        <ele>3.3</ele>
        <time>2021-08-14T08:52:03Z</time>
      </trkpt>
      <trkpt lat="47.5758" lon="-2.23406">
        <ele>3.3</ele>
        <time>2021-08-14T08:52:04Z</time>
      </trkpt>
      <trkpt lat="47.57575" lon="-2.2341">
        <ele>3.4</ele>
        <time>2021-08-14T08:52:06Z</time>
      </trkpt>
      <trkpt lat="47.5757" lon="-2.23413">
        <ele>3.4</ele>
        <time>2021-08-14T08:52:07Z</time>
      </trkpt>
      <trkpt lat="47.57566" lon="-2.23417">
        <ele>3.4</ele>
        <time>2021-08-14T08:52:08Z</time>
      </trkpt>
      <trkpt lat="47.57562" lon="-2.23421">
        <ele>3.4</ele>
        <time>2021-08-14T08:52:09Z</time>
      </trkpt>
      <trkpt lat="47.57556" lon="-2.23426">
        <ele>3.4</ele>
        <time>2021-08-14T08:52:11Z</time>
      </trkpt>
      <trkpt lat="47.57553" lon="-2.23429">
        <ele>3.4</ele>
        <time>2021-08-14T08:52:12Z</time>
      </trkpt>
      <trkpt lat="47.57548" lon="-2.23433">
        <ele>3.4</ele>
        <time>2021-08-14T08:52:13Z</time>
      </trkpt>
      <trkpt lat="47.57545" lon="-2.23436">
        <ele>3.5</ele>
        <time>2021-08-14T08:52:14Z</time>
      </trkpt>
      <trkpt lat="47.57539" lon="-2.2344">
        <ele>3.5</ele>
        <time>2021-08-14T08:52:16Z</time>
      </trkpt>
      <trkpt lat="47.57533" lon="-2.23444">
        <ele>3.6</ele>
        <time>2021-08-14T08:52:17Z</time>
      </trkpt>
      <trkpt lat="47.57529" lon="-2.23447">
        <ele>3.6</ele>
        <time>2021-08-14T08:52:18Z</time>
      </trkpt>
      <trkpt lat="47.57524" lon="-2.2345">
        <ele>3.8</ele>
        <time>2021-08-14T08:52:20Z</time>
      </trkpt>
      <trkpt lat="47.57518" lon="-2.23453">
        <ele>4</ele>
        <time>2021-08-14T08:52:21Z</time>
      </trkpt>
      <trkpt lat="47.57511" lon="-2.23455">
        <ele>4.3</ele>
        <time>2021-08-14T08:52:23Z</time>
      </trkpt>
      <trkpt lat="47.57507" lon="-2.23456">
        <ele>4.5</ele>
        <time>2021-08-14T08:52:24Z</time>
      </trkpt>
      <trkpt lat="47.57501" lon="-2.23458">
        <ele>4.8</ele>
        <time>2021-08-14T08:52:26Z</time>
      </trkpt>
      <trkpt lat="47.57497" lon="-2.2346">
        <ele>5</ele>
        <time>2021-08-14T08:52:27Z</time>
      </trkpt>
      <trkpt lat="47.57494" lon="-2.23462">
        <ele>5.2</ele>
        <time>2021-08-14T08:52:28Z</time>
      </trkpt>
      <trkpt lat="47.57493" lon="-2.23463">
        <ele>5.3</ele>
        <time>2021-08-14T08:52:29Z</time>
      </trkpt>
      <trkpt lat="47.57488" lon="-2.23466">
        <ele>5.7</ele>
        <time>2021-08-14T08:52:31Z</time>
      </trkpt>
      <trkpt lat="47.57486" lon="-2.23466">
        <ele>5.8</ele>
        <time>2021-08-14T08:52:32Z</time>
      </trkpt>
      <trkpt lat="47.57484" lon="-2.23467">
        <ele>5.9</ele>
        <time>2021-08-14T08:52:33Z</time>
      </trkpt>
      <trkpt lat="47.5748" lon="-2.2347">
        <ele>6.3</ele>
        <time>2021-08-14T08:52:35Z</time>
      </trkpt>
      <trkpt lat="47.57477" lon="-2.23471">
        <ele>6.5</ele>
        <time>2021-08-14T08:52:37Z</time>
      </trkpt>
      <trkpt lat="47.57474" lon="-2.23473">
        <ele>6.8</ele>
        <time>2021-08-14T08:52:38Z</time>
      </trkpt>
      <trkpt lat="47.5747" lon="-2.23475">
        <ele>7.1</ele>
        <time>2021-08-14T08:52:40Z</time>
      </trkpt>
      <trkpt lat="47.57468" lon="-2.23475">
        <ele>7.2</ele>
        <time>2021-08-14T08:52:41Z</time>
      </trkpt>
      <trkpt lat="47.57466" lon="-2.23477">
        <ele>7.4</ele>
        <time>2021-08-14T08:52:42Z</time>
      </trkpt>
      <trkpt lat="47.57462" lon="-2.2348">
        <ele>7.7</ele>
        <time>2021-08-14T08:52:44Z</time>
      </trkpt>
      <trkpt lat="47.57459" lon="-2.23482">
        <ele>8</ele>
        <time>2021-08-14T08:52:46Z</time>
      </trkpt>
      <trkpt lat="47.57456" lon="-2.23484">
        <ele>8.2</ele>
        <time>2021-08-14T08:52:47Z</time>
      </trkpt>
      <trkpt lat="47.57454" lon="-2.23485">
        <ele>8.3</ele>
        <time>2021-08-14T08:52:48Z</time>
      </trkpt>
      <trkpt lat="47.5745" lon="-2.23489">
        <ele>8.7</ele>
        <time>2021-08-14T08:52:50Z</time>
      </trkpt>
      <trkpt lat="47.57446" lon="-2.23492">
        <ele>9</ele>
        <time>2021-08-14T08:52:52Z</time>
      </trkpt>
      <trkpt lat="47.57443" lon="-2.23495">
        <ele>9.3</ele>
        <time>2021-08-14T08:52:53Z</time>
      </trkpt>
      <trkpt lat="47.57442" lon="-2.23496">
        <ele>9.3</ele>
        <time>2021-08-14T08:52:54Z</time>
      </trkpt>
      <trkpt lat="47.57439" lon="-2.235">
        <ele>9.7</ele>
        <time>2021-08-14T08:52:56Z</time>
      </trkpt>
      <trkpt lat="47.57436" lon="-2.23504">
        <ele>9.9</ele>
        <time>2021-08-14T08:52:58Z</time>
      </trkpt>
      <trkpt lat="47.57434" lon="-2.23508">
        <ele>10.1</ele>
        <time>2021-08-14T08:52:59Z</time>
      </trkpt>
      <trkpt lat="47.57432" lon="-2.23513">
        <ele>10.5</ele>
        <time>2021-08-14T08:53:00Z</time>
      </trkpt>
      <trkpt lat="47.5743" lon="-2.23517">
        <ele>10.7</ele>
        <time>2021-08-14T08:53:02Z</time>
      </trkpt>
      <trkpt lat="47.57428" lon="-2.23521">
        <ele>10.9</ele>
        <time>2021-08-14T08:53:03Z</time>
      </trkpt>
      <trkpt lat="47.57427" lon="-2.23525">
        <ele>11.2</ele>
        <time>2021-08-14T08:53:04Z</time>
      </trkpt>
      <trkpt lat="47.57425" lon="-2.2353">
        <ele>11.5</ele>
        <time>2021-08-14T08:53:05Z</time>
      </trkpt>
      <trkpt lat="47.57424" lon="-2.23531">
        <ele>11.7</ele>
        <time>2021-08-14T08:53:06Z</time>
      </trkpt>
      <trkpt lat="47.57422" lon="-2.23535">
        <ele>11.9</ele>
        <time>2021-08-14T08:53:07Z</time>
      </trkpt>
      <trkpt lat="47.57421" lon="-2.2354">
        <ele>12.3</ele>
        <time>2021-08-14T08:53:09Z</time>
      </trkpt>
      <trkpt lat="47.5742" lon="-2.23544">
        <ele>12.6</ele>
        <time>2021-08-14T08:53:10Z</time>
      </trkpt>
      <trkpt lat="47.57419" lon="-2.23546">
        <ele>12.7</ele>
        <time>2021-08-14T08:53:11Z</time>
      </trkpt>
      <trkpt lat="47.57419" lon="-2.23548">
        <ele>12.8</ele>
        <time>2021-08-14T08:53:12Z</time>
      </trkpt>
      <trkpt lat="47.57417" lon="-2.23552">
        <ele>13.1</ele>
        <time>2021-08-14T08:53:14Z</time>
      </trkpt>
      <trkpt lat="47.57416" lon="-2.23558">
        <ele>13.6</ele>
        <time>2021-08-14T08:53:16Z</time>
      </trkpt>
      <trkpt lat="47.57415" lon="-2.23561">
        <ele>13.7</ele>
        <time>2021-08-14T08:53:18Z</time>
      </trkpt>
      <trkpt lat="47.57415" lon="-2.23563">
        <ele>13.9</ele>
        <time>2021-08-14T08:53:19Z</time>
      </trkpt>
      <trkpt lat="47.57415" lon="-2.23565">
        <ele>14.1</ele>
        <time>2021-08-14T08:53:20Z</time>
      </trkpt>
      <trkpt lat="47.57414" lon="-2.23569">
        <ele>14.4</ele>
        <time>2021-08-14T08:53:22Z</time>
      </trkpt>
      <trkpt lat="47.57413" lon="-2.23572">
        <ele>14.7</ele>
        <time>2021-08-14T08:53:24Z</time>
      </trkpt>
      <trkpt lat="47.57412" lon="-2.23574">
        <ele>14.8</ele>
        <time>2021-08-14T08:53:26Z</time>
      </trkpt>
      <trkpt lat="47.57412" lon="-2.23575">
        <ele>14.9</ele>
        <time>2021-08-14T08:53:27Z</time>
      </trkpt>
      <trkpt lat="47.57411" lon="-2.23577">
        <ele>15.1</ele>
        <time>2021-08-14T08:53:28Z</time>
      </trkpt>
      <trkpt lat="47.57411" lon="-2.23579">
        <ele>15.2</ele>
        <time>2021-08-14T08:53:29Z</time>
      </trkpt>
      <trkpt lat="47.5741" lon="-2.23581">
        <ele>15.4</ele>
        <time>2021-08-14T08:53:31Z</time>
      </trkpt>
      <trkpt lat="47.5741" lon="-2.23584">
        <ele>15.6</ele>
        <time>2021-08-14T08:53:32Z</time>
      </trkpt>
      <trkpt lat="47.5741" lon="-2.23585">
        <ele>15.7</ele>
        <time>2021-08-14T08:53:33Z</time>
      </trkpt>
      <trkpt lat="47.57409" lon="-2.23589">
        <ele>16</ele>
        <time>2021-08-14T08:53:35Z</time>
      </trkpt>
      <trkpt lat="47.57409" lon="-2.2359">
        <ele>16.1</ele>
        <time>2021-08-14T08:53:36Z</time>
      </trkpt>
      <trkpt lat="47.57408" lon="-2.23592">
        <ele>16.3</ele>
        <time>2021-08-14T08:53:37Z</time>
      </trkpt>
      <trkpt lat="47.57407" lon="-2.23593">
        <ele>16.4</ele>
        <time>2021-08-14T08:53:38Z</time>
      </trkpt>
      <trkpt lat="47.57405" lon="-2.23596">
        <ele>16.7</ele>
        <time>2021-08-14T08:53:40Z</time>
      </trkpt>
      <trkpt lat="47.57405" lon="-2.23597">
        <ele>16.8</ele>
        <time>2021-08-14T08:53:41Z</time>
      </trkpt>
      <trkpt lat="47.57403" lon="-2.23599">
        <ele>17</ele>
        <time>2021-08-14T08:53:43Z</time>
      </trkpt>
      <trkpt lat="47.57402" lon="-2.23602">
        <ele>17.2</ele>
        <time>2021-08-14T08:53:45Z</time>
      </trkpt>
      <trkpt lat="47.57399" lon="-2.23606">
        <ele>17.6</ele>
        <time>2021-08-14T08:53:47Z</time>
      </trkpt>
      <trkpt lat="47.57398" lon="-2.23608">
        <ele>17.8</ele>
        <time>2021-08-14T08:53:48Z</time>
      </trkpt>
      <trkpt lat="47.57397" lon="-2.23611">
        <ele>18</ele>
        <time>2021-08-14T08:53:50Z</time>
      </trkpt>
      <trkpt lat="47.57397" lon="-2.23612">
        <ele>18.1</ele>
        <time>2021-08-14T08:53:51Z</time>
      </trkpt>
      <trkpt lat="47.57396" lon="-2.23613">
        <ele>18.2</ele>
        <time>2021-08-14T08:53:52Z</time>
      </trkpt>
      <trkpt lat="47.57393" lon="-2.23618">
        <ele>18.5</ele>
        <time>2021-08-14T08:53:55Z</time>
      </trkpt>
      <trkpt lat="47.57393" lon="-2.23619">
        <ele>18.6</ele>
        <time>2021-08-14T08:53:56Z</time>
      </trkpt>
      <trkpt lat="47.57392" lon="-2.2362">
        <ele>18.7</ele>
        <time>2021-08-14T08:53:57Z</time>
      </trkpt>
      <trkpt lat="47.5739" lon="-2.23623">
        <ele>19</ele>
        <time>2021-08-14T08:53:59Z</time>
      </trkpt>
      <trkpt lat="47.57388" lon="-2.23628">
        <ele>19.3</ele>
        <time>2021-08-14T08:54:01Z</time>
      </trkpt>
      <trkpt lat="47.57386" lon="-2.2363">
        <ele>19.5</ele>
        <time>2021-08-14T08:54:03Z</time>
      </trkpt>
      <trkpt lat="47.57385" lon="-2.23632">
        <ele>19.7</ele>
        <time>2021-08-14T08:54:05Z</time>
      </trkpt>
      <trkpt lat="47.57383" lon="-2.23634">
        <ele>19.8</ele>
        <time>2021-08-14T08:54:06Z</time>
      </trkpt>
      <trkpt lat="47.57382" lon="-2.23635">
        <ele>20</ele>
        <time>2021-08-14T08:54:07Z</time>
      </trkpt>
      <trkpt lat="47.5738" lon="-2.23636">
        <ele>20.1</ele>
        <time>2021-08-14T08:54:08Z</time>
      </trkpt>
      <trkpt lat="47.57378" lon="-2.23638">
        <ele>20.4</ele>
        <time>2021-08-14T08:54:10Z</time>
      </trkpt>
      <trkpt lat="47.57374" lon="-2.23641">
        <ele>20.7</ele>
        <time>2021-08-14T08:54:12Z</time>
      </trkpt>
      <trkpt lat="47.57372" lon="-2.23642">
        <ele>20.8</ele>
        <time>2021-08-14T08:54:14Z</time>
      </trkpt>
      <trkpt lat="47.57371" lon="-2.23642">
        <ele>20.9</ele>
        <time>2021-08-14T08:54:15Z</time>
      </trkpt>
      <trkpt lat="47.57368" lon="-2.23644">
        <ele>21.2</ele>
        <time>2021-08-14T08:54:17Z</time>
      </trkpt>
      <trkpt lat="47.57365" lon="-2.23645">
        <ele>21.4</ele>
        <time>2021-08-14T08:54:19Z</time>
      </trkpt>
      <trkpt lat="47.57364" lon="-2.23646">
        <ele>21.5</ele>
        <time>2021-08-14T08:54:20Z</time>
      </trkpt>
      <trkpt lat="47.57361" lon="-2.23648">
        <ele>21.7</ele>
        <time>2021-08-14T08:54:22Z</time>
      </trkpt>
      <trkpt lat="47.57359" lon="-2.23649">
        <ele>22</ele>
        <time>2021-08-14T08:54:23Z</time>
      </trkpt>
      <trkpt lat="47.57358" lon="-2.2365">
        <ele>22</ele>
        <time>2021-08-14T08:54:24Z</time>
      </trkpt>
      <trkpt lat="47.57355" lon="-2.23651">
        <ele>22.2</ele>
        <time>2021-08-14T08:54:26Z</time>
      </trkpt>
      <trkpt lat="47.57353" lon="-2.23652">
        <ele>22.4</ele>
        <time>2021-08-14T08:54:27Z</time>
      </trkpt>
      <trkpt lat="47.57349" lon="-2.23653">
        <ele>22.6</ele>
        <time>2021-08-14T08:54:29Z</time>
      </trkpt>
      <trkpt lat="47.57346" lon="-2.23654">
        <ele>22.8</ele>
        <time>2021-08-14T08:54:31Z</time>
      </trkpt>
      <trkpt lat="47.57344" lon="-2.23655">
        <ele>23</ele>
        <time>2021-08-14T08:54:32Z</time>
      </trkpt>
      <trkpt lat="47.5734" lon="-2.23657">
        <ele>23.2</ele>
        <time>2021-08-14T08:54:34Z</time>
      </trkpt>
      <trkpt lat="47.57338" lon="-2.23658">
        <ele>23.4</ele>
        <time>2021-08-14T08:54:35Z</time>
      </trkpt>
      <trkpt lat="47.57334" lon="-2.2366">
        <ele>23.7</ele>
        <time>2021-08-14T08:54:37Z</time>
      </trkpt>
      <trkpt lat="47.57331" lon="-2.23661">
        <ele>23.9</ele>
        <time>2021-08-14T08:54:38Z</time>
      </trkpt>
      <trkpt lat="47.5733" lon="-2.23662">
        <ele>24</ele>
        <time>2021-08-14T08:54:39Z</time>
      </trkpt>
      <trkpt lat="47.57326" lon="-2.23664">
        <ele>24.2</ele>
        <time>2021-08-14T08:54:41Z</time>
      </trkpt>
      <trkpt lat="47.57325" lon="-2.23664">
        <ele>24.3</ele>
        <time>2021-08-14T08:54:42Z</time>
      </trkpt>
      <trkpt lat="47.57321" lon="-2.23667">
        <ele>24.6</ele>
        <time>2021-08-14T08:54:44Z</time>
      </trkpt>
      <trkpt lat="47.57317" lon="-2.23669">
        <ele>24.8</ele>
        <time>2021-08-14T08:54:45Z</time>
      </trkpt>
      <trkpt lat="47.57316" lon="-2.23669">
        <ele>24.9</ele>
        <time>2021-08-14T08:54:46Z</time>
      </trkpt>
      <trkpt lat="47.57312" lon="-2.23671">
        <ele>25.2</ele>
        <time>2021-08-14T08:54:48Z</time>
      </trkpt>
      <trkpt lat="47.5731" lon="-2.23672">
        <ele>25.3</ele>
        <time>2021-08-14T08:54:49Z</time>
      </trkpt>
      <trkpt lat="47.57307" lon="-2.23673">
        <ele>25.5</ele>
        <time>2021-08-14T08:54:50Z</time>
      </trkpt>
      <trkpt lat="47.57306" lon="-2.23674">
        <ele>25.6</ele>
        <time>2021-08-14T08:54:51Z</time>
      </trkpt>
      <trkpt lat="47.57304" lon="-2.23675">
        <ele>25.7</ele>
        <time>2021-08-14T08:54:52Z</time>
      </trkpt>
      <trkpt lat="47.57302" lon="-2.23676">
        <ele>25.9</ele>
        <time>2021-08-14T08:54:54Z</time>
      </trkpt>
      <trkpt lat="47.57299" lon="-2.23677">
        <ele>26.1</ele>
        <time>2021-08-14T08:54:55Z</time>
      </trkpt>
      <trkpt lat="47.57295" lon="-2.23679">
        <ele>26.3</ele>
        <time>2021-08-14T08:54:56Z</time>
      </trkpt>
      <trkpt lat="47.57294" lon="-2.2368">
        <ele>26.4</ele>
        <time>2021-08-14T08:54:57Z</time>
      </trkpt>
      <trkpt lat="47.57291" lon="-2.23681">
        <ele>26.6</ele>
        <time>2021-08-14T08:54:59Z</time>
      </trkpt>
      <trkpt lat="47.57289" lon="-2.23682">
        <ele>26.8</ele>
        <time>2021-08-14T08:55:00Z</time>
      </trkpt>
      <trkpt lat="47.57286" lon="-2.23684">
        <ele>26.9</ele>
        <time>2021-08-14T08:55:02Z</time>
      </trkpt>
      <trkpt lat="47.57283" lon="-2.23685">
        <ele>27.2</ele>
        <time>2021-08-14T08:55:03Z</time>
      </trkpt>
      <trkpt lat="47.57278" lon="-2.23688">
        <ele>27.4</ele>
        <time>2021-08-14T08:55:05Z</time>
      </trkpt>
      <trkpt lat="47.57277" lon="-2.23688">
        <ele>27.6</ele>
        <time>2021-08-14T08:55:06Z</time>
      </trkpt>
      <trkpt lat="47.57275" lon="-2.23689">
        <ele>27.7</ele>
        <time>2021-08-14T08:55:07Z</time>
      </trkpt>
      <trkpt lat="47.57272" lon="-2.23691">
        <ele>27.9</ele>
        <time>2021-08-14T08:55:09Z</time>
      </trkpt>
      <trkpt lat="47.57269" lon="-2.23692">
        <ele>28</ele>
        <time>2021-08-14T08:55:10Z</time>
      </trkpt>
      <trkpt lat="47.57266" lon="-2.23694">
        <ele>28.2</ele>
        <time>2021-08-14T08:55:12Z</time>
      </trkpt>
      <trkpt lat="47.57263" lon="-2.23695">
        <ele>28.4</ele>
        <time>2021-08-14T08:55:13Z</time>
      </trkpt>
      <trkpt lat="47.5726" lon="-2.23697">
        <ele>28.6</ele>
        <time>2021-08-14T08:55:15Z</time>
      </trkpt>
      <trkpt lat="47.57257" lon="-2.23698">
        <ele>28.7</ele>
        <time>2021-08-14T08:55:16Z</time>
      </trkpt>
      <trkpt lat="47.57254" lon="-2.23699">
        <ele>28.9</ele>
        <time>2021-08-14T08:55:17Z</time>
      </trkpt>
      <trkpt lat="47.57252" lon="-2.237">
        <ele>29</ele>
        <time>2021-08-14T08:55:18Z</time>
      </trkpt>
      <trkpt lat="47.57249" lon="-2.237">
        <ele>29.2</ele>
        <time>2021-08-14T08:55:20Z</time>
      </trkpt>
      <trkpt lat="47.57247" lon="-2.23701">
        <ele>29.3</ele>
        <time>2021-08-14T08:55:21Z</time>
      </trkpt>
      <trkpt lat="47.57243" lon="-2.23703">
        <ele>29.5</ele>
        <time>2021-08-14T08:55:23Z</time>
      </trkpt>
      <trkpt lat="47.57239" lon="-2.23704">
        <ele>29.6</ele>
        <time>2021-08-14T08:55:24Z</time>
      </trkpt>
      <trkpt lat="47.57238" lon="-2.23704">
        <ele>29.7</ele>
        <time>2021-08-14T08:55:25Z</time>
      </trkpt>
      <trkpt lat="47.57236" lon="-2.23705">
        <ele>29.8</ele>
        <time>2021-08-14T08:55:26Z</time>
      </trkpt>
      <trkpt lat="47.57233" lon="-2.23707">
        <ele>29.9</ele>
        <time>2021-08-14T08:55:28Z</time>
      </trkpt>
      <trkpt lat="47.5723" lon="-2.23708">
        <ele>30</ele>
        <time>2021-08-14T08:55:29Z</time>
      </trkpt>
      <trkpt lat="47.57226" lon="-2.2371">
        <ele>30.2</ele>
        <time>2021-08-14T08:55:31Z</time>
      </trkpt>
      <trkpt lat="47.57224" lon="-2.23711">
        <ele>30.3</ele>
        <time>2021-08-14T08:55:32Z</time>
      </trkpt>
      <trkpt lat="47.5722" lon="-2.23713">
        <ele>30.5</ele>
        <time>2021-08-14T08:55:34Z</time>
      </trkpt>
      <trkpt lat="47.57218" lon="-2.23714">
        <ele>30.6</ele>
        <time>2021-08-14T08:55:35Z</time>
      </trkpt>
      <trkpt lat="47.57215" lon="-2.23716">
        <ele>30.7</ele>
        <time>2021-08-14T08:55:37Z</time>
      </trkpt>
      <trkpt lat="47.57212" lon="-2.23717">
        <ele>30.8</ele>
        <time>2021-08-14T08:55:38Z</time>
      </trkpt>
      <trkpt lat="47.57208" lon="-2.23719">
        <ele>31</ele>
        <time>2021-08-14T08:55:40Z</time>
      </trkpt>
      <trkpt lat="47.57203" lon="-2.23722">
        <ele>31.2</ele>
        <time>2021-08-14T08:55:42Z</time>
      </trkpt>
      <trkpt lat="47.572" lon="-2.23723">
        <ele>31.3</ele>
        <time>2021-08-14T08:55:43Z</time>
      </trkpt>
      <trkpt lat="47.57199" lon="-2.23723">
        <ele>31.4</ele>
        <time>2021-08-14T08:55:44Z</time>
      </trkpt>
      <trkpt lat="47.57196" lon="-2.23725">
        <ele>31.5</ele>
        <time>2021-08-14T08:55:45Z</time>
      </trkpt>
      <trkpt lat="47.57195" lon="-2.23725">
        <ele>31.6</ele>
        <time>2021-08-14T08:55:46Z</time>
      </trkpt>
      <trkpt lat="47.5719" lon="-2.23727">
        <ele>31.7</ele>
        <time>2021-08-14T08:55:48Z</time>
      </trkpt>
      <trkpt lat="47.57188" lon="-2.23728">
        <ele>31.8</ele>
        <time>2021-08-14T08:55:49Z</time>
      </trkpt>
      <trkpt lat="47.57184" lon="-2.2373">
        <ele>32</ele>
        <time>2021-08-14T08:55:51Z</time>
      </trkpt>
      <trkpt lat="47.57181" lon="-2.23732">
        <ele>32.1</ele>
        <time>2021-08-14T08:55:53Z</time>
      </trkpt>
      <trkpt lat="47.57178" lon="-2.23733">
        <ele>32.2</ele>
        <time>2021-08-14T08:55:54Z</time>
      </trkpt>
      <trkpt lat="47.57176" lon="-2.23734">
        <ele>32.3</ele>
        <time>2021-08-14T08:55:55Z</time>
      </trkpt>
      <trkpt lat="47.57172" lon="-2.23736">
        <ele>32.4</ele>
        <time>2021-08-14T08:55:57Z</time>
      </trkpt>
      <trkpt lat="47.57169" lon="-2.23736">
        <ele>32.5</ele>
        <time>2021-08-14T08:55:58Z</time>
      </trkpt>
      <trkpt lat="47.57166" lon="-2.23738">
        <ele>32.6</ele>
        <time>2021-08-14T08:56:00Z</time>
      </trkpt>
      <trkpt lat="47.57163" lon="-2.23739">
        <ele>32.7</ele>
        <time>2021-08-14T08:56:01Z</time>
      </trkpt>
      <trkpt lat="47.57161" lon="-2.2374">
        <ele>32.8</ele>
        <time>2021-08-14T08:56:02Z</time>
      </trkpt>
      <trkpt lat="47.57159" lon="-2.23742">
        <ele>32.9</ele>
        <time>2021-08-14T08:56:04Z</time>
      </trkpt>
      <trkpt lat="47.57155" lon="-2.23744">
        <ele>33</ele>
        <time>2021-08-14T08:56:05Z</time>
      </trkpt>
      <trkpt lat="47.57154" lon="-2.23745">
        <ele>33</ele>
        <time>2021-08-14T08:56:06Z</time>
      </trkpt>
      <trkpt lat="47.57151" lon="-2.23746">
        <ele>33.1</ele>
        <time>2021-08-14T08:56:07Z</time>
      </trkpt>
      <trkpt lat="47.57148" lon="-2.23747">
        <ele>33.2</ele>
        <time>2021-08-14T08:56:09Z</time>
      </trkpt>
      <trkpt lat="47.57145" lon="-2.23749">
        <ele>33.3</ele>
        <time>2021-08-14T08:56:10Z</time>
      </trkpt>
      <trkpt lat="47.57141" lon="-2.23751">
        <ele>33.4</ele>
        <time>2021-08-14T08:56:12Z</time>
      </trkpt>
      <trkpt lat="47.57137" lon="-2.23753">
        <ele>33.5</ele>
        <time>2021-08-14T08:56:14Z</time>
      </trkpt>
      <trkpt lat="47.57133" lon="-2.23755">
        <ele>33.6</ele>
        <time>2021-08-14T08:56:16Z</time>
      </trkpt>
      <trkpt lat="47.5713" lon="-2.23756">
        <ele>33.7</ele>
        <time>2021-08-14T08:56:17Z</time>
      </trkpt>
      <trkpt lat="47.57127" lon="-2.23758">
        <ele>33.8</ele>
        <time>2021-08-14T08:56:19Z</time>
      </trkpt>
      <trkpt lat="47.57124" lon="-2.23759">
        <ele>33.8</ele>
        <time>2021-08-14T08:56:20Z</time>
      </trkpt>
      <trkpt lat="47.5712" lon="-2.23761">
        <ele>33.9</ele>
        <time>2021-08-14T08:56:21Z</time>
      </trkpt>
      <trkpt lat="47.57119" lon="-2.23762">
        <ele>34</ele>
        <time>2021-08-14T08:56:22Z</time>
      </trkpt>
      <trkpt lat="47.57115" lon="-2.23763">
        <ele>34.1</ele>
        <time>2021-08-14T08:56:24Z</time>
      </trkpt>
      <trkpt lat="47.57113" lon="-2.23765">
        <ele>34.1</ele>
        <time>2021-08-14T08:56:25Z</time>
      </trkpt>
      <trkpt lat="47.57109" lon="-2.23767">
        <ele>34.2</ele>
        <time>2021-08-14T08:56:27Z</time>
      </trkpt>
      <trkpt lat="47.57107" lon="-2.23768">
        <ele>34.3</ele>
        <time>2021-08-14T08:56:28Z</time>
      </trkpt>
      <trkpt lat="47.57103" lon="-2.2377">
        <ele>34.4</ele>
        <time>2021-08-14T08:56:30Z</time>
      </trkpt>
      <trkpt lat="47.571" lon="-2.23773">
        <ele>34.6</ele>
        <time>2021-08-14T08:56:31Z</time>
      </trkpt>
      <trkpt lat="47.57099" lon="-2.23773">
        <ele>34.6</ele>
        <time>2021-08-14T08:56:32Z</time>
      </trkpt>
      <trkpt lat="47.57095" lon="-2.23775">
        <ele>34.7</ele>
        <time>2021-08-14T08:56:33Z</time>
      </trkpt>
      <trkpt lat="47.57094" lon="-2.23776">
        <ele>34.8</ele>
        <time>2021-08-14T08:56:34Z</time>
      </trkpt>
      <trkpt lat="47.5709" lon="-2.23779">
        <ele>34.9</ele>
        <time>2021-08-14T08:56:36Z</time>
      </trkpt>
      <trkpt lat="47.57088" lon="-2.23782">
        <ele>35</ele>
        <time>2021-08-14T08:56:37Z</time>
      </trkpt>
      <trkpt lat="47.57084" lon="-2.23785">
        <ele>35.2</ele>
        <time>2021-08-14T08:56:39Z</time>
      </trkpt>
      <trkpt lat="47.57083" lon="-2.23786">
        <ele>35.2</ele>
        <time>2021-08-14T08:56:40Z</time>
      </trkpt>
      <trkpt lat="47.57081" lon="-2.23787">
        <ele>35.3</ele>
        <time>2021-08-14T08:56:41Z</time>
      </trkpt>
      <trkpt lat="47.57079" lon="-2.2379">
        <ele>35.4</ele>
        <time>2021-08-14T08:56:42Z</time>
      </trkpt>
      <trkpt lat="47.57075" lon="-2.23793">
        <ele>35.5</ele>
        <time>2021-08-14T08:56:44Z</time>
      </trkpt>
      <trkpt lat="47.57072" lon="-2.23795">
        <ele>35.6</ele>
        <time>2021-08-14T08:56:46Z</time>
      </trkpt>
      <trkpt lat="47.57069" lon="-2.23798">
        <ele>35.7</ele>
        <time>2021-08-14T08:56:47Z</time>
      </trkpt>
      <trkpt lat="47.57064" lon="-2.23801">
        <ele>35.9</ele>
        <time>2021-08-14T08:56:49Z</time>
      </trkpt>
      <trkpt lat="47.57063" lon="-2.23803">
        <ele>36</ele>
        <time>2021-08-14T08:56:50Z</time>
      </trkpt>
      <trkpt lat="47.57061" lon="-2.23804">
        <ele>36.1</ele>
        <time>2021-08-14T08:56:51Z</time>
      </trkpt>
      <trkpt lat="47.57058" lon="-2.23807">
        <ele>36.2</ele>
        <time>2021-08-14T08:56:52Z</time>
      </trkpt>
      <trkpt lat="47.57057" lon="-2.23808">
        <ele>36.3</ele>
        <time>2021-08-14T08:56:53Z</time>
      </trkpt>
      <trkpt lat="47.57054" lon="-2.2381">
        <ele>36.4</ele>
        <time>2021-08-14T08:56:55Z</time>
      </trkpt>
      <trkpt lat="47.57051" lon="-2.23813">
        <ele>36.5</ele>
        <time>2021-08-14T08:56:56Z</time>
      </trkpt>
      <trkpt lat="47.57048" lon="-2.23816">
        <ele>36.6</ele>
        <time>2021-08-14T08:56:57Z</time>
      </trkpt>
      <trkpt lat="47.57048" lon="-2.23817">
        <ele>36.7</ele>
        <time>2021-08-14T08:56:58Z</time>
      </trkpt>
      <trkpt lat="47.57045" lon="-2.23822">
        <ele>36.8</ele>
        <time>2021-08-14T08:57:00Z</time>
      </trkpt>
      <trkpt lat="47.57043" lon="-2.23826">
        <ele>37</ele>
        <time>2021-08-14T08:57:01Z</time>
      </trkpt>
      <trkpt lat="47.57042" lon="-2.2383">
        <ele>37.1</ele>
        <time>2021-08-14T08:57:03Z</time>
      </trkpt>
      <trkpt lat="47.57041" lon="-2.23835">
        <ele>37.3</ele>
        <time>2021-08-14T08:57:04Z</time>
      </trkpt>
      <trkpt lat="47.5704" lon="-2.23839">
        <ele>37.5</ele>
        <time>2021-08-14T08:57:06Z</time>
      </trkpt>
      <trkpt lat="47.5704" lon="-2.23844">
        <ele>37.6</ele>
        <time>2021-08-14T08:57:07Z</time>
      </trkpt>
      <trkpt lat="47.57039" lon="-2.23848">
        <ele>37.8</ele>
        <time>2021-08-14T08:57:08Z</time>
      </trkpt>
      <trkpt lat="47.57038" lon="-2.23854">
        <ele>37.9</ele>
        <time>2021-08-14T08:57:10Z</time>
      </trkpt>
      <trkpt lat="47.57037" lon="-2.23858">
        <ele>38.1</ele>
        <time>2021-08-14T08:57:11Z</time>
      </trkpt>
      <trkpt lat="47.57036" lon="-2.23865">
        <ele>38.3</ele>
        <time>2021-08-14T08:57:13Z</time>
      </trkpt>
      <trkpt lat="47.57035" lon="-2.2387">
        <ele>38.5</ele>
        <time>2021-08-14T08:57:14Z</time>
      </trkpt>
      <trkpt lat="47.57035" lon="-2.23871">
        <ele>38.6</ele>
        <time>2021-08-14T08:57:15Z</time>
      </trkpt>
      <trkpt lat="47.57035" lon="-2.23877">
        <ele>38.8</ele>
        <time>2021-08-14T08:57:17Z</time>
      </trkpt>
      <trkpt lat="47.57035" lon="-2.23883">
        <ele>39</ele>
        <time>2021-08-14T08:57:18Z</time>
      </trkpt>
      <trkpt lat="47.57034" lon="-2.23885">
        <ele>39</ele>
        <time>2021-08-14T08:57:19Z</time>
      </trkpt>
      <trkpt lat="47.57034" lon="-2.23888">
        <ele>39.1</ele>
        <time>2021-08-14T08:57:20Z</time>
      </trkpt>
      <trkpt lat="47.57034" lon="-2.23895">
        <ele>39.3</ele>
        <time>2021-08-14T08:57:22Z</time>
      </trkpt>
      <trkpt lat="47.57034" lon="-2.239">
        <ele>39.5</ele>
        <time>2021-08-14T08:57:24Z</time>
      </trkpt>
      <trkpt lat="47.57033" lon="-2.23905">
        <ele>39.7</ele>
        <time>2021-08-14T08:57:25Z</time>
      </trkpt>
      <trkpt lat="47.57033" lon="-2.23912">
        <ele>39.9</ele>
        <time>2021-08-14T08:57:27Z</time>
      </trkpt>
      <trkpt lat="47.57033" lon="-2.23916">
        <ele>40</ele>
        <time>2021-08-14T08:57:28Z</time>
      </trkpt>
      <trkpt lat="47.57032" lon="-2.23921">
        <ele>40.1</ele>
        <time>2021-08-14T08:57:30Z</time>
      </trkpt>
      <trkpt lat="47.57032" lon="-2.23926">
        <ele>40.3</ele>
        <time>2021-08-14T08:57:31Z</time>
      </trkpt>
      <trkpt lat="47.57031" lon="-2.23931">
        <ele>40.5</ele>
        <time>2021-08-14T08:57:33Z</time>
      </trkpt>
      <trkpt lat="47.57031" lon="-2.23936">
        <ele>40.6</ele>
        <time>2021-08-14T08:57:34Z</time>
      </trkpt>
      <trkpt lat="47.5703" lon="-2.23942">
        <ele>40.8</ele>
        <time>2021-08-14T08:57:36Z</time>
      </trkpt>
      <trkpt lat="47.57029" lon="-2.23946">
        <ele>40.9</ele>
        <time>2021-08-14T08:57:37Z</time>
      </trkpt>
      <trkpt lat="47.57029" lon="-2.23949">
        <ele>41</ele>
        <time>2021-08-14T08:57:38Z</time>
      </trkpt>
      <trkpt lat="47.57028" lon="-2.23956">
        <ele>41.3</ele>
        <time>2021-08-14T08:57:40Z</time>
      </trkpt>
      <trkpt lat="47.57027" lon="-2.2396">
        <ele>41.4</ele>
        <time>2021-08-14T08:57:41Z</time>
      </trkpt>
      <trkpt lat="47.57027" lon="-2.23965">
        <ele>41.6</ele>
        <time>2021-08-14T08:57:43Z</time>
      </trkpt>
      <trkpt lat="47.57026" lon="-2.23969">
        <ele>41.8</ele>
        <time>2021-08-14T08:57:44Z</time>
      </trkpt>
      <trkpt lat="47.57025" lon="-2.23974">
        <ele>41.9</ele>
        <time>2021-08-14T08:57:46Z</time>
      </trkpt>
      <trkpt lat="47.57025" lon="-2.23979">
        <ele>42.1</ele>
        <time>2021-08-14T08:57:47Z</time>
      </trkpt>
      <trkpt lat="47.57025" lon="-2.23984">
        <ele>42.3</ele>
        <time>2021-08-14T08:57:49Z</time>
      </trkpt>
      <trkpt lat="47.57025" lon="-2.23988">
        <ele>42.5</ele>
        <time>2021-08-14T08:57:50Z</time>
      </trkpt>
      <trkpt lat="47.57024" lon="-2.23992">
        <ele>42.6</ele>
        <time>2021-08-14T08:57:51Z</time>
      </trkpt>
      <trkpt lat="47.57024" lon="-2.23995">
        <ele>42.7</ele>
        <time>2021-08-14T08:57:52Z</time>
      </trkpt>
      <trkpt lat="47.57023" lon="-2.24003">
        <ele>43</ele>
        <time>2021-08-14T08:57:54Z</time>
      </trkpt>
      <trkpt lat="47.57023" lon="-2.24009">
        <ele>43.3</ele>
        <time>2021-08-14T08:57:56Z</time>
      </trkpt>
      <trkpt lat="47.57022" lon="-2.24014">
        <ele>43.5</ele>
        <time>2021-08-14T08:57:58Z</time>
      </trkpt>
      <trkpt lat="47.57022" lon="-2.2402">
        <ele>43.7</ele>
        <time>2021-08-14T08:57:59Z</time>
      </trkpt>
      <trkpt lat="47.57022" lon="-2.24022">
        <ele>43.8</ele>
        <time>2021-08-14T08:58:00Z</time>
      </trkpt>
      <trkpt lat="47.57021" lon="-2.24026">
        <ele>44</ele>
        <time>2021-08-14T08:58:01Z</time>
      </trkpt>
      <trkpt lat="47.57021" lon="-2.2403">
        <ele>44.2</ele>
        <time>2021-08-14T08:58:03Z</time>
      </trkpt>
      <trkpt lat="47.57021" lon="-2.24035">
        <ele>44.4</ele>
        <time>2021-08-14T08:58:04Z</time>
      </trkpt>
      <trkpt lat="47.5702" lon="-2.2404">
        <ele>44.6</ele>
        <time>2021-08-14T08:58:06Z</time>
      </trkpt>
      <trkpt lat="47.5702" lon="-2.24045">
        <ele>44.9</ele>
        <time>2021-08-14T08:58:07Z</time>
      </trkpt>
      <trkpt lat="47.5702" lon="-2.24049">
        <ele>45.1</ele>
        <time>2021-08-14T08:58:08Z</time>
      </trkpt>
      <trkpt lat="47.5702" lon="-2.24054">
        <ele>45.3</ele>
        <time>2021-08-14T08:58:10Z</time>
      </trkpt>
      <trkpt lat="47.57019" lon="-2.24059">
        <ele>45.5</ele>
        <time>2021-08-14T08:58:11Z</time>
      </trkpt>
      <trkpt lat="47.57018" lon="-2.24066">
        <ele>45.9</ele>
        <time>2021-08-14T08:58:13Z</time>
      </trkpt>
      <trkpt lat="47.57018" lon="-2.24069">
        <ele>46</ele>
        <time>2021-08-14T08:58:14Z</time>
      </trkpt>
      <trkpt lat="47.57018" lon="-2.24072">
        <ele>46.1</ele>
        <time>2021-08-14T08:58:15Z</time>
      </trkpt>
      <trkpt lat="47.57017" lon="-2.24077">
        <ele>46.4</ele>
        <time>2021-08-14T08:58:16Z</time>
      </trkpt>
      <trkpt lat="47.57017" lon="-2.24079">
        <ele>46.4</ele>
        <time>2021-08-14T08:58:17Z</time>
      </trkpt>
      <trkpt lat="47.57016" lon="-2.24084">
        <ele>46.7</ele>
        <time>2021-08-14T08:58:18Z</time>
      </trkpt>
      <trkpt lat="47.57016" lon="-2.24086">
        <ele>46.8</ele>
        <time>2021-08-14T08:58:19Z</time>
      </trkpt>
      <trkpt lat="47.57016" lon="-2.24091">
        <ele>47</ele>
        <time>2021-08-14T08:58:21Z</time>
      </trkpt>
      <trkpt lat="47.57016" lon="-2.24095">
        <ele>47.2</ele>
        <time>2021-08-14T08:58:22Z</time>
      </trkpt>
      <trkpt lat="47.57015" lon="-2.241">
        <ele>47.4</ele>
        <time>2021-08-14T08:58:24Z</time>
      </trkpt>
      <trkpt lat="47.57015" lon="-2.24105">
        <ele>47.6</ele>
        <time>2021-08-14T08:58:25Z</time>
      </trkpt>
      <trkpt lat="47.57013" lon="-2.24111">
        <ele>47.8</ele>
        <time>2021-08-14T08:58:27Z</time>
      </trkpt>
      <trkpt lat="47.57013" lon="-2.24116">
        <ele>48.1</ele>
        <time>2021-08-14T08:58:28Z</time>
      </trkpt>
      <trkpt lat="47.57013" lon="-2.24118">
        <ele>48.1</ele>
        <time>2021-08-14T08:58:29Z</time>
      </trkpt>
      <trkpt lat="47.57012" lon="-2.24124">
        <ele>48.4</ele>
        <time>2021-08-14T08:58:31Z</time>
      </trkpt>
      <trkpt lat="47.57012" lon="-2.2413">
        <ele>48.6</ele>
        <time>2021-08-14T08:58:33Z</time>
      </trkpt>
      <trkpt lat="47.57011" lon="-2.24134">
        <ele>48.8</ele>
        <time>2021-08-14T08:58:34Z</time>
      </trkpt>
      <trkpt lat="47.57011" lon="-2.24139">
        <ele>49</ele>
        <time>2021-08-14T08:58:35Z</time>
      </trkpt>
      <trkpt lat="47.57011" lon="-2.2414">
        <ele>49.1</ele>
        <time>2021-08-14T08:58:36Z</time>
      </trkpt>
      <trkpt lat="47.5701" lon="-2.24146">
        <ele>49.3</ele>
        <time>2021-08-14T08:58:38Z</time>
      </trkpt>
      <trkpt lat="47.57009" lon="-2.24151">
        <ele>49.6</ele>
        <time>2021-08-14T08:58:39Z</time>
      </trkpt>
      <trkpt lat="47.57009" lon="-2.24153">
        <ele>49.7</ele>
        <time>2021-08-14T08:58:40Z</time>
      </trkpt>
      <trkpt lat="47.57007" lon="-2.24158">
        <ele>49.9</ele>
        <time>2021-08-14T08:58:42Z</time>
      </trkpt>
      <trkpt lat="47.57006" lon="-2.24162">
        <ele>50.1</ele>
        <time>2021-08-14T08:58:43Z</time>
      </trkpt>
      <trkpt lat="47.57003" lon="-2.24166">
        <ele>50.4</ele>
        <time>2021-08-14T08:58:45Z</time>
      </trkpt>
      <trkpt lat="47.57001" lon="-2.2417">
        <ele>50.6</ele>
        <time>2021-08-14T08:58:46Z</time>
      </trkpt>
      <trkpt lat="47.56998" lon="-2.24174">
        <ele>50.9</ele>
        <time>2021-08-14T08:58:48Z</time>
      </trkpt>
      <trkpt lat="47.56996" lon="-2.24176">
        <ele>51.1</ele>
        <time>2021-08-14T08:58:49Z</time>
      </trkpt>
      <trkpt lat="47.56993" lon="-2.24179">
        <ele>51.3</ele>
        <time>2021-08-14T08:58:51Z</time>
      </trkpt>
      <trkpt lat="47.56991" lon="-2.24181">
        <ele>51.6</ele>
        <time>2021-08-14T08:58:52Z</time>
      </trkpt>
      <trkpt lat="47.56988" lon="-2.24183">
        <ele>51.8</ele>
        <time>2021-08-14T08:58:54Z</time>
      </trkpt>
      <trkpt lat="47.56986" lon="-2.24185">
        <ele>52.1</ele>
        <time>2021-08-14T08:58:55Z</time>
      </trkpt>
      <trkpt lat="47.56982" lon="-2.24187">
        <ele>52.4</ele>
        <time>2021-08-14T08:58:57Z</time>
      </trkpt>
      <trkpt lat="47.5698" lon="-2.24188">
        <ele>52.5</ele>
        <time>2021-08-14T08:58:58Z</time>
      </trkpt>
      <trkpt lat="47.56978" lon="-2.24189">
        <ele>52.7</ele>
        <time>2021-08-14T08:58:59Z</time>
      </trkpt>
      <trkpt lat="47.56975" lon="-2.2419">
        <ele>52.9</ele>
        <time>2021-08-14T08:59:01Z</time>
      </trkpt>
      <trkpt lat="47.56974" lon="-2.24191">
        <ele>53</ele>
        <time>2021-08-14T08:59:02Z</time>
      </trkpt>
      <trkpt lat="47.56972" lon="-2.24192">
        <ele>53.1</ele>
        <time>2021-08-14T08:59:03Z</time>
      </trkpt>
      <trkpt lat="47.5697" lon="-2.24193">
        <ele>53.3</ele>
        <time>2021-08-14T08:59:05Z</time>
      </trkpt>
      <trkpt lat="47.56969" lon="-2.24194">
        <ele>53.4</ele>
        <time>2021-08-14T08:59:06Z</time>
      </trkpt>
      <trkpt lat="47.56966" lon="-2.24194">
        <ele>53.6</ele>
        <time>2021-08-14T08:59:08Z</time>
      </trkpt>
      <trkpt lat="47.56964" lon="-2.24196">
        <ele>53.7</ele>
        <time>2021-08-14T08:59:10Z</time>
      </trkpt>
      <trkpt lat="47.56961" lon="-2.24197">
        <ele>53.9</ele>
        <time>2021-08-14T08:59:12Z</time>
      </trkpt>
      <trkpt lat="47.5696" lon="-2.24197">
        <ele>54</ele>
        <time>2021-08-14T08:59:13Z</time>
      </trkpt>
      <trkpt lat="47.56959" lon="-2.24199">
        <ele>54.1</ele>
        <time>2021-08-14T08:59:14Z</time>
      </trkpt>
      <trkpt lat="47.56957" lon="-2.242">
        <ele>54.3</ele>
        <time>2021-08-14T08:59:16Z</time>
      </trkpt>
      <trkpt lat="47.56955" lon="-2.24201">
        <ele>54.4</ele>
        <time>2021-08-14T08:59:17Z</time>
      </trkpt>
      <trkpt lat="47.56953" lon="-2.24202">
        <ele>54.4</ele>
        <time>2021-08-14T08:59:18Z</time>
      </trkpt>
      <trkpt lat="47.56952" lon="-2.24203">
        <ele>54.5</ele>
        <time>2021-08-14T08:59:19Z</time>
      </trkpt>
      <trkpt lat="47.56949" lon="-2.24204">
        <ele>54.7</ele>
        <time>2021-08-14T08:59:21Z</time>
      </trkpt>
      <trkpt lat="47.56947" lon="-2.24205">
        <ele>54.8</ele>
        <time>2021-08-14T08:59:22Z</time>
      </trkpt>
      <trkpt lat="47.56916" lon="-2.2422">
        <ele>54.6</ele>
      </trkpt>
      <trkpt lat="47.56913" lon="-2.24209">
        <ele>54.5</ele>
      </trkpt>
      <trkpt lat="47.56913" lon="-2.24207">
        <ele>55.3</ele>
        <time>2021-08-14T12:36:39Z</time>
      </trkpt>
      <trkpt lat="47.56913" lon="-2.24203">
        <ele>55.3</ele>
        <time>2021-08-14T12:36:41Z</time>
      </trkpt>
      <trkpt lat="47.56912" lon="-2.24199">
        <ele>55.4</ele>
        <time>2021-08-14T12:36:42Z</time>
      </trkpt>
      <trkpt lat="47.56911" lon="-2.24194">
        <ele>55.4</ele>
        <time>2021-08-14T12:36:44Z</time>
      </trkpt>
      <trkpt lat="47.56909" lon="-2.24188">
        <ele>55.4</ele>
        <time>2021-08-14T12:36:45Z</time>
      </trkpt>
      <trkpt lat="47.56908" lon="-2.24185">
        <ele>55.4</ele>
        <time>2021-08-14T12:36:46Z</time>
      </trkpt>
      <trkpt lat="47.56907" lon="-2.24178">
        <ele>55.4</ele>
        <time>2021-08-14T12:36:48Z</time>
      </trkpt>
      <trkpt lat="47.56906" lon="-2.24173">
        <ele>55.5</ele>
        <time>2021-08-14T12:36:49Z</time>
      </trkpt>
      <trkpt lat="47.56905" lon="-2.2417">
        <ele>55.5</ele>
        <time>2021-08-14T12:36:50Z</time>
      </trkpt>
      <trkpt lat="47.56903" lon="-2.24163">
        <ele>55.5</ele>
        <time>2021-08-14T12:36:52Z</time>
      </trkpt>
      <trkpt lat="47.56903" lon="-2.24158">
        <ele>55.5</ele>
        <time>2021-08-14T12:36:54Z</time>
      </trkpt>
      <trkpt lat="47.56903" lon="-2.24162">
        <ele>55.6</ele>
        <time>2021-08-14T12:36:56Z</time>
      </trkpt>
      <trkpt lat="47.56903" lon="-2.24164">
        <ele>55.6</ele>
        <time>2021-08-14T12:36:57Z</time>
      </trkpt>
      <trkpt lat="47.56903" lon="-2.24163">
        <ele>55.6</ele>
        <time>2021-08-14T12:36:59Z</time>
      </trkpt>
      <trkpt lat="47.56902" lon="-2.24161">
        <ele>55.6</ele>
        <time>2021-08-14T12:37:01Z</time>
      </trkpt>
      <trkpt lat="47.56902" lon="-2.24159">
        <ele>55.6</ele>
        <time>2021-08-14T12:37:03Z</time>
      </trkpt>
      <trkpt lat="47.56902" lon="-2.24157">
        <ele>55.6</ele>
        <time>2021-08-14T12:37:04Z</time>
      </trkpt>
      <trkpt lat="47.56901" lon="-2.24155">
        <ele>55.6</ele>
        <time>2021-08-14T12:37:19Z</time>
      </trkpt>
      <trkpt lat="47.56901" lon="-2.24153">
        <ele>55.6</ele>
        <time>2021-08-14T12:37:21Z</time>
      </trkpt>
      <trkpt lat="47.56901" lon="-2.24151">
        <ele>55.6</ele>
        <time>2021-08-14T12:37:22Z</time>
      </trkpt>
      <trkpt lat="47.569" lon="-2.24147">
        <ele>55.6</ele>
        <time>2021-08-14T12:37:23Z</time>
      </trkpt>
      <trkpt lat="47.56899" lon="-2.24144">
        <ele>55.6</ele>
        <time>2021-08-14T12:37:25Z</time>
      </trkpt>
      <trkpt lat="47.56898" lon="-2.24139">
        <ele>55.6</ele>
        <time>2021-08-14T12:37:26Z</time>
      </trkpt>
      <trkpt lat="47.56897" lon="-2.24136">
        <ele>55.6</ele>
        <time>2021-08-14T12:37:27Z</time>
      </trkpt>
      <trkpt lat="47.56896" lon="-2.24129">
        <ele>55.7</ele>
        <time>2021-08-14T12:37:29Z</time>
      </trkpt>
      <trkpt lat="47.56895" lon="-2.24125">
        <ele>55.7</ele>
        <time>2021-08-14T12:37:30Z</time>
      </trkpt>
      <trkpt lat="47.56893" lon="-2.24117">
        <ele>55.7</ele>
        <time>2021-08-14T12:37:32Z</time>
      </trkpt>
      <trkpt lat="47.56892" lon="-2.24113">
        <ele>55.7</ele>
        <time>2021-08-14T12:37:33Z</time>
      </trkpt>
      <trkpt lat="47.56891" lon="-2.24107">
        <ele>55.7</ele>
        <time>2021-08-14T12:37:35Z</time>
      </trkpt>
      <trkpt lat="47.5689" lon="-2.24102">
        <ele>55.7</ele>
        <time>2021-08-14T12:37:36Z</time>
      </trkpt>
      <trkpt lat="47.56888" lon="-2.24097">
        <ele>55.8</ele>
        <time>2021-08-14T12:37:37Z</time>
      </trkpt>
      <trkpt lat="47.56887" lon="-2.24092">
        <ele>55.8</ele>
        <time>2021-08-14T12:37:38Z</time>
      </trkpt>
      <trkpt lat="47.56886" lon="-2.24085">
        <ele>55.8</ele>
        <time>2021-08-14T12:37:40Z</time>
      </trkpt>
      <trkpt lat="47.56884" lon="-2.24079">
        <ele>55.8</ele>
        <time>2021-08-14T12:37:41Z</time>
      </trkpt>
      <trkpt lat="47.56883" lon="-2.24072">
        <ele>55.8</ele>
        <time>2021-08-14T12:37:43Z</time>
      </trkpt>
      <trkpt lat="47.56882" lon="-2.24066">
        <ele>55.8</ele>
        <time>2021-08-14T12:37:44Z</time>
      </trkpt>
      <trkpt lat="47.5688" lon="-2.24061">
        <ele>55.8</ele>
        <time>2021-08-14T12:37:45Z</time>
      </trkpt>
      <trkpt lat="47.5688" lon="-2.24056">
        <ele>55.8</ele>
        <time>2021-08-14T12:37:46Z</time>
      </trkpt>
      <trkpt lat="47.56879" lon="-2.2405">
        <ele>55.8</ele>
        <time>2021-08-14T12:37:47Z</time>
      </trkpt>
      <trkpt lat="47.56877" lon="-2.24042">
        <ele>55.8</ele>
        <time>2021-08-14T12:37:49Z</time>
      </trkpt>
      <trkpt lat="47.56875" lon="-2.24035">
        <ele>55.9</ele>
        <time>2021-08-14T12:37:51Z</time>
      </trkpt>
      <trkpt lat="47.56874" lon="-2.24029">
        <ele>55.9</ele>
        <time>2021-08-14T12:37:52Z</time>
      </trkpt>
      <trkpt lat="47.56872" lon="-2.24023">
        <ele>55.9</ele>
        <time>2021-08-14T12:37:53Z</time>
      </trkpt>
      <trkpt lat="47.5687" lon="-2.24015">
        <ele>55.9</ele>
        <time>2021-08-14T12:37:55Z</time>
      </trkpt>
      <trkpt lat="47.56869" lon="-2.24008">
        <ele>56</ele>
        <time>2021-08-14T12:37:56Z</time>
      </trkpt>
      <trkpt lat="47.56868" lon="-2.24003">
        <ele>56</ele>
        <time>2021-08-14T12:37:57Z</time>
      </trkpt>
      <trkpt lat="47.56866" lon="-2.23994">
        <ele>56</ele>
        <time>2021-08-14T12:37:59Z</time>
      </trkpt>
      <trkpt lat="47.56865" lon="-2.23988">
        <ele>56</ele>
        <time>2021-08-14T12:38:00Z</time>
      </trkpt>
      <trkpt lat="47.56864" lon="-2.23982">
        <ele>56.1</ele>
        <time>2021-08-14T12:38:02Z</time>
      </trkpt>
      <trkpt lat="47.56862" lon="-2.23976">
        <ele>56.2</ele>
        <time>2021-08-14T12:38:03Z</time>
      </trkpt>
      <trkpt lat="47.5686" lon="-2.23968">
        <ele>56.2</ele>
        <time>2021-08-14T12:38:05Z</time>
      </trkpt>
      <trkpt lat="47.56859" lon="-2.23961">
        <ele>56.3</ele>
        <time>2021-08-14T12:38:06Z</time>
      </trkpt>
      <trkpt lat="47.56857" lon="-2.23953">
        <ele>56.4</ele>
        <time>2021-08-14T12:38:08Z</time>
      </trkpt>
      <trkpt lat="47.56857" lon="-2.23947">
        <ele>56.4</ele>
        <time>2021-08-14T12:38:09Z</time>
      </trkpt>
      <trkpt lat="47.56857" lon="-2.23945">
        <ele>56.5</ele>
        <time>2021-08-14T12:38:10Z</time>
      </trkpt>
      <trkpt lat="47.56856" lon="-2.23941">
        <ele>56.5</ele>
        <time>2021-08-14T12:38:12Z</time>
      </trkpt>
      <trkpt lat="47.56855" lon="-2.23936">
        <ele>56.6</ele>
        <time>2021-08-14T12:38:13Z</time>
      </trkpt>
      <trkpt lat="47.56854" lon="-2.23931">
        <ele>56.6</ele>
        <time>2021-08-14T12:38:14Z</time>
      </trkpt>
      <trkpt lat="47.56853" lon="-2.23927">
        <ele>56.7</ele>
        <time>2021-08-14T12:38:15Z</time>
      </trkpt>
      <trkpt lat="47.56852" lon="-2.23923">
        <ele>56.7</ele>
        <time>2021-08-14T12:38:17Z</time>
      </trkpt>
      <trkpt lat="47.56851" lon="-2.2392">
        <ele>56.8</ele>
        <time>2021-08-14T12:38:18Z</time>
      </trkpt>
      <trkpt lat="47.5685" lon="-2.23916">
        <ele>56.8</ele>
        <time>2021-08-14T12:38:19Z</time>
      </trkpt>
      <trkpt lat="47.56848" lon="-2.23912">
        <ele>56.9</ele>
        <time>2021-08-14T12:38:21Z</time>
      </trkpt>
      <trkpt lat="47.56847" lon="-2.23908">
        <ele>56.9</ele>
        <time>2021-08-14T12:38:22Z</time>
      </trkpt>
      <trkpt lat="47.56845" lon="-2.23904">
        <ele>57</ele>
        <time>2021-08-14T12:38:23Z</time>
      </trkpt>
      <trkpt lat="47.56843" lon="-2.23899">
        <ele>57</ele>
        <time>2021-08-14T12:38:25Z</time>
      </trkpt>
      <trkpt lat="47.56842" lon="-2.23895">
        <ele>57.1</ele>
        <time>2021-08-14T12:38:26Z</time>
      </trkpt>
      <trkpt lat="47.56842" lon="-2.23888">
        <ele>57.2</ele>
        <time>2021-08-14T12:38:28Z</time>
      </trkpt>
      <trkpt lat="47.56841" lon="-2.23882">
        <ele>57.2</ele>
        <time>2021-08-14T12:38:30Z</time>
      </trkpt>
      <trkpt lat="47.5684" lon="-2.23876">
        <ele>57.2</ele>
        <time>2021-08-14T12:38:31Z</time>
      </trkpt>
      <trkpt lat="47.56839" lon="-2.23874">
        <ele>57.2</ele>
        <time>2021-08-14T12:38:32Z</time>
      </trkpt>
      <trkpt lat="47.56837" lon="-2.23869">
        <ele>57.2</ele>
        <time>2021-08-14T12:38:34Z</time>
      </trkpt>
      <trkpt lat="47.56834" lon="-2.23865">
        <ele>57.1</ele>
        <time>2021-08-14T12:38:35Z</time>
      </trkpt>
      <trkpt lat="47.56833" lon="-2.23864">
        <ele>57.1</ele>
        <time>2021-08-14T12:38:36Z</time>
      </trkpt>
      <trkpt lat="47.56832" lon="-2.23859">
        <ele>57</ele>
        <time>2021-08-14T12:38:37Z</time>
      </trkpt>
      <trkpt lat="47.56832" lon="-2.23857">
        <ele>57</ele>
        <time>2021-08-14T12:38:38Z</time>
      </trkpt>
      <trkpt lat="47.56832" lon="-2.23851">
        <ele>56.9</ele>
        <time>2021-08-14T12:38:40Z</time>
      </trkpt>
      <trkpt lat="47.56832" lon="-2.23846">
        <ele>56.8</ele>
        <time>2021-08-14T12:38:41Z</time>
      </trkpt>
      <trkpt lat="47.56832" lon="-2.23844">
        <ele>56.8</ele>
        <time>2021-08-14T12:38:42Z</time>
      </trkpt>
      <trkpt lat="47.5683" lon="-2.23837">
        <ele>56.6</ele>
        <time>2021-08-14T12:38:44Z</time>
      </trkpt>
      <trkpt lat="47.56829" lon="-2.23834">
        <ele>56.5</ele>
        <time>2021-08-14T12:38:45Z</time>
      </trkpt>
      <trkpt lat="47.56828" lon="-2.23831">
        <ele>56.5</ele>
        <time>2021-08-14T12:38:46Z</time>
      </trkpt>
      <trkpt lat="47.56826" lon="-2.23825">
        <ele>56.3</ele>
        <time>2021-08-14T12:38:48Z</time>
      </trkpt>
      <trkpt lat="47.56824" lon="-2.2382">
        <ele>56.2</ele>
        <time>2021-08-14T12:38:49Z</time>
      </trkpt>
      <trkpt lat="47.56823" lon="-2.23816">
        <ele>56.1</ele>
        <time>2021-08-14T12:38:50Z</time>
      </trkpt>
      <trkpt lat="47.56821" lon="-2.23808">
        <ele>55.9</ele>
        <time>2021-08-14T12:38:52Z</time>
      </trkpt>
      <trkpt lat="47.5682" lon="-2.23803">
        <ele>55.8</ele>
        <time>2021-08-14T12:38:53Z</time>
      </trkpt>
      <trkpt lat="47.5682" lon="-2.23798">
        <ele>55.7</ele>
        <time>2021-08-14T12:38:54Z</time>
      </trkpt>
      <trkpt lat="47.56819" lon="-2.23792">
        <ele>55.5</ele>
        <time>2021-08-14T12:38:56Z</time>
      </trkpt>
      <trkpt lat="47.56819" lon="-2.23787">
        <ele>55.4</ele>
        <time>2021-08-14T12:38:57Z</time>
      </trkpt>
      <trkpt lat="47.56818" lon="-2.23781">
        <ele>55.2</ele>
        <time>2021-08-14T12:38:58Z</time>
      </trkpt>
      <trkpt lat="47.56817" lon="-2.23775">
        <ele>55</ele>
        <time>2021-08-14T12:39:00Z</time>
      </trkpt>
      <trkpt lat="47.56816" lon="-2.23769">
        <ele>54.9</ele>
        <time>2021-08-14T12:39:01Z</time>
      </trkpt>
      <trkpt lat="47.56815" lon="-2.23763">
        <ele>54.7</ele>
        <time>2021-08-14T12:39:02Z</time>
      </trkpt>
      <trkpt lat="47.56811" lon="-2.23756">
        <ele>54.5</ele>
        <time>2021-08-14T12:39:04Z</time>
      </trkpt>
      <trkpt lat="47.56809" lon="-2.2375">
        <ele>54.3</ele>
        <time>2021-08-14T12:39:05Z</time>
      </trkpt>
      <trkpt lat="47.56806" lon="-2.23745">
        <ele>54.2</ele>
        <time>2021-08-14T12:39:06Z</time>
      </trkpt>
      <trkpt lat="47.56805" lon="-2.2374">
        <ele>54</ele>
        <time>2021-08-14T12:39:07Z</time>
      </trkpt>
      <trkpt lat="47.56804" lon="-2.23735">
        <ele>53.9</ele>
        <time>2021-08-14T12:39:08Z</time>
      </trkpt>
      <trkpt lat="47.56803" lon="-2.2373">
        <ele>53.8</ele>
        <time>2021-08-14T12:39:09Z</time>
      </trkpt>
      <trkpt lat="47.56801" lon="-2.23722">
        <ele>53.7</ele>
        <time>2021-08-14T12:39:11Z</time>
      </trkpt>
      <trkpt lat="47.568" lon="-2.23717">
        <ele>53.6</ele>
        <time>2021-08-14T12:39:12Z</time>
      </trkpt>
      <trkpt lat="47.56798" lon="-2.23708">
        <ele>53.4</ele>
        <time>2021-08-14T12:39:14Z</time>
      </trkpt>
      <trkpt lat="47.56796" lon="-2.237">
        <ele>53.2</ele>
        <time>2021-08-14T12:39:16Z</time>
      </trkpt>
      <trkpt lat="47.56794" lon="-2.23694">
        <ele>53</ele>
        <time>2021-08-14T12:39:17Z</time>
      </trkpt>
      <trkpt lat="47.56791" lon="-2.23685">
        <ele>52.7</ele>
        <time>2021-08-14T12:39:19Z</time>
      </trkpt>
      <trkpt lat="47.56791" lon="-2.23677">
        <ele>52.4</ele>
        <time>2021-08-14T12:39:20Z</time>
      </trkpt>
      <trkpt lat="47.56796" lon="-2.23671">
        <ele>51.9</ele>
        <time>2021-08-14T12:39:22Z</time>
      </trkpt>
      <trkpt lat="47.568" lon="-2.2367">
        <ele>51.5</ele>
        <time>2021-08-14T12:39:23Z</time>
      </trkpt>
      <trkpt lat="47.56803" lon="-2.23671">
        <ele>51.1</ele>
        <time>2021-08-14T12:39:24Z</time>
      </trkpt>
      <trkpt lat="47.56806" lon="-2.23672">
        <ele>50.7</ele>
        <time>2021-08-14T12:39:25Z</time>
      </trkpt>
      <trkpt lat="47.56808" lon="-2.23672">
        <ele>50.4</ele>
        <time>2021-08-14T12:39:26Z</time>
      </trkpt>
      <trkpt lat="47.56811" lon="-2.23672">
        <ele>49.9</ele>
        <time>2021-08-14T12:39:28Z</time>
      </trkpt>
      <trkpt lat="47.56812" lon="-2.23671">
        <ele>49.7</ele>
        <time>2021-08-14T12:39:29Z</time>
      </trkpt>
      <trkpt lat="47.56814" lon="-2.23671">
        <ele>49.4</ele>
        <time>2021-08-14T12:39:31Z</time>
      </trkpt>
      <trkpt lat="47.56816" lon="-2.2367">
        <ele>49.1</ele>
        <time>2021-08-14T12:39:32Z</time>
      </trkpt>
      <trkpt lat="47.56817" lon="-2.2367">
        <ele>48.9</ele>
        <time>2021-08-14T12:39:33Z</time>
      </trkpt>
      <trkpt lat="47.56817" lon="-2.2367">
        <ele>48.8</ele>
        <time>2021-08-14T12:39:35Z</time>
      </trkpt>
      <trkpt lat="47.5682" lon="-2.2367">
        <ele>48.4</ele>
        <time>2021-08-14T12:39:36Z</time>
      </trkpt>
      <trkpt lat="47.56823" lon="-2.2367">
        <ele>47.8</ele>
        <time>2021-08-14T12:39:37Z</time>
      </trkpt>
      <trkpt lat="47.56824" lon="-2.23671">
        <ele>47.6</ele>
        <time>2021-08-14T12:39:38Z</time>
      </trkpt>
      <trkpt lat="47.56827" lon="-2.23674">
        <ele>46.9</ele>
        <time>2021-08-14T12:39:40Z</time>
      </trkpt>
      <trkpt lat="47.5683" lon="-2.23678">
        <ele>46.3</ele>
        <time>2021-08-14T12:39:41Z</time>
      </trkpt>
      <trkpt lat="47.56835" lon="-2.23685">
        <ele>45.2</ele>
        <time>2021-08-14T12:39:43Z</time>
      </trkpt>
      <trkpt lat="47.56842" lon="-2.23695">
        <ele>43.6</ele>
        <time>2021-08-14T12:39:45Z</time>
      </trkpt>
      <trkpt lat="47.56846" lon="-2.23698">
        <ele>42.9</ele>
        <time>2021-08-14T12:39:46Z</time>
      </trkpt>
      <trkpt lat="47.5685" lon="-2.23698">
        <ele>42.3</ele>
        <time>2021-08-14T12:39:47Z</time>
      </trkpt>
      <trkpt lat="47.56857" lon="-2.23696">
        <ele>41.2</ele>
        <time>2021-08-14T12:39:49Z</time>
      </trkpt>
      <trkpt lat="47.56864" lon="-2.23693">
        <ele>40.1</ele>
        <time>2021-08-14T12:39:50Z</time>
      </trkpt>
      <trkpt lat="47.56871" lon="-2.23692">
        <ele>39</ele>
        <time>2021-08-14T12:39:51Z</time>
      </trkpt>
      <trkpt lat="47.56876" lon="-2.23692">
        <ele>38.2</ele>
        <time>2021-08-14T12:39:52Z</time>
      </trkpt>
      <trkpt lat="47.56886" lon="-2.23689">
        <ele>36.7</ele>
        <time>2021-08-14T12:39:54Z</time>
      </trkpt>
      <trkpt lat="47.56894" lon="-2.23682">
        <ele>35.4</ele>
        <time>2021-08-14T12:39:56Z</time>
      </trkpt>
      <trkpt lat="47.569" lon="-2.23677">
        <ele>34.2</ele>
        <time>2021-08-14T12:39:57Z</time>
      </trkpt>
      <trkpt lat="47.56907" lon="-2.23668">
        <ele>32.8</ele>
        <time>2021-08-14T12:39:58Z</time>
      </trkpt>
      <trkpt lat="47.56915" lon="-2.23658">
        <ele>31.6</ele>
        <time>2021-08-14T12:40:00Z</time>
      </trkpt>
      <trkpt lat="47.56922" lon="-2.23653">
        <ele>30.9</ele>
        <time>2021-08-14T12:40:02Z</time>
      </trkpt>
      <trkpt lat="47.56928" lon="-2.23653">
        <ele>30.4</ele>
        <time>2021-08-14T12:40:03Z</time>
      </trkpt>
      <trkpt lat="47.56932" lon="-2.23651">
        <ele>30.2</ele>
        <time>2021-08-14T12:40:04Z</time>
      </trkpt>
      <trkpt lat="47.56937" lon="-2.23648">
        <ele>30</ele>
        <time>2021-08-14T12:40:06Z</time>
      </trkpt>
      <trkpt lat="47.56941" lon="-2.23647">
        <ele>29.7</ele>
        <time>2021-08-14T12:40:07Z</time>
      </trkpt>
      <trkpt lat="47.56944" lon="-2.23646">
        <ele>29.7</ele>
        <time>2021-08-14T12:40:08Z</time>
      </trkpt>
      <trkpt lat="47.56945" lon="-2.23645">
        <ele>29.7</ele>
        <time>2021-08-14T12:40:09Z</time>
      </trkpt>
      <trkpt lat="47.56949" lon="-2.23645">
        <ele>29.7</ele>
        <time>2021-08-14T12:40:11Z</time>
      </trkpt>
      <trkpt lat="47.56952" lon="-2.23643">
        <ele>29.6</ele>
        <time>2021-08-14T12:40:12Z</time>
      </trkpt>
      <trkpt lat="47.56954" lon="-2.23642">
        <ele>29.6</ele>
        <time>2021-08-14T12:40:13Z</time>
      </trkpt>
      <trkpt lat="47.56956" lon="-2.2364">
        <ele>29.6</ele>
        <time>2021-08-14T12:40:15Z</time>
      </trkpt>
      <trkpt lat="47.56956" lon="-2.23641">
        <ele>29.6</ele>
        <time>2021-08-14T12:40:16Z</time>
      </trkpt>
      <trkpt lat="47.56956" lon="-2.23641">
        <ele>29.6</ele>
        <time>2021-08-14T12:40:17Z</time>
      </trkpt>
      <trkpt lat="47.56956" lon="-2.23641">
        <ele>29.6</ele>
        <time>2021-08-14T12:40:19Z</time>
      </trkpt>
      <trkpt lat="47.56956" lon="-2.23641">
        <ele>29.6</ele>
        <time>2021-08-14T12:40:21Z</time>
      </trkpt>
      <trkpt lat="47.56956" lon="-2.23641">
        <ele>29.6</ele>
        <time>2021-08-14T12:40:22Z</time>
      </trkpt>
      <trkpt lat="47.56958" lon="-2.23639">
        <ele>29.6</ele>
        <time>2021-08-14T12:40:24Z</time>
      </trkpt>
      <trkpt lat="47.56963" lon="-2.23633">
        <ele>29.6</ele>
        <time>2021-08-14T12:41:15Z</time>
      </trkpt>
      <trkpt lat="47.56965" lon="-2.23632">
        <ele>29.6</ele>
        <time>2021-08-14T12:41:17Z</time>
      </trkpt>
      <trkpt lat="47.56965" lon="-2.23632">
        <ele>29.6</ele>
        <time>2021-08-14T12:41:19Z</time>
      </trkpt>
      <trkpt lat="47.56966" lon="-2.23633">
        <ele>29.6</ele>
        <time>2021-08-14T12:41:20Z</time>
      </trkpt>
      <trkpt lat="47.56967" lon="-2.23632">
        <ele>29.6</ele>
        <time>2021-08-14T12:41:23Z</time>
      </trkpt>
      <trkpt lat="47.56968" lon="-2.23631">
        <ele>29.6</ele>
        <time>2021-08-14T12:41:24Z</time>
      </trkpt>
      <trkpt lat="47.56971" lon="-2.2363">
        <ele>29.7</ele>
        <time>2021-08-14T12:41:26Z</time>
      </trkpt>
      <trkpt lat="47.56974" lon="-2.2363">
        <ele>29.7</ele>
        <time>2021-08-14T12:41:27Z</time>
      </trkpt>
      <trkpt lat="47.56975" lon="-2.2363">
        <ele>29.7</ele>
        <time>2021-08-14T12:41:28Z</time>
      </trkpt>
      <trkpt lat="47.56978" lon="-2.2363">
        <ele>29.7</ele>
        <time>2021-08-14T12:41:29Z</time>
      </trkpt>
      <trkpt lat="47.56979" lon="-2.23629">
        <ele>29.7</ele>
        <time>2021-08-14T12:41:30Z</time>
      </trkpt>
      <trkpt lat="47.56982" lon="-2.23629">
        <ele>29.7</ele>
        <time>2021-08-14T12:41:32Z</time>
      </trkpt>
      <trkpt lat="47.56983" lon="-2.23629">
        <ele>29.7</ele>
        <time>2021-08-14T12:41:33Z</time>
      </trkpt>
      <trkpt lat="47.56985" lon="-2.23629">
        <ele>29.7</ele>
        <time>2021-08-14T12:41:35Z</time>
      </trkpt>
      <trkpt lat="47.56986" lon="-2.23628">
        <ele>29.7</ele>
        <time>2021-08-14T12:41:36Z</time>
      </trkpt>
      <trkpt lat="47.56988" lon="-2.23628">
        <ele>29.7</ele>
        <time>2021-08-14T12:41:37Z</time>
      </trkpt>
      <trkpt lat="47.56988" lon="-2.23628">
        <ele>29.7</ele>
        <time>2021-08-14T12:41:38Z</time>
      </trkpt>
      <trkpt lat="47.5699" lon="-2.23627">
        <ele>29.7</ele>
        <time>2021-08-14T12:41:40Z</time>
      </trkpt>
      <trkpt lat="47.56991" lon="-2.23626">
        <ele>29.7</ele>
        <time>2021-08-14T12:41:41Z</time>
      </trkpt>
      <trkpt lat="47.56992" lon="-2.23626">
        <ele>29.7</ele>
        <time>2021-08-14T12:41:42Z</time>
      </trkpt>
      <trkpt lat="47.56994" lon="-2.23626">
        <ele>29.7</ele>
        <time>2021-08-14T12:41:43Z</time>
      </trkpt>
      <trkpt lat="47.56995" lon="-2.23627">
        <ele>29.7</ele>
        <time>2021-08-14T12:41:45Z</time>
      </trkpt>
      <trkpt lat="47.56998" lon="-2.23626">
        <ele>29.7</ele>
        <time>2021-08-14T12:41:47Z</time>
      </trkpt>
      <trkpt lat="47.57" lon="-2.23623">
        <ele>29.6</ele>
        <time>2021-08-14T12:41:48Z</time>
      </trkpt>
      <trkpt lat="47.57" lon="-2.23622">
        <ele>29.6</ele>
        <time>2021-08-14T12:41:49Z</time>
      </trkpt>
      <trkpt lat="47.57001" lon="-2.23622">
        <ele>29.6</ele>
        <time>2021-08-14T12:41:50Z</time>
      </trkpt>
      <trkpt lat="47.57001" lon="-2.23623">
        <ele>29.6</ele>
        <time>2021-08-14T12:41:51Z</time>
      </trkpt>
      <trkpt lat="47.57" lon="-2.23623">
        <ele>29.6</ele>
        <time>2021-08-14T12:41:53Z</time>
      </trkpt>
      <trkpt lat="47.57" lon="-2.23624">
        <ele>29.6</ele>
        <time>2021-08-14T12:41:54Z</time>
      </trkpt>
      <trkpt lat="47.57" lon="-2.23624">
        <ele>29.6</ele>
        <time>2021-08-14T12:41:56Z</time>
      </trkpt>
      <trkpt lat="47.57" lon="-2.23624">
        <ele>29.6</ele>
        <time>2021-08-14T12:41:58Z</time>
      </trkpt>
      <trkpt lat="47.57" lon="-2.23624">
        <ele>29.6</ele>
        <time>2021-08-14T12:41:59Z</time>
      </trkpt>
      <trkpt lat="47.57004" lon="-2.23617">
        <ele>29.3</ele>
        <time>2021-08-14T12:42:06Z</time>
      </trkpt>
      <trkpt lat="47.57005" lon="-2.23613">
        <ele>29.1</ele>
        <time>2021-08-14T12:42:07Z</time>
      </trkpt>
      <trkpt lat="47.57004" lon="-2.23604">
        <ele>28.7</ele>
        <time>2021-08-14T12:42:09Z</time>
      </trkpt>
      <trkpt lat="47.57003" lon="-2.23591">
        <ele>27.9</ele>
        <time>2021-08-14T12:42:10Z</time>
      </trkpt>
      <trkpt lat="47.57003" lon="-2.23582">
        <ele>27.4</ele>
        <time>2021-08-14T12:42:11Z</time>
      </trkpt>
      <trkpt lat="47.57002" lon="-2.23564">
        <ele>26.2</ele>
        <time>2021-08-14T12:42:13Z</time>
      </trkpt>
      <trkpt lat="47.57001" lon="-2.23554">
        <ele>25.5</ele>
        <time>2021-08-14T12:42:14Z</time>
      </trkpt>
      <trkpt lat="47.57" lon="-2.23544">
        <ele>24.8</ele>
        <time>2021-08-14T12:42:15Z</time>
      </trkpt>
      <trkpt lat="47.56998" lon="-2.23522">
        <ele>23.4</ele>
        <time>2021-08-14T12:42:17Z</time>
      </trkpt>
      <trkpt lat="47.56996" lon="-2.23499">
        <ele>21.8</ele>
        <time>2021-08-14T12:42:19Z</time>
      </trkpt>
      <trkpt lat="47.56995" lon="-2.23486">
        <ele>21</ele>
        <time>2021-08-14T12:42:20Z</time>
      </trkpt>
      <trkpt lat="47.56993" lon="-2.2346">
        <ele>19.5</ele>
        <time>2021-08-14T12:42:22Z</time>
      </trkpt>
      <trkpt lat="47.56991" lon="-2.23433">
        <ele>18.2</ele>
        <time>2021-08-14T12:42:24Z</time>
      </trkpt>
      <trkpt lat="47.56988" lon="-2.23407">
        <ele>17.2</ele>
        <time>2021-08-14T12:42:26Z</time>
      </trkpt>
      <trkpt lat="47.56987" lon="-2.23394">
        <ele>16.8</ele>
        <time>2021-08-14T12:42:27Z</time>
      </trkpt>
      <trkpt lat="47.56984" lon="-2.23369">
        <ele>16.2</ele>
        <time>2021-08-14T12:42:29Z</time>
      </trkpt>
      <trkpt lat="47.56983" lon="-2.23357">
        <ele>15.9</ele>
        <time>2021-08-14T12:42:30Z</time>
      </trkpt>
      <trkpt lat="47.56981" lon="-2.23334">
        <ele>15.5</ele>
        <time>2021-08-14T12:42:32Z</time>
      </trkpt>
      <trkpt lat="47.5698" lon="-2.23323">
        <ele>15.3</ele>
        <time>2021-08-14T12:42:33Z</time>
      </trkpt>
      <trkpt lat="47.56978" lon="-2.23302">
        <ele>15.1</ele>
        <time>2021-08-14T12:42:35Z</time>
      </trkpt>
      <trkpt lat="47.56977" lon="-2.23292">
        <ele>15</ele>
        <time>2021-08-14T12:42:36Z</time>
      </trkpt>
      <trkpt lat="47.56976" lon="-2.23282">
        <ele>15</ele>
        <time>2021-08-14T12:42:37Z</time>
      </trkpt>
      <trkpt lat="47.56975" lon="-2.23263">
        <ele>15.1</ele>
        <time>2021-08-14T12:42:39Z</time>
      </trkpt>
      <trkpt lat="47.56973" lon="-2.23246">
        <ele>15.2</ele>
        <time>2021-08-14T12:42:41Z</time>
      </trkpt>
      <trkpt lat="47.56972" lon="-2.23238">
        <ele>15.3</ele>
        <time>2021-08-14T12:42:42Z</time>
      </trkpt>
      <trkpt lat="47.5697" lon="-2.23225">
        <ele>15.5</ele>
        <time>2021-08-14T12:42:44Z</time>
      </trkpt>
      <trkpt lat="47.56969" lon="-2.23218">
        <ele>15.6</ele>
        <time>2021-08-14T12:42:45Z</time>
      </trkpt>
      <trkpt lat="47.56968" lon="-2.23208">
        <ele>15.9</ele>
        <time>2021-08-14T12:42:47Z</time>
      </trkpt>
      <trkpt lat="47.56967" lon="-2.23204">
        <ele>16</ele>
        <time>2021-08-14T12:42:48Z</time>
      </trkpt>
      <trkpt lat="47.56967" lon="-2.23196">
        <ele>16.1</ele>
        <time>2021-08-14T12:42:50Z</time>
      </trkpt>
      <trkpt lat="47.56965" lon="-2.23186">
        <ele>16.4</ele>
        <time>2021-08-14T12:42:52Z</time>
      </trkpt>
      <trkpt lat="47.56965" lon="-2.23183">
        <ele>16.5</ele>
        <time>2021-08-14T12:42:53Z</time>
      </trkpt>
      <trkpt lat="47.56964" lon="-2.23181">
        <ele>16.5</ele>
        <time>2021-08-14T12:42:54Z</time>
      </trkpt>
      <trkpt lat="47.56963" lon="-2.23173">
        <ele>16.7</ele>
        <time>2021-08-14T12:42:56Z</time>
      </trkpt>
      <trkpt lat="47.56962" lon="-2.23166">
        <ele>16.8</ele>
        <time>2021-08-14T12:42:58Z</time>
      </trkpt>
      <trkpt lat="47.56962" lon="-2.23161">
        <ele>16.9</ele>
        <time>2021-08-14T12:42:59Z</time>
      </trkpt>
      <trkpt lat="47.56961" lon="-2.23159">
        <ele>17</ele>
        <time>2021-08-14T12:43:00Z</time>
      </trkpt>
      <trkpt lat="47.5696" lon="-2.23152">
        <ele>17.1</ele>
        <time>2021-08-14T12:43:02Z</time>
      </trkpt>
      <trkpt lat="47.56959" lon="-2.23145">
        <ele>17.3</ele>
        <time>2021-08-14T12:43:04Z</time>
      </trkpt>
      <trkpt lat="47.56958" lon="-2.23138">
        <ele>17.4</ele>
        <time>2021-08-14T12:43:06Z</time>
      </trkpt>
      <trkpt lat="47.56958" lon="-2.23134">
        <ele>17.5</ele>
        <time>2021-08-14T12:43:07Z</time>
      </trkpt>
      <trkpt lat="47.56957" lon="-2.23127">
        <ele>17.6</ele>
        <time>2021-08-14T12:43:09Z</time>
      </trkpt>
      <trkpt lat="47.56956" lon="-2.23121">
        <ele>17.8</ele>
        <time>2021-08-14T12:43:10Z</time>
      </trkpt>
      <trkpt lat="47.56956" lon="-2.23119">
        <ele>17.8</ele>
        <time>2021-08-14T12:43:11Z</time>
      </trkpt>
      <trkpt lat="47.56955" lon="-2.23114">
        <ele>18</ele>
        <time>2021-08-14T12:43:12Z</time>
      </trkpt>
      <trkpt lat="47.56955" lon="-2.23112">
        <ele>18</ele>
        <time>2021-08-14T12:43:13Z</time>
      </trkpt>
      <trkpt lat="47.56954" lon="-2.23105">
        <ele>18.2</ele>
        <time>2021-08-14T12:43:15Z</time>
      </trkpt>
      <trkpt lat="47.56953" lon="-2.23097">
        <ele>18.4</ele>
        <time>2021-08-14T12:43:17Z</time>
      </trkpt>
      <trkpt lat="47.56953" lon="-2.23094">
        <ele>18.5</ele>
        <time>2021-08-14T12:43:18Z</time>
      </trkpt>
      <trkpt lat="47.56952" lon="-2.23087">
        <ele>18.6</ele>
        <time>2021-08-14T12:43:20Z</time>
      </trkpt>
      <trkpt lat="47.56951" lon="-2.23081">
        <ele>18.8</ele>
        <time>2021-08-14T12:43:21Z</time>
      </trkpt>
      <trkpt lat="47.56951" lon="-2.23079">
        <ele>18.8</ele>
        <time>2021-08-14T12:43:22Z</time>
      </trkpt>
      <trkpt lat="47.5695" lon="-2.23071">
        <ele>19</ele>
        <time>2021-08-14T12:43:24Z</time>
      </trkpt>
      <trkpt lat="47.5695" lon="-2.23065">
        <ele>19.1</ele>
        <time>2021-08-14T12:43:26Z</time>
      </trkpt>
      <trkpt lat="47.56949" lon="-2.23059">
        <ele>19.3</ele>
        <time>2021-08-14T12:43:28Z</time>
      </trkpt>
      <trkpt lat="47.56948" lon="-2.23053">
        <ele>19.4</ele>
        <time>2021-08-14T12:43:29Z</time>
      </trkpt>
      <trkpt lat="47.56947" lon="-2.23051">
        <ele>19.5</ele>
        <time>2021-08-14T12:43:30Z</time>
      </trkpt>
      <trkpt lat="47.56946" lon="-2.23045">
        <ele>19.6</ele>
        <time>2021-08-14T12:43:32Z</time>
      </trkpt>
      <trkpt lat="47.56945" lon="-2.23038">
        <ele>19.8</ele>
        <time>2021-08-14T12:43:34Z</time>
      </trkpt>
      <trkpt lat="47.56944" lon="-2.23031">
        <ele>20</ele>
        <time>2021-08-14T12:43:36Z</time>
      </trkpt>
      <trkpt lat="47.56943" lon="-2.23023">
        <ele>20.2</ele>
        <time>2021-08-14T12:43:38Z</time>
      </trkpt>
      <trkpt lat="47.56942" lon="-2.2302">
        <ele>20.3</ele>
        <time>2021-08-14T12:43:39Z</time>
      </trkpt>
      <trkpt lat="47.56941" lon="-2.23014">
        <ele>20.5</ele>
        <time>2021-08-14T12:43:41Z</time>
      </trkpt>
      <trkpt lat="47.56941" lon="-2.23009">
        <ele>20.7</ele>
        <time>2021-08-14T12:43:42Z</time>
      </trkpt>
      <trkpt lat="47.5694" lon="-2.23007">
        <ele>20.7</ele>
        <time>2021-08-14T12:43:43Z</time>
      </trkpt>
      <trkpt lat="47.56939" lon="-2.23002">
        <ele>20.9</ele>
        <time>2021-08-14T12:43:45Z</time>
      </trkpt>
      <trkpt lat="47.56938" lon="-2.22999">
        <ele>21.1</ele>
        <time>2021-08-14T12:43:46Z</time>
      </trkpt>
      <trkpt lat="47.56938" lon="-2.22994">
        <ele>21.3</ele>
        <time>2021-08-14T12:43:48Z</time>
      </trkpt>
      <trkpt lat="47.56937" lon="-2.22988">
        <ele>21.5</ele>
        <time>2021-08-14T12:43:50Z</time>
      </trkpt>
      <trkpt lat="47.56937" lon="-2.22986">
        <ele>21.6</ele>
        <time>2021-08-14T12:43:52Z</time>
      </trkpt>
      <trkpt lat="47.56936" lon="-2.22984">
        <ele>21.7</ele>
        <time>2021-08-14T12:43:53Z</time>
      </trkpt>
      <trkpt lat="47.56936" lon="-2.22982">
        <ele>21.8</ele>
        <time>2021-08-14T12:43:54Z</time>
      </trkpt>
      <trkpt lat="47.56935" lon="-2.22977">
        <ele>22</ele>
        <time>2021-08-14T12:43:56Z</time>
      </trkpt>
      <trkpt lat="47.56935" lon="-2.22976">
        <ele>22.1</ele>
        <time>2021-08-14T12:43:57Z</time>
      </trkpt>
      <trkpt lat="47.56934" lon="-2.22972">
        <ele>22.3</ele>
        <time>2021-08-14T12:43:59Z</time>
      </trkpt>
      <trkpt lat="47.56934" lon="-2.22969">
        <ele>22.4</ele>
        <time>2021-08-14T12:44:00Z</time>
      </trkpt>
      <trkpt lat="47.56934" lon="-2.22968">
        <ele>22.5</ele>
        <time>2021-08-14T12:44:01Z</time>
      </trkpt>
      <trkpt lat="47.56933" lon="-2.22966">
        <ele>22.6</ele>
        <time>2021-08-14T12:44:02Z</time>
      </trkpt>
      <trkpt lat="47.56933" lon="-2.22962">
        <ele>22.8</ele>
        <time>2021-08-14T12:44:04Z</time>
      </trkpt>
      <trkpt lat="47.56932" lon="-2.2296">
        <ele>22.9</ele>
        <time>2021-08-14T12:44:05Z</time>
      </trkpt>
      <trkpt lat="47.56932" lon="-2.22958">
        <ele>23</ele>
        <time>2021-08-14T12:44:06Z</time>
      </trkpt>
      <trkpt lat="47.56932" lon="-2.22954">
        <ele>23.2</ele>
        <time>2021-08-14T12:44:08Z</time>
      </trkpt>
      <trkpt lat="47.56931" lon="-2.2295">
        <ele>23.5</ele>
        <time>2021-08-14T12:44:10Z</time>
      </trkpt>
      <trkpt lat="47.56931" lon="-2.22948">
        <ele>23.6</ele>
        <time>2021-08-14T12:44:11Z</time>
      </trkpt>
      <trkpt lat="47.5693" lon="-2.22945">
        <ele>23.8</ele>
        <time>2021-08-14T12:44:13Z</time>
      </trkpt>
      <trkpt lat="47.5693" lon="-2.22941">
        <ele>24</ele>
        <time>2021-08-14T12:44:15Z</time>
      </trkpt>
      <trkpt lat="47.56929" lon="-2.22936">
        <ele>24.3</ele>
        <time>2021-08-14T12:44:17Z</time>
      </trkpt>
      <trkpt lat="47.56929" lon="-2.22934">
        <ele>24.4</ele>
        <time>2021-08-14T12:44:18Z</time>
      </trkpt>
      <trkpt lat="47.56929" lon="-2.22931">
        <ele>24.6</ele>
        <time>2021-08-14T12:44:20Z</time>
      </trkpt>
      <trkpt lat="47.56928" lon="-2.22929">
        <ele>24.7</ele>
        <time>2021-08-14T12:44:21Z</time>
      </trkpt>
      <trkpt lat="47.56928" lon="-2.22926">
        <ele>24.8</ele>
        <time>2021-08-14T12:44:22Z</time>
      </trkpt>
      <trkpt lat="47.56927" lon="-2.22923">
        <ele>25</ele>
        <time>2021-08-14T12:44:24Z</time>
      </trkpt>
      <trkpt lat="47.56927" lon="-2.2292">
        <ele>25.2</ele>
        <time>2021-08-14T12:44:26Z</time>
      </trkpt>
      <trkpt lat="47.56926" lon="-2.22916">
        <ele>25.5</ele>
        <time>2021-08-14T12:44:28Z</time>
      </trkpt>
      <trkpt lat="47.56926" lon="-2.22913">
        <ele>25.7</ele>
        <time>2021-08-14T12:44:30Z</time>
      </trkpt>
      <trkpt lat="47.56925" lon="-2.22909">
        <ele>25.9</ele>
        <time>2021-08-14T12:44:32Z</time>
      </trkpt>
      <trkpt lat="47.56925" lon="-2.22905">
        <ele>26.1</ele>
        <time>2021-08-14T12:44:34Z</time>
      </trkpt>
      <trkpt lat="47.56924" lon="-2.22903">
        <ele>26.3</ele>
        <time>2021-08-14T12:44:35Z</time>
      </trkpt>
      <trkpt lat="47.56924" lon="-2.229">
        <ele>26.5</ele>
        <time>2021-08-14T12:44:37Z</time>
      </trkpt>
      <trkpt lat="47.56923" lon="-2.22896">
        <ele>26.7</ele>
        <time>2021-08-14T12:44:39Z</time>
      </trkpt>
      <trkpt lat="47.56923" lon="-2.22894">
        <ele>26.8</ele>
        <time>2021-08-14T12:44:40Z</time>
      </trkpt>
      <trkpt lat="47.56923" lon="-2.22889">
        <ele>27.1</ele>
        <time>2021-08-14T12:44:42Z</time>
      </trkpt>
      <trkpt lat="47.56923" lon="-2.22888">
        <ele>27.1</ele>
        <time>2021-08-14T12:44:43Z</time>
      </trkpt>
      <trkpt lat="47.56922" lon="-2.22885">
        <ele>27.3</ele>
        <time>2021-08-14T12:44:45Z</time>
      </trkpt>
      <trkpt lat="47.56922" lon="-2.22881">
        <ele>27.6</ele>
        <time>2021-08-14T12:44:47Z</time>
      </trkpt>
      <trkpt lat="47.56921" lon="-2.22878">
        <ele>27.7</ele>
        <time>2021-08-14T12:44:48Z</time>
      </trkpt>
      <trkpt lat="47.56921" lon="-2.22875">
        <ele>27.9</ele>
        <time>2021-08-14T12:44:50Z</time>
      </trkpt>
      <trkpt lat="47.56921" lon="-2.22873">
        <ele>28</ele>
        <time>2021-08-14T12:44:51Z</time>
      </trkpt>
      <trkpt lat="47.5692" lon="-2.2287">
        <ele>28.2</ele>
        <time>2021-08-14T12:44:53Z</time>
      </trkpt>
      <trkpt lat="47.56919" lon="-2.22867">
        <ele>28.4</ele>
        <time>2021-08-14T12:44:54Z</time>
      </trkpt>
      <trkpt lat="47.56919" lon="-2.22864">
        <ele>28.6</ele>
        <time>2021-08-14T12:44:56Z</time>
      </trkpt>
      <trkpt lat="47.56919" lon="-2.22859">
        <ele>28.8</ele>
        <time>2021-08-14T12:44:58Z</time>
      </trkpt>
      <trkpt lat="47.56918" lon="-2.22858">
        <ele>28.9</ele>
        <time>2021-08-14T12:44:59Z</time>
      </trkpt>
      <trkpt lat="47.56918" lon="-2.22854">
        <ele>29.1</ele>
        <time>2021-08-14T12:45:01Z</time>
      </trkpt>
      <trkpt lat="47.56918" lon="-2.22852">
        <ele>29.2</ele>
        <time>2021-08-14T12:45:02Z</time>
      </trkpt>
      <trkpt lat="47.56917" lon="-2.22851">
        <ele>29.3</ele>
        <time>2021-08-14T12:45:03Z</time>
      </trkpt>
      <trkpt lat="47.56917" lon="-2.22849">
        <ele>29.4</ele>
        <time>2021-08-14T12:45:04Z</time>
      </trkpt>
      <trkpt lat="47.56917" lon="-2.22847">
        <ele>29.5</ele>
        <time>2021-08-14T12:45:05Z</time>
      </trkpt>
      <trkpt lat="47.56917" lon="-2.22843">
        <ele>29.7</ele>
        <time>2021-08-14T12:45:07Z</time>
      </trkpt>
      <trkpt lat="47.56916" lon="-2.22837">
        <ele>30</ele>
        <time>2021-08-14T12:45:09Z</time>
      </trkpt>
      <trkpt lat="47.56916" lon="-2.22836">
        <ele>30</ele>
        <time>2021-08-14T12:45:10Z</time>
      </trkpt>
      <trkpt lat="47.56915" lon="-2.22834">
        <ele>30.1</ele>
        <time>2021-08-14T12:45:11Z</time>
      </trkpt>
      <trkpt lat="47.56915" lon="-2.22833">
        <ele>30.2</ele>
        <time>2021-08-14T12:45:12Z</time>
      </trkpt>
      <trkpt lat="47.56914" lon="-2.22829">
        <ele>30.4</ele>
        <time>2021-08-14T12:45:14Z</time>
      </trkpt>
      <trkpt lat="47.56914" lon="-2.22826">
        <ele>30.6</ele>
        <time>2021-08-14T12:45:16Z</time>
      </trkpt>
      <trkpt lat="47.56913" lon="-2.22824">
        <ele>30.6</ele>
        <time>2021-08-14T12:45:17Z</time>
      </trkpt>
      <trkpt lat="47.56913" lon="-2.22822">
        <ele>30.7</ele>
        <time>2021-08-14T12:45:18Z</time>
      </trkpt>
      <trkpt lat="47.56912" lon="-2.22818">
        <ele>30.9</ele>
        <time>2021-08-14T12:45:20Z</time>
      </trkpt>
      <trkpt lat="47.56912" lon="-2.22815">
        <ele>31</ele>
        <time>2021-08-14T12:45:22Z</time>
      </trkpt>
      <trkpt lat="47.56912" lon="-2.22811">
        <ele>31.1</ele>
        <time>2021-08-14T12:45:24Z</time>
      </trkpt>
      <trkpt lat="47.56911" lon="-2.2281">
        <ele>31.1</ele>
        <time>2021-08-14T12:45:25Z</time>
      </trkpt>
      <trkpt lat="47.56912" lon="-2.22806">
        <ele>31.3</ele>
        <time>2021-08-14T12:45:27Z</time>
      </trkpt>
      <trkpt lat="47.56912" lon="-2.22803">
        <ele>31.4</ele>
        <time>2021-08-14T12:45:29Z</time>
      </trkpt>
      <trkpt lat="47.56911" lon="-2.22803">
        <ele>31.4</ele>
        <time>2021-08-14T12:45:31Z</time>
      </trkpt>
      <trkpt lat="47.56911" lon="-2.22802">
        <ele>31.4</ele>
        <time>2021-08-14T12:45:32Z</time>
      </trkpt>
      <trkpt lat="47.56911" lon="-2.22801">
        <ele>31.4</ele>
        <time>2021-08-14T12:45:33Z</time>
      </trkpt>
      <trkpt lat="47.56911" lon="-2.22801">
        <ele>31.4</ele>
        <time>2021-08-14T12:45:34Z</time>
      </trkpt>
      <trkpt lat="47.56911" lon="-2.228">
        <ele>31.5</ele>
        <time>2021-08-14T12:45:35Z</time>
      </trkpt>
      <trkpt lat="47.56911" lon="-2.22799">
        <ele>31.5</ele>
        <time>2021-08-14T12:45:37Z</time>
      </trkpt>
      <trkpt lat="47.56911" lon="-2.22799">
        <ele>31.5</ele>
        <time>2021-08-14T12:45:39Z</time>
      </trkpt>
      <trkpt lat="47.5691" lon="-2.22798">
        <ele>31.5</ele>
        <time>2021-08-14T12:46:47Z</time>
      </trkpt>
      <trkpt lat="47.5691" lon="-2.22797">
        <ele>31.5</ele>
        <time>2021-08-14T12:46:49Z</time>
      </trkpt>
      <trkpt lat="47.5691" lon="-2.22797">
        <ele>31.6</ele>
        <time>2021-08-14T12:46:50Z</time>
      </trkpt>
      <trkpt lat="47.5691" lon="-2.22793">
        <ele>31.6</ele>
        <time>2021-08-14T12:46:51Z</time>
      </trkpt>
      <trkpt lat="47.5691" lon="-2.22789">
        <ele>31.7</ele>
        <time>2021-08-14T12:46:53Z</time>
      </trkpt>
      <trkpt lat="47.5691" lon="-2.22787">
        <ele>31.8</ele>
        <time>2021-08-14T12:46:54Z</time>
      </trkpt>
      <trkpt lat="47.56911" lon="-2.22784">
        <ele>31.8</ele>
        <time>2021-08-14T12:46:55Z</time>
      </trkpt>
      <trkpt lat="47.5691" lon="-2.2278">
        <ele>31.9</ele>
        <time>2021-08-14T12:46:57Z</time>
      </trkpt>
      <trkpt lat="47.5691" lon="-2.22777">
        <ele>31.9</ele>
        <time>2021-08-14T12:46:58Z</time>
      </trkpt>
      <trkpt lat="47.5691" lon="-2.22772">
        <ele>32</ele>
        <time>2021-08-14T12:47:00Z</time>
      </trkpt>
      <trkpt lat="47.5691" lon="-2.22767">
        <ele>32</ele>
        <time>2021-08-14T12:47:02Z</time>
      </trkpt>
      <trkpt lat="47.5691" lon="-2.22765">
        <ele>32.1</ele>
        <time>2021-08-14T12:47:03Z</time>
      </trkpt>
      <trkpt lat="47.5691" lon="-2.22759">
        <ele>32.1</ele>
        <time>2021-08-14T12:47:05Z</time>
      </trkpt>
      <trkpt lat="47.5691" lon="-2.22751">
        <ele>32.1</ele>
        <time>2021-08-14T12:47:07Z</time>
      </trkpt>
      <trkpt lat="47.5691" lon="-2.22747">
        <ele>32.1</ele>
        <time>2021-08-14T12:47:08Z</time>
      </trkpt>
      <trkpt lat="47.5691" lon="-2.2274">
        <ele>32.1</ele>
        <time>2021-08-14T12:47:10Z</time>
      </trkpt>
      <trkpt lat="47.5691" lon="-2.22736">
        <ele>32.1</ele>
        <time>2021-08-14T12:47:11Z</time>
      </trkpt>
      <trkpt lat="47.5691" lon="-2.22729">
        <ele>32.1</ele>
        <time>2021-08-14T12:47:13Z</time>
      </trkpt>
      <trkpt lat="47.5691" lon="-2.22722">
        <ele>32.1</ele>
        <time>2021-08-14T12:47:15Z</time>
      </trkpt>
      <trkpt lat="47.5691" lon="-2.22718">
        <ele>32.1</ele>
        <time>2021-08-14T12:47:16Z</time>
      </trkpt>
      <trkpt lat="47.5691" lon="-2.22711">
        <ele>32.1</ele>
        <time>2021-08-14T12:47:18Z</time>
      </trkpt>
      <trkpt lat="47.5691" lon="-2.22706">
        <ele>32</ele>
        <time>2021-08-14T12:47:19Z</time>
      </trkpt>
      <trkpt lat="47.5691" lon="-2.22704">
        <ele>32</ele>
        <time>2021-08-14T12:47:20Z</time>
      </trkpt>
      <trkpt lat="47.5691" lon="-2.22698">
        <ele>32</ele>
        <time>2021-08-14T12:47:22Z</time>
      </trkpt>
      <trkpt lat="47.5691" lon="-2.22694">
        <ele>32</ele>
        <time>2021-08-14T12:47:23Z</time>
      </trkpt>
      <trkpt lat="47.5691" lon="-2.22692">
        <ele>32</ele>
        <time>2021-08-14T12:47:24Z</time>
      </trkpt>
      <trkpt lat="47.5691" lon="-2.22686">
        <ele>32</ele>
        <time>2021-08-14T12:47:26Z</time>
      </trkpt>
      <trkpt lat="47.5691" lon="-2.22683">
        <ele>32</ele>
        <time>2021-08-14T12:47:27Z</time>
      </trkpt>
      <trkpt lat="47.5691" lon="-2.22676">
        <ele>32</ele>
        <time>2021-08-14T12:47:29Z</time>
      </trkpt>
      <trkpt lat="47.56911" lon="-2.22672">
        <ele>32</ele>
        <time>2021-08-14T12:47:30Z</time>
      </trkpt>
      <trkpt lat="47.56911" lon="-2.22664">
        <ele>32</ele>
        <time>2021-08-14T12:47:32Z</time>
      </trkpt>
      <trkpt lat="47.56911" lon="-2.22656">
        <ele>32</ele>
        <time>2021-08-14T12:47:34Z</time>
      </trkpt>
      <trkpt lat="47.56911" lon="-2.22652">
        <ele>32</ele>
        <time>2021-08-14T12:47:35Z</time>
      </trkpt>
      <trkpt lat="47.56911" lon="-2.22646">
        <ele>32</ele>
        <time>2021-08-14T12:47:37Z</time>
      </trkpt>
      <trkpt lat="47.56911" lon="-2.22642">
        <ele>32.1</ele>
        <time>2021-08-14T12:47:38Z</time>
      </trkpt>
      <trkpt lat="47.5691" lon="-2.22636">
        <ele>32.1</ele>
        <time>2021-08-14T12:47:40Z</time>
      </trkpt>
      <trkpt lat="47.5691" lon="-2.2263">
        <ele>32.2</ele>
        <time>2021-08-14T12:47:42Z</time>
      </trkpt>
      <trkpt lat="47.5691" lon="-2.22628">
        <ele>32.3</ele>
        <time>2021-08-14T12:47:43Z</time>
      </trkpt>
      <trkpt lat="47.5691" lon="-2.22625">
        <ele>32.1</ele>
        <time>2021-08-14T12:47:45Z</time>
      </trkpt>
      <trkpt lat="47.56911" lon="-2.22623">
        <ele>32.1</ele>
        <time>2021-08-14T12:47:47Z</time>
      </trkpt>
      <trkpt lat="47.56911" lon="-2.22623">
        <ele>32.1</ele>
        <time>2021-08-14T12:47:48Z</time>
      </trkpt>
      <trkpt lat="47.56911" lon="-2.22623">
        <ele>32.1</ele>
        <time>2021-08-14T12:47:50Z</time>
      </trkpt>
      <trkpt lat="47.5691" lon="-2.22624">
        <ele>32.1</ele>
        <time>2021-08-14T12:47:52Z</time>
      </trkpt>
      <trkpt lat="47.5691" lon="-2.22624">
        <ele>32</ele>
        <time>2021-08-14T12:47:53Z</time>
      </trkpt>
      <trkpt lat="47.5691" lon="-2.22624">
        <ele>32</ele>
        <time>2021-08-14T12:47:55Z</time>
      </trkpt>
      <trkpt lat="47.5691" lon="-2.22624">
        <ele>32</ele>
        <time>2021-08-14T12:47:56Z</time>
      </trkpt>
      <trkpt lat="47.5691" lon="-2.22624">
        <ele>32</ele>
        <time>2021-08-14T12:47:57Z</time>
      </trkpt>
      <trkpt lat="47.5691" lon="-2.22625">
        <ele>32</ele>
        <time>2021-08-14T12:47:59Z</time>
      </trkpt>
      <trkpt lat="47.56915" lon="-2.22628">
        <ele>31.8</ele>
        <time>2021-08-14T12:48:17Z</time>
      </trkpt>
      <trkpt lat="47.56918" lon="-2.22629">
        <ele>31.5</ele>
        <time>2021-08-14T12:48:18Z</time>
      </trkpt>
      <trkpt lat="47.56925" lon="-2.22628">
        <ele>31</ele>
        <time>2021-08-14T12:48:20Z</time>
      </trkpt>
      <trkpt lat="47.5693" lon="-2.22626">
        <ele>30.6</ele>
        <time>2021-08-14T12:48:21Z</time>
      </trkpt>
      <trkpt lat="47.56931" lon="-2.22626">
        <ele>30.5</ele>
        <time>2021-08-14T12:48:22Z</time>
      </trkpt>
      <trkpt lat="47.56935" lon="-2.22627">
        <ele>30.1</ele>
        <time>2021-08-14T12:48:24Z</time>
      </trkpt>
      <trkpt lat="47.5694" lon="-2.22626">
        <ele>29.7</ele>
        <time>2021-08-14T12:48:25Z</time>
      </trkpt>
      <trkpt lat="47.56945" lon="-2.22627">
        <ele>29.2</ele>
        <time>2021-08-14T12:48:27Z</time>
      </trkpt>
      <trkpt lat="47.56948" lon="-2.2263">
        <ele>28.8</ele>
        <time>2021-08-14T12:48:28Z</time>
      </trkpt>
      <trkpt lat="47.56951" lon="-2.22631">
        <ele>28.5</ele>
        <time>2021-08-14T12:48:29Z</time>
      </trkpt>
      <trkpt lat="47.56955" lon="-2.22632">
        <ele>28.1</ele>
        <time>2021-08-14T12:48:30Z</time>
      </trkpt>
      <trkpt lat="47.5696" lon="-2.22634">
        <ele>27.4</ele>
        <time>2021-08-14T12:48:32Z</time>
      </trkpt>
      <trkpt lat="47.56964" lon="-2.22637">
        <ele>26.8</ele>
        <time>2021-08-14T12:48:33Z</time>
      </trkpt>
      <trkpt lat="47.56966" lon="-2.22639">
        <ele>26.4</ele>
        <time>2021-08-14T12:48:34Z</time>
      </trkpt>
      <trkpt lat="47.5697" lon="-2.2264">
        <ele>25.9</ele>
        <time>2021-08-14T12:48:35Z</time>
      </trkpt>
      <trkpt lat="47.56974" lon="-2.2264">
        <ele>25.3</ele>
        <time>2021-08-14T12:48:37Z</time>
      </trkpt>
      <trkpt lat="47.56977" lon="-2.22641">
        <ele>25</ele>
        <time>2021-08-14T12:48:38Z</time>
      </trkpt>
      <trkpt lat="47.56981" lon="-2.2264">
        <ele>24.6</ele>
        <time>2021-08-14T12:48:39Z</time>
      </trkpt>
      <trkpt lat="47.56986" lon="-2.22639">
        <ele>24.2</ele>
        <time>2021-08-14T12:48:41Z</time>
      </trkpt>
      <trkpt lat="47.56989" lon="-2.22639">
        <ele>23.9</ele>
        <time>2021-08-14T12:48:42Z</time>
      </trkpt>
      <trkpt lat="47.56992" lon="-2.22638">
        <ele>23.7</ele>
        <time>2021-08-14T12:48:44Z</time>
      </trkpt>
      <trkpt lat="47.56995" lon="-2.22637">
        <ele>23.5</ele>
        <time>2021-08-14T12:48:45Z</time>
      </trkpt>
      <trkpt lat="47.56998" lon="-2.2264">
        <ele>23.4</ele>
        <time>2021-08-14T12:48:47Z</time>
      </trkpt>
      <trkpt lat="47.56998" lon="-2.22641">
        <ele>23.3</ele>
        <time>2021-08-14T12:48:48Z</time>
      </trkpt>
      <trkpt lat="47.57" lon="-2.22643">
        <ele>23.2</ele>
        <time>2021-08-14T12:48:49Z</time>
      </trkpt>
      <trkpt lat="47.57003" lon="-2.22644">
        <ele>23.1</ele>
        <time>2021-08-14T12:48:50Z</time>
      </trkpt>
      <trkpt lat="47.57004" lon="-2.22644">
        <ele>23.1</ele>
        <time>2021-08-14T12:48:51Z</time>
      </trkpt>
      <trkpt lat="47.57006" lon="-2.22643">
        <ele>23</ele>
        <time>2021-08-14T12:48:52Z</time>
      </trkpt>
      <trkpt lat="47.57008" lon="-2.2264">
        <ele>22.9</ele>
        <time>2021-08-14T12:48:54Z</time>
      </trkpt>
      <trkpt lat="47.57009" lon="-2.22638">
        <ele>22.9</ele>
        <time>2021-08-14T12:48:55Z</time>
      </trkpt>
      <trkpt lat="47.5701" lon="-2.22636">
        <ele>22.9</ele>
        <time>2021-08-14T12:48:56Z</time>
      </trkpt>
      <trkpt lat="47.57011" lon="-2.22635">
        <ele>22.9</ele>
        <time>2021-08-14T12:48:57Z</time>
      </trkpt>
      <trkpt lat="47.57013" lon="-2.22632">
        <ele>22.9</ele>
        <time>2021-08-14T12:48:59Z</time>
      </trkpt>
      <trkpt lat="47.57016" lon="-2.2263">
        <ele>22.9</ele>
        <time>2021-08-14T12:49:00Z</time>
      </trkpt>
      <trkpt lat="47.57017" lon="-2.2263">
        <ele>22.9</ele>
        <time>2021-08-14T12:49:01Z</time>
      </trkpt>
      <trkpt lat="47.5702" lon="-2.22628">
        <ele>23</ele>
        <time>2021-08-14T12:49:03Z</time>
      </trkpt>
      <trkpt lat="47.57021" lon="-2.22627">
        <ele>23</ele>
        <time>2021-08-14T12:49:04Z</time>
      </trkpt>
      <trkpt lat="47.57023" lon="-2.22623">
        <ele>23.1</ele>
        <time>2021-08-14T12:49:06Z</time>
      </trkpt>
      <trkpt lat="47.57024" lon="-2.22622">
        <ele>23.2</ele>
        <time>2021-08-14T12:49:07Z</time>
      </trkpt>
      <trkpt lat="47.57026" lon="-2.22619">
        <ele>23.3</ele>
        <time>2021-08-14T12:49:08Z</time>
      </trkpt>
      <trkpt lat="47.57028" lon="-2.22614">
        <ele>23.4</ele>
        <time>2021-08-14T12:49:10Z</time>
      </trkpt>
      <trkpt lat="47.57028" lon="-2.22612">
        <ele>23.4</ele>
        <time>2021-08-14T12:49:11Z</time>
      </trkpt>
      <trkpt lat="47.57029" lon="-2.22611">
        <ele>23.5</ele>
        <time>2021-08-14T12:49:12Z</time>
      </trkpt>
      <trkpt lat="47.5703" lon="-2.22609">
        <ele>23.6</ele>
        <time>2021-08-14T12:49:14Z</time>
      </trkpt>
      <trkpt lat="47.57031" lon="-2.22608">
        <ele>23.6</ele>
        <time>2021-08-14T12:49:15Z</time>
      </trkpt>
      <trkpt lat="47.57032" lon="-2.22606">
        <ele>23.7</ele>
        <time>2021-08-14T12:49:16Z</time>
      </trkpt>
      <trkpt lat="47.57035" lon="-2.22603">
        <ele>23.8</ele>
        <time>2021-08-14T12:49:18Z</time>
      </trkpt>
      <trkpt lat="47.57036" lon="-2.22603">
        <ele>23.8</ele>
        <time>2021-08-14T12:49:19Z</time>
      </trkpt>
      <trkpt lat="47.57038" lon="-2.22601">
        <ele>23.9</ele>
        <time>2021-08-14T12:49:21Z</time>
      </trkpt>
      <trkpt lat="47.5704" lon="-2.226">
        <ele>23.9</ele>
        <time>2021-08-14T12:49:22Z</time>
      </trkpt>
      <trkpt lat="47.57042" lon="-2.22599">
        <ele>24</ele>
        <time>2021-08-14T12:49:24Z</time>
      </trkpt>
      <trkpt lat="47.57044" lon="-2.22598">
        <ele>24</ele>
        <time>2021-08-14T12:49:25Z</time>
      </trkpt>
      <trkpt lat="47.57045" lon="-2.22597">
        <ele>24</ele>
        <time>2021-08-14T12:49:26Z</time>
      </trkpt>
      <trkpt lat="47.57047" lon="-2.22596">
        <ele>24.1</ele>
        <time>2021-08-14T12:49:27Z</time>
      </trkpt>
      <trkpt lat="47.57048" lon="-2.22595">
        <ele>24.1</ele>
        <time>2021-08-14T12:49:29Z</time>
      </trkpt>
      <trkpt lat="47.57049" lon="-2.22595">
        <ele>24.1</ele>
        <time>2021-08-14T12:49:32Z</time>
      </trkpt>
      <trkpt lat="47.57049" lon="-2.22595">
        <ele>24.1</ele>
        <time>2021-08-14T12:49:33Z</time>
      </trkpt>
      <trkpt lat="47.5705" lon="-2.22595">
        <ele>24.1</ele>
        <time>2021-08-14T12:49:35Z</time>
      </trkpt>
      <trkpt lat="47.57051" lon="-2.22595">
        <ele>24.2</ele>
        <time>2021-08-14T12:49:36Z</time>
      </trkpt>
      <trkpt lat="47.57052" lon="-2.22594">
        <ele>24.2</ele>
        <time>2021-08-14T12:49:38Z</time>
      </trkpt>
      <trkpt lat="47.57053" lon="-2.22594">
        <ele>24.2</ele>
        <time>2021-08-14T12:49:40Z</time>
      </trkpt>
      <trkpt lat="47.57054" lon="-2.22594">
        <ele>24.2</ele>
        <time>2021-08-14T12:49:55Z</time>
      </trkpt>
      <trkpt lat="47.57055" lon="-2.22594">
        <ele>24.2</ele>
        <time>2021-08-14T12:49:56Z</time>
      </trkpt>
      <trkpt lat="47.57056" lon="-2.22593">
        <ele>24.2</ele>
        <time>2021-08-14T12:49:57Z</time>
      </trkpt>
      <trkpt lat="47.57059" lon="-2.22593">
        <ele>24.3</ele>
        <time>2021-08-14T12:49:59Z</time>
      </trkpt>
      <trkpt lat="47.5706" lon="-2.22593">
        <ele>24.3</ele>
        <time>2021-08-14T12:50:00Z</time>
      </trkpt>
      <trkpt lat="47.57065" lon="-2.2259">
        <ele>24.4</ele>
        <time>2021-08-14T12:50:02Z</time>
      </trkpt>
      <trkpt lat="47.57066" lon="-2.22589">
        <ele>24.5</ele>
        <time>2021-08-14T12:50:04Z</time>
      </trkpt>
      <trkpt lat="47.57068" lon="-2.22588">
        <ele>24.5</ele>
        <time>2021-08-14T12:50:05Z</time>
      </trkpt>
      <trkpt lat="47.5707" lon="-2.22587">
        <ele>24.6</ele>
        <time>2021-08-14T12:50:06Z</time>
      </trkpt>
      <trkpt lat="47.57072" lon="-2.22586">
        <ele>24.6</ele>
        <time>2021-08-14T12:50:07Z</time>
      </trkpt>
      <trkpt lat="47.57074" lon="-2.22583">
        <ele>24.7</ele>
        <time>2021-08-14T12:50:09Z</time>
      </trkpt>
      <trkpt lat="47.57075" lon="-2.22579">
        <ele>24.8</ele>
        <time>2021-08-14T12:50:10Z</time>
      </trkpt>
      <trkpt lat="47.57075" lon="-2.22576">
        <ele>24.9</ele>
        <time>2021-08-14T12:50:11Z</time>
      </trkpt>
      <trkpt lat="47.57075" lon="-2.22574">
        <ele>24.9</ele>
        <time>2021-08-14T12:50:12Z</time>
      </trkpt>
      <trkpt lat="47.57075" lon="-2.22571">
        <ele>25</ele>
        <time>2021-08-14T12:50:13Z</time>
      </trkpt>
      <trkpt lat="47.57075" lon="-2.22567">
        <ele>25.1</ele>
        <time>2021-08-14T12:50:15Z</time>
      </trkpt>
      <trkpt lat="47.57074" lon="-2.22563">
        <ele>25.2</ele>
        <time>2021-08-14T12:50:16Z</time>
      </trkpt>
      <trkpt lat="47.57074" lon="-2.22561">
        <ele>25.3</ele>
        <time>2021-08-14T12:50:17Z</time>
      </trkpt>
      <trkpt lat="47.57073" lon="-2.22558">
        <ele>25.3</ele>
        <time>2021-08-14T12:50:18Z</time>
      </trkpt>
      <trkpt lat="47.57071" lon="-2.22554">
        <ele>25.4</ele>
        <time>2021-08-14T12:50:20Z</time>
      </trkpt>
      <trkpt lat="47.5707" lon="-2.2255">
        <ele>25.5</ele>
        <time>2021-08-14T12:50:22Z</time>
      </trkpt>
      <trkpt lat="47.5707" lon="-2.22548">
        <ele>25.6</ele>
        <time>2021-08-14T12:50:23Z</time>
      </trkpt>
      <trkpt lat="47.5707" lon="-2.22546">
        <ele>25.6</ele>
        <time>2021-08-14T12:50:25Z</time>
      </trkpt>
      <trkpt lat="47.5707" lon="-2.22543">
        <ele>25.6</ele>
        <time>2021-08-14T12:50:26Z</time>
      </trkpt>
      <trkpt lat="47.5707" lon="-2.22541">
        <ele>25.6</ele>
        <time>2021-08-14T12:50:27Z</time>
      </trkpt>
      <trkpt lat="47.5707" lon="-2.22537">
        <ele>25.7</ele>
        <time>2021-08-14T12:50:28Z</time>
      </trkpt>
      <trkpt lat="47.5707" lon="-2.22535">
        <ele>25.6</ele>
        <time>2021-08-14T12:50:30Z</time>
      </trkpt>
      <trkpt lat="47.57069" lon="-2.2253">
        <ele>25.6</ele>
        <time>2021-08-14T12:50:31Z</time>
      </trkpt>
      <trkpt lat="47.57069" lon="-2.22529">
        <ele>25.6</ele>
        <time>2021-08-14T12:50:32Z</time>
      </trkpt>
      <trkpt lat="47.57068" lon="-2.22527">
        <ele>25.5</ele>
        <time>2021-08-14T12:50:34Z</time>
      </trkpt>
      <trkpt lat="47.57067" lon="-2.22527">
        <ele>25.5</ele>
        <time>2021-08-14T12:50:36Z</time>
      </trkpt>
      <trkpt lat="47.57067" lon="-2.22528">
        <ele>25.5</ele>
        <time>2021-08-14T12:50:38Z</time>
      </trkpt>
      <trkpt lat="47.57066" lon="-2.22528">
        <ele>25.5</ele>
        <time>2021-08-14T12:50:40Z</time>
      </trkpt>
      <trkpt lat="47.57066" lon="-2.22528">
        <ele>25.4</ele>
        <time>2021-08-14T12:50:42Z</time>
      </trkpt>
      <trkpt lat="47.57064" lon="-2.22516">
        <ele>25</ele>
        <time>2021-08-14T12:51:30Z</time>
      </trkpt>
      <trkpt lat="47.57064" lon="-2.22514">
        <ele>24.8</ele>
        <time>2021-08-14T12:51:31Z</time>
      </trkpt>
      <trkpt lat="47.57064" lon="-2.22512">
        <ele>24.7</ele>
        <time>2021-08-14T12:51:33Z</time>
      </trkpt>
      <trkpt lat="47.57066" lon="-2.22507">
        <ele>24.3</ele>
        <time>2021-08-14T12:51:34Z</time>
      </trkpt>
      <trkpt lat="47.57069" lon="-2.22498">
        <ele>23.5</ele>
        <time>2021-08-14T12:51:36Z</time>
      </trkpt>
      <trkpt lat="47.57071" lon="-2.22493">
        <ele>23</ele>
        <time>2021-08-14T12:51:37Z</time>
      </trkpt>
      <trkpt lat="47.57074" lon="-2.22483">
        <ele>21.8</ele>
        <time>2021-08-14T12:51:39Z</time>
      </trkpt>
      <trkpt lat="47.57076" lon="-2.22474">
        <ele>20.9</ele>
        <time>2021-08-14T12:51:40Z</time>
      </trkpt>
      <trkpt lat="47.57078" lon="-2.22463">
        <ele>19.9</ele>
        <time>2021-08-14T12:51:42Z</time>
      </trkpt>
      <trkpt lat="47.57078" lon="-2.22455">
        <ele>19.4</ele>
        <time>2021-08-14T12:51:43Z</time>
      </trkpt>
      <trkpt lat="47.57078" lon="-2.22449">
        <ele>19.1</ele>
        <time>2021-08-14T12:51:45Z</time>
      </trkpt>
      <trkpt lat="47.57077" lon="-2.22442">
        <ele>18.8</ele>
        <time>2021-08-14T12:51:46Z</time>
      </trkpt>
      <trkpt lat="47.57074" lon="-2.22438">
        <ele>18.6</ele>
        <time>2021-08-14T12:51:48Z</time>
      </trkpt>
      <trkpt lat="47.57071" lon="-2.22433">
        <ele>18.5</ele>
        <time>2021-08-14T12:51:49Z</time>
      </trkpt>
      <trkpt lat="47.57068" lon="-2.22429">
        <ele>18.4</ele>
        <time>2021-08-14T12:51:50Z</time>
      </trkpt>
      <trkpt lat="47.57067" lon="-2.22428">
        <ele>18.4</ele>
        <time>2021-08-14T12:51:51Z</time>
      </trkpt>
      <trkpt lat="47.57066" lon="-2.22426">
        <ele>18.4</ele>
        <time>2021-08-14T12:51:52Z</time>
      </trkpt>
      <trkpt lat="47.57064" lon="-2.22423">
        <ele>18.3</ele>
        <time>2021-08-14T12:51:54Z</time>
      </trkpt>
      <trkpt lat="47.5706" lon="-2.22421">
        <ele>18.3</ele>
        <time>2021-08-14T12:51:56Z</time>
      </trkpt>
      <trkpt lat="47.57057" lon="-2.22419">
        <ele>18.2</ele>
        <time>2021-08-14T12:51:58Z</time>
      </trkpt>
      <trkpt lat="47.57055" lon="-2.22418">
        <ele>18.2</ele>
        <time>2021-08-14T12:51:59Z</time>
      </trkpt>
      <trkpt lat="47.57051" lon="-2.22417">
        <ele>18.2</ele>
        <time>2021-08-14T12:52:01Z</time>
      </trkpt>
      <trkpt lat="47.57047" lon="-2.22414">
        <ele>18.1</ele>
        <time>2021-08-14T12:52:03Z</time>
      </trkpt>
      <trkpt lat="47.57046" lon="-2.22413">
        <ele>18.1</ele>
        <time>2021-08-14T12:52:04Z</time>
      </trkpt>
      <trkpt lat="47.57045" lon="-2.22412">
        <ele>18.1</ele>
        <time>2021-08-14T12:52:05Z</time>
      </trkpt>
      <trkpt lat="47.57042" lon="-2.22408">
        <ele>18.1</ele>
        <time>2021-08-14T12:52:07Z</time>
      </trkpt>
      <trkpt lat="47.57041" lon="-2.22408">
        <ele>18.1</ele>
        <time>2021-08-14T12:52:08Z</time>
      </trkpt>
      <trkpt lat="47.57039" lon="-2.22405">
        <ele>18.1</ele>
        <time>2021-08-14T12:52:09Z</time>
      </trkpt>
      <trkpt lat="47.57037" lon="-2.22403">
        <ele>18.1</ele>
        <time>2021-08-14T12:52:10Z</time>
      </trkpt>
      <trkpt lat="47.57034" lon="-2.22399">
        <ele>18.1</ele>
        <time>2021-08-14T12:52:12Z</time>
      </trkpt>
      <trkpt lat="47.57032" lon="-2.22396">
        <ele>18.2</ele>
        <time>2021-08-14T12:52:13Z</time>
      </trkpt>
      <trkpt lat="47.57031" lon="-2.22394">
        <ele>18.2</ele>
        <time>2021-08-14T12:52:14Z</time>
      </trkpt>
      <trkpt lat="47.57028" lon="-2.22391">
        <ele>18.2</ele>
        <time>2021-08-14T12:52:16Z</time>
      </trkpt>
      <trkpt lat="47.57027" lon="-2.2239">
        <ele>18.2</ele>
        <time>2021-08-14T12:52:17Z</time>
      </trkpt>
      <trkpt lat="47.57024" lon="-2.22388">
        <ele>18.3</ele>
        <time>2021-08-14T12:52:19Z</time>
      </trkpt>
      <trkpt lat="47.5702" lon="-2.22387">
        <ele>18.4</ele>
        <time>2021-08-14T12:52:21Z</time>
      </trkpt>
      <trkpt lat="47.57018" lon="-2.22386">
        <ele>18.4</ele>
        <time>2021-08-14T12:52:22Z</time>
      </trkpt>
      <trkpt lat="47.57015" lon="-2.22384">
        <ele>18.5</ele>
        <time>2021-08-14T12:52:24Z</time>
      </trkpt>
      <trkpt lat="47.57013" lon="-2.22383">
        <ele>18.6</ele>
        <time>2021-08-14T12:52:25Z</time>
      </trkpt>
      <trkpt lat="47.5701" lon="-2.2238">
        <ele>18.7</ele>
        <time>2021-08-14T12:52:27Z</time>
      </trkpt>
      <trkpt lat="47.57009" lon="-2.22378">
        <ele>18.7</ele>
        <time>2021-08-14T12:52:28Z</time>
      </trkpt>
      <trkpt lat="47.57008" lon="-2.22375">
        <ele>18.8</ele>
        <time>2021-08-14T12:52:30Z</time>
      </trkpt>
      <trkpt lat="47.57007" lon="-2.22371">
        <ele>19</ele>
        <time>2021-08-14T12:52:32Z</time>
      </trkpt>
      <trkpt lat="47.57007" lon="-2.2237">
        <ele>19</ele>
        <time>2021-08-14T12:52:33Z</time>
      </trkpt>
      <trkpt lat="47.57006" lon="-2.22367">
        <ele>19.1</ele>
        <time>2021-08-14T12:52:35Z</time>
      </trkpt>
      <trkpt lat="47.57005" lon="-2.22363">
        <ele>19.2</ele>
        <time>2021-08-14T12:52:37Z</time>
      </trkpt>
      <trkpt lat="47.57005" lon="-2.22361">
        <ele>19.3</ele>
        <time>2021-08-14T12:52:38Z</time>
      </trkpt>
      <trkpt lat="47.57004" lon="-2.22356">
        <ele>19.4</ele>
        <time>2021-08-14T12:52:40Z</time>
      </trkpt>
      <trkpt lat="47.57003" lon="-2.22355">
        <ele>19.5</ele>
        <time>2021-08-14T12:52:41Z</time>
      </trkpt>
      <trkpt lat="47.57003" lon="-2.22353">
        <ele>19.6</ele>
        <time>2021-08-14T12:52:42Z</time>
      </trkpt>
      <trkpt lat="47.57001" lon="-2.2235">
        <ele>19.7</ele>
        <time>2021-08-14T12:52:44Z</time>
      </trkpt>
      <trkpt lat="47.56998" lon="-2.22348">
        <ele>19.9</ele>
        <time>2021-08-14T12:52:46Z</time>
      </trkpt>
      <trkpt lat="47.56997" lon="-2.22347">
        <ele>19.9</ele>
        <time>2021-08-14T12:52:47Z</time>
      </trkpt>
      <trkpt lat="47.56997" lon="-2.22347">
        <ele>20</ele>
        <time>2021-08-14T12:52:48Z</time>
      </trkpt>
      <trkpt lat="47.56996" lon="-2.22346">
        <ele>20</ele>
        <time>2021-08-14T12:52:50Z</time>
      </trkpt>
      <trkpt lat="47.56997" lon="-2.22346">
        <ele>20</ele>
        <time>2021-08-14T12:52:52Z</time>
      </trkpt>
      <trkpt lat="47.56997" lon="-2.22346">
        <ele>20</ele>
        <time>2021-08-14T12:52:53Z</time>
      </trkpt>
      <trkpt lat="47.56997" lon="-2.22346">
        <ele>20.1</ele>
        <time>2021-08-14T12:52:55Z</time>
      </trkpt>
      <trkpt lat="47.56996" lon="-2.22346">
        <ele>20.1</ele>
        <time>2021-08-14T12:52:56Z</time>
      </trkpt>
      <trkpt lat="47.56996" lon="-2.22346">
        <ele>20.1</ele>
        <time>2021-08-14T12:52:57Z</time>
      </trkpt>
      <trkpt lat="47.56996" lon="-2.22346">
        <ele>20.1</ele>
        <time>2021-08-14T12:52:59Z</time>
      </trkpt>
      <trkpt lat="47.56999" lon="-2.2235">
        <ele>20.4</ele>
        <time>2021-08-14T12:56:24Z</time>
      </trkpt>
      <trkpt lat="47.56998" lon="-2.22351">
        <ele>20.4</ele>
        <time>2021-08-14T12:56:26Z</time>
      </trkpt>
      <trkpt lat="47.56998" lon="-2.22351">
        <ele>20.4</ele>
        <time>2021-08-14T12:56:27Z</time>
      </trkpt>
      <trkpt lat="47.56998" lon="-2.2235">
        <ele>20.4</ele>
        <time>2021-08-14T12:56:29Z</time>
      </trkpt>
      <trkpt lat="47.56999" lon="-2.22351">
        <ele>20.5</ele>
        <time>2021-08-14T12:56:31Z</time>
      </trkpt>
      <trkpt lat="47.56999" lon="-2.22351">
        <ele>20.5</ele>
        <time>2021-08-14T12:56:33Z</time>
      </trkpt>
      <trkpt lat="47.56999" lon="-2.22351">
        <ele>20.5</ele>
        <time>2021-08-14T12:56:34Z</time>
      </trkpt>
      <trkpt lat="47.56999" lon="-2.2235">
        <ele>20.6</ele>
        <time>2021-08-14T12:56:36Z</time>
      </trkpt>
      <trkpt lat="47.56999" lon="-2.2235">
        <ele>20.6</ele>
        <time>2021-08-14T12:56:37Z</time>
      </trkpt>
      <trkpt lat="47.57" lon="-2.2235">
        <ele>20.7</ele>
        <time>2021-08-14T12:56:39Z</time>
      </trkpt>
      <trkpt lat="47.57" lon="-2.2235">
        <ele>20.7</ele>
        <time>2021-08-14T12:56:40Z</time>
      </trkpt>
      <trkpt lat="47.57" lon="-2.22349">
        <ele>20.7</ele>
        <time>2021-08-14T12:56:41Z</time>
      </trkpt>
      <trkpt lat="47.56997" lon="-2.22345">
        <ele>21.1</ele>
        <time>2021-08-14T12:59:14Z</time>
      </trkpt>
      <trkpt lat="47.56995" lon="-2.22344">
        <ele>21.3</ele>
        <time>2021-08-14T12:59:16Z</time>
      </trkpt>
      <trkpt lat="47.56993" lon="-2.22342">
        <ele>21.7</ele>
        <time>2021-08-14T12:59:18Z</time>
      </trkpt>
      <trkpt lat="47.56991" lon="-2.2234">
        <ele>21.9</ele>
        <time>2021-08-14T12:59:19Z</time>
      </trkpt>
      <trkpt lat="47.5699" lon="-2.22337">
        <ele>22.3</ele>
        <time>2021-08-14T12:59:21Z</time>
      </trkpt>
      <trkpt lat="47.56989" lon="-2.22335">
        <ele>22.5</ele>
        <time>2021-08-14T12:59:22Z</time>
      </trkpt>
      <trkpt lat="47.56988" lon="-2.22331">
        <ele>22.9</ele>
        <time>2021-08-14T12:59:24Z</time>
      </trkpt>
      <trkpt lat="47.56988" lon="-2.22329">
        <ele>23.2</ele>
        <time>2021-08-14T12:59:26Z</time>
      </trkpt>
      <trkpt lat="47.56988" lon="-2.22329">
        <ele>23.3</ele>
        <time>2021-08-14T12:59:27Z</time>
      </trkpt>
      <trkpt lat="47.56988" lon="-2.22329">
        <ele>23.3</ele>
        <time>2021-08-14T12:59:28Z</time>
      </trkpt>
      <trkpt lat="47.56988" lon="-2.22328">
        <ele>23.4</ele>
        <time>2021-08-14T12:59:30Z</time>
      </trkpt>
      <trkpt lat="47.56988" lon="-2.22326">
        <ele>23.6</ele>
        <time>2021-08-14T12:59:32Z</time>
      </trkpt>
      <trkpt lat="47.56989" lon="-2.22325">
        <ele>23.8</ele>
        <time>2021-08-14T12:59:34Z</time>
      </trkpt>
      <trkpt lat="47.56989" lon="-2.22324">
        <ele>23.9</ele>
        <time>2021-08-14T12:59:35Z</time>
      </trkpt>
      <trkpt lat="47.56989" lon="-2.22323">
        <ele>24</ele>
        <time>2021-08-14T12:59:37Z</time>
      </trkpt>
      <trkpt lat="47.5699" lon="-2.22323">
        <ele>24</ele>
        <time>2021-08-14T12:59:39Z</time>
      </trkpt>
      <trkpt lat="47.5699" lon="-2.22324">
        <ele>24.1</ele>
        <time>2021-08-14T12:59:41Z</time>
      </trkpt>
      <trkpt lat="47.56991" lon="-2.22324">
        <ele>24.2</ele>
        <time>2021-08-14T12:59:43Z</time>
      </trkpt>
      <trkpt lat="47.56991" lon="-2.22324">
        <ele>24.3</ele>
        <time>2021-08-14T12:59:44Z</time>
      </trkpt>
      <trkpt lat="47.56992" lon="-2.22325">
        <ele>24.4</ele>
        <time>2021-08-14T12:59:46Z</time>
      </trkpt>
      <trkpt lat="47.56992" lon="-2.22325">
        <ele>24.5</ele>
        <time>2021-08-14T12:59:48Z</time>
      </trkpt>
      <trkpt lat="47.56993" lon="-2.22325">
        <ele>24.6</ele>
        <time>2021-08-14T12:59:50Z</time>
      </trkpt>
      <trkpt lat="47.56993" lon="-2.22325">
        <ele>24.6</ele>
        <time>2021-08-14T12:59:51Z</time>
      </trkpt>
      <trkpt lat="47.56994" lon="-2.22325">
        <ele>24.7</ele>
        <time>2021-08-14T12:59:53Z</time>
      </trkpt>
      <trkpt lat="47.56994" lon="-2.22325">
        <ele>24.9</ele>
        <time>2021-08-14T12:59:55Z</time>
      </trkpt>
      <trkpt lat="47.56995" lon="-2.22325">
        <ele>24.9</ele>
        <time>2021-08-14T12:59:56Z</time>
      </trkpt>
      <trkpt lat="47.56996" lon="-2.22324">
        <ele>25.1</ele>
        <time>2021-08-14T12:59:58Z</time>
      </trkpt>
      <trkpt lat="47.56996" lon="-2.22324">
        <ele>25.1</ele>
        <time>2021-08-14T12:59:59Z</time>
      </trkpt>
      <trkpt lat="47.56997" lon="-2.22324">
        <ele>25.2</ele>
        <time>2021-08-14T13:00:01Z</time>
      </trkpt>
      <trkpt lat="47.56999" lon="-2.22326">
        <ele>25.6</ele>
        <time>2021-08-14T13:00:03Z</time>
      </trkpt>
      <trkpt lat="47.57001" lon="-2.22327">
        <ele>25.8</ele>
        <time>2021-08-14T13:00:04Z</time>
      </trkpt>
      <trkpt lat="47.57004" lon="-2.22328">
        <ele>26.2</ele>
        <time>2021-08-14T13:00:06Z</time>
      </trkpt>
      <trkpt lat="47.57006" lon="-2.22329">
        <ele>26.5</ele>
        <time>2021-08-14T13:00:08Z</time>
      </trkpt>
      <trkpt lat="47.57008" lon="-2.2233">
        <ele>26.7</ele>
        <time>2021-08-14T13:00:10Z</time>
      </trkpt>
      <trkpt lat="47.57009" lon="-2.2233">
        <ele>26.8</ele>
        <time>2021-08-14T13:00:11Z</time>
      </trkpt>
      <trkpt lat="47.57011" lon="-2.2233">
        <ele>27</ele>
        <time>2021-08-14T13:00:13Z</time>
      </trkpt>
      <trkpt lat="47.57013" lon="-2.2233">
        <ele>27.1</ele>
        <time>2021-08-14T13:00:15Z</time>
      </trkpt>
      <trkpt lat="47.57016" lon="-2.2233">
        <ele>27.3</ele>
        <time>2021-08-14T13:00:17Z</time>
      </trkpt>
      <trkpt lat="47.57017" lon="-2.22331">
        <ele>27.5</ele>
        <time>2021-08-14T13:00:18Z</time>
      </trkpt>
      <trkpt lat="47.5702" lon="-2.22331">
        <ele>27.6</ele>
        <time>2021-08-14T13:00:20Z</time>
      </trkpt>
      <trkpt lat="47.57021" lon="-2.22331">
        <ele>27.6</ele>
        <time>2021-08-14T13:00:21Z</time>
      </trkpt>
      <trkpt lat="47.57022" lon="-2.22332">
        <ele>27.7</ele>
        <time>2021-08-14T13:00:22Z</time>
      </trkpt>
      <trkpt lat="47.57024" lon="-2.22332">
        <ele>27.8</ele>
        <time>2021-08-14T13:00:24Z</time>
      </trkpt>
      <trkpt lat="47.57025" lon="-2.22333">
        <ele>27.8</ele>
        <time>2021-08-14T13:00:25Z</time>
      </trkpt>
      <trkpt lat="47.57028" lon="-2.22334">
        <ele>27.8</ele>
        <time>2021-08-14T13:00:27Z</time>
      </trkpt>
      <trkpt lat="47.5703" lon="-2.22334">
        <ele>27.8</ele>
        <time>2021-08-14T13:00:29Z</time>
      </trkpt>
      <trkpt lat="47.57033" lon="-2.22334">
        <ele>27.8</ele>
        <time>2021-08-14T13:00:31Z</time>
      </trkpt>
      <trkpt lat="47.57034" lon="-2.22334">
        <ele>27.7</ele>
        <time>2021-08-14T13:00:32Z</time>
      </trkpt>
      <trkpt lat="47.57035" lon="-2.22335">
        <ele>27.7</ele>
        <time>2021-08-14T13:00:34Z</time>
      </trkpt>
      <trkpt lat="47.57036" lon="-2.22335">
        <ele>27.7</ele>
        <time>2021-08-14T13:00:35Z</time>
      </trkpt>
      <trkpt lat="47.57038" lon="-2.22338">
        <ele>27.6</ele>
        <time>2021-08-14T13:00:37Z</time>
      </trkpt>
      <trkpt lat="47.57038" lon="-2.22339">
        <ele>27.5</ele>
        <time>2021-08-14T13:00:38Z</time>
      </trkpt>
      <trkpt lat="47.57039" lon="-2.2234">
        <ele>27.5</ele>
        <time>2021-08-14T13:00:40Z</time>
      </trkpt>
      <trkpt lat="47.57038" lon="-2.22341">
        <ele>27.5</ele>
        <time>2021-08-14T13:00:42Z</time>
      </trkpt>
      <trkpt lat="47.57038" lon="-2.22341">
        <ele>27.4</ele>
        <time>2021-08-14T13:00:43Z</time>
      </trkpt>
      <trkpt lat="47.57038" lon="-2.22342">
        <ele>27.4</ele>
        <time>2021-08-14T13:00:45Z</time>
      </trkpt>
      <trkpt lat="47.57038" lon="-2.22342">
        <ele>27.4</ele>
        <time>2021-08-14T13:00:46Z</time>
      </trkpt>
      <trkpt lat="47.57038" lon="-2.22342">
        <ele>27.4</ele>
        <time>2021-08-14T13:00:48Z</time>
      </trkpt>
      <trkpt lat="47.57044" lon="-2.22345">
        <ele>27</ele>
        <time>2021-08-14T13:01:10Z</time>
      </trkpt>
      <trkpt lat="47.57049" lon="-2.22349">
        <ele>26.7</ele>
        <time>2021-08-14T13:01:12Z</time>
      </trkpt>
      <trkpt lat="47.57053" lon="-2.22353">
        <ele>26.5</ele>
        <time>2021-08-14T13:01:13Z</time>
      </trkpt>
      <trkpt lat="47.5706" lon="-2.22361">
        <ele>26.1</ele>
        <time>2021-08-14T13:01:15Z</time>
      </trkpt>
      <trkpt lat="47.57067" lon="-2.22365">
        <ele>26.1</ele>
        <time>2021-08-14T13:01:17Z</time>
      </trkpt>
      <trkpt lat="47.5707" lon="-2.22366">
        <ele>26.1</ele>
        <time>2021-08-14T13:01:18Z</time>
      </trkpt>
      <trkpt lat="47.57074" lon="-2.22366">
        <ele>26.2</ele>
        <time>2021-08-14T13:01:20Z</time>
      </trkpt>
      <trkpt lat="47.57075" lon="-2.22366">
        <ele>26.3</ele>
        <time>2021-08-14T13:01:21Z</time>
      </trkpt>
      <trkpt lat="47.5708" lon="-2.22365">
        <ele>26.5</ele>
        <time>2021-08-14T13:01:23Z</time>
      </trkpt>
      <trkpt lat="47.57081" lon="-2.22364">
        <ele>26.6</ele>
        <time>2021-08-14T13:01:24Z</time>
      </trkpt>
      <trkpt lat="47.57083" lon="-2.22364">
        <ele>26.7</ele>
        <time>2021-08-14T13:01:25Z</time>
      </trkpt>
      <trkpt lat="47.57086" lon="-2.22365">
        <ele>26.9</ele>
        <time>2021-08-14T13:01:27Z</time>
      </trkpt>
      <trkpt lat="47.57087" lon="-2.22364">
        <ele>27.1</ele>
        <time>2021-08-14T13:01:28Z</time>
      </trkpt>
      <trkpt lat="47.57089" lon="-2.22364">
        <ele>27.2</ele>
        <time>2021-08-14T13:01:30Z</time>
      </trkpt>
      <trkpt lat="47.5709" lon="-2.22364">
        <ele>27.3</ele>
        <time>2021-08-14T13:01:31Z</time>
      </trkpt>
      <trkpt lat="47.57093" lon="-2.22363">
        <ele>27.5</ele>
        <time>2021-08-14T13:01:33Z</time>
      </trkpt>
      <trkpt lat="47.57094" lon="-2.22362">
        <ele>27.6</ele>
        <time>2021-08-14T13:01:34Z</time>
      </trkpt>
      <trkpt lat="47.57095" lon="-2.22362">
        <ele>27.8</ele>
        <time>2021-08-14T13:01:35Z</time>
      </trkpt>
      <trkpt lat="47.57097" lon="-2.2236">
        <ele>28</ele>
        <time>2021-08-14T13:01:37Z</time>
      </trkpt>
      <trkpt lat="47.57098" lon="-2.22359">
        <ele>28.1</ele>
        <time>2021-08-14T13:01:38Z</time>
      </trkpt>
      <trkpt lat="47.571" lon="-2.22356">
        <ele>28.4</ele>
        <time>2021-08-14T13:01:40Z</time>
      </trkpt>
      <trkpt lat="47.57101" lon="-2.22351">
        <ele>28.7</ele>
        <time>2021-08-14T13:01:42Z</time>
      </trkpt>
      <trkpt lat="47.57102" lon="-2.22347">
        <ele>29</ele>
        <time>2021-08-14T13:01:43Z</time>
      </trkpt>
      <trkpt lat="47.57103" lon="-2.22346">
        <ele>29</ele>
        <time>2021-08-14T13:01:44Z</time>
      </trkpt>
      <trkpt lat="47.57104" lon="-2.22342">
        <ele>29.3</ele>
        <time>2021-08-14T13:01:46Z</time>
      </trkpt>
      <trkpt lat="47.57105" lon="-2.22341">
        <ele>29.4</ele>
        <time>2021-08-14T13:01:47Z</time>
      </trkpt>
      <trkpt lat="47.57107" lon="-2.22337">
        <ele>29.6</ele>
        <time>2021-08-14T13:01:49Z</time>
      </trkpt>
      <trkpt lat="47.57107" lon="-2.22336">
        <ele>29.6</ele>
        <time>2021-08-14T13:01:50Z</time>
      </trkpt>
      <trkpt lat="47.57109" lon="-2.22335">
        <ele>29.7</ele>
        <time>2021-08-14T13:01:51Z</time>
      </trkpt>
      <trkpt lat="47.57111" lon="-2.22334">
        <ele>29.9</ele>
        <time>2021-08-14T13:01:53Z</time>
      </trkpt>
      <trkpt lat="47.57112" lon="-2.22334">
        <ele>29.9</ele>
        <time>2021-08-14T13:01:54Z</time>
      </trkpt>
      <trkpt lat="47.57112" lon="-2.22334">
        <ele>29.9</ele>
        <time>2021-08-14T13:01:55Z</time>
      </trkpt>
      <trkpt lat="47.57112" lon="-2.22334">
        <ele>29.9</ele>
        <time>2021-08-14T13:01:57Z</time>
      </trkpt>
      <trkpt lat="47.57113" lon="-2.22334">
        <ele>29.9</ele>
        <time>2021-08-14T13:01:59Z</time>
      </trkpt>
      <trkpt lat="47.57113" lon="-2.22334">
        <ele>29.9</ele>
        <time>2021-08-14T13:02:00Z</time>
      </trkpt>
      <trkpt lat="47.57113" lon="-2.22334">
        <ele>30</ele>
        <time>2021-08-14T13:02:01Z</time>
      </trkpt>
      <trkpt lat="47.57113" lon="-2.22333">
        <ele>30</ele>
        <time>2021-08-14T13:02:03Z</time>
      </trkpt>
      <trkpt lat="47.57119" lon="-2.22331">
        <ele>30.2</ele>
        <time>2021-08-14T13:02:32Z</time>
      </trkpt>
      <trkpt lat="47.57122" lon="-2.22331">
        <ele>30.3</ele>
        <time>2021-08-14T13:02:35Z</time>
      </trkpt>
      <trkpt lat="47.57125" lon="-2.22329">
        <ele>30.4</ele>
        <time>2021-08-14T13:02:36Z</time>
      </trkpt>
      <trkpt lat="47.57127" lon="-2.22325">
        <ele>30.5</ele>
        <time>2021-08-14T13:02:37Z</time>
      </trkpt>
      <trkpt lat="47.57128" lon="-2.22323">
        <ele>30.5</ele>
        <time>2021-08-14T13:02:38Z</time>
      </trkpt>
      <trkpt lat="47.57127" lon="-2.22319">
        <ele>30.5</ele>
        <time>2021-08-14T13:02:40Z</time>
      </trkpt>
      <trkpt lat="47.57126" lon="-2.22316">
        <ele>30.6</ele>
        <time>2021-08-14T13:02:41Z</time>
      </trkpt>
      <trkpt lat="47.57125" lon="-2.22312">
        <ele>30.6</ele>
        <time>2021-08-14T13:02:43Z</time>
      </trkpt>
      <trkpt lat="47.57125" lon="-2.2231">
        <ele>30.6</ele>
        <time>2021-08-14T13:02:44Z</time>
      </trkpt>
      <trkpt lat="47.57123" lon="-2.22306">
        <ele>30.7</ele>
        <time>2021-08-14T13:02:46Z</time>
      </trkpt>
      <trkpt lat="47.57122" lon="-2.22302">
        <ele>30.8</ele>
        <time>2021-08-14T13:02:47Z</time>
      </trkpt>
      <trkpt lat="47.57122" lon="-2.22301">
        <ele>30.8</ele>
        <time>2021-08-14T13:02:49Z</time>
      </trkpt>
      <trkpt lat="47.57121" lon="-2.22299">
        <ele>30.8</ele>
        <time>2021-08-14T13:02:50Z</time>
      </trkpt>
      <trkpt lat="47.57121" lon="-2.22297">
        <ele>30.8</ele>
        <time>2021-08-14T13:02:51Z</time>
      </trkpt>
      <trkpt lat="47.5712" lon="-2.22292">
        <ele>30.9</ele>
        <time>2021-08-14T13:02:53Z</time>
      </trkpt>
      <trkpt lat="47.57119" lon="-2.22291">
        <ele>31</ele>
        <time>2021-08-14T13:02:54Z</time>
      </trkpt>
      <trkpt lat="47.57119" lon="-2.22288">
        <ele>31</ele>
        <time>2021-08-14T13:02:55Z</time>
      </trkpt>
      <trkpt lat="47.57119" lon="-2.22286">
        <ele>31</ele>
        <time>2021-08-14T13:02:56Z</time>
      </trkpt>
      <trkpt lat="47.57118" lon="-2.22282">
        <ele>31.1</ele>
        <time>2021-08-14T13:02:57Z</time>
      </trkpt>
      <trkpt lat="47.57117" lon="-2.2228">
        <ele>31.2</ele>
        <time>2021-08-14T13:02:59Z</time>
      </trkpt>
      <trkpt lat="47.57117" lon="-2.22278">
        <ele>31.2</ele>
        <time>2021-08-14T13:03:00Z</time>
      </trkpt>
      <trkpt lat="47.57117" lon="-2.22276">
        <ele>31.2</ele>
        <time>2021-08-14T13:03:01Z</time>
      </trkpt>
      <trkpt lat="47.57116" lon="-2.22271">
        <ele>31.3</ele>
        <time>2021-08-14T13:03:03Z</time>
      </trkpt>
      <trkpt lat="47.57115" lon="-2.22269">
        <ele>31.4</ele>
        <time>2021-08-14T13:03:04Z</time>
      </trkpt>
      <trkpt lat="47.57115" lon="-2.22267">
        <ele>31.4</ele>
        <time>2021-08-14T13:03:05Z</time>
      </trkpt>
      <trkpt lat="47.57115" lon="-2.22264">
        <ele>31.5</ele>
        <time>2021-08-14T13:03:06Z</time>
      </trkpt>
      <trkpt lat="47.57114" lon="-2.2226">
        <ele>31.6</ele>
        <time>2021-08-14T13:03:08Z</time>
      </trkpt>
      <trkpt lat="47.57114" lon="-2.22259">
        <ele>31.6</ele>
        <time>2021-08-14T13:03:09Z</time>
      </trkpt>
      <trkpt lat="47.57113" lon="-2.22256">
        <ele>31.6</ele>
        <time>2021-08-14T13:03:10Z</time>
      </trkpt>
      <trkpt lat="47.57113" lon="-2.22254">
        <ele>31.7</ele>
        <time>2021-08-14T13:03:11Z</time>
      </trkpt>
      <trkpt lat="47.57112" lon="-2.22247">
        <ele>31.8</ele>
        <time>2021-08-14T13:03:13Z</time>
      </trkpt>
      <trkpt lat="47.57111" lon="-2.22244">
        <ele>31.8</ele>
        <time>2021-08-14T13:03:15Z</time>
      </trkpt>
      <trkpt lat="47.57111" lon="-2.22242">
        <ele>31.9</ele>
        <time>2021-08-14T13:03:17Z</time>
      </trkpt>
      <trkpt lat="47.5711" lon="-2.22239">
        <ele>32</ele>
        <time>2021-08-14T13:03:18Z</time>
      </trkpt>
      <trkpt lat="47.5711" lon="-2.22237">
        <ele>32</ele>
        <time>2021-08-14T13:03:19Z</time>
      </trkpt>
      <trkpt lat="47.57109" lon="-2.22234">
        <ele>32</ele>
        <time>2021-08-14T13:03:20Z</time>
      </trkpt>
      <trkpt lat="47.57109" lon="-2.22232">
        <ele>32.1</ele>
        <time>2021-08-14T13:03:21Z</time>
      </trkpt>
      <trkpt lat="47.57108" lon="-2.22228">
        <ele>32.2</ele>
        <time>2021-08-14T13:03:23Z</time>
      </trkpt>
      <trkpt lat="47.57107" lon="-2.22226">
        <ele>32.2</ele>
        <time>2021-08-14T13:03:24Z</time>
      </trkpt>
      <trkpt lat="47.57107" lon="-2.22222">
        <ele>32.3</ele>
        <time>2021-08-14T13:03:26Z</time>
      </trkpt>
      <trkpt lat="47.57107" lon="-2.2222">
        <ele>32.3</ele>
        <time>2021-08-14T13:03:27Z</time>
      </trkpt>
      <trkpt lat="47.57106" lon="-2.22217">
        <ele>32.4</ele>
        <time>2021-08-14T13:03:28Z</time>
      </trkpt>
      <trkpt lat="47.57106" lon="-2.22214">
        <ele>32.4</ele>
        <time>2021-08-14T13:03:29Z</time>
      </trkpt>
      <trkpt lat="47.57105" lon="-2.22211">
        <ele>32.5</ele>
        <time>2021-08-14T13:03:31Z</time>
      </trkpt>
      <trkpt lat="47.57104" lon="-2.22208">
        <ele>32.5</ele>
        <time>2021-08-14T13:03:32Z</time>
      </trkpt>
      <trkpt lat="47.57104" lon="-2.22204">
        <ele>32.6</ele>
        <time>2021-08-14T13:03:34Z</time>
      </trkpt>
      <trkpt lat="47.57102" lon="-2.22199">
        <ele>32.7</ele>
        <time>2021-08-14T13:03:36Z</time>
      </trkpt>
      <trkpt lat="47.57102" lon="-2.22197">
        <ele>32.7</ele>
        <time>2021-08-14T13:03:37Z</time>
      </trkpt>
      <trkpt lat="47.57102" lon="-2.22193">
        <ele>32.7</ele>
        <time>2021-08-14T13:03:38Z</time>
      </trkpt>
      <trkpt lat="47.57101" lon="-2.22192">
        <ele>32.7</ele>
        <time>2021-08-14T13:03:39Z</time>
      </trkpt>
      <trkpt lat="47.571" lon="-2.22185">
        <ele>32.8</ele>
        <time>2021-08-14T13:03:41Z</time>
      </trkpt>
      <trkpt lat="47.571" lon="-2.22183">
        <ele>32.8</ele>
        <time>2021-08-14T13:03:43Z</time>
      </trkpt>
      <trkpt lat="47.57099" lon="-2.22181">
        <ele>32.9</ele>
        <time>2021-08-14T13:03:44Z</time>
      </trkpt>
      <trkpt lat="47.57099" lon="-2.22178">
        <ele>32.9</ele>
        <time>2021-08-14T13:03:45Z</time>
      </trkpt>
      <trkpt lat="47.57098" lon="-2.22176">
        <ele>32.9</ele>
        <time>2021-08-14T13:03:46Z</time>
      </trkpt>
      <trkpt lat="47.57098" lon="-2.22173">
        <ele>32.9</ele>
        <time>2021-08-14T13:03:47Z</time>
      </trkpt>
      <trkpt lat="47.57097" lon="-2.22168">
        <ele>33</ele>
        <time>2021-08-14T13:03:49Z</time>
      </trkpt>
      <trkpt lat="47.57096" lon="-2.22164">
        <ele>33</ele>
        <time>2021-08-14T13:03:51Z</time>
      </trkpt>
      <trkpt lat="47.57096" lon="-2.22162">
        <ele>33.1</ele>
        <time>2021-08-14T13:03:52Z</time>
      </trkpt>
      <trkpt lat="47.57095" lon="-2.22157">
        <ele>33.1</ele>
        <time>2021-08-14T13:03:54Z</time>
      </trkpt>
      <trkpt lat="47.57094" lon="-2.22153">
        <ele>33.1</ele>
        <time>2021-08-14T13:03:55Z</time>
      </trkpt>
      <trkpt lat="47.57094" lon="-2.22152">
        <ele>33.1</ele>
        <time>2021-08-14T13:03:56Z</time>
      </trkpt>
      <trkpt lat="47.57093" lon="-2.22147">
        <ele>33.2</ele>
        <time>2021-08-14T13:03:57Z</time>
      </trkpt>
      <trkpt lat="47.57093" lon="-2.22145">
        <ele>33.2</ele>
        <time>2021-08-14T13:03:58Z</time>
      </trkpt>
      <trkpt lat="47.57092" lon="-2.22141">
        <ele>33.3</ele>
        <time>2021-08-14T13:04:00Z</time>
      </trkpt>
      <trkpt lat="47.57091" lon="-2.22138">
        <ele>33.3</ele>
        <time>2021-08-14T13:04:01Z</time>
      </trkpt>
      <trkpt lat="47.5709" lon="-2.22133">
        <ele>33.3</ele>
        <time>2021-08-14T13:04:03Z</time>
      </trkpt>
      <trkpt lat="47.5709" lon="-2.22129">
        <ele>33.4</ele>
        <time>2021-08-14T13:04:04Z</time>
      </trkpt>
      <trkpt lat="47.57089" lon="-2.22126">
        <ele>33.4</ele>
        <time>2021-08-14T13:04:05Z</time>
      </trkpt>
      <trkpt lat="47.57088" lon="-2.22121">
        <ele>33.4</ele>
        <time>2021-08-14T13:04:07Z</time>
      </trkpt>
      <trkpt lat="47.57087" lon="-2.22117">
        <ele>33.5</ele>
        <time>2021-08-14T13:04:08Z</time>
      </trkpt>
      <trkpt lat="47.57086" lon="-2.22111">
        <ele>33.5</ele>
        <time>2021-08-14T13:04:10Z</time>
      </trkpt>
      <trkpt lat="47.57086" lon="-2.22108">
        <ele>33.5</ele>
        <time>2021-08-14T13:04:11Z</time>
      </trkpt>
      <trkpt lat="47.57084" lon="-2.22102">
        <ele>33.6</ele>
        <time>2021-08-14T13:04:13Z</time>
      </trkpt>
      <trkpt lat="47.57083" lon="-2.22095">
        <ele>33.6</ele>
        <time>2021-08-14T13:04:15Z</time>
      </trkpt>
      <trkpt lat="47.57083" lon="-2.22093">
        <ele>33.6</ele>
        <time>2021-08-14T13:04:16Z</time>
      </trkpt>
      <trkpt lat="47.57082" lon="-2.22091">
        <ele>33.6</ele>
        <time>2021-08-14T13:04:17Z</time>
      </trkpt>
      <trkpt lat="47.57081" lon="-2.22086">
        <ele>33.7</ele>
        <time>2021-08-14T13:04:19Z</time>
      </trkpt>
      <trkpt lat="47.5708" lon="-2.22081">
        <ele>33.7</ele>
        <time>2021-08-14T13:04:21Z</time>
      </trkpt>
      <trkpt lat="47.57079" lon="-2.22077">
        <ele>33.7</ele>
        <time>2021-08-14T13:04:22Z</time>
      </trkpt>
      <trkpt lat="47.57078" lon="-2.22072">
        <ele>33.8</ele>
        <time>2021-08-14T13:04:24Z</time>
      </trkpt>
      <trkpt lat="47.57078" lon="-2.22068">
        <ele>33.8</ele>
        <time>2021-08-14T13:04:25Z</time>
      </trkpt>
      <trkpt lat="47.57078" lon="-2.22067">
        <ele>33.8</ele>
        <time>2021-08-14T13:04:26Z</time>
      </trkpt>
      <trkpt lat="47.57077" lon="-2.22062">
        <ele>33.9</ele>
        <time>2021-08-14T13:04:28Z</time>
      </trkpt>
      <trkpt lat="47.57076" lon="-2.22058">
        <ele>33.9</ele>
        <time>2021-08-14T13:04:30Z</time>
      </trkpt>
      <trkpt lat="47.57075" lon="-2.22055">
        <ele>33.9</ele>
        <time>2021-08-14T13:04:31Z</time>
      </trkpt>
      <trkpt lat="47.57073" lon="-2.22049">
        <ele>33.9</ele>
        <time>2021-08-14T13:04:33Z</time>
      </trkpt>
      <trkpt lat="47.5707" lon="-2.22045">
        <ele>34</ele>
        <time>2021-08-14T13:04:35Z</time>
      </trkpt>
      <trkpt lat="47.57069" lon="-2.22044">
        <ele>34</ele>
        <time>2021-08-14T13:04:36Z</time>
      </trkpt>
      <trkpt lat="47.57068" lon="-2.22043">
        <ele>34.1</ele>
        <time>2021-08-14T13:04:37Z</time>
      </trkpt>
      <trkpt lat="47.57066" lon="-2.2204">
        <ele>34.1</ele>
        <time>2021-08-14T13:04:39Z</time>
      </trkpt>
      <trkpt lat="47.57064" lon="-2.2204">
        <ele>34.1</ele>
        <time>2021-08-14T13:04:40Z</time>
      </trkpt>
      <trkpt lat="47.57062" lon="-2.22041">
        <ele>34.2</ele>
        <time>2021-08-14T13:04:42Z</time>
      </trkpt>
      <trkpt lat="47.57061" lon="-2.22043">
        <ele>34.2</ele>
        <time>2021-08-14T13:04:44Z</time>
      </trkpt>
      <trkpt lat="47.57061" lon="-2.22043">
        <ele>34.2</ele>
        <time>2021-08-14T13:04:46Z</time>
      </trkpt>
      <trkpt lat="47.5706" lon="-2.22043">
        <ele>34.2</ele>
        <time>2021-08-14T13:04:47Z</time>
      </trkpt>
      <trkpt lat="47.5706" lon="-2.22043">
        <ele>34.2</ele>
        <time>2021-08-14T13:04:48Z</time>
      </trkpt>
      <trkpt lat="47.57059" lon="-2.22044">
        <ele>34.2</ele>
        <time>2021-08-14T13:04:50Z</time>
      </trkpt>
      <trkpt lat="47.57059" lon="-2.22044">
        <ele>34.2</ele>
        <time>2021-08-14T13:04:51Z</time>
      </trkpt>
      <trkpt lat="47.57058" lon="-2.22044">
        <ele>34.2</ele>
        <time>2021-08-14T13:04:53Z</time>
      </trkpt>
      <trkpt lat="47.57058" lon="-2.22044">
        <ele>34.2</ele>
        <time>2021-08-14T13:04:59Z</time>
      </trkpt>
      <trkpt lat="47.57057" lon="-2.22045">
        <ele>34.2</ele>
        <time>2021-08-14T13:05:00Z</time>
      </trkpt>
      <trkpt lat="47.57057" lon="-2.22045">
        <ele>34.2</ele>
        <time>2021-08-14T13:05:01Z</time>
      </trkpt>
      <trkpt lat="47.57053" lon="-2.22046">
        <ele>34.3</ele>
        <time>2021-08-14T13:05:03Z</time>
      </trkpt>
      <trkpt lat="47.57049" lon="-2.22047">
        <ele>34.3</ele>
        <time>2021-08-14T13:05:05Z</time>
      </trkpt>
      <trkpt lat="47.57047" lon="-2.22047">
        <ele>34.3</ele>
        <time>2021-08-14T13:05:06Z</time>
      </trkpt>
      <trkpt lat="47.57044" lon="-2.22049">
        <ele>34.4</ele>
        <time>2021-08-14T13:05:08Z</time>
      </trkpt>
      <trkpt lat="47.5704" lon="-2.2205">
        <ele>34.4</ele>
        <time>2021-08-14T13:05:09Z</time>
      </trkpt>
      <trkpt lat="47.57039" lon="-2.2205">
        <ele>34.4</ele>
        <time>2021-08-14T13:05:10Z</time>
      </trkpt>
      <trkpt lat="47.57037" lon="-2.22051">
        <ele>34.4</ele>
        <time>2021-08-14T13:05:12Z</time>
      </trkpt>
      <trkpt lat="47.57033" lon="-2.22052">
        <ele>34.5</ele>
        <time>2021-08-14T13:05:13Z</time>
      </trkpt>
      <trkpt lat="47.5703" lon="-2.22053">
        <ele>34.5</ele>
        <time>2021-08-14T13:05:15Z</time>
      </trkpt>
      <trkpt lat="47.57027" lon="-2.22055">
        <ele>34.5</ele>
        <time>2021-08-14T13:05:16Z</time>
      </trkpt>
      <trkpt lat="47.57025" lon="-2.22056">
        <ele>34.5</ele>
        <time>2021-08-14T13:05:18Z</time>
      </trkpt>
      <trkpt lat="47.57022" lon="-2.22058">
        <ele>34.5</ele>
        <time>2021-08-14T13:05:19Z</time>
      </trkpt>
      <trkpt lat="47.5702" lon="-2.22058">
        <ele>34.5</ele>
        <time>2021-08-14T13:05:20Z</time>
      </trkpt>
      <trkpt lat="47.57016" lon="-2.22059">
        <ele>34.6</ele>
        <time>2021-08-14T13:05:22Z</time>
      </trkpt>
      <trkpt lat="47.57012" lon="-2.22061">
        <ele>34.6</ele>
        <time>2021-08-14T13:05:24Z</time>
      </trkpt>
      <trkpt lat="47.57009" lon="-2.22062">
        <ele>34.6</ele>
        <time>2021-08-14T13:05:26Z</time>
      </trkpt>
      <trkpt lat="47.57005" lon="-2.22064">
        <ele>34.6</ele>
        <time>2021-08-14T13:05:28Z</time>
      </trkpt>
      <trkpt lat="47.57001" lon="-2.22065">
        <ele>34.6</ele>
        <time>2021-08-14T13:05:29Z</time>
      </trkpt>
      <trkpt lat="47.56998" lon="-2.22066">
        <ele>34.6</ele>
        <time>2021-08-14T13:05:30Z</time>
      </trkpt>
      <trkpt lat="47.56995" lon="-2.22066">
        <ele>34.6</ele>
        <time>2021-08-14T13:05:32Z</time>
      </trkpt>
      <trkpt lat="47.56991" lon="-2.22067">
        <ele>34.6</ele>
        <time>2021-08-14T13:05:33Z</time>
      </trkpt>
      <trkpt lat="47.56987" lon="-2.22068">
        <ele>34.6</ele>
        <time>2021-08-14T13:05:35Z</time>
      </trkpt>
      <trkpt lat="47.56983" lon="-2.22068">
        <ele>34.6</ele>
        <time>2021-08-14T13:05:36Z</time>
      </trkpt>
      <trkpt lat="47.5698" lon="-2.22068">
        <ele>34.6</ele>
        <time>2021-08-14T13:05:37Z</time>
      </trkpt>
      <trkpt lat="47.56976" lon="-2.22068">
        <ele>34.6</ele>
        <time>2021-08-14T13:05:38Z</time>
      </trkpt>
      <trkpt lat="47.56972" lon="-2.22068">
        <ele>34.6</ele>
        <time>2021-08-14T13:05:40Z</time>
      </trkpt>
      <trkpt lat="47.56969" lon="-2.22068">
        <ele>34.6</ele>
        <time>2021-08-14T13:05:41Z</time>
      </trkpt>
      <trkpt lat="47.56965" lon="-2.22067">
        <ele>34.6</ele>
        <time>2021-08-14T13:05:42Z</time>
      </trkpt>
      <trkpt lat="47.56962" lon="-2.22066">
        <ele>34.5</ele>
        <time>2021-08-14T13:05:44Z</time>
      </trkpt>
      <trkpt lat="47.56958" lon="-2.22065">
        <ele>34.5</ele>
        <time>2021-08-14T13:05:45Z</time>
      </trkpt>
      <trkpt lat="47.56954" lon="-2.22064">
        <ele>34.5</ele>
        <time>2021-08-14T13:05:46Z</time>
      </trkpt>
      <trkpt lat="47.56949" lon="-2.22061">
        <ele>34.5</ele>
        <time>2021-08-14T13:05:48Z</time>
      </trkpt>
      <trkpt lat="47.56945" lon="-2.22059">
        <ele>34.5</ele>
        <time>2021-08-14T13:05:49Z</time>
      </trkpt>
      <trkpt lat="47.56939" lon="-2.22057">
        <ele>34.4</ele>
        <time>2021-08-14T13:05:51Z</time>
      </trkpt>
      <trkpt lat="47.56934" lon="-2.22053">
        <ele>34.4</ele>
        <time>2021-08-14T13:05:53Z</time>
      </trkpt>
      <trkpt lat="47.56932" lon="-2.22051">
        <ele>34.4</ele>
        <time>2021-08-14T13:05:54Z</time>
      </trkpt>
      <trkpt lat="47.56929" lon="-2.22046">
        <ele>34.4</ele>
        <time>2021-08-14T13:05:56Z</time>
      </trkpt>
      <trkpt lat="47.56932" lon="-2.22044">
        <ele>34.3</ele>
        <time>2021-08-14T13:05:58Z</time>
      </trkpt>
      <trkpt lat="47.56933" lon="-2.22045">
        <ele>34.3</ele>
        <time>2021-08-14T13:05:59Z</time>
      </trkpt>
      <trkpt lat="47.56935" lon="-2.22047">
        <ele>34.3</ele>
        <time>2021-08-14T13:06:00Z</time>
      </trkpt>
      <trkpt lat="47.56937" lon="-2.22051">
        <ele>34.3</ele>
        <time>2021-08-14T13:06:02Z</time>
      </trkpt>
      <trkpt lat="47.56939" lon="-2.22055">
        <ele>34.3</ele>
        <time>2021-08-14T13:06:04Z</time>
      </trkpt>
      <trkpt lat="47.5694" lon="-2.22057">
        <ele>34.3</ele>
        <time>2021-08-14T13:06:05Z</time>
      </trkpt>
      <trkpt lat="47.56944" lon="-2.22059">
        <ele>34.2</ele>
        <time>2021-08-14T13:06:07Z</time>
      </trkpt>
      <trkpt lat="47.56948" lon="-2.2206">
        <ele>34.2</ele>
        <time>2021-08-14T13:06:09Z</time>
      </trkpt>
      <trkpt lat="47.5695" lon="-2.22061">
        <ele>34.2</ele>
        <time>2021-08-14T13:06:10Z</time>
      </trkpt>
      <trkpt lat="47.56954" lon="-2.22062">
        <ele>34.2</ele>
        <time>2021-08-14T13:06:12Z</time>
      </trkpt>
      <trkpt lat="47.56956" lon="-2.22063">
        <ele>34.1</ele>
        <time>2021-08-14T13:06:13Z</time>
      </trkpt>
      <trkpt lat="47.5696" lon="-2.22064">
        <ele>34.1</ele>
        <time>2021-08-14T13:06:15Z</time>
      </trkpt>
      <trkpt lat="47.56963" lon="-2.22065">
        <ele>34.1</ele>
        <time>2021-08-14T13:06:17Z</time>
      </trkpt>
      <trkpt lat="47.56966" lon="-2.22066">
        <ele>34.1</ele>
        <time>2021-08-14T13:06:19Z</time>
      </trkpt>
      <trkpt lat="47.56969" lon="-2.22066">
        <ele>34.1</ele>
        <time>2021-08-14T13:06:21Z</time>
      </trkpt>
      <trkpt lat="47.5697" lon="-2.22063">
        <ele>34.1</ele>
        <time>2021-08-14T13:06:23Z</time>
      </trkpt>
      <trkpt lat="47.5697" lon="-2.22062">
        <ele>34.1</ele>
        <time>2021-08-14T13:06:24Z</time>
      </trkpt>
      <trkpt lat="47.56968" lon="-2.22063">
        <ele>34</ele>
        <time>2021-08-14T13:06:25Z</time>
      </trkpt>
      <trkpt lat="47.56968" lon="-2.22063">
        <ele>34</ele>
        <time>2021-08-14T13:06:26Z</time>
      </trkpt>
      <trkpt lat="47.56967" lon="-2.22063">
        <ele>34</ele>
        <time>2021-08-14T13:06:28Z</time>
      </trkpt>
      <trkpt lat="47.56967" lon="-2.22063">
        <ele>34</ele>
        <time>2021-08-14T13:06:29Z</time>
      </trkpt>
      <trkpt lat="47.56967" lon="-2.22063">
        <ele>34</ele>
        <time>2021-08-14T13:06:31Z</time>
      </trkpt>
      <trkpt lat="47.56967" lon="-2.22063">
        <ele>34</ele>
        <time>2021-08-14T13:06:32Z</time>
      </trkpt>
      <trkpt lat="47.56967" lon="-2.22063">
        <ele>34</ele>
        <time>2021-08-14T13:06:33Z</time>
      </trkpt>
      <trkpt lat="47.56967" lon="-2.22063">
        <ele>34</ele>
        <time>2021-08-14T13:06:34Z</time>
      </trkpt>
      <trkpt lat="47.56967" lon="-2.22063">
        <ele>34</ele>
        <time>2021-08-14T13:06:36Z</time>
      </trkpt>
      <trkpt lat="47.56967" lon="-2.22063">
        <ele>34</ele>
        <time>2021-08-14T13:06:37Z</time>
      </trkpt>
      <trkpt lat="47.56967" lon="-2.22063">
        <ele>34</ele>
        <time>2021-08-14T13:06:38Z</time>
      </trkpt>
      <trkpt lat="47.56965" lon="-2.22066">
        <ele>34</ele>
        <time>2021-08-14T13:06:51Z</time>
      </trkpt>
      <trkpt lat="47.56963" lon="-2.22067">
        <ele>34</ele>
        <time>2021-08-14T13:06:52Z</time>
      </trkpt>
      <trkpt lat="47.56961" lon="-2.22066">
        <ele>34</ele>
        <time>2021-08-14T13:06:53Z</time>
      </trkpt>
      <trkpt lat="47.5696" lon="-2.22066">
        <ele>34</ele>
        <time>2021-08-14T13:06:54Z</time>
      </trkpt>
      <trkpt lat="47.56957" lon="-2.22065">
        <ele>34</ele>
        <time>2021-08-14T13:06:56Z</time>
      </trkpt>
      <trkpt lat="47.56956" lon="-2.22065">
        <ele>34</ele>
        <time>2021-08-14T13:06:58Z</time>
      </trkpt>
      <trkpt lat="47.56957" lon="-2.22064">
        <ele>34</ele>
        <time>2021-08-14T13:06:59Z</time>
      </trkpt>
      <trkpt lat="47.56957" lon="-2.22064">
        <ele>34</ele>
        <time>2021-08-14T13:07:00Z</time>
      </trkpt>
      <trkpt lat="47.56958" lon="-2.22064">
        <ele>34</ele>
        <time>2021-08-14T13:07:01Z</time>
      </trkpt>
      <trkpt lat="47.56958" lon="-2.22064">
        <ele>34</ele>
        <time>2021-08-14T13:07:02Z</time>
      </trkpt>
      <trkpt lat="47.56958" lon="-2.22064">
        <ele>34</ele>
        <time>2021-08-14T13:07:04Z</time>
      </trkpt>
      <trkpt lat="47.56958" lon="-2.22064">
        <ele>34</ele>
        <time>2021-08-14T13:07:05Z</time>
      </trkpt>
      <trkpt lat="47.56959" lon="-2.22064">
        <ele>34</ele>
        <time>2021-08-14T13:07:07Z</time>
      </trkpt>
      <trkpt lat="47.56957" lon="-2.22063">
        <ele>34</ele>
        <time>2021-08-14T13:07:34Z</time>
      </trkpt>
      <trkpt lat="47.56953" lon="-2.22061">
        <ele>34</ele>
        <time>2021-08-14T13:07:36Z</time>
      </trkpt>
      <trkpt lat="47.5695" lon="-2.22063">
        <ele>34</ele>
        <time>2021-08-14T13:07:38Z</time>
      </trkpt>
      <trkpt lat="47.56944" lon="-2.22059">
        <ele>33.9</ele>
        <time>2021-08-14T13:07:40Z</time>
      </trkpt>
      <trkpt lat="47.56941" lon="-2.22057">
        <ele>33.9</ele>
        <time>2021-08-14T13:07:41Z</time>
      </trkpt>
      <trkpt lat="47.56935" lon="-2.22052">
        <ele>33.9</ele>
        <time>2021-08-14T13:07:43Z</time>
      </trkpt>
      <trkpt lat="47.56929" lon="-2.22048">
        <ele>33.9</ele>
        <time>2021-08-14T13:07:45Z</time>
      </trkpt>
      <trkpt lat="47.56925" lon="-2.22046">
        <ele>33.9</ele>
        <time>2021-08-14T13:07:47Z</time>
      </trkpt>
      <trkpt lat="47.56921" lon="-2.22046">
        <ele>33.9</ele>
        <time>2021-08-14T13:07:49Z</time>
      </trkpt>
      <trkpt lat="47.56918" lon="-2.22047">
        <ele>33.9</ele>
        <time>2021-08-14T13:07:51Z</time>
      </trkpt>
      <trkpt lat="47.56917" lon="-2.22047">
        <ele>33.9</ele>
        <time>2021-08-14T13:07:52Z</time>
      </trkpt>
      <trkpt lat="47.56915" lon="-2.22047">
        <ele>33.9</ele>
        <time>2021-08-14T13:07:53Z</time>
      </trkpt>
      <trkpt lat="47.56913" lon="-2.22044">
        <ele>33.9</ele>
        <time>2021-08-14T13:07:55Z</time>
      </trkpt>
      <trkpt lat="47.5691" lon="-2.22039">
        <ele>33.9</ele>
        <time>2021-08-14T13:07:57Z</time>
      </trkpt>
      <trkpt lat="47.56908" lon="-2.22036">
        <ele>33.9</ele>
        <time>2021-08-14T13:07:58Z</time>
      </trkpt>
      <trkpt lat="47.56907" lon="-2.22036">
        <ele>33.9</ele>
        <time>2021-08-14T13:07:59Z</time>
      </trkpt>
      <trkpt lat="47.56904" lon="-2.22033">
        <ele>33.9</ele>
        <time>2021-08-14T13:08:01Z</time>
      </trkpt>
      <trkpt lat="47.569" lon="-2.22031">
        <ele>34</ele>
        <time>2021-08-14T13:08:03Z</time>
      </trkpt>
      <trkpt lat="47.56898" lon="-2.2203">
        <ele>34</ele>
        <time>2021-08-14T13:08:04Z</time>
      </trkpt>
      <trkpt lat="47.56897" lon="-2.22028">
        <ele>34</ele>
        <time>2021-08-14T13:08:05Z</time>
      </trkpt>
      <trkpt lat="47.56894" lon="-2.22028">
        <ele>34</ele>
        <time>2021-08-14T13:08:07Z</time>
      </trkpt>
      <trkpt lat="47.5689" lon="-2.22027">
        <ele>34</ele>
        <time>2021-08-14T13:08:08Z</time>
      </trkpt>
      <trkpt lat="47.56889" lon="-2.22027">
        <ele>34</ele>
        <time>2021-08-14T13:08:09Z</time>
      </trkpt>
      <trkpt lat="47.56885" lon="-2.22025">
        <ele>34.1</ele>
        <time>2021-08-14T13:08:11Z</time>
      </trkpt>
      <trkpt lat="47.56883" lon="-2.22024">
        <ele>34.1</ele>
        <time>2021-08-14T13:08:13Z</time>
      </trkpt>
      <trkpt lat="47.56881" lon="-2.22023">
        <ele>34.1</ele>
        <time>2021-08-14T13:08:14Z</time>
      </trkpt>
      <trkpt lat="47.5688" lon="-2.22022">
        <ele>34.1</ele>
        <time>2021-08-14T13:08:16Z</time>
      </trkpt>
      <trkpt lat="47.56878" lon="-2.22023">
        <ele>34.2</ele>
        <time>2021-08-14T13:08:18Z</time>
      </trkpt>
      <trkpt lat="47.56877" lon="-2.22023">
        <ele>34.2</ele>
        <time>2021-08-14T13:08:19Z</time>
      </trkpt>
      <trkpt lat="47.56875" lon="-2.22022">
        <ele>34.2</ele>
        <time>2021-08-14T13:08:20Z</time>
      </trkpt>
      <trkpt lat="47.56873" lon="-2.22022">
        <ele>34.2</ele>
        <time>2021-08-14T13:08:22Z</time>
      </trkpt>
      <trkpt lat="47.56868" lon="-2.22021">
        <ele>34.3</ele>
        <time>2021-08-14T13:08:24Z</time>
      </trkpt>
      <trkpt lat="47.56867" lon="-2.22021">
        <ele>34.3</ele>
        <time>2021-08-14T13:08:25Z</time>
      </trkpt>
      <trkpt lat="47.56866" lon="-2.22021">
        <ele>34.3</ele>
        <time>2021-08-14T13:08:26Z</time>
      </trkpt>
      <trkpt lat="47.56861" lon="-2.2202">
        <ele>34.4</ele>
        <time>2021-08-14T13:08:28Z</time>
      </trkpt>
      <trkpt lat="47.56857" lon="-2.2202">
        <ele>34.5</ele>
        <time>2021-08-14T13:08:30Z</time>
      </trkpt>
      <trkpt lat="47.56854" lon="-2.22019">
        <ele>34.5</ele>
        <time>2021-08-14T13:08:31Z</time>
      </trkpt>
      <trkpt lat="47.5685" lon="-2.22019">
        <ele>34.6</ele>
        <time>2021-08-14T13:08:32Z</time>
      </trkpt>
      <trkpt lat="47.56849" lon="-2.22019">
        <ele>34.6</ele>
        <time>2021-08-14T13:08:33Z</time>
      </trkpt>
      <trkpt lat="47.56847" lon="-2.22018">
        <ele>34.7</ele>
        <time>2021-08-14T13:08:34Z</time>
      </trkpt>
      <trkpt lat="47.56844" lon="-2.22017">
        <ele>34.7</ele>
        <time>2021-08-14T13:08:36Z</time>
      </trkpt>
      <trkpt lat="47.5684" lon="-2.22016">
        <ele>34.8</ele>
        <time>2021-08-14T13:08:37Z</time>
      </trkpt>
      <trkpt lat="47.56836" lon="-2.22015">
        <ele>34.9</ele>
        <time>2021-08-14T13:08:38Z</time>
      </trkpt>
      <trkpt lat="47.56835" lon="-2.22015">
        <ele>35</ele>
        <time>2021-08-14T13:08:39Z</time>
      </trkpt>
      <trkpt lat="47.56832" lon="-2.22015">
        <ele>35</ele>
        <time>2021-08-14T13:08:40Z</time>
      </trkpt>
      <trkpt lat="47.56828" lon="-2.22015">
        <ele>35.2</ele>
        <time>2021-08-14T13:08:42Z</time>
      </trkpt>
      <trkpt lat="47.56823" lon="-2.22016">
        <ele>35.4</ele>
        <time>2021-08-14T13:08:44Z</time>
      </trkpt>
      <trkpt lat="47.5682" lon="-2.22018">
        <ele>35.5</ele>
        <time>2021-08-14T13:08:45Z</time>
      </trkpt>
      <trkpt lat="47.56818" lon="-2.22019">
        <ele>35.5</ele>
        <time>2021-08-14T13:08:46Z</time>
      </trkpt>
      <trkpt lat="47.56815" lon="-2.22021">
        <ele>35.5</ele>
        <time>2021-08-14T13:08:48Z</time>
      </trkpt>
      <trkpt lat="47.56811" lon="-2.22023">
        <ele>35.6</ele>
        <time>2021-08-14T13:08:49Z</time>
      </trkpt>
      <trkpt lat="47.5681" lon="-2.22024">
        <ele>35.6</ele>
        <time>2021-08-14T13:08:50Z</time>
      </trkpt>
      <trkpt lat="47.56807" lon="-2.22026">
        <ele>35.7</ele>
        <time>2021-08-14T13:08:51Z</time>
      </trkpt>
      <trkpt lat="47.56806" lon="-2.22026">
        <ele>35.7</ele>
        <time>2021-08-14T13:08:52Z</time>
      </trkpt>
      <trkpt lat="47.56805" lon="-2.22028">
        <ele>35.7</ele>
        <time>2021-08-14T13:08:53Z</time>
      </trkpt>
      <trkpt lat="47.56802" lon="-2.2203">
        <ele>35.8</ele>
        <time>2021-08-14T13:08:55Z</time>
      </trkpt>
      <trkpt lat="47.56799" lon="-2.22032">
        <ele>35.9</ele>
        <time>2021-08-14T13:08:56Z</time>
      </trkpt>
      <trkpt lat="47.56798" lon="-2.22033">
        <ele>35.9</ele>
        <time>2021-08-14T13:08:57Z</time>
      </trkpt>
      <trkpt lat="47.56795" lon="-2.22035">
        <ele>36</ele>
        <time>2021-08-14T13:08:58Z</time>
      </trkpt>
      <trkpt lat="47.56794" lon="-2.22035">
        <ele>36</ele>
        <time>2021-08-14T13:08:59Z</time>
      </trkpt>
      <trkpt lat="47.56791" lon="-2.22037">
        <ele>36.1</ele>
        <time>2021-08-14T13:09:01Z</time>
      </trkpt>
      <trkpt lat="47.56788" lon="-2.22038">
        <ele>36.2</ele>
        <time>2021-08-14T13:09:02Z</time>
      </trkpt>
      <trkpt lat="47.56786" lon="-2.2204">
        <ele>36.2</ele>
        <time>2021-08-14T13:09:04Z</time>
      </trkpt>
      <trkpt lat="47.56783" lon="-2.22041">
        <ele>36.3</ele>
        <time>2021-08-14T13:09:05Z</time>
      </trkpt>
      <trkpt lat="47.56779" lon="-2.22044">
        <ele>36.5</ele>
        <time>2021-08-14T13:09:07Z</time>
      </trkpt>
      <trkpt lat="47.56778" lon="-2.22044">
        <ele>36.5</ele>
        <time>2021-08-14T13:09:08Z</time>
      </trkpt>
      <trkpt lat="47.56777" lon="-2.22045">
        <ele>36.6</ele>
        <time>2021-08-14T13:09:09Z</time>
      </trkpt>
      <trkpt lat="47.56774" lon="-2.22046">
        <ele>36.7</ele>
        <time>2021-08-14T13:09:10Z</time>
      </trkpt>
      <trkpt lat="47.56773" lon="-2.22046">
        <ele>36.7</ele>
        <time>2021-08-14T13:09:11Z</time>
      </trkpt>
      <trkpt lat="47.56772" lon="-2.22046">
        <ele>36.8</ele>
        <time>2021-08-14T13:09:12Z</time>
      </trkpt>
      <trkpt lat="47.56768" lon="-2.22048">
        <ele>36.9</ele>
        <time>2021-08-14T13:09:14Z</time>
      </trkpt>
      <trkpt lat="47.56765" lon="-2.22048">
        <ele>37.1</ele>
        <time>2021-08-14T13:09:16Z</time>
      </trkpt>
      <trkpt lat="47.56762" lon="-2.22049">
        <ele>37.2</ele>
        <time>2021-08-14T13:09:18Z</time>
      </trkpt>
      <trkpt lat="47.5676" lon="-2.22049">
        <ele>37.3</ele>
        <time>2021-08-14T13:09:19Z</time>
      </trkpt>
      <trkpt lat="47.56756" lon="-2.2205">
        <ele>37.4</ele>
        <time>2021-08-14T13:09:21Z</time>
      </trkpt>
      <trkpt lat="47.56753" lon="-2.22052">
        <ele>37.6</ele>
        <time>2021-08-14T13:09:23Z</time>
      </trkpt>
      <trkpt lat="47.5675" lon="-2.22053">
        <ele>37.8</ele>
        <time>2021-08-14T13:09:25Z</time>
      </trkpt>
      <trkpt lat="47.56748" lon="-2.22053">
        <ele>37.8</ele>
        <time>2021-08-14T13:09:26Z</time>
      </trkpt>
      <trkpt lat="47.56746" lon="-2.22054">
        <ele>37.9</ele>
        <time>2021-08-14T13:09:28Z</time>
      </trkpt>
      <trkpt lat="47.56743" lon="-2.22055">
        <ele>38.1</ele>
        <time>2021-08-14T13:09:29Z</time>
      </trkpt>
      <trkpt lat="47.56741" lon="-2.22055">
        <ele>38.2</ele>
        <time>2021-08-14T13:09:30Z</time>
      </trkpt>
      <trkpt lat="47.56738" lon="-2.22055">
        <ele>38.3</ele>
        <time>2021-08-14T13:09:32Z</time>
      </trkpt>
      <trkpt lat="47.56735" lon="-2.22055">
        <ele>38.5</ele>
        <time>2021-08-14T13:09:33Z</time>
      </trkpt>
      <trkpt lat="47.56734" lon="-2.22055">
        <ele>38.5</ele>
        <time>2021-08-14T13:09:34Z</time>
      </trkpt>
      <trkpt lat="47.56731" lon="-2.22056">
        <ele>38.7</ele>
        <time>2021-08-14T13:09:36Z</time>
      </trkpt>
      <trkpt lat="47.56729" lon="-2.22056">
        <ele>38.8</ele>
        <time>2021-08-14T13:09:37Z</time>
      </trkpt>
      <trkpt lat="47.56726" lon="-2.22057">
        <ele>39</ele>
        <time>2021-08-14T13:09:39Z</time>
      </trkpt>
      <trkpt lat="47.56722" lon="-2.22056">
        <ele>39.2</ele>
        <time>2021-08-14T13:09:41Z</time>
      </trkpt>
      <trkpt lat="47.5672" lon="-2.22056">
        <ele>39.2</ele>
        <time>2021-08-14T13:09:42Z</time>
      </trkpt>
      <trkpt lat="47.56717" lon="-2.22057">
        <ele>39.4</ele>
        <time>2021-08-14T13:09:44Z</time>
      </trkpt>
      <trkpt lat="47.56713" lon="-2.22058">
        <ele>39.6</ele>
        <time>2021-08-14T13:09:46Z</time>
      </trkpt>
      <trkpt lat="47.56709" lon="-2.22058">
        <ele>39.8</ele>
        <time>2021-08-14T13:09:48Z</time>
      </trkpt>
      <trkpt lat="47.56706" lon="-2.22058">
        <ele>40</ele>
        <time>2021-08-14T13:09:50Z</time>
      </trkpt>
      <trkpt lat="47.56702" lon="-2.22058">
        <ele>40.2</ele>
        <time>2021-08-14T13:09:52Z</time>
      </trkpt>
      <trkpt lat="47.56701" lon="-2.22059">
        <ele>40.3</ele>
        <time>2021-08-14T13:09:53Z</time>
      </trkpt>
      <trkpt lat="47.56698" lon="-2.22059">
        <ele>40.4</ele>
        <time>2021-08-14T13:09:55Z</time>
      </trkpt>
      <trkpt lat="47.56695" lon="-2.2206">
        <ele>40.5</ele>
        <time>2021-08-14T13:09:56Z</time>
      </trkpt>
      <trkpt lat="47.56691" lon="-2.2206">
        <ele>40.7</ele>
        <time>2021-08-14T13:09:58Z</time>
      </trkpt>
      <trkpt lat="47.56689" lon="-2.22061">
        <ele>40.8</ele>
        <time>2021-08-14T13:09:59Z</time>
      </trkpt>
      <trkpt lat="47.56686" lon="-2.22061">
        <ele>41</ele>
        <time>2021-08-14T13:10:01Z</time>
      </trkpt>
      <trkpt lat="47.56684" lon="-2.22061">
        <ele>41.1</ele>
        <time>2021-08-14T13:10:02Z</time>
      </trkpt>
      <trkpt lat="47.56681" lon="-2.22062">
        <ele>41.3</ele>
        <time>2021-08-14T13:10:04Z</time>
      </trkpt>
      <trkpt lat="47.56678" lon="-2.22062">
        <ele>41.4</ele>
        <time>2021-08-14T13:10:06Z</time>
      </trkpt>
      <trkpt lat="47.56675" lon="-2.22062">
        <ele>41.6</ele>
        <time>2021-08-14T13:10:08Z</time>
      </trkpt>
      <trkpt lat="47.56672" lon="-2.22063">
        <ele>41.7</ele>
        <time>2021-08-14T13:10:10Z</time>
      </trkpt>
      <trkpt lat="47.5667" lon="-2.22063">
        <ele>41.8</ele>
        <time>2021-08-14T13:10:12Z</time>
      </trkpt>
      <trkpt lat="47.56668" lon="-2.22063">
        <ele>41.9</ele>
        <time>2021-08-14T13:10:14Z</time>
      </trkpt>
      <trkpt lat="47.56666" lon="-2.22064">
        <ele>42</ele>
        <time>2021-08-14T13:10:16Z</time>
      </trkpt>
      <trkpt lat="47.56663" lon="-2.22065">
        <ele>42.1</ele>
        <time>2021-08-14T13:10:18Z</time>
      </trkpt>
      <trkpt lat="47.56661" lon="-2.22066">
        <ele>42.3</ele>
        <time>2021-08-14T13:10:20Z</time>
      </trkpt>
      <trkpt lat="47.5666" lon="-2.22066">
        <ele>42.3</ele>
        <time>2021-08-14T13:10:22Z</time>
      </trkpt>
      <trkpt lat="47.56659" lon="-2.22066">
        <ele>42.4</ele>
        <time>2021-08-14T13:10:23Z</time>
      </trkpt>
      <trkpt lat="47.56656" lon="-2.22067">
        <ele>42.5</ele>
        <time>2021-08-14T13:10:25Z</time>
      </trkpt>
      <trkpt lat="47.56654" lon="-2.22067">
        <ele>42.6</ele>
        <time>2021-08-14T13:10:27Z</time>
      </trkpt>
      <trkpt lat="47.56652" lon="-2.22067">
        <ele>42.7</ele>
        <time>2021-08-14T13:10:28Z</time>
      </trkpt>
      <trkpt lat="47.56651" lon="-2.22067">
        <ele>42.8</ele>
        <time>2021-08-14T13:10:29Z</time>
      </trkpt>
      <trkpt lat="47.56649" lon="-2.22066">
        <ele>42.9</ele>
        <time>2021-08-14T13:10:31Z</time>
      </trkpt>
      <trkpt lat="47.56646" lon="-2.22067">
        <ele>43</ele>
        <time>2021-08-14T13:10:33Z</time>
      </trkpt>
      <trkpt lat="47.56644" lon="-2.22067">
        <ele>43.1</ele>
        <time>2021-08-14T13:10:34Z</time>
      </trkpt>
      <trkpt lat="47.56644" lon="-2.22068">
        <ele>43.1</ele>
        <time>2021-08-14T13:10:35Z</time>
      </trkpt>
      <trkpt lat="47.56641" lon="-2.22068">
        <ele>43.3</ele>
        <time>2021-08-14T13:10:37Z</time>
      </trkpt>
      <trkpt lat="47.5664" lon="-2.22068">
        <ele>43.3</ele>
        <time>2021-08-14T13:10:38Z</time>
      </trkpt>
      <trkpt lat="47.56637" lon="-2.22069">
        <ele>43.5</ele>
        <time>2021-08-14T13:10:40Z</time>
      </trkpt>
      <trkpt lat="47.56635" lon="-2.22069">
        <ele>43.6</ele>
        <time>2021-08-14T13:10:41Z</time>
      </trkpt>
      <trkpt lat="47.56633" lon="-2.22069">
        <ele>43.7</ele>
        <time>2021-08-14T13:10:43Z</time>
      </trkpt>
      <trkpt lat="47.56629" lon="-2.2207">
        <ele>43.8</ele>
        <time>2021-08-14T13:10:45Z</time>
      </trkpt>
      <trkpt lat="47.56629" lon="-2.2207">
        <ele>43.9</ele>
        <time>2021-08-14T13:10:46Z</time>
      </trkpt>
      <trkpt lat="47.56627" lon="-2.2207">
        <ele>44</ele>
        <time>2021-08-14T13:10:47Z</time>
      </trkpt>
      <trkpt lat="47.56625" lon="-2.2207">
        <ele>44.1</ele>
        <time>2021-08-14T13:10:49Z</time>
      </trkpt>
      <trkpt lat="47.56623" lon="-2.22071">
        <ele>44.2</ele>
        <time>2021-08-14T13:10:50Z</time>
      </trkpt>
      <trkpt lat="47.56622" lon="-2.22071">
        <ele>44.2</ele>
        <time>2021-08-14T13:10:51Z</time>
      </trkpt>
      <trkpt lat="47.56621" lon="-2.22071">
        <ele>44.3</ele>
        <time>2021-08-14T13:10:52Z</time>
      </trkpt>
      <trkpt lat="47.56618" lon="-2.22071">
        <ele>44.4</ele>
        <time>2021-08-14T13:10:54Z</time>
      </trkpt>
      <trkpt lat="47.56615" lon="-2.22071">
        <ele>44.6</ele>
        <time>2021-08-14T13:10:56Z</time>
      </trkpt>
      <trkpt lat="47.56612" lon="-2.22072">
        <ele>44.7</ele>
        <time>2021-08-14T13:10:58Z</time>
      </trkpt>
      <trkpt lat="47.56611" lon="-2.22072">
        <ele>44.8</ele>
        <time>2021-08-14T13:10:59Z</time>
      </trkpt>
      <trkpt lat="47.5661" lon="-2.22072">
        <ele>44.9</ele>
        <time>2021-08-14T13:11:00Z</time>
      </trkpt>
      <trkpt lat="47.56607" lon="-2.22072">
        <ele>45</ele>
        <time>2021-08-14T13:11:02Z</time>
      </trkpt>
      <trkpt lat="47.56606" lon="-2.22072">
        <ele>45.1</ele>
        <time>2021-08-14T13:11:03Z</time>
      </trkpt>
      <trkpt lat="47.56604" lon="-2.22072">
        <ele>45.1</ele>
        <time>2021-08-14T13:11:04Z</time>
      </trkpt>
      <trkpt lat="47.56602" lon="-2.22073">
        <ele>45.3</ele>
        <time>2021-08-14T13:11:06Z</time>
      </trkpt>
      <trkpt lat="47.56599" lon="-2.22073">
        <ele>45.4</ele>
        <time>2021-08-14T13:11:08Z</time>
      </trkpt>
      <trkpt lat="47.56597" lon="-2.22074">
        <ele>45.5</ele>
        <time>2021-08-14T13:11:09Z</time>
      </trkpt>
      <trkpt lat="47.56595" lon="-2.22074">
        <ele>45.6</ele>
        <time>2021-08-14T13:11:11Z</time>
      </trkpt>
      <trkpt lat="47.56591" lon="-2.22075">
        <ele>45.8</ele>
        <time>2021-08-14T13:11:13Z</time>
      </trkpt>
      <trkpt lat="47.56591" lon="-2.22075">
        <ele>45.8</ele>
        <time>2021-08-14T13:11:14Z</time>
      </trkpt>
      <trkpt lat="47.56589" lon="-2.22075">
        <ele>45.9</ele>
        <time>2021-08-14T13:11:15Z</time>
      </trkpt>
      <trkpt lat="47.56588" lon="-2.22076">
        <ele>46</ele>
        <time>2021-08-14T13:11:16Z</time>
      </trkpt>
      <trkpt lat="47.56585" lon="-2.22076">
        <ele>46.1</ele>
        <time>2021-08-14T13:11:18Z</time>
      </trkpt>
      <trkpt lat="47.56582" lon="-2.22076">
        <ele>46.3</ele>
        <time>2021-08-14T13:11:20Z</time>
      </trkpt>
      <trkpt lat="47.5658" lon="-2.22076">
        <ele>46.4</ele>
        <time>2021-08-14T13:11:22Z</time>
      </trkpt>
      <trkpt lat="47.56578" lon="-2.22076">
        <ele>46.5</ele>
        <time>2021-08-14T13:11:23Z</time>
      </trkpt>
      <trkpt lat="47.56576" lon="-2.22077">
        <ele>46.6</ele>
        <time>2021-08-14T13:11:25Z</time>
      </trkpt>
      <trkpt lat="47.56574" lon="-2.22077">
        <ele>46.7</ele>
        <time>2021-08-14T13:11:26Z</time>
      </trkpt>
      <trkpt lat="47.56571" lon="-2.22078">
        <ele>46.8</ele>
        <time>2021-08-14T13:11:28Z</time>
      </trkpt>
      <trkpt lat="47.5657" lon="-2.22078">
        <ele>46.9</ele>
        <time>2021-08-14T13:11:29Z</time>
      </trkpt>
      <trkpt lat="47.56567" lon="-2.22078">
        <ele>47</ele>
        <time>2021-08-14T13:11:31Z</time>
      </trkpt>
      <trkpt lat="47.56566" lon="-2.22078">
        <ele>47.1</ele>
        <time>2021-08-14T13:11:32Z</time>
      </trkpt>
      <trkpt lat="47.56565" lon="-2.22079">
        <ele>47.1</ele>
        <time>2021-08-14T13:11:33Z</time>
      </trkpt>
      <trkpt lat="47.56563" lon="-2.22079">
        <ele>47.2</ele>
        <time>2021-08-14T13:11:34Z</time>
      </trkpt>
      <trkpt lat="47.56562" lon="-2.22079">
        <ele>47.3</ele>
        <time>2021-08-14T13:11:35Z</time>
      </trkpt>
      <trkpt lat="47.56559" lon="-2.22079">
        <ele>47.4</ele>
        <time>2021-08-14T13:11:37Z</time>
      </trkpt>
      <trkpt lat="47.56558" lon="-2.22079">
        <ele>47.5</ele>
        <time>2021-08-14T13:11:38Z</time>
      </trkpt>
      <trkpt lat="47.56556" lon="-2.2208">
        <ele>47.5</ele>
        <time>2021-08-14T13:11:39Z</time>
      </trkpt>
      <trkpt lat="47.56553" lon="-2.2208">
        <ele>47.7</ele>
        <time>2021-08-14T13:11:41Z</time>
      </trkpt>
      <trkpt lat="47.56552" lon="-2.2208">
        <ele>47.7</ele>
        <time>2021-08-14T13:11:42Z</time>
      </trkpt>
      <trkpt lat="47.5655" lon="-2.2208">
        <ele>47.8</ele>
        <time>2021-08-14T13:11:44Z</time>
      </trkpt>
      <trkpt lat="47.56548" lon="-2.2208">
        <ele>47.9</ele>
        <time>2021-08-14T13:11:45Z</time>
      </trkpt>
      <trkpt lat="47.56545" lon="-2.22081">
        <ele>48</ele>
        <time>2021-08-14T13:11:47Z</time>
      </trkpt>
      <trkpt lat="47.56543" lon="-2.22081">
        <ele>48.1</ele>
        <time>2021-08-14T13:11:48Z</time>
      </trkpt>
      <trkpt lat="47.56541" lon="-2.22081">
        <ele>48.3</ele>
        <time>2021-08-14T13:11:50Z</time>
      </trkpt>
      <trkpt lat="47.56539" lon="-2.22082">
        <ele>48.3</ele>
        <time>2021-08-14T13:11:51Z</time>
      </trkpt>
      <trkpt lat="47.56537" lon="-2.22082">
        <ele>48.4</ele>
        <time>2021-08-14T13:11:53Z</time>
      </trkpt>
      <trkpt lat="47.56533" lon="-2.22082">
        <ele>48.6</ele>
        <time>2021-08-14T13:11:55Z</time>
      </trkpt>
      <trkpt lat="47.56533" lon="-2.22082">
        <ele>48.6</ele>
        <time>2021-08-14T13:11:56Z</time>
      </trkpt>
      <trkpt lat="47.56529" lon="-2.22082">
        <ele>48.8</ele>
        <time>2021-08-14T13:11:58Z</time>
      </trkpt>
      <trkpt lat="47.56529" lon="-2.22082">
        <ele>48.8</ele>
        <time>2021-08-14T13:11:59Z</time>
      </trkpt>
      <trkpt lat="47.56526" lon="-2.22083">
        <ele>49</ele>
        <time>2021-08-14T13:12:01Z</time>
      </trkpt>
      <trkpt lat="47.56525" lon="-2.22083">
        <ele>49</ele>
        <time>2021-08-14T13:12:02Z</time>
      </trkpt>
      <trkpt lat="47.56522" lon="-2.22084">
        <ele>49.2</ele>
        <time>2021-08-14T13:12:04Z</time>
      </trkpt>
      <trkpt lat="47.56521" lon="-2.22084">
        <ele>49.2</ele>
        <time>2021-08-14T13:12:05Z</time>
      </trkpt>
      <trkpt lat="47.56519" lon="-2.22084">
        <ele>49.3</ele>
        <time>2021-08-14T13:12:06Z</time>
      </trkpt>
      <trkpt lat="47.56518" lon="-2.22084">
        <ele>49.4</ele>
        <time>2021-08-14T13:12:07Z</time>
      </trkpt>
      <trkpt lat="47.56516" lon="-2.22084">
        <ele>49.4</ele>
        <time>2021-08-14T13:12:08Z</time>
      </trkpt>
      <trkpt lat="47.56513" lon="-2.22084">
        <ele>49.6</ele>
        <time>2021-08-14T13:12:10Z</time>
      </trkpt>
      <trkpt lat="47.56512" lon="-2.22084">
        <ele>49.6</ele>
        <time>2021-08-14T13:12:11Z</time>
      </trkpt>
      <trkpt lat="47.56509" lon="-2.22084">
        <ele>49.8</ele>
        <time>2021-08-14T13:12:13Z</time>
      </trkpt>
      <trkpt lat="47.56508" lon="-2.22084">
        <ele>49.8</ele>
        <time>2021-08-14T13:12:14Z</time>
      </trkpt>
      <trkpt lat="47.56507" lon="-2.22084">
        <ele>49.9</ele>
        <time>2021-08-14T13:12:15Z</time>
      </trkpt>
      <trkpt lat="47.56504" lon="-2.22084">
        <ele>50</ele>
        <time>2021-08-14T13:12:17Z</time>
      </trkpt>
      <trkpt lat="47.56503" lon="-2.22084">
        <ele>50.1</ele>
        <time>2021-08-14T13:12:18Z</time>
      </trkpt>
      <trkpt lat="47.565" lon="-2.22085">
        <ele>50.2</ele>
        <time>2021-08-14T13:12:20Z</time>
      </trkpt>
      <trkpt lat="47.56499" lon="-2.22085">
        <ele>50.3</ele>
        <time>2021-08-14T13:12:21Z</time>
      </trkpt>
      <trkpt lat="47.56496" lon="-2.22085">
        <ele>50.4</ele>
        <time>2021-08-14T13:12:23Z</time>
      </trkpt>
      <trkpt lat="47.56495" lon="-2.22085">
        <ele>50.5</ele>
        <time>2021-08-14T13:12:24Z</time>
      </trkpt>
      <trkpt lat="47.56493" lon="-2.22086">
        <ele>50.6</ele>
        <time>2021-08-14T13:12:25Z</time>
      </trkpt>
      <trkpt lat="47.5649" lon="-2.22087">
        <ele>50.7</ele>
        <time>2021-08-14T13:12:27Z</time>
      </trkpt>
      <trkpt lat="47.56489" lon="-2.22087">
        <ele>50.8</ele>
        <time>2021-08-14T13:12:28Z</time>
      </trkpt>
      <trkpt lat="47.56487" lon="-2.22086">
        <ele>50.9</ele>
        <time>2021-08-14T13:12:30Z</time>
      </trkpt>
      <trkpt lat="47.56484" lon="-2.22086">
        <ele>51.1</ele>
        <time>2021-08-14T13:12:32Z</time>
      </trkpt>
      <trkpt lat="47.56483" lon="-2.22086">
        <ele>51.1</ele>
        <time>2021-08-14T13:12:33Z</time>
      </trkpt>
      <trkpt lat="47.5648" lon="-2.22085">
        <ele>51.3</ele>
        <time>2021-08-14T13:12:35Z</time>
      </trkpt>
      <trkpt lat="47.56477" lon="-2.22085">
        <ele>51.4</ele>
        <time>2021-08-14T13:12:37Z</time>
      </trkpt>
      <trkpt lat="47.56474" lon="-2.22084">
        <ele>51.6</ele>
        <time>2021-08-14T13:12:39Z</time>
      </trkpt>
      <trkpt lat="47.56472" lon="-2.22084">
        <ele>51.7</ele>
        <time>2021-08-14T13:12:41Z</time>
      </trkpt>
      <trkpt lat="47.56469" lon="-2.22084">
        <ele>51.9</ele>
        <time>2021-08-14T13:12:43Z</time>
      </trkpt>
      <trkpt lat="47.56468" lon="-2.22083">
        <ele>52</ele>
        <time>2021-08-14T13:12:44Z</time>
      </trkpt>
      <trkpt lat="47.56466" lon="-2.22083">
        <ele>52.1</ele>
        <time>2021-08-14T13:12:46Z</time>
      </trkpt>
      <trkpt lat="47.56464" lon="-2.22082">
        <ele>52.2</ele>
        <time>2021-08-14T13:12:47Z</time>
      </trkpt>
      <trkpt lat="47.56463" lon="-2.22082">
        <ele>52.3</ele>
        <time>2021-08-14T13:12:48Z</time>
      </trkpt>
      <trkpt lat="47.56461" lon="-2.22082">
        <ele>52.3</ele>
        <time>2021-08-14T13:12:49Z</time>
      </trkpt>
      <trkpt lat="47.5646" lon="-2.22081">
        <ele>52.4</ele>
        <time>2021-08-14T13:12:51Z</time>
      </trkpt>
      <trkpt lat="47.56459" lon="-2.22081">
        <ele>52.5</ele>
        <time>2021-08-14T13:12:52Z</time>
      </trkpt>
      <trkpt lat="47.56457" lon="-2.22079">
        <ele>52.6</ele>
        <time>2021-08-14T13:12:54Z</time>
      </trkpt>
      <trkpt lat="47.56457" lon="-2.22079">
        <ele>52.6</ele>
        <time>2021-08-14T13:12:55Z</time>
      </trkpt>
      <trkpt lat="47.56458" lon="-2.22079">
        <ele>52.7</ele>
        <time>2021-08-14T13:12:57Z</time>
      </trkpt>
      <trkpt lat="47.56458" lon="-2.2208">
        <ele>52.7</ele>
        <time>2021-08-14T13:12:59Z</time>
      </trkpt>
      <trkpt lat="47.5646" lon="-2.22081">
        <ele>52.8</ele>
        <time>2021-08-14T13:13:01Z</time>
      </trkpt>
      <trkpt lat="47.5646" lon="-2.22081">
        <ele>52.8</ele>
        <time>2021-08-14T13:13:02Z</time>
      </trkpt>
      <trkpt lat="47.56458" lon="-2.2208">
        <ele>52.9</ele>
        <time>2021-08-14T13:13:03Z</time>
      </trkpt>
      <trkpt lat="47.56457" lon="-2.22079">
        <ele>53</ele>
        <time>2021-08-14T13:13:05Z</time>
      </trkpt>
      <trkpt lat="47.56456" lon="-2.22078">
        <ele>53.1</ele>
        <time>2021-08-14T13:14:40Z</time>
      </trkpt>
      <trkpt lat="47.56454" lon="-2.22076">
        <ele>53.2</ele>
        <time>2021-08-14T13:14:41Z</time>
      </trkpt>
      <trkpt lat="47.56453" lon="-2.22075">
        <ele>53.3</ele>
        <time>2021-08-14T13:14:42Z</time>
      </trkpt>
      <trkpt lat="47.56452" lon="-2.22074">
        <ele>53.3</ele>
        <time>2021-08-14T13:14:43Z</time>
      </trkpt>
      <trkpt lat="47.56449" lon="-2.22072">
        <ele>53.5</ele>
        <time>2021-08-14T13:14:45Z</time>
      </trkpt>
      <trkpt lat="47.56446" lon="-2.22071">
        <ele>53.7</ele>
        <time>2021-08-14T13:14:47Z</time>
      </trkpt>
      <trkpt lat="47.56445" lon="-2.2207">
        <ele>53.8</ele>
        <time>2021-08-14T13:14:48Z</time>
      </trkpt>
      <trkpt lat="47.56442" lon="-2.22069">
        <ele>53.9</ele>
        <time>2021-08-14T13:14:50Z</time>
      </trkpt>
      <trkpt lat="47.5644" lon="-2.22068">
        <ele>54</ele>
        <time>2021-08-14T13:14:51Z</time>
      </trkpt>
      <trkpt lat="47.56438" lon="-2.22066">
        <ele>54.2</ele>
        <time>2021-08-14T13:14:53Z</time>
      </trkpt>
      <trkpt lat="47.56434" lon="-2.22062">
        <ele>54.4</ele>
        <time>2021-08-14T13:14:55Z</time>
      </trkpt>
      <trkpt lat="47.56432" lon="-2.22061">
        <ele>54.5</ele>
        <time>2021-08-14T13:14:57Z</time>
      </trkpt>
      <trkpt lat="47.5643" lon="-2.2206">
        <ele>54.6</ele>
        <time>2021-08-14T13:14:59Z</time>
      </trkpt>
      <trkpt lat="47.56429" lon="-2.22058">
        <ele>54.7</ele>
        <time>2021-08-14T13:15:01Z</time>
      </trkpt>
      <trkpt lat="47.56427" lon="-2.22057">
        <ele>54.8</ele>
        <time>2021-08-14T13:15:02Z</time>
      </trkpt>
      <trkpt lat="47.56425" lon="-2.22054">
        <ele>55</ele>
        <time>2021-08-14T13:15:04Z</time>
      </trkpt>
      <trkpt lat="47.56424" lon="-2.22053">
        <ele>55.1</ele>
        <time>2021-08-14T13:15:05Z</time>
      </trkpt>
      <trkpt lat="47.56421" lon="-2.22051">
        <ele>55.2</ele>
        <time>2021-08-14T13:15:07Z</time>
      </trkpt>
      <trkpt lat="47.5642" lon="-2.2205">
        <ele>55.3</ele>
        <time>2021-08-14T13:15:08Z</time>
      </trkpt>
      <trkpt lat="47.56417" lon="-2.22048">
        <ele>55.5</ele>
        <time>2021-08-14T13:15:10Z</time>
      </trkpt>
      <trkpt lat="47.56416" lon="-2.22047">
        <ele>55.6</ele>
        <time>2021-08-14T13:15:11Z</time>
      </trkpt>
      <trkpt lat="47.56414" lon="-2.22046">
        <ele>55.6</ele>
        <time>2021-08-14T13:15:12Z</time>
      </trkpt>
      <trkpt lat="47.56411" lon="-2.22044">
        <ele>55.8</ele>
        <time>2021-08-14T13:15:14Z</time>
      </trkpt>
      <trkpt lat="47.56409" lon="-2.22043">
        <ele>55.9</ele>
        <time>2021-08-14T13:15:16Z</time>
      </trkpt>
      <trkpt lat="47.56406" lon="-2.22041">
        <ele>56.1</ele>
        <time>2021-08-14T13:15:18Z</time>
      </trkpt>
      <trkpt lat="47.56403" lon="-2.22041">
        <ele>56.2</ele>
        <time>2021-08-14T13:15:20Z</time>
      </trkpt>
      <trkpt lat="47.5639" lon="-2.22036">
        <ele>59.4</ele>
        <time>2021-08-14T13:16:06Z</time>
      </trkpt>
      <trkpt lat="47.56384" lon="-2.22033">
        <ele>59.6</ele>
        <time>2021-08-14T13:16:08Z</time>
      </trkpt>
      <trkpt lat="47.56382" lon="-2.22032">
        <ele>59.7</ele>
        <time>2021-08-14T13:16:09Z</time>
      </trkpt>
      <trkpt lat="47.56379" lon="-2.2203">
        <ele>59.8</ele>
        <time>2021-08-14T13:16:11Z</time>
      </trkpt>
      <trkpt lat="47.56375" lon="-2.22028">
        <ele>59.9</ele>
        <time>2021-08-14T13:16:13Z</time>
      </trkpt>
      <trkpt lat="47.56374" lon="-2.22028">
        <ele>59.9</ele>
        <time>2021-08-14T13:16:14Z</time>
      </trkpt>
      <trkpt lat="47.56372" lon="-2.22026">
        <ele>60</ele>
        <time>2021-08-14T13:16:16Z</time>
      </trkpt>
      <trkpt lat="47.5637" lon="-2.22026">
        <ele>60</ele>
        <time>2021-08-14T13:16:17Z</time>
      </trkpt>
      <trkpt lat="47.56368" lon="-2.22024">
        <ele>60</ele>
        <time>2021-08-14T13:16:19Z</time>
      </trkpt>
      <trkpt lat="47.56365" lon="-2.22022">
        <ele>60.1</ele>
        <time>2021-08-14T13:16:21Z</time>
      </trkpt>
      <trkpt lat="47.56362" lon="-2.22021">
        <ele>60.1</ele>
        <time>2021-08-14T13:16:23Z</time>
      </trkpt>
      <trkpt lat="47.56361" lon="-2.2202">
        <ele>60.2</ele>
        <time>2021-08-14T13:16:24Z</time>
      </trkpt>
      <trkpt lat="47.56357" lon="-2.22018">
        <ele>60.2</ele>
        <time>2021-08-14T13:16:26Z</time>
      </trkpt>
      <trkpt lat="47.56354" lon="-2.22016">
        <ele>60.2</ele>
        <time>2021-08-14T13:16:28Z</time>
      </trkpt>
      <trkpt lat="47.56353" lon="-2.22015">
        <ele>60.2</ele>
        <time>2021-08-14T13:16:29Z</time>
      </trkpt>
      <trkpt lat="47.56352" lon="-2.22014">
        <ele>60.2</ele>
        <time>2021-08-14T13:16:30Z</time>
      </trkpt>
      <trkpt lat="47.56349" lon="-2.22013">
        <ele>60.3</ele>
        <time>2021-08-14T13:16:31Z</time>
      </trkpt>
      <trkpt lat="47.56347" lon="-2.22011">
        <ele>60.3</ele>
        <time>2021-08-14T13:16:33Z</time>
      </trkpt>
      <trkpt lat="47.56346" lon="-2.2201">
        <ele>60.3</ele>
        <time>2021-08-14T13:16:35Z</time>
      </trkpt>
      <trkpt lat="47.56344" lon="-2.22009">
        <ele>60.3</ele>
        <time>2021-08-14T13:16:37Z</time>
      </trkpt>
      <trkpt lat="47.56342" lon="-2.22008">
        <ele>60.3</ele>
        <time>2021-08-14T13:16:38Z</time>
      </trkpt>
      <trkpt lat="47.56341" lon="-2.22008">
        <ele>60.3</ele>
        <time>2021-08-14T13:16:39Z</time>
      </trkpt>
      <trkpt lat="47.56339" lon="-2.22006">
        <ele>60.3</ele>
        <time>2021-08-14T13:16:41Z</time>
      </trkpt>
      <trkpt lat="47.56337" lon="-2.22005">
        <ele>60.2</ele>
        <time>2021-08-14T13:16:42Z</time>
      </trkpt>
      <trkpt lat="47.56336" lon="-2.22004">
        <ele>60.2</ele>
        <time>2021-08-14T13:16:43Z</time>
      </trkpt>
      <trkpt lat="47.56333" lon="-2.22002">
        <ele>60.2</ele>
        <time>2021-08-14T13:16:45Z</time>
      </trkpt>
      <trkpt lat="47.56332" lon="-2.22001">
        <ele>60.2</ele>
        <time>2021-08-14T13:16:46Z</time>
      </trkpt>
      <trkpt lat="47.5633" lon="-2.21998">
        <ele>60.2</ele>
        <time>2021-08-14T13:16:48Z</time>
      </trkpt>
      <trkpt lat="47.56328" lon="-2.21995">
        <ele>60.2</ele>
        <time>2021-08-14T13:16:50Z</time>
      </trkpt>
      <trkpt lat="47.56327" lon="-2.21992">
        <ele>60.2</ele>
        <time>2021-08-14T13:16:51Z</time>
      </trkpt>
      <trkpt lat="47.56325" lon="-2.21988">
        <ele>60.1</ele>
        <time>2021-08-14T13:16:53Z</time>
      </trkpt>
      <trkpt lat="47.56324" lon="-2.21986">
        <ele>60.1</ele>
        <time>2021-08-14T13:16:54Z</time>
      </trkpt>
      <trkpt lat="47.56323" lon="-2.21982">
        <ele>60.1</ele>
        <time>2021-08-14T13:16:56Z</time>
      </trkpt>
      <trkpt lat="47.56321" lon="-2.21978">
        <ele>60</ele>
        <time>2021-08-14T13:16:58Z</time>
      </trkpt>
      <trkpt lat="47.5632" lon="-2.21973">
        <ele>60</ele>
        <time>2021-08-14T13:17:00Z</time>
      </trkpt>
      <trkpt lat="47.56318" lon="-2.21969">
        <ele>60</ele>
        <time>2021-08-14T13:17:02Z</time>
      </trkpt>
      <trkpt lat="47.56317" lon="-2.21967">
        <ele>60</ele>
        <time>2021-08-14T13:17:03Z</time>
      </trkpt>
      <trkpt lat="47.56315" lon="-2.21961">
        <ele>59.9</ele>
        <time>2021-08-14T13:17:05Z</time>
      </trkpt>
      <trkpt lat="47.56313" lon="-2.21957">
        <ele>59.8</ele>
        <time>2021-08-14T13:17:07Z</time>
      </trkpt>
      <trkpt lat="47.56312" lon="-2.21954">
        <ele>59.8</ele>
        <time>2021-08-14T13:17:08Z</time>
      </trkpt>
      <trkpt lat="47.56309" lon="-2.2195">
        <ele>59.7</ele>
        <time>2021-08-14T13:17:10Z</time>
      </trkpt>
      <trkpt lat="47.56307" lon="-2.21947">
        <ele>59.7</ele>
        <time>2021-08-14T13:17:11Z</time>
      </trkpt>
      <trkpt lat="47.56304" lon="-2.21942">
        <ele>59.6</ele>
        <time>2021-08-14T13:17:13Z</time>
      </trkpt>
      <trkpt lat="47.56301" lon="-2.21938">
        <ele>59.5</ele>
        <time>2021-08-14T13:17:14Z</time>
      </trkpt>
      <trkpt lat="47.563" lon="-2.21937">
        <ele>59.5</ele>
        <time>2021-08-14T13:17:15Z</time>
      </trkpt>
      <trkpt lat="47.56297" lon="-2.21931">
        <ele>59.4</ele>
        <time>2021-08-14T13:17:17Z</time>
      </trkpt>
      <trkpt lat="47.56293" lon="-2.21926">
        <ele>59.3</ele>
        <time>2021-08-14T13:17:19Z</time>
      </trkpt>
      <trkpt lat="47.56289" lon="-2.21921">
        <ele>59.2</ele>
        <time>2021-08-14T13:17:21Z</time>
      </trkpt>
      <trkpt lat="47.56285" lon="-2.21916">
        <ele>59</ele>
        <time>2021-08-14T13:17:23Z</time>
      </trkpt>
      <trkpt lat="47.56282" lon="-2.21912">
        <ele>58.9</ele>
        <time>2021-08-14T13:17:24Z</time>
      </trkpt>
      <trkpt lat="47.56282" lon="-2.21911">
        <ele>58.9</ele>
        <time>2021-08-14T13:17:25Z</time>
      </trkpt>
      <trkpt lat="47.56278" lon="-2.21906">
        <ele>58.8</ele>
        <time>2021-08-14T13:17:27Z</time>
      </trkpt>
      <trkpt lat="47.56274" lon="-2.21902">
        <ele>58.7</ele>
        <time>2021-08-14T13:17:29Z</time>
      </trkpt>
      <trkpt lat="47.56272" lon="-2.21899">
        <ele>58.6</ele>
        <time>2021-08-14T13:17:30Z</time>
      </trkpt>
      <trkpt lat="47.56271" lon="-2.21898">
        <ele>58.5</ele>
        <time>2021-08-14T13:17:31Z</time>
      </trkpt>
      <trkpt lat="47.56268" lon="-2.21893">
        <ele>58.4</ele>
        <time>2021-08-14T13:17:33Z</time>
      </trkpt>
      <trkpt lat="47.56266" lon="-2.2189">
        <ele>58.3</ele>
        <time>2021-08-14T13:17:34Z</time>
      </trkpt>
      <trkpt lat="47.56262" lon="-2.21884">
        <ele>58.1</ele>
        <time>2021-08-14T13:17:36Z</time>
      </trkpt>
      <trkpt lat="47.56259" lon="-2.21881">
        <ele>58</ele>
        <time>2021-08-14T13:17:37Z</time>
      </trkpt>
      <trkpt lat="47.56257" lon="-2.2188">
        <ele>57.9</ele>
        <time>2021-08-14T13:17:38Z</time>
      </trkpt>
      <trkpt lat="47.56253" lon="-2.21876">
        <ele>57.7</ele>
        <time>2021-08-14T13:17:40Z</time>
      </trkpt>
      <trkpt lat="47.5625" lon="-2.21873">
        <ele>57.6</ele>
        <time>2021-08-14T13:17:41Z</time>
      </trkpt>
      <trkpt lat="47.56245" lon="-2.21867">
        <ele>57.4</ele>
        <time>2021-08-14T13:17:43Z</time>
      </trkpt>
      <trkpt lat="47.5624" lon="-2.21861">
        <ele>57.2</ele>
        <time>2021-08-14T13:17:45Z</time>
      </trkpt>
      <trkpt lat="47.56236" lon="-2.21856">
        <ele>57</ele>
        <time>2021-08-14T13:17:46Z</time>
      </trkpt>
      <trkpt lat="47.56233" lon="-2.21852">
        <ele>56.9</ele>
        <time>2021-08-14T13:17:47Z</time>
      </trkpt>
      <trkpt lat="47.56229" lon="-2.21846">
        <ele>56.7</ele>
        <time>2021-08-14T13:17:49Z</time>
      </trkpt>
      <trkpt lat="47.56225" lon="-2.21843">
        <ele>56.6</ele>
        <time>2021-08-14T13:17:50Z</time>
      </trkpt>
      <trkpt lat="47.56221" lon="-2.21839">
        <ele>56.4</ele>
        <time>2021-08-14T13:17:51Z</time>
      </trkpt>
      <trkpt lat="47.56217" lon="-2.21835">
        <ele>56.2</ele>
        <time>2021-08-14T13:17:52Z</time>
      </trkpt>
      <trkpt lat="47.56213" lon="-2.21832">
        <ele>56.1</ele>
        <time>2021-08-14T13:17:53Z</time>
      </trkpt>
      <trkpt lat="47.5621" lon="-2.21831">
        <ele>56.1</ele>
        <time>2021-08-14T13:17:54Z</time>
      </trkpt>
      <trkpt lat="47.56205" lon="-2.2183">
        <ele>55.9</ele>
        <time>2021-08-14T13:17:56Z</time>
      </trkpt>
      <trkpt lat="47.56163" lon="-2.21821">
        <ele>54</ele>
        <time>2021-08-14T13:20:29Z</time>
      </trkpt>
      <trkpt lat="47.56157" lon="-2.2182">
        <ele>53.8</ele>
        <time>2021-08-14T13:20:30Z</time>
      </trkpt>
      <trkpt lat="47.56153" lon="-2.21818">
        <ele>53.6</ele>
        <time>2021-08-14T13:20:32Z</time>
      </trkpt>
      <trkpt lat="47.56147" lon="-2.21817">
        <ele>53.3</ele>
        <time>2021-08-14T13:20:33Z</time>
      </trkpt>
      <trkpt lat="47.56141" lon="-2.21815">
        <ele>53.1</ele>
        <time>2021-08-14T13:20:34Z</time>
      </trkpt>
      <trkpt lat="47.56119" lon="-2.21808">
        <ele>52</ele>
      </trkpt>
      <trkpt lat="47.56125" lon="-2.2176">
        <ele>50.5</ele>
        <time>2021-08-14T13:24:31Z</time>
      </trkpt>
      <trkpt lat="47.56126" lon="-2.21754">
        <ele>50.5</ele>
        <time>2021-08-14T13:24:33Z</time>
      </trkpt>
      <trkpt lat="47.56127" lon="-2.21747">
        <ele>50.5</ele>
        <time>2021-08-14T13:24:35Z</time>
      </trkpt>
      <trkpt lat="47.56128" lon="-2.2174">
        <ele>50.4</ele>
        <time>2021-08-14T13:24:37Z</time>
      </trkpt>
      <trkpt lat="47.56129" lon="-2.21734">
        <ele>50.4</ele>
        <time>2021-08-14T13:24:39Z</time>
      </trkpt>
      <trkpt lat="47.5613" lon="-2.2173">
        <ele>50.4</ele>
        <time>2021-08-14T13:24:40Z</time>
      </trkpt>
      <trkpt lat="47.56132" lon="-2.21724">
        <ele>50.3</ele>
        <time>2021-08-14T13:24:42Z</time>
      </trkpt>
      <trkpt lat="47.56132" lon="-2.21717">
        <ele>50.3</ele>
        <time>2021-08-14T13:24:44Z</time>
      </trkpt>
      <trkpt lat="47.56133" lon="-2.21709">
        <ele>50.2</ele>
        <time>2021-08-14T13:24:46Z</time>
      </trkpt>
      <trkpt lat="47.56134" lon="-2.21705">
        <ele>50.2</ele>
        <time>2021-08-14T13:24:47Z</time>
      </trkpt>
      <trkpt lat="47.56135" lon="-2.21699">
        <ele>50.2</ele>
        <time>2021-08-14T13:24:49Z</time>
      </trkpt>
      <trkpt lat="47.56136" lon="-2.21693">
        <ele>50.2</ele>
        <time>2021-08-14T13:24:51Z</time>
      </trkpt>
      <trkpt lat="47.56137" lon="-2.2169">
        <ele>50.1</ele>
        <time>2021-08-14T13:24:52Z</time>
      </trkpt>
      <trkpt lat="47.56137" lon="-2.21684">
        <ele>50.1</ele>
        <time>2021-08-14T13:24:54Z</time>
      </trkpt>
      <trkpt lat="47.56138" lon="-2.21679">
        <ele>50.1</ele>
        <time>2021-08-14T13:24:56Z</time>
      </trkpt>
      <trkpt lat="47.56139" lon="-2.21675">
        <ele>50.1</ele>
        <time>2021-08-14T13:24:57Z</time>
      </trkpt>
      <trkpt lat="47.56139" lon="-2.21673">
        <ele>50.1</ele>
        <time>2021-08-14T13:24:58Z</time>
      </trkpt>
      <trkpt lat="47.5614" lon="-2.2167">
        <ele>50.1</ele>
        <time>2021-08-14T13:24:59Z</time>
      </trkpt>
      <trkpt lat="47.5614" lon="-2.21666">
        <ele>50.1</ele>
        <time>2021-08-14T13:25:01Z</time>
      </trkpt>
      <trkpt lat="47.56141" lon="-2.2166">
        <ele>50</ele>
        <time>2021-08-14T13:25:02Z</time>
      </trkpt>
      <trkpt lat="47.56142" lon="-2.21657">
        <ele>50</ele>
        <time>2021-08-14T13:25:03Z</time>
      </trkpt>
      <trkpt lat="47.56143" lon="-2.2165">
        <ele>50</ele>
        <time>2021-08-14T13:25:05Z</time>
      </trkpt>
      <trkpt lat="47.56143" lon="-2.21646">
        <ele>50</ele>
        <time>2021-08-14T13:25:06Z</time>
      </trkpt>
      <trkpt lat="47.56143" lon="-2.2164">
        <ele>50</ele>
        <time>2021-08-14T13:25:08Z</time>
      </trkpt>
      <trkpt lat="47.56144" lon="-2.21636">
        <ele>50</ele>
        <time>2021-08-14T13:25:09Z</time>
      </trkpt>
      <trkpt lat="47.56145" lon="-2.21631">
        <ele>50</ele>
        <time>2021-08-14T13:25:10Z</time>
      </trkpt>
      <trkpt lat="47.56145" lon="-2.21629">
        <ele>50</ele>
        <time>2021-08-14T13:25:11Z</time>
      </trkpt>
      <trkpt lat="47.56146" lon="-2.21625">
        <ele>50</ele>
        <time>2021-08-14T13:25:12Z</time>
      </trkpt>
      <trkpt lat="47.56146" lon="-2.21621">
        <ele>50</ele>
        <time>2021-08-14T13:25:14Z</time>
      </trkpt>
      <trkpt lat="47.56147" lon="-2.21616">
        <ele>49.9</ele>
        <time>2021-08-14T13:25:15Z</time>
      </trkpt>
      <trkpt lat="47.56148" lon="-2.21611">
        <ele>49.9</ele>
        <time>2021-08-14T13:25:16Z</time>
      </trkpt>
      <trkpt lat="47.56149" lon="-2.21609">
        <ele>49.9</ele>
        <time>2021-08-14T13:25:17Z</time>
      </trkpt>
      <trkpt lat="47.56149" lon="-2.21603">
        <ele>49.9</ele>
        <time>2021-08-14T13:25:19Z</time>
      </trkpt>
      <trkpt lat="47.5615" lon="-2.216">
        <ele>49.9</ele>
        <time>2021-08-14T13:25:20Z</time>
      </trkpt>
      <trkpt lat="47.5615" lon="-2.21593">
        <ele>49.9</ele>
        <time>2021-08-14T13:25:22Z</time>
      </trkpt>
      <trkpt lat="47.56151" lon="-2.21588">
        <ele>49.9</ele>
        <time>2021-08-14T13:25:23Z</time>
      </trkpt>
      <trkpt lat="47.56151" lon="-2.21586">
        <ele>49.9</ele>
        <time>2021-08-14T13:25:24Z</time>
      </trkpt>
      <trkpt lat="47.56151" lon="-2.2158">
        <ele>49.9</ele>
        <time>2021-08-14T13:25:26Z</time>
      </trkpt>
      <trkpt lat="47.56152" lon="-2.21573">
        <ele>49.9</ele>
        <time>2021-08-14T13:25:28Z</time>
      </trkpt>
      <trkpt lat="47.56153" lon="-2.21566">
        <ele>49.9</ele>
        <time>2021-08-14T13:25:30Z</time>
      </trkpt>
      <trkpt lat="47.56154" lon="-2.21564">
        <ele>49.9</ele>
        <time>2021-08-14T13:25:31Z</time>
      </trkpt>
      <trkpt lat="47.56154" lon="-2.21562">
        <ele>49.9</ele>
        <time>2021-08-14T13:25:32Z</time>
      </trkpt>
      <trkpt lat="47.56154" lon="-2.21559">
        <ele>49.9</ele>
        <time>2021-08-14T13:25:33Z</time>
      </trkpt>
      <trkpt lat="47.56155" lon="-2.21554">
        <ele>49.9</ele>
        <time>2021-08-14T13:25:35Z</time>
      </trkpt>
      <trkpt lat="47.56155" lon="-2.21552">
        <ele>50</ele>
        <time>2021-08-14T13:25:36Z</time>
      </trkpt>
      <trkpt lat="47.56156" lon="-2.21546">
        <ele>50</ele>
        <time>2021-08-14T13:25:38Z</time>
      </trkpt>
      <trkpt lat="47.56157" lon="-2.21542">
        <ele>50</ele>
        <time>2021-08-14T13:25:40Z</time>
      </trkpt>
      <trkpt lat="47.56157" lon="-2.21541">
        <ele>50</ele>
        <time>2021-08-14T13:25:41Z</time>
      </trkpt>
      <trkpt lat="47.56157" lon="-2.21536">
        <ele>50</ele>
        <time>2021-08-14T13:25:43Z</time>
      </trkpt>
      <trkpt lat="47.56157" lon="-2.21532">
        <ele>50</ele>
        <time>2021-08-14T13:25:45Z</time>
      </trkpt>
      <trkpt lat="47.56158" lon="-2.21527">
        <ele>50</ele>
        <time>2021-08-14T13:25:47Z</time>
      </trkpt>
      <trkpt lat="47.56159" lon="-2.21522">
        <ele>50</ele>
        <time>2021-08-14T13:25:48Z</time>
      </trkpt>
      <trkpt lat="47.56159" lon="-2.2152">
        <ele>50</ele>
        <time>2021-08-14T13:25:49Z</time>
      </trkpt>
      <trkpt lat="47.5616" lon="-2.21515">
        <ele>50</ele>
        <time>2021-08-14T13:25:51Z</time>
      </trkpt>
      <trkpt lat="47.56161" lon="-2.21509">
        <ele>50.1</ele>
        <time>2021-08-14T13:25:53Z</time>
      </trkpt>
      <trkpt lat="47.56161" lon="-2.21505">
        <ele>50.1</ele>
        <time>2021-08-14T13:25:54Z</time>
      </trkpt>
      <trkpt lat="47.56162" lon="-2.21501">
        <ele>50.1</ele>
        <time>2021-08-14T13:25:55Z</time>
      </trkpt>
      <trkpt lat="47.56161" lon="-2.21496">
        <ele>50.1</ele>
        <time>2021-08-14T13:25:57Z</time>
      </trkpt>
      <trkpt lat="47.5616" lon="-2.21492">
        <ele>50.1</ele>
        <time>2021-08-14T13:25:58Z</time>
      </trkpt>
      <trkpt lat="47.56158" lon="-2.21488">
        <ele>49.9</ele>
        <time>2021-08-14T13:25:59Z</time>
      </trkpt>
      <trkpt lat="47.56156" lon="-2.21485">
        <ele>49.9</ele>
        <time>2021-08-14T13:26:00Z</time>
      </trkpt>
      <trkpt lat="47.56153" lon="-2.21482">
        <ele>49.8</ele>
        <time>2021-08-14T13:26:01Z</time>
      </trkpt>
      <trkpt lat="47.56152" lon="-2.21481">
        <ele>49.6</ele>
        <time>2021-08-14T13:26:02Z</time>
      </trkpt>
      <trkpt lat="47.56146" lon="-2.2148">
        <ele>49.1</ele>
        <time>2021-08-14T13:26:04Z</time>
      </trkpt>
      <trkpt lat="47.5614" lon="-2.21479">
        <ele>48.7</ele>
        <time>2021-08-14T13:26:06Z</time>
      </trkpt>
      <trkpt lat="47.56134" lon="-2.21477">
        <ele>48.2</ele>
        <time>2021-08-14T13:26:07Z</time>
      </trkpt>
      <trkpt lat="47.56129" lon="-2.21476">
        <ele>47.7</ele>
        <time>2021-08-14T13:26:08Z</time>
      </trkpt>
      <trkpt lat="47.56107" lon="-2.2147">
        <ele>46.2</ele>
        <time>2021-08-14T13:26:10Z</time>
      </trkpt>
      <trkpt lat="47.56098" lon="-2.21468">
        <ele>45.7</ele>
        <time>2021-08-14T13:26:11Z</time>
      </trkpt>
      <trkpt lat="47.5609" lon="-2.21465">
        <ele>45.2</ele>
        <time>2021-08-14T13:26:12Z</time>
      </trkpt>
      <trkpt lat="47.56072" lon="-2.21458">
        <ele>44.1</ele>
        <time>2021-08-14T13:26:14Z</time>
      </trkpt>
      <trkpt lat="47.56057" lon="-2.21445">
        <ele>43.2</ele>
        <time>2021-08-14T13:26:16Z</time>
      </trkpt>
      <trkpt lat="47.5605" lon="-2.21437">
        <ele>42.9</ele>
        <time>2021-08-14T13:26:17Z</time>
      </trkpt>
      <trkpt lat="47.56037" lon="-2.21419">
        <ele>42.3</ele>
        <time>2021-08-14T13:26:19Z</time>
      </trkpt>
      <trkpt lat="47.56027" lon="-2.21398">
        <ele>42</ele>
        <time>2021-08-14T13:26:21Z</time>
      </trkpt>
      <trkpt lat="47.56023" lon="-2.21388">
        <ele>41.8</ele>
        <time>2021-08-14T13:26:22Z</time>
      </trkpt>
      <trkpt lat="47.56018" lon="-2.21368">
        <ele>41.2</ele>
        <time>2021-08-14T13:26:24Z</time>
      </trkpt>
      <trkpt lat="47.56015" lon="-2.21358">
        <ele>41</ele>
        <time>2021-08-14T13:26:25Z</time>
      </trkpt>
      <trkpt lat="47.56012" lon="-2.21341">
        <ele>41.1</ele>
        <time>2021-08-14T13:26:27Z</time>
      </trkpt>
      <trkpt lat="47.56009" lon="-2.21333">
        <ele>41.1</ele>
        <time>2021-08-14T13:26:28Z</time>
      </trkpt>
      <trkpt lat="47.56007" lon="-2.21325">
        <ele>41</ele>
        <time>2021-08-14T13:26:29Z</time>
      </trkpt>
      <trkpt lat="47.56005" lon="-2.21318">
        <ele>41.1</ele>
        <time>2021-08-14T13:26:30Z</time>
      </trkpt>
      <trkpt lat="47.56001" lon="-2.21303">
        <ele>40.3</ele>
        <time>2021-08-14T13:26:32Z</time>
      </trkpt>
      <trkpt lat="47.55999" lon="-2.21296">
        <ele>40.3</ele>
        <time>2021-08-14T13:26:33Z</time>
      </trkpt>
      <trkpt lat="47.55998" lon="-2.21289">
        <ele>40</ele>
        <time>2021-08-14T13:26:34Z</time>
      </trkpt>
      <trkpt lat="47.55996" lon="-2.21282">
        <ele>39.7</ele>
        <time>2021-08-14T13:26:35Z</time>
      </trkpt>
      <trkpt lat="47.55994" lon="-2.21275">
        <ele>39.7</ele>
        <time>2021-08-14T13:26:36Z</time>
      </trkpt>
      <trkpt lat="47.5599" lon="-2.21261">
        <ele>39.2</ele>
        <time>2021-08-14T13:26:38Z</time>
      </trkpt>
      <trkpt lat="47.55987" lon="-2.21248">
        <ele>39</ele>
        <time>2021-08-14T13:26:40Z</time>
      </trkpt>
      <trkpt lat="47.55985" lon="-2.21241">
        <ele>39</ele>
        <time>2021-08-14T13:26:41Z</time>
      </trkpt>
      <trkpt lat="47.55982" lon="-2.21228">
        <ele>39.1</ele>
        <time>2021-08-14T13:26:43Z</time>
      </trkpt>
      <trkpt lat="47.5598" lon="-2.21222">
        <ele>39</ele>
        <time>2021-08-14T13:26:44Z</time>
      </trkpt>
      <trkpt lat="47.55977" lon="-2.21209">
        <ele>39</ele>
        <time>2021-08-14T13:26:46Z</time>
      </trkpt>
      <trkpt lat="47.55973" lon="-2.21196">
        <ele>38.8</ele>
        <time>2021-08-14T13:26:48Z</time>
      </trkpt>
      <trkpt lat="47.55972" lon="-2.21189">
        <ele>38.4</ele>
        <time>2021-08-14T13:26:49Z</time>
      </trkpt>
      <trkpt lat="47.5597" lon="-2.21183">
        <ele>38</ele>
        <time>2021-08-14T13:26:50Z</time>
      </trkpt>
      <trkpt lat="47.55967" lon="-2.21169">
        <ele>37.6</ele>
        <time>2021-08-14T13:26:52Z</time>
      </trkpt>
      <trkpt lat="47.55965" lon="-2.21162">
        <ele>37.6</ele>
        <time>2021-08-14T13:26:53Z</time>
      </trkpt>
      <trkpt lat="47.55961" lon="-2.21149">
        <ele>36.9</ele>
        <time>2021-08-14T13:26:55Z</time>
      </trkpt>
      <trkpt lat="47.55957" lon="-2.21135">
        <ele>36.5</ele>
        <time>2021-08-14T13:26:57Z</time>
      </trkpt>
      <trkpt lat="47.55953" lon="-2.2112">
        <ele>36.1</ele>
        <time>2021-08-14T13:26:59Z</time>
      </trkpt>
      <trkpt lat="47.55949" lon="-2.21105">
        <ele>36</ele>
        <time>2021-08-14T13:27:01Z</time>
      </trkpt>
      <trkpt lat="47.55947" lon="-2.21097">
        <ele>36.2</ele>
        <time>2021-08-14T13:27:02Z</time>
      </trkpt>
      <trkpt lat="47.55945" lon="-2.21089">
        <ele>35.9</ele>
        <time>2021-08-14T13:27:03Z</time>
      </trkpt>
      <trkpt lat="47.55943" lon="-2.2108">
        <ele>35.7</ele>
        <time>2021-08-14T13:27:04Z</time>
      </trkpt>
      <trkpt lat="47.55938" lon="-2.21063">
        <ele>35.4</ele>
        <time>2021-08-14T13:27:06Z</time>
      </trkpt>
      <trkpt lat="47.55936" lon="-2.21054">
        <ele>35.4</ele>
        <time>2021-08-14T13:27:07Z</time>
      </trkpt>
      <trkpt lat="47.55931" lon="-2.21035">
        <ele>34.7</ele>
        <time>2021-08-14T13:27:09Z</time>
      </trkpt>
      <trkpt lat="47.55928" lon="-2.21026">
        <ele>34.4</ele>
        <time>2021-08-14T13:27:10Z</time>
      </trkpt>
      <trkpt lat="47.55923" lon="-2.21006">
        <ele>33.8</ele>
        <time>2021-08-14T13:27:12Z</time>
      </trkpt>
      <trkpt lat="47.5592" lon="-2.20996">
        <ele>33.5</ele>
        <time>2021-08-14T13:27:13Z</time>
      </trkpt>
      <trkpt lat="47.55918" lon="-2.20986">
        <ele>33.1</ele>
        <time>2021-08-14T13:27:14Z</time>
      </trkpt>
      <trkpt lat="47.55912" lon="-2.20964">
        <ele>32.3</ele>
        <time>2021-08-14T13:27:16Z</time>
      </trkpt>
      <trkpt lat="47.5591" lon="-2.20953">
        <ele>32.3</ele>
        <time>2021-08-14T13:27:17Z</time>
      </trkpt>
      <trkpt lat="47.55907" lon="-2.20943">
        <ele>32.2</ele>
        <time>2021-08-14T13:27:18Z</time>
      </trkpt>
      <trkpt lat="47.55902" lon="-2.20922">
        <ele>32.4</ele>
        <time>2021-08-14T13:27:20Z</time>
      </trkpt>
      <trkpt lat="47.55897" lon="-2.20899">
        <ele>32.6</ele>
        <time>2021-08-14T13:27:22Z</time>
      </trkpt>
      <trkpt lat="47.55893" lon="-2.20873">
        <ele>33.2</ele>
        <time>2021-08-14T13:27:24Z</time>
      </trkpt>
      <trkpt lat="47.5589" lon="-2.2085">
        <ele>34.1</ele>
        <time>2021-08-14T13:27:26Z</time>
      </trkpt>
      <trkpt lat="47.55889" lon="-2.20839">
        <ele>34.3</ele>
        <time>2021-08-14T13:27:27Z</time>
      </trkpt>
      <trkpt lat="47.55888" lon="-2.20828">
        <ele>34.5</ele>
        <time>2021-08-14T13:27:28Z</time>
      </trkpt>
      <trkpt lat="47.55887" lon="-2.20808">
        <ele>35.1</ele>
        <time>2021-08-14T13:27:30Z</time>
      </trkpt>
      <trkpt lat="47.55886" lon="-2.20789">
        <ele>35.3</ele>
        <time>2021-08-14T13:27:32Z</time>
      </trkpt>
      <trkpt lat="47.55885" lon="-2.2077">
        <ele>35.3</ele>
        <time>2021-08-14T13:27:34Z</time>
      </trkpt>
      <trkpt lat="47.55884" lon="-2.20755">
        <ele>35.1</ele>
        <time>2021-08-14T13:27:36Z</time>
      </trkpt>
      <trkpt lat="47.55884" lon="-2.20743">
        <ele>35.1</ele>
        <time>2021-08-14T13:27:38Z</time>
      </trkpt>
      <trkpt lat="47.55883" lon="-2.20729">
        <ele>34.8</ele>
        <time>2021-08-14T13:27:40Z</time>
      </trkpt>
      <trkpt lat="47.55883" lon="-2.20714">
        <ele>34.8</ele>
        <time>2021-08-14T13:27:42Z</time>
      </trkpt>
      <trkpt lat="47.55883" lon="-2.207">
        <ele>34.4</ele>
        <time>2021-08-14T13:27:44Z</time>
      </trkpt>
      <trkpt lat="47.5588" lon="-2.20691">
        <ele>33.7</ele>
        <time>2021-08-14T13:27:46Z</time>
      </trkpt>
      <trkpt lat="47.55882" lon="-2.20684">
        <ele>34</ele>
        <time>2021-08-14T13:27:47Z</time>
      </trkpt>
      <trkpt lat="47.55883" lon="-2.20673">
        <ele>33.8</ele>
        <time>2021-08-14T13:27:49Z</time>
      </trkpt>
      <trkpt lat="47.55884" lon="-2.20668">
        <ele>34.3</ele>
        <time>2021-08-14T13:27:50Z</time>
      </trkpt>
      <trkpt lat="47.55885" lon="-2.20659">
        <ele>34.2</ele>
        <time>2021-08-14T13:27:52Z</time>
      </trkpt>
      <trkpt lat="47.55886" lon="-2.20655">
        <ele>34.2</ele>
        <time>2021-08-14T13:27:53Z</time>
      </trkpt>
      <trkpt lat="47.55887" lon="-2.20648">
        <ele>34.5</ele>
        <time>2021-08-14T13:27:55Z</time>
      </trkpt>
      <trkpt lat="47.55888" lon="-2.20642">
        <ele>34.4</ele>
        <time>2021-08-14T13:27:56Z</time>
      </trkpt>
      <trkpt lat="47.55888" lon="-2.20637">
        <ele>34.2</ele>
        <time>2021-08-14T13:27:57Z</time>
      </trkpt>
      <trkpt lat="47.55888" lon="-2.20633">
        <ele>34.1</ele>
        <time>2021-08-14T13:27:58Z</time>
      </trkpt>
      <trkpt lat="47.55889" lon="-2.20626">
        <ele>34</ele>
        <time>2021-08-14T13:28:00Z</time>
      </trkpt>
      <trkpt lat="47.5589" lon="-2.20621">
        <ele>34.3</ele>
        <time>2021-08-14T13:28:01Z</time>
      </trkpt>
      <trkpt lat="47.55891" lon="-2.20614">
        <ele>34.3</ele>
        <time>2021-08-14T13:28:03Z</time>
      </trkpt>
      <trkpt lat="47.55892" lon="-2.20607">
        <ele>34.3</ele>
        <time>2021-08-14T13:28:05Z</time>
      </trkpt>
      <trkpt lat="47.55892" lon="-2.20602">
        <ele>34.6</ele>
        <time>2021-08-14T13:28:07Z</time>
      </trkpt>
      <trkpt lat="47.55893" lon="-2.20595">
        <ele>34.6</ele>
        <time>2021-08-14T13:28:08Z</time>
      </trkpt>
      <trkpt lat="47.55895" lon="-2.20585">
        <ele>34.4</ele>
        <time>2021-08-14T13:28:10Z</time>
      </trkpt>
      <trkpt lat="47.55896" lon="-2.20579">
        <ele>34.4</ele>
        <time>2021-08-14T13:28:11Z</time>
      </trkpt>
      <trkpt lat="47.55898" lon="-2.20565">
        <ele>34.2</ele>
        <time>2021-08-14T13:28:13Z</time>
      </trkpt>
      <trkpt lat="47.559" lon="-2.20552">
        <ele>34</ele>
        <time>2021-08-14T13:28:15Z</time>
      </trkpt>
      <trkpt lat="47.55901" lon="-2.20546">
        <ele>34.1</ele>
        <time>2021-08-14T13:28:16Z</time>
      </trkpt>
      <trkpt lat="47.55902" lon="-2.20539">
        <ele>34</ele>
        <time>2021-08-14T13:28:17Z</time>
      </trkpt>
      <trkpt lat="47.55903" lon="-2.20533">
        <ele>33.8</ele>
        <time>2021-08-14T13:28:18Z</time>
      </trkpt>
      <trkpt lat="47.55904" lon="-2.20528">
        <ele>33.6</ele>
        <time>2021-08-14T13:28:19Z</time>
      </trkpt>
      <trkpt lat="47.55905" lon="-2.20522">
        <ele>33.5</ele>
        <time>2021-08-14T13:28:20Z</time>
      </trkpt>
      <trkpt lat="47.55906" lon="-2.20512">
        <ele>33.3</ele>
        <time>2021-08-14T13:28:22Z</time>
      </trkpt>
      <trkpt lat="47.55907" lon="-2.20504">
        <ele>33.4</ele>
        <time>2021-08-14T13:28:24Z</time>
      </trkpt>
      <trkpt lat="47.55908" lon="-2.20497">
        <ele>33.6</ele>
        <time>2021-08-14T13:28:25Z</time>
      </trkpt>
      <trkpt lat="47.55909" lon="-2.20491">
        <ele>33.7</ele>
        <time>2021-08-14T13:28:27Z</time>
      </trkpt>
      <trkpt lat="47.5591" lon="-2.20484">
        <ele>34.3</ele>
        <time>2021-08-14T13:28:28Z</time>
      </trkpt>
      <trkpt lat="47.55911" lon="-2.20477">
        <ele>34.3</ele>
        <time>2021-08-14T13:28:30Z</time>
      </trkpt>
      <trkpt lat="47.55913" lon="-2.20469">
        <ele>34.7</ele>
        <time>2021-08-14T13:28:31Z</time>
      </trkpt>
      <trkpt lat="47.55914" lon="-2.20465">
        <ele>34.6</ele>
        <time>2021-08-14T13:28:32Z</time>
      </trkpt>
      <trkpt lat="47.55915" lon="-2.20457">
        <ele>34.7</ele>
        <time>2021-08-14T13:28:34Z</time>
      </trkpt>
      <trkpt lat="47.55916" lon="-2.20453">
        <ele>35</ele>
        <time>2021-08-14T13:28:35Z</time>
      </trkpt>
      <trkpt lat="47.55917" lon="-2.20449">
        <ele>35.1</ele>
        <time>2021-08-14T13:28:36Z</time>
      </trkpt>
      <trkpt lat="47.55918" lon="-2.20443">
        <ele>35.5</ele>
        <time>2021-08-14T13:28:37Z</time>
      </trkpt>
      <trkpt lat="47.55919" lon="-2.20438">
        <ele>35.7</ele>
        <time>2021-08-14T13:28:38Z</time>
      </trkpt>
      <trkpt lat="47.5592" lon="-2.20433">
        <ele>35.8</ele>
        <time>2021-08-14T13:28:39Z</time>
      </trkpt>
      <trkpt lat="47.55921" lon="-2.20428">
        <ele>36.2</ele>
        <time>2021-08-14T13:28:41Z</time>
      </trkpt>
      <trkpt lat="47.55922" lon="-2.20422">
        <ele>36.2</ele>
        <time>2021-08-14T13:28:42Z</time>
      </trkpt>
      <trkpt lat="47.55922" lon="-2.2042">
        <ele>36.2</ele>
        <time>2021-08-14T13:28:43Z</time>
      </trkpt>
      <trkpt lat="47.55924" lon="-2.20413">
        <ele>35.9</ele>
        <time>2021-08-14T13:28:45Z</time>
      </trkpt>
      <trkpt lat="47.55925" lon="-2.20407">
        <ele>36.2</ele>
        <time>2021-08-14T13:28:47Z</time>
      </trkpt>
      <trkpt lat="47.55926" lon="-2.20403">
        <ele>36</ele>
        <time>2021-08-14T13:28:48Z</time>
      </trkpt>
      <trkpt lat="47.55927" lon="-2.204">
        <ele>35.8</ele>
        <time>2021-08-14T13:28:49Z</time>
      </trkpt>
      <trkpt lat="47.55928" lon="-2.20396">
        <ele>36.1</ele>
        <time>2021-08-14T13:28:51Z</time>
      </trkpt>
      <trkpt lat="47.55929" lon="-2.20392">
        <ele>36</ele>
        <time>2021-08-14T13:28:52Z</time>
      </trkpt>
      <trkpt lat="47.5593" lon="-2.20389">
        <ele>35.8</ele>
        <time>2021-08-14T13:28:53Z</time>
      </trkpt>
      <trkpt lat="47.5593" lon="-2.20386">
        <ele>36</ele>
        <time>2021-08-14T13:28:55Z</time>
      </trkpt>
      <trkpt lat="47.55932" lon="-2.20382">
        <ele>35.8</ele>
        <time>2021-08-14T13:28:56Z</time>
      </trkpt>
      <trkpt lat="47.55932" lon="-2.2038">
        <ele>35.8</ele>
        <time>2021-08-14T13:28:57Z</time>
      </trkpt>
      <trkpt lat="47.55934" lon="-2.20375">
        <ele>36</ele>
        <time>2021-08-14T13:28:58Z</time>
      </trkpt>
      <trkpt lat="47.55934" lon="-2.20373">
        <ele>35.8</ele>
        <time>2021-08-14T13:28:59Z</time>
      </trkpt>
      <trkpt lat="47.55936" lon="-2.20367">
        <ele>36</ele>
        <time>2021-08-14T13:29:01Z</time>
      </trkpt>
      <trkpt lat="47.55937" lon="-2.20363">
        <ele>35.9</ele>
        <time>2021-08-14T13:29:02Z</time>
      </trkpt>
      <trkpt lat="47.55939" lon="-2.20355">
        <ele>35.8</ele>
        <time>2021-08-14T13:29:04Z</time>
      </trkpt>
      <trkpt lat="47.5594" lon="-2.20352">
        <ele>35.6</ele>
        <time>2021-08-14T13:29:06Z</time>
      </trkpt>
      <trkpt lat="47.55941" lon="-2.20349">
        <ele>35.6</ele>
        <time>2021-08-14T13:29:07Z</time>
      </trkpt>
      <trkpt lat="47.55941" lon="-2.20346">
        <ele>35.7</ele>
        <time>2021-08-14T13:29:08Z</time>
      </trkpt>
      <trkpt lat="47.55943" lon="-2.20343">
        <ele>35.5</ele>
        <time>2021-08-14T13:29:09Z</time>
      </trkpt>
      <trkpt lat="47.55944" lon="-2.20341">
        <ele>35.5</ele>
        <time>2021-08-14T13:29:10Z</time>
      </trkpt>
      <trkpt lat="47.55945" lon="-2.20336">
        <ele>35.6</ele>
        <time>2021-08-14T13:29:12Z</time>
      </trkpt>
      <trkpt lat="47.55946" lon="-2.20335">
        <ele>35.4</ele>
        <time>2021-08-14T13:29:13Z</time>
      </trkpt>
      <trkpt lat="47.55947" lon="-2.20328">
        <ele>35.6</ele>
        <time>2021-08-14T13:29:15Z</time>
      </trkpt>
      <trkpt lat="47.55949" lon="-2.20323">
        <ele>35.2</ele>
        <time>2021-08-14T13:29:16Z</time>
      </trkpt>
      <trkpt lat="47.5595" lon="-2.20317">
        <ele>35.1</ele>
        <time>2021-08-14T13:29:17Z</time>
      </trkpt>
      <trkpt lat="47.55951" lon="-2.20312">
        <ele>35.3</ele>
        <time>2021-08-14T13:29:18Z</time>
      </trkpt>
      <trkpt lat="47.55952" lon="-2.20307">
        <ele>35.1</ele>
        <time>2021-08-14T13:29:19Z</time>
      </trkpt>
      <trkpt lat="47.55954" lon="-2.203">
        <ele>35</ele>
        <time>2021-08-14T13:29:21Z</time>
      </trkpt>
      <trkpt lat="47.55955" lon="-2.20295">
        <ele>34.7</ele>
        <time>2021-08-14T13:29:22Z</time>
      </trkpt>
      <trkpt lat="47.55956" lon="-2.20293">
        <ele>34.6</ele>
        <time>2021-08-14T13:29:23Z</time>
      </trkpt>
      <trkpt lat="47.55957" lon="-2.20289">
        <ele>34.4</ele>
        <time>2021-08-14T13:29:25Z</time>
      </trkpt>
      <trkpt lat="47.55958" lon="-2.20285">
        <ele>34.4</ele>
        <time>2021-08-14T13:29:26Z</time>
      </trkpt>
      <trkpt lat="47.55959" lon="-2.2028">
        <ele>33.9</ele>
        <time>2021-08-14T13:29:27Z</time>
      </trkpt>
      <trkpt lat="47.5596" lon="-2.20275">
        <ele>33.6</ele>
        <time>2021-08-14T13:29:28Z</time>
      </trkpt>
      <trkpt lat="47.55963" lon="-2.20266">
        <ele>33</ele>
        <time>2021-08-14T13:29:30Z</time>
      </trkpt>
      <trkpt lat="47.55964" lon="-2.2026">
        <ele>32.7</ele>
        <time>2021-08-14T13:29:32Z</time>
      </trkpt>
      <trkpt lat="47.55966" lon="-2.20255">
        <ele>32.4</ele>
        <time>2021-08-14T13:29:33Z</time>
      </trkpt>
      <trkpt lat="47.55967" lon="-2.20251">
        <ele>32.1</ele>
        <time>2021-08-14T13:29:34Z</time>
      </trkpt>
      <trkpt lat="47.5597" lon="-2.20244">
        <ele>31.5</ele>
        <time>2021-08-14T13:29:36Z</time>
      </trkpt>
      <trkpt lat="47.55971" lon="-2.2024">
        <ele>31.3</ele>
        <time>2021-08-14T13:29:37Z</time>
      </trkpt>
      <trkpt lat="47.55973" lon="-2.20237">
        <ele>31</ele>
        <time>2021-08-14T13:29:38Z</time>
      </trkpt>
      <trkpt lat="47.55976" lon="-2.20231">
        <ele>30.9</ele>
        <time>2021-08-14T13:29:40Z</time>
      </trkpt>
      <trkpt lat="47.55979" lon="-2.20228">
        <ele>30.7</ele>
        <time>2021-08-14T13:29:41Z</time>
      </trkpt>
      <trkpt lat="47.55981" lon="-2.20224">
        <ele>30.5</ele>
        <time>2021-08-14T13:29:43Z</time>
      </trkpt>
      <trkpt lat="47.55983" lon="-2.20221">
        <ele>30.5</ele>
        <time>2021-08-14T13:29:44Z</time>
      </trkpt>
      <trkpt lat="47.55986" lon="-2.20218">
        <ele>30.3</ele>
        <time>2021-08-14T13:29:45Z</time>
      </trkpt>
      <trkpt lat="47.55989" lon="-2.20215">
        <ele>30.1</ele>
        <time>2021-08-14T13:29:46Z</time>
      </trkpt>
      <trkpt lat="47.55992" lon="-2.20213">
        <ele>30.1</ele>
        <time>2021-08-14T13:29:47Z</time>
      </trkpt>
      <trkpt lat="47.55996" lon="-2.20211">
        <ele>29.8</ele>
        <time>2021-08-14T13:29:48Z</time>
      </trkpt>
      <trkpt lat="47.56" lon="-2.20209">
        <ele>29.7</ele>
        <time>2021-08-14T13:29:49Z</time>
      </trkpt>
      <trkpt lat="47.5601" lon="-2.20204">
        <ele>29.2</ele>
        <time>2021-08-14T13:29:51Z</time>
      </trkpt>
      <trkpt lat="47.56022" lon="-2.20199">
        <ele>28.1</ele>
        <time>2021-08-14T13:29:53Z</time>
      </trkpt>
      <trkpt lat="47.56036" lon="-2.20192">
        <ele>26.9</ele>
        <time>2021-08-14T13:29:55Z</time>
      </trkpt>
      <trkpt lat="47.56052" lon="-2.20185">
        <ele>24.8</ele>
        <time>2021-08-14T13:29:57Z</time>
      </trkpt>
      <trkpt lat="47.56069" lon="-2.20177">
        <ele>22.8</ele>
        <time>2021-08-14T13:29:59Z</time>
      </trkpt>
      <trkpt lat="47.56086" lon="-2.2017">
        <ele>21.6</ele>
        <time>2021-08-14T13:30:01Z</time>
      </trkpt>
      <trkpt lat="47.56102" lon="-2.20163">
        <ele>20.8</ele>
        <time>2021-08-14T13:30:03Z</time>
      </trkpt>
      <trkpt lat="47.56117" lon="-2.20157">
        <ele>20.3</ele>
        <time>2021-08-14T13:30:05Z</time>
      </trkpt>
      <trkpt lat="47.56123" lon="-2.20154">
        <ele>20.1</ele>
        <time>2021-08-14T13:30:06Z</time>
      </trkpt>
      <trkpt lat="47.56135" lon="-2.20149">
        <ele>20.2</ele>
        <time>2021-08-14T13:30:08Z</time>
      </trkpt>
      <trkpt lat="47.56141" lon="-2.20146">
        <ele>20.2</ele>
        <time>2021-08-14T13:30:09Z</time>
      </trkpt>
      <trkpt lat="47.56151" lon="-2.20141">
        <ele>20.3</ele>
        <time>2021-08-14T13:30:11Z</time>
      </trkpt>
      <trkpt lat="47.56161" lon="-2.20136">
        <ele>20.3</ele>
        <time>2021-08-14T13:30:13Z</time>
      </trkpt>
      <trkpt lat="47.5617" lon="-2.20131">
        <ele>20.2</ele>
        <time>2021-08-14T13:30:15Z</time>
      </trkpt>
      <trkpt lat="47.56178" lon="-2.20128">
        <ele>20.3</ele>
        <time>2021-08-14T13:30:17Z</time>
      </trkpt>
      <trkpt lat="47.56181" lon="-2.20126">
        <ele>20.3</ele>
        <time>2021-08-14T13:30:18Z</time>
      </trkpt>
      <trkpt lat="47.56188" lon="-2.20123">
        <ele>20.4</ele>
        <time>2021-08-14T13:30:20Z</time>
      </trkpt>
      <trkpt lat="47.56196" lon="-2.20121">
        <ele>20.5</ele>
        <time>2021-08-14T13:30:22Z</time>
      </trkpt>
      <trkpt lat="47.56203" lon="-2.20119">
        <ele>20.7</ele>
        <time>2021-08-14T13:30:23Z</time>
      </trkpt>
      <trkpt lat="47.56204" lon="-2.20123">
        <ele>20.7</ele>
        <time>2021-08-14T13:30:24Z</time>
      </trkpt>
      <trkpt lat="47.56209" lon="-2.20122">
        <ele>20.8</ele>
        <time>2021-08-14T13:30:26Z</time>
      </trkpt>
      <trkpt lat="47.56214" lon="-2.2012">
        <ele>20.9</ele>
        <time>2021-08-14T13:30:27Z</time>
      </trkpt>
      <trkpt lat="47.56218" lon="-2.20119">
        <ele>20.9</ele>
        <time>2021-08-14T13:30:28Z</time>
      </trkpt>
      <trkpt lat="47.56225" lon="-2.20118">
        <ele>21</ele>
        <time>2021-08-14T13:30:30Z</time>
      </trkpt>
      <trkpt lat="47.56231" lon="-2.20118">
        <ele>21.1</ele>
        <time>2021-08-14T13:30:32Z</time>
      </trkpt>
      <trkpt lat="47.56234" lon="-2.20118">
        <ele>21.1</ele>
        <time>2021-08-14T13:30:33Z</time>
      </trkpt>
      <trkpt lat="47.56239" lon="-2.20119">
        <ele>21.1</ele>
        <time>2021-08-14T13:30:34Z</time>
      </trkpt>
      <trkpt lat="47.56243" lon="-2.20119">
        <ele>21.1</ele>
        <time>2021-08-14T13:30:35Z</time>
      </trkpt>
      <trkpt lat="47.56246" lon="-2.2012">
        <ele>21.1</ele>
        <time>2021-08-14T13:30:37Z</time>
      </trkpt>
      <trkpt lat="47.5625" lon="-2.20122">
        <ele>21.1</ele>
        <time>2021-08-14T13:30:38Z</time>
      </trkpt>
      <trkpt lat="47.56253" lon="-2.20124">
        <ele>21</ele>
        <time>2021-08-14T13:30:39Z</time>
      </trkpt>
      <trkpt lat="47.56258" lon="-2.20126">
        <ele>21</ele>
        <time>2021-08-14T13:30:41Z</time>
      </trkpt>
      <trkpt lat="47.56261" lon="-2.20127">
        <ele>21</ele>
        <time>2021-08-14T13:30:42Z</time>
      </trkpt>
      <trkpt lat="47.56266" lon="-2.20128">
        <ele>21</ele>
        <time>2021-08-14T13:30:44Z</time>
      </trkpt>
      <trkpt lat="47.56271" lon="-2.2013">
        <ele>20.9</ele>
        <time>2021-08-14T13:30:45Z</time>
      </trkpt>
      <trkpt lat="47.56274" lon="-2.20132">
        <ele>20.9</ele>
        <time>2021-08-14T13:30:47Z</time>
      </trkpt>
      <trkpt lat="47.56278" lon="-2.20134">
        <ele>20.9</ele>
        <time>2021-08-14T13:30:48Z</time>
      </trkpt>
      <trkpt lat="47.56282" lon="-2.20135">
        <ele>20.9</ele>
        <time>2021-08-14T13:30:49Z</time>
      </trkpt>
      <trkpt lat="47.56286" lon="-2.20137">
        <ele>20.9</ele>
        <time>2021-08-14T13:30:51Z</time>
      </trkpt>
      <trkpt lat="47.56291" lon="-2.20138">
        <ele>20.9</ele>
        <time>2021-08-14T13:30:52Z</time>
      </trkpt>
      <trkpt lat="47.56295" lon="-2.2014">
        <ele>20.9</ele>
        <time>2021-08-14T13:30:54Z</time>
      </trkpt>
      <trkpt lat="47.56299" lon="-2.20141">
        <ele>20.9</ele>
        <time>2021-08-14T13:30:55Z</time>
      </trkpt>
      <trkpt lat="47.56302" lon="-2.20142">
        <ele>20.9</ele>
        <time>2021-08-14T13:30:56Z</time>
      </trkpt>
      <trkpt lat="47.56306" lon="-2.20143">
        <ele>21</ele>
        <time>2021-08-14T13:30:57Z</time>
      </trkpt>
      <trkpt lat="47.56311" lon="-2.20145">
        <ele>21</ele>
        <time>2021-08-14T13:30:59Z</time>
      </trkpt>
      <trkpt lat="47.56315" lon="-2.20146">
        <ele>21</ele>
        <time>2021-08-14T13:31:00Z</time>
      </trkpt>
      <trkpt lat="47.5632" lon="-2.20148">
        <ele>21.1</ele>
        <time>2021-08-14T13:31:02Z</time>
      </trkpt>
      <trkpt lat="47.56324" lon="-2.20149">
        <ele>21.1</ele>
        <time>2021-08-14T13:31:03Z</time>
      </trkpt>
      <trkpt lat="47.56328" lon="-2.2015">
        <ele>21.1</ele>
        <time>2021-08-14T13:31:05Z</time>
      </trkpt>
      <trkpt lat="47.56331" lon="-2.20152">
        <ele>21.2</ele>
        <time>2021-08-14T13:31:06Z</time>
      </trkpt>
      <trkpt lat="47.56336" lon="-2.20153">
        <ele>21.2</ele>
        <time>2021-08-14T13:31:07Z</time>
      </trkpt>
      <trkpt lat="47.56339" lon="-2.20155">
        <ele>21.3</ele>
        <time>2021-08-14T13:31:08Z</time>
      </trkpt>
      <trkpt lat="47.56344" lon="-2.20157">
        <ele>21.4</ele>
        <time>2021-08-14T13:31:10Z</time>
      </trkpt>
      <trkpt lat="47.56348" lon="-2.20158">
        <ele>21.4</ele>
        <time>2021-08-14T13:31:11Z</time>
      </trkpt>
      <trkpt lat="47.56349" lon="-2.20158">
        <ele>21.4</ele>
        <time>2021-08-14T13:31:12Z</time>
      </trkpt>
      <trkpt lat="47.56352" lon="-2.20159">
        <ele>21.4</ele>
        <time>2021-08-14T13:31:14Z</time>
      </trkpt>
      <trkpt lat="47.56356" lon="-2.2016">
        <ele>21.5</ele>
        <time>2021-08-14T13:31:15Z</time>
      </trkpt>
      <trkpt lat="47.5636" lon="-2.20161">
        <ele>21.7</ele>
        <time>2021-08-14T13:31:17Z</time>
      </trkpt>
      <trkpt lat="47.56363" lon="-2.20161">
        <ele>21.7</ele>
        <time>2021-08-14T13:31:18Z</time>
      </trkpt>
      <trkpt lat="47.56366" lon="-2.20161">
        <ele>21.7</ele>
        <time>2021-08-14T13:31:19Z</time>
      </trkpt>
      <trkpt lat="47.56369" lon="-2.20158">
        <ele>21.6</ele>
        <time>2021-08-14T13:31:21Z</time>
      </trkpt>
      <trkpt lat="47.56371" lon="-2.20154">
        <ele>21.5</ele>
        <time>2021-08-14T13:31:22Z</time>
      </trkpt>
      <trkpt lat="47.56374" lon="-2.2015">
        <ele>21.5</ele>
        <time>2021-08-14T13:31:23Z</time>
      </trkpt>
      <trkpt lat="47.56375" lon="-2.20143">
        <ele>21.3</ele>
        <time>2021-08-14T13:31:25Z</time>
      </trkpt>
      <trkpt lat="47.56376" lon="-2.20139">
        <ele>21.3</ele>
        <time>2021-08-14T13:31:26Z</time>
      </trkpt>
      <trkpt lat="47.56376" lon="-2.20135">
        <ele>21.2</ele>
        <time>2021-08-14T13:31:27Z</time>
      </trkpt>
      <trkpt lat="47.56377" lon="-2.20126">
        <ele>21.1</ele>
        <time>2021-08-14T13:31:29Z</time>
      </trkpt>
      <trkpt lat="47.56378" lon="-2.20118">
        <ele>20.9</ele>
        <time>2021-08-14T13:31:31Z</time>
      </trkpt>
      <trkpt lat="47.56379" lon="-2.2011">
        <ele>20.8</ele>
        <time>2021-08-14T13:31:33Z</time>
      </trkpt>
      <trkpt lat="47.56381" lon="-2.20101">
        <ele>20.6</ele>
        <time>2021-08-14T13:31:35Z</time>
      </trkpt>
      <trkpt lat="47.56382" lon="-2.20096">
        <ele>20.5</ele>
        <time>2021-08-14T13:31:36Z</time>
      </trkpt>
      <trkpt lat="47.56382" lon="-2.20091">
        <ele>20.4</ele>
        <time>2021-08-14T13:31:37Z</time>
      </trkpt>
      <trkpt lat="47.56383" lon="-2.20084">
        <ele>20.3</ele>
        <time>2021-08-14T13:31:39Z</time>
      </trkpt>
      <trkpt lat="47.56384" lon="-2.20079">
        <ele>20.2</ele>
        <time>2021-08-14T13:31:40Z</time>
      </trkpt>
      <trkpt lat="47.56385" lon="-2.20072">
        <ele>20.1</ele>
        <time>2021-08-14T13:31:41Z</time>
      </trkpt>
      <trkpt lat="47.56386" lon="-2.20067">
        <ele>20</ele>
        <time>2021-08-14T13:31:42Z</time>
      </trkpt>
      <trkpt lat="47.56387" lon="-2.20061">
        <ele>19.9</ele>
        <time>2021-08-14T13:31:43Z</time>
      </trkpt>
      <trkpt lat="47.56388" lon="-2.20054">
        <ele>19.8</ele>
        <time>2021-08-14T13:31:45Z</time>
      </trkpt>
      <trkpt lat="47.5639" lon="-2.20046">
        <ele>19.7</ele>
        <time>2021-08-14T13:31:46Z</time>
      </trkpt>
      <trkpt lat="47.56391" lon="-2.20041">
        <ele>19.7</ele>
        <time>2021-08-14T13:31:47Z</time>
      </trkpt>
      <trkpt lat="47.56393" lon="-2.2003">
        <ele>19.6</ele>
        <time>2021-08-14T13:31:49Z</time>
      </trkpt>
      <trkpt lat="47.56394" lon="-2.20021">
        <ele>19.5</ele>
        <time>2021-08-14T13:31:51Z</time>
      </trkpt>
      <trkpt lat="47.56395" lon="-2.20016">
        <ele>19.5</ele>
        <time>2021-08-14T13:31:52Z</time>
      </trkpt>
      <trkpt lat="47.56396" lon="-2.2001">
        <ele>19.5</ele>
        <time>2021-08-14T13:31:54Z</time>
      </trkpt>
      <trkpt lat="47.56397" lon="-2.20003">
        <ele>19.4</ele>
        <time>2021-08-14T13:31:55Z</time>
      </trkpt>
      <trkpt lat="47.56397" lon="-2.19998">
        <ele>19.4</ele>
        <time>2021-08-14T13:31:56Z</time>
      </trkpt>
      <trkpt lat="47.56398" lon="-2.19993">
        <ele>19.4</ele>
        <time>2021-08-14T13:31:57Z</time>
      </trkpt>
      <trkpt lat="47.56399" lon="-2.19985">
        <ele>19.3</ele>
        <time>2021-08-14T13:31:59Z</time>
      </trkpt>
      <trkpt lat="47.56401" lon="-2.19978">
        <ele>19.3</ele>
        <time>2021-08-14T13:32:00Z</time>
      </trkpt>
      <trkpt lat="47.56402" lon="-2.1997">
        <ele>19.2</ele>
        <time>2021-08-14T13:32:02Z</time>
      </trkpt>
      <trkpt lat="47.56404" lon="-2.19961">
        <ele>19.2</ele>
        <time>2021-08-14T13:32:04Z</time>
      </trkpt>
      <trkpt lat="47.56405" lon="-2.19955">
        <ele>19.1</ele>
        <time>2021-08-14T13:32:05Z</time>
      </trkpt>
      <trkpt lat="47.56406" lon="-2.19947">
        <ele>19.1</ele>
        <time>2021-08-14T13:32:07Z</time>
      </trkpt>
      <trkpt lat="47.56408" lon="-2.19941">
        <ele>19</ele>
        <time>2021-08-14T13:32:08Z</time>
      </trkpt>
      <trkpt lat="47.56408" lon="-2.19936">
        <ele>19</ele>
        <time>2021-08-14T13:32:09Z</time>
      </trkpt>
      <trkpt lat="47.56409" lon="-2.19926">
        <ele>19</ele>
        <time>2021-08-14T13:32:11Z</time>
      </trkpt>
      <trkpt lat="47.56411" lon="-2.19917">
        <ele>18.9</ele>
        <time>2021-08-14T13:32:13Z</time>
      </trkpt>
      <trkpt lat="47.56411" lon="-2.19908">
        <ele>18.9</ele>
        <time>2021-08-14T13:32:15Z</time>
      </trkpt>
      <trkpt lat="47.56412" lon="-2.19902">
        <ele>18.8</ele>
        <time>2021-08-14T13:32:16Z</time>
      </trkpt>
      <trkpt lat="47.56413" lon="-2.19892">
        <ele>18.8</ele>
        <time>2021-08-14T13:32:18Z</time>
      </trkpt>
      <trkpt lat="47.56415" lon="-2.19882">
        <ele>18.7</ele>
        <time>2021-08-14T13:32:20Z</time>
      </trkpt>
      <trkpt lat="47.56417" lon="-2.19873">
        <ele>18.7</ele>
        <time>2021-08-14T13:32:22Z</time>
      </trkpt>
      <trkpt lat="47.56418" lon="-2.19868">
        <ele>18.6</ele>
        <time>2021-08-14T13:32:23Z</time>
      </trkpt>
      <trkpt lat="47.56418" lon="-2.19864">
        <ele>18.6</ele>
        <time>2021-08-14T13:32:24Z</time>
      </trkpt>
      <trkpt lat="47.56419" lon="-2.19858">
        <ele>18.6</ele>
        <time>2021-08-14T13:32:26Z</time>
      </trkpt>
      <trkpt lat="47.5642" lon="-2.19853">
        <ele>18.5</ele>
        <time>2021-08-14T13:32:27Z</time>
      </trkpt>
      <trkpt lat="47.56421" lon="-2.19848">
        <ele>18.5</ele>
        <time>2021-08-14T13:32:29Z</time>
      </trkpt>
      <trkpt lat="47.56423" lon="-2.19841">
        <ele>18.5</ele>
        <time>2021-08-14T13:32:30Z</time>
      </trkpt>
      <trkpt lat="47.56423" lon="-2.19835">
        <ele>18.4</ele>
        <time>2021-08-14T13:32:32Z</time>
      </trkpt>
      <trkpt lat="47.56424" lon="-2.19829">
        <ele>18.4</ele>
        <time>2021-08-14T13:32:33Z</time>
      </trkpt>
      <trkpt lat="47.56426" lon="-2.19819">
        <ele>18.3</ele>
        <time>2021-08-14T13:32:35Z</time>
      </trkpt>
      <trkpt lat="47.56427" lon="-2.19809">
        <ele>18.3</ele>
        <time>2021-08-14T13:32:37Z</time>
      </trkpt>
      <trkpt lat="47.56428" lon="-2.19804">
        <ele>18.2</ele>
        <time>2021-08-14T13:32:38Z</time>
      </trkpt>
      <trkpt lat="47.56429" lon="-2.19795">
        <ele>18.2</ele>
        <time>2021-08-14T13:32:40Z</time>
      </trkpt>
      <trkpt lat="47.56431" lon="-2.19785">
        <ele>18.1</ele>
        <time>2021-08-14T13:32:42Z</time>
      </trkpt>
      <trkpt lat="47.56432" lon="-2.19781">
        <ele>18.1</ele>
        <time>2021-08-14T13:32:43Z</time>
      </trkpt>
      <trkpt lat="47.56432" lon="-2.19777">
        <ele>18</ele>
        <time>2021-08-14T13:32:44Z</time>
      </trkpt>
      <trkpt lat="47.56434" lon="-2.19767">
        <ele>17.9</ele>
        <time>2021-08-14T13:32:46Z</time>
      </trkpt>
      <trkpt lat="47.56435" lon="-2.19763">
        <ele>17.9</ele>
        <time>2021-08-14T13:32:47Z</time>
      </trkpt>
      <trkpt lat="47.56436" lon="-2.19753">
        <ele>17.8</ele>
        <time>2021-08-14T13:32:49Z</time>
      </trkpt>
      <trkpt lat="47.56436" lon="-2.19748">
        <ele>17.7</ele>
        <time>2021-08-14T13:32:50Z</time>
      </trkpt>
      <trkpt lat="47.56437" lon="-2.19743">
        <ele>17.7</ele>
        <time>2021-08-14T13:32:51Z</time>
      </trkpt>
      <trkpt lat="47.56439" lon="-2.19733">
        <ele>17.5</ele>
        <time>2021-08-14T13:32:53Z</time>
      </trkpt>
      <trkpt lat="47.5644" lon="-2.19727">
        <ele>17.5</ele>
        <time>2021-08-14T13:32:55Z</time>
      </trkpt>
      <trkpt lat="47.56441" lon="-2.1972">
        <ele>17.4</ele>
        <time>2021-08-14T13:32:56Z</time>
      </trkpt>
      <trkpt lat="47.56443" lon="-2.19711">
        <ele>17.3</ele>
        <time>2021-08-14T13:32:58Z</time>
      </trkpt>
      <trkpt lat="47.56443" lon="-2.19703">
        <ele>17.3</ele>
        <time>2021-08-14T13:33:00Z</time>
      </trkpt>
      <trkpt lat="47.56444" lon="-2.19696">
        <ele>17.2</ele>
        <time>2021-08-14T13:33:01Z</time>
      </trkpt>
      <trkpt lat="47.56445" lon="-2.19691">
        <ele>17.2</ele>
        <time>2021-08-14T13:33:02Z</time>
      </trkpt>
      <trkpt lat="47.56445" lon="-2.19686">
        <ele>17.1</ele>
        <time>2021-08-14T13:33:03Z</time>
      </trkpt>
      <trkpt lat="47.56447" lon="-2.19675">
        <ele>17</ele>
        <time>2021-08-14T13:33:05Z</time>
      </trkpt>
      <trkpt lat="47.56448" lon="-2.1967">
        <ele>17</ele>
        <time>2021-08-14T13:33:06Z</time>
      </trkpt>
      <trkpt lat="47.56449" lon="-2.19665">
        <ele>17</ele>
        <time>2021-08-14T13:33:07Z</time>
      </trkpt>
      <trkpt lat="47.5645" lon="-2.19659">
        <ele>16.9</ele>
        <time>2021-08-14T13:33:09Z</time>
      </trkpt>
      <trkpt lat="47.56451" lon="-2.1965">
        <ele>16.9</ele>
        <time>2021-08-14T13:33:10Z</time>
      </trkpt>
      <trkpt lat="47.56452" lon="-2.19644">
        <ele>16.8</ele>
        <time>2021-08-14T13:33:11Z</time>
      </trkpt>
      <trkpt lat="47.56453" lon="-2.19639">
        <ele>16.8</ele>
        <time>2021-08-14T13:33:13Z</time>
      </trkpt>
      <trkpt lat="47.56454" lon="-2.19631">
        <ele>16.8</ele>
        <time>2021-08-14T13:33:14Z</time>
      </trkpt>
      <trkpt lat="47.56455" lon="-2.19624">
        <ele>16.7</ele>
        <time>2021-08-14T13:33:16Z</time>
      </trkpt>
      <trkpt lat="47.56456" lon="-2.19618">
        <ele>16.7</ele>
        <time>2021-08-14T13:33:17Z</time>
      </trkpt>
      <trkpt lat="47.56458" lon="-2.19609">
        <ele>16.6</ele>
        <time>2021-08-14T13:33:19Z</time>
      </trkpt>
      <trkpt lat="47.5646" lon="-2.19601">
        <ele>16.6</ele>
        <time>2021-08-14T13:33:20Z</time>
      </trkpt>
      <trkpt lat="47.56464" lon="-2.19592">
        <ele>16.6</ele>
        <time>2021-08-14T13:33:22Z</time>
      </trkpt>
      <trkpt lat="47.56467" lon="-2.19585">
        <ele>16.6</ele>
        <time>2021-08-14T13:33:24Z</time>
      </trkpt>
      <trkpt lat="47.5647" lon="-2.1958">
        <ele>16.6</ele>
        <time>2021-08-14T13:33:25Z</time>
      </trkpt>
      <trkpt lat="47.56471" lon="-2.19571">
        <ele>16.4</ele>
        <time>2021-08-14T13:33:27Z</time>
      </trkpt>
      <trkpt lat="47.5647" lon="-2.19564">
        <ele>16.3</ele>
        <time>2021-08-14T13:33:28Z</time>
      </trkpt>
      <trkpt lat="47.56466" lon="-2.19557">
        <ele>16.1</ele>
        <time>2021-08-14T13:33:30Z</time>
      </trkpt>
      <trkpt lat="47.56463" lon="-2.19552">
        <ele>16</ele>
        <time>2021-08-14T13:33:31Z</time>
      </trkpt>
      <trkpt lat="47.56461" lon="-2.19548">
        <ele>15.9</ele>
        <time>2021-08-14T13:33:32Z</time>
      </trkpt>
      <trkpt lat="47.56459" lon="-2.19543">
        <ele>15.8</ele>
        <time>2021-08-14T13:33:33Z</time>
      </trkpt>
      <trkpt lat="47.56457" lon="-2.1954">
        <ele>15.8</ele>
        <time>2021-08-14T13:33:34Z</time>
      </trkpt>
      <trkpt lat="47.56455" lon="-2.19536">
        <ele>15.7</ele>
        <time>2021-08-14T13:33:35Z</time>
      </trkpt>
      <trkpt lat="47.56452" lon="-2.19528">
        <ele>15.6</ele>
        <time>2021-08-14T13:33:37Z</time>
      </trkpt>
      <trkpt lat="47.56448" lon="-2.19521">
        <ele>15.6</ele>
        <time>2021-08-14T13:33:39Z</time>
      </trkpt>
      <trkpt lat="47.56446" lon="-2.19517">
        <ele>15.5</ele>
        <time>2021-08-14T13:33:40Z</time>
      </trkpt>
      <trkpt lat="47.56444" lon="-2.19513">
        <ele>15.5</ele>
        <time>2021-08-14T13:33:41Z</time>
      </trkpt>
      <trkpt lat="47.5644" lon="-2.19508">
        <ele>15.5</ele>
        <time>2021-08-14T13:33:43Z</time>
      </trkpt>
      <trkpt lat="47.56438" lon="-2.19504">
        <ele>15.5</ele>
        <time>2021-08-14T13:33:44Z</time>
      </trkpt>
      <trkpt lat="47.56435" lon="-2.195">
        <ele>15.5</ele>
        <time>2021-08-14T13:33:45Z</time>
      </trkpt>
      <trkpt lat="47.56432" lon="-2.19495">
        <ele>15.4</ele>
        <time>2021-08-14T13:33:46Z</time>
      </trkpt>
      <trkpt lat="47.56429" lon="-2.19491">
        <ele>15.4</ele>
        <time>2021-08-14T13:33:47Z</time>
      </trkpt>
      <trkpt lat="47.56424" lon="-2.19485">
        <ele>15.4</ele>
        <time>2021-08-14T13:33:49Z</time>
      </trkpt>
      <trkpt lat="47.56421" lon="-2.19481">
        <ele>15.4</ele>
        <time>2021-08-14T13:33:50Z</time>
      </trkpt>
      <trkpt lat="47.56418" lon="-2.19476">
        <ele>15.4</ele>
        <time>2021-08-14T13:33:52Z</time>
      </trkpt>
      <trkpt lat="47.56415" lon="-2.19473">
        <ele>15.4</ele>
        <time>2021-08-14T13:33:53Z</time>
      </trkpt>
      <trkpt lat="47.56411" lon="-2.19469">
        <ele>15.4</ele>
        <time>2021-08-14T13:33:54Z</time>
      </trkpt>
      <trkpt lat="47.56408" lon="-2.19465">
        <ele>15.4</ele>
        <time>2021-08-14T13:33:55Z</time>
      </trkpt>
      <trkpt lat="47.56405" lon="-2.19462">
        <ele>15.4</ele>
        <time>2021-08-14T13:33:56Z</time>
      </trkpt>
      <trkpt lat="47.56401" lon="-2.19456">
        <ele>15.4</ele>
        <time>2021-08-14T13:33:58Z</time>
      </trkpt>
      <trkpt lat="47.56398" lon="-2.19451">
        <ele>15.4</ele>
        <time>2021-08-14T13:33:59Z</time>
      </trkpt>
      <trkpt lat="47.56395" lon="-2.19449">
        <ele>15.5</ele>
        <time>2021-08-14T13:34:00Z</time>
      </trkpt>
      <trkpt lat="47.5639" lon="-2.19444">
        <ele>15.5</ele>
        <time>2021-08-14T13:34:02Z</time>
      </trkpt>
      <trkpt lat="47.56387" lon="-2.19441">
        <ele>15.5</ele>
        <time>2021-08-14T13:34:03Z</time>
      </trkpt>
      <trkpt lat="47.56385" lon="-2.19438">
        <ele>15.5</ele>
        <time>2021-08-14T13:34:04Z</time>
      </trkpt>
      <trkpt lat="47.56381" lon="-2.19432">
        <ele>15.5</ele>
        <time>2021-08-14T13:34:06Z</time>
      </trkpt>
      <trkpt lat="47.56377" lon="-2.19428">
        <ele>15.5</ele>
        <time>2021-08-14T13:34:07Z</time>
      </trkpt>
      <trkpt lat="47.56372" lon="-2.19422">
        <ele>15.5</ele>
        <time>2021-08-14T13:34:09Z</time>
      </trkpt>
      <trkpt lat="47.56367" lon="-2.19415">
        <ele>15.5</ele>
        <time>2021-08-14T13:34:11Z</time>
      </trkpt>
      <trkpt lat="47.56362" lon="-2.19409">
        <ele>15.5</ele>
        <time>2021-08-14T13:34:13Z</time>
      </trkpt>
      <trkpt lat="47.56359" lon="-2.19406">
        <ele>15.5</ele>
        <time>2021-08-14T13:34:14Z</time>
      </trkpt>
      <trkpt lat="47.56355" lon="-2.19402">
        <ele>15.5</ele>
        <time>2021-08-14T13:34:16Z</time>
      </trkpt>
      <trkpt lat="47.56351" lon="-2.19398">
        <ele>15.6</ele>
        <time>2021-08-14T13:34:17Z</time>
      </trkpt>
      <trkpt lat="47.56349" lon="-2.19394">
        <ele>15.6</ele>
        <time>2021-08-14T13:34:18Z</time>
      </trkpt>
      <trkpt lat="47.56346" lon="-2.19391">
        <ele>15.6</ele>
        <time>2021-08-14T13:34:19Z</time>
      </trkpt>
      <trkpt lat="47.56341" lon="-2.19384">
        <ele>15.6</ele>
        <time>2021-08-14T13:34:21Z</time>
      </trkpt>
      <trkpt lat="47.56339" lon="-2.19382">
        <ele>15.6</ele>
        <time>2021-08-14T13:34:22Z</time>
      </trkpt>
      <trkpt lat="47.56337" lon="-2.19379">
        <ele>15.6</ele>
        <time>2021-08-14T13:34:23Z</time>
      </trkpt>
      <trkpt lat="47.56331" lon="-2.19374">
        <ele>15.7</ele>
        <time>2021-08-14T13:34:25Z</time>
      </trkpt>
      <trkpt lat="47.56329" lon="-2.19371">
        <ele>15.7</ele>
        <time>2021-08-14T13:34:26Z</time>
      </trkpt>
      <trkpt lat="47.56324" lon="-2.19366">
        <ele>15.7</ele>
        <time>2021-08-14T13:34:28Z</time>
      </trkpt>
      <trkpt lat="47.56322" lon="-2.19363">
        <ele>15.8</ele>
        <time>2021-08-14T13:34:29Z</time>
      </trkpt>
      <trkpt lat="47.56317" lon="-2.19358">
        <ele>15.8</ele>
        <time>2021-08-14T13:34:31Z</time>
      </trkpt>
      <trkpt lat="47.56315" lon="-2.19354">
        <ele>15.9</ele>
        <time>2021-08-14T13:34:32Z</time>
      </trkpt>
      <trkpt lat="47.5631" lon="-2.19348">
        <ele>16</ele>
        <time>2021-08-14T13:34:34Z</time>
      </trkpt>
      <trkpt lat="47.56305" lon="-2.19342">
        <ele>16</ele>
        <time>2021-08-14T13:34:36Z</time>
      </trkpt>
      <trkpt lat="47.56302" lon="-2.19339">
        <ele>16.1</ele>
        <time>2021-08-14T13:34:37Z</time>
      </trkpt>
      <trkpt lat="47.56298" lon="-2.19334">
        <ele>16.2</ele>
        <time>2021-08-14T13:34:39Z</time>
      </trkpt>
      <trkpt lat="47.56294" lon="-2.19329">
        <ele>16.3</ele>
        <time>2021-08-14T13:34:40Z</time>
      </trkpt>
      <trkpt lat="47.56291" lon="-2.19325">
        <ele>16.4</ele>
        <time>2021-08-14T13:34:41Z</time>
      </trkpt>
      <trkpt lat="47.56286" lon="-2.1932">
        <ele>16.6</ele>
        <time>2021-08-14T13:34:43Z</time>
      </trkpt>
      <trkpt lat="47.56284" lon="-2.19317">
        <ele>16.6</ele>
        <time>2021-08-14T13:34:44Z</time>
      </trkpt>
      <trkpt lat="47.56281" lon="-2.19312">
        <ele>16.7</ele>
        <time>2021-08-14T13:34:46Z</time>
      </trkpt>
      <trkpt lat="47.56278" lon="-2.19308">
        <ele>16.8</ele>
        <time>2021-08-14T13:34:47Z</time>
      </trkpt>
      <trkpt lat="47.56276" lon="-2.19305">
        <ele>16.9</ele>
        <time>2021-08-14T13:34:48Z</time>
      </trkpt>
      <trkpt lat="47.56272" lon="-2.19301">
        <ele>17</ele>
        <time>2021-08-14T13:34:50Z</time>
      </trkpt>
      <trkpt lat="47.56269" lon="-2.19297">
        <ele>17.2</ele>
        <time>2021-08-14T13:34:51Z</time>
      </trkpt>
      <trkpt lat="47.56266" lon="-2.19293">
        <ele>17.3</ele>
        <time>2021-08-14T13:34:53Z</time>
      </trkpt>
      <trkpt lat="47.56262" lon="-2.19289">
        <ele>17.4</ele>
        <time>2021-08-14T13:34:54Z</time>
      </trkpt>
      <trkpt lat="47.56258" lon="-2.19285">
        <ele>17.5</ele>
        <time>2021-08-14T13:34:56Z</time>
      </trkpt>
      <trkpt lat="47.56255" lon="-2.19282">
        <ele>17.6</ele>
        <time>2021-08-14T13:34:57Z</time>
      </trkpt>
      <trkpt lat="47.56251" lon="-2.19279">
        <ele>17.7</ele>
        <time>2021-08-14T13:34:58Z</time>
      </trkpt>
      <trkpt lat="47.56246" lon="-2.19275">
        <ele>17.8</ele>
        <time>2021-08-14T13:35:00Z</time>
      </trkpt>
      <trkpt lat="47.56243" lon="-2.19274">
        <ele>17.9</ele>
        <time>2021-08-14T13:35:01Z</time>
      </trkpt>
      <trkpt lat="47.5624" lon="-2.19274">
        <ele>18</ele>
        <time>2021-08-14T13:35:02Z</time>
      </trkpt>
      <trkpt lat="47.56237" lon="-2.19273">
        <ele>18.1</ele>
        <time>2021-08-14T13:35:03Z</time>
      </trkpt>
      <trkpt lat="47.56234" lon="-2.19273">
        <ele>18.2</ele>
        <time>2021-08-14T13:35:04Z</time>
      </trkpt>
      <trkpt lat="47.56228" lon="-2.19273">
        <ele>18.3</ele>
        <time>2021-08-14T13:35:06Z</time>
      </trkpt>
      <trkpt lat="47.56225" lon="-2.19273">
        <ele>18.4</ele>
        <time>2021-08-14T13:35:07Z</time>
      </trkpt>
      <trkpt lat="47.56223" lon="-2.19274">
        <ele>18.5</ele>
        <time>2021-08-14T13:35:08Z</time>
      </trkpt>
      <trkpt lat="47.56218" lon="-2.19274">
        <ele>18.6</ele>
        <time>2021-08-14T13:35:10Z</time>
      </trkpt>
      <trkpt lat="47.56214" lon="-2.19275">
        <ele>18.6</ele>
        <time>2021-08-14T13:35:11Z</time>
      </trkpt>
      <trkpt lat="47.56211" lon="-2.19276">
        <ele>18.7</ele>
        <time>2021-08-14T13:35:12Z</time>
      </trkpt>
      <trkpt lat="47.56208" lon="-2.19276">
        <ele>18.8</ele>
        <time>2021-08-14T13:35:13Z</time>
      </trkpt>
      <trkpt lat="47.56203" lon="-2.19277">
        <ele>18.8</ele>
        <time>2021-08-14T13:35:15Z</time>
      </trkpt>
      <trkpt lat="47.562" lon="-2.19278">
        <ele>18.9</ele>
        <time>2021-08-14T13:35:16Z</time>
      </trkpt>
      <trkpt lat="47.56196" lon="-2.19278">
        <ele>18.9</ele>
        <time>2021-08-14T13:35:17Z</time>
      </trkpt>
      <trkpt lat="47.56191" lon="-2.19279">
        <ele>18.9</ele>
        <time>2021-08-14T13:35:19Z</time>
      </trkpt>
      <trkpt lat="47.56188" lon="-2.1928">
        <ele>19</ele>
        <time>2021-08-14T13:35:20Z</time>
      </trkpt>
      <trkpt lat="47.56185" lon="-2.19281">
        <ele>19</ele>
        <time>2021-08-14T13:35:21Z</time>
      </trkpt>
      <trkpt lat="47.56182" lon="-2.19281">
        <ele>19</ele>
        <time>2021-08-14T13:35:22Z</time>
      </trkpt>
      <trkpt lat="47.56179" lon="-2.19281">
        <ele>19</ele>
        <time>2021-08-14T13:35:23Z</time>
      </trkpt>
      <trkpt lat="47.56176" lon="-2.19282">
        <ele>19</ele>
        <time>2021-08-14T13:35:24Z</time>
      </trkpt>
      <trkpt lat="47.56171" lon="-2.19284">
        <ele>19.1</ele>
        <time>2021-08-14T13:35:26Z</time>
      </trkpt>
      <trkpt lat="47.56167" lon="-2.19285">
        <ele>19.1</ele>
        <time>2021-08-14T13:35:27Z</time>
      </trkpt>
      <trkpt lat="47.56162" lon="-2.19286">
        <ele>19.1</ele>
        <time>2021-08-14T13:35:29Z</time>
      </trkpt>
      <trkpt lat="47.56156" lon="-2.19287">
        <ele>19.1</ele>
        <time>2021-08-14T13:35:31Z</time>
      </trkpt>
      <trkpt lat="47.56152" lon="-2.19288">
        <ele>19.1</ele>
        <time>2021-08-14T13:35:32Z</time>
      </trkpt>
      <trkpt lat="47.56147" lon="-2.1929">
        <ele>19.1</ele>
        <time>2021-08-14T13:35:34Z</time>
      </trkpt>
      <trkpt lat="47.56143" lon="-2.19291">
        <ele>19.1</ele>
        <time>2021-08-14T13:35:35Z</time>
      </trkpt>
      <trkpt lat="47.5614" lon="-2.19292">
        <ele>19.1</ele>
        <time>2021-08-14T13:35:36Z</time>
      </trkpt>
      <trkpt lat="47.56134" lon="-2.19293">
        <ele>19.1</ele>
        <time>2021-08-14T13:35:38Z</time>
      </trkpt>
      <trkpt lat="47.56129" lon="-2.19295">
        <ele>19.1</ele>
        <time>2021-08-14T13:35:40Z</time>
      </trkpt>
      <trkpt lat="47.56126" lon="-2.19296">
        <ele>19.2</ele>
        <time>2021-08-14T13:35:41Z</time>
      </trkpt>
      <trkpt lat="47.56123" lon="-2.19297">
        <ele>19.2</ele>
        <time>2021-08-14T13:35:42Z</time>
      </trkpt>
      <trkpt lat="47.5612" lon="-2.19298">
        <ele>19.2</ele>
        <time>2021-08-14T13:35:43Z</time>
      </trkpt>
      <trkpt lat="47.56116" lon="-2.19299">
        <ele>19.2</ele>
        <time>2021-08-14T13:35:44Z</time>
      </trkpt>
      <trkpt lat="47.56113" lon="-2.19299">
        <ele>19.2</ele>
        <time>2021-08-14T13:35:45Z</time>
      </trkpt>
      <trkpt lat="47.5611" lon="-2.193">
        <ele>19.2</ele>
        <time>2021-08-14T13:35:46Z</time>
      </trkpt>
      <trkpt lat="47.56105" lon="-2.19301">
        <ele>19.3</ele>
        <time>2021-08-14T13:35:48Z</time>
      </trkpt>
      <trkpt lat="47.56102" lon="-2.19303">
        <ele>19.3</ele>
        <time>2021-08-14T13:35:49Z</time>
      </trkpt>
      <trkpt lat="47.56098" lon="-2.19304">
        <ele>19.3</ele>
        <time>2021-08-14T13:35:50Z</time>
      </trkpt>
      <trkpt lat="47.56095" lon="-2.19305">
        <ele>19.3</ele>
        <time>2021-08-14T13:35:51Z</time>
      </trkpt>
      <trkpt lat="47.56089" lon="-2.19306">
        <ele>19.3</ele>
        <time>2021-08-14T13:35:53Z</time>
      </trkpt>
      <trkpt lat="47.56086" lon="-2.19307">
        <ele>19.3</ele>
        <time>2021-08-14T13:35:55Z</time>
      </trkpt>
      <trkpt lat="47.56082" lon="-2.19308">
        <ele>19.4</ele>
        <time>2021-08-14T13:35:56Z</time>
      </trkpt>
      <trkpt lat="47.56078" lon="-2.1931">
        <ele>19.4</ele>
        <time>2021-08-14T13:35:57Z</time>
      </trkpt>
      <trkpt lat="47.56075" lon="-2.19311">
        <ele>19.4</ele>
        <time>2021-08-14T13:35:58Z</time>
      </trkpt>
      <trkpt lat="47.56069" lon="-2.19313">
        <ele>19.4</ele>
        <time>2021-08-14T13:36:00Z</time>
      </trkpt>
      <trkpt lat="47.56063" lon="-2.19314">
        <ele>19.4</ele>
        <time>2021-08-14T13:36:02Z</time>
      </trkpt>
      <trkpt lat="47.56058" lon="-2.19316">
        <ele>19.4</ele>
        <time>2021-08-14T13:36:04Z</time>
      </trkpt>
      <trkpt lat="47.56055" lon="-2.19317">
        <ele>19.4</ele>
        <time>2021-08-14T13:36:05Z</time>
      </trkpt>
      <trkpt lat="47.56051" lon="-2.19319">
        <ele>19.4</ele>
        <time>2021-08-14T13:36:07Z</time>
      </trkpt>
      <trkpt lat="47.56046" lon="-2.1932">
        <ele>19.5</ele>
        <time>2021-08-14T13:36:08Z</time>
      </trkpt>
      <trkpt lat="47.56041" lon="-2.1932">
        <ele>19.5</ele>
        <time>2021-08-14T13:36:10Z</time>
      </trkpt>
      <trkpt lat="47.56038" lon="-2.19322">
        <ele>19.5</ele>
        <time>2021-08-14T13:36:11Z</time>
      </trkpt>
      <trkpt lat="47.56032" lon="-2.19323">
        <ele>19.5</ele>
        <time>2021-08-14T13:36:13Z</time>
      </trkpt>
      <trkpt lat="47.56026" lon="-2.19325">
        <ele>19.6</ele>
        <time>2021-08-14T13:36:15Z</time>
      </trkpt>
      <trkpt lat="47.5602" lon="-2.19327">
        <ele>19.7</ele>
        <time>2021-08-14T13:36:17Z</time>
      </trkpt>
      <trkpt lat="47.56015" lon="-2.19329">
        <ele>19.8</ele>
        <time>2021-08-14T13:36:19Z</time>
      </trkpt>
      <trkpt lat="47.56012" lon="-2.19329">
        <ele>19.8</ele>
        <time>2021-08-14T13:36:20Z</time>
      </trkpt>
      <trkpt lat="47.56008" lon="-2.19329">
        <ele>19.9</ele>
        <time>2021-08-14T13:36:21Z</time>
      </trkpt>
      <trkpt lat="47.56003" lon="-2.19331">
        <ele>20</ele>
        <time>2021-08-14T13:36:23Z</time>
      </trkpt>
      <trkpt lat="47.55998" lon="-2.19333">
        <ele>20.1</ele>
        <time>2021-08-14T13:36:25Z</time>
      </trkpt>
      <trkpt lat="47.55995" lon="-2.19334">
        <ele>20.2</ele>
        <time>2021-08-14T13:36:26Z</time>
      </trkpt>
      <trkpt lat="47.55992" lon="-2.19334">
        <ele>20.2</ele>
        <time>2021-08-14T13:36:27Z</time>
      </trkpt>
      <trkpt lat="47.55989" lon="-2.19335">
        <ele>20.3</ele>
        <time>2021-08-14T13:36:29Z</time>
      </trkpt>
      <trkpt lat="47.55985" lon="-2.19336">
        <ele>20.4</ele>
        <time>2021-08-14T13:36:30Z</time>
      </trkpt>
      <trkpt lat="47.55982" lon="-2.19337">
        <ele>20.5</ele>
        <time>2021-08-14T13:36:31Z</time>
      </trkpt>
      <trkpt lat="47.55981" lon="-2.19337">
        <ele>20.5</ele>
        <time>2021-08-14T13:36:32Z</time>
      </trkpt>
      <trkpt lat="47.55976" lon="-2.19338">
        <ele>20.6</ele>
        <time>2021-08-14T13:36:34Z</time>
      </trkpt>
      <trkpt lat="47.55974" lon="-2.19339">
        <ele>20.7</ele>
        <time>2021-08-14T13:36:35Z</time>
      </trkpt>
      <trkpt lat="47.5597" lon="-2.1934">
        <ele>20.8</ele>
        <time>2021-08-14T13:36:36Z</time>
      </trkpt>
      <trkpt lat="47.55969" lon="-2.1934">
        <ele>20.8</ele>
        <time>2021-08-14T13:36:37Z</time>
      </trkpt>
      <trkpt lat="47.55964" lon="-2.19341">
        <ele>21</ele>
        <time>2021-08-14T13:36:39Z</time>
      </trkpt>
      <trkpt lat="47.55961" lon="-2.19342">
        <ele>21</ele>
        <time>2021-08-14T13:36:40Z</time>
      </trkpt>
      <trkpt lat="47.5596" lon="-2.19343">
        <ele>21.1</ele>
        <time>2021-08-14T13:36:41Z</time>
      </trkpt>
      <trkpt lat="47.55955" lon="-2.19344">
        <ele>21.2</ele>
        <time>2021-08-14T13:36:43Z</time>
      </trkpt>
      <trkpt lat="47.55951" lon="-2.19345">
        <ele>21.3</ele>
        <time>2021-08-14T13:36:45Z</time>
      </trkpt>
      <trkpt lat="47.55947" lon="-2.19345">
        <ele>21.4</ele>
        <time>2021-08-14T13:36:46Z</time>
      </trkpt>
      <trkpt lat="47.55945" lon="-2.19346">
        <ele>21.4</ele>
        <time>2021-08-14T13:36:47Z</time>
      </trkpt>
      <trkpt lat="47.5594" lon="-2.19347">
        <ele>21.5</ele>
        <time>2021-08-14T13:36:49Z</time>
      </trkpt>
      <trkpt lat="47.55938" lon="-2.19348">
        <ele>21.6</ele>
        <time>2021-08-14T13:36:50Z</time>
      </trkpt>
      <trkpt lat="47.55933" lon="-2.19349">
        <ele>21.7</ele>
        <time>2021-08-14T13:36:52Z</time>
      </trkpt>
      <trkpt lat="47.55929" lon="-2.19351">
        <ele>21.8</ele>
        <time>2021-08-14T13:36:54Z</time>
      </trkpt>
      <trkpt lat="47.55925" lon="-2.19352">
        <ele>22</ele>
        <time>2021-08-14T13:36:55Z</time>
      </trkpt>
      <trkpt lat="47.55921" lon="-2.19354">
        <ele>22.2</ele>
        <time>2021-08-14T13:36:57Z</time>
      </trkpt>
      <trkpt lat="47.55918" lon="-2.19354">
        <ele>22.3</ele>
        <time>2021-08-14T13:36:58Z</time>
      </trkpt>
      <trkpt lat="47.55914" lon="-2.19355">
        <ele>22.4</ele>
        <time>2021-08-14T13:36:59Z</time>
      </trkpt>
      <trkpt lat="47.55913" lon="-2.19355">
        <ele>22.5</ele>
        <time>2021-08-14T13:37:00Z</time>
      </trkpt>
      <trkpt lat="47.55909" lon="-2.19356">
        <ele>22.7</ele>
        <time>2021-08-14T13:37:02Z</time>
      </trkpt>
      <trkpt lat="47.55906" lon="-2.19357">
        <ele>22.9</ele>
        <time>2021-08-14T13:37:03Z</time>
      </trkpt>
      <trkpt lat="47.55905" lon="-2.19357">
        <ele>23</ele>
        <time>2021-08-14T13:37:04Z</time>
      </trkpt>
      <trkpt lat="47.55903" lon="-2.19358">
        <ele>23.1</ele>
        <time>2021-08-14T13:37:05Z</time>
      </trkpt>
      <trkpt lat="47.55899" lon="-2.19359">
        <ele>23.3</ele>
        <time>2021-08-14T13:37:07Z</time>
      </trkpt>
      <trkpt lat="47.55897" lon="-2.1936">
        <ele>23.4</ele>
        <time>2021-08-14T13:37:08Z</time>
      </trkpt>
      <trkpt lat="47.55894" lon="-2.1936">
        <ele>23.6</ele>
        <time>2021-08-14T13:37:10Z</time>
      </trkpt>
      <trkpt lat="47.55893" lon="-2.19361">
        <ele>23.7</ele>
        <time>2021-08-14T13:37:11Z</time>
      </trkpt>
      <trkpt lat="47.55891" lon="-2.19361">
        <ele>23.8</ele>
        <time>2021-08-14T13:37:13Z</time>
      </trkpt>
      <trkpt lat="47.55889" lon="-2.19362">
        <ele>23.9</ele>
        <time>2021-08-14T13:37:14Z</time>
      </trkpt>
      <trkpt lat="47.55887" lon="-2.19362">
        <ele>24.1</ele>
        <time>2021-08-14T13:37:16Z</time>
      </trkpt>
      <trkpt lat="47.55884" lon="-2.19364">
        <ele>24.2</ele>
        <time>2021-08-14T13:37:18Z</time>
      </trkpt>
      <trkpt lat="47.55883" lon="-2.19365">
        <ele>24.3</ele>
        <time>2021-08-14T13:37:19Z</time>
      </trkpt>
      <trkpt lat="47.5588" lon="-2.19366">
        <ele>24.5</ele>
        <time>2021-08-14T13:37:21Z</time>
      </trkpt>
      <trkpt lat="47.55879" lon="-2.19366">
        <ele>24.5</ele>
        <time>2021-08-14T13:37:22Z</time>
      </trkpt>
      <trkpt lat="47.55876" lon="-2.19367">
        <ele>24.7</ele>
        <time>2021-08-14T13:37:24Z</time>
      </trkpt>
      <trkpt lat="47.55875" lon="-2.19367">
        <ele>24.8</ele>
        <time>2021-08-14T13:37:25Z</time>
      </trkpt>
      <trkpt lat="47.55874" lon="-2.19367">
        <ele>24.9</ele>
        <time>2021-08-14T13:37:26Z</time>
      </trkpt>
      <trkpt lat="47.55871" lon="-2.19368">
        <ele>25</ele>
        <time>2021-08-14T13:37:28Z</time>
      </trkpt>
      <trkpt lat="47.55868" lon="-2.19368">
        <ele>25.2</ele>
        <time>2021-08-14T13:37:30Z</time>
      </trkpt>
      <trkpt lat="47.55867" lon="-2.19369">
        <ele>25.3</ele>
        <time>2021-08-14T13:37:31Z</time>
      </trkpt>
      <trkpt lat="47.55865" lon="-2.19369">
        <ele>25.4</ele>
        <time>2021-08-14T13:37:32Z</time>
      </trkpt>
      <trkpt lat="47.55863" lon="-2.1937">
        <ele>25.6</ele>
        <time>2021-08-14T13:37:34Z</time>
      </trkpt>
      <trkpt lat="47.55861" lon="-2.19371">
        <ele>25.7</ele>
        <time>2021-08-14T13:37:35Z</time>
      </trkpt>
      <trkpt lat="47.5586" lon="-2.19372">
        <ele>25.8</ele>
        <time>2021-08-14T13:37:36Z</time>
      </trkpt>
      <trkpt lat="47.55857" lon="-2.19372">
        <ele>26</ele>
        <time>2021-08-14T13:37:38Z</time>
      </trkpt>
      <trkpt lat="47.55856" lon="-2.19372">
        <ele>26.1</ele>
        <time>2021-08-14T13:37:39Z</time>
      </trkpt>
      <trkpt lat="47.55852" lon="-2.19374">
        <ele>26.3</ele>
        <time>2021-08-14T13:37:41Z</time>
      </trkpt>
      <trkpt lat="47.55849" lon="-2.19375">
        <ele>26.5</ele>
        <time>2021-08-14T13:37:43Z</time>
      </trkpt>
      <trkpt lat="47.55846" lon="-2.19376">
        <ele>26.8</ele>
        <time>2021-08-14T13:37:45Z</time>
      </trkpt>
      <trkpt lat="47.55844" lon="-2.19376">
        <ele>26.8</ele>
        <time>2021-08-14T13:37:46Z</time>
      </trkpt>
      <trkpt lat="47.55843" lon="-2.19377">
        <ele>27</ele>
        <time>2021-08-14T13:37:47Z</time>
      </trkpt>
      <trkpt lat="47.55841" lon="-2.19378">
        <ele>27.1</ele>
        <time>2021-08-14T13:37:48Z</time>
      </trkpt>
      <trkpt lat="47.55838" lon="-2.19379">
        <ele>27.3</ele>
        <time>2021-08-14T13:37:50Z</time>
      </trkpt>
      <trkpt lat="47.55836" lon="-2.1938">
        <ele>27.4</ele>
        <time>2021-08-14T13:37:51Z</time>
      </trkpt>
      <trkpt lat="47.55834" lon="-2.1938">
        <ele>27.5</ele>
        <time>2021-08-14T13:37:52Z</time>
      </trkpt>
      <trkpt lat="47.55831" lon="-2.19382">
        <ele>27.8</ele>
        <time>2021-08-14T13:37:54Z</time>
      </trkpt>
      <trkpt lat="47.55828" lon="-2.19383">
        <ele>28</ele>
        <time>2021-08-14T13:37:56Z</time>
      </trkpt>
      <trkpt lat="47.55825" lon="-2.19384">
        <ele>28.2</ele>
        <time>2021-08-14T13:37:58Z</time>
      </trkpt>
      <trkpt lat="47.55821" lon="-2.19385">
        <ele>28.5</ele>
        <time>2021-08-14T13:38:00Z</time>
      </trkpt>
      <trkpt lat="47.5582" lon="-2.19386">
        <ele>28.6</ele>
        <time>2021-08-14T13:38:01Z</time>
      </trkpt>
      <trkpt lat="47.55817" lon="-2.19388">
        <ele>28.8</ele>
        <time>2021-08-14T13:38:03Z</time>
      </trkpt>
      <trkpt lat="47.55815" lon="-2.19388">
        <ele>28.9</ele>
        <time>2021-08-14T13:38:04Z</time>
      </trkpt>
      <trkpt lat="47.55812" lon="-2.1939">
        <ele>29.2</ele>
        <time>2021-08-14T13:38:06Z</time>
      </trkpt>
      <trkpt lat="47.5581" lon="-2.19391">
        <ele>29.3</ele>
        <time>2021-08-14T13:38:07Z</time>
      </trkpt>
      <trkpt lat="47.55809" lon="-2.19392">
        <ele>29.4</ele>
        <time>2021-08-14T13:38:08Z</time>
      </trkpt>
      <trkpt lat="47.55805" lon="-2.19393">
        <ele>29.6</ele>
        <time>2021-08-14T13:38:10Z</time>
      </trkpt>
      <trkpt lat="47.55804" lon="-2.19394">
        <ele>29.7</ele>
        <time>2021-08-14T13:38:11Z</time>
      </trkpt>
      <trkpt lat="47.55801" lon="-2.19396">
        <ele>30</ele>
        <time>2021-08-14T13:38:13Z</time>
      </trkpt>
      <trkpt lat="47.55799" lon="-2.19396">
        <ele>30.1</ele>
        <time>2021-08-14T13:38:14Z</time>
      </trkpt>
      <trkpt lat="47.55796" lon="-2.19397">
        <ele>30.3</ele>
        <time>2021-08-14T13:38:16Z</time>
      </trkpt>
      <trkpt lat="47.55793" lon="-2.19398">
        <ele>30.5</ele>
        <time>2021-08-14T13:38:18Z</time>
      </trkpt>
      <trkpt lat="47.55791" lon="-2.19398">
        <ele>30.6</ele>
        <time>2021-08-14T13:38:19Z</time>
      </trkpt>
      <trkpt lat="47.5579" lon="-2.19399">
        <ele>30.7</ele>
        <time>2021-08-14T13:38:20Z</time>
      </trkpt>
      <trkpt lat="47.55786" lon="-2.194">
        <ele>30.9</ele>
        <time>2021-08-14T13:38:22Z</time>
      </trkpt>
      <trkpt lat="47.55783" lon="-2.194">
        <ele>31.1</ele>
        <time>2021-08-14T13:38:24Z</time>
      </trkpt>
      <trkpt lat="47.55779" lon="-2.19399">
        <ele>31.3</ele>
        <time>2021-08-14T13:38:26Z</time>
      </trkpt>
      <trkpt lat="47.55778" lon="-2.19399">
        <ele>31.4</ele>
        <time>2021-08-14T13:38:27Z</time>
      </trkpt>
      <trkpt lat="47.55774" lon="-2.19399">
        <ele>31.6</ele>
        <time>2021-08-14T13:38:29Z</time>
      </trkpt>
      <trkpt lat="47.55773" lon="-2.19399">
        <ele>31.7</ele>
        <time>2021-08-14T13:38:30Z</time>
      </trkpt>
      <trkpt lat="47.55769" lon="-2.19397">
        <ele>31.9</ele>
        <time>2021-08-14T13:38:32Z</time>
      </trkpt>
      <trkpt lat="47.55768" lon="-2.19396">
        <ele>32</ele>
        <time>2021-08-14T13:38:33Z</time>
      </trkpt>
      <trkpt lat="47.55764" lon="-2.19395">
        <ele>32.2</ele>
        <time>2021-08-14T13:38:35Z</time>
      </trkpt>
      <trkpt lat="47.55762" lon="-2.19394">
        <ele>32.2</ele>
        <time>2021-08-14T13:38:36Z</time>
      </trkpt>
      <trkpt lat="47.55759" lon="-2.19393">
        <ele>32.4</ele>
        <time>2021-08-14T13:38:38Z</time>
      </trkpt>
      <trkpt lat="47.55756" lon="-2.19392">
        <ele>32.5</ele>
        <time>2021-08-14T13:38:40Z</time>
      </trkpt>
      <trkpt lat="47.55753" lon="-2.1939">
        <ele>32.7</ele>
        <time>2021-08-14T13:38:42Z</time>
      </trkpt>
      <trkpt lat="47.55749" lon="-2.19387">
        <ele>32.8</ele>
        <time>2021-08-14T13:38:44Z</time>
      </trkpt>
      <trkpt lat="47.55746" lon="-2.19385">
        <ele>32.9</ele>
        <time>2021-08-14T13:38:46Z</time>
      </trkpt>
      <trkpt lat="47.55745" lon="-2.19384">
        <ele>33</ele>
        <time>2021-08-14T13:38:47Z</time>
      </trkpt>
      <trkpt lat="47.55742" lon="-2.19382">
        <ele>33</ele>
        <time>2021-08-14T13:38:49Z</time>
      </trkpt>
      <trkpt lat="47.5574" lon="-2.19381">
        <ele>33.1</ele>
        <time>2021-08-14T13:38:50Z</time>
      </trkpt>
      <trkpt lat="47.55737" lon="-2.19378">
        <ele>33.2</ele>
        <time>2021-08-14T13:38:52Z</time>
      </trkpt>
      <trkpt lat="47.55736" lon="-2.19377">
        <ele>33.2</ele>
        <time>2021-08-14T13:38:53Z</time>
      </trkpt>
      <trkpt lat="47.55734" lon="-2.19375">
        <ele>33.2</ele>
        <time>2021-08-14T13:38:54Z</time>
      </trkpt>
      <trkpt lat="47.55732" lon="-2.19372">
        <ele>33.2</ele>
        <time>2021-08-14T13:38:55Z</time>
      </trkpt>
      <trkpt lat="47.55731" lon="-2.19371">
        <ele>33.3</ele>
        <time>2021-08-14T13:38:56Z</time>
      </trkpt>
      <trkpt lat="47.55728" lon="-2.19368">
        <ele>33.3</ele>
        <time>2021-08-14T13:38:58Z</time>
      </trkpt>
      <trkpt lat="47.55726" lon="-2.19366">
        <ele>33.3</ele>
        <time>2021-08-14T13:38:59Z</time>
      </trkpt>
      <trkpt lat="47.55724" lon="-2.19362">
        <ele>33.3</ele>
        <time>2021-08-14T13:39:01Z</time>
      </trkpt>
      <trkpt lat="47.55722" lon="-2.19359">
        <ele>33.3</ele>
        <time>2021-08-14T13:39:03Z</time>
      </trkpt>
      <trkpt lat="47.55721" lon="-2.19358">
        <ele>33.3</ele>
        <time>2021-08-14T13:39:04Z</time>
      </trkpt>
      <trkpt lat="47.55721" lon="-2.19358">
        <ele>33.3</ele>
        <time>2021-08-14T13:39:06Z</time>
      </trkpt>
      <trkpt lat="47.55722" lon="-2.19359">
        <ele>33.3</ele>
        <time>2021-08-14T13:39:08Z</time>
      </trkpt>
      <trkpt lat="47.55722" lon="-2.19359">
        <ele>33.3</ele>
        <time>2021-08-14T13:39:10Z</time>
      </trkpt>
      <trkpt lat="47.55722" lon="-2.19359">
        <ele>33.3</ele>
        <time>2021-08-14T13:39:11Z</time>
      </trkpt>
      <trkpt lat="47.55722" lon="-2.19359">
        <ele>33.3</ele>
        <time>2021-08-14T13:39:12Z</time>
      </trkpt>
      <trkpt lat="47.55722" lon="-2.19359">
        <ele>33.3</ele>
        <time>2021-08-14T13:39:14Z</time>
      </trkpt>
      <trkpt lat="47.5572" lon="-2.19353">
        <ele>33.3</ele>
        <time>2021-08-14T13:39:45Z</time>
      </trkpt>
      <trkpt lat="47.55717" lon="-2.19349">
        <ele>33.2</ele>
        <time>2021-08-14T13:39:47Z</time>
      </trkpt>
      <trkpt lat="47.55716" lon="-2.19345">
        <ele>33.2</ele>
        <time>2021-08-14T13:39:48Z</time>
      </trkpt>
      <trkpt lat="47.55715" lon="-2.19344">
        <ele>33.1</ele>
        <time>2021-08-14T13:39:49Z</time>
      </trkpt>
      <trkpt lat="47.55714" lon="-2.19339">
        <ele>33</ele>
        <time>2021-08-14T13:39:51Z</time>
      </trkpt>
      <trkpt lat="47.55713" lon="-2.19336">
        <ele>33</ele>
        <time>2021-08-14T13:39:52Z</time>
      </trkpt>
      <trkpt lat="47.55711" lon="-2.19331">
        <ele>32.8</ele>
        <time>2021-08-14T13:39:54Z</time>
      </trkpt>
      <trkpt lat="47.5571" lon="-2.19327">
        <ele>32.7</ele>
        <time>2021-08-14T13:39:55Z</time>
      </trkpt>
      <trkpt lat="47.55708" lon="-2.19318">
        <ele>32.4</ele>
        <time>2021-08-14T13:39:57Z</time>
      </trkpt>
      <trkpt lat="47.55707" lon="-2.19313">
        <ele>32.2</ele>
        <time>2021-08-14T13:39:58Z</time>
      </trkpt>
      <trkpt lat="47.55706" lon="-2.19308">
        <ele>32</ele>
        <time>2021-08-14T13:39:59Z</time>
      </trkpt>
      <trkpt lat="47.55703" lon="-2.193">
        <ele>31.6</ele>
        <time>2021-08-14T13:40:00Z</time>
      </trkpt>
      <trkpt lat="47.55701" lon="-2.19288">
        <ele>31.2</ele>
        <time>2021-08-14T13:40:02Z</time>
      </trkpt>
      <trkpt lat="47.55699" lon="-2.19276">
        <ele>30.6</ele>
        <time>2021-08-14T13:40:03Z</time>
      </trkpt>
      <trkpt lat="47.55696" lon="-2.19267">
        <ele>30.3</ele>
        <time>2021-08-14T13:40:05Z</time>
      </trkpt>
      <trkpt lat="47.55694" lon="-2.19259">
        <ele>29.9</ele>
        <time>2021-08-14T13:40:06Z</time>
      </trkpt>
      <trkpt lat="47.5569" lon="-2.1924">
        <ele>29</ele>
        <time>2021-08-14T13:40:08Z</time>
      </trkpt>
      <trkpt lat="47.55688" lon="-2.1923">
        <ele>28.6</ele>
        <time>2021-08-14T13:40:09Z</time>
      </trkpt>
      <trkpt lat="47.55686" lon="-2.1922">
        <ele>28.2</ele>
        <time>2021-08-14T13:40:10Z</time>
      </trkpt>
      <trkpt lat="47.55681" lon="-2.19199">
        <ele>27.4</ele>
        <time>2021-08-14T13:40:12Z</time>
      </trkpt>
      <trkpt lat="47.55677" lon="-2.19178">
        <ele>26.5</ele>
        <time>2021-08-14T13:40:14Z</time>
      </trkpt>
      <trkpt lat="47.55674" lon="-2.19168">
        <ele>26.1</ele>
        <time>2021-08-14T13:40:15Z</time>
      </trkpt>
      <trkpt lat="47.5567" lon="-2.19146">
        <ele>25.2</ele>
        <time>2021-08-14T13:40:17Z</time>
      </trkpt>
      <trkpt lat="47.55665" lon="-2.19123">
        <ele>24.4</ele>
        <time>2021-08-14T13:40:19Z</time>
      </trkpt>
      <trkpt lat="47.55663" lon="-2.19112">
        <ele>23.9</ele>
        <time>2021-08-14T13:40:20Z</time>
      </trkpt>
      <trkpt lat="47.5566" lon="-2.19089">
        <ele>23</ele>
        <time>2021-08-14T13:40:22Z</time>
      </trkpt>
      <trkpt lat="47.55658" lon="-2.19077">
        <ele>22.5</ele>
        <time>2021-08-14T13:40:23Z</time>
      </trkpt>
      <trkpt lat="47.55657" lon="-2.19065">
        <ele>22.1</ele>
        <time>2021-08-14T13:40:24Z</time>
      </trkpt>
      <trkpt lat="47.55655" lon="-2.19053">
        <ele>21.7</ele>
        <time>2021-08-14T13:40:25Z</time>
      </trkpt>
      <trkpt lat="47.5565" lon="-2.19028">
        <ele>21.1</ele>
        <time>2021-08-14T13:40:27Z</time>
      </trkpt>
      <trkpt lat="47.55646" lon="-2.19007">
        <ele>21</ele>
        <time>2021-08-14T13:40:29Z</time>
      </trkpt>
      <trkpt lat="47.55643" lon="-2.18997">
        <ele>21.1</ele>
        <time>2021-08-14T13:40:30Z</time>
      </trkpt>
      <trkpt lat="47.55637" lon="-2.18979">
        <ele>21.5</ele>
        <time>2021-08-14T13:40:32Z</time>
      </trkpt>
      <trkpt lat="47.55631" lon="-2.18965">
        <ele>22</ele>
        <time>2021-08-14T13:40:34Z</time>
      </trkpt>
      <trkpt lat="47.55627" lon="-2.18956">
        <ele>22.5</ele>
        <time>2021-08-14T13:40:36Z</time>
      </trkpt>
      <trkpt lat="47.55625" lon="-2.18952">
        <ele>22.7</ele>
        <time>2021-08-14T13:40:37Z</time>
      </trkpt>
      <trkpt lat="47.55624" lon="-2.18951">
        <ele>22.8</ele>
        <time>2021-08-14T13:40:38Z</time>
      </trkpt>
      <trkpt lat="47.55622" lon="-2.18947">
        <ele>23</ele>
        <time>2021-08-14T13:40:40Z</time>
      </trkpt>
      <trkpt lat="47.5562" lon="-2.18944">
        <ele>23.2</ele>
        <time>2021-08-14T13:40:41Z</time>
      </trkpt>
      <trkpt lat="47.55619" lon="-2.18941">
        <ele>23.4</ele>
        <time>2021-08-14T13:40:43Z</time>
      </trkpt>
      <trkpt lat="47.55618" lon="-2.18939">
        <ele>23.5</ele>
        <time>2021-08-14T13:40:44Z</time>
      </trkpt>
      <trkpt lat="47.55616" lon="-2.18937">
        <ele>23.6</ele>
        <time>2021-08-14T13:40:45Z</time>
      </trkpt>
      <trkpt lat="47.55614" lon="-2.18933">
        <ele>23.9</ele>
        <time>2021-08-14T13:40:47Z</time>
      </trkpt>
      <trkpt lat="47.55611" lon="-2.18928">
        <ele>24.2</ele>
        <time>2021-08-14T13:40:49Z</time>
      </trkpt>
      <trkpt lat="47.5561" lon="-2.18926">
        <ele>24.3</ele>
        <time>2021-08-14T13:40:50Z</time>
      </trkpt>
      <trkpt lat="47.55607" lon="-2.18922">
        <ele>24.6</ele>
        <time>2021-08-14T13:40:52Z</time>
      </trkpt>
      <trkpt lat="47.55605" lon="-2.18917">
        <ele>24.9</ele>
        <time>2021-08-14T13:40:54Z</time>
      </trkpt>
      <trkpt lat="47.55602" lon="-2.18914">
        <ele>25.1</ele>
        <time>2021-08-14T13:40:55Z</time>
      </trkpt>
      <trkpt lat="47.55602" lon="-2.18913">
        <ele>25.2</ele>
        <time>2021-08-14T13:40:56Z</time>
      </trkpt>
      <trkpt lat="47.55599" lon="-2.18909">
        <ele>25.5</ele>
        <time>2021-08-14T13:40:58Z</time>
      </trkpt>
      <trkpt lat="47.55596" lon="-2.18904">
        <ele>25.8</ele>
        <time>2021-08-14T13:41:00Z</time>
      </trkpt>
      <trkpt lat="47.55594" lon="-2.189">
        <ele>26.1</ele>
        <time>2021-08-14T13:41:01Z</time>
      </trkpt>
      <trkpt lat="47.55593" lon="-2.18899">
        <ele>26.1</ele>
        <time>2021-08-14T13:41:02Z</time>
      </trkpt>
      <trkpt lat="47.5559" lon="-2.18894">
        <ele>26.5</ele>
        <time>2021-08-14T13:41:04Z</time>
      </trkpt>
      <trkpt lat="47.55589" lon="-2.18892">
        <ele>26.6</ele>
        <time>2021-08-14T13:41:05Z</time>
      </trkpt>
      <trkpt lat="47.55585" lon="-2.18888">
        <ele>26.9</ele>
        <time>2021-08-14T13:41:07Z</time>
      </trkpt>
      <trkpt lat="47.55581" lon="-2.18882">
        <ele>27.3</ele>
        <time>2021-08-14T13:41:09Z</time>
      </trkpt>
      <trkpt lat="47.55579" lon="-2.18879">
        <ele>27.6</ele>
        <time>2021-08-14T13:41:11Z</time>
      </trkpt>
      <trkpt lat="47.55576" lon="-2.18876">
        <ele>27.8</ele>
        <time>2021-08-14T13:41:12Z</time>
      </trkpt>
      <trkpt lat="47.55576" lon="-2.18875">
        <ele>27.9</ele>
        <time>2021-08-14T13:41:13Z</time>
      </trkpt>
      <trkpt lat="47.55573" lon="-2.18872">
        <ele>28.1</ele>
        <time>2021-08-14T13:41:15Z</time>
      </trkpt>
      <trkpt lat="47.55572" lon="-2.1887">
        <ele>28.2</ele>
        <time>2021-08-14T13:41:16Z</time>
      </trkpt>
      <trkpt lat="47.5557" lon="-2.18867">
        <ele>28.4</ele>
        <time>2021-08-14T13:41:18Z</time>
      </trkpt>
      <trkpt lat="47.55568" lon="-2.18866">
        <ele>28.5</ele>
        <time>2021-08-14T13:41:19Z</time>
      </trkpt>
      <trkpt lat="47.55566" lon="-2.18863">
        <ele>28.7</ele>
        <time>2021-08-14T13:41:21Z</time>
      </trkpt>
      <trkpt lat="47.55564" lon="-2.18861">
        <ele>28.9</ele>
        <time>2021-08-14T13:41:22Z</time>
      </trkpt>
      <trkpt lat="47.55561" lon="-2.18858">
        <ele>29.1</ele>
        <time>2021-08-14T13:41:24Z</time>
      </trkpt>
      <trkpt lat="47.55558" lon="-2.18854">
        <ele>29.4</ele>
        <time>2021-08-14T13:41:26Z</time>
      </trkpt>
      <trkpt lat="47.55557" lon="-2.18852">
        <ele>29.5</ele>
        <time>2021-08-14T13:41:27Z</time>
      </trkpt>
      <trkpt lat="47.55554" lon="-2.18848">
        <ele>29.7</ele>
        <time>2021-08-14T13:41:29Z</time>
      </trkpt>
      <trkpt lat="47.55551" lon="-2.18844">
        <ele>30</ele>
        <time>2021-08-14T13:41:31Z</time>
      </trkpt>
      <trkpt lat="47.55549" lon="-2.18843">
        <ele>30.1</ele>
        <time>2021-08-14T13:41:32Z</time>
      </trkpt>
      <trkpt lat="47.55546" lon="-2.18839">
        <ele>30.3</ele>
        <time>2021-08-14T13:41:34Z</time>
      </trkpt>
      <trkpt lat="47.55543" lon="-2.18836">
        <ele>30.5</ele>
        <time>2021-08-14T13:41:36Z</time>
      </trkpt>
      <trkpt lat="47.5554" lon="-2.18832">
        <ele>30.7</ele>
        <time>2021-08-14T13:41:38Z</time>
      </trkpt>
      <trkpt lat="47.55537" lon="-2.18829">
        <ele>31</ele>
        <time>2021-08-14T13:41:40Z</time>
      </trkpt>
      <trkpt lat="47.55534" lon="-2.18825">
        <ele>31.2</ele>
        <time>2021-08-14T13:41:42Z</time>
      </trkpt>
      <trkpt lat="47.55532" lon="-2.18823">
        <ele>31.3</ele>
        <time>2021-08-14T13:41:43Z</time>
      </trkpt>
      <trkpt lat="47.55529" lon="-2.18819">
        <ele>31.5</ele>
        <time>2021-08-14T13:41:45Z</time>
      </trkpt>
      <trkpt lat="47.55526" lon="-2.18816">
        <ele>31.7</ele>
        <time>2021-08-14T13:41:47Z</time>
      </trkpt>
      <trkpt lat="47.55525" lon="-2.18815">
        <ele>31.8</ele>
        <time>2021-08-14T13:41:48Z</time>
      </trkpt>
      <trkpt lat="47.55522" lon="-2.18811">
        <ele>32</ele>
        <time>2021-08-14T13:41:50Z</time>
      </trkpt>
      <trkpt lat="47.55518" lon="-2.18807">
        <ele>32.2</ele>
        <time>2021-08-14T13:41:52Z</time>
      </trkpt>
      <trkpt lat="47.55517" lon="-2.18805">
        <ele>32.3</ele>
        <time>2021-08-14T13:41:53Z</time>
      </trkpt>
      <trkpt lat="47.55514" lon="-2.18801">
        <ele>32.5</ele>
        <time>2021-08-14T13:41:55Z</time>
      </trkpt>
      <trkpt lat="47.55511" lon="-2.18798">
        <ele>32.7</ele>
        <time>2021-08-14T13:41:57Z</time>
      </trkpt>
      <trkpt lat="47.55508" lon="-2.18794">
        <ele>32.9</ele>
        <time>2021-08-14T13:41:59Z</time>
      </trkpt>
      <trkpt lat="47.55507" lon="-2.18792">
        <ele>33</ele>
        <time>2021-08-14T13:42:00Z</time>
      </trkpt>
      <trkpt lat="47.55505" lon="-2.18788">
        <ele>33.2</ele>
        <time>2021-08-14T13:42:02Z</time>
      </trkpt>
      <trkpt lat="47.55503" lon="-2.18784">
        <ele>33.3</ele>
        <time>2021-08-14T13:42:03Z</time>
      </trkpt>
      <trkpt lat="47.55502" lon="-2.18783">
        <ele>33.4</ele>
        <time>2021-08-14T13:42:04Z</time>
      </trkpt>
      <trkpt lat="47.555" lon="-2.18779">
        <ele>33.5</ele>
        <time>2021-08-14T13:42:06Z</time>
      </trkpt>
      <trkpt lat="47.55499" lon="-2.18777">
        <ele>33.6</ele>
        <time>2021-08-14T13:42:07Z</time>
      </trkpt>
      <trkpt lat="47.55497" lon="-2.18772">
        <ele>33.8</ele>
        <time>2021-08-14T13:42:09Z</time>
      </trkpt>
      <trkpt lat="47.55496" lon="-2.18769">
        <ele>33.9</ele>
        <time>2021-08-14T13:42:10Z</time>
      </trkpt>
      <trkpt lat="47.55494" lon="-2.18765">
        <ele>34.1</ele>
        <time>2021-08-14T13:42:12Z</time>
      </trkpt>
      <trkpt lat="47.55493" lon="-2.18762">
        <ele>34.2</ele>
        <time>2021-08-14T13:42:13Z</time>
      </trkpt>
      <trkpt lat="47.55492" lon="-2.18756">
        <ele>34.4</ele>
        <time>2021-08-14T13:42:15Z</time>
      </trkpt>
      <trkpt lat="47.55491" lon="-2.18753">
        <ele>34.5</ele>
        <time>2021-08-14T13:42:16Z</time>
      </trkpt>
      <trkpt lat="47.5549" lon="-2.18748">
        <ele>34.7</ele>
        <time>2021-08-14T13:42:18Z</time>
      </trkpt>
      <trkpt lat="47.5549" lon="-2.18745">
        <ele>34.8</ele>
        <time>2021-08-14T13:42:19Z</time>
      </trkpt>
      <trkpt lat="47.55489" lon="-2.18739">
        <ele>35.1</ele>
        <time>2021-08-14T13:42:21Z</time>
      </trkpt>
      <trkpt lat="47.55489" lon="-2.18736">
        <ele>35.2</ele>
        <time>2021-08-14T13:42:22Z</time>
      </trkpt>
      <trkpt lat="47.55488" lon="-2.18731">
        <ele>35.4</ele>
        <time>2021-08-14T13:42:24Z</time>
      </trkpt>
      <trkpt lat="47.55487" lon="-2.18728">
        <ele>35.5</ele>
        <time>2021-08-14T13:42:25Z</time>
      </trkpt>
      <trkpt lat="47.55486" lon="-2.18722">
        <ele>35.7</ele>
        <time>2021-08-14T13:42:27Z</time>
      </trkpt>
      <trkpt lat="47.55485" lon="-2.18717">
        <ele>36</ele>
        <time>2021-08-14T13:42:29Z</time>
      </trkpt>
      <trkpt lat="47.55484" lon="-2.18711">
        <ele>36.2</ele>
        <time>2021-08-14T13:42:31Z</time>
      </trkpt>
      <trkpt lat="47.55483" lon="-2.18705">
        <ele>36.5</ele>
        <time>2021-08-14T13:42:33Z</time>
      </trkpt>
      <trkpt lat="47.55483" lon="-2.18703">
        <ele>36.5</ele>
        <time>2021-08-14T13:42:34Z</time>
      </trkpt>
      <trkpt lat="47.55482" lon="-2.18698">
        <ele>36.7</ele>
        <time>2021-08-14T13:42:36Z</time>
      </trkpt>
      <trkpt lat="47.55481" lon="-2.18692">
        <ele>37</ele>
        <time>2021-08-14T13:42:38Z</time>
      </trkpt>
      <trkpt lat="47.55479" lon="-2.18686">
        <ele>37.2</ele>
        <time>2021-08-14T13:42:40Z</time>
      </trkpt>
      <trkpt lat="47.55478" lon="-2.18682">
        <ele>37.3</ele>
        <time>2021-08-14T13:42:41Z</time>
      </trkpt>
      <trkpt lat="47.55478" lon="-2.18681">
        <ele>37.4</ele>
        <time>2021-08-14T13:42:42Z</time>
      </trkpt>
      <trkpt lat="47.55477" lon="-2.18679">
        <ele>37.5</ele>
        <time>2021-08-14T13:42:43Z</time>
      </trkpt>
      <trkpt lat="47.55476" lon="-2.18673">
        <ele>37.7</ele>
        <time>2021-08-14T13:42:45Z</time>
      </trkpt>
      <trkpt lat="47.55474" lon="-2.18667">
        <ele>38</ele>
        <time>2021-08-14T13:42:47Z</time>
      </trkpt>
      <trkpt lat="47.55472" lon="-2.1866">
        <ele>38.2</ele>
        <time>2021-08-14T13:42:49Z</time>
      </trkpt>
      <trkpt lat="47.55472" lon="-2.18658">
        <ele>38.3</ele>
        <time>2021-08-14T13:42:50Z</time>
      </trkpt>
      <trkpt lat="47.55471" lon="-2.18656">
        <ele>38.3</ele>
        <time>2021-08-14T13:42:51Z</time>
      </trkpt>
      <trkpt lat="47.5547" lon="-2.18653">
        <ele>38.5</ele>
        <time>2021-08-14T13:42:52Z</time>
      </trkpt>
      <trkpt lat="47.55469" lon="-2.18648">
        <ele>38.6</ele>
        <time>2021-08-14T13:42:54Z</time>
      </trkpt>
      <trkpt lat="47.55467" lon="-2.18643">
        <ele>38.8</ele>
        <time>2021-08-14T13:42:56Z</time>
      </trkpt>
      <trkpt lat="47.55466" lon="-2.18639">
        <ele>38.9</ele>
        <time>2021-08-14T13:42:57Z</time>
      </trkpt>
      <trkpt lat="47.55466" lon="-2.18638">
        <ele>39</ele>
        <time>2021-08-14T13:42:58Z</time>
      </trkpt>
      <trkpt lat="47.55465" lon="-2.18631">
        <ele>39.2</ele>
        <time>2021-08-14T13:43:00Z</time>
      </trkpt>
      <trkpt lat="47.55464" lon="-2.18626">
        <ele>39.3</ele>
        <time>2021-08-14T13:43:02Z</time>
      </trkpt>
      <trkpt lat="47.55462" lon="-2.18622">
        <ele>39.4</ele>
        <time>2021-08-14T13:43:04Z</time>
      </trkpt>
      <trkpt lat="47.55461" lon="-2.18617">
        <ele>39.6</ele>
        <time>2021-08-14T13:43:05Z</time>
      </trkpt>
      <trkpt lat="47.5546" lon="-2.18616">
        <ele>39.6</ele>
        <time>2021-08-14T13:43:06Z</time>
      </trkpt>
      <trkpt lat="47.55459" lon="-2.18611">
        <ele>39.7</ele>
        <time>2021-08-14T13:43:08Z</time>
      </trkpt>
      <trkpt lat="47.55458" lon="-2.18608">
        <ele>39.8</ele>
        <time>2021-08-14T13:43:09Z</time>
      </trkpt>
      <trkpt lat="47.55456" lon="-2.18603">
        <ele>39.9</ele>
        <time>2021-08-14T13:43:11Z</time>
      </trkpt>
      <trkpt lat="47.55455" lon="-2.18598">
        <ele>40</ele>
        <time>2021-08-14T13:43:12Z</time>
      </trkpt>
      <trkpt lat="47.55454" lon="-2.18594">
        <ele>40.1</ele>
        <time>2021-08-14T13:43:14Z</time>
      </trkpt>
      <trkpt lat="47.55454" lon="-2.18592">
        <ele>40.2</ele>
        <time>2021-08-14T13:43:15Z</time>
      </trkpt>
      <trkpt lat="47.55452" lon="-2.18587">
        <ele>40.3</ele>
        <time>2021-08-14T13:43:17Z</time>
      </trkpt>
      <trkpt lat="47.5545" lon="-2.1858">
        <ele>40.4</ele>
        <time>2021-08-14T13:43:19Z</time>
      </trkpt>
      <trkpt lat="47.55449" lon="-2.18576">
        <ele>40.5</ele>
        <time>2021-08-14T13:43:21Z</time>
      </trkpt>
      <trkpt lat="47.55448" lon="-2.18571">
        <ele>40.6</ele>
        <time>2021-08-14T13:43:23Z</time>
      </trkpt>
      <trkpt lat="47.55447" lon="-2.18565">
        <ele>40.7</ele>
        <time>2021-08-14T13:43:25Z</time>
      </trkpt>
      <trkpt lat="47.55445" lon="-2.1856">
        <ele>40.8</ele>
        <time>2021-08-14T13:43:27Z</time>
      </trkpt>
      <trkpt lat="47.55445" lon="-2.18557">
        <ele>40.8</ele>
        <time>2021-08-14T13:43:28Z</time>
      </trkpt>
      <trkpt lat="47.55443" lon="-2.18551">
        <ele>40.9</ele>
        <time>2021-08-14T13:43:30Z</time>
      </trkpt>
      <trkpt lat="47.55442" lon="-2.18545">
        <ele>41</ele>
        <time>2021-08-14T13:43:32Z</time>
      </trkpt>
      <trkpt lat="47.55441" lon="-2.1854">
        <ele>41.1</ele>
        <time>2021-08-14T13:43:34Z</time>
      </trkpt>
      <trkpt lat="47.5544" lon="-2.18538">
        <ele>41.2</ele>
        <time>2021-08-14T13:43:35Z</time>
      </trkpt>
      <trkpt lat="47.55438" lon="-2.18534">
        <ele>41.2</ele>
        <time>2021-08-14T13:43:37Z</time>
      </trkpt>
      <trkpt lat="47.55437" lon="-2.18529">
        <ele>41.3</ele>
        <time>2021-08-14T13:43:38Z</time>
      </trkpt>
      <trkpt lat="47.55437" lon="-2.18528">
        <ele>41.3</ele>
        <time>2021-08-14T13:43:39Z</time>
      </trkpt>
      <trkpt lat="47.55436" lon="-2.18522">
        <ele>41.4</ele>
        <time>2021-08-14T13:43:41Z</time>
      </trkpt>
      <trkpt lat="47.55434" lon="-2.18517">
        <ele>41.5</ele>
        <time>2021-08-14T13:43:43Z</time>
      </trkpt>
      <trkpt lat="47.55433" lon="-2.18513">
        <ele>41.5</ele>
        <time>2021-08-14T13:43:45Z</time>
      </trkpt>
      <trkpt lat="47.55431" lon="-2.18507">
        <ele>41.6</ele>
        <time>2021-08-14T13:43:47Z</time>
      </trkpt>
      <trkpt lat="47.5543" lon="-2.18504">
        <ele>41.7</ele>
        <time>2021-08-14T13:43:48Z</time>
      </trkpt>
      <trkpt lat="47.55429" lon="-2.18499">
        <ele>41.7</ele>
        <time>2021-08-14T13:43:50Z</time>
      </trkpt>
      <trkpt lat="47.55428" lon="-2.18495">
        <ele>41.8</ele>
        <time>2021-08-14T13:43:51Z</time>
      </trkpt>
      <trkpt lat="47.55427" lon="-2.18492">
        <ele>41.8</ele>
        <time>2021-08-14T13:43:52Z</time>
      </trkpt>
      <trkpt lat="47.55424" lon="-2.18487">
        <ele>41.9</ele>
        <time>2021-08-14T13:43:54Z</time>
      </trkpt>
      <trkpt lat="47.55422" lon="-2.18481">
        <ele>41.9</ele>
        <time>2021-08-14T13:43:56Z</time>
      </trkpt>
      <trkpt lat="47.5542" lon="-2.18478">
        <ele>41.9</ele>
        <time>2021-08-14T13:43:57Z</time>
      </trkpt>
      <trkpt lat="47.55418" lon="-2.18472">
        <ele>42</ele>
        <time>2021-08-14T13:43:59Z</time>
      </trkpt>
      <trkpt lat="47.55416" lon="-2.18465">
        <ele>42</ele>
        <time>2021-08-14T13:44:01Z</time>
      </trkpt>
      <trkpt lat="47.55415" lon="-2.18462">
        <ele>42</ele>
        <time>2021-08-14T13:44:02Z</time>
      </trkpt>
      <trkpt lat="47.55412" lon="-2.18455">
        <ele>42.1</ele>
        <time>2021-08-14T13:44:04Z</time>
      </trkpt>
      <trkpt lat="47.55409" lon="-2.18448">
        <ele>42.1</ele>
        <time>2021-08-14T13:44:06Z</time>
      </trkpt>
      <trkpt lat="47.55406" lon="-2.18442">
        <ele>42.1</ele>
        <time>2021-08-14T13:44:08Z</time>
      </trkpt>
      <trkpt lat="47.55404" lon="-2.18438">
        <ele>42.2</ele>
        <time>2021-08-14T13:44:10Z</time>
      </trkpt>
      <trkpt lat="47.55403" lon="-2.18433">
        <ele>42.2</ele>
        <time>2021-08-14T13:44:11Z</time>
      </trkpt>
      <trkpt lat="47.55402" lon="-2.18428">
        <ele>42.2</ele>
        <time>2021-08-14T13:44:12Z</time>
      </trkpt>
      <trkpt lat="47.55401" lon="-2.1842">
        <ele>42.2</ele>
        <time>2021-08-14T13:44:14Z</time>
      </trkpt>
      <trkpt lat="47.55399" lon="-2.18413">
        <ele>42.3</ele>
        <time>2021-08-14T13:44:16Z</time>
      </trkpt>
      <trkpt lat="47.55399" lon="-2.18408">
        <ele>42.3</ele>
        <time>2021-08-14T13:44:17Z</time>
      </trkpt>
      <trkpt lat="47.55398" lon="-2.184">
        <ele>42.3</ele>
        <time>2021-08-14T13:44:19Z</time>
      </trkpt>
      <trkpt lat="47.55397" lon="-2.18396">
        <ele>42.3</ele>
        <time>2021-08-14T13:44:20Z</time>
      </trkpt>
      <trkpt lat="47.55396" lon="-2.18392">
        <ele>42.3</ele>
        <time>2021-08-14T13:44:21Z</time>
      </trkpt>
      <trkpt lat="47.55395" lon="-2.18383">
        <ele>42.4</ele>
        <time>2021-08-14T13:44:23Z</time>
      </trkpt>
      <trkpt lat="47.55395" lon="-2.18379">
        <ele>42.4</ele>
        <time>2021-08-14T13:44:24Z</time>
      </trkpt>
      <trkpt lat="47.55394" lon="-2.18371">
        <ele>42.4</ele>
        <time>2021-08-14T13:44:26Z</time>
      </trkpt>
      <trkpt lat="47.55393" lon="-2.18366">
        <ele>42.4</ele>
        <time>2021-08-14T13:44:27Z</time>
      </trkpt>
      <trkpt lat="47.55391" lon="-2.18358">
        <ele>42.5</ele>
        <time>2021-08-14T13:44:29Z</time>
      </trkpt>
      <trkpt lat="47.55391" lon="-2.18353">
        <ele>42.5</ele>
        <time>2021-08-14T13:44:30Z</time>
      </trkpt>
      <trkpt lat="47.5539" lon="-2.18345">
        <ele>42.5</ele>
        <time>2021-08-14T13:44:32Z</time>
      </trkpt>
      <trkpt lat="47.55389" lon="-2.18341">
        <ele>42.5</ele>
        <time>2021-08-14T13:44:33Z</time>
      </trkpt>
      <trkpt lat="47.55388" lon="-2.18332">
        <ele>42.5</ele>
        <time>2021-08-14T13:44:35Z</time>
      </trkpt>
      <trkpt lat="47.55387" lon="-2.18328">
        <ele>42.6</ele>
        <time>2021-08-14T13:44:36Z</time>
      </trkpt>
      <trkpt lat="47.55386" lon="-2.18323">
        <ele>42.6</ele>
        <time>2021-08-14T13:44:37Z</time>
      </trkpt>
      <trkpt lat="47.55385" lon="-2.18315">
        <ele>42.6</ele>
        <time>2021-08-14T13:44:39Z</time>
      </trkpt>
      <trkpt lat="47.55384" lon="-2.1831">
        <ele>42.6</ele>
        <time>2021-08-14T13:44:40Z</time>
      </trkpt>
      <trkpt lat="47.55383" lon="-2.18302">
        <ele>42.6</ele>
        <time>2021-08-14T13:44:42Z</time>
      </trkpt>
      <trkpt lat="47.55381" lon="-2.18292">
        <ele>42.5</ele>
        <time>2021-08-14T13:44:44Z</time>
      </trkpt>
      <trkpt lat="47.5538" lon="-2.18288">
        <ele>42.5</ele>
        <time>2021-08-14T13:44:45Z</time>
      </trkpt>
      <trkpt lat="47.55377" lon="-2.18279">
        <ele>42.5</ele>
        <time>2021-08-14T13:44:47Z</time>
      </trkpt>
      <trkpt lat="47.55376" lon="-2.18275">
        <ele>42.5</ele>
        <time>2021-08-14T13:44:48Z</time>
      </trkpt>
      <trkpt lat="47.55374" lon="-2.18267">
        <ele>42.5</ele>
        <time>2021-08-14T13:44:50Z</time>
      </trkpt>
      <trkpt lat="47.55372" lon="-2.1826">
        <ele>42.5</ele>
        <time>2021-08-14T13:44:52Z</time>
      </trkpt>
      <trkpt lat="47.5537" lon="-2.18256">
        <ele>42.5</ele>
        <time>2021-08-14T13:44:53Z</time>
      </trkpt>
      <trkpt lat="47.55369" lon="-2.18254">
        <ele>42.5</ele>
        <time>2021-08-14T13:44:54Z</time>
      </trkpt>
      <trkpt lat="47.55367" lon="-2.18246">
        <ele>42.4</ele>
        <time>2021-08-14T13:44:56Z</time>
      </trkpt>
      <trkpt lat="47.55366" lon="-2.18242">
        <ele>42.4</ele>
        <time>2021-08-14T13:44:57Z</time>
      </trkpt>
      <trkpt lat="47.55365" lon="-2.18238">
        <ele>42.4</ele>
        <time>2021-08-14T13:44:58Z</time>
      </trkpt>
      <trkpt lat="47.55363" lon="-2.18234">
        <ele>42.4</ele>
        <time>2021-08-14T13:44:59Z</time>
      </trkpt>
      <trkpt lat="47.55362" lon="-2.18229">
        <ele>42.3</ele>
        <time>2021-08-14T13:45:01Z</time>
      </trkpt>
      <trkpt lat="47.55359" lon="-2.18223">
        <ele>42.3</ele>
        <time>2021-08-14T13:45:02Z</time>
      </trkpt>
      <trkpt lat="47.55357" lon="-2.18216">
        <ele>42.2</ele>
        <time>2021-08-14T13:45:04Z</time>
      </trkpt>
      <trkpt lat="47.55355" lon="-2.1821">
        <ele>42.2</ele>
        <time>2021-08-14T13:45:05Z</time>
      </trkpt>
      <trkpt lat="47.55352" lon="-2.18202">
        <ele>42.1</ele>
        <time>2021-08-14T13:45:07Z</time>
      </trkpt>
      <trkpt lat="47.55349" lon="-2.18193">
        <ele>42</ele>
        <time>2021-08-14T13:45:09Z</time>
      </trkpt>
      <trkpt lat="47.55348" lon="-2.18188">
        <ele>42</ele>
        <time>2021-08-14T13:45:10Z</time>
      </trkpt>
      <trkpt lat="47.55345" lon="-2.18179">
        <ele>41.9</ele>
        <time>2021-08-14T13:45:12Z</time>
      </trkpt>
      <trkpt lat="47.55342" lon="-2.18171">
        <ele>41.8</ele>
        <time>2021-08-14T13:45:14Z</time>
      </trkpt>
      <trkpt lat="47.55341" lon="-2.18166">
        <ele>41.8</ele>
        <time>2021-08-14T13:45:15Z</time>
      </trkpt>
      <trkpt lat="47.55339" lon="-2.18158">
        <ele>41.7</ele>
        <time>2021-08-14T13:45:17Z</time>
      </trkpt>
      <trkpt lat="47.55338" lon="-2.18154">
        <ele>41.7</ele>
        <time>2021-08-14T13:45:18Z</time>
      </trkpt>
      <trkpt lat="47.55336" lon="-2.18147">
        <ele>41.6</ele>
        <time>2021-08-14T13:45:20Z</time>
      </trkpt>
      <trkpt lat="47.55334" lon="-2.18139">
        <ele>41.6</ele>
        <time>2021-08-14T13:45:22Z</time>
      </trkpt>
      <trkpt lat="47.55332" lon="-2.18131">
        <ele>41.5</ele>
        <time>2021-08-14T13:45:24Z</time>
      </trkpt>
      <trkpt lat="47.5533" lon="-2.18122">
        <ele>41.4</ele>
        <time>2021-08-14T13:45:26Z</time>
      </trkpt>
      <trkpt lat="47.55329" lon="-2.18118">
        <ele>41.3</ele>
        <time>2021-08-14T13:45:27Z</time>
      </trkpt>
      <trkpt lat="47.55327" lon="-2.1811">
        <ele>41.2</ele>
        <time>2021-08-14T13:45:29Z</time>
      </trkpt>
      <trkpt lat="47.55326" lon="-2.18105">
        <ele>41.2</ele>
        <time>2021-08-14T13:45:30Z</time>
      </trkpt>
      <trkpt lat="47.55324" lon="-2.18097">
        <ele>41.1</ele>
        <time>2021-08-14T13:45:32Z</time>
      </trkpt>
      <trkpt lat="47.55322" lon="-2.18089">
        <ele>41</ele>
        <time>2021-08-14T13:45:34Z</time>
      </trkpt>
      <trkpt lat="47.55321" lon="-2.18081">
        <ele>40.9</ele>
        <time>2021-08-14T13:45:36Z</time>
      </trkpt>
      <trkpt lat="47.55321" lon="-2.18077">
        <ele>40.9</ele>
        <time>2021-08-14T13:45:37Z</time>
      </trkpt>
      <trkpt lat="47.5532" lon="-2.18073">
        <ele>40.9</ele>
        <time>2021-08-14T13:45:38Z</time>
      </trkpt>
      <trkpt lat="47.55318" lon="-2.18065">
        <ele>40.8</ele>
        <time>2021-08-14T13:45:40Z</time>
      </trkpt>
      <trkpt lat="47.55317" lon="-2.18057">
        <ele>40.7</ele>
        <time>2021-08-14T13:45:42Z</time>
      </trkpt>
      <trkpt lat="47.55316" lon="-2.18049">
        <ele>40.7</ele>
        <time>2021-08-14T13:45:44Z</time>
      </trkpt>
      <trkpt lat="47.55315" lon="-2.18042">
        <ele>40.6</ele>
        <time>2021-08-14T13:45:46Z</time>
      </trkpt>
      <trkpt lat="47.55314" lon="-2.18038">
        <ele>40.5</ele>
        <time>2021-08-14T13:45:47Z</time>
      </trkpt>
      <trkpt lat="47.55314" lon="-2.1803">
        <ele>40.4</ele>
        <time>2021-08-14T13:45:49Z</time>
      </trkpt>
      <trkpt lat="47.55313" lon="-2.18024">
        <ele>40.3</ele>
        <time>2021-08-14T13:45:50Z</time>
      </trkpt>
      <trkpt lat="47.55313" lon="-2.18019">
        <ele>40.2</ele>
        <time>2021-08-14T13:45:51Z</time>
      </trkpt>
      <trkpt lat="47.55313" lon="-2.18017">
        <ele>40.1</ele>
        <time>2021-08-14T13:45:52Z</time>
      </trkpt>
      <trkpt lat="47.55312" lon="-2.18008">
        <ele>39.9</ele>
        <time>2021-08-14T13:45:54Z</time>
      </trkpt>
      <trkpt lat="47.55311" lon="-2.17997">
        <ele>39.6</ele>
        <time>2021-08-14T13:45:56Z</time>
      </trkpt>
      <trkpt lat="47.55311" lon="-2.17992">
        <ele>39.5</ele>
        <time>2021-08-14T13:45:57Z</time>
      </trkpt>
      <trkpt lat="47.5531" lon="-2.17981">
        <ele>39.3</ele>
        <time>2021-08-14T13:45:59Z</time>
      </trkpt>
      <trkpt lat="47.5531" lon="-2.17971">
        <ele>39</ele>
        <time>2021-08-14T13:46:01Z</time>
      </trkpt>
      <trkpt lat="47.5531" lon="-2.17965">
        <ele>38.9</ele>
        <time>2021-08-14T13:46:02Z</time>
      </trkpt>
      <trkpt lat="47.5531" lon="-2.17951">
        <ele>38.6</ele>
        <time>2021-08-14T13:46:04Z</time>
      </trkpt>
      <trkpt lat="47.55309" lon="-2.17941">
        <ele>38.3</ele>
        <time>2021-08-14T13:46:06Z</time>
      </trkpt>
      <trkpt lat="47.55309" lon="-2.17935">
        <ele>38.2</ele>
        <time>2021-08-14T13:46:07Z</time>
      </trkpt>
      <trkpt lat="47.55308" lon="-2.17923">
        <ele>38</ele>
        <time>2021-08-14T13:46:09Z</time>
      </trkpt>
      <trkpt lat="47.55307" lon="-2.17909">
        <ele>37.7</ele>
        <time>2021-08-14T13:46:11Z</time>
      </trkpt>
      <trkpt lat="47.55307" lon="-2.17903">
        <ele>37.6</ele>
        <time>2021-08-14T13:46:12Z</time>
      </trkpt>
      <trkpt lat="47.55307" lon="-2.17889">
        <ele>37.3</ele>
        <time>2021-08-14T13:46:14Z</time>
      </trkpt>
      <trkpt lat="47.55306" lon="-2.17882">
        <ele>37.2</ele>
        <time>2021-08-14T13:46:15Z</time>
      </trkpt>
      <trkpt lat="47.55305" lon="-2.17876">
        <ele>37.1</ele>
        <time>2021-08-14T13:46:16Z</time>
      </trkpt>
      <trkpt lat="47.55303" lon="-2.1787">
        <ele>37</ele>
        <time>2021-08-14T13:46:17Z</time>
      </trkpt>
      <trkpt lat="47.55297" lon="-2.17861">
        <ele>36.8</ele>
        <time>2021-08-14T13:46:19Z</time>
      </trkpt>
      <trkpt lat="47.55292" lon="-2.17857">
        <ele>36.8</ele>
        <time>2021-08-14T13:46:20Z</time>
      </trkpt>
      <trkpt lat="47.55284" lon="-2.17856">
        <ele>36.8</ele>
        <time>2021-08-14T13:46:22Z</time>
      </trkpt>
      <trkpt lat="47.55279" lon="-2.17857">
        <ele>36.9</ele>
        <time>2021-08-14T13:46:23Z</time>
      </trkpt>
      <trkpt lat="47.55271" lon="-2.17857">
        <ele>36.9</ele>
        <time>2021-08-14T13:46:25Z</time>
      </trkpt>
      <trkpt lat="47.55267" lon="-2.17858">
        <ele>36.9</ele>
        <time>2021-08-14T13:46:26Z</time>
      </trkpt>
      <trkpt lat="47.55261" lon="-2.17858">
        <ele>36.9</ele>
        <time>2021-08-14T13:46:28Z</time>
      </trkpt>
      <trkpt lat="47.55257" lon="-2.17858">
        <ele>36.9</ele>
        <time>2021-08-14T13:46:29Z</time>
      </trkpt>
      <trkpt lat="47.55253" lon="-2.17858">
        <ele>36.9</ele>
        <time>2021-08-14T13:46:30Z</time>
      </trkpt>
      <trkpt lat="47.55248" lon="-2.17858">
        <ele>36.9</ele>
        <time>2021-08-14T13:46:32Z</time>
      </trkpt>
      <trkpt lat="47.55244" lon="-2.17858">
        <ele>36.9</ele>
        <time>2021-08-14T13:46:33Z</time>
      </trkpt>
      <trkpt lat="47.55239" lon="-2.17858">
        <ele>36.9</ele>
        <time>2021-08-14T13:46:34Z</time>
      </trkpt>
      <trkpt lat="47.55236" lon="-2.17858">
        <ele>36.9</ele>
        <time>2021-08-14T13:46:35Z</time>
      </trkpt>
      <trkpt lat="47.55231" lon="-2.17858">
        <ele>36.8</ele>
        <time>2021-08-14T13:46:37Z</time>
      </trkpt>
      <trkpt lat="47.55227" lon="-2.17858">
        <ele>36.8</ele>
        <time>2021-08-14T13:46:38Z</time>
      </trkpt>
      <trkpt lat="47.55222" lon="-2.17858">
        <ele>36.8</ele>
        <time>2021-08-14T13:46:39Z</time>
      </trkpt>
      <trkpt lat="47.55218" lon="-2.17858">
        <ele>36.8</ele>
        <time>2021-08-14T13:46:40Z</time>
      </trkpt>
      <trkpt lat="47.55211" lon="-2.17858">
        <ele>36.8</ele>
        <time>2021-08-14T13:46:42Z</time>
      </trkpt>
      <trkpt lat="47.55208" lon="-2.17858">
        <ele>36.8</ele>
        <time>2021-08-14T13:46:43Z</time>
      </trkpt>
      <trkpt lat="47.55201" lon="-2.17859">
        <ele>36.7</ele>
        <time>2021-08-14T13:46:45Z</time>
      </trkpt>
      <trkpt lat="47.55196" lon="-2.17859">
        <ele>36.7</ele>
        <time>2021-08-14T13:46:46Z</time>
      </trkpt>
      <trkpt lat="47.55188" lon="-2.17859">
        <ele>36.6</ele>
        <time>2021-08-14T13:46:48Z</time>
      </trkpt>
      <trkpt lat="47.55181" lon="-2.17859">
        <ele>36.6</ele>
        <time>2021-08-14T13:46:50Z</time>
      </trkpt>
      <trkpt lat="47.55178" lon="-2.17859">
        <ele>36.6</ele>
        <time>2021-08-14T13:46:51Z</time>
      </trkpt>
      <trkpt lat="47.5517" lon="-2.17859">
        <ele>36.5</ele>
        <time>2021-08-14T13:46:53Z</time>
      </trkpt>
      <trkpt lat="47.55162" lon="-2.17859">
        <ele>36.4</ele>
        <time>2021-08-14T13:46:55Z</time>
      </trkpt>
      <trkpt lat="47.55159" lon="-2.1786">
        <ele>36.4</ele>
        <time>2021-08-14T13:46:56Z</time>
      </trkpt>
      <trkpt lat="47.55155" lon="-2.1786">
        <ele>36.3</ele>
        <time>2021-08-14T13:46:57Z</time>
      </trkpt>
      <trkpt lat="47.55147" lon="-2.1786">
        <ele>36.2</ele>
        <time>2021-08-14T13:46:59Z</time>
      </trkpt>
      <trkpt lat="47.5514" lon="-2.1786">
        <ele>36.2</ele>
        <time>2021-08-14T13:47:01Z</time>
      </trkpt>
      <trkpt lat="47.55135" lon="-2.1786">
        <ele>36.2</ele>
        <time>2021-08-14T13:47:02Z</time>
      </trkpt>
      <trkpt lat="47.55131" lon="-2.1786">
        <ele>36.2</ele>
        <time>2021-08-14T13:47:03Z</time>
      </trkpt>
      <trkpt lat="47.55128" lon="-2.1786">
        <ele>36.1</ele>
        <time>2021-08-14T13:47:04Z</time>
      </trkpt>
      <trkpt lat="47.5512" lon="-2.17859">
        <ele>36.1</ele>
        <time>2021-08-14T13:47:06Z</time>
      </trkpt>
      <trkpt lat="47.55117" lon="-2.17859">
        <ele>36</ele>
        <time>2021-08-14T13:47:07Z</time>
      </trkpt>
      <trkpt lat="47.5511" lon="-2.1786">
        <ele>36</ele>
        <time>2021-08-14T13:47:09Z</time>
      </trkpt>
      <trkpt lat="47.55106" lon="-2.17861">
        <ele>35.9</ele>
        <time>2021-08-14T13:47:10Z</time>
      </trkpt>
      <trkpt lat="47.55099" lon="-2.17861">
        <ele>35.8</ele>
        <time>2021-08-14T13:47:12Z</time>
      </trkpt>
      <trkpt lat="47.55091" lon="-2.17861">
        <ele>35.6</ele>
        <time>2021-08-14T13:47:14Z</time>
      </trkpt>
      <trkpt lat="47.55088" lon="-2.17861">
        <ele>35.6</ele>
        <time>2021-08-14T13:47:15Z</time>
      </trkpt>
      <trkpt lat="47.55082" lon="-2.17861">
        <ele>35.5</ele>
        <time>2021-08-14T13:47:17Z</time>
      </trkpt>
      <trkpt lat="47.55077" lon="-2.17861">
        <ele>35.4</ele>
        <time>2021-08-14T13:47:18Z</time>
      </trkpt>
      <trkpt lat="47.5507" lon="-2.1786">
        <ele>35.2</ele>
        <time>2021-08-14T13:47:20Z</time>
      </trkpt>
      <trkpt lat="47.55066" lon="-2.17861">
        <ele>35.1</ele>
        <time>2021-08-14T13:47:21Z</time>
      </trkpt>
      <trkpt lat="47.55063" lon="-2.17862">
        <ele>35</ele>
        <time>2021-08-14T13:47:22Z</time>
      </trkpt>
      <trkpt lat="47.55059" lon="-2.17863">
        <ele>34.9</ele>
        <time>2021-08-14T13:47:23Z</time>
      </trkpt>
      <trkpt lat="47.55051" lon="-2.17862">
        <ele>34.6</ele>
        <time>2021-08-14T13:47:25Z</time>
      </trkpt>
      <trkpt lat="47.55043" lon="-2.17863">
        <ele>34.4</ele>
        <time>2021-08-14T13:47:27Z</time>
      </trkpt>
      <trkpt lat="47.55036" lon="-2.17862">
        <ele>34.1</ele>
        <time>2021-08-14T13:47:29Z</time>
      </trkpt>
      <trkpt lat="47.55031" lon="-2.17862">
        <ele>34</ele>
        <time>2021-08-14T13:47:30Z</time>
      </trkpt>
      <trkpt lat="47.55027" lon="-2.17863">
        <ele>33.8</ele>
        <time>2021-08-14T13:47:31Z</time>
      </trkpt>
      <trkpt lat="47.55021" lon="-2.17863">
        <ele>33.6</ele>
        <time>2021-08-14T13:47:32Z</time>
      </trkpt>
      <trkpt lat="47.55012" lon="-2.17863">
        <ele>33.2</ele>
        <time>2021-08-14T13:47:34Z</time>
      </trkpt>
      <trkpt lat="47.55003" lon="-2.17864">
        <ele>32.9</ele>
        <time>2021-08-14T13:47:36Z</time>
      </trkpt>
      <trkpt lat="47.54998" lon="-2.17864">
        <ele>32.7</ele>
        <time>2021-08-14T13:47:37Z</time>
      </trkpt>
      <trkpt lat="47.54988" lon="-2.17865">
        <ele>32.3</ele>
        <time>2021-08-14T13:47:39Z</time>
      </trkpt>
      <trkpt lat="47.54977" lon="-2.17865">
        <ele>32</ele>
        <time>2021-08-14T13:47:41Z</time>
      </trkpt>
      <trkpt lat="47.54966" lon="-2.17866">
        <ele>31.7</ele>
        <time>2021-08-14T13:47:43Z</time>
      </trkpt>
      <trkpt lat="47.54956" lon="-2.17867">
        <ele>31.5</ele>
        <time>2021-08-14T13:47:45Z</time>
      </trkpt>
      <trkpt lat="47.54951" lon="-2.17867">
        <ele>31.4</ele>
        <time>2021-08-14T13:47:46Z</time>
      </trkpt>
      <trkpt lat="47.54941" lon="-2.17867">
        <ele>31.3</ele>
        <time>2021-08-14T13:47:48Z</time>
      </trkpt>
      <trkpt lat="47.54934" lon="-2.17868">
        <ele>31.3</ele>
        <time>2021-08-14T13:47:50Z</time>
      </trkpt>
      <trkpt lat="47.54931" lon="-2.17868">
        <ele>31.4</ele>
        <time>2021-08-14T13:47:51Z</time>
      </trkpt>
      <trkpt lat="47.54924" lon="-2.17868">
        <ele>31.4</ele>
        <time>2021-08-14T13:47:53Z</time>
      </trkpt>
      <trkpt lat="47.5492" lon="-2.17868">
        <ele>31.5</ele>
        <time>2021-08-14T13:47:54Z</time>
      </trkpt>
      <trkpt lat="47.54915" lon="-2.1787">
        <ele>31.5</ele>
        <time>2021-08-14T13:47:56Z</time>
      </trkpt>
      <trkpt lat="47.54912" lon="-2.1787">
        <ele>31.6</ele>
        <time>2021-08-14T13:47:57Z</time>
      </trkpt>
      <trkpt lat="47.54909" lon="-2.1787">
        <ele>31.6</ele>
        <time>2021-08-14T13:47:58Z</time>
      </trkpt>
      <trkpt lat="47.54903" lon="-2.1787">
        <ele>31.7</ele>
        <time>2021-08-14T13:48:00Z</time>
      </trkpt>
      <trkpt lat="47.549" lon="-2.1787">
        <ele>31.8</ele>
        <time>2021-08-14T13:48:01Z</time>
      </trkpt>
      <trkpt lat="47.54896" lon="-2.1787">
        <ele>31.9</ele>
        <time>2021-08-14T13:48:03Z</time>
      </trkpt>
      <trkpt lat="47.54891" lon="-2.1787">
        <ele>32</ele>
        <time>2021-08-14T13:48:04Z</time>
      </trkpt>
      <trkpt lat="47.54887" lon="-2.17871">
        <ele>32.1</ele>
        <time>2021-08-14T13:48:06Z</time>
      </trkpt>
      <trkpt lat="47.54883" lon="-2.17871">
        <ele>32.2</ele>
        <time>2021-08-14T13:48:07Z</time>
      </trkpt>
      <trkpt lat="47.5488" lon="-2.17871">
        <ele>32.3</ele>
        <time>2021-08-14T13:48:08Z</time>
      </trkpt>
      <trkpt lat="47.54877" lon="-2.17871">
        <ele>32.4</ele>
        <time>2021-08-14T13:48:09Z</time>
      </trkpt>
      <trkpt lat="47.54872" lon="-2.1787">
        <ele>32.5</ele>
        <time>2021-08-14T13:48:11Z</time>
      </trkpt>
      <trkpt lat="47.54869" lon="-2.1787">
        <ele>32.6</ele>
        <time>2021-08-14T13:48:12Z</time>
      </trkpt>
      <trkpt lat="47.54866" lon="-2.1787">
        <ele>32.7</ele>
        <time>2021-08-14T13:48:13Z</time>
      </trkpt>
      <trkpt lat="47.54863" lon="-2.1787">
        <ele>32.8</ele>
        <time>2021-08-14T13:48:14Z</time>
      </trkpt>
      <trkpt lat="47.54858" lon="-2.17871">
        <ele>33</ele>
        <time>2021-08-14T13:48:16Z</time>
      </trkpt>
      <trkpt lat="47.54853" lon="-2.1787">
        <ele>33.1</ele>
        <time>2021-08-14T13:48:18Z</time>
      </trkpt>
      <trkpt lat="47.5485" lon="-2.1787">
        <ele>33.2</ele>
        <time>2021-08-14T13:48:19Z</time>
      </trkpt>
      <trkpt lat="47.54847" lon="-2.17871">
        <ele>33.3</ele>
        <time>2021-08-14T13:48:20Z</time>
      </trkpt>
      <trkpt lat="47.54843" lon="-2.1787">
        <ele>33.4</ele>
        <time>2021-08-14T13:48:22Z</time>
      </trkpt>
      <trkpt lat="47.54839" lon="-2.1787">
        <ele>33.5</ele>
        <time>2021-08-14T13:48:23Z</time>
      </trkpt>
      <trkpt lat="47.54835" lon="-2.17871">
        <ele>33.6</ele>
        <time>2021-08-14T13:48:25Z</time>
      </trkpt>
      <trkpt lat="47.54833" lon="-2.17871">
        <ele>33.7</ele>
        <time>2021-08-14T13:48:26Z</time>
      </trkpt>
      <trkpt lat="47.54828" lon="-2.17871">
        <ele>33.8</ele>
        <time>2021-08-14T13:48:28Z</time>
      </trkpt>
      <trkpt lat="47.54824" lon="-2.17871">
        <ele>33.9</ele>
        <time>2021-08-14T13:48:29Z</time>
      </trkpt>
      <trkpt lat="47.54823" lon="-2.17871">
        <ele>33.9</ele>
        <time>2021-08-14T13:48:30Z</time>
      </trkpt>
      <trkpt lat="47.54819" lon="-2.17872">
        <ele>34</ele>
        <time>2021-08-14T13:48:32Z</time>
      </trkpt>
      <trkpt lat="47.54814" lon="-2.17872">
        <ele>34.1</ele>
        <time>2021-08-14T13:48:34Z</time>
      </trkpt>
      <trkpt lat="47.54809" lon="-2.17872">
        <ele>34.2</ele>
        <time>2021-08-14T13:48:36Z</time>
      </trkpt>
      <trkpt lat="47.54805" lon="-2.17872">
        <ele>34.4</ele>
        <time>2021-08-14T13:48:38Z</time>
      </trkpt>
      <trkpt lat="47.548" lon="-2.17872">
        <ele>34.5</ele>
        <time>2021-08-14T13:48:40Z</time>
      </trkpt>
      <trkpt lat="47.54797" lon="-2.17872">
        <ele>34.6</ele>
        <time>2021-08-14T13:48:42Z</time>
      </trkpt>
      <trkpt lat="47.54793" lon="-2.17873">
        <ele>34.7</ele>
        <time>2021-08-14T13:48:43Z</time>
      </trkpt>
      <trkpt lat="47.54788" lon="-2.17875">
        <ele>34.8</ele>
        <time>2021-08-14T13:48:45Z</time>
      </trkpt>
      <trkpt lat="47.54784" lon="-2.17878">
        <ele>34.9</ele>
        <time>2021-08-14T13:48:47Z</time>
      </trkpt>
      <trkpt lat="47.5478" lon="-2.17881">
        <ele>34.9</ele>
        <time>2021-08-14T13:48:49Z</time>
      </trkpt>
      <trkpt lat="47.54777" lon="-2.17882">
        <ele>35</ele>
        <time>2021-08-14T13:48:50Z</time>
      </trkpt>
      <trkpt lat="47.54773" lon="-2.17886">
        <ele>35</ele>
        <time>2021-08-14T13:48:52Z</time>
      </trkpt>
      <trkpt lat="47.54772" lon="-2.17887">
        <ele>35.1</ele>
        <time>2021-08-14T13:48:53Z</time>
      </trkpt>
      <trkpt lat="47.5477" lon="-2.17888">
        <ele>35.1</ele>
        <time>2021-08-14T13:48:54Z</time>
      </trkpt>
      <trkpt lat="47.54768" lon="-2.1789">
        <ele>35.1</ele>
        <time>2021-08-14T13:48:55Z</time>
      </trkpt>
      <trkpt lat="47.54765" lon="-2.17894">
        <ele>35.1</ele>
        <time>2021-08-14T13:48:57Z</time>
      </trkpt>
      <trkpt lat="47.54762" lon="-2.17898">
        <ele>35.2</ele>
        <time>2021-08-14T13:48:58Z</time>
      </trkpt>
      <trkpt lat="47.54761" lon="-2.17899">
        <ele>35.2</ele>
        <time>2021-08-14T13:48:59Z</time>
      </trkpt>
      <trkpt lat="47.54757" lon="-2.17903">
        <ele>35.2</ele>
        <time>2021-08-14T13:49:01Z</time>
      </trkpt>
      <trkpt lat="47.54753" lon="-2.17907">
        <ele>35.2</ele>
        <time>2021-08-14T13:49:03Z</time>
      </trkpt>
      <trkpt lat="47.54749" lon="-2.17911">
        <ele>35.3</ele>
        <time>2021-08-14T13:49:05Z</time>
      </trkpt>
      <trkpt lat="47.54747" lon="-2.17912">
        <ele>35.3</ele>
        <time>2021-08-14T13:49:06Z</time>
      </trkpt>
      <trkpt lat="47.54742" lon="-2.17915">
        <ele>35.3</ele>
        <time>2021-08-14T13:49:08Z</time>
      </trkpt>
      <trkpt lat="47.54739" lon="-2.17917">
        <ele>35.3</ele>
        <time>2021-08-14T13:49:09Z</time>
      </trkpt>
      <trkpt lat="47.54738" lon="-2.17918">
        <ele>35.3</ele>
        <time>2021-08-14T13:49:10Z</time>
      </trkpt>
      <trkpt lat="47.54733" lon="-2.1792">
        <ele>35.3</ele>
        <time>2021-08-14T13:49:12Z</time>
      </trkpt>
      <trkpt lat="47.54732" lon="-2.17921">
        <ele>35.3</ele>
        <time>2021-08-14T13:49:13Z</time>
      </trkpt>
      <trkpt lat="47.54728" lon="-2.17921">
        <ele>35.3</ele>
        <time>2021-08-14T13:49:15Z</time>
      </trkpt>
      <trkpt lat="47.54724" lon="-2.17922">
        <ele>35.3</ele>
        <time>2021-08-14T13:49:17Z</time>
      </trkpt>
      <trkpt lat="47.5472" lon="-2.17921">
        <ele>35.3</ele>
        <time>2021-08-14T13:49:18Z</time>
      </trkpt>
      <trkpt lat="47.54717" lon="-2.1792">
        <ele>35.3</ele>
        <time>2021-08-14T13:49:19Z</time>
      </trkpt>
      <trkpt lat="47.54715" lon="-2.17919">
        <ele>35.3</ele>
        <time>2021-08-14T13:49:20Z</time>
      </trkpt>
      <trkpt lat="47.54713" lon="-2.17919">
        <ele>35.3</ele>
        <time>2021-08-14T13:49:21Z</time>
      </trkpt>
      <trkpt lat="47.54708" lon="-2.17918">
        <ele>35.3</ele>
        <time>2021-08-14T13:49:23Z</time>
      </trkpt>
      <trkpt lat="47.54706" lon="-2.17918">
        <ele>35.2</ele>
        <time>2021-08-14T13:49:24Z</time>
      </trkpt>
      <trkpt lat="47.54701" lon="-2.17918">
        <ele>35.2</ele>
        <time>2021-08-14T13:49:26Z</time>
      </trkpt>
      <trkpt lat="47.54697" lon="-2.17918">
        <ele>35.2</ele>
        <time>2021-08-14T13:49:28Z</time>
      </trkpt>
      <trkpt lat="47.54694" lon="-2.17918">
        <ele>35.2</ele>
        <time>2021-08-14T13:49:29Z</time>
      </trkpt>
      <trkpt lat="47.5469" lon="-2.17916">
        <ele>35.2</ele>
        <time>2021-08-14T13:49:31Z</time>
      </trkpt>
      <trkpt lat="47.54688" lon="-2.17916">
        <ele>35.2</ele>
        <time>2021-08-14T13:49:32Z</time>
      </trkpt>
      <trkpt lat="47.54684" lon="-2.17916">
        <ele>35.2</ele>
        <time>2021-08-14T13:49:34Z</time>
      </trkpt>
      <trkpt lat="47.54682" lon="-2.17916">
        <ele>35.2</ele>
        <time>2021-08-14T13:49:35Z</time>
      </trkpt>
      <trkpt lat="47.54678" lon="-2.17915">
        <ele>35.2</ele>
        <time>2021-08-14T13:49:37Z</time>
      </trkpt>
      <trkpt lat="47.54675" lon="-2.17914">
        <ele>35.1</ele>
        <time>2021-08-14T13:49:39Z</time>
      </trkpt>
      <trkpt lat="47.54672" lon="-2.17913">
        <ele>35.1</ele>
        <time>2021-08-14T13:49:40Z</time>
      </trkpt>
      <trkpt lat="47.54668" lon="-2.17911">
        <ele>35.1</ele>
        <time>2021-08-14T13:49:42Z</time>
      </trkpt>
      <trkpt lat="47.54665" lon="-2.17909">
        <ele>35</ele>
        <time>2021-08-14T13:49:43Z</time>
      </trkpt>
      <trkpt lat="47.54664" lon="-2.17909">
        <ele>35</ele>
        <time>2021-08-14T13:49:44Z</time>
      </trkpt>
      <trkpt lat="47.5466" lon="-2.17907">
        <ele>35</ele>
        <time>2021-08-14T13:49:46Z</time>
      </trkpt>
      <trkpt lat="47.54656" lon="-2.17906">
        <ele>34.9</ele>
        <time>2021-08-14T13:49:48Z</time>
      </trkpt>
      <trkpt lat="47.54653" lon="-2.17905">
        <ele>34.8</ele>
        <time>2021-08-14T13:49:49Z</time>
      </trkpt>
      <trkpt lat="47.5465" lon="-2.17904">
        <ele>34.8</ele>
        <time>2021-08-14T13:49:50Z</time>
      </trkpt>
      <trkpt lat="47.54649" lon="-2.17904">
        <ele>34.7</ele>
        <time>2021-08-14T13:49:51Z</time>
      </trkpt>
      <trkpt lat="47.54645" lon="-2.17903">
        <ele>34.7</ele>
        <time>2021-08-14T13:49:52Z</time>
      </trkpt>
      <trkpt lat="47.54644" lon="-2.17903">
        <ele>34.6</ele>
        <time>2021-08-14T13:49:53Z</time>
      </trkpt>
      <trkpt lat="47.54639" lon="-2.17901">
        <ele>34.5</ele>
        <time>2021-08-14T13:49:55Z</time>
      </trkpt>
      <trkpt lat="47.54636" lon="-2.17901">
        <ele>34.4</ele>
        <time>2021-08-14T13:49:56Z</time>
      </trkpt>
      <trkpt lat="47.54633" lon="-2.179">
        <ele>34.3</ele>
        <time>2021-08-14T13:49:57Z</time>
      </trkpt>
      <trkpt lat="47.5463" lon="-2.17899">
        <ele>34.2</ele>
        <time>2021-08-14T13:49:58Z</time>
      </trkpt>
      <trkpt lat="47.54627" lon="-2.17898">
        <ele>34.1</ele>
        <time>2021-08-14T13:49:59Z</time>
      </trkpt>
      <trkpt lat="47.54623" lon="-2.17898">
        <ele>34</ele>
        <time>2021-08-14T13:50:00Z</time>
      </trkpt>
      <trkpt lat="47.54619" lon="-2.17897">
        <ele>33.8</ele>
        <time>2021-08-14T13:50:01Z</time>
      </trkpt>
      <trkpt lat="47.54613" lon="-2.17896">
        <ele>33.6</ele>
        <time>2021-08-14T13:50:03Z</time>
      </trkpt>
      <trkpt lat="47.54607" lon="-2.17894">
        <ele>33.4</ele>
        <time>2021-08-14T13:50:04Z</time>
      </trkpt>
      <trkpt lat="47.54599" lon="-2.17883">
        <ele>32.6</ele>
        <time>2021-08-14T13:50:06Z</time>
      </trkpt>
      <trkpt lat="47.54596" lon="-2.17877">
        <ele>32.3</ele>
        <time>2021-08-14T13:50:07Z</time>
      </trkpt>
      <trkpt lat="47.54593" lon="-2.17871">
        <ele>31.9</ele>
        <time>2021-08-14T13:50:08Z</time>
      </trkpt>
      <trkpt lat="47.5459" lon="-2.17865">
        <ele>31.5</ele>
        <time>2021-08-14T13:50:09Z</time>
      </trkpt>
      <trkpt lat="47.54583" lon="-2.1785">
        <ele>30.6</ele>
        <time>2021-08-14T13:50:11Z</time>
      </trkpt>
      <trkpt lat="47.54576" lon="-2.17836">
        <ele>29.5</ele>
        <time>2021-08-14T13:50:13Z</time>
      </trkpt>
      <trkpt lat="47.54572" lon="-2.17827">
        <ele>28.9</ele>
        <time>2021-08-14T13:50:14Z</time>
      </trkpt>
      <trkpt lat="47.54569" lon="-2.17818">
        <ele>28.2</ele>
        <time>2021-08-14T13:50:15Z</time>
      </trkpt>
      <trkpt lat="47.54563" lon="-2.17799">
        <ele>26.9</ele>
        <time>2021-08-14T13:50:17Z</time>
      </trkpt>
      <trkpt lat="47.54561" lon="-2.17788">
        <ele>26.2</ele>
        <time>2021-08-14T13:50:18Z</time>
      </trkpt>
      <trkpt lat="47.54558" lon="-2.17765">
        <ele>24.8</ele>
        <time>2021-08-14T13:50:20Z</time>
      </trkpt>
      <trkpt lat="47.54557" lon="-2.1774">
        <ele>23.4</ele>
        <time>2021-08-14T13:50:22Z</time>
      </trkpt>
      <trkpt lat="47.54555" lon="-2.17716">
        <ele>22.2</ele>
        <time>2021-08-14T13:50:24Z</time>
      </trkpt>
      <trkpt lat="47.54554" lon="-2.17704">
        <ele>21.6</ele>
        <time>2021-08-14T13:50:25Z</time>
      </trkpt>
      <trkpt lat="47.54552" lon="-2.1768">
        <ele>20.6</ele>
        <time>2021-08-14T13:50:27Z</time>
      </trkpt>
      <trkpt lat="47.54551" lon="-2.17667">
        <ele>20.1</ele>
        <time>2021-08-14T13:50:28Z</time>
      </trkpt>
      <trkpt lat="47.54549" lon="-2.17644">
        <ele>19.3</ele>
        <time>2021-08-14T13:50:30Z</time>
      </trkpt>
      <trkpt lat="47.54548" lon="-2.17631">
        <ele>18.9</ele>
        <time>2021-08-14T13:50:31Z</time>
      </trkpt>
      <trkpt lat="47.54546" lon="-2.17608">
        <ele>18.1</ele>
        <time>2021-08-14T13:50:33Z</time>
      </trkpt>
      <trkpt lat="47.54544" lon="-2.17589">
        <ele>17.5</ele>
        <time>2021-08-14T13:50:35Z</time>
      </trkpt>
      <trkpt lat="47.54542" lon="-2.17569">
        <ele>16.8</ele>
        <time>2021-08-14T13:50:37Z</time>
      </trkpt>
      <trkpt lat="47.54541" lon="-2.17557">
        <ele>16.4</ele>
        <time>2021-08-14T13:50:38Z</time>
      </trkpt>
      <trkpt lat="47.5454" lon="-2.17545">
        <ele>15.9</ele>
        <time>2021-08-14T13:50:39Z</time>
      </trkpt>
      <trkpt lat="47.54539" lon="-2.17534">
        <ele>15.5</ele>
        <time>2021-08-14T13:50:40Z</time>
      </trkpt>
      <trkpt lat="47.54539" lon="-2.17513">
        <ele>14.7</ele>
        <time>2021-08-14T13:50:42Z</time>
      </trkpt>
      <trkpt lat="47.54538" lon="-2.17503">
        <ele>14.4</ele>
        <time>2021-08-14T13:50:43Z</time>
      </trkpt>
      <trkpt lat="47.54537" lon="-2.17491">
        <ele>13.9</ele>
        <time>2021-08-14T13:50:45Z</time>
      </trkpt>
      <trkpt lat="47.54536" lon="-2.17486">
        <ele>13.8</ele>
        <time>2021-08-14T13:50:46Z</time>
      </trkpt>
      <trkpt lat="47.54534" lon="-2.17479">
        <ele>13.5</ele>
        <time>2021-08-14T13:50:48Z</time>
      </trkpt>
      <trkpt lat="47.54528" lon="-2.17469">
        <ele>13.1</ele>
        <time>2021-08-14T13:50:50Z</time>
      </trkpt>
      <trkpt lat="47.54524" lon="-2.17463">
        <ele>12.9</ele>
        <time>2021-08-14T13:50:51Z</time>
      </trkpt>
      <trkpt lat="47.5452" lon="-2.17452">
        <ele>12.6</ele>
        <time>2021-08-14T13:50:53Z</time>
      </trkpt>
      <trkpt lat="47.5452" lon="-2.17439">
        <ele>12.3</ele>
        <time>2021-08-14T13:50:55Z</time>
      </trkpt>
      <trkpt lat="47.54518" lon="-2.17427">
        <ele>12.1</ele>
        <time>2021-08-14T13:50:57Z</time>
      </trkpt>
      <trkpt lat="47.54513" lon="-2.17418">
        <ele>11.9</ele>
        <time>2021-08-14T13:50:59Z</time>
      </trkpt>
      <trkpt lat="47.54508" lon="-2.17409">
        <ele>11.7</ele>
        <time>2021-08-14T13:51:01Z</time>
      </trkpt>
      <trkpt lat="47.54505" lon="-2.17401">
        <ele>11.4</ele>
        <time>2021-08-14T13:51:03Z</time>
      </trkpt>
      <trkpt lat="47.54506" lon="-2.17393">
        <ele>11.2</ele>
        <time>2021-08-14T13:51:05Z</time>
      </trkpt>
      <trkpt lat="47.54508" lon="-2.17387">
        <ele>11.1</ele>
        <time>2021-08-14T13:51:06Z</time>
      </trkpt>
      <trkpt lat="47.54511" lon="-2.17378">
        <ele>11</ele>
        <time>2021-08-14T13:51:08Z</time>
      </trkpt>
      <trkpt lat="47.54513" lon="-2.17375">
        <ele>11</ele>
        <time>2021-08-14T13:51:09Z</time>
      </trkpt>
      <trkpt lat="47.54516" lon="-2.1737">
        <ele>11</ele>
        <time>2021-08-14T13:51:11Z</time>
      </trkpt>
      <trkpt lat="47.54519" lon="-2.17364">
        <ele>11</ele>
        <time>2021-08-14T13:51:13Z</time>
      </trkpt>
      <trkpt lat="47.54519" lon="-2.17362">
        <ele>11</ele>
        <time>2021-08-14T13:51:14Z</time>
      </trkpt>
      <trkpt lat="47.5452" lon="-2.1736">
        <ele>11</ele>
        <time>2021-08-14T13:51:15Z</time>
      </trkpt>
      <trkpt lat="47.54522" lon="-2.17356">
        <ele>11</ele>
        <time>2021-08-14T13:51:17Z</time>
      </trkpt>
      <trkpt lat="47.54523" lon="-2.17353">
        <ele>11</ele>
        <time>2021-08-14T13:51:18Z</time>
      </trkpt>
      <trkpt lat="47.54523" lon="-2.17349">
        <ele>11</ele>
        <time>2021-08-14T13:51:20Z</time>
      </trkpt>
      <trkpt lat="47.54523" lon="-2.17348">
        <ele>11</ele>
        <time>2021-08-14T13:51:21Z</time>
      </trkpt>
      <trkpt lat="47.54523" lon="-2.17347">
        <ele>11</ele>
        <time>2021-08-14T13:51:23Z</time>
      </trkpt>
      <trkpt lat="47.54524" lon="-2.17347">
        <ele>11</ele>
        <time>2021-08-14T13:51:25Z</time>
      </trkpt>
      <trkpt lat="47.54524" lon="-2.17347">
        <ele>11</ele>
        <time>2021-08-14T13:51:27Z</time>
      </trkpt>
      <trkpt lat="47.54524" lon="-2.17347">
        <ele>11</ele>
        <time>2021-08-14T13:51:28Z</time>
      </trkpt>
      <trkpt lat="47.54524" lon="-2.17347">
        <ele>11</ele>
        <time>2021-08-14T13:51:30Z</time>
      </trkpt>
      <trkpt lat="47.54526" lon="-2.1734">
        <ele>11</ele>
        <time>2021-08-14T13:53:28Z</time>
      </trkpt>
      <trkpt lat="47.54527" lon="-2.17337">
        <ele>11</ele>
        <time>2021-08-14T13:53:29Z</time>
      </trkpt>
      <trkpt lat="47.54529" lon="-2.17333">
        <ele>11</ele>
        <time>2021-08-14T13:53:31Z</time>
      </trkpt>
      <trkpt lat="47.54532" lon="-2.17329">
        <ele>11</ele>
        <time>2021-08-14T13:53:33Z</time>
      </trkpt>
      <trkpt lat="47.54536" lon="-2.17326">
        <ele>11</ele>
        <time>2021-08-14T13:53:34Z</time>
      </trkpt>
      <trkpt lat="47.54538" lon="-2.17325">
        <ele>11</ele>
        <time>2021-08-14T13:53:35Z</time>
      </trkpt>
      <trkpt lat="47.54542" lon="-2.17324">
        <ele>11</ele>
        <time>2021-08-14T13:53:37Z</time>
      </trkpt>
      <trkpt lat="47.54546" lon="-2.17323">
        <ele>11</ele>
        <time>2021-08-14T13:53:39Z</time>
      </trkpt>
      <trkpt lat="47.54548" lon="-2.17323">
        <ele>11</ele>
        <time>2021-08-14T13:53:40Z</time>
      </trkpt>
      <trkpt lat="47.54549" lon="-2.17322">
        <ele>11</ele>
        <time>2021-08-14T13:53:41Z</time>
      </trkpt>
      <trkpt lat="47.54553" lon="-2.17321">
        <ele>11</ele>
        <time>2021-08-14T13:53:43Z</time>
      </trkpt>
      <trkpt lat="47.54554" lon="-2.17321">
        <ele>11</ele>
        <time>2021-08-14T13:53:44Z</time>
      </trkpt>
      <trkpt lat="47.54557" lon="-2.1732">
        <ele>10.9</ele>
        <time>2021-08-14T13:53:46Z</time>
      </trkpt>
      <trkpt lat="47.54558" lon="-2.17319">
        <ele>10.9</ele>
        <time>2021-08-14T13:53:47Z</time>
      </trkpt>
      <trkpt lat="47.54561" lon="-2.17317">
        <ele>10.9</ele>
        <time>2021-08-14T13:53:48Z</time>
      </trkpt>
      <trkpt lat="47.54562" lon="-2.17316">
        <ele>10.9</ele>
        <time>2021-08-14T13:53:49Z</time>
      </trkpt>
      <trkpt lat="47.54564" lon="-2.17315">
        <ele>10.9</ele>
        <time>2021-08-14T13:53:51Z</time>
      </trkpt>
      <trkpt lat="47.54565" lon="-2.17315">
        <ele>10.9</ele>
        <time>2021-08-14T13:53:52Z</time>
      </trkpt>
      <trkpt lat="47.54567" lon="-2.17314">
        <ele>10.9</ele>
        <time>2021-08-14T13:53:54Z</time>
      </trkpt>
      <trkpt lat="47.54571" lon="-2.17312">
        <ele>10.9</ele>
        <time>2021-08-14T13:53:55Z</time>
      </trkpt>
      <trkpt lat="47.54572" lon="-2.17311">
        <ele>10.9</ele>
        <time>2021-08-14T13:53:56Z</time>
      </trkpt>
      <trkpt lat="47.54575" lon="-2.17308">
        <ele>10.9</ele>
        <time>2021-08-14T13:53:58Z</time>
      </trkpt>
      <trkpt lat="47.54579" lon="-2.17308">
        <ele>11</ele>
        <time>2021-08-14T13:53:59Z</time>
      </trkpt>
      <trkpt lat="47.54581" lon="-2.17307">
        <ele>11</ele>
        <time>2021-08-14T13:54:00Z</time>
      </trkpt>
      <trkpt lat="47.54583" lon="-2.17307">
        <ele>11.1</ele>
        <time>2021-08-14T13:54:01Z</time>
      </trkpt>
      <trkpt lat="47.54584" lon="-2.17306">
        <ele>11.1</ele>
        <time>2021-08-14T13:54:03Z</time>
      </trkpt>
      <trkpt lat="47.54586" lon="-2.17306">
        <ele>11.1</ele>
        <time>2021-08-14T13:54:04Z</time>
      </trkpt>
      <trkpt lat="47.54587" lon="-2.17306">
        <ele>11.1</ele>
        <time>2021-08-14T13:54:05Z</time>
      </trkpt>
      <trkpt lat="47.54588" lon="-2.17306">
        <ele>11.1</ele>
        <time>2021-08-14T13:54:07Z</time>
      </trkpt>
      <trkpt lat="47.5459" lon="-2.17306">
        <ele>11.2</ele>
        <time>2021-08-14T13:54:08Z</time>
      </trkpt>
      <trkpt lat="47.54592" lon="-2.17306">
        <ele>11.2</ele>
        <time>2021-08-14T13:54:10Z</time>
      </trkpt>
      <trkpt lat="47.54593" lon="-2.17306">
        <ele>11.2</ele>
        <time>2021-08-14T13:54:11Z</time>
      </trkpt>
      <trkpt lat="47.54595" lon="-2.17306">
        <ele>11.3</ele>
        <time>2021-08-14T13:54:12Z</time>
      </trkpt>
      <trkpt lat="47.54596" lon="-2.17306">
        <ele>11.3</ele>
        <time>2021-08-14T13:54:13Z</time>
      </trkpt>
      <trkpt lat="47.54597" lon="-2.17306">
        <ele>11.3</ele>
        <time>2021-08-14T13:54:15Z</time>
      </trkpt>
      <trkpt lat="47.546" lon="-2.17306">
        <ele>11.4</ele>
        <time>2021-08-14T13:54:17Z</time>
      </trkpt>
      <trkpt lat="47.54602" lon="-2.17305">
        <ele>11.4</ele>
        <time>2021-08-14T13:54:18Z</time>
      </trkpt>
      <trkpt lat="47.54606" lon="-2.17304">
        <ele>11.5</ele>
        <time>2021-08-14T13:54:20Z</time>
      </trkpt>
      <trkpt lat="47.54607" lon="-2.17304">
        <ele>11.5</ele>
        <time>2021-08-14T13:54:21Z</time>
      </trkpt>
      <trkpt lat="47.54612" lon="-2.17302">
        <ele>11.6</ele>
        <time>2021-08-14T13:54:23Z</time>
      </trkpt>
      <trkpt lat="47.54613" lon="-2.17302">
        <ele>11.6</ele>
        <time>2021-08-14T13:54:25Z</time>
      </trkpt>
      <trkpt lat="47.54614" lon="-2.17302">
        <ele>11.6</ele>
        <time>2021-08-14T13:54:26Z</time>
      </trkpt>
      <trkpt lat="47.54616" lon="-2.17303">
        <ele>11.6</ele>
        <time>2021-08-14T13:54:28Z</time>
      </trkpt>
      <trkpt lat="47.54616" lon="-2.17302">
        <ele>11.6</ele>
        <time>2021-08-14T13:54:29Z</time>
      </trkpt>
      <trkpt lat="47.54617" lon="-2.17302">
        <ele>11.6</ele>
        <time>2021-08-14T13:54:30Z</time>
      </trkpt>
      <trkpt lat="47.54619" lon="-2.17302">
        <ele>11.6</ele>
        <time>2021-08-14T13:54:32Z</time>
      </trkpt>
      <trkpt lat="47.54622" lon="-2.17302">
        <ele>11.6</ele>
        <time>2021-08-14T13:54:33Z</time>
      </trkpt>
      <trkpt lat="47.54625" lon="-2.17301">
        <ele>11.6</ele>
        <time>2021-08-14T13:54:35Z</time>
      </trkpt>
      <trkpt lat="47.54628" lon="-2.17302">
        <ele>11.6</ele>
        <time>2021-08-14T13:54:36Z</time>
      </trkpt>
      <trkpt lat="47.54631" lon="-2.17303">
        <ele>11.6</ele>
        <time>2021-08-14T13:54:37Z</time>
      </trkpt>
      <trkpt lat="47.54632" lon="-2.17303">
        <ele>11.6</ele>
        <time>2021-08-14T13:54:38Z</time>
      </trkpt>
      <trkpt lat="47.54636" lon="-2.17302">
        <ele>11.6</ele>
        <time>2021-08-14T13:54:39Z</time>
      </trkpt>
      <trkpt lat="47.54637" lon="-2.17302">
        <ele>11.6</ele>
        <time>2021-08-14T13:54:41Z</time>
      </trkpt>
      <trkpt lat="47.54639" lon="-2.17302">
        <ele>11.5</ele>
        <time>2021-08-14T13:54:42Z</time>
      </trkpt>
      <trkpt lat="47.5464" lon="-2.17302">
        <ele>11.5</ele>
        <time>2021-08-14T13:54:43Z</time>
      </trkpt>
      <trkpt lat="47.54641" lon="-2.17301">
        <ele>11.5</ele>
        <time>2021-08-14T13:54:45Z</time>
      </trkpt>
      <trkpt lat="47.54642" lon="-2.17301">
        <ele>11.5</ele>
        <time>2021-08-14T13:54:46Z</time>
      </trkpt>
      <trkpt lat="47.54643" lon="-2.173">
        <ele>11.5</ele>
        <time>2021-08-14T13:54:48Z</time>
      </trkpt>
      <trkpt lat="47.54643" lon="-2.173">
        <ele>11.5</ele>
        <time>2021-08-14T13:54:49Z</time>
      </trkpt>
      <trkpt lat="47.54645" lon="-2.17299">
        <ele>11.5</ele>
        <time>2021-08-14T13:54:51Z</time>
      </trkpt>
      <trkpt lat="47.54646" lon="-2.17298">
        <ele>11.5</ele>
        <time>2021-08-14T13:54:52Z</time>
      </trkpt>
      <trkpt lat="47.54649" lon="-2.17298">
        <ele>11.5</ele>
        <time>2021-08-14T13:54:53Z</time>
      </trkpt>
      <trkpt lat="47.5465" lon="-2.17298">
        <ele>11.5</ele>
        <time>2021-08-14T13:54:55Z</time>
      </trkpt>
      <trkpt lat="47.54651" lon="-2.17297">
        <ele>11.5</ele>
        <time>2021-08-14T13:54:56Z</time>
      </trkpt>
      <trkpt lat="47.54652" lon="-2.17297">
        <ele>11.5</ele>
        <time>2021-08-14T13:54:57Z</time>
      </trkpt>
      <trkpt lat="47.54653" lon="-2.17297">
        <ele>11.5</ele>
        <time>2021-08-14T13:54:58Z</time>
      </trkpt>
      <trkpt lat="47.54657" lon="-2.17296">
        <ele>11.5</ele>
        <time>2021-08-14T13:55:00Z</time>
      </trkpt>
      <trkpt lat="47.5466" lon="-2.17294">
        <ele>11.6</ele>
        <time>2021-08-14T13:55:01Z</time>
      </trkpt>
      <trkpt lat="47.54663" lon="-2.17293">
        <ele>11.6</ele>
        <time>2021-08-14T13:55:03Z</time>
      </trkpt>
      <trkpt lat="47.54664" lon="-2.17292">
        <ele>11.6</ele>
        <time>2021-08-14T13:55:04Z</time>
      </trkpt>
      <trkpt lat="47.54665" lon="-2.17292">
        <ele>11.6</ele>
        <time>2021-08-14T13:55:06Z</time>
      </trkpt>
      <trkpt lat="47.54666" lon="-2.17292">
        <ele>11.6</ele>
        <time>2021-08-14T13:55:08Z</time>
      </trkpt>
      <trkpt lat="47.54667" lon="-2.17291">
        <ele>11.6</ele>
        <time>2021-08-14T13:55:09Z</time>
      </trkpt>
      <trkpt lat="47.54667" lon="-2.17292">
        <ele>11.6</ele>
        <time>2021-08-14T13:55:10Z</time>
      </trkpt>
      <trkpt lat="47.54668" lon="-2.17291">
        <ele>11.7</ele>
        <time>2021-08-14T13:55:11Z</time>
      </trkpt>
      <trkpt lat="47.5467" lon="-2.17291">
        <ele>11.8</ele>
        <time>2021-08-14T13:55:13Z</time>
      </trkpt>
      <trkpt lat="47.54672" lon="-2.17291">
        <ele>11.8</ele>
        <time>2021-08-14T13:55:14Z</time>
      </trkpt>
      <trkpt lat="47.54674" lon="-2.1729">
        <ele>11.9</ele>
        <time>2021-08-14T13:55:15Z</time>
      </trkpt>
      <trkpt lat="47.54674" lon="-2.1729">
        <ele>11.9</ele>
        <time>2021-08-14T13:55:16Z</time>
      </trkpt>
      <trkpt lat="47.54674" lon="-2.1729">
        <ele>11.9</ele>
        <time>2021-08-14T13:55:18Z</time>
      </trkpt>
      <trkpt lat="47.54675" lon="-2.17289">
        <ele>11.9</ele>
        <time>2021-08-14T13:55:19Z</time>
      </trkpt>
      <trkpt lat="47.54677" lon="-2.17287">
        <ele>12</ele>
        <time>2021-08-14T13:55:21Z</time>
      </trkpt>
      <trkpt lat="47.5468" lon="-2.17285">
        <ele>12</ele>
        <time>2021-08-14T13:55:22Z</time>
      </trkpt>
      <trkpt lat="47.54684" lon="-2.17283">
        <ele>12.1</ele>
        <time>2021-08-14T13:55:24Z</time>
      </trkpt>
      <trkpt lat="47.54687" lon="-2.1728">
        <ele>12.1</ele>
        <time>2021-08-14T13:55:25Z</time>
      </trkpt>
      <trkpt lat="47.54688" lon="-2.17279">
        <ele>12.1</ele>
        <time>2021-08-14T13:55:26Z</time>
      </trkpt>
      <trkpt lat="47.5469" lon="-2.17277">
        <ele>12.1</ele>
        <time>2021-08-14T13:55:27Z</time>
      </trkpt>
      <trkpt lat="47.54693" lon="-2.17275">
        <ele>12.1</ele>
        <time>2021-08-14T13:55:29Z</time>
      </trkpt>
      <trkpt lat="47.54696" lon="-2.17272">
        <ele>12.1</ele>
        <time>2021-08-14T13:55:30Z</time>
      </trkpt>
      <trkpt lat="47.54697" lon="-2.17271">
        <ele>12.1</ele>
        <time>2021-08-14T13:55:31Z</time>
      </trkpt>
      <trkpt lat="47.54698" lon="-2.1727">
        <ele>12.1</ele>
        <time>2021-08-14T13:55:32Z</time>
      </trkpt>
      <trkpt lat="47.54699" lon="-2.17269">
        <ele>12.1</ele>
        <time>2021-08-14T13:55:33Z</time>
      </trkpt>
      <trkpt lat="47.54703" lon="-2.17266">
        <ele>12</ele>
        <time>2021-08-14T13:55:35Z</time>
      </trkpt>
      <trkpt lat="47.54705" lon="-2.17266">
        <ele>12</ele>
        <time>2021-08-14T13:55:37Z</time>
      </trkpt>
      <trkpt lat="47.54706" lon="-2.17265">
        <ele>12</ele>
        <time>2021-08-14T13:55:38Z</time>
      </trkpt>
      <trkpt lat="47.54709" lon="-2.17264">
        <ele>12</ele>
        <time>2021-08-14T13:55:40Z</time>
      </trkpt>
      <trkpt lat="47.5471" lon="-2.17264">
        <ele>12</ele>
        <time>2021-08-14T13:55:41Z</time>
      </trkpt>
      <trkpt lat="47.54711" lon="-2.17264">
        <ele>12</ele>
        <time>2021-08-14T13:55:42Z</time>
      </trkpt>
      <trkpt lat="47.54712" lon="-2.17264">
        <ele>12</ele>
        <time>2021-08-14T13:55:44Z</time>
      </trkpt>
      <trkpt lat="47.54713" lon="-2.17264">
        <ele>12</ele>
        <time>2021-08-14T13:55:45Z</time>
      </trkpt>
      <trkpt lat="47.54717" lon="-2.17265">
        <ele>11.9</ele>
        <time>2021-08-14T13:55:46Z</time>
      </trkpt>
      <trkpt lat="47.5472" lon="-2.17264">
        <ele>11.9</ele>
        <time>2021-08-14T13:55:47Z</time>
      </trkpt>
      <trkpt lat="47.54723" lon="-2.17263">
        <ele>11.9</ele>
        <time>2021-08-14T13:55:49Z</time>
      </trkpt>
      <trkpt lat="47.54726" lon="-2.17263">
        <ele>11.9</ele>
        <time>2021-08-14T13:55:51Z</time>
      </trkpt>
      <trkpt lat="47.54729" lon="-2.17262">
        <ele>11.8</ele>
        <time>2021-08-14T13:55:53Z</time>
      </trkpt>
      <trkpt lat="47.54732" lon="-2.17262">
        <ele>11.8</ele>
        <time>2021-08-14T13:55:54Z</time>
      </trkpt>
      <trkpt lat="47.54733" lon="-2.17262">
        <ele>11.8</ele>
        <time>2021-08-14T13:55:55Z</time>
      </trkpt>
      <trkpt lat="47.54735" lon="-2.17263">
        <ele>11.8</ele>
        <time>2021-08-14T13:55:56Z</time>
      </trkpt>
      <trkpt lat="47.54738" lon="-2.17263">
        <ele>11.8</ele>
        <time>2021-08-14T13:55:58Z</time>
      </trkpt>
      <trkpt lat="47.54742" lon="-2.17263">
        <ele>11.8</ele>
        <time>2021-08-14T13:55:59Z</time>
      </trkpt>
      <trkpt lat="47.54743" lon="-2.17263">
        <ele>11.8</ele>
        <time>2021-08-14T13:56:00Z</time>
      </trkpt>
      <trkpt lat="47.54745" lon="-2.17263">
        <ele>11.8</ele>
        <time>2021-08-14T13:56:02Z</time>
      </trkpt>
      <trkpt lat="47.54746" lon="-2.17263">
        <ele>11.8</ele>
        <time>2021-08-14T13:56:03Z</time>
      </trkpt>
      <trkpt lat="47.54749" lon="-2.17263">
        <ele>11.9</ele>
        <time>2021-08-14T13:56:04Z</time>
      </trkpt>
      <trkpt lat="47.54752" lon="-2.17262">
        <ele>11.9</ele>
        <time>2021-08-14T13:56:06Z</time>
      </trkpt>
      <trkpt lat="47.54754" lon="-2.17262">
        <ele>12</ele>
        <time>2021-08-14T13:56:07Z</time>
      </trkpt>
      <trkpt lat="47.54756" lon="-2.1726">
        <ele>12</ele>
        <time>2021-08-14T13:56:09Z</time>
      </trkpt>
      <trkpt lat="47.54757" lon="-2.17258">
        <ele>12.1</ele>
        <time>2021-08-14T13:56:10Z</time>
      </trkpt>
      <trkpt lat="47.54759" lon="-2.17255">
        <ele>12.2</ele>
        <time>2021-08-14T13:56:12Z</time>
      </trkpt>
      <trkpt lat="47.54759" lon="-2.17254">
        <ele>12.2</ele>
        <time>2021-08-14T13:56:13Z</time>
      </trkpt>
      <trkpt lat="47.5476" lon="-2.17253">
        <ele>12.2</ele>
        <time>2021-08-14T13:56:14Z</time>
      </trkpt>
      <trkpt lat="47.54762" lon="-2.17252">
        <ele>12.3</ele>
        <time>2021-08-14T13:56:16Z</time>
      </trkpt>
      <trkpt lat="47.54763" lon="-2.17252">
        <ele>12.4</ele>
        <time>2021-08-14T13:56:17Z</time>
      </trkpt>
      <trkpt lat="47.54764" lon="-2.17253">
        <ele>12.5</ele>
        <time>2021-08-14T13:56:19Z</time>
      </trkpt>
      <trkpt lat="47.54764" lon="-2.17254">
        <ele>12.5</ele>
        <time>2021-08-14T13:56:20Z</time>
      </trkpt>
      <trkpt lat="47.54764" lon="-2.17253">
        <ele>12.5</ele>
        <time>2021-08-14T13:56:22Z</time>
      </trkpt>
      <trkpt lat="47.54764" lon="-2.17254">
        <ele>12.5</ele>
        <time>2021-08-14T13:56:23Z</time>
      </trkpt>
      <trkpt lat="47.54765" lon="-2.17254">
        <ele>12.5</ele>
        <time>2021-08-14T13:56:25Z</time>
      </trkpt>
      <trkpt lat="47.54765" lon="-2.17254">
        <ele>12.6</ele>
        <time>2021-08-14T13:56:26Z</time>
      </trkpt>
      <trkpt lat="47.54766" lon="-2.17254">
        <ele>12.6</ele>
        <time>2021-08-14T13:56:28Z</time>
      </trkpt>
      <trkpt lat="47.54767" lon="-2.17255">
        <ele>12.7</ele>
        <time>2021-08-14T13:56:29Z</time>
      </trkpt>
      <trkpt lat="47.54769" lon="-2.17255">
        <ele>12.8</ele>
        <time>2021-08-14T13:56:30Z</time>
      </trkpt>
      <trkpt lat="47.54771" lon="-2.17256">
        <ele>13</ele>
        <time>2021-08-14T13:56:32Z</time>
      </trkpt>
      <trkpt lat="47.54773" lon="-2.17256">
        <ele>13.2</ele>
        <time>2021-08-14T13:56:34Z</time>
      </trkpt>
      <trkpt lat="47.54775" lon="-2.17256">
        <ele>13.4</ele>
        <time>2021-08-14T13:56:36Z</time>
      </trkpt>
      <trkpt lat="47.54778" lon="-2.17255">
        <ele>13.6</ele>
        <time>2021-08-14T13:56:37Z</time>
      </trkpt>
      <trkpt lat="47.54779" lon="-2.17255">
        <ele>13.8</ele>
        <time>2021-08-14T13:56:39Z</time>
      </trkpt>
      <trkpt lat="47.5478" lon="-2.17255">
        <ele>13.9</ele>
        <time>2021-08-14T13:56:40Z</time>
      </trkpt>
      <trkpt lat="47.54782" lon="-2.17255">
        <ele>14.1</ele>
        <time>2021-08-14T13:56:41Z</time>
      </trkpt>
      <trkpt lat="47.54783" lon="-2.17255">
        <ele>14.3</ele>
        <time>2021-08-14T13:56:43Z</time>
      </trkpt>
      <trkpt lat="47.54785" lon="-2.17255">
        <ele>14.5</ele>
        <time>2021-08-14T13:56:44Z</time>
      </trkpt>
      <trkpt lat="47.54785" lon="-2.17255">
        <ele>14.5</ele>
        <time>2021-08-14T13:56:46Z</time>
      </trkpt>
      <trkpt lat="47.54785" lon="-2.17254">
        <ele>14.6</ele>
        <time>2021-08-14T13:56:48Z</time>
      </trkpt>
      <trkpt lat="47.54786" lon="-2.17254">
        <ele>14.7</ele>
        <time>2021-08-14T13:56:50Z</time>
      </trkpt>
      <trkpt lat="47.54787" lon="-2.17254">
        <ele>14.7</ele>
        <time>2021-08-14T13:56:51Z</time>
      </trkpt>
      <trkpt lat="47.54787" lon="-2.17253">
        <ele>14.8</ele>
        <time>2021-08-14T13:56:53Z</time>
      </trkpt>
      <trkpt lat="47.54787" lon="-2.17253">
        <ele>14.9</ele>
        <time>2021-08-14T13:56:54Z</time>
      </trkpt>
      <trkpt lat="47.54788" lon="-2.17253">
        <ele>14.9</ele>
        <time>2021-08-14T13:56:56Z</time>
      </trkpt>
      <trkpt lat="47.54789" lon="-2.17253">
        <ele>15</ele>
        <time>2021-08-14T13:56:58Z</time>
      </trkpt>
      <trkpt lat="47.54789" lon="-2.17253">
        <ele>15.1</ele>
        <time>2021-08-14T13:57:00Z</time>
      </trkpt>
      <trkpt lat="47.5479" lon="-2.17254">
        <ele>15.2</ele>
        <time>2021-08-14T13:57:01Z</time>
      </trkpt>
      <trkpt lat="47.54791" lon="-2.17254">
        <ele>15.4</ele>
        <time>2021-08-14T13:57:03Z</time>
      </trkpt>
      <trkpt lat="47.54792" lon="-2.17254">
        <ele>15.4</ele>
        <time>2021-08-14T13:57:04Z</time>
      </trkpt>
      <trkpt lat="47.54792" lon="-2.17254">
        <ele>15.5</ele>
        <time>2021-08-14T13:57:06Z</time>
      </trkpt>
      <trkpt lat="47.54792" lon="-2.17254">
        <ele>15.5</ele>
        <time>2021-08-14T13:57:07Z</time>
      </trkpt>
      <trkpt lat="47.54793" lon="-2.17254">
        <ele>15.6</ele>
        <time>2021-08-14T13:57:09Z</time>
      </trkpt>
      <trkpt lat="47.54793" lon="-2.17254">
        <ele>15.6</ele>
        <time>2021-08-14T13:57:10Z</time>
      </trkpt>
      <trkpt lat="47.54793" lon="-2.17254">
        <ele>15.7</ele>
        <time>2021-08-14T13:57:11Z</time>
      </trkpt>
      <trkpt lat="47.54794" lon="-2.17254">
        <ele>15.7</ele>
        <time>2021-08-14T13:57:12Z</time>
      </trkpt>
      <trkpt lat="47.54795" lon="-2.17253">
        <ele>15.8</ele>
        <time>2021-08-14T13:57:14Z</time>
      </trkpt>
      <trkpt lat="47.54796" lon="-2.17251">
        <ele>16.1</ele>
        <time>2021-08-14T13:57:18Z</time>
      </trkpt>
      <trkpt lat="47.54797" lon="-2.17251">
        <ele>16.2</ele>
        <time>2021-08-14T13:57:19Z</time>
      </trkpt>
      <trkpt lat="47.54798" lon="-2.1725">
        <ele>16.3</ele>
        <time>2021-08-14T13:57:20Z</time>
      </trkpt>
      <trkpt lat="47.54798" lon="-2.1725">
        <ele>16.4</ele>
        <time>2021-08-14T13:57:21Z</time>
      </trkpt>
      <trkpt lat="47.54799" lon="-2.17249">
        <ele>16.5</ele>
        <time>2021-08-14T13:57:23Z</time>
      </trkpt>
      <trkpt lat="47.548" lon="-2.17249">
        <ele>16.6</ele>
        <time>2021-08-14T13:57:24Z</time>
      </trkpt>
      <trkpt lat="47.54801" lon="-2.17249">
        <ele>16.7</ele>
        <time>2021-08-14T13:57:26Z</time>
      </trkpt>
      <trkpt lat="47.54801" lon="-2.17248">
        <ele>16.8</ele>
        <time>2021-08-14T13:57:27Z</time>
      </trkpt>
      <trkpt lat="47.54802" lon="-2.17248">
        <ele>16.8</ele>
        <time>2021-08-14T13:57:28Z</time>
      </trkpt>
      <trkpt lat="47.54803" lon="-2.17248">
        <ele>16.9</ele>
        <time>2021-08-14T13:57:30Z</time>
      </trkpt>
      <trkpt lat="47.54803" lon="-2.17247">
        <ele>17</ele>
        <time>2021-08-14T13:57:31Z</time>
      </trkpt>
      <trkpt lat="47.54804" lon="-2.17246">
        <ele>17.1</ele>
        <time>2021-08-14T13:57:32Z</time>
      </trkpt>
      <trkpt lat="47.54805" lon="-2.17245">
        <ele>17.2</ele>
        <time>2021-08-14T13:57:34Z</time>
      </trkpt>
      <trkpt lat="47.54806" lon="-2.17244">
        <ele>17.4</ele>
        <time>2021-08-14T13:57:36Z</time>
      </trkpt>
      <trkpt lat="47.54806" lon="-2.17244">
        <ele>17.4</ele>
        <time>2021-08-14T13:57:37Z</time>
      </trkpt>
      <trkpt lat="47.54807" lon="-2.17244">
        <ele>17.6</ele>
        <time>2021-08-14T13:57:39Z</time>
      </trkpt>
      <trkpt lat="47.54809" lon="-2.17244">
        <ele>17.7</ele>
        <time>2021-08-14T13:57:41Z</time>
      </trkpt>
      <trkpt lat="47.5481" lon="-2.17244">
        <ele>17.9</ele>
        <time>2021-08-14T13:57:42Z</time>
      </trkpt>
      <trkpt lat="47.54811" lon="-2.17244">
        <ele>18</ele>
        <time>2021-08-14T13:57:44Z</time>
      </trkpt>
      <trkpt lat="47.54813" lon="-2.17244">
        <ele>18.2</ele>
        <time>2021-08-14T13:57:45Z</time>
      </trkpt>
      <trkpt lat="47.54814" lon="-2.17244">
        <ele>18.4</ele>
        <time>2021-08-14T13:57:47Z</time>
      </trkpt>
      <trkpt lat="47.54816" lon="-2.17244">
        <ele>18.6</ele>
        <time>2021-08-14T13:57:49Z</time>
      </trkpt>
      <trkpt lat="47.54817" lon="-2.17245">
        <ele>18.7</ele>
        <time>2021-08-14T13:57:51Z</time>
      </trkpt>
      <trkpt lat="47.54818" lon="-2.17245">
        <ele>18.8</ele>
        <time>2021-08-14T13:57:53Z</time>
      </trkpt>
      <trkpt lat="47.54819" lon="-2.17244">
        <ele>18.9</ele>
        <time>2021-08-14T13:57:55Z</time>
      </trkpt>
      <trkpt lat="47.5482" lon="-2.17244">
        <ele>18.9</ele>
        <time>2021-08-14T13:57:56Z</time>
      </trkpt>
      <trkpt lat="47.5482" lon="-2.17244">
        <ele>19</ele>
        <time>2021-08-14T13:57:58Z</time>
      </trkpt>
      <trkpt lat="47.54821" lon="-2.17244">
        <ele>19.1</ele>
        <time>2021-08-14T13:57:59Z</time>
      </trkpt>
      <trkpt lat="47.54822" lon="-2.17244">
        <ele>19.2</ele>
        <time>2021-08-14T13:58:01Z</time>
      </trkpt>
      <trkpt lat="47.54822" lon="-2.17245">
        <ele>19.2</ele>
        <time>2021-08-14T13:58:02Z</time>
      </trkpt>
      <trkpt lat="47.54822" lon="-2.17244">
        <ele>19.3</ele>
        <time>2021-08-14T13:58:04Z</time>
      </trkpt>
      <trkpt lat="47.54823" lon="-2.17244">
        <ele>19.3</ele>
        <time>2021-08-14T13:58:05Z</time>
      </trkpt>
      <trkpt lat="47.54823" lon="-2.17244">
        <ele>19.3</ele>
        <time>2021-08-14T13:58:07Z</time>
      </trkpt>
      <trkpt lat="47.54823" lon="-2.17243">
        <ele>19.4</ele>
        <time>2021-08-14T13:58:08Z</time>
      </trkpt>
      <trkpt lat="47.54823" lon="-2.17243">
        <ele>19.4</ele>
        <time>2021-08-14T13:58:10Z</time>
      </trkpt>
      <trkpt lat="47.54823" lon="-2.17243">
        <ele>19.4</ele>
        <time>2021-08-14T13:58:11Z</time>
      </trkpt>
      <trkpt lat="47.54826" lon="-2.17245">
        <ele>19.7</ele>
        <time>2021-08-14T13:58:18Z</time>
      </trkpt>
      <trkpt lat="47.54827" lon="-2.17245">
        <ele>19.9</ele>
        <time>2021-08-14T13:58:19Z</time>
      </trkpt>
      <trkpt lat="47.54829" lon="-2.17246">
        <ele>20.1</ele>
        <time>2021-08-14T13:58:21Z</time>
      </trkpt>
      <trkpt lat="47.54832" lon="-2.17246">
        <ele>20.4</ele>
        <time>2021-08-14T13:58:22Z</time>
      </trkpt>
      <trkpt lat="47.54833" lon="-2.17246">
        <ele>20.5</ele>
        <time>2021-08-14T13:58:23Z</time>
      </trkpt>
      <trkpt lat="47.54833" lon="-2.17246">
        <ele>20.5</ele>
        <time>2021-08-14T13:58:25Z</time>
      </trkpt>
      <trkpt lat="47.54834" lon="-2.17246">
        <ele>20.6</ele>
        <time>2021-08-14T13:58:27Z</time>
      </trkpt>
      <trkpt lat="47.54834" lon="-2.17246">
        <ele>20.6</ele>
        <time>2021-08-14T13:58:28Z</time>
      </trkpt>
      <trkpt lat="47.54835" lon="-2.17246">
        <ele>20.7</ele>
        <time>2021-08-14T13:58:30Z</time>
      </trkpt>
      <trkpt lat="47.54835" lon="-2.17246">
        <ele>20.7</ele>
        <time>2021-08-14T13:58:31Z</time>
      </trkpt>
      <trkpt lat="47.54836" lon="-2.17246">
        <ele>20.8</ele>
        <time>2021-08-14T13:58:33Z</time>
      </trkpt>
      <trkpt lat="47.54836" lon="-2.17246">
        <ele>20.8</ele>
        <time>2021-08-14T13:58:35Z</time>
      </trkpt>
      <trkpt lat="47.54836" lon="-2.17246">
        <ele>20.9</ele>
        <time>2021-08-14T13:58:36Z</time>
      </trkpt>
      <trkpt lat="47.54837" lon="-2.17246">
        <ele>20.9</ele>
        <time>2021-08-14T13:58:37Z</time>
      </trkpt>
      <trkpt lat="47.54837" lon="-2.17246">
        <ele>21</ele>
        <time>2021-08-14T13:58:42Z</time>
      </trkpt>
      <trkpt lat="47.54838" lon="-2.17246">
        <ele>21</ele>
        <time>2021-08-14T13:58:44Z</time>
      </trkpt>
      <trkpt lat="47.54838" lon="-2.17246">
        <ele>21.1</ele>
        <time>2021-08-14T13:58:46Z</time>
      </trkpt>
      <trkpt lat="47.54839" lon="-2.17246">
        <ele>21.1</ele>
        <time>2021-08-14T13:58:47Z</time>
      </trkpt>
      <trkpt lat="47.54839" lon="-2.17246">
        <ele>21.2</ele>
        <time>2021-08-14T13:58:48Z</time>
      </trkpt>
      <trkpt lat="47.54841" lon="-2.17244">
        <ele>21.4</ele>
        <time>2021-08-14T13:58:49Z</time>
      </trkpt>
      <trkpt lat="47.54842" lon="-2.17244">
        <ele>21.6</ele>
        <time>2021-08-14T13:58:51Z</time>
      </trkpt>
      <trkpt lat="47.54843" lon="-2.17243">
        <ele>21.7</ele>
        <time>2021-08-14T13:58:52Z</time>
      </trkpt>
      <trkpt lat="47.54844" lon="-2.17242">
        <ele>21.8</ele>
        <time>2021-08-14T13:58:54Z</time>
      </trkpt>
      <trkpt lat="47.54845" lon="-2.17242">
        <ele>22</ele>
        <time>2021-08-14T13:58:55Z</time>
      </trkpt>
      <trkpt lat="47.54847" lon="-2.17241">
        <ele>22.2</ele>
        <time>2021-08-14T13:58:57Z</time>
      </trkpt>
      <trkpt lat="47.54848" lon="-2.17241">
        <ele>22.3</ele>
        <time>2021-08-14T13:58:58Z</time>
      </trkpt>
      <trkpt lat="47.54849" lon="-2.1724">
        <ele>22.4</ele>
        <time>2021-08-14T13:59:00Z</time>
      </trkpt>
      <trkpt lat="47.5485" lon="-2.1724">
        <ele>22.6</ele>
        <time>2021-08-14T13:59:02Z</time>
      </trkpt>
      <trkpt lat="47.54851" lon="-2.17239">
        <ele>22.6</ele>
        <time>2021-08-14T13:59:03Z</time>
      </trkpt>
      <trkpt lat="47.54852" lon="-2.17238">
        <ele>22.7</ele>
        <time>2021-08-14T13:59:04Z</time>
      </trkpt>
      <trkpt lat="47.54852" lon="-2.17237">
        <ele>22.8</ele>
        <time>2021-08-14T13:59:05Z</time>
      </trkpt>
      <trkpt lat="47.54853" lon="-2.17236">
        <ele>23</ele>
        <time>2021-08-14T13:59:07Z</time>
      </trkpt>
      <trkpt lat="47.54854" lon="-2.17234">
        <ele>23.1</ele>
        <time>2021-08-14T13:59:08Z</time>
      </trkpt>
      <trkpt lat="47.54855" lon="-2.17233">
        <ele>23.2</ele>
        <time>2021-08-14T13:59:09Z</time>
      </trkpt>
      <trkpt lat="47.54855" lon="-2.17232">
        <ele>23.3</ele>
        <time>2021-08-14T13:59:11Z</time>
      </trkpt>
      <trkpt lat="47.54856" lon="-2.17231">
        <ele>23.4</ele>
        <time>2021-08-14T13:59:12Z</time>
      </trkpt>
      <trkpt lat="47.54857" lon="-2.17231">
        <ele>23.5</ele>
        <time>2021-08-14T13:59:14Z</time>
      </trkpt>
      <trkpt lat="47.54858" lon="-2.1723">
        <ele>23.5</ele>
        <time>2021-08-14T13:59:16Z</time>
      </trkpt>
      <trkpt lat="47.54858" lon="-2.17229">
        <ele>23.6</ele>
        <time>2021-08-14T13:59:17Z</time>
      </trkpt>
      <trkpt lat="47.54859" lon="-2.17228">
        <ele>23.7</ele>
        <time>2021-08-14T13:59:19Z</time>
      </trkpt>
      <trkpt lat="47.5486" lon="-2.17228">
        <ele>23.8</ele>
        <time>2021-08-14T13:59:20Z</time>
      </trkpt>
      <trkpt lat="47.5486" lon="-2.17227">
        <ele>23.8</ele>
        <time>2021-08-14T13:59:22Z</time>
      </trkpt>
      <trkpt lat="47.54861" lon="-2.17226">
        <ele>23.9</ele>
        <time>2021-08-14T13:59:23Z</time>
      </trkpt>
      <trkpt lat="47.54862" lon="-2.17225">
        <ele>24</ele>
        <time>2021-08-14T13:59:25Z</time>
      </trkpt>
      <trkpt lat="47.54863" lon="-2.17225">
        <ele>24</ele>
        <time>2021-08-14T13:59:26Z</time>
      </trkpt>
      <trkpt lat="47.54863" lon="-2.17224">
        <ele>24.1</ele>
        <time>2021-08-14T13:59:28Z</time>
      </trkpt>
      <trkpt lat="47.54864" lon="-2.17223">
        <ele>24.1</ele>
        <time>2021-08-14T13:59:30Z</time>
      </trkpt>
      <trkpt lat="47.54865" lon="-2.17222">
        <ele>24.2</ele>
        <time>2021-08-14T13:59:32Z</time>
      </trkpt>
      <trkpt lat="47.54865" lon="-2.17221">
        <ele>24.2</ele>
        <time>2021-08-14T14:00:19Z</time>
      </trkpt>
      <trkpt lat="47.54866" lon="-2.17221">
        <ele>24.3</ele>
        <time>2021-08-14T14:00:20Z</time>
      </trkpt>
      <trkpt lat="47.54867" lon="-2.1722">
        <ele>24.3</ele>
        <time>2021-08-14T14:00:21Z</time>
      </trkpt>
      <trkpt lat="47.54867" lon="-2.17218">
        <ele>24.4</ele>
        <time>2021-08-14T14:00:23Z</time>
      </trkpt>
      <trkpt lat="47.54868" lon="-2.17217">
        <ele>24.4</ele>
        <time>2021-08-14T14:00:24Z</time>
      </trkpt>
      <trkpt lat="47.5487" lon="-2.17211">
        <ele>24.6</ele>
        <time>2021-08-14T14:00:26Z</time>
      </trkpt>
      <trkpt lat="47.54871" lon="-2.17209">
        <ele>24.6</ele>
        <time>2021-08-14T14:00:27Z</time>
      </trkpt>
      <trkpt lat="47.54873" lon="-2.17206">
        <ele>24.7</ele>
        <time>2021-08-14T14:00:29Z</time>
      </trkpt>
      <trkpt lat="47.54875" lon="-2.17204">
        <ele>24.7</ele>
        <time>2021-08-14T14:00:30Z</time>
      </trkpt>
      <trkpt lat="47.54877" lon="-2.17202">
        <ele>24.8</ele>
        <time>2021-08-14T14:00:32Z</time>
      </trkpt>
      <trkpt lat="47.54878" lon="-2.17201">
        <ele>24.8</ele>
        <time>2021-08-14T14:00:33Z</time>
      </trkpt>
      <trkpt lat="47.54879" lon="-2.172">
        <ele>24.8</ele>
        <time>2021-08-14T14:00:34Z</time>
      </trkpt>
      <trkpt lat="47.54879" lon="-2.17198">
        <ele>24.8</ele>
        <time>2021-08-14T14:00:35Z</time>
      </trkpt>
      <trkpt lat="47.5488" lon="-2.17196">
        <ele>24.8</ele>
        <time>2021-08-14T14:00:36Z</time>
      </trkpt>
      <trkpt lat="47.5488" lon="-2.17195">
        <ele>24.8</ele>
        <time>2021-08-14T14:00:37Z</time>
      </trkpt>
      <trkpt lat="47.54882" lon="-2.17193">
        <ele>24.8</ele>
        <time>2021-08-14T14:00:39Z</time>
      </trkpt>
      <trkpt lat="47.54883" lon="-2.17192">
        <ele>24.8</ele>
        <time>2021-08-14T14:00:41Z</time>
      </trkpt>
      <trkpt lat="47.54884" lon="-2.17189">
        <ele>24.8</ele>
        <time>2021-08-14T14:00:42Z</time>
      </trkpt>
      <trkpt lat="47.54885" lon="-2.17188">
        <ele>24.8</ele>
        <time>2021-08-14T14:00:43Z</time>
      </trkpt>
      <trkpt lat="47.54887" lon="-2.17184">
        <ele>24.7</ele>
        <time>2021-08-14T14:00:45Z</time>
      </trkpt>
      <trkpt lat="47.54888" lon="-2.17182">
        <ele>24.7</ele>
        <time>2021-08-14T14:00:46Z</time>
      </trkpt>
      <trkpt lat="47.54889" lon="-2.1718">
        <ele>24.7</ele>
        <time>2021-08-14T14:00:47Z</time>
      </trkpt>
      <trkpt lat="47.54889" lon="-2.17178">
        <ele>24.6</ele>
        <time>2021-08-14T14:00:48Z</time>
      </trkpt>
      <trkpt lat="47.54891" lon="-2.17175">
        <ele>24.6</ele>
        <time>2021-08-14T14:00:50Z</time>
      </trkpt>
      <trkpt lat="47.54892" lon="-2.17171">
        <ele>24.5</ele>
        <time>2021-08-14T14:00:51Z</time>
      </trkpt>
      <trkpt lat="47.54893" lon="-2.17169">
        <ele>24.5</ele>
        <time>2021-08-14T14:00:52Z</time>
      </trkpt>
      <trkpt lat="47.54894" lon="-2.17164">
        <ele>24.4</ele>
        <time>2021-08-14T14:00:54Z</time>
      </trkpt>
      <trkpt lat="47.54896" lon="-2.17159">
        <ele>24.4</ele>
        <time>2021-08-14T14:00:56Z</time>
      </trkpt>
      <trkpt lat="47.54896" lon="-2.17158">
        <ele>24.3</ele>
        <time>2021-08-14T14:00:57Z</time>
      </trkpt>
      <trkpt lat="47.54897" lon="-2.17153">
        <ele>24.3</ele>
        <time>2021-08-14T14:00:58Z</time>
      </trkpt>
      <trkpt lat="47.54897" lon="-2.17152">
        <ele>24.3</ele>
        <time>2021-08-14T14:00:59Z</time>
      </trkpt>
      <trkpt lat="47.54898" lon="-2.17149">
        <ele>24.2</ele>
        <time>2021-08-14T14:01:00Z</time>
      </trkpt>
      <trkpt lat="47.54897" lon="-2.17144">
        <ele>24.2</ele>
        <time>2021-08-14T14:01:02Z</time>
      </trkpt>
      <trkpt lat="47.54897" lon="-2.17138">
        <ele>24.1</ele>
        <time>2021-08-14T14:01:03Z</time>
      </trkpt>
      <trkpt lat="47.54897" lon="-2.17135">
        <ele>24.1</ele>
        <time>2021-08-14T14:01:04Z</time>
      </trkpt>
      <trkpt lat="47.54897" lon="-2.17131">
        <ele>24</ele>
        <time>2021-08-14T14:01:06Z</time>
      </trkpt>
      <trkpt lat="47.54898" lon="-2.17127">
        <ele>24</ele>
        <time>2021-08-14T14:01:08Z</time>
      </trkpt>
      <trkpt lat="47.54898" lon="-2.17124">
        <ele>24</ele>
        <time>2021-08-14T14:01:09Z</time>
      </trkpt>
      <trkpt lat="47.54899" lon="-2.1712">
        <ele>24</ele>
        <time>2021-08-14T14:01:11Z</time>
      </trkpt>
      <trkpt lat="47.54899" lon="-2.17115">
        <ele>23.9</ele>
        <time>2021-08-14T14:01:12Z</time>
      </trkpt>
      <trkpt lat="47.54899" lon="-2.17113">
        <ele>23.9</ele>
        <time>2021-08-14T14:01:13Z</time>
      </trkpt>
      <trkpt lat="47.549" lon="-2.1711">
        <ele>23.9</ele>
        <time>2021-08-14T14:01:14Z</time>
      </trkpt>
      <trkpt lat="47.54901" lon="-2.17106">
        <ele>23.9</ele>
        <time>2021-08-14T14:01:16Z</time>
      </trkpt>
      <trkpt lat="47.54902" lon="-2.17103">
        <ele>23.9</ele>
        <time>2021-08-14T14:01:17Z</time>
      </trkpt>
      <trkpt lat="47.54902" lon="-2.171">
        <ele>23.9</ele>
        <time>2021-08-14T14:01:18Z</time>
      </trkpt>
      <trkpt lat="47.54904" lon="-2.17096">
        <ele>23.9</ele>
        <time>2021-08-14T14:01:20Z</time>
      </trkpt>
      <trkpt lat="47.54906" lon="-2.17092">
        <ele>23.8</ele>
        <time>2021-08-14T14:01:21Z</time>
      </trkpt>
      <trkpt lat="47.54907" lon="-2.17091">
        <ele>23.8</ele>
        <time>2021-08-14T14:01:22Z</time>
      </trkpt>
      <trkpt lat="47.5491" lon="-2.17086">
        <ele>23.8</ele>
        <time>2021-08-14T14:01:24Z</time>
      </trkpt>
      <trkpt lat="47.54911" lon="-2.17084">
        <ele>23.8</ele>
        <time>2021-08-14T14:01:25Z</time>
      </trkpt>
      <trkpt lat="47.54912" lon="-2.17083">
        <ele>23.8</ele>
        <time>2021-08-14T14:01:26Z</time>
      </trkpt>
      <trkpt lat="47.54914" lon="-2.17078">
        <ele>23.8</ele>
        <time>2021-08-14T14:01:28Z</time>
      </trkpt>
      <trkpt lat="47.54915" lon="-2.17074">
        <ele>23.8</ele>
        <time>2021-08-14T14:01:30Z</time>
      </trkpt>
      <trkpt lat="47.54916" lon="-2.17071">
        <ele>23.8</ele>
        <time>2021-08-14T14:01:31Z</time>
      </trkpt>
      <trkpt lat="47.54916" lon="-2.17068">
        <ele>23.8</ele>
        <time>2021-08-14T14:01:33Z</time>
      </trkpt>
      <trkpt lat="47.54916" lon="-2.17066">
        <ele>23.8</ele>
        <time>2021-08-14T14:01:34Z</time>
      </trkpt>
      <trkpt lat="47.54916" lon="-2.17063">
        <ele>23.8</ele>
        <time>2021-08-14T14:01:35Z</time>
      </trkpt>
      <trkpt lat="47.54915" lon="-2.17061">
        <ele>23.8</ele>
        <time>2021-08-14T14:01:36Z</time>
      </trkpt>
      <trkpt lat="47.54913" lon="-2.17059">
        <ele>23.8</ele>
        <time>2021-08-14T14:01:38Z</time>
      </trkpt>
      <trkpt lat="47.54911" lon="-2.17059">
        <ele>23.8</ele>
        <time>2021-08-14T14:01:39Z</time>
      </trkpt>
      <trkpt lat="47.54908" lon="-2.17059">
        <ele>23.7</ele>
        <time>2021-08-14T14:01:41Z</time>
      </trkpt>
      <trkpt lat="47.54907" lon="-2.17059">
        <ele>23.7</ele>
        <time>2021-08-14T14:01:42Z</time>
      </trkpt>
      <trkpt lat="47.54904" lon="-2.17058">
        <ele>23.7</ele>
        <time>2021-08-14T14:01:44Z</time>
      </trkpt>
      <trkpt lat="47.54903" lon="-2.17056">
        <ele>23.7</ele>
        <time>2021-08-14T14:01:45Z</time>
      </trkpt>
      <trkpt lat="47.549" lon="-2.17055">
        <ele>23.7</ele>
        <time>2021-08-14T14:01:47Z</time>
      </trkpt>
      <trkpt lat="47.54899" lon="-2.17054">
        <ele>23.7</ele>
        <time>2021-08-14T14:01:48Z</time>
      </trkpt>
      <trkpt lat="47.54896" lon="-2.17053">
        <ele>23.7</ele>
        <time>2021-08-14T14:01:50Z</time>
      </trkpt>
      <trkpt lat="47.54894" lon="-2.17053">
        <ele>23.7</ele>
        <time>2021-08-14T14:01:51Z</time>
      </trkpt>
      <trkpt lat="47.54891" lon="-2.17052">
        <ele>23.7</ele>
        <time>2021-08-14T14:01:53Z</time>
      </trkpt>
      <trkpt lat="47.5489" lon="-2.17052">
        <ele>23.7</ele>
        <time>2021-08-14T14:01:54Z</time>
      </trkpt>
      <trkpt lat="47.54888" lon="-2.17051">
        <ele>23.7</ele>
        <time>2021-08-14T14:01:56Z</time>
      </trkpt>
      <trkpt lat="47.54885" lon="-2.17049">
        <ele>23.7</ele>
        <time>2021-08-14T14:01:57Z</time>
      </trkpt>
      <trkpt lat="47.54884" lon="-2.17049">
        <ele>23.7</ele>
        <time>2021-08-14T14:01:58Z</time>
      </trkpt>
      <trkpt lat="47.54881" lon="-2.17047">
        <ele>23.7</ele>
        <time>2021-08-14T14:02:00Z</time>
      </trkpt>
      <trkpt lat="47.54878" lon="-2.17048">
        <ele>23.7</ele>
        <time>2021-08-14T14:02:01Z</time>
      </trkpt>
      <trkpt lat="47.54877" lon="-2.17048">
        <ele>23.7</ele>
        <time>2021-08-14T14:02:02Z</time>
      </trkpt>
      <trkpt lat="47.54874" lon="-2.17047">
        <ele>23.7</ele>
        <time>2021-08-14T14:02:04Z</time>
      </trkpt>
      <trkpt lat="47.54869" lon="-2.17047">
        <ele>23.7</ele>
        <time>2021-08-14T14:02:06Z</time>
      </trkpt>
      <trkpt lat="47.54868" lon="-2.17047">
        <ele>23.7</ele>
        <time>2021-08-14T14:02:07Z</time>
      </trkpt>
      <trkpt lat="47.54866" lon="-2.17047">
        <ele>23.8</ele>
        <time>2021-08-14T14:02:08Z</time>
      </trkpt>
      <trkpt lat="47.54863" lon="-2.17049">
        <ele>23.8</ele>
        <time>2021-08-14T14:02:10Z</time>
      </trkpt>
      <trkpt lat="47.5486" lon="-2.1705">
        <ele>23.8</ele>
        <time>2021-08-14T14:02:12Z</time>
      </trkpt>
      <trkpt lat="47.54858" lon="-2.1705">
        <ele>23.8</ele>
        <time>2021-08-14T14:02:13Z</time>
      </trkpt>
      <trkpt lat="47.54855" lon="-2.17051">
        <ele>23.8</ele>
        <time>2021-08-14T14:02:15Z</time>
      </trkpt>
      <trkpt lat="47.54853" lon="-2.17052">
        <ele>23.8</ele>
        <time>2021-08-14T14:02:16Z</time>
      </trkpt>
      <trkpt lat="47.54852" lon="-2.17052">
        <ele>23.8</ele>
        <time>2021-08-14T14:02:17Z</time>
      </trkpt>
      <trkpt lat="47.54849" lon="-2.17053">
        <ele>23.9</ele>
        <time>2021-08-14T14:02:19Z</time>
      </trkpt>
      <trkpt lat="47.54846" lon="-2.17056">
        <ele>23.9</ele>
        <time>2021-08-14T14:02:21Z</time>
      </trkpt>
      <trkpt lat="47.54845" lon="-2.17056">
        <ele>23.9</ele>
        <time>2021-08-14T14:02:22Z</time>
      </trkpt>
      <trkpt lat="47.54843" lon="-2.17056">
        <ele>23.9</ele>
        <time>2021-08-14T14:02:24Z</time>
      </trkpt>
      <trkpt lat="47.54841" lon="-2.17054">
        <ele>23.9</ele>
        <time>2021-08-14T14:02:25Z</time>
      </trkpt>
      <trkpt lat="47.54839" lon="-2.17052">
        <ele>23.9</ele>
        <time>2021-08-14T14:02:27Z</time>
      </trkpt>
      <trkpt lat="47.54838" lon="-2.17048">
        <ele>23.9</ele>
        <time>2021-08-14T14:02:28Z</time>
      </trkpt>
      <trkpt lat="47.54837" lon="-2.17047">
        <ele>23.9</ele>
        <time>2021-08-14T14:02:29Z</time>
      </trkpt>
      <trkpt lat="47.54837" lon="-2.17045">
        <ele>23.9</ele>
        <time>2021-08-14T14:02:30Z</time>
      </trkpt>
      <trkpt lat="47.54837" lon="-2.17042">
        <ele>23.9</ele>
        <time>2021-08-14T14:02:32Z</time>
      </trkpt>
      <trkpt lat="47.54836" lon="-2.1704">
        <ele>23.9</ele>
        <time>2021-08-14T14:02:33Z</time>
      </trkpt>
      <trkpt lat="47.54835" lon="-2.17038">
        <ele>23.9</ele>
        <time>2021-08-14T14:02:34Z</time>
      </trkpt>
      <trkpt lat="47.54834" lon="-2.17034">
        <ele>23.9</ele>
        <time>2021-08-14T14:02:36Z</time>
      </trkpt>
      <trkpt lat="47.54834" lon="-2.17032">
        <ele>23.9</ele>
        <time>2021-08-14T14:02:37Z</time>
      </trkpt>
      <trkpt lat="47.54833" lon="-2.17028">
        <ele>23.9</ele>
        <time>2021-08-14T14:02:38Z</time>
      </trkpt>
      <trkpt lat="47.54833" lon="-2.17026">
        <ele>23.9</ele>
        <time>2021-08-14T14:02:40Z</time>
      </trkpt>
      <trkpt lat="47.54832" lon="-2.17024">
        <ele>23.9</ele>
        <time>2021-08-14T14:02:41Z</time>
      </trkpt>
      <trkpt lat="47.54831" lon="-2.17023">
        <ele>23.9</ele>
        <time>2021-08-14T14:02:42Z</time>
      </trkpt>
      <trkpt lat="47.5483" lon="-2.1702">
        <ele>23.9</ele>
        <time>2021-08-14T14:02:43Z</time>
      </trkpt>
      <trkpt lat="47.54829" lon="-2.17018">
        <ele>23.9</ele>
        <time>2021-08-14T14:02:44Z</time>
      </trkpt>
      <trkpt lat="47.54828" lon="-2.17014">
        <ele>24</ele>
        <time>2021-08-14T14:02:46Z</time>
      </trkpt>
      <trkpt lat="47.54828" lon="-2.17013">
        <ele>24</ele>
        <time>2021-08-14T14:02:47Z</time>
      </trkpt>
      <trkpt lat="47.54826" lon="-2.17009">
        <ele>24</ele>
        <time>2021-08-14T14:02:48Z</time>
      </trkpt>
      <trkpt lat="47.54826" lon="-2.17008">
        <ele>24</ele>
        <time>2021-08-14T14:02:49Z</time>
      </trkpt>
      <trkpt lat="47.54824" lon="-2.17001">
        <ele>24.1</ele>
        <time>2021-08-14T14:02:51Z</time>
      </trkpt>
      <trkpt lat="47.54823" lon="-2.16999">
        <ele>24.2</ele>
        <time>2021-08-14T14:02:53Z</time>
      </trkpt>
      <trkpt lat="47.54822" lon="-2.16996">
        <ele>24.2</ele>
        <time>2021-08-14T14:02:54Z</time>
      </trkpt>
      <trkpt lat="47.54822" lon="-2.16994">
        <ele>24.3</ele>
        <time>2021-08-14T14:02:55Z</time>
      </trkpt>
      <trkpt lat="47.54821" lon="-2.16992">
        <ele>24.4</ele>
        <time>2021-08-14T14:02:57Z</time>
      </trkpt>
      <trkpt lat="47.54821" lon="-2.16989">
        <ele>24.5</ele>
        <time>2021-08-14T14:02:58Z</time>
      </trkpt>
      <trkpt lat="47.54821" lon="-2.16987">
        <ele>24.6</ele>
        <time>2021-08-14T14:02:59Z</time>
      </trkpt>
      <trkpt lat="47.5482" lon="-2.16983">
        <ele>24.7</ele>
        <time>2021-08-14T14:03:01Z</time>
      </trkpt>
      <trkpt lat="47.5482" lon="-2.16981">
        <ele>24.8</ele>
        <time>2021-08-14T14:03:02Z</time>
      </trkpt>
      <trkpt lat="47.5482" lon="-2.1698">
        <ele>24.8</ele>
        <time>2021-08-14T14:03:03Z</time>
      </trkpt>
      <trkpt lat="47.54819" lon="-2.16977">
        <ele>25</ele>
        <time>2021-08-14T14:03:05Z</time>
      </trkpt>
      <trkpt lat="47.54819" lon="-2.16974">
        <ele>25.1</ele>
        <time>2021-08-14T14:03:06Z</time>
      </trkpt>
      <trkpt lat="47.54819" lon="-2.16972">
        <ele>25.1</ele>
        <time>2021-08-14T14:03:07Z</time>
      </trkpt>
      <trkpt lat="47.54819" lon="-2.1697">
        <ele>25.2</ele>
        <time>2021-08-14T14:03:08Z</time>
      </trkpt>
      <trkpt lat="47.54818" lon="-2.16967">
        <ele>25.4</ele>
        <time>2021-08-14T14:03:10Z</time>
      </trkpt>
      <trkpt lat="47.54817" lon="-2.16963">
        <ele>25.6</ele>
        <time>2021-08-14T14:03:11Z</time>
      </trkpt>
      <trkpt lat="47.54817" lon="-2.16962">
        <ele>25.6</ele>
        <time>2021-08-14T14:03:12Z</time>
      </trkpt>
      <trkpt lat="47.54817" lon="-2.16958">
        <ele>25.8</ele>
        <time>2021-08-14T14:03:14Z</time>
      </trkpt>
      <trkpt lat="47.54817" lon="-2.16956">
        <ele>25.8</ele>
        <time>2021-08-14T14:03:15Z</time>
      </trkpt>
      <trkpt lat="47.54815" lon="-2.16952">
        <ele>26</ele>
        <time>2021-08-14T14:03:17Z</time>
      </trkpt>
      <trkpt lat="47.54815" lon="-2.1695">
        <ele>26</ele>
        <time>2021-08-14T14:03:18Z</time>
      </trkpt>
      <trkpt lat="47.54814" lon="-2.16948">
        <ele>26.1</ele>
        <time>2021-08-14T14:03:19Z</time>
      </trkpt>
      <trkpt lat="47.54813" lon="-2.16945">
        <ele>26.2</ele>
        <time>2021-08-14T14:03:21Z</time>
      </trkpt>
      <trkpt lat="47.54812" lon="-2.16942">
        <ele>26.3</ele>
        <time>2021-08-14T14:03:22Z</time>
      </trkpt>
      <trkpt lat="47.54811" lon="-2.1694">
        <ele>26.4</ele>
        <time>2021-08-14T14:03:23Z</time>
      </trkpt>
      <trkpt lat="47.54811" lon="-2.16938">
        <ele>26.4</ele>
        <time>2021-08-14T14:03:24Z</time>
      </trkpt>
      <trkpt lat="47.54811" lon="-2.16935">
        <ele>26.5</ele>
        <time>2021-08-14T14:03:26Z</time>
      </trkpt>
      <trkpt lat="47.5481" lon="-2.16933">
        <ele>26.5</ele>
        <time>2021-08-14T14:03:27Z</time>
      </trkpt>
      <trkpt lat="47.54809" lon="-2.1693">
        <ele>26.6</ele>
        <time>2021-08-14T14:03:29Z</time>
      </trkpt>
      <trkpt lat="47.54807" lon="-2.16926">
        <ele>26.6</ele>
        <time>2021-08-14T14:03:30Z</time>
      </trkpt>
      <trkpt lat="47.54806" lon="-2.16925">
        <ele>26.6</ele>
        <time>2021-08-14T14:03:31Z</time>
      </trkpt>
      <trkpt lat="47.54805" lon="-2.16918">
        <ele>26.7</ele>
        <time>2021-08-14T14:03:33Z</time>
      </trkpt>
      <trkpt lat="47.54805" lon="-2.16915">
        <ele>26.6</ele>
        <time>2021-08-14T14:03:35Z</time>
      </trkpt>
      <trkpt lat="47.54804" lon="-2.16912">
        <ele>26.6</ele>
        <time>2021-08-14T14:03:36Z</time>
      </trkpt>
      <trkpt lat="47.54804" lon="-2.16909">
        <ele>26.6</ele>
        <time>2021-08-14T14:03:37Z</time>
      </trkpt>
      <trkpt lat="47.54804" lon="-2.16902">
        <ele>26.5</ele>
        <time>2021-08-14T14:03:38Z</time>
      </trkpt>
      <trkpt lat="47.54804" lon="-2.169">
        <ele>26.4</ele>
        <time>2021-08-14T14:03:39Z</time>
      </trkpt>
      <trkpt lat="47.54804" lon="-2.16894">
        <ele>26.3</ele>
        <time>2021-08-14T14:03:41Z</time>
      </trkpt>
      <trkpt lat="47.54803" lon="-2.16887">
        <ele>26.1</ele>
        <time>2021-08-14T14:03:42Z</time>
      </trkpt>
      <trkpt lat="47.54803" lon="-2.16882">
        <ele>26</ele>
        <time>2021-08-14T14:03:43Z</time>
      </trkpt>
      <trkpt lat="47.54802" lon="-2.16877">
        <ele>25.8</ele>
        <time>2021-08-14T14:03:44Z</time>
      </trkpt>
      <trkpt lat="47.54799" lon="-2.16871">
        <ele>25.5</ele>
        <time>2021-08-14T14:03:46Z</time>
      </trkpt>
      <trkpt lat="47.54796" lon="-2.16864">
        <ele>25.1</ele>
        <time>2021-08-14T14:03:47Z</time>
      </trkpt>
      <trkpt lat="47.54794" lon="-2.16856">
        <ele>24.6</ele>
        <time>2021-08-14T14:03:49Z</time>
      </trkpt>
      <trkpt lat="47.54793" lon="-2.16849">
        <ele>24.1</ele>
        <time>2021-08-14T14:03:50Z</time>
      </trkpt>
      <trkpt lat="47.54792" lon="-2.1684">
        <ele>23.6</ele>
        <time>2021-08-14T14:03:51Z</time>
      </trkpt>
      <trkpt lat="47.5479" lon="-2.16831">
        <ele>22.9</ele>
        <time>2021-08-14T14:03:53Z</time>
      </trkpt>
      <trkpt lat="47.54789" lon="-2.16823">
        <ele>22.5</ele>
        <time>2021-08-14T14:03:54Z</time>
      </trkpt>
      <trkpt lat="47.54789" lon="-2.16818">
        <ele>22.2</ele>
        <time>2021-08-14T14:03:55Z</time>
      </trkpt>
      <trkpt lat="47.54789" lon="-2.16812">
        <ele>21.8</ele>
        <time>2021-08-14T14:03:57Z</time>
      </trkpt>
      <trkpt lat="47.54789" lon="-2.16808">
        <ele>21.6</ele>
        <time>2021-08-14T14:03:58Z</time>
      </trkpt>
      <trkpt lat="47.5479" lon="-2.16804">
        <ele>21.3</ele>
        <time>2021-08-14T14:04:00Z</time>
      </trkpt>
      <trkpt lat="47.54791" lon="-2.168">
        <ele>21</ele>
        <time>2021-08-14T14:04:01Z</time>
      </trkpt>
      <trkpt lat="47.54792" lon="-2.16797">
        <ele>20.8</ele>
        <time>2021-08-14T14:04:03Z</time>
      </trkpt>
      <trkpt lat="47.54794" lon="-2.16797">
        <ele>20.7</ele>
        <time>2021-08-14T14:04:04Z</time>
      </trkpt>
      <trkpt lat="47.54796" lon="-2.16796">
        <ele>20.5</ele>
        <time>2021-08-14T14:04:06Z</time>
      </trkpt>
      <trkpt lat="47.54798" lon="-2.16796">
        <ele>20.5</ele>
        <time>2021-08-14T14:04:07Z</time>
      </trkpt>
      <trkpt lat="47.548" lon="-2.16798">
        <ele>20.4</ele>
        <time>2021-08-14T14:04:08Z</time>
      </trkpt>
      <trkpt lat="47.54801" lon="-2.16798">
        <ele>20.3</ele>
        <time>2021-08-14T14:04:09Z</time>
      </trkpt>
      <trkpt lat="47.54801" lon="-2.168">
        <ele>20.2</ele>
        <time>2021-08-14T14:04:11Z</time>
      </trkpt>
      <trkpt lat="47.54802" lon="-2.16801">
        <ele>20.2</ele>
        <time>2021-08-14T14:04:12Z</time>
      </trkpt>
      <trkpt lat="47.54803" lon="-2.16801">
        <ele>20.2</ele>
        <time>2021-08-14T14:04:13Z</time>
      </trkpt>
      <trkpt lat="47.54804" lon="-2.16802">
        <ele>20.1</ele>
        <time>2021-08-14T14:04:14Z</time>
      </trkpt>
      <trkpt lat="47.54805" lon="-2.16802">
        <ele>20.1</ele>
        <time>2021-08-14T14:04:15Z</time>
      </trkpt>
      <trkpt lat="47.54807" lon="-2.16802">
        <ele>20</ele>
        <time>2021-08-14T14:04:17Z</time>
      </trkpt>
      <trkpt lat="47.54808" lon="-2.16802">
        <ele>20</ele>
        <time>2021-08-14T14:04:18Z</time>
      </trkpt>
      <trkpt lat="47.54811" lon="-2.16805">
        <ele>19.9</ele>
        <time>2021-08-14T14:04:20Z</time>
      </trkpt>
      <trkpt lat="47.54811" lon="-2.16806">
        <ele>19.9</ele>
        <time>2021-08-14T14:04:21Z</time>
      </trkpt>
      <trkpt lat="47.54812" lon="-2.16807">
        <ele>19.9</ele>
        <time>2021-08-14T14:04:22Z</time>
      </trkpt>
      <trkpt lat="47.54814" lon="-2.16807">
        <ele>19.8</ele>
        <time>2021-08-14T14:04:24Z</time>
      </trkpt>
      <trkpt lat="47.54817" lon="-2.16807">
        <ele>19.7</ele>
        <time>2021-08-14T14:04:25Z</time>
      </trkpt>
      <trkpt lat="47.54821" lon="-2.16808">
        <ele>19.6</ele>
        <time>2021-08-14T14:04:26Z</time>
      </trkpt>
      <trkpt lat="47.54822" lon="-2.16808">
        <ele>19.5</ele>
        <time>2021-08-14T14:04:27Z</time>
      </trkpt>
      <trkpt lat="47.54825" lon="-2.16808">
        <ele>19.4</ele>
        <time>2021-08-14T14:04:29Z</time>
      </trkpt>
      <trkpt lat="47.54829" lon="-2.16808">
        <ele>19.2</ele>
        <time>2021-08-14T14:04:30Z</time>
      </trkpt>
      <trkpt lat="47.54831" lon="-2.16808">
        <ele>19.1</ele>
        <time>2021-08-14T14:04:31Z</time>
      </trkpt>
      <trkpt lat="47.54838" lon="-2.16808">
        <ele>18.7</ele>
        <time>2021-08-14T14:04:33Z</time>
      </trkpt>
      <trkpt lat="47.54841" lon="-2.16809">
        <ele>18.5</ele>
        <time>2021-08-14T14:04:34Z</time>
      </trkpt>
      <trkpt lat="47.54846" lon="-2.16808">
        <ele>18.1</ele>
        <time>2021-08-14T14:04:36Z</time>
      </trkpt>
      <trkpt lat="47.5485" lon="-2.16809">
        <ele>17.8</ele>
        <time>2021-08-14T14:04:37Z</time>
      </trkpt>
      <trkpt lat="47.54853" lon="-2.1681">
        <ele>17.6</ele>
        <time>2021-08-14T14:04:38Z</time>
      </trkpt>
      <trkpt lat="47.54858" lon="-2.1681">
        <ele>17.2</ele>
        <time>2021-08-14T14:04:40Z</time>
      </trkpt>
      <trkpt lat="47.54862" lon="-2.1681">
        <ele>16.9</ele>
        <time>2021-08-14T14:04:41Z</time>
      </trkpt>
      <trkpt lat="47.54868" lon="-2.1681">
        <ele>16.4</ele>
        <time>2021-08-14T14:04:43Z</time>
      </trkpt>
      <trkpt lat="47.54874" lon="-2.16809">
        <ele>16</ele>
        <time>2021-08-14T14:04:45Z</time>
      </trkpt>
      <trkpt lat="47.54879" lon="-2.16809">
        <ele>15.7</ele>
        <time>2021-08-14T14:04:46Z</time>
      </trkpt>
      <trkpt lat="47.54884" lon="-2.1681">
        <ele>15.4</ele>
        <time>2021-08-14T14:04:48Z</time>
      </trkpt>
      <trkpt lat="47.5489" lon="-2.16809">
        <ele>15.1</ele>
        <time>2021-08-14T14:04:49Z</time>
      </trkpt>
      <trkpt lat="47.54894" lon="-2.16808">
        <ele>15</ele>
        <time>2021-08-14T14:04:50Z</time>
      </trkpt>
      <trkpt lat="47.54899" lon="-2.16807">
        <ele>14.7</ele>
        <time>2021-08-14T14:04:52Z</time>
      </trkpt>
      <trkpt lat="47.54903" lon="-2.16804">
        <ele>14.6</ele>
        <time>2021-08-14T14:04:53Z</time>
      </trkpt>
      <trkpt lat="47.54906" lon="-2.16801">
        <ele>14.5</ele>
        <time>2021-08-14T14:04:55Z</time>
      </trkpt>
      <trkpt lat="47.54909" lon="-2.16797">
        <ele>14.4</ele>
        <time>2021-08-14T14:04:56Z</time>
      </trkpt>
      <trkpt lat="47.54912" lon="-2.16794">
        <ele>14.2</ele>
        <time>2021-08-14T14:04:57Z</time>
      </trkpt>
      <trkpt lat="47.54916" lon="-2.16792">
        <ele>14.2</ele>
        <time>2021-08-14T14:04:58Z</time>
      </trkpt>
      <trkpt lat="47.5492" lon="-2.16792">
        <ele>14</ele>
        <time>2021-08-14T14:05:00Z</time>
      </trkpt>
      <trkpt lat="47.54924" lon="-2.16791">
        <ele>14</ele>
        <time>2021-08-14T14:05:01Z</time>
      </trkpt>
      <trkpt lat="47.54929" lon="-2.16791">
        <ele>13.9</ele>
        <time>2021-08-14T14:05:03Z</time>
      </trkpt>
      <trkpt lat="47.54933" lon="-2.1679">
        <ele>13.8</ele>
        <time>2021-08-14T14:05:04Z</time>
      </trkpt>
      <trkpt lat="47.54934" lon="-2.16789">
        <ele>13.8</ele>
        <time>2021-08-14T14:05:05Z</time>
      </trkpt>
      <trkpt lat="47.54937" lon="-2.16789">
        <ele>13.7</ele>
        <time>2021-08-14T14:05:07Z</time>
      </trkpt>
      <trkpt lat="47.54941" lon="-2.16788">
        <ele>13.6</ele>
        <time>2021-08-14T14:05:08Z</time>
      </trkpt>
      <trkpt lat="47.54946" lon="-2.16786">
        <ele>13.5</ele>
        <time>2021-08-14T14:05:10Z</time>
      </trkpt>
      <trkpt lat="47.5495" lon="-2.16785">
        <ele>13.5</ele>
        <time>2021-08-14T14:05:11Z</time>
      </trkpt>
      <trkpt lat="47.54956" lon="-2.16783">
        <ele>13.4</ele>
        <time>2021-08-14T14:05:13Z</time>
      </trkpt>
      <trkpt lat="47.54959" lon="-2.16783">
        <ele>13.4</ele>
        <time>2021-08-14T14:05:14Z</time>
      </trkpt>
      <trkpt lat="47.54963" lon="-2.16782">
        <ele>13.4</ele>
        <time>2021-08-14T14:05:16Z</time>
      </trkpt>
      <trkpt lat="47.54965" lon="-2.16782">
        <ele>13.4</ele>
        <time>2021-08-14T14:05:17Z</time>
      </trkpt>
      <trkpt lat="47.54967" lon="-2.16782">
        <ele>13.4</ele>
        <time>2021-08-14T14:05:18Z</time>
      </trkpt>
      <trkpt lat="47.54972" lon="-2.16783">
        <ele>13.4</ele>
        <time>2021-08-14T14:05:20Z</time>
      </trkpt>
      <trkpt lat="47.54973" lon="-2.16783">
        <ele>13.5</ele>
        <time>2021-08-14T14:05:21Z</time>
      </trkpt>
      <trkpt lat="47.54975" lon="-2.16784">
        <ele>13.5</ele>
        <time>2021-08-14T14:05:22Z</time>
      </trkpt>
      <trkpt lat="47.54979" lon="-2.16785">
        <ele>13.5</ele>
        <time>2021-08-14T14:05:24Z</time>
      </trkpt>
      <trkpt lat="47.54981" lon="-2.16786">
        <ele>13.5</ele>
        <time>2021-08-14T14:05:25Z</time>
      </trkpt>
      <trkpt lat="47.54982" lon="-2.16786">
        <ele>13.5</ele>
        <time>2021-08-14T14:05:26Z</time>
      </trkpt>
      <trkpt lat="47.54984" lon="-2.16787">
        <ele>13.6</ele>
        <time>2021-08-14T14:05:27Z</time>
      </trkpt>
      <trkpt lat="47.54987" lon="-2.1679">
        <ele>13.6</ele>
        <time>2021-08-14T14:05:29Z</time>
      </trkpt>
      <trkpt lat="47.54991" lon="-2.16792">
        <ele>13.6</ele>
        <time>2021-08-14T14:05:31Z</time>
      </trkpt>
      <trkpt lat="47.54995" lon="-2.16793">
        <ele>13.7</ele>
        <time>2021-08-14T14:05:33Z</time>
      </trkpt>
      <trkpt lat="47.54996" lon="-2.16794">
        <ele>13.7</ele>
        <time>2021-08-14T14:05:34Z</time>
      </trkpt>
      <trkpt lat="47.54999" lon="-2.16796">
        <ele>13.7</ele>
        <time>2021-08-14T14:05:35Z</time>
      </trkpt>
      <trkpt lat="47.55002" lon="-2.16798">
        <ele>13.8</ele>
        <time>2021-08-14T14:05:37Z</time>
      </trkpt>
      <trkpt lat="47.55005" lon="-2.16799">
        <ele>13.8</ele>
        <time>2021-08-14T14:05:38Z</time>
      </trkpt>
      <trkpt lat="47.55008" lon="-2.16802">
        <ele>13.8</ele>
        <time>2021-08-14T14:05:40Z</time>
      </trkpt>
      <trkpt lat="47.55011" lon="-2.16805">
        <ele>13.9</ele>
        <time>2021-08-14T14:05:41Z</time>
      </trkpt>
      <trkpt lat="47.55012" lon="-2.16806">
        <ele>13.9</ele>
        <time>2021-08-14T14:05:42Z</time>
      </trkpt>
      <trkpt lat="47.55014" lon="-2.16808">
        <ele>13.9</ele>
        <time>2021-08-14T14:05:44Z</time>
      </trkpt>
      <trkpt lat="47.55018" lon="-2.16811">
        <ele>13.9</ele>
        <time>2021-08-14T14:05:45Z</time>
      </trkpt>
      <trkpt lat="47.55021" lon="-2.16816">
        <ele>13.9</ele>
        <time>2021-08-14T14:05:47Z</time>
      </trkpt>
      <trkpt lat="47.55022" lon="-2.16817">
        <ele>13.9</ele>
        <time>2021-08-14T14:05:48Z</time>
      </trkpt>
      <trkpt lat="47.55022" lon="-2.16818">
        <ele>13.8</ele>
        <time>2021-08-14T14:05:49Z</time>
      </trkpt>
      <trkpt lat="47.55024" lon="-2.1682">
        <ele>13.8</ele>
        <time>2021-08-14T14:05:50Z</time>
      </trkpt>
      <trkpt lat="47.55026" lon="-2.16824">
        <ele>13.8</ele>
        <time>2021-08-14T14:05:52Z</time>
      </trkpt>
      <trkpt lat="47.55027" lon="-2.16828">
        <ele>13.8</ele>
        <time>2021-08-14T14:05:54Z</time>
      </trkpt>
      <trkpt lat="47.55027" lon="-2.16829">
        <ele>13.8</ele>
        <time>2021-08-14T14:05:55Z</time>
      </trkpt>
      <trkpt lat="47.55028" lon="-2.16832">
        <ele>13.8</ele>
        <time>2021-08-14T14:05:56Z</time>
      </trkpt>
      <trkpt lat="47.55029" lon="-2.16834">
        <ele>13.8</ele>
        <time>2021-08-14T14:05:58Z</time>
      </trkpt>
      <trkpt lat="47.5503" lon="-2.16836">
        <ele>13.7</ele>
        <time>2021-08-14T14:05:59Z</time>
      </trkpt>
      <trkpt lat="47.55031" lon="-2.1684">
        <ele>13.7</ele>
        <time>2021-08-14T14:06:01Z</time>
      </trkpt>
      <trkpt lat="47.55032" lon="-2.16844">
        <ele>13.7</ele>
        <time>2021-08-14T14:06:02Z</time>
      </trkpt>
      <trkpt lat="47.55033" lon="-2.16845">
        <ele>13.7</ele>
        <time>2021-08-14T14:06:03Z</time>
      </trkpt>
      <trkpt lat="47.55037" lon="-2.16846">
        <ele>13.6</ele>
        <time>2021-08-14T14:06:05Z</time>
      </trkpt>
      <trkpt lat="47.55038" lon="-2.16846">
        <ele>13.5</ele>
        <time>2021-08-14T14:06:06Z</time>
      </trkpt>
      <trkpt lat="47.55041" lon="-2.16847">
        <ele>13.5</ele>
        <time>2021-08-14T14:06:07Z</time>
      </trkpt>
      <trkpt lat="47.55046" lon="-2.16846">
        <ele>13</ele>
        <time>2021-08-14T14:06:09Z</time>
      </trkpt>
      <trkpt lat="47.55052" lon="-2.16845">
        <ele>12.5</ele>
        <time>2021-08-14T14:06:11Z</time>
      </trkpt>
      <trkpt lat="47.55055" lon="-2.16844">
        <ele>12.2</ele>
        <time>2021-08-14T14:06:12Z</time>
      </trkpt>
      <trkpt lat="47.55059" lon="-2.16843">
        <ele>12</ele>
        <time>2021-08-14T14:06:14Z</time>
      </trkpt>
      <trkpt lat="47.55063" lon="-2.16843">
        <ele>11.7</ele>
        <time>2021-08-14T14:06:15Z</time>
      </trkpt>
      <trkpt lat="47.55066" lon="-2.16844">
        <ele>11.6</ele>
        <time>2021-08-14T14:06:16Z</time>
      </trkpt>
      <trkpt lat="47.55071" lon="-2.16846">
        <ele>11.4</ele>
        <time>2021-08-14T14:06:18Z</time>
      </trkpt>
      <trkpt lat="47.55075" lon="-2.16848">
        <ele>11.3</ele>
        <time>2021-08-14T14:06:20Z</time>
      </trkpt>
      <trkpt lat="47.55078" lon="-2.16848">
        <ele>11.3</ele>
        <time>2021-08-14T14:06:21Z</time>
      </trkpt>
      <trkpt lat="47.55082" lon="-2.16849">
        <ele>11.2</ele>
        <time>2021-08-14T14:06:22Z</time>
      </trkpt>
      <trkpt lat="47.55084" lon="-2.16848">
        <ele>11.2</ele>
        <time>2021-08-14T14:06:23Z</time>
      </trkpt>
      <trkpt lat="47.55087" lon="-2.16847">
        <ele>11.2</ele>
        <time>2021-08-14T14:06:25Z</time>
      </trkpt>
      <trkpt lat="47.55088" lon="-2.16846">
        <ele>11.2</ele>
        <time>2021-08-14T14:06:26Z</time>
      </trkpt>
      <trkpt lat="47.5509" lon="-2.16845">
        <ele>11.2</ele>
        <time>2021-08-14T14:06:27Z</time>
      </trkpt>
      <trkpt lat="47.55091" lon="-2.16845">
        <ele>11.2</ele>
        <time>2021-08-14T14:06:28Z</time>
      </trkpt>
      <trkpt lat="47.55091" lon="-2.16847">
        <ele>11.2</ele>
        <time>2021-08-14T14:06:30Z</time>
      </trkpt>
      <trkpt lat="47.55091" lon="-2.16847">
        <ele>11.2</ele>
        <time>2021-08-14T14:06:32Z</time>
      </trkpt>
      <trkpt lat="47.5509" lon="-2.16847">
        <ele>11.2</ele>
        <time>2021-08-14T14:06:34Z</time>
      </trkpt>
      <trkpt lat="47.55091" lon="-2.16847">
        <ele>11.2</ele>
        <time>2021-08-14T14:06:35Z</time>
      </trkpt>
      <trkpt lat="47.55091" lon="-2.16846">
        <ele>11.2</ele>
        <time>2021-08-14T14:06:37Z</time>
      </trkpt>
      <trkpt lat="47.55091" lon="-2.16846">
        <ele>11.2</ele>
        <time>2021-08-14T14:06:38Z</time>
      </trkpt>
      <trkpt lat="47.55092" lon="-2.16846">
        <ele>11.2</ele>
        <time>2021-08-14T14:06:39Z</time>
      </trkpt>
      <trkpt lat="47.55092" lon="-2.16846">
        <ele>11.2</ele>
        <time>2021-08-14T14:06:41Z</time>
      </trkpt>
      <trkpt lat="47.55094" lon="-2.16844">
        <ele>11.2</ele>
        <time>2021-08-14T14:06:46Z</time>
      </trkpt>
      <trkpt lat="47.55095" lon="-2.16844">
        <ele>11.2</ele>
        <time>2021-08-14T14:06:48Z</time>
      </trkpt>
      <trkpt lat="47.55096" lon="-2.16843">
        <ele>11.2</ele>
        <time>2021-08-14T14:06:50Z</time>
      </trkpt>
      <trkpt lat="47.55097" lon="-2.16843">
        <ele>11.2</ele>
        <time>2021-08-14T14:06:51Z</time>
      </trkpt>
      <trkpt lat="47.55097" lon="-2.16842">
        <ele>11.2</ele>
        <time>2021-08-14T14:06:52Z</time>
      </trkpt>
      <trkpt lat="47.55098" lon="-2.16842">
        <ele>11.2</ele>
        <time>2021-08-14T14:06:54Z</time>
      </trkpt>
      <trkpt lat="47.55099" lon="-2.16842">
        <ele>11.2</ele>
        <time>2021-08-14T14:06:56Z</time>
      </trkpt>
      <trkpt lat="47.55099" lon="-2.16841">
        <ele>11.2</ele>
        <time>2021-08-14T14:06:57Z</time>
      </trkpt>
      <trkpt lat="47.551" lon="-2.16841">
        <ele>11.3</ele>
        <time>2021-08-14T14:06:58Z</time>
      </trkpt>
      <trkpt lat="47.55101" lon="-2.16841">
        <ele>11.3</ele>
        <time>2021-08-14T14:07:00Z</time>
      </trkpt>
      <trkpt lat="47.55102" lon="-2.1684">
        <ele>11.3</ele>
        <time>2021-08-14T14:07:01Z</time>
      </trkpt>
      <trkpt lat="47.55103" lon="-2.16841">
        <ele>11.3</ele>
        <time>2021-08-14T14:07:02Z</time>
      </trkpt>
      <trkpt lat="47.55103" lon="-2.1684">
        <ele>11.3</ele>
        <time>2021-08-14T14:07:03Z</time>
      </trkpt>
      <trkpt lat="47.55105" lon="-2.16839">
        <ele>11.4</ele>
        <time>2021-08-14T14:07:05Z</time>
      </trkpt>
      <trkpt lat="47.55106" lon="-2.16839">
        <ele>11.4</ele>
        <time>2021-08-14T14:07:06Z</time>
      </trkpt>
      <trkpt lat="47.55108" lon="-2.16839">
        <ele>11.5</ele>
        <time>2021-08-14T14:07:08Z</time>
      </trkpt>
      <trkpt lat="47.55108" lon="-2.16839">
        <ele>11.5</ele>
        <time>2021-08-14T14:07:09Z</time>
      </trkpt>
      <trkpt lat="47.55109" lon="-2.16839">
        <ele>11.6</ele>
        <time>2021-08-14T14:07:10Z</time>
      </trkpt>
      <trkpt lat="47.5511" lon="-2.16839">
        <ele>11.6</ele>
        <time>2021-08-14T14:07:12Z</time>
      </trkpt>
      <trkpt lat="47.55111" lon="-2.1684">
        <ele>11.6</ele>
        <time>2021-08-14T14:07:14Z</time>
      </trkpt>
      <trkpt lat="47.55112" lon="-2.1684">
        <ele>11.7</ele>
        <time>2021-08-14T14:07:15Z</time>
      </trkpt>
      <trkpt lat="47.55113" lon="-2.1684">
        <ele>11.7</ele>
        <time>2021-08-14T14:07:17Z</time>
      </trkpt>
      <trkpt lat="47.55114" lon="-2.1684">
        <ele>11.8</ele>
        <time>2021-08-14T14:07:18Z</time>
      </trkpt>
      <trkpt lat="47.55115" lon="-2.1684">
        <ele>11.8</ele>
        <time>2021-08-14T14:07:20Z</time>
      </trkpt>
      <trkpt lat="47.55115" lon="-2.1684">
        <ele>11.8</ele>
        <time>2021-08-14T14:07:42Z</time>
      </trkpt>
      <trkpt lat="47.55116" lon="-2.1684">
        <ele>11.9</ele>
        <time>2021-08-14T14:07:44Z</time>
      </trkpt>
      <trkpt lat="47.55117" lon="-2.16841">
        <ele>11.9</ele>
        <time>2021-08-14T14:07:45Z</time>
      </trkpt>
      <trkpt lat="47.55118" lon="-2.16841">
        <ele>12</ele>
        <time>2021-08-14T14:07:46Z</time>
      </trkpt>
      <trkpt lat="47.5512" lon="-2.1684">
        <ele>12.1</ele>
        <time>2021-08-14T14:07:47Z</time>
      </trkpt>
      <trkpt lat="47.55123" lon="-2.1684">
        <ele>12.3</ele>
        <time>2021-08-14T14:07:49Z</time>
      </trkpt>
      <trkpt lat="47.55126" lon="-2.16839">
        <ele>12.4</ele>
        <time>2021-08-14T14:07:51Z</time>
      </trkpt>
      <trkpt lat="47.55129" lon="-2.16839">
        <ele>12.6</ele>
        <time>2021-08-14T14:07:53Z</time>
      </trkpt>
      <trkpt lat="47.55132" lon="-2.16839">
        <ele>12.8</ele>
        <time>2021-08-14T14:07:54Z</time>
      </trkpt>
      <trkpt lat="47.55134" lon="-2.16839">
        <ele>12.9</ele>
        <time>2021-08-14T14:07:55Z</time>
      </trkpt>
      <trkpt lat="47.55135" lon="-2.16839">
        <ele>13</ele>
        <time>2021-08-14T14:07:57Z</time>
      </trkpt>
      <trkpt lat="47.55137" lon="-2.16839">
        <ele>13.1</ele>
        <time>2021-08-14T14:07:59Z</time>
      </trkpt>
      <trkpt lat="47.55138" lon="-2.16839">
        <ele>13.2</ele>
        <time>2021-08-14T14:08:00Z</time>
      </trkpt>
      <trkpt lat="47.5514" lon="-2.16839">
        <ele>13.3</ele>
        <time>2021-08-14T14:08:02Z</time>
      </trkpt>
      <trkpt lat="47.55142" lon="-2.16839">
        <ele>13.4</ele>
        <time>2021-08-14T14:08:03Z</time>
      </trkpt>
      <trkpt lat="47.55143" lon="-2.16839">
        <ele>13.5</ele>
        <time>2021-08-14T14:08:04Z</time>
      </trkpt>
      <trkpt lat="47.55145" lon="-2.16839">
        <ele>13.7</ele>
        <time>2021-08-14T14:08:06Z</time>
      </trkpt>
      <trkpt lat="47.55148" lon="-2.16837">
        <ele>13.8</ele>
        <time>2021-08-14T14:08:07Z</time>
      </trkpt>
      <trkpt lat="47.5515" lon="-2.16836">
        <ele>14</ele>
        <time>2021-08-14T14:08:09Z</time>
      </trkpt>
      <trkpt lat="47.55151" lon="-2.16835">
        <ele>14.1</ele>
        <time>2021-08-14T14:08:10Z</time>
      </trkpt>
      <trkpt lat="47.55152" lon="-2.16834">
        <ele>14.1</ele>
        <time>2021-08-14T14:08:11Z</time>
      </trkpt>
      <trkpt lat="47.55156" lon="-2.16832">
        <ele>14.3</ele>
        <time>2021-08-14T14:08:13Z</time>
      </trkpt>
      <trkpt lat="47.55157" lon="-2.1683">
        <ele>14.5</ele>
        <time>2021-08-14T14:08:15Z</time>
      </trkpt>
      <trkpt lat="47.55159" lon="-2.1683">
        <ele>14.5</ele>
        <time>2021-08-14T14:08:16Z</time>
      </trkpt>
      <trkpt lat="47.55162" lon="-2.16829">
        <ele>14.7</ele>
        <time>2021-08-14T14:08:18Z</time>
      </trkpt>
      <trkpt lat="47.55162" lon="-2.16828">
        <ele>14.7</ele>
        <time>2021-08-14T14:08:19Z</time>
      </trkpt>
      <trkpt lat="47.55165" lon="-2.16827">
        <ele>14.9</ele>
        <time>2021-08-14T14:08:21Z</time>
      </trkpt>
      <trkpt lat="47.55166" lon="-2.16827">
        <ele>15</ele>
        <time>2021-08-14T14:08:22Z</time>
      </trkpt>
      <trkpt lat="47.55168" lon="-2.16827">
        <ele>15</ele>
        <time>2021-08-14T14:08:23Z</time>
      </trkpt>
      <trkpt lat="47.55169" lon="-2.16827">
        <ele>15.1</ele>
        <time>2021-08-14T14:08:24Z</time>
      </trkpt>
      <trkpt lat="47.55171" lon="-2.16827">
        <ele>15.2</ele>
        <time>2021-08-14T14:08:26Z</time>
      </trkpt>
      <trkpt lat="47.55173" lon="-2.16826">
        <ele>15.3</ele>
        <time>2021-08-14T14:08:27Z</time>
      </trkpt>
      <trkpt lat="47.55175" lon="-2.16826">
        <ele>15.4</ele>
        <time>2021-08-14T14:08:28Z</time>
      </trkpt>
      <trkpt lat="47.55178" lon="-2.16825">
        <ele>15.5</ele>
        <time>2021-08-14T14:08:29Z</time>
      </trkpt>
      <trkpt lat="47.55179" lon="-2.16825">
        <ele>15.6</ele>
        <time>2021-08-14T14:08:31Z</time>
      </trkpt>
      <trkpt lat="47.55181" lon="-2.16824">
        <ele>15.7</ele>
        <time>2021-08-14T14:08:32Z</time>
      </trkpt>
      <trkpt lat="47.55183" lon="-2.16824">
        <ele>15.8</ele>
        <time>2021-08-14T14:08:34Z</time>
      </trkpt>
      <trkpt lat="47.55184" lon="-2.16823">
        <ele>15.8</ele>
        <time>2021-08-14T14:08:35Z</time>
      </trkpt>
      <trkpt lat="47.55186" lon="-2.16823">
        <ele>15.9</ele>
        <time>2021-08-14T14:08:37Z</time>
      </trkpt>
      <trkpt lat="47.55187" lon="-2.16822">
        <ele>16</ele>
        <time>2021-08-14T14:08:39Z</time>
      </trkpt>
      <trkpt lat="47.55189" lon="-2.16822">
        <ele>16.1</ele>
        <time>2021-08-14T14:08:40Z</time>
      </trkpt>
      <trkpt lat="47.5519" lon="-2.16821">
        <ele>16.1</ele>
        <time>2021-08-14T14:08:41Z</time>
      </trkpt>
      <trkpt lat="47.55192" lon="-2.1682">
        <ele>16.2</ele>
        <time>2021-08-14T14:08:43Z</time>
      </trkpt>
      <trkpt lat="47.55193" lon="-2.16819">
        <ele>16.3</ele>
        <time>2021-08-14T14:08:44Z</time>
      </trkpt>
      <trkpt lat="47.55196" lon="-2.16816">
        <ele>16.4</ele>
        <time>2021-08-14T14:08:46Z</time>
      </trkpt>
      <trkpt lat="47.55196" lon="-2.16814">
        <ele>16.4</ele>
        <time>2021-08-14T14:08:47Z</time>
      </trkpt>
      <trkpt lat="47.55198" lon="-2.16813">
        <ele>16.5</ele>
        <time>2021-08-14T14:08:49Z</time>
      </trkpt>
      <trkpt lat="47.552" lon="-2.16811">
        <ele>16.6</ele>
        <time>2021-08-14T14:08:51Z</time>
      </trkpt>
      <trkpt lat="47.55201" lon="-2.1681">
        <ele>16.6</ele>
        <time>2021-08-14T14:08:52Z</time>
      </trkpt>
      <trkpt lat="47.55203" lon="-2.1681">
        <ele>16.7</ele>
        <time>2021-08-14T14:08:53Z</time>
      </trkpt>
      <trkpt lat="47.55204" lon="-2.16809">
        <ele>16.7</ele>
        <time>2021-08-14T14:08:54Z</time>
      </trkpt>
      <trkpt lat="47.55205" lon="-2.16809">
        <ele>16.7</ele>
        <time>2021-08-14T14:08:55Z</time>
      </trkpt>
      <trkpt lat="47.55206" lon="-2.16808">
        <ele>16.8</ele>
        <time>2021-08-14T14:08:56Z</time>
      </trkpt>
      <trkpt lat="47.55206" lon="-2.16808">
        <ele>16.8</ele>
        <time>2021-08-14T14:08:59Z</time>
      </trkpt>
      <trkpt lat="47.55205" lon="-2.16809">
        <ele>16.8</ele>
        <time>2021-08-14T14:09:01Z</time>
      </trkpt>
      <trkpt lat="47.55205" lon="-2.16809">
        <ele>16.8</ele>
        <time>2021-08-14T14:09:03Z</time>
      </trkpt>
      <trkpt lat="47.55205" lon="-2.16809">
        <ele>16.8</ele>
        <time>2021-08-14T14:09:05Z</time>
      </trkpt>
      <trkpt lat="47.55205" lon="-2.16809">
        <ele>16.8</ele>
        <time>2021-08-14T14:09:06Z</time>
      </trkpt>
      <trkpt lat="47.55206" lon="-2.16806">
        <ele>16.8</ele>
        <time>2021-08-14T14:09:58Z</time>
      </trkpt>
      <trkpt lat="47.55207" lon="-2.16802">
        <ele>16.7</ele>
        <time>2021-08-14T14:10:00Z</time>
      </trkpt>
      <trkpt lat="47.55207" lon="-2.16799">
        <ele>16.6</ele>
        <time>2021-08-14T14:10:01Z</time>
      </trkpt>
      <trkpt lat="47.55206" lon="-2.16792">
        <ele>16.4</ele>
        <time>2021-08-14T14:10:03Z</time>
      </trkpt>
      <trkpt lat="47.55205" lon="-2.16787">
        <ele>16.2</ele>
        <time>2021-08-14T14:10:04Z</time>
      </trkpt>
      <trkpt lat="47.55204" lon="-2.16778">
        <ele>15.8</ele>
        <time>2021-08-14T14:10:06Z</time>
      </trkpt>
      <trkpt lat="47.55204" lon="-2.16773">
        <ele>15.6</ele>
        <time>2021-08-14T14:10:07Z</time>
      </trkpt>
      <trkpt lat="47.55203" lon="-2.16767">
        <ele>15.4</ele>
        <time>2021-08-14T14:10:08Z</time>
      </trkpt>
      <trkpt lat="47.55203" lon="-2.16754">
        <ele>14.8</ele>
        <time>2021-08-14T14:10:10Z</time>
      </trkpt>
      <trkpt lat="47.55202" lon="-2.16738">
        <ele>14.1</ele>
        <time>2021-08-14T14:10:12Z</time>
      </trkpt>
      <trkpt lat="47.55201" lon="-2.16724">
        <ele>13.3</ele>
        <time>2021-08-14T14:10:14Z</time>
      </trkpt>
      <trkpt lat="47.55201" lon="-2.16715">
        <ele>12.9</ele>
        <time>2021-08-14T14:10:15Z</time>
      </trkpt>
      <trkpt lat="47.55201" lon="-2.16705">
        <ele>12.4</ele>
        <time>2021-08-14T14:10:16Z</time>
      </trkpt>
      <trkpt lat="47.552" lon="-2.1668">
        <ele>11.2</ele>
        <time>2021-08-14T14:10:18Z</time>
      </trkpt>
      <trkpt lat="47.55199" lon="-2.16668">
        <ele>10.7</ele>
        <time>2021-08-14T14:10:19Z</time>
      </trkpt>
      <trkpt lat="47.55198" lon="-2.16656">
        <ele>10.5</ele>
        <time>2021-08-14T14:10:20Z</time>
      </trkpt>
      <trkpt lat="47.55191" lon="-2.16635">
        <ele>10.1</ele>
        <time>2021-08-14T14:10:22Z</time>
      </trkpt>
      <trkpt lat="47.55187" lon="-2.16625">
        <ele>10.1</ele>
        <time>2021-08-14T14:10:23Z</time>
      </trkpt>
      <trkpt lat="47.55183" lon="-2.16616">
        <ele>10</ele>
        <time>2021-08-14T14:10:24Z</time>
      </trkpt>
      <trkpt lat="47.55179" lon="-2.16608">
        <ele>10</ele>
        <time>2021-08-14T14:10:25Z</time>
      </trkpt>
      <trkpt lat="47.55172" lon="-2.16594">
        <ele>10</ele>
        <time>2021-08-14T14:10:27Z</time>
      </trkpt>
      <trkpt lat="47.55168" lon="-2.16588">
        <ele>10</ele>
        <time>2021-08-14T14:10:28Z</time>
      </trkpt>
      <trkpt lat="47.55164" lon="-2.16582">
        <ele>10.1</ele>
        <time>2021-08-14T14:10:29Z</time>
      </trkpt>
      <trkpt lat="47.55158" lon="-2.16572">
        <ele>10.3</ele>
        <time>2021-08-14T14:10:31Z</time>
      </trkpt>
      <trkpt lat="47.55156" lon="-2.16569">
        <ele>10.3</ele>
        <time>2021-08-14T14:10:32Z</time>
      </trkpt>
      <trkpt lat="47.55151" lon="-2.16561">
        <ele>10.5</ele>
        <time>2021-08-14T14:10:34Z</time>
      </trkpt>
      <trkpt lat="47.55148" lon="-2.16556">
        <ele>10.6</ele>
        <time>2021-08-14T14:10:36Z</time>
      </trkpt>
      <trkpt lat="47.55147" lon="-2.16555">
        <ele>10.7</ele>
        <time>2021-08-14T14:10:37Z</time>
      </trkpt>
      <trkpt lat="47.55145" lon="-2.16552">
        <ele>10.8</ele>
        <time>2021-08-14T14:10:39Z</time>
      </trkpt>
      <trkpt lat="47.55144" lon="-2.1655">
        <ele>10.8</ele>
        <time>2021-08-14T14:10:40Z</time>
      </trkpt>
      <trkpt lat="47.55143" lon="-2.16545">
        <ele>10.9</ele>
        <time>2021-08-14T14:10:42Z</time>
      </trkpt>
      <trkpt lat="47.55142" lon="-2.16541">
        <ele>10.9</ele>
        <time>2021-08-14T14:10:44Z</time>
      </trkpt>
      <trkpt lat="47.55142" lon="-2.16539">
        <ele>11</ele>
        <time>2021-08-14T14:10:45Z</time>
      </trkpt>
      <trkpt lat="47.55143" lon="-2.16533">
        <ele>11</ele>
        <time>2021-08-14T14:10:47Z</time>
      </trkpt>
      <trkpt lat="47.55145" lon="-2.16527">
        <ele>10.9</ele>
        <time>2021-08-14T14:10:49Z</time>
      </trkpt>
      <trkpt lat="47.55147" lon="-2.16524">
        <ele>10.9</ele>
        <time>2021-08-14T14:10:50Z</time>
      </trkpt>
      <trkpt lat="47.55153" lon="-2.1652">
        <ele>10.8</ele>
        <time>2021-08-14T14:10:52Z</time>
      </trkpt>
      <trkpt lat="47.55158" lon="-2.16516">
        <ele>10.8</ele>
        <time>2021-08-14T14:10:54Z</time>
      </trkpt>
      <trkpt lat="47.55163" lon="-2.16511">
        <ele>10.9</ele>
        <time>2021-08-14T14:10:56Z</time>
      </trkpt>
      <trkpt lat="47.55168" lon="-2.16506">
        <ele>11</ele>
        <time>2021-08-14T14:10:58Z</time>
      </trkpt>
      <trkpt lat="47.55169" lon="-2.16503">
        <ele>11.1</ele>
        <time>2021-08-14T14:10:59Z</time>
      </trkpt>
      <trkpt lat="47.55172" lon="-2.16499">
        <ele>11.2</ele>
        <time>2021-08-14T14:11:01Z</time>
      </trkpt>
      <trkpt lat="47.55173" lon="-2.16497">
        <ele>11.3</ele>
        <time>2021-08-14T14:11:02Z</time>
      </trkpt>
      <trkpt lat="47.55174" lon="-2.16496">
        <ele>11.4</ele>
        <time>2021-08-14T14:11:03Z</time>
      </trkpt>
      <trkpt lat="47.55175" lon="-2.16492">
        <ele>11.5</ele>
        <time>2021-08-14T14:11:05Z</time>
      </trkpt>
      <trkpt lat="47.55175" lon="-2.1649">
        <ele>11.6</ele>
        <time>2021-08-14T14:11:06Z</time>
      </trkpt>
      <trkpt lat="47.55176" lon="-2.16486">
        <ele>11.8</ele>
        <time>2021-08-14T14:11:08Z</time>
      </trkpt>
      <trkpt lat="47.55176" lon="-2.16484">
        <ele>11.8</ele>
        <time>2021-08-14T14:11:09Z</time>
      </trkpt>
      <trkpt lat="47.55176" lon="-2.16479">
        <ele>12.1</ele>
        <time>2021-08-14T14:11:11Z</time>
      </trkpt>
      <trkpt lat="47.55176" lon="-2.16478">
        <ele>12.2</ele>
        <time>2021-08-14T14:11:12Z</time>
      </trkpt>
      <trkpt lat="47.55176" lon="-2.16475">
        <ele>12.3</ele>
        <time>2021-08-14T14:11:14Z</time>
      </trkpt>
      <trkpt lat="47.55175" lon="-2.16471">
        <ele>12.6</ele>
        <time>2021-08-14T14:11:16Z</time>
      </trkpt>
      <trkpt lat="47.55175" lon="-2.16467">
        <ele>12.8</ele>
        <time>2021-08-14T14:11:18Z</time>
      </trkpt>
      <trkpt lat="47.55175" lon="-2.16464">
        <ele>13</ele>
        <time>2021-08-14T14:11:20Z</time>
      </trkpt>
      <trkpt lat="47.55175" lon="-2.16459">
        <ele>13.3</ele>
        <time>2021-08-14T14:11:22Z</time>
      </trkpt>
      <trkpt lat="47.55175" lon="-2.16457">
        <ele>13.5</ele>
        <time>2021-08-14T14:11:23Z</time>
      </trkpt>
      <trkpt lat="47.55175" lon="-2.16455">
        <ele>13.6</ele>
        <time>2021-08-14T14:11:24Z</time>
      </trkpt>
      <trkpt lat="47.55175" lon="-2.16454">
        <ele>13.7</ele>
        <time>2021-08-14T14:11:25Z</time>
      </trkpt>
      <trkpt lat="47.55175" lon="-2.16449">
        <ele>14</ele>
        <time>2021-08-14T14:11:27Z</time>
      </trkpt>
      <trkpt lat="47.55175" lon="-2.16447">
        <ele>14.2</ele>
        <time>2021-08-14T14:11:28Z</time>
      </trkpt>
      <trkpt lat="47.55175" lon="-2.16443">
        <ele>14.4</ele>
        <time>2021-08-14T14:11:30Z</time>
      </trkpt>
      <trkpt lat="47.55175" lon="-2.16441">
        <ele>14.6</ele>
        <time>2021-08-14T14:11:31Z</time>
      </trkpt>
      <trkpt lat="47.55175" lon="-2.16437">
        <ele>14.9</ele>
        <time>2021-08-14T14:11:33Z</time>
      </trkpt>
      <trkpt lat="47.55176" lon="-2.16433">
        <ele>15.1</ele>
        <time>2021-08-14T14:11:35Z</time>
      </trkpt>
      <trkpt lat="47.55177" lon="-2.16429">
        <ele>15.4</ele>
        <time>2021-08-14T14:11:37Z</time>
      </trkpt>
      <trkpt lat="47.55178" lon="-2.16426">
        <ele>15.7</ele>
        <time>2021-08-14T14:11:39Z</time>
      </trkpt>
      <trkpt lat="47.5518" lon="-2.16422">
        <ele>16</ele>
        <time>2021-08-14T14:11:41Z</time>
      </trkpt>
      <trkpt lat="47.55182" lon="-2.16419">
        <ele>16.2</ele>
        <time>2021-08-14T14:11:43Z</time>
      </trkpt>
      <trkpt lat="47.55182" lon="-2.16418">
        <ele>16.3</ele>
        <time>2021-08-14T14:11:44Z</time>
      </trkpt>
      <trkpt lat="47.55183" lon="-2.16416">
        <ele>16.4</ele>
        <time>2021-08-14T14:11:45Z</time>
      </trkpt>
      <trkpt lat="47.55185" lon="-2.16412">
        <ele>16.6</ele>
        <time>2021-08-14T14:11:47Z</time>
      </trkpt>
      <trkpt lat="47.55187" lon="-2.16409">
        <ele>16.8</ele>
        <time>2021-08-14T14:11:49Z</time>
      </trkpt>
      <trkpt lat="47.55188" lon="-2.16406">
        <ele>17.1</ele>
        <time>2021-08-14T14:11:51Z</time>
      </trkpt>
      <trkpt lat="47.55191" lon="-2.16402">
        <ele>17.3</ele>
        <time>2021-08-14T14:11:53Z</time>
      </trkpt>
      <trkpt lat="47.55191" lon="-2.16402">
        <ele>17.3</ele>
        <time>2021-08-14T14:11:54Z</time>
      </trkpt>
      <trkpt lat="47.55193" lon="-2.16398">
        <ele>17.5</ele>
        <time>2021-08-14T14:11:56Z</time>
      </trkpt>
      <trkpt lat="47.55193" lon="-2.16396">
        <ele>17.6</ele>
        <time>2021-08-14T14:11:57Z</time>
      </trkpt>
      <trkpt lat="47.55195" lon="-2.16394">
        <ele>17.8</ele>
        <time>2021-08-14T14:11:59Z</time>
      </trkpt>
      <trkpt lat="47.55196" lon="-2.16388">
        <ele>18</ele>
        <time>2021-08-14T14:12:01Z</time>
      </trkpt>
      <trkpt lat="47.55196" lon="-2.16386">
        <ele>18.1</ele>
        <time>2021-08-14T14:12:03Z</time>
      </trkpt>
      <trkpt lat="47.55197" lon="-2.16384">
        <ele>18.2</ele>
        <time>2021-08-14T14:12:04Z</time>
      </trkpt>
      <trkpt lat="47.55198" lon="-2.16379">
        <ele>18.4</ele>
        <time>2021-08-14T14:12:06Z</time>
      </trkpt>
      <trkpt lat="47.55198" lon="-2.16377">
        <ele>18.5</ele>
        <time>2021-08-14T14:12:07Z</time>
      </trkpt>
      <trkpt lat="47.55199" lon="-2.16373">
        <ele>18.6</ele>
        <time>2021-08-14T14:12:09Z</time>
      </trkpt>
      <trkpt lat="47.552" lon="-2.16371">
        <ele>18.7</ele>
        <time>2021-08-14T14:12:10Z</time>
      </trkpt>
      <trkpt lat="47.552" lon="-2.1637">
        <ele>18.8</ele>
        <time>2021-08-14T14:12:11Z</time>
      </trkpt>
      <trkpt lat="47.55201" lon="-2.16366">
        <ele>18.9</ele>
        <time>2021-08-14T14:12:13Z</time>
      </trkpt>
      <trkpt lat="47.55202" lon="-2.16361">
        <ele>19</ele>
        <time>2021-08-14T14:12:15Z</time>
      </trkpt>
      <trkpt lat="47.55203" lon="-2.16355">
        <ele>19.2</ele>
        <time>2021-08-14T14:12:17Z</time>
      </trkpt>
      <trkpt lat="47.55203" lon="-2.16353">
        <ele>19.3</ele>
        <time>2021-08-14T14:12:19Z</time>
      </trkpt>
      <trkpt lat="47.55204" lon="-2.1635">
        <ele>19.4</ele>
        <time>2021-08-14T14:12:21Z</time>
      </trkpt>
      <trkpt lat="47.55204" lon="-2.16348">
        <ele>19.4</ele>
        <time>2021-08-14T14:12:22Z</time>
      </trkpt>
      <trkpt lat="47.55205" lon="-2.16343">
        <ele>19.5</ele>
        <time>2021-08-14T14:12:24Z</time>
      </trkpt>
      <trkpt lat="47.55206" lon="-2.16339">
        <ele>19.6</ele>
        <time>2021-08-14T14:12:26Z</time>
      </trkpt>
      <trkpt lat="47.55207" lon="-2.16335">
        <ele>19.7</ele>
        <time>2021-08-14T14:12:28Z</time>
      </trkpt>
      <trkpt lat="47.55208" lon="-2.16329">
        <ele>19.9</ele>
        <time>2021-08-14T14:12:30Z</time>
      </trkpt>
      <trkpt lat="47.55209" lon="-2.16327">
        <ele>19.9</ele>
        <time>2021-08-14T14:12:32Z</time>
      </trkpt>
      <trkpt lat="47.5521" lon="-2.16325">
        <ele>19.9</ele>
        <time>2021-08-14T14:12:33Z</time>
      </trkpt>
      <trkpt lat="47.5521" lon="-2.16323">
        <ele>20</ele>
        <time>2021-08-14T14:12:34Z</time>
      </trkpt>
      <trkpt lat="47.55211" lon="-2.16319">
        <ele>20.1</ele>
        <time>2021-08-14T14:12:36Z</time>
      </trkpt>
      <trkpt lat="47.55212" lon="-2.16316">
        <ele>20.1</ele>
        <time>2021-08-14T14:12:37Z</time>
      </trkpt>
      <trkpt lat="47.55213" lon="-2.16314">
        <ele>20.1</ele>
        <time>2021-08-14T14:12:38Z</time>
      </trkpt>
      <trkpt lat="47.55215" lon="-2.16309">
        <ele>20.2</ele>
        <time>2021-08-14T14:12:40Z</time>
      </trkpt>
      <trkpt lat="47.55215" lon="-2.16307">
        <ele>20.2</ele>
        <time>2021-08-14T14:12:41Z</time>
      </trkpt>
      <trkpt lat="47.55216" lon="-2.16306">
        <ele>20.2</ele>
        <time>2021-08-14T14:12:42Z</time>
      </trkpt>
      <trkpt lat="47.55217" lon="-2.16304">
        <ele>20.3</ele>
        <time>2021-08-14T14:12:43Z</time>
      </trkpt>
      <trkpt lat="47.55219" lon="-2.163">
        <ele>20.3</ele>
        <time>2021-08-14T14:12:45Z</time>
      </trkpt>
      <trkpt lat="47.5522" lon="-2.16296">
        <ele>20.3</ele>
        <time>2021-08-14T14:12:47Z</time>
      </trkpt>
      <trkpt lat="47.5522" lon="-2.16295">
        <ele>20.3</ele>
        <time>2021-08-14T14:12:48Z</time>
      </trkpt>
      <trkpt lat="47.55221" lon="-2.16293">
        <ele>20.3</ele>
        <time>2021-08-14T14:12:49Z</time>
      </trkpt>
      <trkpt lat="47.55224" lon="-2.1629">
        <ele>20.2</ele>
        <time>2021-08-14T14:12:51Z</time>
      </trkpt>
      <trkpt lat="47.55226" lon="-2.16287">
        <ele>20.2</ele>
        <time>2021-08-14T14:12:53Z</time>
      </trkpt>
      <trkpt lat="47.55226" lon="-2.16283">
        <ele>20.2</ele>
        <time>2021-08-14T14:12:54Z</time>
      </trkpt>
      <trkpt lat="47.55228" lon="-2.16279">
        <ele>20.2</ele>
        <time>2021-08-14T14:12:56Z</time>
      </trkpt>
      <trkpt lat="47.55229" lon="-2.16277">
        <ele>20.2</ele>
        <time>2021-08-14T14:12:57Z</time>
      </trkpt>
      <trkpt lat="47.55231" lon="-2.16272">
        <ele>20.2</ele>
        <time>2021-08-14T14:12:59Z</time>
      </trkpt>
      <trkpt lat="47.55232" lon="-2.16267">
        <ele>20.2</ele>
        <time>2021-08-14T14:13:01Z</time>
      </trkpt>
      <trkpt lat="47.55234" lon="-2.16263">
        <ele>20.2</ele>
        <time>2021-08-14T14:13:02Z</time>
      </trkpt>
      <trkpt lat="47.55234" lon="-2.16262">
        <ele>20.1</ele>
        <time>2021-08-14T14:13:03Z</time>
      </trkpt>
      <trkpt lat="47.55236" lon="-2.16258">
        <ele>20.1</ele>
        <time>2021-08-14T14:13:04Z</time>
      </trkpt>
      <trkpt lat="47.55236" lon="-2.16256">
        <ele>20.1</ele>
        <time>2021-08-14T14:13:05Z</time>
      </trkpt>
      <trkpt lat="47.55238" lon="-2.16252">
        <ele>20.1</ele>
        <time>2021-08-14T14:13:07Z</time>
      </trkpt>
      <trkpt lat="47.55238" lon="-2.1625">
        <ele>20</ele>
        <time>2021-08-14T14:13:08Z</time>
      </trkpt>
      <trkpt lat="47.5524" lon="-2.16245">
        <ele>20</ele>
        <time>2021-08-14T14:13:10Z</time>
      </trkpt>
      <trkpt lat="47.5524" lon="-2.16243">
        <ele>19.9</ele>
        <time>2021-08-14T14:13:11Z</time>
      </trkpt>
      <trkpt lat="47.5524" lon="-2.16242">
        <ele>19.9</ele>
        <time>2021-08-14T14:13:13Z</time>
      </trkpt>
      <trkpt lat="47.5524" lon="-2.16243">
        <ele>19.9</ele>
        <time>2021-08-14T14:13:14Z</time>
      </trkpt>
      <trkpt lat="47.5524" lon="-2.16244">
        <ele>19.9</ele>
        <time>2021-08-14T14:13:16Z</time>
      </trkpt>
      <trkpt lat="47.5524" lon="-2.16244">
        <ele>19.9</ele>
        <time>2021-08-14T14:13:17Z</time>
      </trkpt>
      <trkpt lat="47.5524" lon="-2.16244">
        <ele>19.9</ele>
        <time>2021-08-14T14:13:19Z</time>
      </trkpt>
      <trkpt lat="47.5524" lon="-2.16244">
        <ele>19.9</ele>
        <time>2021-08-14T14:13:21Z</time>
      </trkpt>
      <trkpt lat="47.5524" lon="-2.16236">
        <ele>19.8</ele>
        <time>2021-08-14T14:14:12Z</time>
      </trkpt>
      <trkpt lat="47.55241" lon="-2.16234">
        <ele>19.8</ele>
        <time>2021-08-14T14:14:13Z</time>
      </trkpt>
      <trkpt lat="47.55243" lon="-2.16229">
        <ele>19.7</ele>
        <time>2021-08-14T14:14:15Z</time>
      </trkpt>
      <trkpt lat="47.55245" lon="-2.16223">
        <ele>19.5</ele>
        <time>2021-08-14T14:14:17Z</time>
      </trkpt>
      <trkpt lat="47.55246" lon="-2.16221">
        <ele>19.5</ele>
        <time>2021-08-14T14:14:18Z</time>
      </trkpt>
      <trkpt lat="47.55246" lon="-2.16219">
        <ele>19.5</ele>
        <time>2021-08-14T14:14:19Z</time>
      </trkpt>
      <trkpt lat="47.55248" lon="-2.16213">
        <ele>19.3</ele>
        <time>2021-08-14T14:14:21Z</time>
      </trkpt>
      <trkpt lat="47.55249" lon="-2.1621">
        <ele>19.2</ele>
        <time>2021-08-14T14:14:22Z</time>
      </trkpt>
      <trkpt lat="47.55249" lon="-2.16208">
        <ele>19.2</ele>
        <time>2021-08-14T14:14:23Z</time>
      </trkpt>
      <trkpt lat="47.5525" lon="-2.16204">
        <ele>19.1</ele>
        <time>2021-08-14T14:14:24Z</time>
      </trkpt>
      <trkpt lat="47.55251" lon="-2.162">
        <ele>19</ele>
        <time>2021-08-14T14:14:25Z</time>
      </trkpt>
      <trkpt lat="47.55253" lon="-2.16195">
        <ele>18.8</ele>
        <time>2021-08-14T14:14:26Z</time>
      </trkpt>
      <trkpt lat="47.55255" lon="-2.16187">
        <ele>18.5</ele>
        <time>2021-08-14T14:14:28Z</time>
      </trkpt>
      <trkpt lat="47.55257" lon="-2.16181">
        <ele>18.3</ele>
        <time>2021-08-14T14:14:29Z</time>
      </trkpt>
      <trkpt lat="47.55259" lon="-2.16174">
        <ele>18</ele>
        <time>2021-08-14T14:14:30Z</time>
      </trkpt>
      <trkpt lat="47.55263" lon="-2.16157">
        <ele>17.3</ele>
        <time>2021-08-14T14:14:32Z</time>
      </trkpt>
      <trkpt lat="47.55265" lon="-2.16141">
        <ele>16.3</ele>
        <time>2021-08-14T14:14:34Z</time>
      </trkpt>
      <trkpt lat="47.55264" lon="-2.16131">
        <ele>15.7</ele>
        <time>2021-08-14T14:14:35Z</time>
      </trkpt>
      <trkpt lat="47.55262" lon="-2.16108">
        <ele>14.4</ele>
        <time>2021-08-14T14:14:37Z</time>
      </trkpt>
      <trkpt lat="47.55255" lon="-2.16087">
        <ele>13.6</ele>
        <time>2021-08-14T14:14:39Z</time>
      </trkpt>
      <trkpt lat="47.5525" lon="-2.16079">
        <ele>13.3</ele>
        <time>2021-08-14T14:14:40Z</time>
      </trkpt>
      <trkpt lat="47.5524" lon="-2.16064">
        <ele>12.9</ele>
        <time>2021-08-14T14:14:42Z</time>
      </trkpt>
      <trkpt lat="47.55236" lon="-2.16056">
        <ele>12.7</ele>
        <time>2021-08-14T14:14:43Z</time>
      </trkpt>
      <trkpt lat="47.55232" lon="-2.16048">
        <ele>12.6</ele>
        <time>2021-08-14T14:14:44Z</time>
      </trkpt>
      <trkpt lat="47.5523" lon="-2.16039">
        <ele>12.5</ele>
        <time>2021-08-14T14:14:45Z</time>
      </trkpt>
      <trkpt lat="47.55228" lon="-2.16022">
        <ele>12.4</ele>
        <time>2021-08-14T14:14:47Z</time>
      </trkpt>
      <trkpt lat="47.55226" lon="-2.16007">
        <ele>12.4</ele>
        <time>2021-08-14T14:14:49Z</time>
      </trkpt>
      <trkpt lat="47.55225" lon="-2.16">
        <ele>12.4</ele>
        <time>2021-08-14T14:14:50Z</time>
      </trkpt>
      <trkpt lat="47.55224" lon="-2.1599">
        <ele>12.5</ele>
        <time>2021-08-14T14:14:52Z</time>
      </trkpt>
      <trkpt lat="47.55223" lon="-2.15985">
        <ele>12.5</ele>
        <time>2021-08-14T14:14:53Z</time>
      </trkpt>
      <trkpt lat="47.55223" lon="-2.15981">
        <ele>12.6</ele>
        <time>2021-08-14T14:14:54Z</time>
      </trkpt>
      <trkpt lat="47.55222" lon="-2.15973">
        <ele>12.7</ele>
        <time>2021-08-14T14:14:56Z</time>
      </trkpt>
      <trkpt lat="47.55222" lon="-2.15971">
        <ele>12.7</ele>
        <time>2021-08-14T14:14:57Z</time>
      </trkpt>
      <trkpt lat="47.55221" lon="-2.15971">
        <ele>12.7</ele>
        <time>2021-08-14T14:14:58Z</time>
      </trkpt>
      <trkpt lat="47.55221" lon="-2.15966">
        <ele>12.8</ele>
        <time>2021-08-14T14:15:00Z</time>
      </trkpt>
      <trkpt lat="47.5522" lon="-2.15962">
        <ele>12.9</ele>
        <time>2021-08-14T14:15:01Z</time>
      </trkpt>
      <trkpt lat="47.5522" lon="-2.1596">
        <ele>13</ele>
        <time>2021-08-14T14:15:02Z</time>
      </trkpt>
      <trkpt lat="47.5522" lon="-2.15957">
        <ele>13.1</ele>
        <time>2021-08-14T14:15:03Z</time>
      </trkpt>
      <trkpt lat="47.55221" lon="-2.15953">
        <ele>13.2</ele>
        <time>2021-08-14T14:15:05Z</time>
      </trkpt>
      <trkpt lat="47.5522" lon="-2.15951">
        <ele>13.2</ele>
        <time>2021-08-14T14:15:06Z</time>
      </trkpt>
      <trkpt lat="47.55218" lon="-2.1595">
        <ele>13.3</ele>
        <time>2021-08-14T14:15:08Z</time>
      </trkpt>
      <trkpt lat="47.55216" lon="-2.15949">
        <ele>13.4</ele>
        <time>2021-08-14T14:15:09Z</time>
      </trkpt>
      <trkpt lat="47.55214" lon="-2.15948">
        <ele>13.4</ele>
        <time>2021-08-14T14:15:11Z</time>
      </trkpt>
      <trkpt lat="47.55212" lon="-2.15948">
        <ele>13.5</ele>
        <time>2021-08-14T14:15:12Z</time>
      </trkpt>
      <trkpt lat="47.5521" lon="-2.15947">
        <ele>13.6</ele>
        <time>2021-08-14T14:15:14Z</time>
      </trkpt>
      <trkpt lat="47.55207" lon="-2.15946">
        <ele>13.8</ele>
        <time>2021-08-14T14:15:15Z</time>
      </trkpt>
      <trkpt lat="47.55205" lon="-2.15946">
        <ele>13.9</ele>
        <time>2021-08-14T14:15:17Z</time>
      </trkpt>
      <trkpt lat="47.55204" lon="-2.15946">
        <ele>13.9</ele>
        <time>2021-08-14T14:15:18Z</time>
      </trkpt>
      <trkpt lat="47.55204" lon="-2.15945">
        <ele>14</ele>
        <time>2021-08-14T14:15:19Z</time>
      </trkpt>
      <trkpt lat="47.55201" lon="-2.15945">
        <ele>14.1</ele>
        <time>2021-08-14T14:15:21Z</time>
      </trkpt>
      <trkpt lat="47.552" lon="-2.15944">
        <ele>14.2</ele>
        <time>2021-08-14T14:15:22Z</time>
      </trkpt>
      <trkpt lat="47.55198" lon="-2.15944">
        <ele>14.3</ele>
        <time>2021-08-14T14:15:24Z</time>
      </trkpt>
      <trkpt lat="47.55197" lon="-2.15943">
        <ele>14.4</ele>
        <time>2021-08-14T14:15:25Z</time>
      </trkpt>
      <trkpt lat="47.55196" lon="-2.15942">
        <ele>14.5</ele>
        <time>2021-08-14T14:15:26Z</time>
      </trkpt>
      <trkpt lat="47.55194" lon="-2.1594">
        <ele>14.6</ele>
        <time>2021-08-14T14:15:28Z</time>
      </trkpt>
      <trkpt lat="47.55192" lon="-2.1594">
        <ele>14.7</ele>
        <time>2021-08-14T14:15:29Z</time>
      </trkpt>
      <trkpt lat="47.5519" lon="-2.15938">
        <ele>14.8</ele>
        <time>2021-08-14T14:15:31Z</time>
      </trkpt>
      <trkpt lat="47.55189" lon="-2.15937">
        <ele>14.9</ele>
        <time>2021-08-14T14:15:32Z</time>
      </trkpt>
      <trkpt lat="47.55187" lon="-2.15936">
        <ele>15</ele>
        <time>2021-08-14T14:15:34Z</time>
      </trkpt>
      <trkpt lat="47.55185" lon="-2.15935">
        <ele>15.2</ele>
        <time>2021-08-14T14:15:35Z</time>
      </trkpt>
      <trkpt lat="47.55183" lon="-2.15933">
        <ele>15.3</ele>
        <time>2021-08-14T14:15:37Z</time>
      </trkpt>
      <trkpt lat="47.55182" lon="-2.15933">
        <ele>15.4</ele>
        <time>2021-08-14T14:15:38Z</time>
      </trkpt>
      <trkpt lat="47.55181" lon="-2.15931">
        <ele>15.5</ele>
        <time>2021-08-14T14:15:39Z</time>
      </trkpt>
      <trkpt lat="47.55179" lon="-2.1593">
        <ele>15.6</ele>
        <time>2021-08-14T14:15:40Z</time>
      </trkpt>
      <trkpt lat="47.55177" lon="-2.15928">
        <ele>15.7</ele>
        <time>2021-08-14T14:15:42Z</time>
      </trkpt>
      <trkpt lat="47.55175" lon="-2.15926">
        <ele>15.8</ele>
        <time>2021-08-14T14:15:44Z</time>
      </trkpt>
      <trkpt lat="47.55172" lon="-2.15924">
        <ele>16</ele>
        <time>2021-08-14T14:15:46Z</time>
      </trkpt>
      <trkpt lat="47.5517" lon="-2.15922">
        <ele>16.1</ele>
        <time>2021-08-14T14:15:48Z</time>
      </trkpt>
      <trkpt lat="47.55169" lon="-2.15921">
        <ele>16.2</ele>
        <time>2021-08-14T14:15:49Z</time>
      </trkpt>
      <trkpt lat="47.55167" lon="-2.1592">
        <ele>16.2</ele>
        <time>2021-08-14T14:15:51Z</time>
      </trkpt>
      <trkpt lat="47.55166" lon="-2.15919">
        <ele>16.3</ele>
        <time>2021-08-14T14:15:52Z</time>
      </trkpt>
      <trkpt lat="47.55164" lon="-2.15918">
        <ele>16.4</ele>
        <time>2021-08-14T14:15:53Z</time>
      </trkpt>
      <trkpt lat="47.55163" lon="-2.15917">
        <ele>16.5</ele>
        <time>2021-08-14T14:15:54Z</time>
      </trkpt>
      <trkpt lat="47.55161" lon="-2.15916">
        <ele>16.5</ele>
        <time>2021-08-14T14:15:55Z</time>
      </trkpt>
      <trkpt lat="47.5516" lon="-2.15915">
        <ele>16.6</ele>
        <time>2021-08-14T14:15:56Z</time>
      </trkpt>
      <trkpt lat="47.55157" lon="-2.15914">
        <ele>16.7</ele>
        <time>2021-08-14T14:15:58Z</time>
      </trkpt>
      <trkpt lat="47.55154" lon="-2.15912">
        <ele>16.8</ele>
        <time>2021-08-14T14:16:00Z</time>
      </trkpt>
      <trkpt lat="47.55153" lon="-2.15911">
        <ele>16.8</ele>
        <time>2021-08-14T14:16:01Z</time>
      </trkpt>
      <trkpt lat="47.5515" lon="-2.15909">
        <ele>17</ele>
        <time>2021-08-14T14:16:03Z</time>
      </trkpt>
      <trkpt lat="47.55147" lon="-2.15907">
        <ele>17.1</ele>
        <time>2021-08-14T14:16:05Z</time>
      </trkpt>
      <trkpt lat="47.55144" lon="-2.15905">
        <ele>17.2</ele>
        <time>2021-08-14T14:16:07Z</time>
      </trkpt>
      <trkpt lat="47.55141" lon="-2.15903">
        <ele>17.3</ele>
        <time>2021-08-14T14:16:09Z</time>
      </trkpt>
      <trkpt lat="47.5514" lon="-2.15902">
        <ele>17.3</ele>
        <time>2021-08-14T14:16:10Z</time>
      </trkpt>
      <trkpt lat="47.55137" lon="-2.159">
        <ele>17.4</ele>
        <time>2021-08-14T14:16:12Z</time>
      </trkpt>
      <trkpt lat="47.55133" lon="-2.15897">
        <ele>17.6</ele>
        <time>2021-08-14T14:16:14Z</time>
      </trkpt>
      <trkpt lat="47.55132" lon="-2.15896">
        <ele>17.6</ele>
        <time>2021-08-14T14:16:16Z</time>
      </trkpt>
      <trkpt lat="47.5513" lon="-2.15895">
        <ele>17.7</ele>
        <time>2021-08-14T14:16:17Z</time>
      </trkpt>
      <trkpt lat="47.55127" lon="-2.15893">
        <ele>17.7</ele>
        <time>2021-08-14T14:16:19Z</time>
      </trkpt>
      <trkpt lat="47.55126" lon="-2.15893">
        <ele>17.8</ele>
        <time>2021-08-14T14:16:20Z</time>
      </trkpt>
      <trkpt lat="47.55124" lon="-2.15892">
        <ele>17.8</ele>
        <time>2021-08-14T14:16:21Z</time>
      </trkpt>
      <trkpt lat="47.55121" lon="-2.15891">
        <ele>17.9</ele>
        <time>2021-08-14T14:16:23Z</time>
      </trkpt>
      <trkpt lat="47.5512" lon="-2.1589">
        <ele>17.9</ele>
        <time>2021-08-14T14:16:24Z</time>
      </trkpt>
      <trkpt lat="47.55118" lon="-2.15889">
        <ele>18</ele>
        <time>2021-08-14T14:16:25Z</time>
      </trkpt>
      <trkpt lat="47.55116" lon="-2.15887">
        <ele>18</ele>
        <time>2021-08-14T14:16:27Z</time>
      </trkpt>
      <trkpt lat="47.55114" lon="-2.15887">
        <ele>18</ele>
        <time>2021-08-14T14:16:28Z</time>
      </trkpt>
      <trkpt lat="47.55112" lon="-2.15886">
        <ele>18.1</ele>
        <time>2021-08-14T14:16:29Z</time>
      </trkpt>
      <trkpt lat="47.55111" lon="-2.15886">
        <ele>18.1</ele>
        <time>2021-08-14T14:16:30Z</time>
      </trkpt>
      <trkpt lat="47.55108" lon="-2.15885">
        <ele>18.1</ele>
        <time>2021-08-14T14:16:31Z</time>
      </trkpt>
      <trkpt lat="47.55105" lon="-2.15884">
        <ele>18.2</ele>
        <time>2021-08-14T14:16:33Z</time>
      </trkpt>
      <trkpt lat="47.55102" lon="-2.15883">
        <ele>18.2</ele>
        <time>2021-08-14T14:16:35Z</time>
      </trkpt>
      <trkpt lat="47.55099" lon="-2.15882">
        <ele>18.3</ele>
        <time>2021-08-14T14:16:37Z</time>
      </trkpt>
      <trkpt lat="47.55096" lon="-2.15882">
        <ele>18.3</ele>
        <time>2021-08-14T14:16:39Z</time>
      </trkpt>
      <trkpt lat="47.55094" lon="-2.15882">
        <ele>18.4</ele>
        <time>2021-08-14T14:16:40Z</time>
      </trkpt>
      <trkpt lat="47.5509" lon="-2.15882">
        <ele>18.4</ele>
        <time>2021-08-14T14:16:42Z</time>
      </trkpt>
      <trkpt lat="47.55088" lon="-2.15881">
        <ele>18.5</ele>
        <time>2021-08-14T14:16:43Z</time>
      </trkpt>
      <trkpt lat="47.55085" lon="-2.15881">
        <ele>18.5</ele>
        <time>2021-08-14T14:16:45Z</time>
      </trkpt>
      <trkpt lat="47.55083" lon="-2.15881">
        <ele>18.5</ele>
        <time>2021-08-14T14:16:46Z</time>
      </trkpt>
      <trkpt lat="47.5508" lon="-2.15881">
        <ele>18.6</ele>
        <time>2021-08-14T14:16:48Z</time>
      </trkpt>
      <trkpt lat="47.55077" lon="-2.15881">
        <ele>18.7</ele>
        <time>2021-08-14T14:16:49Z</time>
      </trkpt>
      <trkpt lat="47.55076" lon="-2.15881">
        <ele>18.7</ele>
        <time>2021-08-14T14:16:50Z</time>
      </trkpt>
      <trkpt lat="47.55075" lon="-2.15881">
        <ele>18.7</ele>
        <time>2021-08-14T14:16:51Z</time>
      </trkpt>
      <trkpt lat="47.55072" lon="-2.15881">
        <ele>18.8</ele>
        <time>2021-08-14T14:16:53Z</time>
      </trkpt>
      <trkpt lat="47.55069" lon="-2.15881">
        <ele>18.9</ele>
        <time>2021-08-14T14:16:54Z</time>
      </trkpt>
      <trkpt lat="47.55068" lon="-2.15881">
        <ele>18.9</ele>
        <time>2021-08-14T14:16:55Z</time>
      </trkpt>
      <trkpt lat="47.55062" lon="-2.15881">
        <ele>19.1</ele>
        <time>2021-08-14T14:16:57Z</time>
      </trkpt>
      <trkpt lat="47.5506" lon="-2.15881">
        <ele>19.2</ele>
        <time>2021-08-14T14:16:59Z</time>
      </trkpt>
      <trkpt lat="47.55058" lon="-2.15881">
        <ele>19.3</ele>
        <time>2021-08-14T14:17:01Z</time>
      </trkpt>
      <trkpt lat="47.55056" lon="-2.15881">
        <ele>19.4</ele>
        <time>2021-08-14T14:17:02Z</time>
      </trkpt>
      <trkpt lat="47.55054" lon="-2.15881">
        <ele>19.5</ele>
        <time>2021-08-14T14:17:04Z</time>
      </trkpt>
      <trkpt lat="47.55052" lon="-2.15881">
        <ele>19.5</ele>
        <time>2021-08-14T14:17:05Z</time>
      </trkpt>
      <trkpt lat="47.5505" lon="-2.15881">
        <ele>19.6</ele>
        <time>2021-08-14T14:17:06Z</time>
      </trkpt>
      <trkpt lat="47.55048" lon="-2.15881">
        <ele>19.7</ele>
        <time>2021-08-14T14:17:08Z</time>
      </trkpt>
      <trkpt lat="47.55044" lon="-2.15882">
        <ele>19.9</ele>
        <time>2021-08-14T14:17:10Z</time>
      </trkpt>
      <trkpt lat="47.55043" lon="-2.15882">
        <ele>19.9</ele>
        <time>2021-08-14T14:17:11Z</time>
      </trkpt>
      <trkpt lat="47.5504" lon="-2.15883">
        <ele>20.1</ele>
        <time>2021-08-14T14:17:13Z</time>
      </trkpt>
      <trkpt lat="47.55036" lon="-2.15886">
        <ele>20.3</ele>
        <time>2021-08-14T14:17:15Z</time>
      </trkpt>
      <trkpt lat="47.55034" lon="-2.15888">
        <ele>20.4</ele>
        <time>2021-08-14T14:17:17Z</time>
      </trkpt>
      <trkpt lat="47.55032" lon="-2.15889">
        <ele>20.4</ele>
        <time>2021-08-14T14:17:19Z</time>
      </trkpt>
      <trkpt lat="47.5503" lon="-2.15891">
        <ele>20.5</ele>
        <time>2021-08-14T14:17:21Z</time>
      </trkpt>
      <trkpt lat="47.55028" lon="-2.15892">
        <ele>20.6</ele>
        <time>2021-08-14T14:17:22Z</time>
      </trkpt>
      <trkpt lat="47.55026" lon="-2.15895">
        <ele>20.7</ele>
        <time>2021-08-14T14:17:23Z</time>
      </trkpt>
      <trkpt lat="47.55024" lon="-2.15897">
        <ele>20.8</ele>
        <time>2021-08-14T14:17:25Z</time>
      </trkpt>
      <trkpt lat="47.55024" lon="-2.15898">
        <ele>20.8</ele>
        <time>2021-08-14T14:17:26Z</time>
      </trkpt>
      <trkpt lat="47.55022" lon="-2.159">
        <ele>20.9</ele>
        <time>2021-08-14T14:17:28Z</time>
      </trkpt>
      <trkpt lat="47.5502" lon="-2.15903">
        <ele>21</ele>
        <time>2021-08-14T14:17:29Z</time>
      </trkpt>
      <trkpt lat="47.55018" lon="-2.15906">
        <ele>21</ele>
        <time>2021-08-14T14:17:30Z</time>
      </trkpt>
      <trkpt lat="47.55016" lon="-2.15907">
        <ele>21.1</ele>
        <time>2021-08-14T14:17:32Z</time>
      </trkpt>
      <trkpt lat="47.55015" lon="-2.15908">
        <ele>21.1</ele>
        <time>2021-08-14T14:17:33Z</time>
      </trkpt>
      <trkpt lat="47.55013" lon="-2.15909">
        <ele>21.1</ele>
        <time>2021-08-14T14:17:35Z</time>
      </trkpt>
      <trkpt lat="47.55012" lon="-2.1591">
        <ele>21.1</ele>
        <time>2021-08-14T14:17:36Z</time>
      </trkpt>
      <trkpt lat="47.55011" lon="-2.15911">
        <ele>21.1</ele>
        <time>2021-08-14T14:17:37Z</time>
      </trkpt>
      <trkpt lat="47.55008" lon="-2.15912">
        <ele>21.2</ele>
        <time>2021-08-14T14:17:39Z</time>
      </trkpt>
      <trkpt lat="47.55007" lon="-2.15912">
        <ele>21.2</ele>
        <time>2021-08-14T14:17:40Z</time>
      </trkpt>
      <trkpt lat="47.55004" lon="-2.15913">
        <ele>21.2</ele>
        <time>2021-08-14T14:17:42Z</time>
      </trkpt>
      <trkpt lat="47.55002" lon="-2.15913">
        <ele>21.2</ele>
        <time>2021-08-14T14:17:43Z</time>
      </trkpt>
      <trkpt lat="47.54999" lon="-2.15913">
        <ele>21.2</ele>
        <time>2021-08-14T14:17:45Z</time>
      </trkpt>
      <trkpt lat="47.54997" lon="-2.15914">
        <ele>21.2</ele>
        <time>2021-08-14T14:17:46Z</time>
      </trkpt>
      <trkpt lat="47.54996" lon="-2.15914">
        <ele>21.3</ele>
        <time>2021-08-14T14:17:47Z</time>
      </trkpt>
      <trkpt lat="47.54995" lon="-2.15915">
        <ele>21.3</ele>
        <time>2021-08-14T14:17:48Z</time>
      </trkpt>
      <trkpt lat="47.54993" lon="-2.15915">
        <ele>21.3</ele>
        <time>2021-08-14T14:17:49Z</time>
      </trkpt>
      <trkpt lat="47.54991" lon="-2.15916">
        <ele>21.3</ele>
        <time>2021-08-14T14:17:51Z</time>
      </trkpt>
      <trkpt lat="47.5499" lon="-2.15916">
        <ele>21.3</ele>
        <time>2021-08-14T14:17:53Z</time>
      </trkpt>
      <trkpt lat="47.54991" lon="-2.15915">
        <ele>21.3</ele>
        <time>2021-08-14T14:17:54Z</time>
      </trkpt>
      <trkpt lat="47.54991" lon="-2.15915">
        <ele>21.3</ele>
        <time>2021-08-14T14:17:56Z</time>
      </trkpt>
      <trkpt lat="47.54991" lon="-2.15915">
        <ele>21.3</ele>
        <time>2021-08-14T14:17:57Z</time>
      </trkpt>
      <trkpt lat="47.54991" lon="-2.15915">
        <ele>21.3</ele>
        <time>2021-08-14T14:17:59Z</time>
      </trkpt>
      <trkpt lat="47.5499" lon="-2.15915">
        <ele>21.3</ele>
        <time>2021-08-14T14:18:01Z</time>
      </trkpt>
      <trkpt lat="47.54985" lon="-2.15915">
        <ele>21.4</ele>
        <time>2021-08-14T14:18:04Z</time>
      </trkpt>
      <trkpt lat="47.5498" lon="-2.15915">
        <ele>21.5</ele>
        <time>2021-08-14T14:18:06Z</time>
      </trkpt>
      <trkpt lat="47.54979" lon="-2.15915">
        <ele>21.5</ele>
        <time>2021-08-14T14:18:07Z</time>
      </trkpt>
      <trkpt lat="47.54977" lon="-2.15915">
        <ele>21.5</ele>
        <time>2021-08-14T14:18:08Z</time>
      </trkpt>
      <trkpt lat="47.54975" lon="-2.15915">
        <ele>21.5</ele>
        <time>2021-08-14T14:18:09Z</time>
      </trkpt>
      <trkpt lat="47.54974" lon="-2.15916">
        <ele>21.5</ele>
        <time>2021-08-14T14:18:10Z</time>
      </trkpt>
      <trkpt lat="47.5497" lon="-2.15916">
        <ele>21.6</ele>
        <time>2021-08-14T14:18:12Z</time>
      </trkpt>
      <trkpt lat="47.54969" lon="-2.15916">
        <ele>21.6</ele>
        <time>2021-08-14T14:18:13Z</time>
      </trkpt>
      <trkpt lat="47.54966" lon="-2.15916">
        <ele>21.6</ele>
        <time>2021-08-14T14:18:15Z</time>
      </trkpt>
      <trkpt lat="47.54963" lon="-2.15916">
        <ele>21.7</ele>
        <time>2021-08-14T14:18:17Z</time>
      </trkpt>
      <trkpt lat="47.54961" lon="-2.15915">
        <ele>21.7</ele>
        <time>2021-08-14T14:18:18Z</time>
      </trkpt>
      <trkpt lat="47.54958" lon="-2.15915">
        <ele>21.8</ele>
        <time>2021-08-14T14:18:20Z</time>
      </trkpt>
      <trkpt lat="47.54954" lon="-2.15913">
        <ele>21.9</ele>
        <time>2021-08-14T14:18:21Z</time>
      </trkpt>
      <trkpt lat="47.54953" lon="-2.15913">
        <ele>21.9</ele>
        <time>2021-08-14T14:18:22Z</time>
      </trkpt>
      <trkpt lat="47.5495" lon="-2.15913">
        <ele>21.9</ele>
        <time>2021-08-14T14:18:24Z</time>
      </trkpt>
      <trkpt lat="47.54949" lon="-2.15913">
        <ele>22</ele>
        <time>2021-08-14T14:18:25Z</time>
      </trkpt>
      <trkpt lat="47.54947" lon="-2.15912">
        <ele>22</ele>
        <time>2021-08-14T14:18:27Z</time>
      </trkpt>
      <trkpt lat="47.54944" lon="-2.15909">
        <ele>22.3</ele>
        <time>2021-08-14T14:18:28Z</time>
      </trkpt>
      <trkpt lat="47.54943" lon="-2.15909">
        <ele>22.3</ele>
        <time>2021-08-14T14:18:29Z</time>
      </trkpt>
      <trkpt lat="47.54942" lon="-2.15907">
        <ele>22.3</ele>
        <time>2021-08-14T14:18:30Z</time>
      </trkpt>
      <trkpt lat="47.54941" lon="-2.15903">
        <ele>22.3</ele>
        <time>2021-08-14T14:18:32Z</time>
      </trkpt>
      <trkpt lat="47.54941" lon="-2.159">
        <ele>22.4</ele>
        <time>2021-08-14T14:18:33Z</time>
      </trkpt>
      <trkpt lat="47.54941" lon="-2.15895">
        <ele>22.5</ele>
        <time>2021-08-14T14:18:35Z</time>
      </trkpt>
      <trkpt lat="47.54941" lon="-2.15889">
        <ele>22.5</ele>
        <time>2021-08-14T14:18:37Z</time>
      </trkpt>
      <trkpt lat="47.54941" lon="-2.15887">
        <ele>22.6</ele>
        <time>2021-08-14T14:18:38Z</time>
      </trkpt>
      <trkpt lat="47.5494" lon="-2.15882">
        <ele>22.6</ele>
        <time>2021-08-14T14:18:40Z</time>
      </trkpt>
      <trkpt lat="47.5494" lon="-2.15878">
        <ele>22.7</ele>
        <time>2021-08-14T14:18:41Z</time>
      </trkpt>
      <trkpt lat="47.54939" lon="-2.15872">
        <ele>22.8</ele>
        <time>2021-08-14T14:18:43Z</time>
      </trkpt>
      <trkpt lat="47.54939" lon="-2.15868">
        <ele>22.9</ele>
        <time>2021-08-14T14:18:45Z</time>
      </trkpt>
      <trkpt lat="47.54938" lon="-2.15864">
        <ele>23</ele>
        <time>2021-08-14T14:18:47Z</time>
      </trkpt>
      <trkpt lat="47.54938" lon="-2.15859">
        <ele>23.1</ele>
        <time>2021-08-14T14:18:48Z</time>
      </trkpt>
      <trkpt lat="47.54937" lon="-2.15857">
        <ele>23.2</ele>
        <time>2021-08-14T14:18:49Z</time>
      </trkpt>
      <trkpt lat="47.54937" lon="-2.15851">
        <ele>23.3</ele>
        <time>2021-08-14T14:18:51Z</time>
      </trkpt>
      <trkpt lat="47.54936" lon="-2.15846">
        <ele>23.4</ele>
        <time>2021-08-14T14:18:53Z</time>
      </trkpt>
      <trkpt lat="47.54936" lon="-2.15845">
        <ele>23.5</ele>
        <time>2021-08-14T14:18:54Z</time>
      </trkpt>
      <trkpt lat="47.54936" lon="-2.15842">
        <ele>23.6</ele>
        <time>2021-08-14T14:18:55Z</time>
      </trkpt>
      <trkpt lat="47.54935" lon="-2.15839">
        <ele>23.7</ele>
        <time>2021-08-14T14:18:57Z</time>
      </trkpt>
      <trkpt lat="47.54935" lon="-2.15834">
        <ele>23.8</ele>
        <time>2021-08-14T14:18:58Z</time>
      </trkpt>
      <trkpt lat="47.54935" lon="-2.15833">
        <ele>23.9</ele>
        <time>2021-08-14T14:18:59Z</time>
      </trkpt>
      <trkpt lat="47.54934" lon="-2.15827">
        <ele>24.1</ele>
        <time>2021-08-14T14:19:01Z</time>
      </trkpt>
      <trkpt lat="47.54934" lon="-2.15825">
        <ele>24.1</ele>
        <time>2021-08-14T14:19:02Z</time>
      </trkpt>
      <trkpt lat="47.54934" lon="-2.15823">
        <ele>24.2</ele>
        <time>2021-08-14T14:19:03Z</time>
      </trkpt>
      <trkpt lat="47.54933" lon="-2.15818">
        <ele>24.4</ele>
        <time>2021-08-14T14:19:05Z</time>
      </trkpt>
      <trkpt lat="47.54933" lon="-2.15813">
        <ele>24.5</ele>
        <time>2021-08-14T14:19:07Z</time>
      </trkpt>
      <trkpt lat="47.54933" lon="-2.15811">
        <ele>24.6</ele>
        <time>2021-08-14T14:19:08Z</time>
      </trkpt>
      <trkpt lat="47.54933" lon="-2.15808">
        <ele>24.7</ele>
        <time>2021-08-14T14:19:10Z</time>
      </trkpt>
      <trkpt lat="47.54934" lon="-2.15803">
        <ele>24.8</ele>
        <time>2021-08-14T14:19:11Z</time>
      </trkpt>
      <trkpt lat="47.54934" lon="-2.15798">
        <ele>25</ele>
        <time>2021-08-14T14:19:13Z</time>
      </trkpt>
      <trkpt lat="47.54935" lon="-2.15796">
        <ele>25.1</ele>
        <time>2021-08-14T14:19:14Z</time>
      </trkpt>
      <trkpt lat="47.54935" lon="-2.15794">
        <ele>25.1</ele>
        <time>2021-08-14T14:19:15Z</time>
      </trkpt>
      <trkpt lat="47.54935" lon="-2.15791">
        <ele>25.2</ele>
        <time>2021-08-14T14:19:16Z</time>
      </trkpt>
      <trkpt lat="47.54936" lon="-2.15786">
        <ele>25.4</ele>
        <time>2021-08-14T14:19:18Z</time>
      </trkpt>
      <trkpt lat="47.54936" lon="-2.15781">
        <ele>25.5</ele>
        <time>2021-08-14T14:19:20Z</time>
      </trkpt>
      <trkpt lat="47.54937" lon="-2.15777">
        <ele>25.6</ele>
        <time>2021-08-14T14:19:22Z</time>
      </trkpt>
      <trkpt lat="47.54937" lon="-2.15774">
        <ele>25.7</ele>
        <time>2021-08-14T14:19:23Z</time>
      </trkpt>
      <trkpt lat="47.54938" lon="-2.15772">
        <ele>25.8</ele>
        <time>2021-08-14T14:19:24Z</time>
      </trkpt>
      <trkpt lat="47.54939" lon="-2.15767">
        <ele>25.9</ele>
        <time>2021-08-14T14:19:26Z</time>
      </trkpt>
      <trkpt lat="47.54939" lon="-2.15765">
        <ele>26</ele>
        <time>2021-08-14T14:19:27Z</time>
      </trkpt>
      <trkpt lat="47.5494" lon="-2.15762">
        <ele>26.1</ele>
        <time>2021-08-14T14:19:29Z</time>
      </trkpt>
      <trkpt lat="47.54941" lon="-2.15757">
        <ele>26.2</ele>
        <time>2021-08-14T14:19:30Z</time>
      </trkpt>
      <trkpt lat="47.54941" lon="-2.15756">
        <ele>26.3</ele>
        <time>2021-08-14T14:19:31Z</time>
      </trkpt>
      <trkpt lat="47.54943" lon="-2.15751">
        <ele>26.4</ele>
        <time>2021-08-14T14:19:33Z</time>
      </trkpt>
      <trkpt lat="47.54943" lon="-2.1575">
        <ele>26.5</ele>
        <time>2021-08-14T14:19:34Z</time>
      </trkpt>
      <trkpt lat="47.54943" lon="-2.15747">
        <ele>26.5</ele>
        <time>2021-08-14T14:19:35Z</time>
      </trkpt>
      <trkpt lat="47.54944" lon="-2.15745">
        <ele>26.6</ele>
        <time>2021-08-14T14:19:36Z</time>
      </trkpt>
      <trkpt lat="47.54944" lon="-2.1574">
        <ele>26.7</ele>
        <time>2021-08-14T14:19:38Z</time>
      </trkpt>
      <trkpt lat="47.54945" lon="-2.15737">
        <ele>26.8</ele>
        <time>2021-08-14T14:19:39Z</time>
      </trkpt>
      <trkpt lat="47.54944" lon="-2.15733">
        <ele>26.9</ele>
        <time>2021-08-14T14:19:41Z</time>
      </trkpt>
      <trkpt lat="47.54943" lon="-2.15731">
        <ele>26.9</ele>
        <time>2021-08-14T14:19:42Z</time>
      </trkpt>
      <trkpt lat="47.54943" lon="-2.15729">
        <ele>27</ele>
        <time>2021-08-14T14:19:43Z</time>
      </trkpt>
      <trkpt lat="47.54942" lon="-2.15727">
        <ele>27</ele>
        <time>2021-08-14T14:19:44Z</time>
      </trkpt>
      <trkpt lat="47.54941" lon="-2.15725">
        <ele>27.1</ele>
        <time>2021-08-14T14:19:45Z</time>
      </trkpt>
      <trkpt lat="47.54939" lon="-2.15723">
        <ele>27.1</ele>
        <time>2021-08-14T14:19:46Z</time>
      </trkpt>
      <trkpt lat="47.54938" lon="-2.15721">
        <ele>27.2</ele>
        <time>2021-08-14T14:19:48Z</time>
      </trkpt>
      <trkpt lat="47.54935" lon="-2.15718">
        <ele>27.3</ele>
        <time>2021-08-14T14:19:49Z</time>
      </trkpt>
      <trkpt lat="47.54934" lon="-2.15717">
        <ele>27.3</ele>
        <time>2021-08-14T14:19:50Z</time>
      </trkpt>
      <trkpt lat="47.54933" lon="-2.15716">
        <ele>27.4</ele>
        <time>2021-08-14T14:19:51Z</time>
      </trkpt>
      <trkpt lat="47.54929" lon="-2.15713">
        <ele>27.5</ele>
        <time>2021-08-14T14:19:53Z</time>
      </trkpt>
      <trkpt lat="47.54928" lon="-2.15711">
        <ele>27.5</ele>
        <time>2021-08-14T14:19:55Z</time>
      </trkpt>
      <trkpt lat="47.54927" lon="-2.1571">
        <ele>27.6</ele>
        <time>2021-08-14T14:19:56Z</time>
      </trkpt>
      <trkpt lat="47.54926" lon="-2.15709">
        <ele>27.6</ele>
        <time>2021-08-14T14:19:57Z</time>
      </trkpt>
      <trkpt lat="47.54925" lon="-2.15708">
        <ele>27.6</ele>
        <time>2021-08-14T14:19:58Z</time>
      </trkpt>
      <trkpt lat="47.54922" lon="-2.15706">
        <ele>27.7</ele>
        <time>2021-08-14T14:20:00Z</time>
      </trkpt>
      <trkpt lat="47.54919" lon="-2.15705">
        <ele>27.8</ele>
        <time>2021-08-14T14:20:02Z</time>
      </trkpt>
      <trkpt lat="47.54918" lon="-2.15704">
        <ele>27.9</ele>
        <time>2021-08-14T14:20:03Z</time>
      </trkpt>
      <trkpt lat="47.54916" lon="-2.15703">
        <ele>27.9</ele>
        <time>2021-08-14T14:20:04Z</time>
      </trkpt>
      <trkpt lat="47.54914" lon="-2.15702">
        <ele>28</ele>
        <time>2021-08-14T14:20:05Z</time>
      </trkpt>
      <trkpt lat="47.54913" lon="-2.157">
        <ele>28</ele>
        <time>2021-08-14T14:20:07Z</time>
      </trkpt>
      <trkpt lat="47.54911" lon="-2.15699">
        <ele>28.1</ele>
        <time>2021-08-14T14:20:08Z</time>
      </trkpt>
      <trkpt lat="47.54909" lon="-2.15698">
        <ele>28.1</ele>
        <time>2021-08-14T14:20:09Z</time>
      </trkpt>
      <trkpt lat="47.54906" lon="-2.15697">
        <ele>28.2</ele>
        <time>2021-08-14T14:20:10Z</time>
      </trkpt>
      <trkpt lat="47.54905" lon="-2.15696">
        <ele>28.3</ele>
        <time>2021-08-14T14:20:11Z</time>
      </trkpt>
      <trkpt lat="47.54903" lon="-2.15696">
        <ele>28.3</ele>
        <time>2021-08-14T14:20:13Z</time>
      </trkpt>
      <trkpt lat="47.54901" lon="-2.15695">
        <ele>28.4</ele>
        <time>2021-08-14T14:20:14Z</time>
      </trkpt>
      <trkpt lat="47.549" lon="-2.15694">
        <ele>28.4</ele>
        <time>2021-08-14T14:20:15Z</time>
      </trkpt>
      <trkpt lat="47.54896" lon="-2.15692">
        <ele>28.6</ele>
        <time>2021-08-14T14:20:17Z</time>
      </trkpt>
      <trkpt lat="47.54894" lon="-2.15691">
        <ele>28.6</ele>
        <time>2021-08-14T14:20:18Z</time>
      </trkpt>
      <trkpt lat="47.54893" lon="-2.1569">
        <ele>28.6</ele>
        <time>2021-08-14T14:20:19Z</time>
      </trkpt>
      <trkpt lat="47.5489" lon="-2.15688">
        <ele>28.7</ele>
        <time>2021-08-14T14:20:21Z</time>
      </trkpt>
      <trkpt lat="47.54889" lon="-2.15688">
        <ele>28.8</ele>
        <time>2021-08-14T14:20:22Z</time>
      </trkpt>
      <trkpt lat="47.54887" lon="-2.15687">
        <ele>28.8</ele>
        <time>2021-08-14T14:20:23Z</time>
      </trkpt>
      <trkpt lat="47.54885" lon="-2.15686">
        <ele>28.9</ele>
        <time>2021-08-14T14:20:25Z</time>
      </trkpt>
      <trkpt lat="47.54882" lon="-2.15685">
        <ele>29</ele>
        <time>2021-08-14T14:20:26Z</time>
      </trkpt>
      <trkpt lat="47.54881" lon="-2.15684">
        <ele>29</ele>
        <time>2021-08-14T14:20:27Z</time>
      </trkpt>
      <trkpt lat="47.54877" lon="-2.15682">
        <ele>29.2</ele>
        <time>2021-08-14T14:20:29Z</time>
      </trkpt>
      <trkpt lat="47.54875" lon="-2.15681">
        <ele>29.2</ele>
        <time>2021-08-14T14:20:31Z</time>
      </trkpt>
      <trkpt lat="47.54874" lon="-2.15681">
        <ele>29.3</ele>
        <time>2021-08-14T14:20:32Z</time>
      </trkpt>
      <trkpt lat="47.54872" lon="-2.1568">
        <ele>29.3</ele>
        <time>2021-08-14T14:20:34Z</time>
      </trkpt>
      <trkpt lat="47.5487" lon="-2.1568">
        <ele>29.4</ele>
        <time>2021-08-14T14:20:35Z</time>
      </trkpt>
      <trkpt lat="47.54868" lon="-2.1568">
        <ele>29.5</ele>
        <time>2021-08-14T14:20:36Z</time>
      </trkpt>
      <trkpt lat="47.54867" lon="-2.1568">
        <ele>29.5</ele>
        <time>2021-08-14T14:20:37Z</time>
      </trkpt>
      <trkpt lat="47.54866" lon="-2.1568">
        <ele>29.5</ele>
        <time>2021-08-14T14:20:38Z</time>
      </trkpt>
      <trkpt lat="47.54863" lon="-2.15679">
        <ele>29.6</ele>
        <time>2021-08-14T14:20:40Z</time>
      </trkpt>
      <trkpt lat="47.54862" lon="-2.15679">
        <ele>29.7</ele>
        <time>2021-08-14T14:20:41Z</time>
      </trkpt>
      <trkpt lat="47.54859" lon="-2.15677">
        <ele>29.8</ele>
        <time>2021-08-14T14:20:43Z</time>
      </trkpt>
      <trkpt lat="47.54859" lon="-2.15677">
        <ele>29.8</ele>
        <time>2021-08-14T14:20:45Z</time>
      </trkpt>
      <trkpt lat="47.54858" lon="-2.15676">
        <ele>29.8</ele>
        <time>2021-08-14T14:20:47Z</time>
      </trkpt>
      <trkpt lat="47.54858" lon="-2.15676">
        <ele>29.8</ele>
        <time>2021-08-14T14:20:49Z</time>
      </trkpt>
      <trkpt lat="47.54858" lon="-2.15675">
        <ele>29.8</ele>
        <time>2021-08-14T14:20:50Z</time>
      </trkpt>
      <trkpt lat="47.54857" lon="-2.15675">
        <ele>29.8</ele>
        <time>2021-08-14T14:20:51Z</time>
      </trkpt>
      <trkpt lat="47.54857" lon="-2.15674">
        <ele>29.9</ele>
        <time>2021-08-14T14:20:52Z</time>
      </trkpt>
      <trkpt lat="47.54856" lon="-2.15674">
        <ele>29.9</ele>
        <time>2021-08-14T14:20:54Z</time>
      </trkpt>
      <trkpt lat="47.54856" lon="-2.15673">
        <ele>29.9</ele>
        <time>2021-08-14T14:22:32Z</time>
      </trkpt>
      <trkpt lat="47.54856" lon="-2.15673">
        <ele>29.9</ele>
        <time>2021-08-14T14:22:33Z</time>
      </trkpt>
      <trkpt lat="47.54855" lon="-2.15672">
        <ele>29.9</ele>
        <time>2021-08-14T14:22:34Z</time>
      </trkpt>
      <trkpt lat="47.54851" lon="-2.1567">
        <ele>30</ele>
        <time>2021-08-14T14:22:36Z</time>
      </trkpt>
      <trkpt lat="47.54849" lon="-2.15669">
        <ele>30.1</ele>
        <time>2021-08-14T14:22:37Z</time>
      </trkpt>
      <trkpt lat="47.54846" lon="-2.15668">
        <ele>30.2</ele>
        <time>2021-08-14T14:22:39Z</time>
      </trkpt>
      <trkpt lat="47.54844" lon="-2.15666">
        <ele>30.3</ele>
        <time>2021-08-14T14:22:40Z</time>
      </trkpt>
      <trkpt lat="47.54843" lon="-2.15666">
        <ele>30.3</ele>
        <time>2021-08-14T14:22:41Z</time>
      </trkpt>
      <trkpt lat="47.54839" lon="-2.15664">
        <ele>30.4</ele>
        <time>2021-08-14T14:22:43Z</time>
      </trkpt>
      <trkpt lat="47.54838" lon="-2.15664">
        <ele>30.4</ele>
        <time>2021-08-14T14:22:44Z</time>
      </trkpt>
      <trkpt lat="47.54837" lon="-2.15663">
        <ele>30.5</ele>
        <time>2021-08-14T14:22:45Z</time>
      </trkpt>
      <trkpt lat="47.54835" lon="-2.15662">
        <ele>30.5</ele>
        <time>2021-08-14T14:22:47Z</time>
      </trkpt>
      <trkpt lat="47.54833" lon="-2.1566">
        <ele>30.6</ele>
        <time>2021-08-14T14:22:48Z</time>
      </trkpt>
      <trkpt lat="47.54832" lon="-2.15658">
        <ele>30.7</ele>
        <time>2021-08-14T14:22:50Z</time>
      </trkpt>
      <trkpt lat="47.54829" lon="-2.15656">
        <ele>30.8</ele>
        <time>2021-08-14T14:22:51Z</time>
      </trkpt>
      <trkpt lat="47.54828" lon="-2.15656">
        <ele>30.8</ele>
        <time>2021-08-14T14:22:52Z</time>
      </trkpt>
      <trkpt lat="47.54827" lon="-2.15655">
        <ele>30.8</ele>
        <time>2021-08-14T14:22:53Z</time>
      </trkpt>
      <trkpt lat="47.54825" lon="-2.15653">
        <ele>30.9</ele>
        <time>2021-08-14T14:22:55Z</time>
      </trkpt>
      <trkpt lat="47.54823" lon="-2.15652">
        <ele>31</ele>
        <time>2021-08-14T14:22:56Z</time>
      </trkpt>
      <trkpt lat="47.54822" lon="-2.15651">
        <ele>31</ele>
        <time>2021-08-14T14:22:57Z</time>
      </trkpt>
      <trkpt lat="47.5482" lon="-2.15651">
        <ele>31.1</ele>
        <time>2021-08-14T14:22:58Z</time>
      </trkpt>
      <trkpt lat="47.54818" lon="-2.15649">
        <ele>31.2</ele>
        <time>2021-08-14T14:23:00Z</time>
      </trkpt>
      <trkpt lat="47.54817" lon="-2.15648">
        <ele>31.2</ele>
        <time>2021-08-14T14:23:01Z</time>
      </trkpt>
      <trkpt lat="47.54816" lon="-2.15647">
        <ele>31.3</ele>
        <time>2021-08-14T14:23:02Z</time>
      </trkpt>
      <trkpt lat="47.54814" lon="-2.15646">
        <ele>31.3</ele>
        <time>2021-08-14T14:23:03Z</time>
      </trkpt>
      <trkpt lat="47.54813" lon="-2.15645">
        <ele>31.4</ele>
        <time>2021-08-14T14:23:04Z</time>
      </trkpt>
      <trkpt lat="47.54812" lon="-2.15644">
        <ele>31.4</ele>
        <time>2021-08-14T14:23:06Z</time>
      </trkpt>
      <trkpt lat="47.5481" lon="-2.15643">
        <ele>31.5</ele>
        <time>2021-08-14T14:23:07Z</time>
      </trkpt>
      <trkpt lat="47.54809" lon="-2.15642">
        <ele>31.5</ele>
        <time>2021-08-14T14:23:08Z</time>
      </trkpt>
      <trkpt lat="47.54807" lon="-2.15641">
        <ele>31.6</ele>
        <time>2021-08-14T14:23:09Z</time>
      </trkpt>
      <trkpt lat="47.54806" lon="-2.1564">
        <ele>31.7</ele>
        <time>2021-08-14T14:23:10Z</time>
      </trkpt>
      <trkpt lat="47.54805" lon="-2.1564">
        <ele>31.7</ele>
        <time>2021-08-14T14:23:11Z</time>
      </trkpt>
      <trkpt lat="47.54803" lon="-2.15639">
        <ele>31.8</ele>
        <time>2021-08-14T14:23:12Z</time>
      </trkpt>
      <trkpt lat="47.54801" lon="-2.15637">
        <ele>31.9</ele>
        <time>2021-08-14T14:23:14Z</time>
      </trkpt>
      <trkpt lat="47.548" lon="-2.15636">
        <ele>31.9</ele>
        <time>2021-08-14T14:23:15Z</time>
      </trkpt>
      <trkpt lat="47.54798" lon="-2.15635">
        <ele>32</ele>
        <time>2021-08-14T14:23:16Z</time>
      </trkpt>
      <trkpt lat="47.54794" lon="-2.15633">
        <ele>32.2</ele>
        <time>2021-08-14T14:23:18Z</time>
      </trkpt>
      <trkpt lat="47.54793" lon="-2.15632">
        <ele>32.3</ele>
        <time>2021-08-14T14:23:20Z</time>
      </trkpt>
      <trkpt lat="47.54792" lon="-2.15631">
        <ele>32.3</ele>
        <time>2021-08-14T14:23:21Z</time>
      </trkpt>
      <trkpt lat="47.5479" lon="-2.15631">
        <ele>32.4</ele>
        <time>2021-08-14T14:23:22Z</time>
      </trkpt>
      <trkpt lat="47.54789" lon="-2.1563">
        <ele>32.5</ele>
        <time>2021-08-14T14:23:23Z</time>
      </trkpt>
      <trkpt lat="47.54786" lon="-2.15629">
        <ele>32.6</ele>
        <time>2021-08-14T14:23:25Z</time>
      </trkpt>
      <trkpt lat="47.54785" lon="-2.15628">
        <ele>32.7</ele>
        <time>2021-08-14T14:23:26Z</time>
      </trkpt>
      <trkpt lat="47.54783" lon="-2.15626">
        <ele>32.8</ele>
        <time>2021-08-14T14:23:27Z</time>
      </trkpt>
      <trkpt lat="47.54782" lon="-2.15626">
        <ele>32.9</ele>
        <time>2021-08-14T14:23:29Z</time>
      </trkpt>
      <trkpt lat="47.54781" lon="-2.15625">
        <ele>32.9</ele>
        <time>2021-08-14T14:23:30Z</time>
      </trkpt>
      <trkpt lat="47.54779" lon="-2.15623">
        <ele>33.1</ele>
        <time>2021-08-14T14:23:32Z</time>
      </trkpt>
      <trkpt lat="47.54776" lon="-2.15621">
        <ele>33.3</ele>
        <time>2021-08-14T14:23:34Z</time>
      </trkpt>
      <trkpt lat="47.54774" lon="-2.1562">
        <ele>33.4</ele>
        <time>2021-08-14T14:23:36Z</time>
      </trkpt>
      <trkpt lat="47.54773" lon="-2.1562">
        <ele>33.5</ele>
        <time>2021-08-14T14:23:37Z</time>
      </trkpt>
      <trkpt lat="47.5477" lon="-2.15618">
        <ele>33.7</ele>
        <time>2021-08-14T14:23:38Z</time>
      </trkpt>
      <trkpt lat="47.54769" lon="-2.15617">
        <ele>33.7</ele>
        <time>2021-08-14T14:23:39Z</time>
      </trkpt>
      <trkpt lat="47.54766" lon="-2.15615">
        <ele>33.9</ele>
        <time>2021-08-14T14:23:41Z</time>
      </trkpt>
      <trkpt lat="47.54765" lon="-2.15615">
        <ele>34</ele>
        <time>2021-08-14T14:23:42Z</time>
      </trkpt>
      <trkpt lat="47.54762" lon="-2.15614">
        <ele>34.2</ele>
        <time>2021-08-14T14:23:44Z</time>
      </trkpt>
      <trkpt lat="47.5476" lon="-2.15613">
        <ele>34.3</ele>
        <time>2021-08-14T14:23:46Z</time>
      </trkpt>
      <trkpt lat="47.54759" lon="-2.15612">
        <ele>34.4</ele>
        <time>2021-08-14T14:23:47Z</time>
      </trkpt>
      <trkpt lat="47.54757" lon="-2.15612">
        <ele>34.5</ele>
        <time>2021-08-14T14:23:48Z</time>
      </trkpt>
      <trkpt lat="47.54756" lon="-2.15611">
        <ele>34.6</ele>
        <time>2021-08-14T14:23:49Z</time>
      </trkpt>
      <trkpt lat="47.54752" lon="-2.15611">
        <ele>34.8</ele>
        <time>2021-08-14T14:23:51Z</time>
      </trkpt>
      <trkpt lat="47.54752" lon="-2.15611">
        <ele>34.8</ele>
        <time>2021-08-14T14:23:52Z</time>
      </trkpt>
      <trkpt lat="47.54748" lon="-2.1561">
        <ele>35</ele>
        <time>2021-08-14T14:23:54Z</time>
      </trkpt>
      <trkpt lat="47.54747" lon="-2.1561">
        <ele>35.1</ele>
        <time>2021-08-14T14:23:55Z</time>
      </trkpt>
      <trkpt lat="47.54744" lon="-2.15609">
        <ele>35.3</ele>
        <time>2021-08-14T14:23:57Z</time>
      </trkpt>
      <trkpt lat="47.54743" lon="-2.15609">
        <ele>35.3</ele>
        <time>2021-08-14T14:23:58Z</time>
      </trkpt>
      <trkpt lat="47.5474" lon="-2.15609">
        <ele>35.5</ele>
        <time>2021-08-14T14:24:00Z</time>
      </trkpt>
      <trkpt lat="47.54739" lon="-2.15609">
        <ele>35.6</ele>
        <time>2021-08-14T14:24:01Z</time>
      </trkpt>
      <trkpt lat="47.54738" lon="-2.15609">
        <ele>35.7</ele>
        <time>2021-08-14T14:24:02Z</time>
      </trkpt>
      <trkpt lat="47.54736" lon="-2.1561">
        <ele>35.8</ele>
        <time>2021-08-14T14:24:03Z</time>
      </trkpt>
      <trkpt lat="47.54735" lon="-2.15609">
        <ele>35.9</ele>
        <time>2021-08-14T14:24:04Z</time>
      </trkpt>
      <trkpt lat="47.54732" lon="-2.15609">
        <ele>36</ele>
        <time>2021-08-14T14:24:06Z</time>
      </trkpt>
      <trkpt lat="47.54731" lon="-2.15609">
        <ele>36.1</ele>
        <time>2021-08-14T14:24:07Z</time>
      </trkpt>
      <trkpt lat="47.54729" lon="-2.15609">
        <ele>36.3</ele>
        <time>2021-08-14T14:24:08Z</time>
      </trkpt>
      <trkpt lat="47.54728" lon="-2.15608">
        <ele>36.4</ele>
        <time>2021-08-14T14:24:09Z</time>
      </trkpt>
      <trkpt lat="47.54725" lon="-2.15608">
        <ele>36.6</ele>
        <time>2021-08-14T14:24:11Z</time>
      </trkpt>
      <trkpt lat="47.54722" lon="-2.15609">
        <ele>36.8</ele>
        <time>2021-08-14T14:24:13Z</time>
      </trkpt>
      <trkpt lat="47.54721" lon="-2.15609">
        <ele>36.8</ele>
        <time>2021-08-14T14:24:14Z</time>
      </trkpt>
      <trkpt lat="47.54719" lon="-2.15609">
        <ele>36.9</ele>
        <time>2021-08-14T14:24:15Z</time>
      </trkpt>
      <trkpt lat="47.54717" lon="-2.15609">
        <ele>37.1</ele>
        <time>2021-08-14T14:24:17Z</time>
      </trkpt>
      <trkpt lat="47.54715" lon="-2.15608">
        <ele>37.2</ele>
        <time>2021-08-14T14:24:18Z</time>
      </trkpt>
      <trkpt lat="47.54714" lon="-2.15608">
        <ele>37.3</ele>
        <time>2021-08-14T14:24:19Z</time>
      </trkpt>
      <trkpt lat="47.54713" lon="-2.15608">
        <ele>37.4</ele>
        <time>2021-08-14T14:24:20Z</time>
      </trkpt>
      <trkpt lat="47.54712" lon="-2.15609">
        <ele>37.5</ele>
        <time>2021-08-14T14:24:21Z</time>
      </trkpt>
      <trkpt lat="47.54712" lon="-2.15609">
        <ele>37.5</ele>
        <time>2021-08-14T14:24:22Z</time>
      </trkpt>
      <trkpt lat="47.54712" lon="-2.15609">
        <ele>37.5</ele>
        <time>2021-08-14T14:24:23Z</time>
      </trkpt>
      <trkpt lat="47.54712" lon="-2.15609">
        <ele>37.5</ele>
        <time>2021-08-14T14:24:24Z</time>
      </trkpt>
      <trkpt lat="47.54712" lon="-2.15609">
        <ele>37.5</ele>
        <time>2021-08-14T14:24:25Z</time>
      </trkpt>
      <trkpt lat="47.54712" lon="-2.15609">
        <ele>37.6</ele>
        <time>2021-08-14T14:24:27Z</time>
      </trkpt>
      <trkpt lat="47.54712" lon="-2.15609">
        <ele>37.6</ele>
        <time>2021-08-14T14:24:29Z</time>
      </trkpt>
      <trkpt lat="47.54712" lon="-2.15609">
        <ele>37.6</ele>
        <time>2021-08-14T14:24:30Z</time>
      </trkpt>
      <trkpt lat="47.54712" lon="-2.15609">
        <ele>37.6</ele>
        <time>2021-08-14T14:24:32Z</time>
      </trkpt>
      <trkpt lat="47.54711" lon="-2.15612">
        <ele>37.7</ele>
        <time>2021-08-14T14:25:30Z</time>
      </trkpt>
      <trkpt lat="47.5471" lon="-2.15612">
        <ele>37.8</ele>
        <time>2021-08-14T14:25:31Z</time>
      </trkpt>
      <trkpt lat="47.54709" lon="-2.15614">
        <ele>37.9</ele>
        <time>2021-08-14T14:25:32Z</time>
      </trkpt>
      <trkpt lat="47.54709" lon="-2.15615">
        <ele>38.2</ele>
        <time>2021-08-14T14:25:34Z</time>
      </trkpt>
      <trkpt lat="47.54708" lon="-2.15615">
        <ele>38.2</ele>
        <time>2021-08-14T14:25:35Z</time>
      </trkpt>
      <trkpt lat="47.54707" lon="-2.15614">
        <ele>38.2</ele>
        <time>2021-08-14T14:25:36Z</time>
      </trkpt>
      <trkpt lat="47.54706" lon="-2.15614">
        <ele>38.2</ele>
        <time>2021-08-14T14:25:37Z</time>
      </trkpt>
      <trkpt lat="47.54704" lon="-2.15615">
        <ele>38.2</ele>
        <time>2021-08-14T14:25:39Z</time>
      </trkpt>
      <trkpt lat="47.54702" lon="-2.15615">
        <ele>38.3</ele>
        <time>2021-08-14T14:25:40Z</time>
      </trkpt>
      <trkpt lat="47.547" lon="-2.15611">
        <ele>38.6</ele>
        <time>2021-08-14T14:25:42Z</time>
      </trkpt>
      <trkpt lat="47.54698" lon="-2.15606">
        <ele>38.7</ele>
        <time>2021-08-14T14:25:43Z</time>
      </trkpt>
      <trkpt lat="47.54698" lon="-2.15605">
        <ele>38.8</ele>
        <time>2021-08-14T14:25:44Z</time>
      </trkpt>
      <trkpt lat="47.54697" lon="-2.15603">
        <ele>38.9</ele>
        <time>2021-08-14T14:25:45Z</time>
      </trkpt>
      <trkpt lat="47.54695" lon="-2.15597">
        <ele>39</ele>
        <time>2021-08-14T14:25:47Z</time>
      </trkpt>
      <trkpt lat="47.54694" lon="-2.15594">
        <ele>39.1</ele>
        <time>2021-08-14T14:25:48Z</time>
      </trkpt>
      <trkpt lat="47.54694" lon="-2.1559">
        <ele>39.2</ele>
        <time>2021-08-14T14:25:50Z</time>
      </trkpt>
      <trkpt lat="47.54693" lon="-2.15587">
        <ele>39.3</ele>
        <time>2021-08-14T14:25:51Z</time>
      </trkpt>
      <trkpt lat="47.54693" lon="-2.15585">
        <ele>39.3</ele>
        <time>2021-08-14T14:25:52Z</time>
      </trkpt>
      <trkpt lat="47.54693" lon="-2.1558">
        <ele>39.4</ele>
        <time>2021-08-14T14:25:54Z</time>
      </trkpt>
      <trkpt lat="47.54693" lon="-2.15579">
        <ele>39.4</ele>
        <time>2021-08-14T14:25:55Z</time>
      </trkpt>
      <trkpt lat="47.54693" lon="-2.15575">
        <ele>39.4</ele>
        <time>2021-08-14T14:25:57Z</time>
      </trkpt>
      <trkpt lat="47.54694" lon="-2.1557">
        <ele>39.5</ele>
        <time>2021-08-14T14:25:59Z</time>
      </trkpt>
      <trkpt lat="47.54694" lon="-2.15566">
        <ele>39.5</ele>
        <time>2021-08-14T14:26:01Z</time>
      </trkpt>
      <trkpt lat="47.54694" lon="-2.15563">
        <ele>39.6</ele>
        <time>2021-08-14T14:26:02Z</time>
      </trkpt>
      <trkpt lat="47.54694" lon="-2.15559">
        <ele>39.6</ele>
        <time>2021-08-14T14:26:04Z</time>
      </trkpt>
      <trkpt lat="47.54694" lon="-2.15552">
        <ele>39.6</ele>
        <time>2021-08-14T14:26:06Z</time>
      </trkpt>
      <trkpt lat="47.54694" lon="-2.1555">
        <ele>39.6</ele>
        <time>2021-08-14T14:26:07Z</time>
      </trkpt>
      <trkpt lat="47.54694" lon="-2.15548">
        <ele>39.6</ele>
        <time>2021-08-14T14:26:08Z</time>
      </trkpt>
      <trkpt lat="47.54695" lon="-2.15542">
        <ele>39.6</ele>
        <time>2021-08-14T14:26:10Z</time>
      </trkpt>
      <trkpt lat="47.54695" lon="-2.1554">
        <ele>39.6</ele>
        <time>2021-08-14T14:26:11Z</time>
      </trkpt>
      <trkpt lat="47.54695" lon="-2.15538">
        <ele>39.6</ele>
        <time>2021-08-14T14:26:12Z</time>
      </trkpt>
      <trkpt lat="47.54696" lon="-2.15532">
        <ele>39.6</ele>
        <time>2021-08-14T14:26:14Z</time>
      </trkpt>
      <trkpt lat="47.54697" lon="-2.1553">
        <ele>39.5</ele>
        <time>2021-08-14T14:26:15Z</time>
      </trkpt>
      <trkpt lat="47.54698" lon="-2.15523">
        <ele>39.5</ele>
        <time>2021-08-14T14:26:17Z</time>
      </trkpt>
      <trkpt lat="47.54699" lon="-2.1552">
        <ele>39.5</ele>
        <time>2021-08-14T14:26:18Z</time>
      </trkpt>
      <trkpt lat="47.54701" lon="-2.15514">
        <ele>39.4</ele>
        <time>2021-08-14T14:26:20Z</time>
      </trkpt>
      <trkpt lat="47.54702" lon="-2.15506">
        <ele>39.3</ele>
        <time>2021-08-14T14:26:22Z</time>
      </trkpt>
      <trkpt lat="47.54703" lon="-2.15498">
        <ele>39.2</ele>
        <time>2021-08-14T14:26:24Z</time>
      </trkpt>
      <trkpt lat="47.54704" lon="-2.15494">
        <ele>39.2</ele>
        <time>2021-08-14T14:26:25Z</time>
      </trkpt>
      <trkpt lat="47.54706" lon="-2.15486">
        <ele>39</ele>
        <time>2021-08-14T14:26:27Z</time>
      </trkpt>
      <trkpt lat="47.54707" lon="-2.1548">
        <ele>38.9</ele>
        <time>2021-08-14T14:26:28Z</time>
      </trkpt>
      <trkpt lat="47.54709" lon="-2.15473">
        <ele>38.8</ele>
        <time>2021-08-14T14:26:29Z</time>
      </trkpt>
      <trkpt lat="47.54712" lon="-2.15462">
        <ele>38.6</ele>
        <time>2021-08-14T14:26:31Z</time>
      </trkpt>
      <trkpt lat="47.54713" lon="-2.15455">
        <ele>38.5</ele>
        <time>2021-08-14T14:26:32Z</time>
      </trkpt>
      <trkpt lat="47.54715" lon="-2.15448">
        <ele>38.3</ele>
        <time>2021-08-14T14:26:33Z</time>
      </trkpt>
      <trkpt lat="47.54717" lon="-2.15436">
        <ele>38.2</ele>
        <time>2021-08-14T14:26:35Z</time>
      </trkpt>
      <trkpt lat="47.54718" lon="-2.15423">
        <ele>38</ele>
        <time>2021-08-14T14:26:36Z</time>
      </trkpt>
      <trkpt lat="47.54719" lon="-2.15414">
        <ele>38</ele>
        <time>2021-08-14T14:26:37Z</time>
      </trkpt>
      <trkpt lat="47.54717" lon="-2.15399">
        <ele>37.8</ele>
        <time>2021-08-14T14:26:39Z</time>
      </trkpt>
      <trkpt lat="47.54715" lon="-2.15393">
        <ele>35.9</ele>
        <time>2021-08-14T14:26:40Z</time>
      </trkpt>
      <trkpt lat="47.5471" lon="-2.1539">
        <ele>36.2</ele>
        <time>2021-08-14T14:26:42Z</time>
      </trkpt>
      <trkpt lat="47.54708" lon="-2.1539">
        <ele>36.3</ele>
        <time>2021-08-14T14:26:43Z</time>
      </trkpt>
      <trkpt lat="47.54705" lon="-2.15392">
        <ele>36.5</ele>
        <time>2021-08-14T14:26:44Z</time>
      </trkpt>
      <trkpt lat="47.54703" lon="-2.15395">
        <ele>36.7</ele>
        <time>2021-08-14T14:26:45Z</time>
      </trkpt>
      <trkpt lat="47.54701" lon="-2.15397">
        <ele>36.8</ele>
        <time>2021-08-14T14:26:46Z</time>
      </trkpt>
      <trkpt lat="47.54699" lon="-2.15399">
        <ele>36.9</ele>
        <time>2021-08-14T14:26:48Z</time>
      </trkpt>
      <trkpt lat="47.54695" lon="-2.15403">
        <ele>37.2</ele>
        <time>2021-08-14T14:26:50Z</time>
      </trkpt>
      <trkpt lat="47.54693" lon="-2.15404">
        <ele>37.3</ele>
        <time>2021-08-14T14:26:52Z</time>
      </trkpt>
      <trkpt lat="47.54692" lon="-2.15405">
        <ele>37.4</ele>
        <time>2021-08-14T14:26:53Z</time>
      </trkpt>
      <trkpt lat="47.5469" lon="-2.15406">
        <ele>37.5</ele>
        <time>2021-08-14T14:26:54Z</time>
      </trkpt>
      <trkpt lat="47.54687" lon="-2.15409">
        <ele>37.7</ele>
        <time>2021-08-14T14:26:56Z</time>
      </trkpt>
      <trkpt lat="47.54685" lon="-2.1541">
        <ele>37.8</ele>
        <time>2021-08-14T14:26:57Z</time>
      </trkpt>
      <trkpt lat="47.54681" lon="-2.15411">
        <ele>38</ele>
        <time>2021-08-14T14:26:59Z</time>
      </trkpt>
      <trkpt lat="47.54678" lon="-2.15413">
        <ele>38.2</ele>
        <time>2021-08-14T14:27:01Z</time>
      </trkpt>
      <trkpt lat="47.54677" lon="-2.15414">
        <ele>38.3</ele>
        <time>2021-08-14T14:27:02Z</time>
      </trkpt>
      <trkpt lat="47.54675" lon="-2.15415">
        <ele>38.3</ele>
        <time>2021-08-14T14:27:03Z</time>
      </trkpt>
      <trkpt lat="47.54673" lon="-2.15417">
        <ele>38.5</ele>
        <time>2021-08-14T14:27:05Z</time>
      </trkpt>
      <trkpt lat="47.54669" lon="-2.15419">
        <ele>38.7</ele>
        <time>2021-08-14T14:27:07Z</time>
      </trkpt>
      <trkpt lat="47.54666" lon="-2.15421">
        <ele>38.8</ele>
        <time>2021-08-14T14:27:09Z</time>
      </trkpt>
      <trkpt lat="47.54665" lon="-2.15422">
        <ele>38.9</ele>
        <time>2021-08-14T14:27:10Z</time>
      </trkpt>
      <trkpt lat="47.54663" lon="-2.15422">
        <ele>39</ele>
        <time>2021-08-14T14:27:11Z</time>
      </trkpt>
      <trkpt lat="47.5466" lon="-2.15424">
        <ele>39.2</ele>
        <time>2021-08-14T14:27:13Z</time>
      </trkpt>
      <trkpt lat="47.54658" lon="-2.15425">
        <ele>39.3</ele>
        <time>2021-08-14T14:27:14Z</time>
      </trkpt>
      <trkpt lat="47.54656" lon="-2.15426">
        <ele>39.4</ele>
        <time>2021-08-14T14:27:15Z</time>
      </trkpt>
      <trkpt lat="47.54655" lon="-2.15427">
        <ele>39.5</ele>
        <time>2021-08-14T14:27:16Z</time>
      </trkpt>
      <trkpt lat="47.54651" lon="-2.15428">
        <ele>39.7</ele>
        <time>2021-08-14T14:27:18Z</time>
      </trkpt>
      <trkpt lat="47.5465" lon="-2.15429">
        <ele>39.8</ele>
        <time>2021-08-14T14:27:19Z</time>
      </trkpt>
      <trkpt lat="47.54647" lon="-2.1543">
        <ele>39.9</ele>
        <time>2021-08-14T14:27:21Z</time>
      </trkpt>
      <trkpt lat="47.54645" lon="-2.1543">
        <ele>40</ele>
        <time>2021-08-14T14:27:22Z</time>
      </trkpt>
      <trkpt lat="47.54641" lon="-2.15431">
        <ele>40.4</ele>
        <time>2021-08-14T14:27:24Z</time>
      </trkpt>
      <trkpt lat="47.54638" lon="-2.15432">
        <ele>40.5</ele>
        <time>2021-08-14T14:27:26Z</time>
      </trkpt>
      <trkpt lat="47.54635" lon="-2.15432">
        <ele>40.6</ele>
        <time>2021-08-14T14:27:28Z</time>
      </trkpt>
      <trkpt lat="47.54633" lon="-2.15432">
        <ele>40.6</ele>
        <time>2021-08-14T14:27:29Z</time>
      </trkpt>
      <trkpt lat="47.54629" lon="-2.15431">
        <ele>40.7</ele>
        <time>2021-08-14T14:27:31Z</time>
      </trkpt>
      <trkpt lat="47.54626" lon="-2.15431">
        <ele>40.8</ele>
        <time>2021-08-14T14:27:33Z</time>
      </trkpt>
      <trkpt lat="47.54623" lon="-2.1543">
        <ele>40.9</ele>
        <time>2021-08-14T14:27:35Z</time>
      </trkpt>
      <trkpt lat="47.54622" lon="-2.15429">
        <ele>40.9</ele>
        <time>2021-08-14T14:27:36Z</time>
      </trkpt>
      <trkpt lat="47.54622" lon="-2.15428">
        <ele>40.9</ele>
        <time>2021-08-14T14:27:37Z</time>
      </trkpt>
      <trkpt lat="47.54622" lon="-2.15425">
        <ele>41</ele>
        <time>2021-08-14T14:27:39Z</time>
      </trkpt>
      <trkpt lat="47.54623" lon="-2.15424">
        <ele>41</ele>
        <time>2021-08-14T14:27:40Z</time>
      </trkpt>
      <trkpt lat="47.54624" lon="-2.15421">
        <ele>41.1</ele>
        <time>2021-08-14T14:27:42Z</time>
      </trkpt>
      <trkpt lat="47.54624" lon="-2.15419">
        <ele>41.1</ele>
        <time>2021-08-14T14:27:43Z</time>
      </trkpt>
      <trkpt lat="47.54625" lon="-2.15414">
        <ele>41.2</ele>
        <time>2021-08-14T14:27:45Z</time>
      </trkpt>
      <trkpt lat="47.54626" lon="-2.15407">
        <ele>41.4</ele>
        <time>2021-08-14T14:27:47Z</time>
      </trkpt>
      <trkpt lat="47.54627" lon="-2.15405">
        <ele>41.4</ele>
        <time>2021-08-14T14:27:48Z</time>
      </trkpt>
      <trkpt lat="47.54627" lon="-2.15403">
        <ele>41.4</ele>
        <time>2021-08-14T14:27:49Z</time>
      </trkpt>
      <trkpt lat="47.54628" lon="-2.15401">
        <ele>41.5</ele>
        <time>2021-08-14T14:27:50Z</time>
      </trkpt>
      <trkpt lat="47.54629" lon="-2.15395">
        <ele>41.6</ele>
        <time>2021-08-14T14:27:52Z</time>
      </trkpt>
      <trkpt lat="47.54629" lon="-2.15391">
        <ele>41.7</ele>
        <time>2021-08-14T14:27:53Z</time>
      </trkpt>
      <trkpt lat="47.54629" lon="-2.15385">
        <ele>41.8</ele>
        <time>2021-08-14T14:27:55Z</time>
      </trkpt>
      <trkpt lat="47.54629" lon="-2.15383">
        <ele>41.8</ele>
        <time>2021-08-14T14:27:56Z</time>
      </trkpt>
      <trkpt lat="47.54628" lon="-2.15378">
        <ele>41.9</ele>
        <time>2021-08-14T14:27:57Z</time>
      </trkpt>
      <trkpt lat="47.54628" lon="-2.15377">
        <ele>42</ele>
        <time>2021-08-14T14:27:58Z</time>
      </trkpt>
      <trkpt lat="47.54628" lon="-2.15371">
        <ele>42.1</ele>
        <time>2021-08-14T14:28:00Z</time>
      </trkpt>
      <trkpt lat="47.54627" lon="-2.15369">
        <ele>42.1</ele>
        <time>2021-08-14T14:28:01Z</time>
      </trkpt>
      <trkpt lat="47.54626" lon="-2.15363">
        <ele>42.2</ele>
        <time>2021-08-14T14:28:03Z</time>
      </trkpt>
      <trkpt lat="47.54626" lon="-2.15361">
        <ele>42.3</ele>
        <time>2021-08-14T14:28:04Z</time>
      </trkpt>
      <trkpt lat="47.54625" lon="-2.15359">
        <ele>42.3</ele>
        <time>2021-08-14T14:28:05Z</time>
      </trkpt>
      <trkpt lat="47.54621" lon="-2.15358">
        <ele>42.4</ele>
        <time>2021-08-14T14:28:07Z</time>
      </trkpt>
      <trkpt lat="47.54619" lon="-2.15361">
        <ele>42.5</ele>
        <time>2021-08-14T14:28:09Z</time>
      </trkpt>
      <trkpt lat="47.54619" lon="-2.15364">
        <ele>42.6</ele>
        <time>2021-08-14T14:28:10Z</time>
      </trkpt>
      <trkpt lat="47.54618" lon="-2.15366">
        <ele>42.6</ele>
        <time>2021-08-14T14:28:12Z</time>
      </trkpt>
      <trkpt lat="47.54618" lon="-2.15366">
        <ele>42.6</ele>
        <time>2021-08-14T14:28:13Z</time>
      </trkpt>
      <trkpt lat="47.54618" lon="-2.15366">
        <ele>42.6</ele>
        <time>2021-08-14T14:28:15Z</time>
      </trkpt>
      <trkpt lat="47.54618" lon="-2.15366">
        <ele>42.6</ele>
        <time>2021-08-14T14:28:16Z</time>
      </trkpt>
      <trkpt lat="47.54618" lon="-2.15366">
        <ele>42.6</ele>
        <time>2021-08-14T14:28:18Z</time>
      </trkpt>
      <trkpt lat="47.54618" lon="-2.15365">
        <ele>42.6</ele>
        <time>2021-08-14T14:28:19Z</time>
      </trkpt>
      <trkpt lat="47.54618" lon="-2.15365">
        <ele>42.6</ele>
        <time>2021-08-14T14:28:20Z</time>
      </trkpt>
    </trkseg>
  </trk>
</gpx>